<?xml version="1.0" encoding="UTF-8"?>
<gpx xmlns="http://www.topografix.com/GPX/1/1"
     creator="GpsDump 4.73"
     version="1.1"
     xmlns:xsi="http://www.w3.org/2001/XMLSchema-instance"
     xsi:schemaLocation="http://www.topografix.com/GPX/1/1 http://www.topografix.com/GPX/1/1/gpx.xsd">
  <metadata>
    <link href="http://www.gethome.no/stein.sorensen/">
      <text>GPS dump for www.flightlog.org</text>
    </link>
    <time>2013-09-08T13:28:21Z</time>
    <bounds minlat="42.615117" minlon="-2.406617" maxlat="42.659350" maxlon="-2.218200"/>
  </metadata>
  <trk>
    <name>Track 001</name>
    <trkseg>
      <trkpt lat="42.635950" lon="-2.389450">
        <ele>946.0</ele>
        <time>2013-06-22T12:18:17Z</time>
      </trkpt>
      <trkpt lat="42.635983" lon="-2.389450">
        <ele>946.0</ele>
        <time>2013-06-22T12:18:18Z</time>
      </trkpt>
      <trkpt lat="42.636017" lon="-2.389467">
        <ele>946.0</ele>
        <time>2013-06-22T12:18:19Z</time>
      </trkpt>
      <trkpt lat="42.636033" lon="-2.389517">
        <ele>946.0</ele>
        <time>2013-06-22T12:18:20Z</time>
      </trkpt>
      <trkpt lat="42.636033" lon="-2.389567">
        <ele>946.0</ele>
        <time>2013-06-22T12:18:21Z</time>
      </trkpt>
      <trkpt lat="42.636033" lon="-2.389600">
        <ele>946.0</ele>
        <time>2013-06-22T12:18:22Z</time>
      </trkpt>
      <trkpt lat="42.636050" lon="-2.389633">
        <ele>947.0</ele>
        <time>2013-06-22T12:18:23Z</time>
      </trkpt>
      <trkpt lat="42.636067" lon="-2.389667">
        <ele>947.0</ele>
        <time>2013-06-22T12:18:24Z</time>
      </trkpt>
      <trkpt lat="42.636083" lon="-2.389717">
        <ele>948.0</ele>
        <time>2013-06-22T12:18:25Z</time>
      </trkpt>
      <trkpt lat="42.636100" lon="-2.389767">
        <ele>949.0</ele>
        <time>2013-06-22T12:18:26Z</time>
      </trkpt>
      <trkpt lat="42.636133" lon="-2.389817">
        <ele>950.0</ele>
        <time>2013-06-22T12:18:27Z</time>
      </trkpt>
      <trkpt lat="42.636150" lon="-2.389850">
        <ele>951.0</ele>
        <time>2013-06-22T12:18:28Z</time>
      </trkpt>
      <trkpt lat="42.636183" lon="-2.389883">
        <ele>951.0</ele>
        <time>2013-06-22T12:18:29Z</time>
      </trkpt>
      <trkpt lat="42.636183" lon="-2.389933">
        <ele>952.0</ele>
        <time>2013-06-22T12:18:30Z</time>
      </trkpt>
      <trkpt lat="42.636200" lon="-2.390000">
        <ele>952.0</ele>
        <time>2013-06-22T12:18:31Z</time>
      </trkpt>
      <trkpt lat="42.636200" lon="-2.390100">
        <ele>950.0</ele>
        <time>2013-06-22T12:18:32Z</time>
      </trkpt>
      <trkpt lat="42.636200" lon="-2.390217">
        <ele>950.0</ele>
        <time>2013-06-22T12:18:33Z</time>
      </trkpt>
      <trkpt lat="42.636200" lon="-2.390350">
        <ele>949.0</ele>
        <time>2013-06-22T12:18:34Z</time>
      </trkpt>
      <trkpt lat="42.636200" lon="-2.390450">
        <ele>951.0</ele>
        <time>2013-06-22T12:18:35Z</time>
      </trkpt>
      <trkpt lat="42.636183" lon="-2.390533">
        <ele>952.0</ele>
        <time>2013-06-22T12:18:36Z</time>
      </trkpt>
      <trkpt lat="42.636183" lon="-2.390617">
        <ele>952.0</ele>
        <time>2013-06-22T12:18:37Z</time>
      </trkpt>
      <trkpt lat="42.636167" lon="-2.390717">
        <ele>951.0</ele>
        <time>2013-06-22T12:18:38Z</time>
      </trkpt>
      <trkpt lat="42.636133" lon="-2.390833">
        <ele>949.0</ele>
        <time>2013-06-22T12:18:39Z</time>
      </trkpt>
      <trkpt lat="42.636117" lon="-2.390950">
        <ele>946.0</ele>
        <time>2013-06-22T12:18:40Z</time>
      </trkpt>
      <trkpt lat="42.636100" lon="-2.391083">
        <ele>944.0</ele>
        <time>2013-06-22T12:18:41Z</time>
      </trkpt>
      <trkpt lat="42.636067" lon="-2.391200">
        <ele>942.0</ele>
        <time>2013-06-22T12:18:42Z</time>
      </trkpt>
      <trkpt lat="42.636033" lon="-2.391317">
        <ele>941.0</ele>
        <time>2013-06-22T12:18:43Z</time>
      </trkpt>
      <trkpt lat="42.636000" lon="-2.391450">
        <ele>940.0</ele>
        <time>2013-06-22T12:18:44Z</time>
      </trkpt>
      <trkpt lat="42.635967" lon="-2.391567">
        <ele>939.0</ele>
        <time>2013-06-22T12:18:45Z</time>
      </trkpt>
      <trkpt lat="42.635917" lon="-2.391700">
        <ele>938.0</ele>
        <time>2013-06-22T12:18:46Z</time>
      </trkpt>
      <trkpt lat="42.635867" lon="-2.391833">
        <ele>937.0</ele>
        <time>2013-06-22T12:18:47Z</time>
      </trkpt>
      <trkpt lat="42.635817" lon="-2.391967">
        <ele>937.0</ele>
        <time>2013-06-22T12:18:48Z</time>
      </trkpt>
      <trkpt lat="42.635767" lon="-2.392100">
        <ele>937.0</ele>
        <time>2013-06-22T12:18:49Z</time>
      </trkpt>
      <trkpt lat="42.635700" lon="-2.392217">
        <ele>938.0</ele>
        <time>2013-06-22T12:18:50Z</time>
      </trkpt>
      <trkpt lat="42.635650" lon="-2.392350">
        <ele>938.0</ele>
        <time>2013-06-22T12:18:51Z</time>
      </trkpt>
      <trkpt lat="42.635583" lon="-2.392467">
        <ele>939.0</ele>
        <time>2013-06-22T12:18:52Z</time>
      </trkpt>
      <trkpt lat="42.635533" lon="-2.392583">
        <ele>940.0</ele>
        <time>2013-06-22T12:18:53Z</time>
      </trkpt>
      <trkpt lat="42.635467" lon="-2.392717">
        <ele>941.0</ele>
        <time>2013-06-22T12:18:54Z</time>
      </trkpt>
      <trkpt lat="42.635400" lon="-2.392833">
        <ele>942.0</ele>
        <time>2013-06-22T12:18:55Z</time>
      </trkpt>
      <trkpt lat="42.635333" lon="-2.392950">
        <ele>942.0</ele>
        <time>2013-06-22T12:18:56Z</time>
      </trkpt>
      <trkpt lat="42.635267" lon="-2.393067">
        <ele>943.0</ele>
        <time>2013-06-22T12:18:57Z</time>
      </trkpt>
      <trkpt lat="42.635200" lon="-2.393183">
        <ele>943.0</ele>
        <time>2013-06-22T12:18:58Z</time>
      </trkpt>
      <trkpt lat="42.635133" lon="-2.393300">
        <ele>943.0</ele>
        <time>2013-06-22T12:18:59Z</time>
      </trkpt>
      <trkpt lat="42.635067" lon="-2.393433">
        <ele>943.0</ele>
        <time>2013-06-22T12:19:00Z</time>
      </trkpt>
      <trkpt lat="42.635017" lon="-2.393567">
        <ele>944.0</ele>
        <time>2013-06-22T12:19:01Z</time>
      </trkpt>
      <trkpt lat="42.634967" lon="-2.393683">
        <ele>945.0</ele>
        <time>2013-06-22T12:19:02Z</time>
      </trkpt>
      <trkpt lat="42.634917" lon="-2.393800">
        <ele>946.0</ele>
        <time>2013-06-22T12:19:03Z</time>
      </trkpt>
      <trkpt lat="42.634850" lon="-2.393900">
        <ele>948.0</ele>
        <time>2013-06-22T12:19:04Z</time>
      </trkpt>
      <trkpt lat="42.634800" lon="-2.394000">
        <ele>950.0</ele>
        <time>2013-06-22T12:19:05Z</time>
      </trkpt>
      <trkpt lat="42.634767" lon="-2.394100">
        <ele>952.0</ele>
        <time>2013-06-22T12:19:06Z</time>
      </trkpt>
      <trkpt lat="42.634733" lon="-2.394200">
        <ele>952.0</ele>
        <time>2013-06-22T12:19:07Z</time>
      </trkpt>
      <trkpt lat="42.634700" lon="-2.394333">
        <ele>953.0</ele>
        <time>2013-06-22T12:19:08Z</time>
      </trkpt>
      <trkpt lat="42.634667" lon="-2.394450">
        <ele>954.0</ele>
        <time>2013-06-22T12:19:09Z</time>
      </trkpt>
      <trkpt lat="42.634633" lon="-2.394550">
        <ele>955.0</ele>
        <time>2013-06-22T12:19:10Z</time>
      </trkpt>
      <trkpt lat="42.634617" lon="-2.394667">
        <ele>956.0</ele>
        <time>2013-06-22T12:19:11Z</time>
      </trkpt>
      <trkpt lat="42.634633" lon="-2.394767">
        <ele>957.0</ele>
        <time>2013-06-22T12:19:12Z</time>
      </trkpt>
      <trkpt lat="42.634650" lon="-2.394883">
        <ele>958.0</ele>
        <time>2013-06-22T12:19:13Z</time>
      </trkpt>
      <trkpt lat="42.634683" lon="-2.394983">
        <ele>960.0</ele>
        <time>2013-06-22T12:19:14Z</time>
      </trkpt>
      <trkpt lat="42.634700" lon="-2.395083">
        <ele>962.0</ele>
        <time>2013-06-22T12:19:15Z</time>
      </trkpt>
      <trkpt lat="42.634717" lon="-2.395183">
        <ele>964.0</ele>
        <time>2013-06-22T12:19:16Z</time>
      </trkpt>
      <trkpt lat="42.634750" lon="-2.395267">
        <ele>967.0</ele>
        <time>2013-06-22T12:19:17Z</time>
      </trkpt>
      <trkpt lat="42.634783" lon="-2.395367">
        <ele>969.0</ele>
        <time>2013-06-22T12:19:18Z</time>
      </trkpt>
      <trkpt lat="42.634817" lon="-2.395433">
        <ele>970.0</ele>
        <time>2013-06-22T12:19:19Z</time>
      </trkpt>
      <trkpt lat="42.634867" lon="-2.395483">
        <ele>971.0</ele>
        <time>2013-06-22T12:19:20Z</time>
      </trkpt>
      <trkpt lat="42.634917" lon="-2.395500">
        <ele>972.0</ele>
        <time>2013-06-22T12:19:21Z</time>
      </trkpt>
      <trkpt lat="42.634967" lon="-2.395483">
        <ele>972.0</ele>
        <time>2013-06-22T12:19:22Z</time>
      </trkpt>
      <trkpt lat="42.635017" lon="-2.395450">
        <ele>971.0</ele>
        <time>2013-06-22T12:19:23Z</time>
      </trkpt>
      <trkpt lat="42.635067" lon="-2.395383">
        <ele>971.0</ele>
        <time>2013-06-22T12:19:24Z</time>
      </trkpt>
      <trkpt lat="42.635067" lon="-2.395300">
        <ele>972.0</ele>
        <time>2013-06-22T12:19:25Z</time>
      </trkpt>
      <trkpt lat="42.635033" lon="-2.395200">
        <ele>972.0</ele>
        <time>2013-06-22T12:19:26Z</time>
      </trkpt>
      <trkpt lat="42.635000" lon="-2.395117">
        <ele>972.0</ele>
        <time>2013-06-22T12:19:27Z</time>
      </trkpt>
      <trkpt lat="42.634917" lon="-2.395067">
        <ele>971.0</ele>
        <time>2013-06-22T12:19:28Z</time>
      </trkpt>
      <trkpt lat="42.634817" lon="-2.395033">
        <ele>971.0</ele>
        <time>2013-06-22T12:19:29Z</time>
      </trkpt>
      <trkpt lat="42.634700" lon="-2.395050">
        <ele>971.0</ele>
        <time>2013-06-22T12:19:30Z</time>
      </trkpt>
      <trkpt lat="42.634617" lon="-2.395100">
        <ele>971.0</ele>
        <time>2013-06-22T12:19:31Z</time>
      </trkpt>
      <trkpt lat="42.634533" lon="-2.395167">
        <ele>971.0</ele>
        <time>2013-06-22T12:19:32Z</time>
      </trkpt>
      <trkpt lat="42.634450" lon="-2.395267">
        <ele>971.0</ele>
        <time>2013-06-22T12:19:33Z</time>
      </trkpt>
      <trkpt lat="42.634383" lon="-2.395383">
        <ele>972.0</ele>
        <time>2013-06-22T12:19:34Z</time>
      </trkpt>
      <trkpt lat="42.634317" lon="-2.395500">
        <ele>973.0</ele>
        <time>2013-06-22T12:19:35Z</time>
      </trkpt>
      <trkpt lat="42.634250" lon="-2.395617">
        <ele>975.0</ele>
        <time>2013-06-22T12:19:36Z</time>
      </trkpt>
      <trkpt lat="42.634200" lon="-2.395750">
        <ele>977.0</ele>
        <time>2013-06-22T12:19:37Z</time>
      </trkpt>
      <trkpt lat="42.634167" lon="-2.395867">
        <ele>980.0</ele>
        <time>2013-06-22T12:19:38Z</time>
      </trkpt>
      <trkpt lat="42.634150" lon="-2.395983">
        <ele>984.0</ele>
        <time>2013-06-22T12:19:39Z</time>
      </trkpt>
      <trkpt lat="42.634133" lon="-2.396083">
        <ele>988.0</ele>
        <time>2013-06-22T12:19:40Z</time>
      </trkpt>
      <trkpt lat="42.634117" lon="-2.396183">
        <ele>992.0</ele>
        <time>2013-06-22T12:19:41Z</time>
      </trkpt>
      <trkpt lat="42.634100" lon="-2.396267">
        <ele>994.0</ele>
        <time>2013-06-22T12:19:42Z</time>
      </trkpt>
      <trkpt lat="42.634083" lon="-2.396367">
        <ele>997.0</ele>
        <time>2013-06-22T12:19:43Z</time>
      </trkpt>
      <trkpt lat="42.634100" lon="-2.396467">
        <ele>999.0</ele>
        <time>2013-06-22T12:19:44Z</time>
      </trkpt>
      <trkpt lat="42.634150" lon="-2.396550">
        <ele>1001.0</ele>
        <time>2013-06-22T12:19:45Z</time>
      </trkpt>
      <trkpt lat="42.634233" lon="-2.396567">
        <ele>1003.0</ele>
        <time>2013-06-22T12:19:46Z</time>
      </trkpt>
      <trkpt lat="42.634283" lon="-2.396517">
        <ele>1005.0</ele>
        <time>2013-06-22T12:19:47Z</time>
      </trkpt>
      <trkpt lat="42.634300" lon="-2.396417">
        <ele>1003.0</ele>
        <time>2013-06-22T12:19:48Z</time>
      </trkpt>
      <trkpt lat="42.634300" lon="-2.396333">
        <ele>1003.0</ele>
        <time>2013-06-22T12:19:49Z</time>
      </trkpt>
      <trkpt lat="42.634267" lon="-2.396267">
        <ele>1004.0</ele>
        <time>2013-06-22T12:19:50Z</time>
      </trkpt>
      <trkpt lat="42.634233" lon="-2.396200">
        <ele>1007.0</ele>
        <time>2013-06-22T12:19:51Z</time>
      </trkpt>
      <trkpt lat="42.634183" lon="-2.396117">
        <ele>1009.0</ele>
        <time>2013-06-22T12:19:52Z</time>
      </trkpt>
      <trkpt lat="42.634133" lon="-2.396067">
        <ele>1012.0</ele>
        <time>2013-06-22T12:19:53Z</time>
      </trkpt>
      <trkpt lat="42.634067" lon="-2.396017">
        <ele>1011.0</ele>
        <time>2013-06-22T12:19:54Z</time>
      </trkpt>
      <trkpt lat="42.633967" lon="-2.396000">
        <ele>1012.0</ele>
        <time>2013-06-22T12:19:55Z</time>
      </trkpt>
      <trkpt lat="42.633883" lon="-2.396017">
        <ele>1013.0</ele>
        <time>2013-06-22T12:19:56Z</time>
      </trkpt>
      <trkpt lat="42.633783" lon="-2.396050">
        <ele>1015.0</ele>
        <time>2013-06-22T12:19:57Z</time>
      </trkpt>
      <trkpt lat="42.633700" lon="-2.396117">
        <ele>1017.0</ele>
        <time>2013-06-22T12:19:58Z</time>
      </trkpt>
      <trkpt lat="42.633633" lon="-2.396200">
        <ele>1020.0</ele>
        <time>2013-06-22T12:19:59Z</time>
      </trkpt>
      <trkpt lat="42.633583" lon="-2.396300">
        <ele>1024.0</ele>
        <time>2013-06-22T12:20:00Z</time>
      </trkpt>
      <trkpt lat="42.633517" lon="-2.396383">
        <ele>1028.0</ele>
        <time>2013-06-22T12:20:01Z</time>
      </trkpt>
      <trkpt lat="42.633467" lon="-2.396467">
        <ele>1033.0</ele>
        <time>2013-06-22T12:20:02Z</time>
      </trkpt>
      <trkpt lat="42.633417" lon="-2.396550">
        <ele>1038.0</ele>
        <time>2013-06-22T12:20:03Z</time>
      </trkpt>
      <trkpt lat="42.633367" lon="-2.396633">
        <ele>1044.0</ele>
        <time>2013-06-22T12:20:04Z</time>
      </trkpt>
      <trkpt lat="42.633317" lon="-2.396700">
        <ele>1048.0</ele>
        <time>2013-06-22T12:20:05Z</time>
      </trkpt>
      <trkpt lat="42.633283" lon="-2.396783">
        <ele>1053.0</ele>
        <time>2013-06-22T12:20:06Z</time>
      </trkpt>
      <trkpt lat="42.633250" lon="-2.396867">
        <ele>1055.0</ele>
        <time>2013-06-22T12:20:07Z</time>
      </trkpt>
      <trkpt lat="42.633233" lon="-2.396950">
        <ele>1057.0</ele>
        <time>2013-06-22T12:20:08Z</time>
      </trkpt>
      <trkpt lat="42.633250" lon="-2.397017">
        <ele>1059.0</ele>
        <time>2013-06-22T12:20:09Z</time>
      </trkpt>
      <trkpt lat="42.633283" lon="-2.397067">
        <ele>1060.0</ele>
        <time>2013-06-22T12:20:10Z</time>
      </trkpt>
      <trkpt lat="42.633333" lon="-2.397050">
        <ele>1062.0</ele>
        <time>2013-06-22T12:20:11Z</time>
      </trkpt>
      <trkpt lat="42.633383" lon="-2.397033">
        <ele>1064.0</ele>
        <time>2013-06-22T12:20:12Z</time>
      </trkpt>
      <trkpt lat="42.633417" lon="-2.396983">
        <ele>1067.0</ele>
        <time>2013-06-22T12:20:13Z</time>
      </trkpt>
      <trkpt lat="42.633450" lon="-2.396967">
        <ele>1069.0</ele>
        <time>2013-06-22T12:20:14Z</time>
      </trkpt>
      <trkpt lat="42.633500" lon="-2.396933">
        <ele>1071.0</ele>
        <time>2013-06-22T12:20:15Z</time>
      </trkpt>
      <trkpt lat="42.633550" lon="-2.396883">
        <ele>1073.0</ele>
        <time>2013-06-22T12:20:16Z</time>
      </trkpt>
      <trkpt lat="42.633600" lon="-2.396833">
        <ele>1075.0</ele>
        <time>2013-06-22T12:20:17Z</time>
      </trkpt>
      <trkpt lat="42.633633" lon="-2.396783">
        <ele>1079.0</ele>
        <time>2013-06-22T12:20:18Z</time>
      </trkpt>
      <trkpt lat="42.633650" lon="-2.396733">
        <ele>1083.0</ele>
        <time>2013-06-22T12:20:19Z</time>
      </trkpt>
      <trkpt lat="42.633683" lon="-2.396700">
        <ele>1086.0</ele>
        <time>2013-06-22T12:20:20Z</time>
      </trkpt>
      <trkpt lat="42.633733" lon="-2.396650">
        <ele>1088.0</ele>
        <time>2013-06-22T12:20:21Z</time>
      </trkpt>
      <trkpt lat="42.633733" lon="-2.396583">
        <ele>1091.0</ele>
        <time>2013-06-22T12:20:22Z</time>
      </trkpt>
      <trkpt lat="42.633733" lon="-2.396500">
        <ele>1088.0</ele>
        <time>2013-06-22T12:20:23Z</time>
      </trkpt>
      <trkpt lat="42.633683" lon="-2.396383">
        <ele>1088.0</ele>
        <time>2013-06-22T12:20:24Z</time>
      </trkpt>
      <trkpt lat="42.633617" lon="-2.396300">
        <ele>1089.0</ele>
        <time>2013-06-22T12:20:25Z</time>
      </trkpt>
      <trkpt lat="42.633533" lon="-2.396217">
        <ele>1090.0</ele>
        <time>2013-06-22T12:20:26Z</time>
      </trkpt>
      <trkpt lat="42.633450" lon="-2.396150">
        <ele>1091.0</ele>
        <time>2013-06-22T12:20:27Z</time>
      </trkpt>
      <trkpt lat="42.633367" lon="-2.396117">
        <ele>1093.0</ele>
        <time>2013-06-22T12:20:28Z</time>
      </trkpt>
      <trkpt lat="42.633267" lon="-2.396133">
        <ele>1096.0</ele>
        <time>2013-06-22T12:20:29Z</time>
      </trkpt>
      <trkpt lat="42.633183" lon="-2.396167">
        <ele>1099.0</ele>
        <time>2013-06-22T12:20:30Z</time>
      </trkpt>
      <trkpt lat="42.633117" lon="-2.396233">
        <ele>1103.0</ele>
        <time>2013-06-22T12:20:31Z</time>
      </trkpt>
      <trkpt lat="42.633083" lon="-2.396250">
        <ele>1106.0</ele>
        <time>2013-06-22T12:20:32Z</time>
      </trkpt>
      <trkpt lat="42.633033" lon="-2.396317">
        <ele>1103.0</ele>
        <time>2013-06-22T12:20:33Z</time>
      </trkpt>
      <trkpt lat="42.632967" lon="-2.396383">
        <ele>1103.0</ele>
        <time>2013-06-22T12:20:34Z</time>
      </trkpt>
      <trkpt lat="42.632900" lon="-2.396450">
        <ele>1105.0</ele>
        <time>2013-06-22T12:20:35Z</time>
      </trkpt>
      <trkpt lat="42.632850" lon="-2.396533">
        <ele>1107.0</ele>
        <time>2013-06-22T12:20:36Z</time>
      </trkpt>
      <trkpt lat="42.632833" lon="-2.396617">
        <ele>1109.0</ele>
        <time>2013-06-22T12:20:37Z</time>
      </trkpt>
      <trkpt lat="42.632833" lon="-2.396667">
        <ele>1111.0</ele>
        <time>2013-06-22T12:20:38Z</time>
      </trkpt>
      <trkpt lat="42.632867" lon="-2.396717">
        <ele>1113.0</ele>
        <time>2013-06-22T12:20:39Z</time>
      </trkpt>
      <trkpt lat="42.632883" lon="-2.396733">
        <ele>1116.0</ele>
        <time>2013-06-22T12:20:40Z</time>
      </trkpt>
      <trkpt lat="42.632900" lon="-2.396733">
        <ele>1116.0</ele>
        <time>2013-06-22T12:20:41Z</time>
      </trkpt>
      <trkpt lat="42.632933" lon="-2.396750">
        <ele>1117.0</ele>
        <time>2013-06-22T12:20:42Z</time>
      </trkpt>
      <trkpt lat="42.632967" lon="-2.396767">
        <ele>1119.0</ele>
        <time>2013-06-22T12:20:43Z</time>
      </trkpt>
      <trkpt lat="42.633017" lon="-2.396767">
        <ele>1120.0</ele>
        <time>2013-06-22T12:20:44Z</time>
      </trkpt>
      <trkpt lat="42.633050" lon="-2.396800">
        <ele>1121.0</ele>
        <time>2013-06-22T12:20:45Z</time>
      </trkpt>
      <trkpt lat="42.633100" lon="-2.396867">
        <ele>1124.0</ele>
        <time>2013-06-22T12:20:46Z</time>
      </trkpt>
      <trkpt lat="42.633117" lon="-2.396900">
        <ele>1128.0</ele>
        <time>2013-06-22T12:20:47Z</time>
      </trkpt>
      <trkpt lat="42.633150" lon="-2.396933">
        <ele>1132.0</ele>
        <time>2013-06-22T12:20:48Z</time>
      </trkpt>
      <trkpt lat="42.633183" lon="-2.396967">
        <ele>1134.0</ele>
        <time>2013-06-22T12:20:49Z</time>
      </trkpt>
      <trkpt lat="42.633233" lon="-2.397000">
        <ele>1136.0</ele>
        <time>2013-06-22T12:20:50Z</time>
      </trkpt>
      <trkpt lat="42.633283" lon="-2.397033">
        <ele>1138.0</ele>
        <time>2013-06-22T12:20:51Z</time>
      </trkpt>
      <trkpt lat="42.633333" lon="-2.397017">
        <ele>1142.0</ele>
        <time>2013-06-22T12:20:52Z</time>
      </trkpt>
      <trkpt lat="42.633383" lon="-2.396983">
        <ele>1145.0</ele>
        <time>2013-06-22T12:20:53Z</time>
      </trkpt>
      <trkpt lat="42.633433" lon="-2.396933">
        <ele>1149.0</ele>
        <time>2013-06-22T12:20:54Z</time>
      </trkpt>
      <trkpt lat="42.633500" lon="-2.396900">
        <ele>1151.0</ele>
        <time>2013-06-22T12:20:55Z</time>
      </trkpt>
      <trkpt lat="42.633550" lon="-2.396883">
        <ele>1154.0</ele>
        <time>2013-06-22T12:20:56Z</time>
      </trkpt>
      <trkpt lat="42.633600" lon="-2.396833">
        <ele>1157.0</ele>
        <time>2013-06-22T12:20:57Z</time>
      </trkpt>
      <trkpt lat="42.633633" lon="-2.396783">
        <ele>1161.0</ele>
        <time>2013-06-22T12:20:58Z</time>
      </trkpt>
      <trkpt lat="42.633667" lon="-2.396733">
        <ele>1164.0</ele>
        <time>2013-06-22T12:20:59Z</time>
      </trkpt>
      <trkpt lat="42.633700" lon="-2.396667">
        <ele>1166.0</ele>
        <time>2013-06-22T12:21:00Z</time>
      </trkpt>
      <trkpt lat="42.633733" lon="-2.396600">
        <ele>1167.0</ele>
        <time>2013-06-22T12:21:01Z</time>
      </trkpt>
      <trkpt lat="42.633767" lon="-2.396517">
        <ele>1167.0</ele>
        <time>2013-06-22T12:21:02Z</time>
      </trkpt>
      <trkpt lat="42.633800" lon="-2.396417">
        <ele>1169.0</ele>
        <time>2013-06-22T12:21:03Z</time>
      </trkpt>
      <trkpt lat="42.633817" lon="-2.396333">
        <ele>1170.0</ele>
        <time>2013-06-22T12:21:04Z</time>
      </trkpt>
      <trkpt lat="42.633833" lon="-2.396250">
        <ele>1172.0</ele>
        <time>2013-06-22T12:21:05Z</time>
      </trkpt>
      <trkpt lat="42.633850" lon="-2.396167">
        <ele>1173.0</ele>
        <time>2013-06-22T12:21:06Z</time>
      </trkpt>
      <trkpt lat="42.633850" lon="-2.396083">
        <ele>1174.0</ele>
        <time>2013-06-22T12:21:07Z</time>
      </trkpt>
      <trkpt lat="42.633833" lon="-2.395967">
        <ele>1173.0</ele>
        <time>2013-06-22T12:21:08Z</time>
      </trkpt>
      <trkpt lat="42.633817" lon="-2.395833">
        <ele>1171.0</ele>
        <time>2013-06-22T12:21:09Z</time>
      </trkpt>
      <trkpt lat="42.633800" lon="-2.395717">
        <ele>1171.0</ele>
        <time>2013-06-22T12:21:10Z</time>
      </trkpt>
      <trkpt lat="42.633750" lon="-2.395617">
        <ele>1172.0</ele>
        <time>2013-06-22T12:21:11Z</time>
      </trkpt>
      <trkpt lat="42.633683" lon="-2.395533">
        <ele>1172.0</ele>
        <time>2013-06-22T12:21:12Z</time>
      </trkpt>
      <trkpt lat="42.633600" lon="-2.395450">
        <ele>1172.0</ele>
        <time>2013-06-22T12:21:13Z</time>
      </trkpt>
      <trkpt lat="42.633500" lon="-2.395383">
        <ele>1171.0</ele>
        <time>2013-06-22T12:21:14Z</time>
      </trkpt>
      <trkpt lat="42.633400" lon="-2.395350">
        <ele>1171.0</ele>
        <time>2013-06-22T12:21:15Z</time>
      </trkpt>
      <trkpt lat="42.633300" lon="-2.395317">
        <ele>1171.0</ele>
        <time>2013-06-22T12:21:16Z</time>
      </trkpt>
      <trkpt lat="42.633200" lon="-2.395333">
        <ele>1172.0</ele>
        <time>2013-06-22T12:21:17Z</time>
      </trkpt>
      <trkpt lat="42.633100" lon="-2.395367">
        <ele>1172.0</ele>
        <time>2013-06-22T12:21:18Z</time>
      </trkpt>
      <trkpt lat="42.632983" lon="-2.395400">
        <ele>1172.0</ele>
        <time>2013-06-22T12:21:19Z</time>
      </trkpt>
      <trkpt lat="42.632883" lon="-2.395467">
        <ele>1173.0</ele>
        <time>2013-06-22T12:21:20Z</time>
      </trkpt>
      <trkpt lat="42.632783" lon="-2.395550">
        <ele>1174.0</ele>
        <time>2013-06-22T12:21:21Z</time>
      </trkpt>
      <trkpt lat="42.632700" lon="-2.395667">
        <ele>1174.0</ele>
        <time>2013-06-22T12:21:22Z</time>
      </trkpt>
      <trkpt lat="42.632617" lon="-2.395767">
        <ele>1176.0</ele>
        <time>2013-06-22T12:21:23Z</time>
      </trkpt>
      <trkpt lat="42.632550" lon="-2.395850">
        <ele>1177.0</ele>
        <time>2013-06-22T12:21:24Z</time>
      </trkpt>
      <trkpt lat="42.632483" lon="-2.395950">
        <ele>1179.0</ele>
        <time>2013-06-22T12:21:25Z</time>
      </trkpt>
      <trkpt lat="42.632417" lon="-2.396067">
        <ele>1180.0</ele>
        <time>2013-06-22T12:21:26Z</time>
      </trkpt>
      <trkpt lat="42.632367" lon="-2.396167">
        <ele>1182.0</ele>
        <time>2013-06-22T12:21:27Z</time>
      </trkpt>
      <trkpt lat="42.632317" lon="-2.396283">
        <ele>1184.0</ele>
        <time>2013-06-22T12:21:28Z</time>
      </trkpt>
      <trkpt lat="42.632267" lon="-2.396400">
        <ele>1187.0</ele>
        <time>2013-06-22T12:21:29Z</time>
      </trkpt>
      <trkpt lat="42.632217" lon="-2.396483">
        <ele>1190.0</ele>
        <time>2013-06-22T12:21:30Z</time>
      </trkpt>
      <trkpt lat="42.632183" lon="-2.396567">
        <ele>1194.0</ele>
        <time>2013-06-22T12:21:31Z</time>
      </trkpt>
      <trkpt lat="42.632150" lon="-2.396633">
        <ele>1199.0</ele>
        <time>2013-06-22T12:21:32Z</time>
      </trkpt>
      <trkpt lat="42.632117" lon="-2.396700">
        <ele>1203.0</ele>
        <time>2013-06-22T12:21:33Z</time>
      </trkpt>
      <trkpt lat="42.632100" lon="-2.396767">
        <ele>1207.0</ele>
        <time>2013-06-22T12:21:34Z</time>
      </trkpt>
      <trkpt lat="42.632100" lon="-2.396833">
        <ele>1207.0</ele>
        <time>2013-06-22T12:21:35Z</time>
      </trkpt>
      <trkpt lat="42.632117" lon="-2.396917">
        <ele>1209.0</ele>
        <time>2013-06-22T12:21:36Z</time>
      </trkpt>
      <trkpt lat="42.632167" lon="-2.396967">
        <ele>1211.0</ele>
        <time>2013-06-22T12:21:37Z</time>
      </trkpt>
      <trkpt lat="42.632200" lon="-2.397017">
        <ele>1213.0</ele>
        <time>2013-06-22T12:21:38Z</time>
      </trkpt>
      <trkpt lat="42.632233" lon="-2.397050">
        <ele>1217.0</ele>
        <time>2013-06-22T12:21:39Z</time>
      </trkpt>
      <trkpt lat="42.632267" lon="-2.397067">
        <ele>1221.0</ele>
        <time>2013-06-22T12:21:40Z</time>
      </trkpt>
      <trkpt lat="42.632300" lon="-2.397050">
        <ele>1224.0</ele>
        <time>2013-06-22T12:21:41Z</time>
      </trkpt>
      <trkpt lat="42.632333" lon="-2.397017">
        <ele>1227.0</ele>
        <time>2013-06-22T12:21:42Z</time>
      </trkpt>
      <trkpt lat="42.632383" lon="-2.396967">
        <ele>1229.0</ele>
        <time>2013-06-22T12:21:43Z</time>
      </trkpt>
      <trkpt lat="42.632433" lon="-2.396917">
        <ele>1231.0</ele>
        <time>2013-06-22T12:21:44Z</time>
      </trkpt>
      <trkpt lat="42.632483" lon="-2.396850">
        <ele>1233.0</ele>
        <time>2013-06-22T12:21:45Z</time>
      </trkpt>
      <trkpt lat="42.632533" lon="-2.396783">
        <ele>1236.0</ele>
        <time>2013-06-22T12:21:46Z</time>
      </trkpt>
      <trkpt lat="42.632567" lon="-2.396683">
        <ele>1238.0</ele>
        <time>2013-06-22T12:21:47Z</time>
      </trkpt>
      <trkpt lat="42.632600" lon="-2.396583">
        <ele>1240.0</ele>
        <time>2013-06-22T12:21:48Z</time>
      </trkpt>
      <trkpt lat="42.632617" lon="-2.396500">
        <ele>1242.0</ele>
        <time>2013-06-22T12:21:49Z</time>
      </trkpt>
      <trkpt lat="42.632633" lon="-2.396400">
        <ele>1244.0</ele>
        <time>2013-06-22T12:21:50Z</time>
      </trkpt>
      <trkpt lat="42.632633" lon="-2.396317">
        <ele>1246.0</ele>
        <time>2013-06-22T12:21:51Z</time>
      </trkpt>
      <trkpt lat="42.632633" lon="-2.396200">
        <ele>1246.0</ele>
        <time>2013-06-22T12:21:52Z</time>
      </trkpt>
      <trkpt lat="42.632600" lon="-2.396067">
        <ele>1245.0</ele>
        <time>2013-06-22T12:21:53Z</time>
      </trkpt>
      <trkpt lat="42.632550" lon="-2.395933">
        <ele>1245.0</ele>
        <time>2013-06-22T12:21:54Z</time>
      </trkpt>
      <trkpt lat="42.632450" lon="-2.395833">
        <ele>1246.0</ele>
        <time>2013-06-22T12:21:55Z</time>
      </trkpt>
      <trkpt lat="42.632350" lon="-2.395800">
        <ele>1246.0</ele>
        <time>2013-06-22T12:21:56Z</time>
      </trkpt>
      <trkpt lat="42.632217" lon="-2.395783">
        <ele>1246.0</ele>
        <time>2013-06-22T12:21:57Z</time>
      </trkpt>
      <trkpt lat="42.632100" lon="-2.395800">
        <ele>1246.0</ele>
        <time>2013-06-22T12:21:58Z</time>
      </trkpt>
      <trkpt lat="42.632000" lon="-2.395833">
        <ele>1247.0</ele>
        <time>2013-06-22T12:21:59Z</time>
      </trkpt>
      <trkpt lat="42.631900" lon="-2.395883">
        <ele>1249.0</ele>
        <time>2013-06-22T12:22:00Z</time>
      </trkpt>
      <trkpt lat="42.631833" lon="-2.395933">
        <ele>1250.0</ele>
        <time>2013-06-22T12:22:01Z</time>
      </trkpt>
      <trkpt lat="42.631750" lon="-2.396033">
        <ele>1251.0</ele>
        <time>2013-06-22T12:22:02Z</time>
      </trkpt>
      <trkpt lat="42.631700" lon="-2.396150">
        <ele>1251.0</ele>
        <time>2013-06-22T12:22:03Z</time>
      </trkpt>
      <trkpt lat="42.631650" lon="-2.396267">
        <ele>1253.0</ele>
        <time>2013-06-22T12:22:04Z</time>
      </trkpt>
      <trkpt lat="42.631617" lon="-2.396367">
        <ele>1255.0</ele>
        <time>2013-06-22T12:22:05Z</time>
      </trkpt>
      <trkpt lat="42.631600" lon="-2.396450">
        <ele>1259.0</ele>
        <time>2013-06-22T12:22:06Z</time>
      </trkpt>
      <trkpt lat="42.631600" lon="-2.396517">
        <ele>1262.0</ele>
        <time>2013-06-22T12:22:07Z</time>
      </trkpt>
      <trkpt lat="42.631600" lon="-2.396600">
        <ele>1265.0</ele>
        <time>2013-06-22T12:22:08Z</time>
      </trkpt>
      <trkpt lat="42.631600" lon="-2.396700">
        <ele>1267.0</ele>
        <time>2013-06-22T12:22:09Z</time>
      </trkpt>
      <trkpt lat="42.631600" lon="-2.396767">
        <ele>1270.0</ele>
        <time>2013-06-22T12:22:10Z</time>
      </trkpt>
      <trkpt lat="42.631600" lon="-2.396833">
        <ele>1274.0</ele>
        <time>2013-06-22T12:22:11Z</time>
      </trkpt>
      <trkpt lat="42.631617" lon="-2.396867">
        <ele>1277.0</ele>
        <time>2013-06-22T12:22:12Z</time>
      </trkpt>
      <trkpt lat="42.631650" lon="-2.396883">
        <ele>1280.0</ele>
        <time>2013-06-22T12:22:13Z</time>
      </trkpt>
      <trkpt lat="42.631667" lon="-2.396917">
        <ele>1276.0</ele>
        <time>2013-06-22T12:22:14Z</time>
      </trkpt>
      <trkpt lat="42.631717" lon="-2.396950">
        <ele>1278.0</ele>
        <time>2013-06-22T12:22:15Z</time>
      </trkpt>
      <trkpt lat="42.631767" lon="-2.396983">
        <ele>1279.0</ele>
        <time>2013-06-22T12:22:16Z</time>
      </trkpt>
      <trkpt lat="42.631817" lon="-2.397000">
        <ele>1281.0</ele>
        <time>2013-06-22T12:22:17Z</time>
      </trkpt>
      <trkpt lat="42.631867" lon="-2.397017">
        <ele>1281.0</ele>
        <time>2013-06-22T12:22:18Z</time>
      </trkpt>
      <trkpt lat="42.631900" lon="-2.397017">
        <ele>1282.0</ele>
        <time>2013-06-22T12:22:19Z</time>
      </trkpt>
      <trkpt lat="42.631950" lon="-2.397000">
        <ele>1284.0</ele>
        <time>2013-06-22T12:22:20Z</time>
      </trkpt>
      <trkpt lat="42.632000" lon="-2.396950">
        <ele>1285.0</ele>
        <time>2013-06-22T12:22:21Z</time>
      </trkpt>
      <trkpt lat="42.632067" lon="-2.396883">
        <ele>1285.0</ele>
        <time>2013-06-22T12:22:22Z</time>
      </trkpt>
      <trkpt lat="42.632117" lon="-2.396817">
        <ele>1286.0</ele>
        <time>2013-06-22T12:22:23Z</time>
      </trkpt>
      <trkpt lat="42.632167" lon="-2.396750">
        <ele>1288.0</ele>
        <time>2013-06-22T12:22:24Z</time>
      </trkpt>
      <trkpt lat="42.632200" lon="-2.396683">
        <ele>1290.0</ele>
        <time>2013-06-22T12:22:25Z</time>
      </trkpt>
      <trkpt lat="42.632267" lon="-2.396617">
        <ele>1290.0</ele>
        <time>2013-06-22T12:22:26Z</time>
      </trkpt>
      <trkpt lat="42.632317" lon="-2.396550">
        <ele>1291.0</ele>
        <time>2013-06-22T12:22:27Z</time>
      </trkpt>
      <trkpt lat="42.632367" lon="-2.396450">
        <ele>1293.0</ele>
        <time>2013-06-22T12:22:28Z</time>
      </trkpt>
      <trkpt lat="42.632400" lon="-2.396333">
        <ele>1295.0</ele>
        <time>2013-06-22T12:22:29Z</time>
      </trkpt>
      <trkpt lat="42.632400" lon="-2.396200">
        <ele>1297.0</ele>
        <time>2013-06-22T12:22:30Z</time>
      </trkpt>
      <trkpt lat="42.632383" lon="-2.396100">
        <ele>1299.0</ele>
        <time>2013-06-22T12:22:31Z</time>
      </trkpt>
      <trkpt lat="42.632350" lon="-2.395983">
        <ele>1302.0</ele>
        <time>2013-06-22T12:22:32Z</time>
      </trkpt>
      <trkpt lat="42.632300" lon="-2.395883">
        <ele>1303.0</ele>
        <time>2013-06-22T12:22:33Z</time>
      </trkpt>
      <trkpt lat="42.632233" lon="-2.395783">
        <ele>1304.0</ele>
        <time>2013-06-22T12:22:34Z</time>
      </trkpt>
      <trkpt lat="42.632167" lon="-2.395700">
        <ele>1305.0</ele>
        <time>2013-06-22T12:22:35Z</time>
      </trkpt>
      <trkpt lat="42.632067" lon="-2.395650">
        <ele>1306.0</ele>
        <time>2013-06-22T12:22:36Z</time>
      </trkpt>
      <trkpt lat="42.631950" lon="-2.395617">
        <ele>1306.0</ele>
        <time>2013-06-22T12:22:37Z</time>
      </trkpt>
      <trkpt lat="42.631833" lon="-2.395617">
        <ele>1306.0</ele>
        <time>2013-06-22T12:22:38Z</time>
      </trkpt>
      <trkpt lat="42.631733" lon="-2.395667">
        <ele>1307.0</ele>
        <time>2013-06-22T12:22:39Z</time>
      </trkpt>
      <trkpt lat="42.631650" lon="-2.395717">
        <ele>1308.0</ele>
        <time>2013-06-22T12:22:40Z</time>
      </trkpt>
      <trkpt lat="42.631567" lon="-2.395767">
        <ele>1309.0</ele>
        <time>2013-06-22T12:22:41Z</time>
      </trkpt>
      <trkpt lat="42.631500" lon="-2.395833">
        <ele>1310.0</ele>
        <time>2013-06-22T12:22:42Z</time>
      </trkpt>
      <trkpt lat="42.631417" lon="-2.395917">
        <ele>1311.0</ele>
        <time>2013-06-22T12:22:43Z</time>
      </trkpt>
      <trkpt lat="42.631333" lon="-2.396000">
        <ele>1310.0</ele>
        <time>2013-06-22T12:22:44Z</time>
      </trkpt>
      <trkpt lat="42.631250" lon="-2.396083">
        <ele>1311.0</ele>
        <time>2013-06-22T12:22:45Z</time>
      </trkpt>
      <trkpt lat="42.631200" lon="-2.396167">
        <ele>1313.0</ele>
        <time>2013-06-22T12:22:46Z</time>
      </trkpt>
      <trkpt lat="42.631150" lon="-2.396250">
        <ele>1315.0</ele>
        <time>2013-06-22T12:22:47Z</time>
      </trkpt>
      <trkpt lat="42.631100" lon="-2.396317">
        <ele>1317.0</ele>
        <time>2013-06-22T12:22:48Z</time>
      </trkpt>
      <trkpt lat="42.631050" lon="-2.396400">
        <ele>1318.0</ele>
        <time>2013-06-22T12:22:49Z</time>
      </trkpt>
      <trkpt lat="42.631017" lon="-2.396467">
        <ele>1320.0</ele>
        <time>2013-06-22T12:22:50Z</time>
      </trkpt>
      <trkpt lat="42.630967" lon="-2.396533">
        <ele>1322.0</ele>
        <time>2013-06-22T12:22:51Z</time>
      </trkpt>
      <trkpt lat="42.630917" lon="-2.396600">
        <ele>1324.0</ele>
        <time>2013-06-22T12:22:52Z</time>
      </trkpt>
      <trkpt lat="42.630867" lon="-2.396667">
        <ele>1325.0</ele>
        <time>2013-06-22T12:22:53Z</time>
      </trkpt>
      <trkpt lat="42.630817" lon="-2.396750">
        <ele>1327.0</ele>
        <time>2013-06-22T12:22:54Z</time>
      </trkpt>
      <trkpt lat="42.630783" lon="-2.396833">
        <ele>1330.0</ele>
        <time>2013-06-22T12:22:55Z</time>
      </trkpt>
      <trkpt lat="42.630733" lon="-2.396883">
        <ele>1332.0</ele>
        <time>2013-06-22T12:22:56Z</time>
      </trkpt>
      <trkpt lat="42.630700" lon="-2.396950">
        <ele>1335.0</ele>
        <time>2013-06-22T12:22:57Z</time>
      </trkpt>
      <trkpt lat="42.630667" lon="-2.397000">
        <ele>1337.0</ele>
        <time>2013-06-22T12:22:58Z</time>
      </trkpt>
      <trkpt lat="42.630633" lon="-2.397067">
        <ele>1338.0</ele>
        <time>2013-06-22T12:22:59Z</time>
      </trkpt>
      <trkpt lat="42.630617" lon="-2.397133">
        <ele>1338.0</ele>
        <time>2013-06-22T12:23:00Z</time>
      </trkpt>
      <trkpt lat="42.630617" lon="-2.397217">
        <ele>1339.0</ele>
        <time>2013-06-22T12:23:01Z</time>
      </trkpt>
      <trkpt lat="42.630650" lon="-2.397267">
        <ele>1338.0</ele>
        <time>2013-06-22T12:23:02Z</time>
      </trkpt>
      <trkpt lat="42.630700" lon="-2.397300">
        <ele>1337.0</ele>
        <time>2013-06-22T12:23:03Z</time>
      </trkpt>
      <trkpt lat="42.630767" lon="-2.397283">
        <ele>1337.0</ele>
        <time>2013-06-22T12:23:04Z</time>
      </trkpt>
      <trkpt lat="42.630817" lon="-2.397250">
        <ele>1339.0</ele>
        <time>2013-06-22T12:23:05Z</time>
      </trkpt>
      <trkpt lat="42.630867" lon="-2.397200">
        <ele>1342.0</ele>
        <time>2013-06-22T12:23:06Z</time>
      </trkpt>
      <trkpt lat="42.630900" lon="-2.397150">
        <ele>1344.0</ele>
        <time>2013-06-22T12:23:07Z</time>
      </trkpt>
      <trkpt lat="42.630933" lon="-2.397100">
        <ele>1346.0</ele>
        <time>2013-06-22T12:23:08Z</time>
      </trkpt>
      <trkpt lat="42.630967" lon="-2.397050">
        <ele>1344.0</ele>
        <time>2013-06-22T12:23:09Z</time>
      </trkpt>
      <trkpt lat="42.631017" lon="-2.397000">
        <ele>1345.0</ele>
        <time>2013-06-22T12:23:10Z</time>
      </trkpt>
      <trkpt lat="42.631067" lon="-2.396933">
        <ele>1346.0</ele>
        <time>2013-06-22T12:23:11Z</time>
      </trkpt>
      <trkpt lat="42.631100" lon="-2.396833">
        <ele>1348.0</ele>
        <time>2013-06-22T12:23:12Z</time>
      </trkpt>
      <trkpt lat="42.631117" lon="-2.396733">
        <ele>1350.0</ele>
        <time>2013-06-22T12:23:13Z</time>
      </trkpt>
      <trkpt lat="42.631117" lon="-2.396617">
        <ele>1353.0</ele>
        <time>2013-06-22T12:23:14Z</time>
      </trkpt>
      <trkpt lat="42.631083" lon="-2.396500">
        <ele>1356.0</ele>
        <time>2013-06-22T12:23:15Z</time>
      </trkpt>
      <trkpt lat="42.631050" lon="-2.396383">
        <ele>1359.0</ele>
        <time>2013-06-22T12:23:16Z</time>
      </trkpt>
      <trkpt lat="42.630967" lon="-2.396283">
        <ele>1362.0</ele>
        <time>2013-06-22T12:23:17Z</time>
      </trkpt>
      <trkpt lat="42.630883" lon="-2.396217">
        <ele>1364.0</ele>
        <time>2013-06-22T12:23:18Z</time>
      </trkpt>
      <trkpt lat="42.630767" lon="-2.396183">
        <ele>1367.0</ele>
        <time>2013-06-22T12:23:19Z</time>
      </trkpt>
      <trkpt lat="42.630667" lon="-2.396183">
        <ele>1369.0</ele>
        <time>2013-06-22T12:23:20Z</time>
      </trkpt>
      <trkpt lat="42.630583" lon="-2.396217">
        <ele>1372.0</ele>
        <time>2013-06-22T12:23:21Z</time>
      </trkpt>
      <trkpt lat="42.630500" lon="-2.396250">
        <ele>1374.0</ele>
        <time>2013-06-22T12:23:22Z</time>
      </trkpt>
      <trkpt lat="42.630417" lon="-2.396317">
        <ele>1376.0</ele>
        <time>2013-06-22T12:23:23Z</time>
      </trkpt>
      <trkpt lat="42.630350" lon="-2.396383">
        <ele>1378.0</ele>
        <time>2013-06-22T12:23:24Z</time>
      </trkpt>
      <trkpt lat="42.630300" lon="-2.396467">
        <ele>1380.0</ele>
        <time>2013-06-22T12:23:25Z</time>
      </trkpt>
      <trkpt lat="42.630267" lon="-2.396567">
        <ele>1383.0</ele>
        <time>2013-06-22T12:23:26Z</time>
      </trkpt>
      <trkpt lat="42.630250" lon="-2.396633">
        <ele>1386.0</ele>
        <time>2013-06-22T12:23:27Z</time>
      </trkpt>
      <trkpt lat="42.630217" lon="-2.396683">
        <ele>1389.0</ele>
        <time>2013-06-22T12:23:28Z</time>
      </trkpt>
      <trkpt lat="42.630217" lon="-2.396750">
        <ele>1391.0</ele>
        <time>2013-06-22T12:23:29Z</time>
      </trkpt>
      <trkpt lat="42.630200" lon="-2.396817">
        <ele>1392.0</ele>
        <time>2013-06-22T12:23:30Z</time>
      </trkpt>
      <trkpt lat="42.630200" lon="-2.396883">
        <ele>1393.0</ele>
        <time>2013-06-22T12:23:31Z</time>
      </trkpt>
      <trkpt lat="42.630217" lon="-2.396950">
        <ele>1392.0</ele>
        <time>2013-06-22T12:23:32Z</time>
      </trkpt>
      <trkpt lat="42.630250" lon="-2.396983">
        <ele>1392.0</ele>
        <time>2013-06-22T12:23:33Z</time>
      </trkpt>
      <trkpt lat="42.630300" lon="-2.397017">
        <ele>1393.0</ele>
        <time>2013-06-22T12:23:34Z</time>
      </trkpt>
      <trkpt lat="42.630350" lon="-2.397017">
        <ele>1394.0</ele>
        <time>2013-06-22T12:23:35Z</time>
      </trkpt>
      <trkpt lat="42.630400" lon="-2.397000">
        <ele>1395.0</ele>
        <time>2013-06-22T12:23:36Z</time>
      </trkpt>
      <trkpt lat="42.630450" lon="-2.396983">
        <ele>1397.0</ele>
        <time>2013-06-22T12:23:37Z</time>
      </trkpt>
      <trkpt lat="42.630517" lon="-2.396967">
        <ele>1398.0</ele>
        <time>2013-06-22T12:23:38Z</time>
      </trkpt>
      <trkpt lat="42.630567" lon="-2.396933">
        <ele>1400.0</ele>
        <time>2013-06-22T12:23:39Z</time>
      </trkpt>
      <trkpt lat="42.630617" lon="-2.396867">
        <ele>1402.0</ele>
        <time>2013-06-22T12:23:40Z</time>
      </trkpt>
      <trkpt lat="42.630667" lon="-2.396800">
        <ele>1403.0</ele>
        <time>2013-06-22T12:23:41Z</time>
      </trkpt>
      <trkpt lat="42.630717" lon="-2.396700">
        <ele>1405.0</ele>
        <time>2013-06-22T12:23:42Z</time>
      </trkpt>
      <trkpt lat="42.630750" lon="-2.396567">
        <ele>1406.0</ele>
        <time>2013-06-22T12:23:43Z</time>
      </trkpt>
      <trkpt lat="42.630767" lon="-2.396433">
        <ele>1408.0</ele>
        <time>2013-06-22T12:23:44Z</time>
      </trkpt>
      <trkpt lat="42.630767" lon="-2.396283">
        <ele>1410.0</ele>
        <time>2013-06-22T12:23:45Z</time>
      </trkpt>
      <trkpt lat="42.630750" lon="-2.396150">
        <ele>1412.0</ele>
        <time>2013-06-22T12:23:46Z</time>
      </trkpt>
      <trkpt lat="42.630700" lon="-2.396017">
        <ele>1414.0</ele>
        <time>2013-06-22T12:23:47Z</time>
      </trkpt>
      <trkpt lat="42.630633" lon="-2.395883">
        <ele>1415.0</ele>
        <time>2013-06-22T12:23:48Z</time>
      </trkpt>
      <trkpt lat="42.630550" lon="-2.395767">
        <ele>1416.0</ele>
        <time>2013-06-22T12:23:49Z</time>
      </trkpt>
      <trkpt lat="42.630450" lon="-2.395683">
        <ele>1418.0</ele>
        <time>2013-06-22T12:23:50Z</time>
      </trkpt>
      <trkpt lat="42.630350" lon="-2.395633">
        <ele>1419.0</ele>
        <time>2013-06-22T12:23:51Z</time>
      </trkpt>
      <trkpt lat="42.630250" lon="-2.395600">
        <ele>1421.0</ele>
        <time>2013-06-22T12:23:52Z</time>
      </trkpt>
      <trkpt lat="42.630150" lon="-2.395600">
        <ele>1423.0</ele>
        <time>2013-06-22T12:23:53Z</time>
      </trkpt>
      <trkpt lat="42.630050" lon="-2.395617">
        <ele>1424.0</ele>
        <time>2013-06-22T12:23:54Z</time>
      </trkpt>
      <trkpt lat="42.629933" lon="-2.395650">
        <ele>1425.0</ele>
        <time>2013-06-22T12:23:55Z</time>
      </trkpt>
      <trkpt lat="42.629850" lon="-2.395700">
        <ele>1426.0</ele>
        <time>2013-06-22T12:23:56Z</time>
      </trkpt>
      <trkpt lat="42.629767" lon="-2.395767">
        <ele>1427.0</ele>
        <time>2013-06-22T12:23:57Z</time>
      </trkpt>
      <trkpt lat="42.629700" lon="-2.395833">
        <ele>1429.0</ele>
        <time>2013-06-22T12:23:58Z</time>
      </trkpt>
      <trkpt lat="42.629650" lon="-2.395917">
        <ele>1432.0</ele>
        <time>2013-06-22T12:23:59Z</time>
      </trkpt>
      <trkpt lat="42.629633" lon="-2.396000">
        <ele>1434.0</ele>
        <time>2013-06-22T12:24:00Z</time>
      </trkpt>
      <trkpt lat="42.629600" lon="-2.396083">
        <ele>1436.0</ele>
        <time>2013-06-22T12:24:01Z</time>
      </trkpt>
      <trkpt lat="42.629567" lon="-2.396200">
        <ele>1437.0</ele>
        <time>2013-06-22T12:24:02Z</time>
      </trkpt>
      <trkpt lat="42.629550" lon="-2.396300">
        <ele>1439.0</ele>
        <time>2013-06-22T12:24:03Z</time>
      </trkpt>
      <trkpt lat="42.629533" lon="-2.396417">
        <ele>1440.0</ele>
        <time>2013-06-22T12:24:04Z</time>
      </trkpt>
      <trkpt lat="42.629517" lon="-2.396500">
        <ele>1443.0</ele>
        <time>2013-06-22T12:24:05Z</time>
      </trkpt>
      <trkpt lat="42.629533" lon="-2.396567">
        <ele>1446.0</ele>
        <time>2013-06-22T12:24:06Z</time>
      </trkpt>
      <trkpt lat="42.629567" lon="-2.396633">
        <ele>1448.0</ele>
        <time>2013-06-22T12:24:07Z</time>
      </trkpt>
      <trkpt lat="42.629600" lon="-2.396700">
        <ele>1449.0</ele>
        <time>2013-06-22T12:24:08Z</time>
      </trkpt>
      <trkpt lat="42.629650" lon="-2.396750">
        <ele>1450.0</ele>
        <time>2013-06-22T12:24:09Z</time>
      </trkpt>
      <trkpt lat="42.629700" lon="-2.396783">
        <ele>1451.0</ele>
        <time>2013-06-22T12:24:10Z</time>
      </trkpt>
      <trkpt lat="42.629750" lon="-2.396800">
        <ele>1452.0</ele>
        <time>2013-06-22T12:24:11Z</time>
      </trkpt>
      <trkpt lat="42.629833" lon="-2.396783">
        <ele>1451.0</ele>
        <time>2013-06-22T12:24:12Z</time>
      </trkpt>
      <trkpt lat="42.629883" lon="-2.396733">
        <ele>1452.0</ele>
        <time>2013-06-22T12:24:13Z</time>
      </trkpt>
      <trkpt lat="42.629950" lon="-2.396667">
        <ele>1453.0</ele>
        <time>2013-06-22T12:24:14Z</time>
      </trkpt>
      <trkpt lat="42.630000" lon="-2.396600">
        <ele>1455.0</ele>
        <time>2013-06-22T12:24:15Z</time>
      </trkpt>
      <trkpt lat="42.630033" lon="-2.396533">
        <ele>1456.0</ele>
        <time>2013-06-22T12:24:16Z</time>
      </trkpt>
      <trkpt lat="42.630083" lon="-2.396450">
        <ele>1457.0</ele>
        <time>2013-06-22T12:24:17Z</time>
      </trkpt>
      <trkpt lat="42.630117" lon="-2.396333">
        <ele>1457.0</ele>
        <time>2013-06-22T12:24:18Z</time>
      </trkpt>
      <trkpt lat="42.630150" lon="-2.396217">
        <ele>1457.0</ele>
        <time>2013-06-22T12:24:19Z</time>
      </trkpt>
      <trkpt lat="42.630167" lon="-2.396083">
        <ele>1458.0</ele>
        <time>2013-06-22T12:24:20Z</time>
      </trkpt>
      <trkpt lat="42.630167" lon="-2.395933">
        <ele>1459.0</ele>
        <time>2013-06-22T12:24:21Z</time>
      </trkpt>
      <trkpt lat="42.630150" lon="-2.395800">
        <ele>1461.0</ele>
        <time>2013-06-22T12:24:22Z</time>
      </trkpt>
      <trkpt lat="42.630133" lon="-2.395667">
        <ele>1463.0</ele>
        <time>2013-06-22T12:24:23Z</time>
      </trkpt>
      <trkpt lat="42.630067" lon="-2.395550">
        <ele>1464.0</ele>
        <time>2013-06-22T12:24:24Z</time>
      </trkpt>
      <trkpt lat="42.630000" lon="-2.395433">
        <ele>1466.0</ele>
        <time>2013-06-22T12:24:25Z</time>
      </trkpt>
      <trkpt lat="42.629900" lon="-2.395350">
        <ele>1467.0</ele>
        <time>2013-06-22T12:24:26Z</time>
      </trkpt>
      <trkpt lat="42.629783" lon="-2.395300">
        <ele>1467.0</ele>
        <time>2013-06-22T12:24:27Z</time>
      </trkpt>
      <trkpt lat="42.629667" lon="-2.395267">
        <ele>1467.0</ele>
        <time>2013-06-22T12:24:28Z</time>
      </trkpt>
      <trkpt lat="42.629550" lon="-2.395267">
        <ele>1468.0</ele>
        <time>2013-06-22T12:24:29Z</time>
      </trkpt>
      <trkpt lat="42.629450" lon="-2.395300">
        <ele>1470.0</ele>
        <time>2013-06-22T12:24:30Z</time>
      </trkpt>
      <trkpt lat="42.629350" lon="-2.395333">
        <ele>1470.0</ele>
        <time>2013-06-22T12:24:31Z</time>
      </trkpt>
      <trkpt lat="42.629250" lon="-2.395400">
        <ele>1471.0</ele>
        <time>2013-06-22T12:24:32Z</time>
      </trkpt>
      <trkpt lat="42.629150" lon="-2.395467">
        <ele>1472.0</ele>
        <time>2013-06-22T12:24:33Z</time>
      </trkpt>
      <trkpt lat="42.629067" lon="-2.395550">
        <ele>1474.0</ele>
        <time>2013-06-22T12:24:34Z</time>
      </trkpt>
      <trkpt lat="42.629000" lon="-2.395633">
        <ele>1477.0</ele>
        <time>2013-06-22T12:24:35Z</time>
      </trkpt>
      <trkpt lat="42.628933" lon="-2.395700">
        <ele>1480.0</ele>
        <time>2013-06-22T12:24:36Z</time>
      </trkpt>
      <trkpt lat="42.628883" lon="-2.395783">
        <ele>1483.0</ele>
        <time>2013-06-22T12:24:37Z</time>
      </trkpt>
      <trkpt lat="42.628817" lon="-2.395883">
        <ele>1484.0</ele>
        <time>2013-06-22T12:24:38Z</time>
      </trkpt>
      <trkpt lat="42.628767" lon="-2.396000">
        <ele>1485.0</ele>
        <time>2013-06-22T12:24:39Z</time>
      </trkpt>
      <trkpt lat="42.628733" lon="-2.396117">
        <ele>1487.0</ele>
        <time>2013-06-22T12:24:40Z</time>
      </trkpt>
      <trkpt lat="42.628717" lon="-2.396200">
        <ele>1491.0</ele>
        <time>2013-06-22T12:24:41Z</time>
      </trkpt>
      <trkpt lat="42.628700" lon="-2.396283">
        <ele>1494.0</ele>
        <time>2013-06-22T12:24:42Z</time>
      </trkpt>
      <trkpt lat="42.628700" lon="-2.396350">
        <ele>1496.0</ele>
        <time>2013-06-22T12:24:43Z</time>
      </trkpt>
      <trkpt lat="42.628700" lon="-2.396433">
        <ele>1498.0</ele>
        <time>2013-06-22T12:24:44Z</time>
      </trkpt>
      <trkpt lat="42.628683" lon="-2.396533">
        <ele>1498.0</ele>
        <time>2013-06-22T12:24:45Z</time>
      </trkpt>
      <trkpt lat="42.628700" lon="-2.396617">
        <ele>1499.0</ele>
        <time>2013-06-22T12:24:46Z</time>
      </trkpt>
      <trkpt lat="42.628717" lon="-2.396683">
        <ele>1499.0</ele>
        <time>2013-06-22T12:24:47Z</time>
      </trkpt>
      <trkpt lat="42.628733" lon="-2.396733">
        <ele>1500.0</ele>
        <time>2013-06-22T12:24:48Z</time>
      </trkpt>
      <trkpt lat="42.628750" lon="-2.396783">
        <ele>1500.0</ele>
        <time>2013-06-22T12:24:49Z</time>
      </trkpt>
      <trkpt lat="42.628783" lon="-2.396833">
        <ele>1501.0</ele>
        <time>2013-06-22T12:24:50Z</time>
      </trkpt>
      <trkpt lat="42.628800" lon="-2.396867">
        <ele>1501.0</ele>
        <time>2013-06-22T12:24:51Z</time>
      </trkpt>
      <trkpt lat="42.628850" lon="-2.396900">
        <ele>1501.0</ele>
        <time>2013-06-22T12:24:52Z</time>
      </trkpt>
      <trkpt lat="42.628900" lon="-2.396900">
        <ele>1500.0</ele>
        <time>2013-06-22T12:24:53Z</time>
      </trkpt>
      <trkpt lat="42.628950" lon="-2.396867">
        <ele>1499.0</ele>
        <time>2013-06-22T12:24:54Z</time>
      </trkpt>
      <trkpt lat="42.629000" lon="-2.396817">
        <ele>1499.0</ele>
        <time>2013-06-22T12:24:55Z</time>
      </trkpt>
      <trkpt lat="42.629050" lon="-2.396750">
        <ele>1499.0</ele>
        <time>2013-06-22T12:24:56Z</time>
      </trkpt>
      <trkpt lat="42.629100" lon="-2.396667">
        <ele>1499.0</ele>
        <time>2013-06-22T12:24:57Z</time>
      </trkpt>
      <trkpt lat="42.629117" lon="-2.396567">
        <ele>1499.0</ele>
        <time>2013-06-22T12:24:58Z</time>
      </trkpt>
      <trkpt lat="42.629150" lon="-2.396450">
        <ele>1499.0</ele>
        <time>2013-06-22T12:24:59Z</time>
      </trkpt>
      <trkpt lat="42.629150" lon="-2.396317">
        <ele>1499.0</ele>
        <time>2013-06-22T12:25:00Z</time>
      </trkpt>
      <trkpt lat="42.629117" lon="-2.396167">
        <ele>1499.0</ele>
        <time>2013-06-22T12:25:01Z</time>
      </trkpt>
      <trkpt lat="42.629067" lon="-2.396050">
        <ele>1499.0</ele>
        <time>2013-06-22T12:25:02Z</time>
      </trkpt>
      <trkpt lat="42.628967" lon="-2.395967">
        <ele>1500.0</ele>
        <time>2013-06-22T12:25:03Z</time>
      </trkpt>
      <trkpt lat="42.628850" lon="-2.395933">
        <ele>1500.0</ele>
        <time>2013-06-22T12:25:04Z</time>
      </trkpt>
      <trkpt lat="42.628750" lon="-2.395933">
        <ele>1500.0</ele>
        <time>2013-06-22T12:25:05Z</time>
      </trkpt>
      <trkpt lat="42.628650" lon="-2.395967">
        <ele>1502.0</ele>
        <time>2013-06-22T12:25:06Z</time>
      </trkpt>
      <trkpt lat="42.628583" lon="-2.396017">
        <ele>1502.0</ele>
        <time>2013-06-22T12:25:07Z</time>
      </trkpt>
      <trkpt lat="42.628533" lon="-2.396100">
        <ele>1502.0</ele>
        <time>2013-06-22T12:25:08Z</time>
      </trkpt>
      <trkpt lat="42.628483" lon="-2.396183">
        <ele>1503.0</ele>
        <time>2013-06-22T12:25:09Z</time>
      </trkpt>
      <trkpt lat="42.628433" lon="-2.396267">
        <ele>1503.0</ele>
        <time>2013-06-22T12:25:10Z</time>
      </trkpt>
      <trkpt lat="42.628400" lon="-2.396367">
        <ele>1504.0</ele>
        <time>2013-06-22T12:25:11Z</time>
      </trkpt>
      <trkpt lat="42.628383" lon="-2.396450">
        <ele>1504.0</ele>
        <time>2013-06-22T12:25:12Z</time>
      </trkpt>
      <trkpt lat="42.628367" lon="-2.396533">
        <ele>1505.0</ele>
        <time>2013-06-22T12:25:13Z</time>
      </trkpt>
      <trkpt lat="42.628367" lon="-2.396617">
        <ele>1504.0</ele>
        <time>2013-06-22T12:25:14Z</time>
      </trkpt>
      <trkpt lat="42.628383" lon="-2.396683">
        <ele>1504.0</ele>
        <time>2013-06-22T12:25:15Z</time>
      </trkpt>
      <trkpt lat="42.628400" lon="-2.396750">
        <ele>1504.0</ele>
        <time>2013-06-22T12:25:16Z</time>
      </trkpt>
      <trkpt lat="42.628433" lon="-2.396833">
        <ele>1503.0</ele>
        <time>2013-06-22T12:25:17Z</time>
      </trkpt>
      <trkpt lat="42.628467" lon="-2.396883">
        <ele>1503.0</ele>
        <time>2013-06-22T12:25:18Z</time>
      </trkpt>
      <trkpt lat="42.628500" lon="-2.396933">
        <ele>1503.0</ele>
        <time>2013-06-22T12:25:19Z</time>
      </trkpt>
      <trkpt lat="42.628533" lon="-2.396967">
        <ele>1502.0</ele>
        <time>2013-06-22T12:25:20Z</time>
      </trkpt>
      <trkpt lat="42.628583" lon="-2.397000">
        <ele>1501.0</ele>
        <time>2013-06-22T12:25:21Z</time>
      </trkpt>
      <trkpt lat="42.628633" lon="-2.397017">
        <ele>1499.0</ele>
        <time>2013-06-22T12:25:22Z</time>
      </trkpt>
      <trkpt lat="42.628700" lon="-2.397033">
        <ele>1498.0</ele>
        <time>2013-06-22T12:25:23Z</time>
      </trkpt>
      <trkpt lat="42.628767" lon="-2.397033">
        <ele>1497.0</ele>
        <time>2013-06-22T12:25:24Z</time>
      </trkpt>
      <trkpt lat="42.628817" lon="-2.397033">
        <ele>1496.0</ele>
        <time>2013-06-22T12:25:25Z</time>
      </trkpt>
      <trkpt lat="42.628867" lon="-2.397017">
        <ele>1496.0</ele>
        <time>2013-06-22T12:25:26Z</time>
      </trkpt>
      <trkpt lat="42.628917" lon="-2.397000">
        <ele>1495.0</ele>
        <time>2013-06-22T12:25:27Z</time>
      </trkpt>
      <trkpt lat="42.628967" lon="-2.396983">
        <ele>1494.0</ele>
        <time>2013-06-22T12:25:28Z</time>
      </trkpt>
      <trkpt lat="42.629033" lon="-2.396950">
        <ele>1493.0</ele>
        <time>2013-06-22T12:25:29Z</time>
      </trkpt>
      <trkpt lat="42.629100" lon="-2.396917">
        <ele>1491.0</ele>
        <time>2013-06-22T12:25:30Z</time>
      </trkpt>
      <trkpt lat="42.629167" lon="-2.396883">
        <ele>1490.0</ele>
        <time>2013-06-22T12:25:31Z</time>
      </trkpt>
      <trkpt lat="42.629217" lon="-2.396833">
        <ele>1490.0</ele>
        <time>2013-06-22T12:25:32Z</time>
      </trkpt>
      <trkpt lat="42.629283" lon="-2.396783">
        <ele>1490.0</ele>
        <time>2013-06-22T12:25:33Z</time>
      </trkpt>
      <trkpt lat="42.629333" lon="-2.396750">
        <ele>1490.0</ele>
        <time>2013-06-22T12:25:34Z</time>
      </trkpt>
      <trkpt lat="42.629400" lon="-2.396717">
        <ele>1489.0</ele>
        <time>2013-06-22T12:25:35Z</time>
      </trkpt>
      <trkpt lat="42.629450" lon="-2.396667">
        <ele>1488.0</ele>
        <time>2013-06-22T12:25:36Z</time>
      </trkpt>
      <trkpt lat="42.629517" lon="-2.396633">
        <ele>1487.0</ele>
        <time>2013-06-22T12:25:37Z</time>
      </trkpt>
      <trkpt lat="42.629583" lon="-2.396583">
        <ele>1488.0</ele>
        <time>2013-06-22T12:25:38Z</time>
      </trkpt>
      <trkpt lat="42.629650" lon="-2.396533">
        <ele>1488.0</ele>
        <time>2013-06-22T12:25:39Z</time>
      </trkpt>
      <trkpt lat="42.629717" lon="-2.396483">
        <ele>1489.0</ele>
        <time>2013-06-22T12:25:40Z</time>
      </trkpt>
      <trkpt lat="42.629783" lon="-2.396417">
        <ele>1489.0</ele>
        <time>2013-06-22T12:25:41Z</time>
      </trkpt>
      <trkpt lat="42.629867" lon="-2.396350">
        <ele>1490.0</ele>
        <time>2013-06-22T12:25:42Z</time>
      </trkpt>
      <trkpt lat="42.629933" lon="-2.396300">
        <ele>1491.0</ele>
        <time>2013-06-22T12:25:43Z</time>
      </trkpt>
      <trkpt lat="42.629983" lon="-2.396233">
        <ele>1493.0</ele>
        <time>2013-06-22T12:25:44Z</time>
      </trkpt>
      <trkpt lat="42.630017" lon="-2.396183">
        <ele>1495.0</ele>
        <time>2013-06-22T12:25:45Z</time>
      </trkpt>
      <trkpt lat="42.630067" lon="-2.396133">
        <ele>1496.0</ele>
        <time>2013-06-22T12:25:46Z</time>
      </trkpt>
      <trkpt lat="42.630117" lon="-2.396067">
        <ele>1497.0</ele>
        <time>2013-06-22T12:25:47Z</time>
      </trkpt>
      <trkpt lat="42.630167" lon="-2.395983">
        <ele>1498.0</ele>
        <time>2013-06-22T12:25:48Z</time>
      </trkpt>
      <trkpt lat="42.630217" lon="-2.395917">
        <ele>1501.0</ele>
        <time>2013-06-22T12:25:49Z</time>
      </trkpt>
      <trkpt lat="42.630267" lon="-2.395850">
        <ele>1505.0</ele>
        <time>2013-06-22T12:25:50Z</time>
      </trkpt>
      <trkpt lat="42.630317" lon="-2.395783">
        <ele>1508.0</ele>
        <time>2013-06-22T12:25:51Z</time>
      </trkpt>
      <trkpt lat="42.630367" lon="-2.395717">
        <ele>1511.0</ele>
        <time>2013-06-22T12:25:52Z</time>
      </trkpt>
      <trkpt lat="42.630417" lon="-2.395667">
        <ele>1513.0</ele>
        <time>2013-06-22T12:25:53Z</time>
      </trkpt>
      <trkpt lat="42.630483" lon="-2.395600">
        <ele>1514.0</ele>
        <time>2013-06-22T12:25:54Z</time>
      </trkpt>
      <trkpt lat="42.630550" lon="-2.395550">
        <ele>1516.0</ele>
        <time>2013-06-22T12:25:55Z</time>
      </trkpt>
      <trkpt lat="42.630617" lon="-2.395483">
        <ele>1517.0</ele>
        <time>2013-06-22T12:25:56Z</time>
      </trkpt>
      <trkpt lat="42.630683" lon="-2.395417">
        <ele>1518.0</ele>
        <time>2013-06-22T12:25:57Z</time>
      </trkpt>
      <trkpt lat="42.630733" lon="-2.395383">
        <ele>1519.0</ele>
        <time>2013-06-22T12:25:58Z</time>
      </trkpt>
      <trkpt lat="42.630783" lon="-2.395333">
        <ele>1519.0</ele>
        <time>2013-06-22T12:25:59Z</time>
      </trkpt>
      <trkpt lat="42.630833" lon="-2.395300">
        <ele>1519.0</ele>
        <time>2013-06-22T12:26:00Z</time>
      </trkpt>
      <trkpt lat="42.630900" lon="-2.395250">
        <ele>1518.0</ele>
        <time>2013-06-22T12:26:01Z</time>
      </trkpt>
      <trkpt lat="42.630967" lon="-2.395183">
        <ele>1516.0</ele>
        <time>2013-06-22T12:26:02Z</time>
      </trkpt>
      <trkpt lat="42.631050" lon="-2.395133">
        <ele>1514.0</ele>
        <time>2013-06-22T12:26:03Z</time>
      </trkpt>
      <trkpt lat="42.631100" lon="-2.395083">
        <ele>1514.0</ele>
        <time>2013-06-22T12:26:04Z</time>
      </trkpt>
      <trkpt lat="42.631167" lon="-2.395017">
        <ele>1514.0</ele>
        <time>2013-06-22T12:26:05Z</time>
      </trkpt>
      <trkpt lat="42.631217" lon="-2.394967">
        <ele>1513.0</ele>
        <time>2013-06-22T12:26:06Z</time>
      </trkpt>
      <trkpt lat="42.631267" lon="-2.394900">
        <ele>1513.0</ele>
        <time>2013-06-22T12:26:07Z</time>
      </trkpt>
      <trkpt lat="42.631317" lon="-2.394833">
        <ele>1512.0</ele>
        <time>2013-06-22T12:26:08Z</time>
      </trkpt>
      <trkpt lat="42.631367" lon="-2.394783">
        <ele>1512.0</ele>
        <time>2013-06-22T12:26:09Z</time>
      </trkpt>
      <trkpt lat="42.631417" lon="-2.394750">
        <ele>1512.0</ele>
        <time>2013-06-22T12:26:10Z</time>
      </trkpt>
      <trkpt lat="42.631467" lon="-2.394700">
        <ele>1512.0</ele>
        <time>2013-06-22T12:26:11Z</time>
      </trkpt>
      <trkpt lat="42.631517" lon="-2.394650">
        <ele>1511.0</ele>
        <time>2013-06-22T12:26:12Z</time>
      </trkpt>
      <trkpt lat="42.631583" lon="-2.394617">
        <ele>1510.0</ele>
        <time>2013-06-22T12:26:13Z</time>
      </trkpt>
      <trkpt lat="42.631633" lon="-2.394583">
        <ele>1510.0</ele>
        <time>2013-06-22T12:26:14Z</time>
      </trkpt>
      <trkpt lat="42.631700" lon="-2.394533">
        <ele>1509.0</ele>
        <time>2013-06-22T12:26:15Z</time>
      </trkpt>
      <trkpt lat="42.631750" lon="-2.394500">
        <ele>1508.0</ele>
        <time>2013-06-22T12:26:16Z</time>
      </trkpt>
      <trkpt lat="42.631800" lon="-2.394450">
        <ele>1507.0</ele>
        <time>2013-06-22T12:26:17Z</time>
      </trkpt>
      <trkpt lat="42.631850" lon="-2.394383">
        <ele>1506.0</ele>
        <time>2013-06-22T12:26:18Z</time>
      </trkpt>
      <trkpt lat="42.631900" lon="-2.394333">
        <ele>1506.0</ele>
        <time>2013-06-22T12:26:19Z</time>
      </trkpt>
      <trkpt lat="42.631950" lon="-2.394267">
        <ele>1505.0</ele>
        <time>2013-06-22T12:26:20Z</time>
      </trkpt>
      <trkpt lat="42.632000" lon="-2.394183">
        <ele>1505.0</ele>
        <time>2013-06-22T12:26:21Z</time>
      </trkpt>
      <trkpt lat="42.632050" lon="-2.394117">
        <ele>1504.0</ele>
        <time>2013-06-22T12:26:22Z</time>
      </trkpt>
      <trkpt lat="42.632100" lon="-2.394033">
        <ele>1503.0</ele>
        <time>2013-06-22T12:26:23Z</time>
      </trkpt>
      <trkpt lat="42.632150" lon="-2.393950">
        <ele>1502.0</ele>
        <time>2013-06-22T12:26:24Z</time>
      </trkpt>
      <trkpt lat="42.632200" lon="-2.393850">
        <ele>1502.0</ele>
        <time>2013-06-22T12:26:25Z</time>
      </trkpt>
      <trkpt lat="42.632233" lon="-2.393750">
        <ele>1503.0</ele>
        <time>2013-06-22T12:26:26Z</time>
      </trkpt>
      <trkpt lat="42.632283" lon="-2.393667">
        <ele>1504.0</ele>
        <time>2013-06-22T12:26:27Z</time>
      </trkpt>
      <trkpt lat="42.632300" lon="-2.393567">
        <ele>1504.0</ele>
        <time>2013-06-22T12:26:28Z</time>
      </trkpt>
      <trkpt lat="42.632350" lon="-2.393483">
        <ele>1505.0</ele>
        <time>2013-06-22T12:26:29Z</time>
      </trkpt>
      <trkpt lat="42.632383" lon="-2.393383">
        <ele>1504.0</ele>
        <time>2013-06-22T12:26:30Z</time>
      </trkpt>
      <trkpt lat="42.632417" lon="-2.393267">
        <ele>1503.0</ele>
        <time>2013-06-22T12:26:31Z</time>
      </trkpt>
      <trkpt lat="42.632450" lon="-2.393150">
        <ele>1502.0</ele>
        <time>2013-06-22T12:26:32Z</time>
      </trkpt>
      <trkpt lat="42.632500" lon="-2.393050">
        <ele>1500.0</ele>
        <time>2013-06-22T12:26:33Z</time>
      </trkpt>
      <trkpt lat="42.632533" lon="-2.392933">
        <ele>1500.0</ele>
        <time>2013-06-22T12:26:34Z</time>
      </trkpt>
      <trkpt lat="42.632567" lon="-2.392833">
        <ele>1501.0</ele>
        <time>2013-06-22T12:26:35Z</time>
      </trkpt>
      <trkpt lat="42.632583" lon="-2.392767">
        <ele>1502.0</ele>
        <time>2013-06-22T12:26:36Z</time>
      </trkpt>
      <trkpt lat="42.632617" lon="-2.392700">
        <ele>1502.0</ele>
        <time>2013-06-22T12:26:37Z</time>
      </trkpt>
      <trkpt lat="42.632667" lon="-2.392617">
        <ele>1501.0</ele>
        <time>2013-06-22T12:26:38Z</time>
      </trkpt>
      <trkpt lat="42.632717" lon="-2.392533">
        <ele>1499.0</ele>
        <time>2013-06-22T12:26:39Z</time>
      </trkpt>
      <trkpt lat="42.632767" lon="-2.392450">
        <ele>1498.0</ele>
        <time>2013-06-22T12:26:40Z</time>
      </trkpt>
      <trkpt lat="42.632817" lon="-2.392350">
        <ele>1498.0</ele>
        <time>2013-06-22T12:26:41Z</time>
      </trkpt>
      <trkpt lat="42.632850" lon="-2.392250">
        <ele>1501.0</ele>
        <time>2013-06-22T12:26:42Z</time>
      </trkpt>
      <trkpt lat="42.632867" lon="-2.392167">
        <ele>1503.0</ele>
        <time>2013-06-22T12:26:43Z</time>
      </trkpt>
      <trkpt lat="42.632900" lon="-2.392083">
        <ele>1504.0</ele>
        <time>2013-06-22T12:26:44Z</time>
      </trkpt>
      <trkpt lat="42.632933" lon="-2.392000">
        <ele>1504.0</ele>
        <time>2013-06-22T12:26:45Z</time>
      </trkpt>
      <trkpt lat="42.632983" lon="-2.391917">
        <ele>1504.0</ele>
        <time>2013-06-22T12:26:46Z</time>
      </trkpt>
      <trkpt lat="42.633033" lon="-2.391833">
        <ele>1505.0</ele>
        <time>2013-06-22T12:26:47Z</time>
      </trkpt>
      <trkpt lat="42.633067" lon="-2.391767">
        <ele>1506.0</ele>
        <time>2013-06-22T12:26:48Z</time>
      </trkpt>
      <trkpt lat="42.633100" lon="-2.391683">
        <ele>1508.0</ele>
        <time>2013-06-22T12:26:49Z</time>
      </trkpt>
      <trkpt lat="42.633133" lon="-2.391617">
        <ele>1509.0</ele>
        <time>2013-06-22T12:26:50Z</time>
      </trkpt>
      <trkpt lat="42.633183" lon="-2.391550">
        <ele>1510.0</ele>
        <time>2013-06-22T12:26:51Z</time>
      </trkpt>
      <trkpt lat="42.633233" lon="-2.391500">
        <ele>1510.0</ele>
        <time>2013-06-22T12:26:52Z</time>
      </trkpt>
      <trkpt lat="42.633283" lon="-2.391450">
        <ele>1511.0</ele>
        <time>2013-06-22T12:26:53Z</time>
      </trkpt>
      <trkpt lat="42.633333" lon="-2.391433">
        <ele>1512.0</ele>
        <time>2013-06-22T12:26:54Z</time>
      </trkpt>
      <trkpt lat="42.633367" lon="-2.391433">
        <ele>1513.0</ele>
        <time>2013-06-22T12:26:55Z</time>
      </trkpt>
      <trkpt lat="42.633400" lon="-2.391450">
        <ele>1515.0</ele>
        <time>2013-06-22T12:26:56Z</time>
      </trkpt>
      <trkpt lat="42.633433" lon="-2.391450">
        <ele>1516.0</ele>
        <time>2013-06-22T12:26:57Z</time>
      </trkpt>
      <trkpt lat="42.633467" lon="-2.391450">
        <ele>1516.0</ele>
        <time>2013-06-22T12:26:58Z</time>
      </trkpt>
      <trkpt lat="42.633517" lon="-2.391450">
        <ele>1516.0</ele>
        <time>2013-06-22T12:26:59Z</time>
      </trkpt>
      <trkpt lat="42.633567" lon="-2.391450">
        <ele>1515.0</ele>
        <time>2013-06-22T12:27:00Z</time>
      </trkpt>
      <trkpt lat="42.633633" lon="-2.391450">
        <ele>1516.0</ele>
        <time>2013-06-22T12:27:01Z</time>
      </trkpt>
      <trkpt lat="42.633683" lon="-2.391417">
        <ele>1517.0</ele>
        <time>2013-06-22T12:27:02Z</time>
      </trkpt>
      <trkpt lat="42.633717" lon="-2.391367">
        <ele>1518.0</ele>
        <time>2013-06-22T12:27:03Z</time>
      </trkpt>
      <trkpt lat="42.633750" lon="-2.391300">
        <ele>1519.0</ele>
        <time>2013-06-22T12:27:04Z</time>
      </trkpt>
      <trkpt lat="42.633783" lon="-2.391233">
        <ele>1520.0</ele>
        <time>2013-06-22T12:27:05Z</time>
      </trkpt>
      <trkpt lat="42.633833" lon="-2.391167">
        <ele>1520.0</ele>
        <time>2013-06-22T12:27:06Z</time>
      </trkpt>
      <trkpt lat="42.633883" lon="-2.391117">
        <ele>1520.0</ele>
        <time>2013-06-22T12:27:07Z</time>
      </trkpt>
      <trkpt lat="42.633933" lon="-2.391050">
        <ele>1521.0</ele>
        <time>2013-06-22T12:27:08Z</time>
      </trkpt>
      <trkpt lat="42.633967" lon="-2.391017">
        <ele>1522.0</ele>
        <time>2013-06-22T12:27:09Z</time>
      </trkpt>
      <trkpt lat="42.634000" lon="-2.391000">
        <ele>1522.0</ele>
        <time>2013-06-22T12:27:10Z</time>
      </trkpt>
      <trkpt lat="42.634033" lon="-2.390983">
        <ele>1523.0</ele>
        <time>2013-06-22T12:27:11Z</time>
      </trkpt>
      <trkpt lat="42.634083" lon="-2.390967">
        <ele>1523.0</ele>
        <time>2013-06-22T12:27:12Z</time>
      </trkpt>
      <trkpt lat="42.634133" lon="-2.390967">
        <ele>1523.0</ele>
        <time>2013-06-22T12:27:13Z</time>
      </trkpt>
      <trkpt lat="42.634183" lon="-2.390967">
        <ele>1522.0</ele>
        <time>2013-06-22T12:27:14Z</time>
      </trkpt>
      <trkpt lat="42.634233" lon="-2.390950">
        <ele>1522.0</ele>
        <time>2013-06-22T12:27:15Z</time>
      </trkpt>
      <trkpt lat="42.634283" lon="-2.390917">
        <ele>1521.0</ele>
        <time>2013-06-22T12:27:16Z</time>
      </trkpt>
      <trkpt lat="42.634333" lon="-2.390883">
        <ele>1520.0</ele>
        <time>2013-06-22T12:27:17Z</time>
      </trkpt>
      <trkpt lat="42.634400" lon="-2.390817">
        <ele>1519.0</ele>
        <time>2013-06-22T12:27:18Z</time>
      </trkpt>
      <trkpt lat="42.634450" lon="-2.390767">
        <ele>1518.0</ele>
        <time>2013-06-22T12:27:19Z</time>
      </trkpt>
      <trkpt lat="42.634500" lon="-2.390700">
        <ele>1519.0</ele>
        <time>2013-06-22T12:27:20Z</time>
      </trkpt>
      <trkpt lat="42.634550" lon="-2.390600">
        <ele>1519.0</ele>
        <time>2013-06-22T12:27:21Z</time>
      </trkpt>
      <trkpt lat="42.634583" lon="-2.390500">
        <ele>1518.0</ele>
        <time>2013-06-22T12:27:22Z</time>
      </trkpt>
      <trkpt lat="42.634617" lon="-2.390400">
        <ele>1518.0</ele>
        <time>2013-06-22T12:27:23Z</time>
      </trkpt>
      <trkpt lat="42.634650" lon="-2.390300">
        <ele>1518.0</ele>
        <time>2013-06-22T12:27:24Z</time>
      </trkpt>
      <trkpt lat="42.634700" lon="-2.390183">
        <ele>1519.0</ele>
        <time>2013-06-22T12:27:25Z</time>
      </trkpt>
      <trkpt lat="42.634717" lon="-2.390067">
        <ele>1520.0</ele>
        <time>2013-06-22T12:27:26Z</time>
      </trkpt>
      <trkpt lat="42.634733" lon="-2.389967">
        <ele>1522.0</ele>
        <time>2013-06-22T12:27:27Z</time>
      </trkpt>
      <trkpt lat="42.634750" lon="-2.389883">
        <ele>1523.0</ele>
        <time>2013-06-22T12:27:28Z</time>
      </trkpt>
      <trkpt lat="42.634767" lon="-2.389783">
        <ele>1524.0</ele>
        <time>2013-06-22T12:27:29Z</time>
      </trkpt>
      <trkpt lat="42.634800" lon="-2.389683">
        <ele>1524.0</ele>
        <time>2013-06-22T12:27:30Z</time>
      </trkpt>
      <trkpt lat="42.634833" lon="-2.389567">
        <ele>1523.0</ele>
        <time>2013-06-22T12:27:31Z</time>
      </trkpt>
      <trkpt lat="42.634867" lon="-2.389467">
        <ele>1522.0</ele>
        <time>2013-06-22T12:27:32Z</time>
      </trkpt>
      <trkpt lat="42.634883" lon="-2.389350">
        <ele>1523.0</ele>
        <time>2013-06-22T12:27:33Z</time>
      </trkpt>
      <trkpt lat="42.634917" lon="-2.389250">
        <ele>1525.0</ele>
        <time>2013-06-22T12:27:34Z</time>
      </trkpt>
      <trkpt lat="42.634933" lon="-2.389167">
        <ele>1526.0</ele>
        <time>2013-06-22T12:27:35Z</time>
      </trkpt>
      <trkpt lat="42.634950" lon="-2.389067">
        <ele>1527.0</ele>
        <time>2013-06-22T12:27:36Z</time>
      </trkpt>
      <trkpt lat="42.634967" lon="-2.388967">
        <ele>1526.0</ele>
        <time>2013-06-22T12:27:37Z</time>
      </trkpt>
      <trkpt lat="42.635000" lon="-2.388867">
        <ele>1526.0</ele>
        <time>2013-06-22T12:27:38Z</time>
      </trkpt>
      <trkpt lat="42.635033" lon="-2.388750">
        <ele>1525.0</ele>
        <time>2013-06-22T12:27:39Z</time>
      </trkpt>
      <trkpt lat="42.635050" lon="-2.388667">
        <ele>1525.0</ele>
        <time>2013-06-22T12:27:40Z</time>
      </trkpt>
      <trkpt lat="42.635083" lon="-2.388583">
        <ele>1526.0</ele>
        <time>2013-06-22T12:27:41Z</time>
      </trkpt>
      <trkpt lat="42.635100" lon="-2.388483">
        <ele>1525.0</ele>
        <time>2013-06-22T12:27:42Z</time>
      </trkpt>
      <trkpt lat="42.635133" lon="-2.388383">
        <ele>1525.0</ele>
        <time>2013-06-22T12:27:43Z</time>
      </trkpt>
      <trkpt lat="42.635150" lon="-2.388283">
        <ele>1524.0</ele>
        <time>2013-06-22T12:27:44Z</time>
      </trkpt>
      <trkpt lat="42.635183" lon="-2.388167">
        <ele>1524.0</ele>
        <time>2013-06-22T12:27:45Z</time>
      </trkpt>
      <trkpt lat="42.635200" lon="-2.388067">
        <ele>1523.0</ele>
        <time>2013-06-22T12:27:46Z</time>
      </trkpt>
      <trkpt lat="42.635233" lon="-2.387967">
        <ele>1523.0</ele>
        <time>2013-06-22T12:27:47Z</time>
      </trkpt>
      <trkpt lat="42.635267" lon="-2.387867">
        <ele>1523.0</ele>
        <time>2013-06-22T12:27:48Z</time>
      </trkpt>
      <trkpt lat="42.635283" lon="-2.387767">
        <ele>1522.0</ele>
        <time>2013-06-22T12:27:49Z</time>
      </trkpt>
      <trkpt lat="42.635317" lon="-2.387650">
        <ele>1521.0</ele>
        <time>2013-06-22T12:27:50Z</time>
      </trkpt>
      <trkpt lat="42.635350" lon="-2.387550">
        <ele>1520.0</ele>
        <time>2013-06-22T12:27:51Z</time>
      </trkpt>
      <trkpt lat="42.635367" lon="-2.387450">
        <ele>1520.0</ele>
        <time>2013-06-22T12:27:52Z</time>
      </trkpt>
      <trkpt lat="42.635383" lon="-2.387350">
        <ele>1519.0</ele>
        <time>2013-06-22T12:27:53Z</time>
      </trkpt>
      <trkpt lat="42.635417" lon="-2.387233">
        <ele>1517.0</ele>
        <time>2013-06-22T12:27:54Z</time>
      </trkpt>
      <trkpt lat="42.635433" lon="-2.387117">
        <ele>1516.0</ele>
        <time>2013-06-22T12:27:55Z</time>
      </trkpt>
      <trkpt lat="42.635450" lon="-2.387017">
        <ele>1515.0</ele>
        <time>2013-06-22T12:27:56Z</time>
      </trkpt>
      <trkpt lat="42.635483" lon="-2.386900">
        <ele>1513.0</ele>
        <time>2013-06-22T12:27:57Z</time>
      </trkpt>
      <trkpt lat="42.635500" lon="-2.386767">
        <ele>1512.0</ele>
        <time>2013-06-22T12:27:58Z</time>
      </trkpt>
      <trkpt lat="42.635517" lon="-2.386650">
        <ele>1511.0</ele>
        <time>2013-06-22T12:27:59Z</time>
      </trkpt>
      <trkpt lat="42.635533" lon="-2.386533">
        <ele>1509.0</ele>
        <time>2013-06-22T12:28:00Z</time>
      </trkpt>
      <trkpt lat="42.635550" lon="-2.386417">
        <ele>1508.0</ele>
        <time>2013-06-22T12:28:01Z</time>
      </trkpt>
      <trkpt lat="42.635550" lon="-2.386300">
        <ele>1507.0</ele>
        <time>2013-06-22T12:28:02Z</time>
      </trkpt>
      <trkpt lat="42.635567" lon="-2.386167">
        <ele>1505.0</ele>
        <time>2013-06-22T12:28:03Z</time>
      </trkpt>
      <trkpt lat="42.635567" lon="-2.386050">
        <ele>1503.0</ele>
        <time>2013-06-22T12:28:04Z</time>
      </trkpt>
      <trkpt lat="42.635583" lon="-2.385917">
        <ele>1501.0</ele>
        <time>2013-06-22T12:28:05Z</time>
      </trkpt>
      <trkpt lat="42.635600" lon="-2.385783">
        <ele>1499.0</ele>
        <time>2013-06-22T12:28:06Z</time>
      </trkpt>
      <trkpt lat="42.635617" lon="-2.385667">
        <ele>1498.0</ele>
        <time>2013-06-22T12:28:07Z</time>
      </trkpt>
      <trkpt lat="42.635617" lon="-2.385550">
        <ele>1497.0</ele>
        <time>2013-06-22T12:28:08Z</time>
      </trkpt>
      <trkpt lat="42.635633" lon="-2.385450">
        <ele>1496.0</ele>
        <time>2013-06-22T12:28:09Z</time>
      </trkpt>
      <trkpt lat="42.635633" lon="-2.385333">
        <ele>1494.0</ele>
        <time>2013-06-22T12:28:10Z</time>
      </trkpt>
      <trkpt lat="42.635650" lon="-2.385200">
        <ele>1492.0</ele>
        <time>2013-06-22T12:28:11Z</time>
      </trkpt>
      <trkpt lat="42.635650" lon="-2.385083">
        <ele>1491.0</ele>
        <time>2013-06-22T12:28:12Z</time>
      </trkpt>
      <trkpt lat="42.635667" lon="-2.384967">
        <ele>1490.0</ele>
        <time>2013-06-22T12:28:13Z</time>
      </trkpt>
      <trkpt lat="42.635667" lon="-2.384850">
        <ele>1489.0</ele>
        <time>2013-06-22T12:28:14Z</time>
      </trkpt>
      <trkpt lat="42.635683" lon="-2.384750">
        <ele>1488.0</ele>
        <time>2013-06-22T12:28:15Z</time>
      </trkpt>
      <trkpt lat="42.635683" lon="-2.384633">
        <ele>1487.0</ele>
        <time>2013-06-22T12:28:16Z</time>
      </trkpt>
      <trkpt lat="42.635700" lon="-2.384500">
        <ele>1483.0</ele>
        <time>2013-06-22T12:28:17Z</time>
      </trkpt>
      <trkpt lat="42.635700" lon="-2.384367">
        <ele>1481.0</ele>
        <time>2013-06-22T12:28:18Z</time>
      </trkpt>
      <trkpt lat="42.635700" lon="-2.384250">
        <ele>1478.0</ele>
        <time>2013-06-22T12:28:19Z</time>
      </trkpt>
      <trkpt lat="42.635717" lon="-2.384117">
        <ele>1476.0</ele>
        <time>2013-06-22T12:28:20Z</time>
      </trkpt>
      <trkpt lat="42.635733" lon="-2.384000">
        <ele>1474.0</ele>
        <time>2013-06-22T12:28:21Z</time>
      </trkpt>
      <trkpt lat="42.635750" lon="-2.383883">
        <ele>1471.0</ele>
        <time>2013-06-22T12:28:22Z</time>
      </trkpt>
      <trkpt lat="42.635767" lon="-2.383767">
        <ele>1469.0</ele>
        <time>2013-06-22T12:28:23Z</time>
      </trkpt>
      <trkpt lat="42.635783" lon="-2.383633">
        <ele>1467.0</ele>
        <time>2013-06-22T12:28:24Z</time>
      </trkpt>
      <trkpt lat="42.635800" lon="-2.383517">
        <ele>1465.0</ele>
        <time>2013-06-22T12:28:25Z</time>
      </trkpt>
      <trkpt lat="42.635800" lon="-2.383400">
        <ele>1463.0</ele>
        <time>2013-06-22T12:28:26Z</time>
      </trkpt>
      <trkpt lat="42.635817" lon="-2.383283">
        <ele>1461.0</ele>
        <time>2013-06-22T12:28:27Z</time>
      </trkpt>
      <trkpt lat="42.635833" lon="-2.383150">
        <ele>1458.0</ele>
        <time>2013-06-22T12:28:28Z</time>
      </trkpt>
      <trkpt lat="42.635850" lon="-2.383017">
        <ele>1456.0</ele>
        <time>2013-06-22T12:28:29Z</time>
      </trkpt>
      <trkpt lat="42.635850" lon="-2.382900">
        <ele>1454.0</ele>
        <time>2013-06-22T12:28:30Z</time>
      </trkpt>
      <trkpt lat="42.635867" lon="-2.382783">
        <ele>1452.0</ele>
        <time>2013-06-22T12:28:31Z</time>
      </trkpt>
      <trkpt lat="42.635867" lon="-2.382667">
        <ele>1451.0</ele>
        <time>2013-06-22T12:28:32Z</time>
      </trkpt>
      <trkpt lat="42.635883" lon="-2.382550">
        <ele>1449.0</ele>
        <time>2013-06-22T12:28:33Z</time>
      </trkpt>
      <trkpt lat="42.635883" lon="-2.382433">
        <ele>1448.0</ele>
        <time>2013-06-22T12:28:34Z</time>
      </trkpt>
      <trkpt lat="42.635900" lon="-2.382317">
        <ele>1445.0</ele>
        <time>2013-06-22T12:28:35Z</time>
      </trkpt>
      <trkpt lat="42.635917" lon="-2.382200">
        <ele>1444.0</ele>
        <time>2013-06-22T12:28:36Z</time>
      </trkpt>
      <trkpt lat="42.635933" lon="-2.382083">
        <ele>1442.0</ele>
        <time>2013-06-22T12:28:37Z</time>
      </trkpt>
      <trkpt lat="42.635950" lon="-2.381967">
        <ele>1441.0</ele>
        <time>2013-06-22T12:28:38Z</time>
      </trkpt>
      <trkpt lat="42.635967" lon="-2.381867">
        <ele>1440.0</ele>
        <time>2013-06-22T12:28:39Z</time>
      </trkpt>
      <trkpt lat="42.635967" lon="-2.381750">
        <ele>1438.0</ele>
        <time>2013-06-22T12:28:40Z</time>
      </trkpt>
      <trkpt lat="42.635983" lon="-2.381633">
        <ele>1436.0</ele>
        <time>2013-06-22T12:28:41Z</time>
      </trkpt>
      <trkpt lat="42.636000" lon="-2.381500">
        <ele>1434.0</ele>
        <time>2013-06-22T12:28:42Z</time>
      </trkpt>
      <trkpt lat="42.636017" lon="-2.381383">
        <ele>1432.0</ele>
        <time>2013-06-22T12:28:43Z</time>
      </trkpt>
      <trkpt lat="42.636033" lon="-2.381267">
        <ele>1431.0</ele>
        <time>2013-06-22T12:28:44Z</time>
      </trkpt>
      <trkpt lat="42.636050" lon="-2.381150">
        <ele>1430.0</ele>
        <time>2013-06-22T12:28:45Z</time>
      </trkpt>
      <trkpt lat="42.636050" lon="-2.381050">
        <ele>1429.0</ele>
        <time>2013-06-22T12:28:46Z</time>
      </trkpt>
      <trkpt lat="42.636067" lon="-2.380933">
        <ele>1427.0</ele>
        <time>2013-06-22T12:28:47Z</time>
      </trkpt>
      <trkpt lat="42.636083" lon="-2.380817">
        <ele>1426.0</ele>
        <time>2013-06-22T12:28:48Z</time>
      </trkpt>
      <trkpt lat="42.636083" lon="-2.380700">
        <ele>1424.0</ele>
        <time>2013-06-22T12:28:49Z</time>
      </trkpt>
      <trkpt lat="42.636100" lon="-2.380583">
        <ele>1423.0</ele>
        <time>2013-06-22T12:28:50Z</time>
      </trkpt>
      <trkpt lat="42.636100" lon="-2.380467">
        <ele>1421.0</ele>
        <time>2013-06-22T12:28:51Z</time>
      </trkpt>
      <trkpt lat="42.636100" lon="-2.380350">
        <ele>1420.0</ele>
        <time>2013-06-22T12:28:52Z</time>
      </trkpt>
      <trkpt lat="42.636100" lon="-2.380233">
        <ele>1419.0</ele>
        <time>2013-06-22T12:28:53Z</time>
      </trkpt>
      <trkpt lat="42.636117" lon="-2.380117">
        <ele>1417.0</ele>
        <time>2013-06-22T12:28:54Z</time>
      </trkpt>
      <trkpt lat="42.636117" lon="-2.379983">
        <ele>1415.0</ele>
        <time>2013-06-22T12:28:55Z</time>
      </trkpt>
      <trkpt lat="42.636117" lon="-2.379850">
        <ele>1414.0</ele>
        <time>2013-06-22T12:28:56Z</time>
      </trkpt>
      <trkpt lat="42.636117" lon="-2.379717">
        <ele>1413.0</ele>
        <time>2013-06-22T12:28:57Z</time>
      </trkpt>
      <trkpt lat="42.636133" lon="-2.379600">
        <ele>1411.0</ele>
        <time>2013-06-22T12:28:58Z</time>
      </trkpt>
      <trkpt lat="42.636133" lon="-2.379467">
        <ele>1410.0</ele>
        <time>2013-06-22T12:28:59Z</time>
      </trkpt>
      <trkpt lat="42.636150" lon="-2.379350">
        <ele>1408.0</ele>
        <time>2013-06-22T12:29:00Z</time>
      </trkpt>
      <trkpt lat="42.636167" lon="-2.379217">
        <ele>1407.0</ele>
        <time>2013-06-22T12:29:01Z</time>
      </trkpt>
      <trkpt lat="42.636167" lon="-2.379100">
        <ele>1405.0</ele>
        <time>2013-06-22T12:29:02Z</time>
      </trkpt>
      <trkpt lat="42.636167" lon="-2.378983">
        <ele>1405.0</ele>
        <time>2013-06-22T12:29:03Z</time>
      </trkpt>
      <trkpt lat="42.636167" lon="-2.378867">
        <ele>1403.0</ele>
        <time>2013-06-22T12:29:04Z</time>
      </trkpt>
      <trkpt lat="42.636167" lon="-2.378750">
        <ele>1402.0</ele>
        <time>2013-06-22T12:29:05Z</time>
      </trkpt>
      <trkpt lat="42.636183" lon="-2.378617">
        <ele>1400.0</ele>
        <time>2013-06-22T12:29:06Z</time>
      </trkpt>
      <trkpt lat="42.636200" lon="-2.378500">
        <ele>1398.0</ele>
        <time>2013-06-22T12:29:07Z</time>
      </trkpt>
      <trkpt lat="42.636200" lon="-2.378367">
        <ele>1397.0</ele>
        <time>2013-06-22T12:29:08Z</time>
      </trkpt>
      <trkpt lat="42.636200" lon="-2.378250">
        <ele>1396.0</ele>
        <time>2013-06-22T12:29:09Z</time>
      </trkpt>
      <trkpt lat="42.636200" lon="-2.378133">
        <ele>1395.0</ele>
        <time>2013-06-22T12:29:10Z</time>
      </trkpt>
      <trkpt lat="42.636200" lon="-2.378017">
        <ele>1395.0</ele>
        <time>2013-06-22T12:29:11Z</time>
      </trkpt>
      <trkpt lat="42.636200" lon="-2.377900">
        <ele>1394.0</ele>
        <time>2013-06-22T12:29:12Z</time>
      </trkpt>
      <trkpt lat="42.636200" lon="-2.377767">
        <ele>1393.0</ele>
        <time>2013-06-22T12:29:13Z</time>
      </trkpt>
      <trkpt lat="42.636217" lon="-2.377650">
        <ele>1391.0</ele>
        <time>2013-06-22T12:29:14Z</time>
      </trkpt>
      <trkpt lat="42.636217" lon="-2.377533">
        <ele>1390.0</ele>
        <time>2013-06-22T12:29:15Z</time>
      </trkpt>
      <trkpt lat="42.636217" lon="-2.377433">
        <ele>1390.0</ele>
        <time>2013-06-22T12:29:16Z</time>
      </trkpt>
      <trkpt lat="42.636217" lon="-2.377350">
        <ele>1390.0</ele>
        <time>2013-06-22T12:29:17Z</time>
      </trkpt>
      <trkpt lat="42.636217" lon="-2.377267">
        <ele>1390.0</ele>
        <time>2013-06-22T12:29:18Z</time>
      </trkpt>
      <trkpt lat="42.636217" lon="-2.377167">
        <ele>1390.0</ele>
        <time>2013-06-22T12:29:19Z</time>
      </trkpt>
      <trkpt lat="42.636233" lon="-2.377067">
        <ele>1389.0</ele>
        <time>2013-06-22T12:29:20Z</time>
      </trkpt>
      <trkpt lat="42.636250" lon="-2.376983">
        <ele>1389.0</ele>
        <time>2013-06-22T12:29:21Z</time>
      </trkpt>
      <trkpt lat="42.636283" lon="-2.376900">
        <ele>1389.0</ele>
        <time>2013-06-22T12:29:22Z</time>
      </trkpt>
      <trkpt lat="42.636300" lon="-2.376817">
        <ele>1390.0</ele>
        <time>2013-06-22T12:29:23Z</time>
      </trkpt>
      <trkpt lat="42.636317" lon="-2.376750">
        <ele>1391.0</ele>
        <time>2013-06-22T12:29:24Z</time>
      </trkpt>
      <trkpt lat="42.636333" lon="-2.376667">
        <ele>1392.0</ele>
        <time>2013-06-22T12:29:25Z</time>
      </trkpt>
      <trkpt lat="42.636367" lon="-2.376617">
        <ele>1392.0</ele>
        <time>2013-06-22T12:29:26Z</time>
      </trkpt>
      <trkpt lat="42.636400" lon="-2.376550">
        <ele>1392.0</ele>
        <time>2013-06-22T12:29:27Z</time>
      </trkpt>
      <trkpt lat="42.636433" lon="-2.376500">
        <ele>1393.0</ele>
        <time>2013-06-22T12:29:28Z</time>
      </trkpt>
      <trkpt lat="42.636467" lon="-2.376433">
        <ele>1393.0</ele>
        <time>2013-06-22T12:29:29Z</time>
      </trkpt>
      <trkpt lat="42.636500" lon="-2.376383">
        <ele>1393.0</ele>
        <time>2013-06-22T12:29:30Z</time>
      </trkpt>
      <trkpt lat="42.636533" lon="-2.376317">
        <ele>1393.0</ele>
        <time>2013-06-22T12:29:31Z</time>
      </trkpt>
      <trkpt lat="42.636550" lon="-2.376250">
        <ele>1394.0</ele>
        <time>2013-06-22T12:29:32Z</time>
      </trkpt>
      <trkpt lat="42.636567" lon="-2.376167">
        <ele>1394.0</ele>
        <time>2013-06-22T12:29:33Z</time>
      </trkpt>
      <trkpt lat="42.636567" lon="-2.376083">
        <ele>1394.0</ele>
        <time>2013-06-22T12:29:34Z</time>
      </trkpt>
      <trkpt lat="42.636583" lon="-2.376000">
        <ele>1393.0</ele>
        <time>2013-06-22T12:29:35Z</time>
      </trkpt>
      <trkpt lat="42.636600" lon="-2.375917">
        <ele>1392.0</ele>
        <time>2013-06-22T12:29:36Z</time>
      </trkpt>
      <trkpt lat="42.636617" lon="-2.375817">
        <ele>1391.0</ele>
        <time>2013-06-22T12:29:37Z</time>
      </trkpt>
      <trkpt lat="42.636617" lon="-2.375717">
        <ele>1390.0</ele>
        <time>2013-06-22T12:29:38Z</time>
      </trkpt>
      <trkpt lat="42.636617" lon="-2.375600">
        <ele>1389.0</ele>
        <time>2013-06-22T12:29:39Z</time>
      </trkpt>
      <trkpt lat="42.636633" lon="-2.375500">
        <ele>1388.0</ele>
        <time>2013-06-22T12:29:40Z</time>
      </trkpt>
      <trkpt lat="42.636633" lon="-2.375383">
        <ele>1386.0</ele>
        <time>2013-06-22T12:29:41Z</time>
      </trkpt>
      <trkpt lat="42.636633" lon="-2.375267">
        <ele>1385.0</ele>
        <time>2013-06-22T12:29:42Z</time>
      </trkpt>
      <trkpt lat="42.636633" lon="-2.375133">
        <ele>1383.0</ele>
        <time>2013-06-22T12:29:43Z</time>
      </trkpt>
      <trkpt lat="42.636633" lon="-2.375017">
        <ele>1381.0</ele>
        <time>2013-06-22T12:29:44Z</time>
      </trkpt>
      <trkpt lat="42.636633" lon="-2.374900">
        <ele>1379.0</ele>
        <time>2013-06-22T12:29:45Z</time>
      </trkpt>
      <trkpt lat="42.636650" lon="-2.374783">
        <ele>1378.0</ele>
        <time>2013-06-22T12:29:46Z</time>
      </trkpt>
      <trkpt lat="42.636650" lon="-2.374667">
        <ele>1376.0</ele>
        <time>2013-06-22T12:29:47Z</time>
      </trkpt>
      <trkpt lat="42.636650" lon="-2.374567">
        <ele>1374.0</ele>
        <time>2013-06-22T12:29:48Z</time>
      </trkpt>
      <trkpt lat="42.636667" lon="-2.374467">
        <ele>1371.0</ele>
        <time>2013-06-22T12:29:49Z</time>
      </trkpt>
      <trkpt lat="42.636683" lon="-2.374350">
        <ele>1367.0</ele>
        <time>2013-06-22T12:29:50Z</time>
      </trkpt>
      <trkpt lat="42.636700" lon="-2.374250">
        <ele>1364.0</ele>
        <time>2013-06-22T12:29:51Z</time>
      </trkpt>
      <trkpt lat="42.636733" lon="-2.374150">
        <ele>1361.0</ele>
        <time>2013-06-22T12:29:52Z</time>
      </trkpt>
      <trkpt lat="42.636750" lon="-2.374050">
        <ele>1360.0</ele>
        <time>2013-06-22T12:29:53Z</time>
      </trkpt>
      <trkpt lat="42.636750" lon="-2.373967">
        <ele>1358.0</ele>
        <time>2013-06-22T12:29:54Z</time>
      </trkpt>
      <trkpt lat="42.636767" lon="-2.373883">
        <ele>1356.0</ele>
        <time>2013-06-22T12:29:55Z</time>
      </trkpt>
      <trkpt lat="42.636783" lon="-2.373783">
        <ele>1354.0</ele>
        <time>2013-06-22T12:29:56Z</time>
      </trkpt>
      <trkpt lat="42.636800" lon="-2.373700">
        <ele>1352.0</ele>
        <time>2013-06-22T12:29:57Z</time>
      </trkpt>
      <trkpt lat="42.636817" lon="-2.373617">
        <ele>1350.0</ele>
        <time>2013-06-22T12:29:58Z</time>
      </trkpt>
      <trkpt lat="42.636833" lon="-2.373517">
        <ele>1348.0</ele>
        <time>2013-06-22T12:29:59Z</time>
      </trkpt>
      <trkpt lat="42.636850" lon="-2.373433">
        <ele>1347.0</ele>
        <time>2013-06-22T12:30:00Z</time>
      </trkpt>
      <trkpt lat="42.636867" lon="-2.373350">
        <ele>1346.0</ele>
        <time>2013-06-22T12:30:01Z</time>
      </trkpt>
      <trkpt lat="42.636867" lon="-2.373250">
        <ele>1344.0</ele>
        <time>2013-06-22T12:30:02Z</time>
      </trkpt>
      <trkpt lat="42.636883" lon="-2.373150">
        <ele>1342.0</ele>
        <time>2013-06-22T12:30:03Z</time>
      </trkpt>
      <trkpt lat="42.636900" lon="-2.373033">
        <ele>1339.0</ele>
        <time>2013-06-22T12:30:04Z</time>
      </trkpt>
      <trkpt lat="42.636900" lon="-2.372933">
        <ele>1337.0</ele>
        <time>2013-06-22T12:30:05Z</time>
      </trkpt>
      <trkpt lat="42.636900" lon="-2.372833">
        <ele>1336.0</ele>
        <time>2013-06-22T12:30:06Z</time>
      </trkpt>
      <trkpt lat="42.636917" lon="-2.372750">
        <ele>1334.0</ele>
        <time>2013-06-22T12:30:07Z</time>
      </trkpt>
      <trkpt lat="42.636917" lon="-2.372650">
        <ele>1332.0</ele>
        <time>2013-06-22T12:30:08Z</time>
      </trkpt>
      <trkpt lat="42.636933" lon="-2.372567">
        <ele>1329.0</ele>
        <time>2013-06-22T12:30:09Z</time>
      </trkpt>
      <trkpt lat="42.636967" lon="-2.372467">
        <ele>1327.0</ele>
        <time>2013-06-22T12:30:10Z</time>
      </trkpt>
      <trkpt lat="42.636983" lon="-2.372383">
        <ele>1325.0</ele>
        <time>2013-06-22T12:30:11Z</time>
      </trkpt>
      <trkpt lat="42.636983" lon="-2.372300">
        <ele>1323.0</ele>
        <time>2013-06-22T12:30:12Z</time>
      </trkpt>
      <trkpt lat="42.637000" lon="-2.372217">
        <ele>1321.0</ele>
        <time>2013-06-22T12:30:13Z</time>
      </trkpt>
      <trkpt lat="42.637017" lon="-2.372133">
        <ele>1318.0</ele>
        <time>2013-06-22T12:30:14Z</time>
      </trkpt>
      <trkpt lat="42.637033" lon="-2.372050">
        <ele>1316.0</ele>
        <time>2013-06-22T12:30:15Z</time>
      </trkpt>
      <trkpt lat="42.637050" lon="-2.371967">
        <ele>1314.0</ele>
        <time>2013-06-22T12:30:16Z</time>
      </trkpt>
      <trkpt lat="42.637067" lon="-2.371883">
        <ele>1312.0</ele>
        <time>2013-06-22T12:30:17Z</time>
      </trkpt>
      <trkpt lat="42.637083" lon="-2.371817">
        <ele>1310.0</ele>
        <time>2013-06-22T12:30:18Z</time>
      </trkpt>
      <trkpt lat="42.637100" lon="-2.371733">
        <ele>1308.0</ele>
        <time>2013-06-22T12:30:19Z</time>
      </trkpt>
      <trkpt lat="42.637117" lon="-2.371650">
        <ele>1305.0</ele>
        <time>2013-06-22T12:30:20Z</time>
      </trkpt>
      <trkpt lat="42.637133" lon="-2.371550">
        <ele>1304.0</ele>
        <time>2013-06-22T12:30:21Z</time>
      </trkpt>
      <trkpt lat="42.637150" lon="-2.371467">
        <ele>1302.0</ele>
        <time>2013-06-22T12:30:22Z</time>
      </trkpt>
      <trkpt lat="42.637150" lon="-2.371367">
        <ele>1300.0</ele>
        <time>2013-06-22T12:30:23Z</time>
      </trkpt>
      <trkpt lat="42.637183" lon="-2.371283">
        <ele>1298.0</ele>
        <time>2013-06-22T12:30:24Z</time>
      </trkpt>
      <trkpt lat="42.637200" lon="-2.371200">
        <ele>1296.0</ele>
        <time>2013-06-22T12:30:25Z</time>
      </trkpt>
      <trkpt lat="42.637217" lon="-2.371100">
        <ele>1294.0</ele>
        <time>2013-06-22T12:30:26Z</time>
      </trkpt>
      <trkpt lat="42.637250" lon="-2.371017">
        <ele>1291.0</ele>
        <time>2013-06-22T12:30:27Z</time>
      </trkpt>
      <trkpt lat="42.637267" lon="-2.370933">
        <ele>1289.0</ele>
        <time>2013-06-22T12:30:28Z</time>
      </trkpt>
      <trkpt lat="42.637283" lon="-2.370867">
        <ele>1288.0</ele>
        <time>2013-06-22T12:30:29Z</time>
      </trkpt>
      <trkpt lat="42.637300" lon="-2.370800">
        <ele>1288.0</ele>
        <time>2013-06-22T12:30:30Z</time>
      </trkpt>
      <trkpt lat="42.637317" lon="-2.370733">
        <ele>1287.0</ele>
        <time>2013-06-22T12:30:31Z</time>
      </trkpt>
      <trkpt lat="42.637333" lon="-2.370667">
        <ele>1285.0</ele>
        <time>2013-06-22T12:30:32Z</time>
      </trkpt>
      <trkpt lat="42.637350" lon="-2.370600">
        <ele>1284.0</ele>
        <time>2013-06-22T12:30:33Z</time>
      </trkpt>
      <trkpt lat="42.637367" lon="-2.370517">
        <ele>1282.0</ele>
        <time>2013-06-22T12:30:34Z</time>
      </trkpt>
      <trkpt lat="42.637383" lon="-2.370433">
        <ele>1281.0</ele>
        <time>2013-06-22T12:30:35Z</time>
      </trkpt>
      <trkpt lat="42.637400" lon="-2.370350">
        <ele>1280.0</ele>
        <time>2013-06-22T12:30:36Z</time>
      </trkpt>
      <trkpt lat="42.637417" lon="-2.370283">
        <ele>1280.0</ele>
        <time>2013-06-22T12:30:37Z</time>
      </trkpt>
      <trkpt lat="42.637433" lon="-2.370200">
        <ele>1279.0</ele>
        <time>2013-06-22T12:30:38Z</time>
      </trkpt>
      <trkpt lat="42.637450" lon="-2.370133">
        <ele>1279.0</ele>
        <time>2013-06-22T12:30:39Z</time>
      </trkpt>
      <trkpt lat="42.637467" lon="-2.370050">
        <ele>1278.0</ele>
        <time>2013-06-22T12:30:40Z</time>
      </trkpt>
      <trkpt lat="42.637483" lon="-2.369967">
        <ele>1277.0</ele>
        <time>2013-06-22T12:30:41Z</time>
      </trkpt>
      <trkpt lat="42.637500" lon="-2.369883">
        <ele>1276.0</ele>
        <time>2013-06-22T12:30:42Z</time>
      </trkpt>
      <trkpt lat="42.637517" lon="-2.369800">
        <ele>1276.0</ele>
        <time>2013-06-22T12:30:43Z</time>
      </trkpt>
      <trkpt lat="42.637533" lon="-2.369717">
        <ele>1275.0</ele>
        <time>2013-06-22T12:30:44Z</time>
      </trkpt>
      <trkpt lat="42.637550" lon="-2.369617">
        <ele>1275.0</ele>
        <time>2013-06-22T12:30:45Z</time>
      </trkpt>
      <trkpt lat="42.637550" lon="-2.369533">
        <ele>1275.0</ele>
        <time>2013-06-22T12:30:46Z</time>
      </trkpt>
      <trkpt lat="42.637567" lon="-2.369467">
        <ele>1274.0</ele>
        <time>2013-06-22T12:30:47Z</time>
      </trkpt>
      <trkpt lat="42.637583" lon="-2.369383">
        <ele>1273.0</ele>
        <time>2013-06-22T12:30:48Z</time>
      </trkpt>
      <trkpt lat="42.637600" lon="-2.369300">
        <ele>1272.0</ele>
        <time>2013-06-22T12:30:49Z</time>
      </trkpt>
      <trkpt lat="42.637617" lon="-2.369233">
        <ele>1271.0</ele>
        <time>2013-06-22T12:30:50Z</time>
      </trkpt>
      <trkpt lat="42.637633" lon="-2.369150">
        <ele>1270.0</ele>
        <time>2013-06-22T12:30:51Z</time>
      </trkpt>
      <trkpt lat="42.637650" lon="-2.369050">
        <ele>1270.0</ele>
        <time>2013-06-22T12:30:52Z</time>
      </trkpt>
      <trkpt lat="42.637650" lon="-2.368967">
        <ele>1269.0</ele>
        <time>2013-06-22T12:30:53Z</time>
      </trkpt>
      <trkpt lat="42.637667" lon="-2.368900">
        <ele>1269.0</ele>
        <time>2013-06-22T12:30:54Z</time>
      </trkpt>
      <trkpt lat="42.637700" lon="-2.368817">
        <ele>1268.0</ele>
        <time>2013-06-22T12:30:55Z</time>
      </trkpt>
      <trkpt lat="42.637717" lon="-2.368750">
        <ele>1267.0</ele>
        <time>2013-06-22T12:30:56Z</time>
      </trkpt>
      <trkpt lat="42.637750" lon="-2.368683">
        <ele>1266.0</ele>
        <time>2013-06-22T12:30:57Z</time>
      </trkpt>
      <trkpt lat="42.637783" lon="-2.368633">
        <ele>1265.0</ele>
        <time>2013-06-22T12:30:58Z</time>
      </trkpt>
      <trkpt lat="42.637817" lon="-2.368600">
        <ele>1264.0</ele>
        <time>2013-06-22T12:30:59Z</time>
      </trkpt>
      <trkpt lat="42.637850" lon="-2.368567">
        <ele>1262.0</ele>
        <time>2013-06-22T12:31:00Z</time>
      </trkpt>
      <trkpt lat="42.637900" lon="-2.368533">
        <ele>1262.0</ele>
        <time>2013-06-22T12:31:01Z</time>
      </trkpt>
      <trkpt lat="42.637933" lon="-2.368517">
        <ele>1261.0</ele>
        <time>2013-06-22T12:31:02Z</time>
      </trkpt>
      <trkpt lat="42.637967" lon="-2.368500">
        <ele>1262.0</ele>
        <time>2013-06-22T12:31:03Z</time>
      </trkpt>
      <trkpt lat="42.638000" lon="-2.368500">
        <ele>1261.0</ele>
        <time>2013-06-22T12:31:04Z</time>
      </trkpt>
      <trkpt lat="42.638033" lon="-2.368483">
        <ele>1260.0</ele>
        <time>2013-06-22T12:31:05Z</time>
      </trkpt>
      <trkpt lat="42.638067" lon="-2.368467">
        <ele>1258.0</ele>
        <time>2013-06-22T12:31:06Z</time>
      </trkpt>
      <trkpt lat="42.638117" lon="-2.368433">
        <ele>1256.0</ele>
        <time>2013-06-22T12:31:07Z</time>
      </trkpt>
      <trkpt lat="42.638183" lon="-2.368433">
        <ele>1258.0</ele>
        <time>2013-06-22T12:31:08Z</time>
      </trkpt>
      <trkpt lat="42.638217" lon="-2.368417">
        <ele>1257.0</ele>
        <time>2013-06-22T12:31:09Z</time>
      </trkpt>
      <trkpt lat="42.638250" lon="-2.368417">
        <ele>1257.0</ele>
        <time>2013-06-22T12:31:10Z</time>
      </trkpt>
      <trkpt lat="42.638250" lon="-2.368417">
        <ele>1257.0</ele>
        <time>2013-06-22T12:31:11Z</time>
      </trkpt>
      <trkpt lat="42.638267" lon="-2.368400">
        <ele>1257.0</ele>
        <time>2013-06-22T12:31:12Z</time>
      </trkpt>
      <trkpt lat="42.638300" lon="-2.368400">
        <ele>1257.0</ele>
        <time>2013-06-22T12:31:13Z</time>
      </trkpt>
      <trkpt lat="42.638333" lon="-2.368400">
        <ele>1256.0</ele>
        <time>2013-06-22T12:31:14Z</time>
      </trkpt>
      <trkpt lat="42.638383" lon="-2.368400">
        <ele>1255.0</ele>
        <time>2013-06-22T12:31:15Z</time>
      </trkpt>
      <trkpt lat="42.638417" lon="-2.368383">
        <ele>1256.0</ele>
        <time>2013-06-22T12:31:16Z</time>
      </trkpt>
      <trkpt lat="42.638450" lon="-2.368383">
        <ele>1256.0</ele>
        <time>2013-06-22T12:31:17Z</time>
      </trkpt>
      <trkpt lat="42.638467" lon="-2.368350">
        <ele>1256.0</ele>
        <time>2013-06-22T12:31:18Z</time>
      </trkpt>
      <trkpt lat="42.638517" lon="-2.368333">
        <ele>1256.0</ele>
        <time>2013-06-22T12:31:19Z</time>
      </trkpt>
      <trkpt lat="42.638550" lon="-2.368300">
        <ele>1255.0</ele>
        <time>2013-06-22T12:31:20Z</time>
      </trkpt>
      <trkpt lat="42.638583" lon="-2.368267">
        <ele>1255.0</ele>
        <time>2013-06-22T12:31:21Z</time>
      </trkpt>
      <trkpt lat="42.638617" lon="-2.368250">
        <ele>1255.0</ele>
        <time>2013-06-22T12:31:22Z</time>
      </trkpt>
      <trkpt lat="42.638650" lon="-2.368233">
        <ele>1256.0</ele>
        <time>2013-06-22T12:31:23Z</time>
      </trkpt>
      <trkpt lat="42.638667" lon="-2.368217">
        <ele>1256.0</ele>
        <time>2013-06-22T12:31:24Z</time>
      </trkpt>
      <trkpt lat="42.638683" lon="-2.368217">
        <ele>1258.0</ele>
        <time>2013-06-22T12:31:25Z</time>
      </trkpt>
      <trkpt lat="42.638700" lon="-2.368200">
        <ele>1260.0</ele>
        <time>2013-06-22T12:31:26Z</time>
      </trkpt>
      <trkpt lat="42.638717" lon="-2.368200">
        <ele>1261.0</ele>
        <time>2013-06-22T12:31:27Z</time>
      </trkpt>
      <trkpt lat="42.638733" lon="-2.368183">
        <ele>1262.0</ele>
        <time>2013-06-22T12:31:28Z</time>
      </trkpt>
      <trkpt lat="42.638767" lon="-2.368167">
        <ele>1263.0</ele>
        <time>2013-06-22T12:31:29Z</time>
      </trkpt>
      <trkpt lat="42.638800" lon="-2.368183">
        <ele>1264.0</ele>
        <time>2013-06-22T12:31:30Z</time>
      </trkpt>
      <trkpt lat="42.638817" lon="-2.368183">
        <ele>1265.0</ele>
        <time>2013-06-22T12:31:31Z</time>
      </trkpt>
      <trkpt lat="42.638833" lon="-2.368200">
        <ele>1266.0</ele>
        <time>2013-06-22T12:31:32Z</time>
      </trkpt>
      <trkpt lat="42.638867" lon="-2.368200">
        <ele>1266.0</ele>
        <time>2013-06-22T12:31:33Z</time>
      </trkpt>
      <trkpt lat="42.638900" lon="-2.368200">
        <ele>1266.0</ele>
        <time>2013-06-22T12:31:34Z</time>
      </trkpt>
      <trkpt lat="42.638933" lon="-2.368217">
        <ele>1266.0</ele>
        <time>2013-06-22T12:31:35Z</time>
      </trkpt>
      <trkpt lat="42.638967" lon="-2.368250">
        <ele>1267.0</ele>
        <time>2013-06-22T12:31:36Z</time>
      </trkpt>
      <trkpt lat="42.639000" lon="-2.368267">
        <ele>1268.0</ele>
        <time>2013-06-22T12:31:37Z</time>
      </trkpt>
      <trkpt lat="42.639017" lon="-2.368300">
        <ele>1270.0</ele>
        <time>2013-06-22T12:31:38Z</time>
      </trkpt>
      <trkpt lat="42.639050" lon="-2.368317">
        <ele>1272.0</ele>
        <time>2013-06-22T12:31:39Z</time>
      </trkpt>
      <trkpt lat="42.639067" lon="-2.368333">
        <ele>1273.0</ele>
        <time>2013-06-22T12:31:40Z</time>
      </trkpt>
      <trkpt lat="42.639100" lon="-2.368367">
        <ele>1273.0</ele>
        <time>2013-06-22T12:31:41Z</time>
      </trkpt>
      <trkpt lat="42.639150" lon="-2.368400">
        <ele>1274.0</ele>
        <time>2013-06-22T12:31:42Z</time>
      </trkpt>
      <trkpt lat="42.639183" lon="-2.368450">
        <ele>1274.0</ele>
        <time>2013-06-22T12:31:43Z</time>
      </trkpt>
      <trkpt lat="42.639200" lon="-2.368483">
        <ele>1276.0</ele>
        <time>2013-06-22T12:31:44Z</time>
      </trkpt>
      <trkpt lat="42.639217" lon="-2.368500">
        <ele>1277.0</ele>
        <time>2013-06-22T12:31:45Z</time>
      </trkpt>
      <trkpt lat="42.639250" lon="-2.368517">
        <ele>1278.0</ele>
        <time>2013-06-22T12:31:46Z</time>
      </trkpt>
      <trkpt lat="42.639283" lon="-2.368533">
        <ele>1278.0</ele>
        <time>2013-06-22T12:31:47Z</time>
      </trkpt>
      <trkpt lat="42.639333" lon="-2.368550">
        <ele>1279.0</ele>
        <time>2013-06-22T12:31:48Z</time>
      </trkpt>
      <trkpt lat="42.639367" lon="-2.368567">
        <ele>1279.0</ele>
        <time>2013-06-22T12:31:49Z</time>
      </trkpt>
      <trkpt lat="42.639400" lon="-2.368583">
        <ele>1282.0</ele>
        <time>2013-06-22T12:31:50Z</time>
      </trkpt>
      <trkpt lat="42.639400" lon="-2.368600">
        <ele>1284.0</ele>
        <time>2013-06-22T12:31:51Z</time>
      </trkpt>
      <trkpt lat="42.639417" lon="-2.368600">
        <ele>1286.0</ele>
        <time>2013-06-22T12:31:52Z</time>
      </trkpt>
      <trkpt lat="42.639433" lon="-2.368617">
        <ele>1287.0</ele>
        <time>2013-06-22T12:31:53Z</time>
      </trkpt>
      <trkpt lat="42.639467" lon="-2.368650">
        <ele>1286.0</ele>
        <time>2013-06-22T12:31:54Z</time>
      </trkpt>
      <trkpt lat="42.639517" lon="-2.368683">
        <ele>1286.0</ele>
        <time>2013-06-22T12:31:55Z</time>
      </trkpt>
      <trkpt lat="42.639567" lon="-2.368700">
        <ele>1287.0</ele>
        <time>2013-06-22T12:31:56Z</time>
      </trkpt>
      <trkpt lat="42.639583" lon="-2.368733">
        <ele>1289.0</ele>
        <time>2013-06-22T12:31:57Z</time>
      </trkpt>
      <trkpt lat="42.639617" lon="-2.368767">
        <ele>1290.0</ele>
        <time>2013-06-22T12:31:58Z</time>
      </trkpt>
      <trkpt lat="42.639633" lon="-2.368800">
        <ele>1291.0</ele>
        <time>2013-06-22T12:31:59Z</time>
      </trkpt>
      <trkpt lat="42.639667" lon="-2.368833">
        <ele>1292.0</ele>
        <time>2013-06-22T12:32:00Z</time>
      </trkpt>
      <trkpt lat="42.639683" lon="-2.368867">
        <ele>1293.0</ele>
        <time>2013-06-22T12:32:01Z</time>
      </trkpt>
      <trkpt lat="42.639717" lon="-2.368900">
        <ele>1293.0</ele>
        <time>2013-06-22T12:32:02Z</time>
      </trkpt>
      <trkpt lat="42.639750" lon="-2.368917">
        <ele>1293.0</ele>
        <time>2013-06-22T12:32:03Z</time>
      </trkpt>
      <trkpt lat="42.639783" lon="-2.368950">
        <ele>1293.0</ele>
        <time>2013-06-22T12:32:04Z</time>
      </trkpt>
      <trkpt lat="42.639817" lon="-2.368983">
        <ele>1292.0</ele>
        <time>2013-06-22T12:32:05Z</time>
      </trkpt>
      <trkpt lat="42.639867" lon="-2.369017">
        <ele>1292.0</ele>
        <time>2013-06-22T12:32:06Z</time>
      </trkpt>
      <trkpt lat="42.639900" lon="-2.369050">
        <ele>1291.0</ele>
        <time>2013-06-22T12:32:07Z</time>
      </trkpt>
      <trkpt lat="42.639933" lon="-2.369050">
        <ele>1292.0</ele>
        <time>2013-06-22T12:32:08Z</time>
      </trkpt>
      <trkpt lat="42.639967" lon="-2.369033">
        <ele>1292.0</ele>
        <time>2013-06-22T12:32:09Z</time>
      </trkpt>
      <trkpt lat="42.639983" lon="-2.369033">
        <ele>1293.0</ele>
        <time>2013-06-22T12:32:10Z</time>
      </trkpt>
      <trkpt lat="42.640017" lon="-2.369050">
        <ele>1292.0</ele>
        <time>2013-06-22T12:32:11Z</time>
      </trkpt>
      <trkpt lat="42.640067" lon="-2.369050">
        <ele>1290.0</ele>
        <time>2013-06-22T12:32:12Z</time>
      </trkpt>
      <trkpt lat="42.640100" lon="-2.369050">
        <ele>1289.0</ele>
        <time>2013-06-22T12:32:13Z</time>
      </trkpt>
      <trkpt lat="42.640133" lon="-2.369033">
        <ele>1289.0</ele>
        <time>2013-06-22T12:32:14Z</time>
      </trkpt>
      <trkpt lat="42.640167" lon="-2.369017">
        <ele>1290.0</ele>
        <time>2013-06-22T12:32:15Z</time>
      </trkpt>
      <trkpt lat="42.640200" lon="-2.369000">
        <ele>1290.0</ele>
        <time>2013-06-22T12:32:16Z</time>
      </trkpt>
      <trkpt lat="42.640233" lon="-2.368967">
        <ele>1290.0</ele>
        <time>2013-06-22T12:32:17Z</time>
      </trkpt>
      <trkpt lat="42.640250" lon="-2.368933">
        <ele>1289.0</ele>
        <time>2013-06-22T12:32:18Z</time>
      </trkpt>
      <trkpt lat="42.640300" lon="-2.368917">
        <ele>1289.0</ele>
        <time>2013-06-22T12:32:19Z</time>
      </trkpt>
      <trkpt lat="42.640333" lon="-2.368883">
        <ele>1288.0</ele>
        <time>2013-06-22T12:32:20Z</time>
      </trkpt>
      <trkpt lat="42.640367" lon="-2.368850">
        <ele>1287.0</ele>
        <time>2013-06-22T12:32:21Z</time>
      </trkpt>
      <trkpt lat="42.640400" lon="-2.368817">
        <ele>1286.0</ele>
        <time>2013-06-22T12:32:22Z</time>
      </trkpt>
      <trkpt lat="42.640433" lon="-2.368783">
        <ele>1285.0</ele>
        <time>2013-06-22T12:32:23Z</time>
      </trkpt>
      <trkpt lat="42.640467" lon="-2.368750">
        <ele>1284.0</ele>
        <time>2013-06-22T12:32:24Z</time>
      </trkpt>
      <trkpt lat="42.640517" lon="-2.368717">
        <ele>1282.0</ele>
        <time>2013-06-22T12:32:25Z</time>
      </trkpt>
      <trkpt lat="42.640550" lon="-2.368683">
        <ele>1280.0</ele>
        <time>2013-06-22T12:32:26Z</time>
      </trkpt>
      <trkpt lat="42.640583" lon="-2.368633">
        <ele>1279.0</ele>
        <time>2013-06-22T12:32:27Z</time>
      </trkpt>
      <trkpt lat="42.640617" lon="-2.368600">
        <ele>1278.0</ele>
        <time>2013-06-22T12:32:28Z</time>
      </trkpt>
      <trkpt lat="42.640650" lon="-2.368550">
        <ele>1276.0</ele>
        <time>2013-06-22T12:32:29Z</time>
      </trkpt>
      <trkpt lat="42.640683" lon="-2.368500">
        <ele>1275.0</ele>
        <time>2013-06-22T12:32:30Z</time>
      </trkpt>
      <trkpt lat="42.640717" lon="-2.368450">
        <ele>1273.0</ele>
        <time>2013-06-22T12:32:31Z</time>
      </trkpt>
      <trkpt lat="42.640750" lon="-2.368400">
        <ele>1270.0</ele>
        <time>2013-06-22T12:32:32Z</time>
      </trkpt>
      <trkpt lat="42.640800" lon="-2.368367">
        <ele>1269.0</ele>
        <time>2013-06-22T12:32:33Z</time>
      </trkpt>
      <trkpt lat="42.640833" lon="-2.368317">
        <ele>1266.0</ele>
        <time>2013-06-22T12:32:34Z</time>
      </trkpt>
      <trkpt lat="42.640867" lon="-2.368283">
        <ele>1264.0</ele>
        <time>2013-06-22T12:32:35Z</time>
      </trkpt>
      <trkpt lat="42.640900" lon="-2.368250">
        <ele>1262.0</ele>
        <time>2013-06-22T12:32:36Z</time>
      </trkpt>
      <trkpt lat="42.640950" lon="-2.368233">
        <ele>1260.0</ele>
        <time>2013-06-22T12:32:37Z</time>
      </trkpt>
      <trkpt lat="42.640983" lon="-2.368217">
        <ele>1258.0</ele>
        <time>2013-06-22T12:32:38Z</time>
      </trkpt>
      <trkpt lat="42.641017" lon="-2.368200">
        <ele>1256.0</ele>
        <time>2013-06-22T12:32:39Z</time>
      </trkpt>
      <trkpt lat="42.641067" lon="-2.368167">
        <ele>1253.0</ele>
        <time>2013-06-22T12:32:40Z</time>
      </trkpt>
      <trkpt lat="42.641100" lon="-2.368133">
        <ele>1251.0</ele>
        <time>2013-06-22T12:32:41Z</time>
      </trkpt>
      <trkpt lat="42.641150" lon="-2.368100">
        <ele>1249.0</ele>
        <time>2013-06-22T12:32:42Z</time>
      </trkpt>
      <trkpt lat="42.641183" lon="-2.368050">
        <ele>1247.0</ele>
        <time>2013-06-22T12:32:43Z</time>
      </trkpt>
      <trkpt lat="42.641217" lon="-2.368000">
        <ele>1245.0</ele>
        <time>2013-06-22T12:32:44Z</time>
      </trkpt>
      <trkpt lat="42.641267" lon="-2.367950">
        <ele>1243.0</ele>
        <time>2013-06-22T12:32:45Z</time>
      </trkpt>
      <trkpt lat="42.641300" lon="-2.367883">
        <ele>1241.0</ele>
        <time>2013-06-22T12:32:46Z</time>
      </trkpt>
      <trkpt lat="42.641333" lon="-2.367833">
        <ele>1240.0</ele>
        <time>2013-06-22T12:32:47Z</time>
      </trkpt>
      <trkpt lat="42.641367" lon="-2.367767">
        <ele>1238.0</ele>
        <time>2013-06-22T12:32:48Z</time>
      </trkpt>
      <trkpt lat="42.641400" lon="-2.367717">
        <ele>1237.0</ele>
        <time>2013-06-22T12:32:49Z</time>
      </trkpt>
      <trkpt lat="42.641433" lon="-2.367650">
        <ele>1236.0</ele>
        <time>2013-06-22T12:32:50Z</time>
      </trkpt>
      <trkpt lat="42.641467" lon="-2.367583">
        <ele>1234.0</ele>
        <time>2013-06-22T12:32:51Z</time>
      </trkpt>
      <trkpt lat="42.641500" lon="-2.367500">
        <ele>1233.0</ele>
        <time>2013-06-22T12:32:52Z</time>
      </trkpt>
      <trkpt lat="42.641533" lon="-2.367450">
        <ele>1231.0</ele>
        <time>2013-06-22T12:32:53Z</time>
      </trkpt>
      <trkpt lat="42.641567" lon="-2.367383">
        <ele>1229.0</ele>
        <time>2013-06-22T12:32:54Z</time>
      </trkpt>
      <trkpt lat="42.641617" lon="-2.367350">
        <ele>1227.0</ele>
        <time>2013-06-22T12:32:55Z</time>
      </trkpt>
      <trkpt lat="42.641667" lon="-2.367300">
        <ele>1226.0</ele>
        <time>2013-06-22T12:32:56Z</time>
      </trkpt>
      <trkpt lat="42.641700" lon="-2.367267">
        <ele>1224.0</ele>
        <time>2013-06-22T12:32:57Z</time>
      </trkpt>
      <trkpt lat="42.641750" lon="-2.367233">
        <ele>1223.0</ele>
        <time>2013-06-22T12:32:58Z</time>
      </trkpt>
      <trkpt lat="42.641800" lon="-2.367200">
        <ele>1221.0</ele>
        <time>2013-06-22T12:32:59Z</time>
      </trkpt>
      <trkpt lat="42.641850" lon="-2.367183">
        <ele>1220.0</ele>
        <time>2013-06-22T12:33:00Z</time>
      </trkpt>
      <trkpt lat="42.641900" lon="-2.367183">
        <ele>1218.0</ele>
        <time>2013-06-22T12:33:01Z</time>
      </trkpt>
      <trkpt lat="42.641950" lon="-2.367183">
        <ele>1216.0</ele>
        <time>2013-06-22T12:33:02Z</time>
      </trkpt>
      <trkpt lat="42.642000" lon="-2.367183">
        <ele>1215.0</ele>
        <time>2013-06-22T12:33:03Z</time>
      </trkpt>
      <trkpt lat="42.642033" lon="-2.367167">
        <ele>1215.0</ele>
        <time>2013-06-22T12:33:04Z</time>
      </trkpt>
      <trkpt lat="42.642067" lon="-2.367150">
        <ele>1214.0</ele>
        <time>2013-06-22T12:33:05Z</time>
      </trkpt>
      <trkpt lat="42.642117" lon="-2.367133">
        <ele>1213.0</ele>
        <time>2013-06-22T12:33:06Z</time>
      </trkpt>
      <trkpt lat="42.642167" lon="-2.367117">
        <ele>1212.0</ele>
        <time>2013-06-22T12:33:07Z</time>
      </trkpt>
      <trkpt lat="42.642217" lon="-2.367117">
        <ele>1209.0</ele>
        <time>2013-06-22T12:33:08Z</time>
      </trkpt>
      <trkpt lat="42.642250" lon="-2.367100">
        <ele>1208.0</ele>
        <time>2013-06-22T12:33:09Z</time>
      </trkpt>
      <trkpt lat="42.642300" lon="-2.367083">
        <ele>1206.0</ele>
        <time>2013-06-22T12:33:10Z</time>
      </trkpt>
      <trkpt lat="42.642350" lon="-2.367083">
        <ele>1205.0</ele>
        <time>2013-06-22T12:33:11Z</time>
      </trkpt>
      <trkpt lat="42.642400" lon="-2.367067">
        <ele>1203.0</ele>
        <time>2013-06-22T12:33:12Z</time>
      </trkpt>
      <trkpt lat="42.642450" lon="-2.367050">
        <ele>1202.0</ele>
        <time>2013-06-22T12:33:13Z</time>
      </trkpt>
      <trkpt lat="42.642500" lon="-2.367033">
        <ele>1200.0</ele>
        <time>2013-06-22T12:33:14Z</time>
      </trkpt>
      <trkpt lat="42.642550" lon="-2.367017">
        <ele>1199.0</ele>
        <time>2013-06-22T12:33:15Z</time>
      </trkpt>
      <trkpt lat="42.642583" lon="-2.366983">
        <ele>1198.0</ele>
        <time>2013-06-22T12:33:16Z</time>
      </trkpt>
      <trkpt lat="42.642633" lon="-2.366950">
        <ele>1196.0</ele>
        <time>2013-06-22T12:33:17Z</time>
      </trkpt>
      <trkpt lat="42.642667" lon="-2.366917">
        <ele>1195.0</ele>
        <time>2013-06-22T12:33:18Z</time>
      </trkpt>
      <trkpt lat="42.642717" lon="-2.366867">
        <ele>1194.0</ele>
        <time>2013-06-22T12:33:19Z</time>
      </trkpt>
      <trkpt lat="42.642750" lon="-2.366833">
        <ele>1193.0</ele>
        <time>2013-06-22T12:33:20Z</time>
      </trkpt>
      <trkpt lat="42.642783" lon="-2.366783">
        <ele>1192.0</ele>
        <time>2013-06-22T12:33:21Z</time>
      </trkpt>
      <trkpt lat="42.642817" lon="-2.366733">
        <ele>1191.0</ele>
        <time>2013-06-22T12:33:22Z</time>
      </trkpt>
      <trkpt lat="42.642850" lon="-2.366683">
        <ele>1190.0</ele>
        <time>2013-06-22T12:33:23Z</time>
      </trkpt>
      <trkpt lat="42.642883" lon="-2.366650">
        <ele>1190.0</ele>
        <time>2013-06-22T12:33:24Z</time>
      </trkpt>
      <trkpt lat="42.642917" lon="-2.366600">
        <ele>1190.0</ele>
        <time>2013-06-22T12:33:25Z</time>
      </trkpt>
      <trkpt lat="42.642967" lon="-2.366567">
        <ele>1189.0</ele>
        <time>2013-06-22T12:33:26Z</time>
      </trkpt>
      <trkpt lat="42.643000" lon="-2.366533">
        <ele>1188.0</ele>
        <time>2013-06-22T12:33:27Z</time>
      </trkpt>
      <trkpt lat="42.643050" lon="-2.366500">
        <ele>1187.0</ele>
        <time>2013-06-22T12:33:28Z</time>
      </trkpt>
      <trkpt lat="42.643100" lon="-2.366467">
        <ele>1186.0</ele>
        <time>2013-06-22T12:33:29Z</time>
      </trkpt>
      <trkpt lat="42.643150" lon="-2.366400">
        <ele>1186.0</ele>
        <time>2013-06-22T12:33:30Z</time>
      </trkpt>
      <trkpt lat="42.643183" lon="-2.366350">
        <ele>1187.0</ele>
        <time>2013-06-22T12:33:31Z</time>
      </trkpt>
      <trkpt lat="42.643217" lon="-2.366300">
        <ele>1188.0</ele>
        <time>2013-06-22T12:33:32Z</time>
      </trkpt>
      <trkpt lat="42.643267" lon="-2.366267">
        <ele>1189.0</ele>
        <time>2013-06-22T12:33:33Z</time>
      </trkpt>
      <trkpt lat="42.643300" lon="-2.366233">
        <ele>1191.0</ele>
        <time>2013-06-22T12:33:34Z</time>
      </trkpt>
      <trkpt lat="42.643333" lon="-2.366217">
        <ele>1193.0</ele>
        <time>2013-06-22T12:33:35Z</time>
      </trkpt>
      <trkpt lat="42.643367" lon="-2.366233">
        <ele>1194.0</ele>
        <time>2013-06-22T12:33:36Z</time>
      </trkpt>
      <trkpt lat="42.643383" lon="-2.366283">
        <ele>1195.0</ele>
        <time>2013-06-22T12:33:37Z</time>
      </trkpt>
      <trkpt lat="42.643433" lon="-2.366333">
        <ele>1194.0</ele>
        <time>2013-06-22T12:33:38Z</time>
      </trkpt>
      <trkpt lat="42.643467" lon="-2.366367">
        <ele>1193.0</ele>
        <time>2013-06-22T12:33:39Z</time>
      </trkpt>
      <trkpt lat="42.643517" lon="-2.366417">
        <ele>1193.0</ele>
        <time>2013-06-22T12:33:40Z</time>
      </trkpt>
      <trkpt lat="42.643567" lon="-2.366467">
        <ele>1192.0</ele>
        <time>2013-06-22T12:33:41Z</time>
      </trkpt>
      <trkpt lat="42.643600" lon="-2.366517">
        <ele>1193.0</ele>
        <time>2013-06-22T12:33:42Z</time>
      </trkpt>
      <trkpt lat="42.643650" lon="-2.366533">
        <ele>1193.0</ele>
        <time>2013-06-22T12:33:43Z</time>
      </trkpt>
      <trkpt lat="42.643700" lon="-2.366550">
        <ele>1193.0</ele>
        <time>2013-06-22T12:33:44Z</time>
      </trkpt>
      <trkpt lat="42.643750" lon="-2.366567">
        <ele>1192.0</ele>
        <time>2013-06-22T12:33:45Z</time>
      </trkpt>
      <trkpt lat="42.643800" lon="-2.366567">
        <ele>1191.0</ele>
        <time>2013-06-22T12:33:46Z</time>
      </trkpt>
      <trkpt lat="42.643850" lon="-2.366567">
        <ele>1190.0</ele>
        <time>2013-06-22T12:33:47Z</time>
      </trkpt>
      <trkpt lat="42.643883" lon="-2.366533">
        <ele>1190.0</ele>
        <time>2013-06-22T12:33:48Z</time>
      </trkpt>
      <trkpt lat="42.643933" lon="-2.366483">
        <ele>1188.0</ele>
        <time>2013-06-22T12:33:49Z</time>
      </trkpt>
      <trkpt lat="42.643983" lon="-2.366417">
        <ele>1187.0</ele>
        <time>2013-06-22T12:33:50Z</time>
      </trkpt>
      <trkpt lat="42.644017" lon="-2.366350">
        <ele>1186.0</ele>
        <time>2013-06-22T12:33:51Z</time>
      </trkpt>
      <trkpt lat="42.644067" lon="-2.366300">
        <ele>1186.0</ele>
        <time>2013-06-22T12:33:52Z</time>
      </trkpt>
      <trkpt lat="42.644100" lon="-2.366250">
        <ele>1185.0</ele>
        <time>2013-06-22T12:33:53Z</time>
      </trkpt>
      <trkpt lat="42.644150" lon="-2.366200">
        <ele>1184.0</ele>
        <time>2013-06-22T12:33:54Z</time>
      </trkpt>
      <trkpt lat="42.644200" lon="-2.366133">
        <ele>1183.0</ele>
        <time>2013-06-22T12:33:55Z</time>
      </trkpt>
      <trkpt lat="42.644233" lon="-2.366083">
        <ele>1183.0</ele>
        <time>2013-06-22T12:33:56Z</time>
      </trkpt>
      <trkpt lat="42.644283" lon="-2.366017">
        <ele>1182.0</ele>
        <time>2013-06-22T12:33:57Z</time>
      </trkpt>
      <trkpt lat="42.644333" lon="-2.365967">
        <ele>1181.0</ele>
        <time>2013-06-22T12:33:58Z</time>
      </trkpt>
      <trkpt lat="42.644367" lon="-2.365900">
        <ele>1180.0</ele>
        <time>2013-06-22T12:33:59Z</time>
      </trkpt>
      <trkpt lat="42.644417" lon="-2.365833">
        <ele>1180.0</ele>
        <time>2013-06-22T12:34:00Z</time>
      </trkpt>
      <trkpt lat="42.644467" lon="-2.365783">
        <ele>1179.0</ele>
        <time>2013-06-22T12:34:01Z</time>
      </trkpt>
      <trkpt lat="42.644517" lon="-2.365717">
        <ele>1179.0</ele>
        <time>2013-06-22T12:34:02Z</time>
      </trkpt>
      <trkpt lat="42.644567" lon="-2.365683">
        <ele>1178.0</ele>
        <time>2013-06-22T12:34:03Z</time>
      </trkpt>
      <trkpt lat="42.644617" lon="-2.365633">
        <ele>1177.0</ele>
        <time>2013-06-22T12:34:04Z</time>
      </trkpt>
      <trkpt lat="42.644667" lon="-2.365583">
        <ele>1176.0</ele>
        <time>2013-06-22T12:34:05Z</time>
      </trkpt>
      <trkpt lat="42.644717" lon="-2.365517">
        <ele>1175.0</ele>
        <time>2013-06-22T12:34:06Z</time>
      </trkpt>
      <trkpt lat="42.644767" lon="-2.365483">
        <ele>1174.0</ele>
        <time>2013-06-22T12:34:07Z</time>
      </trkpt>
      <trkpt lat="42.644817" lon="-2.365433">
        <ele>1175.0</ele>
        <time>2013-06-22T12:34:08Z</time>
      </trkpt>
      <trkpt lat="42.644850" lon="-2.365417">
        <ele>1175.0</ele>
        <time>2013-06-22T12:34:09Z</time>
      </trkpt>
      <trkpt lat="42.644883" lon="-2.365383">
        <ele>1175.0</ele>
        <time>2013-06-22T12:34:10Z</time>
      </trkpt>
      <trkpt lat="42.644917" lon="-2.365350">
        <ele>1174.0</ele>
        <time>2013-06-22T12:34:11Z</time>
      </trkpt>
      <trkpt lat="42.644967" lon="-2.365317">
        <ele>1173.0</ele>
        <time>2013-06-22T12:34:12Z</time>
      </trkpt>
      <trkpt lat="42.645017" lon="-2.365283">
        <ele>1172.0</ele>
        <time>2013-06-22T12:34:13Z</time>
      </trkpt>
      <trkpt lat="42.645067" lon="-2.365250">
        <ele>1172.0</ele>
        <time>2013-06-22T12:34:14Z</time>
      </trkpt>
      <trkpt lat="42.645100" lon="-2.365233">
        <ele>1173.0</ele>
        <time>2013-06-22T12:34:15Z</time>
      </trkpt>
      <trkpt lat="42.645133" lon="-2.365183">
        <ele>1173.0</ele>
        <time>2013-06-22T12:34:16Z</time>
      </trkpt>
      <trkpt lat="42.645167" lon="-2.365150">
        <ele>1172.0</ele>
        <time>2013-06-22T12:34:17Z</time>
      </trkpt>
      <trkpt lat="42.645217" lon="-2.365100">
        <ele>1171.0</ele>
        <time>2013-06-22T12:34:18Z</time>
      </trkpt>
      <trkpt lat="42.645250" lon="-2.365050">
        <ele>1171.0</ele>
        <time>2013-06-22T12:34:19Z</time>
      </trkpt>
      <trkpt lat="42.645283" lon="-2.365017">
        <ele>1171.0</ele>
        <time>2013-06-22T12:34:20Z</time>
      </trkpt>
      <trkpt lat="42.645317" lon="-2.364983">
        <ele>1171.0</ele>
        <time>2013-06-22T12:34:21Z</time>
      </trkpt>
      <trkpt lat="42.645350" lon="-2.364950">
        <ele>1171.0</ele>
        <time>2013-06-22T12:34:22Z</time>
      </trkpt>
      <trkpt lat="42.645400" lon="-2.364900">
        <ele>1170.0</ele>
        <time>2013-06-22T12:34:23Z</time>
      </trkpt>
      <trkpt lat="42.645433" lon="-2.364850">
        <ele>1170.0</ele>
        <time>2013-06-22T12:34:24Z</time>
      </trkpt>
      <trkpt lat="42.645483" lon="-2.364800">
        <ele>1172.0</ele>
        <time>2013-06-22T12:34:25Z</time>
      </trkpt>
      <trkpt lat="42.645533" lon="-2.364783">
        <ele>1175.0</ele>
        <time>2013-06-22T12:34:26Z</time>
      </trkpt>
      <trkpt lat="42.645567" lon="-2.364783">
        <ele>1178.0</ele>
        <time>2013-06-22T12:34:27Z</time>
      </trkpt>
      <trkpt lat="42.645583" lon="-2.364800">
        <ele>1181.0</ele>
        <time>2013-06-22T12:34:28Z</time>
      </trkpt>
      <trkpt lat="42.645617" lon="-2.364800">
        <ele>1184.0</ele>
        <time>2013-06-22T12:34:29Z</time>
      </trkpt>
      <trkpt lat="42.645650" lon="-2.364817">
        <ele>1187.0</ele>
        <time>2013-06-22T12:34:30Z</time>
      </trkpt>
      <trkpt lat="42.645683" lon="-2.364833">
        <ele>1188.0</ele>
        <time>2013-06-22T12:34:31Z</time>
      </trkpt>
      <trkpt lat="42.645733" lon="-2.364833">
        <ele>1190.0</ele>
        <time>2013-06-22T12:34:32Z</time>
      </trkpt>
      <trkpt lat="42.645783" lon="-2.364850">
        <ele>1191.0</ele>
        <time>2013-06-22T12:34:33Z</time>
      </trkpt>
      <trkpt lat="42.645817" lon="-2.364867">
        <ele>1192.0</ele>
        <time>2013-06-22T12:34:34Z</time>
      </trkpt>
      <trkpt lat="42.645867" lon="-2.364883">
        <ele>1194.0</ele>
        <time>2013-06-22T12:34:35Z</time>
      </trkpt>
      <trkpt lat="42.645900" lon="-2.364900">
        <ele>1195.0</ele>
        <time>2013-06-22T12:34:36Z</time>
      </trkpt>
      <trkpt lat="42.645950" lon="-2.364917">
        <ele>1196.0</ele>
        <time>2013-06-22T12:34:37Z</time>
      </trkpt>
      <trkpt lat="42.646000" lon="-2.364917">
        <ele>1196.0</ele>
        <time>2013-06-22T12:34:38Z</time>
      </trkpt>
      <trkpt lat="42.646050" lon="-2.364917">
        <ele>1196.0</ele>
        <time>2013-06-22T12:34:39Z</time>
      </trkpt>
      <trkpt lat="42.646100" lon="-2.364883">
        <ele>1197.0</ele>
        <time>2013-06-22T12:34:40Z</time>
      </trkpt>
      <trkpt lat="42.646133" lon="-2.364833">
        <ele>1197.0</ele>
        <time>2013-06-22T12:34:41Z</time>
      </trkpt>
      <trkpt lat="42.646183" lon="-2.364783">
        <ele>1197.0</ele>
        <time>2013-06-22T12:34:42Z</time>
      </trkpt>
      <trkpt lat="42.646217" lon="-2.364750">
        <ele>1197.0</ele>
        <time>2013-06-22T12:34:43Z</time>
      </trkpt>
      <trkpt lat="42.646250" lon="-2.364733">
        <ele>1197.0</ele>
        <time>2013-06-22T12:34:44Z</time>
      </trkpt>
      <trkpt lat="42.646283" lon="-2.364700">
        <ele>1196.0</ele>
        <time>2013-06-22T12:34:45Z</time>
      </trkpt>
      <trkpt lat="42.646300" lon="-2.364633">
        <ele>1196.0</ele>
        <time>2013-06-22T12:34:46Z</time>
      </trkpt>
      <trkpt lat="42.646317" lon="-2.364533">
        <ele>1194.0</ele>
        <time>2013-06-22T12:34:47Z</time>
      </trkpt>
      <trkpt lat="42.646300" lon="-2.364400">
        <ele>1193.0</ele>
        <time>2013-06-22T12:34:48Z</time>
      </trkpt>
      <trkpt lat="42.646267" lon="-2.364267">
        <ele>1192.0</ele>
        <time>2013-06-22T12:34:49Z</time>
      </trkpt>
      <trkpt lat="42.646183" lon="-2.364167">
        <ele>1192.0</ele>
        <time>2013-06-22T12:34:50Z</time>
      </trkpt>
      <trkpt lat="42.646067" lon="-2.364067">
        <ele>1191.0</ele>
        <time>2013-06-22T12:34:51Z</time>
      </trkpt>
      <trkpt lat="42.645967" lon="-2.364017">
        <ele>1191.0</ele>
        <time>2013-06-22T12:34:52Z</time>
      </trkpt>
      <trkpt lat="42.645850" lon="-2.363983">
        <ele>1190.0</ele>
        <time>2013-06-22T12:34:53Z</time>
      </trkpt>
      <trkpt lat="42.645733" lon="-2.363967">
        <ele>1189.0</ele>
        <time>2013-06-22T12:34:54Z</time>
      </trkpt>
      <trkpt lat="42.645617" lon="-2.363967">
        <ele>1188.0</ele>
        <time>2013-06-22T12:34:55Z</time>
      </trkpt>
      <trkpt lat="42.645500" lon="-2.363967">
        <ele>1187.0</ele>
        <time>2013-06-22T12:34:56Z</time>
      </trkpt>
      <trkpt lat="42.645383" lon="-2.364000">
        <ele>1186.0</ele>
        <time>2013-06-22T12:34:57Z</time>
      </trkpt>
      <trkpt lat="42.645250" lon="-2.364017">
        <ele>1185.0</ele>
        <time>2013-06-22T12:34:58Z</time>
      </trkpt>
      <trkpt lat="42.645133" lon="-2.364050">
        <ele>1185.0</ele>
        <time>2013-06-22T12:34:59Z</time>
      </trkpt>
      <trkpt lat="42.645017" lon="-2.364067">
        <ele>1185.0</ele>
        <time>2013-06-22T12:35:00Z</time>
      </trkpt>
      <trkpt lat="42.644900" lon="-2.364117">
        <ele>1184.0</ele>
        <time>2013-06-22T12:35:01Z</time>
      </trkpt>
      <trkpt lat="42.644783" lon="-2.364150">
        <ele>1184.0</ele>
        <time>2013-06-22T12:35:02Z</time>
      </trkpt>
      <trkpt lat="42.644650" lon="-2.364183">
        <ele>1185.0</ele>
        <time>2013-06-22T12:35:03Z</time>
      </trkpt>
      <trkpt lat="42.644550" lon="-2.364233">
        <ele>1186.0</ele>
        <time>2013-06-22T12:35:04Z</time>
      </trkpt>
      <trkpt lat="42.644433" lon="-2.364267">
        <ele>1188.0</ele>
        <time>2013-06-22T12:35:05Z</time>
      </trkpt>
      <trkpt lat="42.644333" lon="-2.364300">
        <ele>1190.0</ele>
        <time>2013-06-22T12:35:06Z</time>
      </trkpt>
      <trkpt lat="42.644233" lon="-2.364333">
        <ele>1193.0</ele>
        <time>2013-06-22T12:35:07Z</time>
      </trkpt>
      <trkpt lat="42.644133" lon="-2.364367">
        <ele>1195.0</ele>
        <time>2013-06-22T12:35:08Z</time>
      </trkpt>
      <trkpt lat="42.644050" lon="-2.364417">
        <ele>1198.0</ele>
        <time>2013-06-22T12:35:09Z</time>
      </trkpt>
      <trkpt lat="42.643967" lon="-2.364483">
        <ele>1200.0</ele>
        <time>2013-06-22T12:35:10Z</time>
      </trkpt>
      <trkpt lat="42.643883" lon="-2.364533">
        <ele>1202.0</ele>
        <time>2013-06-22T12:35:11Z</time>
      </trkpt>
      <trkpt lat="42.643800" lon="-2.364600">
        <ele>1204.0</ele>
        <time>2013-06-22T12:35:12Z</time>
      </trkpt>
      <trkpt lat="42.643717" lon="-2.364700">
        <ele>1205.0</ele>
        <time>2013-06-22T12:35:13Z</time>
      </trkpt>
      <trkpt lat="42.643650" lon="-2.364783">
        <ele>1207.0</ele>
        <time>2013-06-22T12:35:14Z</time>
      </trkpt>
      <trkpt lat="42.643583" lon="-2.364883">
        <ele>1210.0</ele>
        <time>2013-06-22T12:35:15Z</time>
      </trkpt>
      <trkpt lat="42.643517" lon="-2.364967">
        <ele>1213.0</ele>
        <time>2013-06-22T12:35:16Z</time>
      </trkpt>
      <trkpt lat="42.643467" lon="-2.365067">
        <ele>1216.0</ele>
        <time>2013-06-22T12:35:17Z</time>
      </trkpt>
      <trkpt lat="42.643433" lon="-2.365133">
        <ele>1218.0</ele>
        <time>2013-06-22T12:35:18Z</time>
      </trkpt>
      <trkpt lat="42.643417" lon="-2.365217">
        <ele>1220.0</ele>
        <time>2013-06-22T12:35:19Z</time>
      </trkpt>
      <trkpt lat="42.643417" lon="-2.365317">
        <ele>1221.0</ele>
        <time>2013-06-22T12:35:20Z</time>
      </trkpt>
      <trkpt lat="42.643417" lon="-2.365400">
        <ele>1221.0</ele>
        <time>2013-06-22T12:35:21Z</time>
      </trkpt>
      <trkpt lat="42.643450" lon="-2.365450">
        <ele>1222.0</ele>
        <time>2013-06-22T12:35:22Z</time>
      </trkpt>
      <trkpt lat="42.643483" lon="-2.365483">
        <ele>1221.0</ele>
        <time>2013-06-22T12:35:23Z</time>
      </trkpt>
      <trkpt lat="42.643517" lon="-2.365483">
        <ele>1220.0</ele>
        <time>2013-06-22T12:35:24Z</time>
      </trkpt>
      <trkpt lat="42.643567" lon="-2.365450">
        <ele>1218.0</ele>
        <time>2013-06-22T12:35:25Z</time>
      </trkpt>
      <trkpt lat="42.643617" lon="-2.365417">
        <ele>1216.0</ele>
        <time>2013-06-22T12:35:26Z</time>
      </trkpt>
      <trkpt lat="42.643650" lon="-2.365367">
        <ele>1215.0</ele>
        <time>2013-06-22T12:35:27Z</time>
      </trkpt>
      <trkpt lat="42.643683" lon="-2.365283">
        <ele>1215.0</ele>
        <time>2013-06-22T12:35:28Z</time>
      </trkpt>
      <trkpt lat="42.643700" lon="-2.365183">
        <ele>1214.0</ele>
        <time>2013-06-22T12:35:29Z</time>
      </trkpt>
      <trkpt lat="42.643700" lon="-2.365050">
        <ele>1214.0</ele>
        <time>2013-06-22T12:35:30Z</time>
      </trkpt>
      <trkpt lat="42.643667" lon="-2.364933">
        <ele>1213.0</ele>
        <time>2013-06-22T12:35:31Z</time>
      </trkpt>
      <trkpt lat="42.643617" lon="-2.364800">
        <ele>1212.0</ele>
        <time>2013-06-22T12:35:32Z</time>
      </trkpt>
      <trkpt lat="42.643550" lon="-2.364667">
        <ele>1212.0</ele>
        <time>2013-06-22T12:35:33Z</time>
      </trkpt>
      <trkpt lat="42.643450" lon="-2.364567">
        <ele>1212.0</ele>
        <time>2013-06-22T12:35:34Z</time>
      </trkpt>
      <trkpt lat="42.643350" lon="-2.364467">
        <ele>1212.0</ele>
        <time>2013-06-22T12:35:35Z</time>
      </trkpt>
      <trkpt lat="42.643250" lon="-2.364383">
        <ele>1213.0</ele>
        <time>2013-06-22T12:35:36Z</time>
      </trkpt>
      <trkpt lat="42.643150" lon="-2.364317">
        <ele>1213.0</ele>
        <time>2013-06-22T12:35:37Z</time>
      </trkpt>
      <trkpt lat="42.643033" lon="-2.364267">
        <ele>1213.0</ele>
        <time>2013-06-22T12:35:38Z</time>
      </trkpt>
      <trkpt lat="42.642900" lon="-2.364233">
        <ele>1214.0</ele>
        <time>2013-06-22T12:35:39Z</time>
      </trkpt>
      <trkpt lat="42.642783" lon="-2.364217">
        <ele>1215.0</ele>
        <time>2013-06-22T12:35:40Z</time>
      </trkpt>
      <trkpt lat="42.642683" lon="-2.364217">
        <ele>1216.0</ele>
        <time>2013-06-22T12:35:41Z</time>
      </trkpt>
      <trkpt lat="42.642583" lon="-2.364233">
        <ele>1218.0</ele>
        <time>2013-06-22T12:35:42Z</time>
      </trkpt>
      <trkpt lat="42.642483" lon="-2.364300">
        <ele>1219.0</ele>
        <time>2013-06-22T12:35:43Z</time>
      </trkpt>
      <trkpt lat="42.642383" lon="-2.364383">
        <ele>1219.0</ele>
        <time>2013-06-22T12:35:44Z</time>
      </trkpt>
      <trkpt lat="42.642283" lon="-2.364467">
        <ele>1221.0</ele>
        <time>2013-06-22T12:35:45Z</time>
      </trkpt>
      <trkpt lat="42.642217" lon="-2.364567">
        <ele>1223.0</ele>
        <time>2013-06-22T12:35:46Z</time>
      </trkpt>
      <trkpt lat="42.642183" lon="-2.364667">
        <ele>1224.0</ele>
        <time>2013-06-22T12:35:47Z</time>
      </trkpt>
      <trkpt lat="42.642150" lon="-2.364767">
        <ele>1225.0</ele>
        <time>2013-06-22T12:35:48Z</time>
      </trkpt>
      <trkpt lat="42.642117" lon="-2.364867">
        <ele>1227.0</ele>
        <time>2013-06-22T12:35:49Z</time>
      </trkpt>
      <trkpt lat="42.642083" lon="-2.364950">
        <ele>1228.0</ele>
        <time>2013-06-22T12:35:50Z</time>
      </trkpt>
      <trkpt lat="42.642067" lon="-2.365033">
        <ele>1228.0</ele>
        <time>2013-06-22T12:35:51Z</time>
      </trkpt>
      <trkpt lat="42.642050" lon="-2.365117">
        <ele>1229.0</ele>
        <time>2013-06-22T12:35:52Z</time>
      </trkpt>
      <trkpt lat="42.642033" lon="-2.365183">
        <ele>1228.0</ele>
        <time>2013-06-22T12:35:53Z</time>
      </trkpt>
      <trkpt lat="42.642033" lon="-2.365267">
        <ele>1226.0</ele>
        <time>2013-06-22T12:35:54Z</time>
      </trkpt>
      <trkpt lat="42.642050" lon="-2.365350">
        <ele>1223.0</ele>
        <time>2013-06-22T12:35:55Z</time>
      </trkpt>
      <trkpt lat="42.642067" lon="-2.365433">
        <ele>1222.0</ele>
        <time>2013-06-22T12:35:56Z</time>
      </trkpt>
      <trkpt lat="42.642067" lon="-2.365500">
        <ele>1221.0</ele>
        <time>2013-06-22T12:35:57Z</time>
      </trkpt>
      <trkpt lat="42.642100" lon="-2.365567">
        <ele>1221.0</ele>
        <time>2013-06-22T12:35:58Z</time>
      </trkpt>
      <trkpt lat="42.642133" lon="-2.365617">
        <ele>1219.0</ele>
        <time>2013-06-22T12:35:59Z</time>
      </trkpt>
      <trkpt lat="42.642167" lon="-2.365650">
        <ele>1218.0</ele>
        <time>2013-06-22T12:36:00Z</time>
      </trkpt>
      <trkpt lat="42.642217" lon="-2.365650">
        <ele>1217.0</ele>
        <time>2013-06-22T12:36:01Z</time>
      </trkpt>
      <trkpt lat="42.642250" lon="-2.365633">
        <ele>1216.0</ele>
        <time>2013-06-22T12:36:02Z</time>
      </trkpt>
      <trkpt lat="42.642283" lon="-2.365617">
        <ele>1215.0</ele>
        <time>2013-06-22T12:36:03Z</time>
      </trkpt>
      <trkpt lat="42.642333" lon="-2.365583">
        <ele>1214.0</ele>
        <time>2013-06-22T12:36:04Z</time>
      </trkpt>
      <trkpt lat="42.642367" lon="-2.365533">
        <ele>1212.0</ele>
        <time>2013-06-22T12:36:05Z</time>
      </trkpt>
      <trkpt lat="42.642400" lon="-2.365483">
        <ele>1211.0</ele>
        <time>2013-06-22T12:36:06Z</time>
      </trkpt>
      <trkpt lat="42.642417" lon="-2.365400">
        <ele>1209.0</ele>
        <time>2013-06-22T12:36:07Z</time>
      </trkpt>
      <trkpt lat="42.642433" lon="-2.365317">
        <ele>1207.0</ele>
        <time>2013-06-22T12:36:08Z</time>
      </trkpt>
      <trkpt lat="42.642433" lon="-2.365200">
        <ele>1205.0</ele>
        <time>2013-06-22T12:36:09Z</time>
      </trkpt>
      <trkpt lat="42.642433" lon="-2.365083">
        <ele>1204.0</ele>
        <time>2013-06-22T12:36:10Z</time>
      </trkpt>
      <trkpt lat="42.642433" lon="-2.364967">
        <ele>1202.0</ele>
        <time>2013-06-22T12:36:11Z</time>
      </trkpt>
      <trkpt lat="42.642417" lon="-2.364850">
        <ele>1201.0</ele>
        <time>2013-06-22T12:36:12Z</time>
      </trkpt>
      <trkpt lat="42.642417" lon="-2.364733">
        <ele>1199.0</ele>
        <time>2013-06-22T12:36:13Z</time>
      </trkpt>
      <trkpt lat="42.642417" lon="-2.364617">
        <ele>1198.0</ele>
        <time>2013-06-22T12:36:14Z</time>
      </trkpt>
      <trkpt lat="42.642400" lon="-2.364500">
        <ele>1196.0</ele>
        <time>2013-06-22T12:36:15Z</time>
      </trkpt>
      <trkpt lat="42.642400" lon="-2.364383">
        <ele>1195.0</ele>
        <time>2013-06-22T12:36:16Z</time>
      </trkpt>
      <trkpt lat="42.642383" lon="-2.364250">
        <ele>1193.0</ele>
        <time>2013-06-22T12:36:17Z</time>
      </trkpt>
      <trkpt lat="42.642367" lon="-2.364133">
        <ele>1191.0</ele>
        <time>2013-06-22T12:36:18Z</time>
      </trkpt>
      <trkpt lat="42.642367" lon="-2.364017">
        <ele>1191.0</ele>
        <time>2013-06-22T12:36:19Z</time>
      </trkpt>
      <trkpt lat="42.642350" lon="-2.363883">
        <ele>1191.0</ele>
        <time>2013-06-22T12:36:20Z</time>
      </trkpt>
      <trkpt lat="42.642333" lon="-2.363767">
        <ele>1191.0</ele>
        <time>2013-06-22T12:36:21Z</time>
      </trkpt>
      <trkpt lat="42.642333" lon="-2.363633">
        <ele>1191.0</ele>
        <time>2013-06-22T12:36:22Z</time>
      </trkpt>
      <trkpt lat="42.642333" lon="-2.363517">
        <ele>1192.0</ele>
        <time>2013-06-22T12:36:23Z</time>
      </trkpt>
      <trkpt lat="42.642333" lon="-2.363433">
        <ele>1194.0</ele>
        <time>2013-06-22T12:36:24Z</time>
      </trkpt>
      <trkpt lat="42.642350" lon="-2.363350">
        <ele>1196.0</ele>
        <time>2013-06-22T12:36:25Z</time>
      </trkpt>
      <trkpt lat="42.642367" lon="-2.363250">
        <ele>1197.0</ele>
        <time>2013-06-22T12:36:26Z</time>
      </trkpt>
      <trkpt lat="42.642367" lon="-2.363167">
        <ele>1197.0</ele>
        <time>2013-06-22T12:36:27Z</time>
      </trkpt>
      <trkpt lat="42.642400" lon="-2.363083">
        <ele>1197.0</ele>
        <time>2013-06-22T12:36:28Z</time>
      </trkpt>
      <trkpt lat="42.642433" lon="-2.363017">
        <ele>1197.0</ele>
        <time>2013-06-22T12:36:29Z</time>
      </trkpt>
      <trkpt lat="42.642467" lon="-2.362950">
        <ele>1198.0</ele>
        <time>2013-06-22T12:36:30Z</time>
      </trkpt>
      <trkpt lat="42.642483" lon="-2.362867">
        <ele>1199.0</ele>
        <time>2013-06-22T12:36:31Z</time>
      </trkpt>
      <trkpt lat="42.642517" lon="-2.362800">
        <ele>1200.0</ele>
        <time>2013-06-22T12:36:32Z</time>
      </trkpt>
      <trkpt lat="42.642533" lon="-2.362750">
        <ele>1201.0</ele>
        <time>2013-06-22T12:36:33Z</time>
      </trkpt>
      <trkpt lat="42.642550" lon="-2.362683">
        <ele>1203.0</ele>
        <time>2013-06-22T12:36:34Z</time>
      </trkpt>
      <trkpt lat="42.642567" lon="-2.362633">
        <ele>1204.0</ele>
        <time>2013-06-22T12:36:35Z</time>
      </trkpt>
      <trkpt lat="42.642600" lon="-2.362567">
        <ele>1203.0</ele>
        <time>2013-06-22T12:36:36Z</time>
      </trkpt>
      <trkpt lat="42.642633" lon="-2.362500">
        <ele>1203.0</ele>
        <time>2013-06-22T12:36:37Z</time>
      </trkpt>
      <trkpt lat="42.642667" lon="-2.362417">
        <ele>1204.0</ele>
        <time>2013-06-22T12:36:38Z</time>
      </trkpt>
      <trkpt lat="42.642700" lon="-2.362350">
        <ele>1205.0</ele>
        <time>2013-06-22T12:36:39Z</time>
      </trkpt>
      <trkpt lat="42.642733" lon="-2.362300">
        <ele>1207.0</ele>
        <time>2013-06-22T12:36:40Z</time>
      </trkpt>
      <trkpt lat="42.642750" lon="-2.362250">
        <ele>1209.0</ele>
        <time>2013-06-22T12:36:41Z</time>
      </trkpt>
      <trkpt lat="42.642750" lon="-2.362183">
        <ele>1211.0</ele>
        <time>2013-06-22T12:36:42Z</time>
      </trkpt>
      <trkpt lat="42.642767" lon="-2.362083">
        <ele>1212.0</ele>
        <time>2013-06-22T12:36:43Z</time>
      </trkpt>
      <trkpt lat="42.642750" lon="-2.361950">
        <ele>1212.0</ele>
        <time>2013-06-22T12:36:44Z</time>
      </trkpt>
      <trkpt lat="42.642700" lon="-2.361817">
        <ele>1213.0</ele>
        <time>2013-06-22T12:36:45Z</time>
      </trkpt>
      <trkpt lat="42.642633" lon="-2.361700">
        <ele>1214.0</ele>
        <time>2013-06-22T12:36:46Z</time>
      </trkpt>
      <trkpt lat="42.642517" lon="-2.361600">
        <ele>1216.0</ele>
        <time>2013-06-22T12:36:47Z</time>
      </trkpt>
      <trkpt lat="42.642417" lon="-2.361550">
        <ele>1218.0</ele>
        <time>2013-06-22T12:36:48Z</time>
      </trkpt>
      <trkpt lat="42.642317" lon="-2.361517">
        <ele>1221.0</ele>
        <time>2013-06-22T12:36:49Z</time>
      </trkpt>
      <trkpt lat="42.642200" lon="-2.361500">
        <ele>1223.0</ele>
        <time>2013-06-22T12:36:50Z</time>
      </trkpt>
      <trkpt lat="42.642083" lon="-2.361517">
        <ele>1223.0</ele>
        <time>2013-06-22T12:36:51Z</time>
      </trkpt>
      <trkpt lat="42.641983" lon="-2.361567">
        <ele>1223.0</ele>
        <time>2013-06-22T12:36:52Z</time>
      </trkpt>
      <trkpt lat="42.641883" lon="-2.361667">
        <ele>1222.0</ele>
        <time>2013-06-22T12:36:53Z</time>
      </trkpt>
      <trkpt lat="42.641800" lon="-2.361767">
        <ele>1223.0</ele>
        <time>2013-06-22T12:36:54Z</time>
      </trkpt>
      <trkpt lat="42.641750" lon="-2.361867">
        <ele>1224.0</ele>
        <time>2013-06-22T12:36:55Z</time>
      </trkpt>
      <trkpt lat="42.641717" lon="-2.361967">
        <ele>1226.0</ele>
        <time>2013-06-22T12:36:56Z</time>
      </trkpt>
      <trkpt lat="42.641717" lon="-2.362050">
        <ele>1228.0</ele>
        <time>2013-06-22T12:36:57Z</time>
      </trkpt>
      <trkpt lat="42.641717" lon="-2.362117">
        <ele>1230.0</ele>
        <time>2013-06-22T12:36:58Z</time>
      </trkpt>
      <trkpt lat="42.641717" lon="-2.362183">
        <ele>1232.0</ele>
        <time>2013-06-22T12:36:59Z</time>
      </trkpt>
      <trkpt lat="42.641733" lon="-2.362250">
        <ele>1234.0</ele>
        <time>2013-06-22T12:37:00Z</time>
      </trkpt>
      <trkpt lat="42.641750" lon="-2.362283">
        <ele>1236.0</ele>
        <time>2013-06-22T12:37:01Z</time>
      </trkpt>
      <trkpt lat="42.641783" lon="-2.362317">
        <ele>1239.0</ele>
        <time>2013-06-22T12:37:02Z</time>
      </trkpt>
      <trkpt lat="42.641817" lon="-2.362333">
        <ele>1241.0</ele>
        <time>2013-06-22T12:37:03Z</time>
      </trkpt>
      <trkpt lat="42.641850" lon="-2.362350">
        <ele>1243.0</ele>
        <time>2013-06-22T12:37:04Z</time>
      </trkpt>
      <trkpt lat="42.641900" lon="-2.362350">
        <ele>1245.0</ele>
        <time>2013-06-22T12:37:05Z</time>
      </trkpt>
      <trkpt lat="42.641933" lon="-2.362317">
        <ele>1246.0</ele>
        <time>2013-06-22T12:37:06Z</time>
      </trkpt>
      <trkpt lat="42.641967" lon="-2.362283">
        <ele>1249.0</ele>
        <time>2013-06-22T12:37:07Z</time>
      </trkpt>
      <trkpt lat="42.641983" lon="-2.362233">
        <ele>1251.0</ele>
        <time>2013-06-22T12:37:08Z</time>
      </trkpt>
      <trkpt lat="42.641983" lon="-2.362150">
        <ele>1254.0</ele>
        <time>2013-06-22T12:37:09Z</time>
      </trkpt>
      <trkpt lat="42.641983" lon="-2.362050">
        <ele>1256.0</ele>
        <time>2013-06-22T12:37:10Z</time>
      </trkpt>
      <trkpt lat="42.641933" lon="-2.361950">
        <ele>1258.0</ele>
        <time>2013-06-22T12:37:11Z</time>
      </trkpt>
      <trkpt lat="42.641867" lon="-2.361833">
        <ele>1260.0</ele>
        <time>2013-06-22T12:37:12Z</time>
      </trkpt>
      <trkpt lat="42.641767" lon="-2.361733">
        <ele>1261.0</ele>
        <time>2013-06-22T12:37:13Z</time>
      </trkpt>
      <trkpt lat="42.641650" lon="-2.361667">
        <ele>1263.0</ele>
        <time>2013-06-22T12:37:14Z</time>
      </trkpt>
      <trkpt lat="42.641533" lon="-2.361650">
        <ele>1265.0</ele>
        <time>2013-06-22T12:37:15Z</time>
      </trkpt>
      <trkpt lat="42.641417" lon="-2.361650">
        <ele>1267.0</ele>
        <time>2013-06-22T12:37:16Z</time>
      </trkpt>
      <trkpt lat="42.641300" lon="-2.361633">
        <ele>1269.0</ele>
        <time>2013-06-22T12:37:17Z</time>
      </trkpt>
      <trkpt lat="42.641183" lon="-2.361633">
        <ele>1271.0</ele>
        <time>2013-06-22T12:37:18Z</time>
      </trkpt>
      <trkpt lat="42.641067" lon="-2.361650">
        <ele>1273.0</ele>
        <time>2013-06-22T12:37:19Z</time>
      </trkpt>
      <trkpt lat="42.640967" lon="-2.361700">
        <ele>1275.0</ele>
        <time>2013-06-22T12:37:20Z</time>
      </trkpt>
      <trkpt lat="42.640883" lon="-2.361783">
        <ele>1276.0</ele>
        <time>2013-06-22T12:37:21Z</time>
      </trkpt>
      <trkpt lat="42.640833" lon="-2.361883">
        <ele>1276.0</ele>
        <time>2013-06-22T12:37:22Z</time>
      </trkpt>
      <trkpt lat="42.640783" lon="-2.362000">
        <ele>1277.0</ele>
        <time>2013-06-22T12:37:23Z</time>
      </trkpt>
      <trkpt lat="42.640750" lon="-2.362083">
        <ele>1280.0</ele>
        <time>2013-06-22T12:37:24Z</time>
      </trkpt>
      <trkpt lat="42.640733" lon="-2.362167">
        <ele>1282.0</ele>
        <time>2013-06-22T12:37:25Z</time>
      </trkpt>
      <trkpt lat="42.640733" lon="-2.362233">
        <ele>1285.0</ele>
        <time>2013-06-22T12:37:26Z</time>
      </trkpt>
      <trkpt lat="42.640733" lon="-2.362317">
        <ele>1286.0</ele>
        <time>2013-06-22T12:37:27Z</time>
      </trkpt>
      <trkpt lat="42.640733" lon="-2.362383">
        <ele>1288.0</ele>
        <time>2013-06-22T12:37:28Z</time>
      </trkpt>
      <trkpt lat="42.640750" lon="-2.362450">
        <ele>1290.0</ele>
        <time>2013-06-22T12:37:29Z</time>
      </trkpt>
      <trkpt lat="42.640783" lon="-2.362500">
        <ele>1292.0</ele>
        <time>2013-06-22T12:37:30Z</time>
      </trkpt>
      <trkpt lat="42.640800" lon="-2.362517">
        <ele>1294.0</ele>
        <time>2013-06-22T12:37:31Z</time>
      </trkpt>
      <trkpt lat="42.640833" lon="-2.362517">
        <ele>1295.0</ele>
        <time>2013-06-22T12:37:32Z</time>
      </trkpt>
      <trkpt lat="42.640883" lon="-2.362500">
        <ele>1296.0</ele>
        <time>2013-06-22T12:37:33Z</time>
      </trkpt>
      <trkpt lat="42.640917" lon="-2.362467">
        <ele>1298.0</ele>
        <time>2013-06-22T12:37:34Z</time>
      </trkpt>
      <trkpt lat="42.640933" lon="-2.362400">
        <ele>1301.0</ele>
        <time>2013-06-22T12:37:35Z</time>
      </trkpt>
      <trkpt lat="42.640950" lon="-2.362333">
        <ele>1304.0</ele>
        <time>2013-06-22T12:37:36Z</time>
      </trkpt>
      <trkpt lat="42.640950" lon="-2.362233">
        <ele>1306.0</ele>
        <time>2013-06-22T12:37:37Z</time>
      </trkpt>
      <trkpt lat="42.640967" lon="-2.362150">
        <ele>1308.0</ele>
        <time>2013-06-22T12:37:38Z</time>
      </trkpt>
      <trkpt lat="42.640983" lon="-2.362050">
        <ele>1310.0</ele>
        <time>2013-06-22T12:37:39Z</time>
      </trkpt>
      <trkpt lat="42.641000" lon="-2.361950">
        <ele>1311.0</ele>
        <time>2013-06-22T12:37:40Z</time>
      </trkpt>
      <trkpt lat="42.641017" lon="-2.361850">
        <ele>1314.0</ele>
        <time>2013-06-22T12:37:41Z</time>
      </trkpt>
      <trkpt lat="42.641033" lon="-2.361750">
        <ele>1316.0</ele>
        <time>2013-06-22T12:37:42Z</time>
      </trkpt>
      <trkpt lat="42.641033" lon="-2.361683">
        <ele>1319.0</ele>
        <time>2013-06-22T12:37:43Z</time>
      </trkpt>
      <trkpt lat="42.641050" lon="-2.361617">
        <ele>1322.0</ele>
        <time>2013-06-22T12:37:44Z</time>
      </trkpt>
      <trkpt lat="42.641050" lon="-2.361533">
        <ele>1323.0</ele>
        <time>2013-06-22T12:37:45Z</time>
      </trkpt>
      <trkpt lat="42.641067" lon="-2.361450">
        <ele>1322.0</ele>
        <time>2013-06-22T12:37:46Z</time>
      </trkpt>
      <trkpt lat="42.641100" lon="-2.361383">
        <ele>1323.0</ele>
        <time>2013-06-22T12:37:47Z</time>
      </trkpt>
      <trkpt lat="42.641133" lon="-2.361317">
        <ele>1324.0</ele>
        <time>2013-06-22T12:37:48Z</time>
      </trkpt>
      <trkpt lat="42.641183" lon="-2.361267">
        <ele>1326.0</ele>
        <time>2013-06-22T12:37:49Z</time>
      </trkpt>
      <trkpt lat="42.641217" lon="-2.361267">
        <ele>1328.0</ele>
        <time>2013-06-22T12:37:50Z</time>
      </trkpt>
      <trkpt lat="42.641233" lon="-2.361283">
        <ele>1330.0</ele>
        <time>2013-06-22T12:37:51Z</time>
      </trkpt>
      <trkpt lat="42.641267" lon="-2.361317">
        <ele>1331.0</ele>
        <time>2013-06-22T12:37:52Z</time>
      </trkpt>
      <trkpt lat="42.641300" lon="-2.361333">
        <ele>1332.0</ele>
        <time>2013-06-22T12:37:53Z</time>
      </trkpt>
      <trkpt lat="42.641317" lon="-2.361383">
        <ele>1332.0</ele>
        <time>2013-06-22T12:37:54Z</time>
      </trkpt>
      <trkpt lat="42.641333" lon="-2.361450">
        <ele>1334.0</ele>
        <time>2013-06-22T12:37:55Z</time>
      </trkpt>
      <trkpt lat="42.641317" lon="-2.361550">
        <ele>1335.0</ele>
        <time>2013-06-22T12:37:56Z</time>
      </trkpt>
      <trkpt lat="42.641283" lon="-2.361667">
        <ele>1336.0</ele>
        <time>2013-06-22T12:37:57Z</time>
      </trkpt>
      <trkpt lat="42.641250" lon="-2.361783">
        <ele>1337.0</ele>
        <time>2013-06-22T12:37:58Z</time>
      </trkpt>
      <trkpt lat="42.641217" lon="-2.361883">
        <ele>1338.0</ele>
        <time>2013-06-22T12:37:59Z</time>
      </trkpt>
      <trkpt lat="42.641200" lon="-2.361967">
        <ele>1339.0</ele>
        <time>2013-06-22T12:38:00Z</time>
      </trkpt>
      <trkpt lat="42.641217" lon="-2.362050">
        <ele>1340.0</ele>
        <time>2013-06-22T12:38:01Z</time>
      </trkpt>
      <trkpt lat="42.641233" lon="-2.362117">
        <ele>1340.0</ele>
        <time>2013-06-22T12:38:02Z</time>
      </trkpt>
      <trkpt lat="42.641267" lon="-2.362150">
        <ele>1341.0</ele>
        <time>2013-06-22T12:38:03Z</time>
      </trkpt>
      <trkpt lat="42.641300" lon="-2.362150">
        <ele>1342.0</ele>
        <time>2013-06-22T12:38:04Z</time>
      </trkpt>
      <trkpt lat="42.641317" lon="-2.362150">
        <ele>1342.0</ele>
        <time>2013-06-22T12:38:05Z</time>
      </trkpt>
      <trkpt lat="42.641333" lon="-2.362100">
        <ele>1341.0</ele>
        <time>2013-06-22T12:38:06Z</time>
      </trkpt>
      <trkpt lat="42.641350" lon="-2.362050">
        <ele>1341.0</ele>
        <time>2013-06-22T12:38:07Z</time>
      </trkpt>
      <trkpt lat="42.641350" lon="-2.361983">
        <ele>1340.0</ele>
        <time>2013-06-22T12:38:08Z</time>
      </trkpt>
      <trkpt lat="42.641333" lon="-2.361900">
        <ele>1339.0</ele>
        <time>2013-06-22T12:38:09Z</time>
      </trkpt>
      <trkpt lat="42.641317" lon="-2.361800">
        <ele>1338.0</ele>
        <time>2013-06-22T12:38:10Z</time>
      </trkpt>
      <trkpt lat="42.641283" lon="-2.361700">
        <ele>1337.0</ele>
        <time>2013-06-22T12:38:11Z</time>
      </trkpt>
      <trkpt lat="42.641217" lon="-2.361600">
        <ele>1336.0</ele>
        <time>2013-06-22T12:38:12Z</time>
      </trkpt>
      <trkpt lat="42.641167" lon="-2.361500">
        <ele>1336.0</ele>
        <time>2013-06-22T12:38:13Z</time>
      </trkpt>
      <trkpt lat="42.641133" lon="-2.361400">
        <ele>1335.0</ele>
        <time>2013-06-22T12:38:14Z</time>
      </trkpt>
      <trkpt lat="42.641100" lon="-2.361283">
        <ele>1334.0</ele>
        <time>2013-06-22T12:38:15Z</time>
      </trkpt>
      <trkpt lat="42.641067" lon="-2.361183">
        <ele>1333.0</ele>
        <time>2013-06-22T12:38:16Z</time>
      </trkpt>
      <trkpt lat="42.641050" lon="-2.361083">
        <ele>1332.0</ele>
        <time>2013-06-22T12:38:17Z</time>
      </trkpt>
      <trkpt lat="42.641033" lon="-2.361000">
        <ele>1331.0</ele>
        <time>2013-06-22T12:38:18Z</time>
      </trkpt>
      <trkpt lat="42.641017" lon="-2.360900">
        <ele>1331.0</ele>
        <time>2013-06-22T12:38:19Z</time>
      </trkpt>
      <trkpt lat="42.641000" lon="-2.360817">
        <ele>1330.0</ele>
        <time>2013-06-22T12:38:20Z</time>
      </trkpt>
      <trkpt lat="42.640983" lon="-2.360733">
        <ele>1329.0</ele>
        <time>2013-06-22T12:38:21Z</time>
      </trkpt>
      <trkpt lat="42.640983" lon="-2.360650">
        <ele>1328.0</ele>
        <time>2013-06-22T12:38:22Z</time>
      </trkpt>
      <trkpt lat="42.641000" lon="-2.360567">
        <ele>1326.0</ele>
        <time>2013-06-22T12:38:23Z</time>
      </trkpt>
      <trkpt lat="42.641000" lon="-2.360483">
        <ele>1325.0</ele>
        <time>2013-06-22T12:38:24Z</time>
      </trkpt>
      <trkpt lat="42.641000" lon="-2.360400">
        <ele>1324.0</ele>
        <time>2013-06-22T12:38:25Z</time>
      </trkpt>
      <trkpt lat="42.641017" lon="-2.360333">
        <ele>1323.0</ele>
        <time>2013-06-22T12:38:26Z</time>
      </trkpt>
      <trkpt lat="42.641033" lon="-2.360267">
        <ele>1321.0</ele>
        <time>2013-06-22T12:38:27Z</time>
      </trkpt>
      <trkpt lat="42.641033" lon="-2.360183">
        <ele>1319.0</ele>
        <time>2013-06-22T12:38:28Z</time>
      </trkpt>
      <trkpt lat="42.641050" lon="-2.360100">
        <ele>1318.0</ele>
        <time>2013-06-22T12:38:29Z</time>
      </trkpt>
      <trkpt lat="42.641067" lon="-2.360000">
        <ele>1316.0</ele>
        <time>2013-06-22T12:38:30Z</time>
      </trkpt>
      <trkpt lat="42.641067" lon="-2.359917">
        <ele>1314.0</ele>
        <time>2013-06-22T12:38:31Z</time>
      </trkpt>
      <trkpt lat="42.641083" lon="-2.359833">
        <ele>1313.0</ele>
        <time>2013-06-22T12:38:32Z</time>
      </trkpt>
      <trkpt lat="42.641083" lon="-2.359733">
        <ele>1311.0</ele>
        <time>2013-06-22T12:38:33Z</time>
      </trkpt>
      <trkpt lat="42.641083" lon="-2.359650">
        <ele>1309.0</ele>
        <time>2013-06-22T12:38:34Z</time>
      </trkpt>
      <trkpt lat="42.641100" lon="-2.359550">
        <ele>1308.0</ele>
        <time>2013-06-22T12:38:35Z</time>
      </trkpt>
      <trkpt lat="42.641100" lon="-2.359467">
        <ele>1306.0</ele>
        <time>2013-06-22T12:38:36Z</time>
      </trkpt>
      <trkpt lat="42.641117" lon="-2.359383">
        <ele>1305.0</ele>
        <time>2013-06-22T12:38:37Z</time>
      </trkpt>
      <trkpt lat="42.641133" lon="-2.359317">
        <ele>1304.0</ele>
        <time>2013-06-22T12:38:38Z</time>
      </trkpt>
      <trkpt lat="42.641167" lon="-2.359300">
        <ele>1303.0</ele>
        <time>2013-06-22T12:38:39Z</time>
      </trkpt>
      <trkpt lat="42.641200" lon="-2.359300">
        <ele>1302.0</ele>
        <time>2013-06-22T12:38:40Z</time>
      </trkpt>
      <trkpt lat="42.641233" lon="-2.359350">
        <ele>1300.0</ele>
        <time>2013-06-22T12:38:41Z</time>
      </trkpt>
      <trkpt lat="42.641250" lon="-2.359417">
        <ele>1298.0</ele>
        <time>2013-06-22T12:38:42Z</time>
      </trkpt>
      <trkpt lat="42.641250" lon="-2.359500">
        <ele>1298.0</ele>
        <time>2013-06-22T12:38:43Z</time>
      </trkpt>
      <trkpt lat="42.641233" lon="-2.359583">
        <ele>1297.0</ele>
        <time>2013-06-22T12:38:44Z</time>
      </trkpt>
      <trkpt lat="42.641217" lon="-2.359667">
        <ele>1297.0</ele>
        <time>2013-06-22T12:38:45Z</time>
      </trkpt>
      <trkpt lat="42.641183" lon="-2.359750">
        <ele>1297.0</ele>
        <time>2013-06-22T12:38:46Z</time>
      </trkpt>
      <trkpt lat="42.641150" lon="-2.359833">
        <ele>1296.0</ele>
        <time>2013-06-22T12:38:47Z</time>
      </trkpt>
      <trkpt lat="42.641117" lon="-2.359933">
        <ele>1295.0</ele>
        <time>2013-06-22T12:38:48Z</time>
      </trkpt>
      <trkpt lat="42.641083" lon="-2.360033">
        <ele>1294.0</ele>
        <time>2013-06-22T12:38:49Z</time>
      </trkpt>
      <trkpt lat="42.641033" lon="-2.360133">
        <ele>1294.0</ele>
        <time>2013-06-22T12:38:50Z</time>
      </trkpt>
      <trkpt lat="42.641000" lon="-2.360233">
        <ele>1293.0</ele>
        <time>2013-06-22T12:38:51Z</time>
      </trkpt>
      <trkpt lat="42.640950" lon="-2.360333">
        <ele>1294.0</ele>
        <time>2013-06-22T12:38:52Z</time>
      </trkpt>
      <trkpt lat="42.640917" lon="-2.360433">
        <ele>1294.0</ele>
        <time>2013-06-22T12:38:53Z</time>
      </trkpt>
      <trkpt lat="42.640867" lon="-2.360533">
        <ele>1294.0</ele>
        <time>2013-06-22T12:38:54Z</time>
      </trkpt>
      <trkpt lat="42.640833" lon="-2.360633">
        <ele>1293.0</ele>
        <time>2013-06-22T12:38:55Z</time>
      </trkpt>
      <trkpt lat="42.640783" lon="-2.360750">
        <ele>1292.0</ele>
        <time>2013-06-22T12:38:56Z</time>
      </trkpt>
      <trkpt lat="42.640750" lon="-2.360850">
        <ele>1291.0</ele>
        <time>2013-06-22T12:38:57Z</time>
      </trkpt>
      <trkpt lat="42.640717" lon="-2.360967">
        <ele>1291.0</ele>
        <time>2013-06-22T12:38:58Z</time>
      </trkpt>
      <trkpt lat="42.640683" lon="-2.361067">
        <ele>1290.0</ele>
        <time>2013-06-22T12:38:59Z</time>
      </trkpt>
      <trkpt lat="42.640650" lon="-2.361167">
        <ele>1290.0</ele>
        <time>2013-06-22T12:39:00Z</time>
      </trkpt>
      <trkpt lat="42.640633" lon="-2.361250">
        <ele>1290.0</ele>
        <time>2013-06-22T12:39:01Z</time>
      </trkpt>
      <trkpt lat="42.640617" lon="-2.361350">
        <ele>1290.0</ele>
        <time>2013-06-22T12:39:02Z</time>
      </trkpt>
      <trkpt lat="42.640600" lon="-2.361433">
        <ele>1290.0</ele>
        <time>2013-06-22T12:39:03Z</time>
      </trkpt>
      <trkpt lat="42.640600" lon="-2.361517">
        <ele>1289.0</ele>
        <time>2013-06-22T12:39:04Z</time>
      </trkpt>
      <trkpt lat="42.640617" lon="-2.361617">
        <ele>1288.0</ele>
        <time>2013-06-22T12:39:05Z</time>
      </trkpt>
      <trkpt lat="42.640617" lon="-2.361700">
        <ele>1287.0</ele>
        <time>2013-06-22T12:39:06Z</time>
      </trkpt>
      <trkpt lat="42.640617" lon="-2.361800">
        <ele>1287.0</ele>
        <time>2013-06-22T12:39:07Z</time>
      </trkpt>
      <trkpt lat="42.640617" lon="-2.361883">
        <ele>1287.0</ele>
        <time>2013-06-22T12:39:08Z</time>
      </trkpt>
      <trkpt lat="42.640600" lon="-2.361967">
        <ele>1287.0</ele>
        <time>2013-06-22T12:39:09Z</time>
      </trkpt>
      <trkpt lat="42.640600" lon="-2.362050">
        <ele>1286.0</ele>
        <time>2013-06-22T12:39:10Z</time>
      </trkpt>
      <trkpt lat="42.640600" lon="-2.362150">
        <ele>1284.0</ele>
        <time>2013-06-22T12:39:11Z</time>
      </trkpt>
      <trkpt lat="42.640600" lon="-2.362233">
        <ele>1283.0</ele>
        <time>2013-06-22T12:39:12Z</time>
      </trkpt>
      <trkpt lat="42.640600" lon="-2.362333">
        <ele>1283.0</ele>
        <time>2013-06-22T12:39:13Z</time>
      </trkpt>
      <trkpt lat="42.640583" lon="-2.362417">
        <ele>1284.0</ele>
        <time>2013-06-22T12:39:14Z</time>
      </trkpt>
      <trkpt lat="42.640583" lon="-2.362483">
        <ele>1284.0</ele>
        <time>2013-06-22T12:39:15Z</time>
      </trkpt>
      <trkpt lat="42.640567" lon="-2.362567">
        <ele>1284.0</ele>
        <time>2013-06-22T12:39:16Z</time>
      </trkpt>
      <trkpt lat="42.640550" lon="-2.362667">
        <ele>1283.0</ele>
        <time>2013-06-22T12:39:17Z</time>
      </trkpt>
      <trkpt lat="42.640550" lon="-2.362750">
        <ele>1282.0</ele>
        <time>2013-06-22T12:39:18Z</time>
      </trkpt>
      <trkpt lat="42.640550" lon="-2.362850">
        <ele>1282.0</ele>
        <time>2013-06-22T12:39:19Z</time>
      </trkpt>
      <trkpt lat="42.640533" lon="-2.362933">
        <ele>1281.0</ele>
        <time>2013-06-22T12:39:20Z</time>
      </trkpt>
      <trkpt lat="42.640533" lon="-2.363017">
        <ele>1281.0</ele>
        <time>2013-06-22T12:39:21Z</time>
      </trkpt>
      <trkpt lat="42.640517" lon="-2.363083">
        <ele>1281.0</ele>
        <time>2013-06-22T12:39:22Z</time>
      </trkpt>
      <trkpt lat="42.640517" lon="-2.363167">
        <ele>1281.0</ele>
        <time>2013-06-22T12:39:23Z</time>
      </trkpt>
      <trkpt lat="42.640500" lon="-2.363233">
        <ele>1280.0</ele>
        <time>2013-06-22T12:39:24Z</time>
      </trkpt>
      <trkpt lat="42.640500" lon="-2.363317">
        <ele>1279.0</ele>
        <time>2013-06-22T12:39:25Z</time>
      </trkpt>
      <trkpt lat="42.640483" lon="-2.363400">
        <ele>1278.0</ele>
        <time>2013-06-22T12:39:26Z</time>
      </trkpt>
      <trkpt lat="42.640483" lon="-2.363483">
        <ele>1278.0</ele>
        <time>2013-06-22T12:39:27Z</time>
      </trkpt>
      <trkpt lat="42.640483" lon="-2.363550">
        <ele>1278.0</ele>
        <time>2013-06-22T12:39:28Z</time>
      </trkpt>
      <trkpt lat="42.640467" lon="-2.363633">
        <ele>1277.0</ele>
        <time>2013-06-22T12:39:29Z</time>
      </trkpt>
      <trkpt lat="42.640467" lon="-2.363717">
        <ele>1276.0</ele>
        <time>2013-06-22T12:39:30Z</time>
      </trkpt>
      <trkpt lat="42.640467" lon="-2.363817">
        <ele>1275.0</ele>
        <time>2013-06-22T12:39:31Z</time>
      </trkpt>
      <trkpt lat="42.640450" lon="-2.363900">
        <ele>1274.0</ele>
        <time>2013-06-22T12:39:32Z</time>
      </trkpt>
      <trkpt lat="42.640433" lon="-2.363983">
        <ele>1274.0</ele>
        <time>2013-06-22T12:39:33Z</time>
      </trkpt>
      <trkpt lat="42.640433" lon="-2.364067">
        <ele>1273.0</ele>
        <time>2013-06-22T12:39:34Z</time>
      </trkpt>
      <trkpt lat="42.640433" lon="-2.364150">
        <ele>1272.0</ele>
        <time>2013-06-22T12:39:35Z</time>
      </trkpt>
      <trkpt lat="42.640433" lon="-2.364250">
        <ele>1271.0</ele>
        <time>2013-06-22T12:39:36Z</time>
      </trkpt>
      <trkpt lat="42.640433" lon="-2.364333">
        <ele>1271.0</ele>
        <time>2013-06-22T12:39:37Z</time>
      </trkpt>
      <trkpt lat="42.640417" lon="-2.364417">
        <ele>1271.0</ele>
        <time>2013-06-22T12:39:38Z</time>
      </trkpt>
      <trkpt lat="42.640417" lon="-2.364500">
        <ele>1272.0</ele>
        <time>2013-06-22T12:39:39Z</time>
      </trkpt>
      <trkpt lat="42.640400" lon="-2.364567">
        <ele>1272.0</ele>
        <time>2013-06-22T12:39:40Z</time>
      </trkpt>
      <trkpt lat="42.640400" lon="-2.364633">
        <ele>1271.0</ele>
        <time>2013-06-22T12:39:41Z</time>
      </trkpt>
      <trkpt lat="42.640417" lon="-2.364717">
        <ele>1270.0</ele>
        <time>2013-06-22T12:39:42Z</time>
      </trkpt>
      <trkpt lat="42.640433" lon="-2.364800">
        <ele>1269.0</ele>
        <time>2013-06-22T12:39:43Z</time>
      </trkpt>
      <trkpt lat="42.640433" lon="-2.364883">
        <ele>1268.0</ele>
        <time>2013-06-22T12:39:44Z</time>
      </trkpt>
      <trkpt lat="42.640433" lon="-2.364967">
        <ele>1268.0</ele>
        <time>2013-06-22T12:39:45Z</time>
      </trkpt>
      <trkpt lat="42.640450" lon="-2.365033">
        <ele>1268.0</ele>
        <time>2013-06-22T12:39:46Z</time>
      </trkpt>
      <trkpt lat="42.640450" lon="-2.365100">
        <ele>1268.0</ele>
        <time>2013-06-22T12:39:47Z</time>
      </trkpt>
      <trkpt lat="42.640467" lon="-2.365167">
        <ele>1266.0</ele>
        <time>2013-06-22T12:39:48Z</time>
      </trkpt>
      <trkpt lat="42.640483" lon="-2.365250">
        <ele>1265.0</ele>
        <time>2013-06-22T12:39:49Z</time>
      </trkpt>
      <trkpt lat="42.640500" lon="-2.365333">
        <ele>1265.0</ele>
        <time>2013-06-22T12:39:50Z</time>
      </trkpt>
      <trkpt lat="42.640517" lon="-2.365400">
        <ele>1265.0</ele>
        <time>2013-06-22T12:39:51Z</time>
      </trkpt>
      <trkpt lat="42.640517" lon="-2.365467">
        <ele>1265.0</ele>
        <time>2013-06-22T12:39:52Z</time>
      </trkpt>
      <trkpt lat="42.640517" lon="-2.365533">
        <ele>1265.0</ele>
        <time>2013-06-22T12:39:53Z</time>
      </trkpt>
      <trkpt lat="42.640533" lon="-2.365600">
        <ele>1263.0</ele>
        <time>2013-06-22T12:39:54Z</time>
      </trkpt>
      <trkpt lat="42.640550" lon="-2.365683">
        <ele>1262.0</ele>
        <time>2013-06-22T12:39:55Z</time>
      </trkpt>
      <trkpt lat="42.640567" lon="-2.365767">
        <ele>1261.0</ele>
        <time>2013-06-22T12:39:56Z</time>
      </trkpt>
      <trkpt lat="42.640583" lon="-2.365833">
        <ele>1260.0</ele>
        <time>2013-06-22T12:39:57Z</time>
      </trkpt>
      <trkpt lat="42.640600" lon="-2.365900">
        <ele>1260.0</ele>
        <time>2013-06-22T12:39:58Z</time>
      </trkpt>
      <trkpt lat="42.640600" lon="-2.365967">
        <ele>1260.0</ele>
        <time>2013-06-22T12:39:59Z</time>
      </trkpt>
      <trkpt lat="42.640617" lon="-2.366050">
        <ele>1259.0</ele>
        <time>2013-06-22T12:40:00Z</time>
      </trkpt>
      <trkpt lat="42.640633" lon="-2.366117">
        <ele>1257.0</ele>
        <time>2013-06-22T12:40:01Z</time>
      </trkpt>
      <trkpt lat="42.640650" lon="-2.366200">
        <ele>1256.0</ele>
        <time>2013-06-22T12:40:02Z</time>
      </trkpt>
      <trkpt lat="42.640650" lon="-2.366267">
        <ele>1255.0</ele>
        <time>2013-06-22T12:40:03Z</time>
      </trkpt>
      <trkpt lat="42.640667" lon="-2.366333">
        <ele>1254.0</ele>
        <time>2013-06-22T12:40:04Z</time>
      </trkpt>
      <trkpt lat="42.640667" lon="-2.366417">
        <ele>1254.0</ele>
        <time>2013-06-22T12:40:05Z</time>
      </trkpt>
      <trkpt lat="42.640683" lon="-2.366483">
        <ele>1253.0</ele>
        <time>2013-06-22T12:40:06Z</time>
      </trkpt>
      <trkpt lat="42.640683" lon="-2.366550">
        <ele>1252.0</ele>
        <time>2013-06-22T12:40:07Z</time>
      </trkpt>
      <trkpt lat="42.640700" lon="-2.366633">
        <ele>1251.0</ele>
        <time>2013-06-22T12:40:08Z</time>
      </trkpt>
      <trkpt lat="42.640717" lon="-2.366717">
        <ele>1250.0</ele>
        <time>2013-06-22T12:40:09Z</time>
      </trkpt>
      <trkpt lat="42.640717" lon="-2.366800">
        <ele>1249.0</ele>
        <time>2013-06-22T12:40:10Z</time>
      </trkpt>
      <trkpt lat="42.640733" lon="-2.366883">
        <ele>1248.0</ele>
        <time>2013-06-22T12:40:11Z</time>
      </trkpt>
      <trkpt lat="42.640733" lon="-2.366950">
        <ele>1247.0</ele>
        <time>2013-06-22T12:40:12Z</time>
      </trkpt>
      <trkpt lat="42.640750" lon="-2.367033">
        <ele>1247.0</ele>
        <time>2013-06-22T12:40:13Z</time>
      </trkpt>
      <trkpt lat="42.640750" lon="-2.367117">
        <ele>1247.0</ele>
        <time>2013-06-22T12:40:14Z</time>
      </trkpt>
      <trkpt lat="42.640750" lon="-2.367183">
        <ele>1246.0</ele>
        <time>2013-06-22T12:40:15Z</time>
      </trkpt>
      <trkpt lat="42.640750" lon="-2.367267">
        <ele>1246.0</ele>
        <time>2013-06-22T12:40:16Z</time>
      </trkpt>
      <trkpt lat="42.640733" lon="-2.367350">
        <ele>1245.0</ele>
        <time>2013-06-22T12:40:17Z</time>
      </trkpt>
      <trkpt lat="42.640733" lon="-2.367433">
        <ele>1244.0</ele>
        <time>2013-06-22T12:40:18Z</time>
      </trkpt>
      <trkpt lat="42.640733" lon="-2.367517">
        <ele>1243.0</ele>
        <time>2013-06-22T12:40:19Z</time>
      </trkpt>
      <trkpt lat="42.640717" lon="-2.367600">
        <ele>1243.0</ele>
        <time>2013-06-22T12:40:20Z</time>
      </trkpt>
      <trkpt lat="42.640700" lon="-2.367667">
        <ele>1243.0</ele>
        <time>2013-06-22T12:40:21Z</time>
      </trkpt>
      <trkpt lat="42.640683" lon="-2.367750">
        <ele>1243.0</ele>
        <time>2013-06-22T12:40:22Z</time>
      </trkpt>
      <trkpt lat="42.640667" lon="-2.367833">
        <ele>1242.0</ele>
        <time>2013-06-22T12:40:23Z</time>
      </trkpt>
      <trkpt lat="42.640667" lon="-2.367917">
        <ele>1240.0</ele>
        <time>2013-06-22T12:40:24Z</time>
      </trkpt>
      <trkpt lat="42.640667" lon="-2.368017">
        <ele>1239.0</ele>
        <time>2013-06-22T12:40:25Z</time>
      </trkpt>
      <trkpt lat="42.640667" lon="-2.368100">
        <ele>1240.0</ele>
        <time>2013-06-22T12:40:26Z</time>
      </trkpt>
      <trkpt lat="42.640667" lon="-2.368167">
        <ele>1241.0</ele>
        <time>2013-06-22T12:40:27Z</time>
      </trkpt>
      <trkpt lat="42.640667" lon="-2.368233">
        <ele>1244.0</ele>
        <time>2013-06-22T12:40:28Z</time>
      </trkpt>
      <trkpt lat="42.640650" lon="-2.368283">
        <ele>1246.0</ele>
        <time>2013-06-22T12:40:29Z</time>
      </trkpt>
      <trkpt lat="42.640650" lon="-2.368333">
        <ele>1248.0</ele>
        <time>2013-06-22T12:40:30Z</time>
      </trkpt>
      <trkpt lat="42.640650" lon="-2.368383">
        <ele>1250.0</ele>
        <time>2013-06-22T12:40:31Z</time>
      </trkpt>
      <trkpt lat="42.640650" lon="-2.368450">
        <ele>1251.0</ele>
        <time>2013-06-22T12:40:32Z</time>
      </trkpt>
      <trkpt lat="42.640650" lon="-2.368500">
        <ele>1251.0</ele>
        <time>2013-06-22T12:40:33Z</time>
      </trkpt>
      <trkpt lat="42.640650" lon="-2.368567">
        <ele>1252.0</ele>
        <time>2013-06-22T12:40:34Z</time>
      </trkpt>
      <trkpt lat="42.640650" lon="-2.368617">
        <ele>1252.0</ele>
        <time>2013-06-22T12:40:35Z</time>
      </trkpt>
      <trkpt lat="42.640650" lon="-2.368683">
        <ele>1251.0</ele>
        <time>2013-06-22T12:40:36Z</time>
      </trkpt>
      <trkpt lat="42.640650" lon="-2.368767">
        <ele>1250.0</ele>
        <time>2013-06-22T12:40:37Z</time>
      </trkpt>
      <trkpt lat="42.640650" lon="-2.368850">
        <ele>1249.0</ele>
        <time>2013-06-22T12:40:38Z</time>
      </trkpt>
      <trkpt lat="42.640650" lon="-2.368917">
        <ele>1249.0</ele>
        <time>2013-06-22T12:40:39Z</time>
      </trkpt>
      <trkpt lat="42.640650" lon="-2.368967">
        <ele>1249.0</ele>
        <time>2013-06-22T12:40:40Z</time>
      </trkpt>
      <trkpt lat="42.640650" lon="-2.369033">
        <ele>1249.0</ele>
        <time>2013-06-22T12:40:41Z</time>
      </trkpt>
      <trkpt lat="42.640650" lon="-2.369100">
        <ele>1249.0</ele>
        <time>2013-06-22T12:40:42Z</time>
      </trkpt>
      <trkpt lat="42.640650" lon="-2.369167">
        <ele>1248.0</ele>
        <time>2013-06-22T12:40:43Z</time>
      </trkpt>
      <trkpt lat="42.640650" lon="-2.369250">
        <ele>1248.0</ele>
        <time>2013-06-22T12:40:44Z</time>
      </trkpt>
      <trkpt lat="42.640667" lon="-2.369317">
        <ele>1248.0</ele>
        <time>2013-06-22T12:40:45Z</time>
      </trkpt>
      <trkpt lat="42.640667" lon="-2.369383">
        <ele>1247.0</ele>
        <time>2013-06-22T12:40:46Z</time>
      </trkpt>
      <trkpt lat="42.640683" lon="-2.369450">
        <ele>1247.0</ele>
        <time>2013-06-22T12:40:47Z</time>
      </trkpt>
      <trkpt lat="42.640683" lon="-2.369533">
        <ele>1246.0</ele>
        <time>2013-06-22T12:40:48Z</time>
      </trkpt>
      <trkpt lat="42.640683" lon="-2.369600">
        <ele>1246.0</ele>
        <time>2013-06-22T12:40:49Z</time>
      </trkpt>
      <trkpt lat="42.640683" lon="-2.369667">
        <ele>1245.0</ele>
        <time>2013-06-22T12:40:50Z</time>
      </trkpt>
      <trkpt lat="42.640700" lon="-2.369733">
        <ele>1245.0</ele>
        <time>2013-06-22T12:40:51Z</time>
      </trkpt>
      <trkpt lat="42.640717" lon="-2.369783">
        <ele>1244.0</ele>
        <time>2013-06-22T12:40:52Z</time>
      </trkpt>
      <trkpt lat="42.640733" lon="-2.369867">
        <ele>1244.0</ele>
        <time>2013-06-22T12:40:53Z</time>
      </trkpt>
      <trkpt lat="42.640733" lon="-2.369933">
        <ele>1243.0</ele>
        <time>2013-06-22T12:40:54Z</time>
      </trkpt>
      <trkpt lat="42.640733" lon="-2.370017">
        <ele>1243.0</ele>
        <time>2013-06-22T12:40:55Z</time>
      </trkpt>
      <trkpt lat="42.640750" lon="-2.370083">
        <ele>1242.0</ele>
        <time>2013-06-22T12:40:56Z</time>
      </trkpt>
      <trkpt lat="42.640750" lon="-2.370133">
        <ele>1242.0</ele>
        <time>2013-06-22T12:40:57Z</time>
      </trkpt>
      <trkpt lat="42.640767" lon="-2.370183">
        <ele>1242.0</ele>
        <time>2013-06-22T12:40:58Z</time>
      </trkpt>
      <trkpt lat="42.640783" lon="-2.370233">
        <ele>1241.0</ele>
        <time>2013-06-22T12:40:59Z</time>
      </trkpt>
      <trkpt lat="42.640800" lon="-2.370300">
        <ele>1240.0</ele>
        <time>2013-06-22T12:41:00Z</time>
      </trkpt>
      <trkpt lat="42.640800" lon="-2.370383">
        <ele>1238.0</ele>
        <time>2013-06-22T12:41:01Z</time>
      </trkpt>
      <trkpt lat="42.640817" lon="-2.370450">
        <ele>1237.0</ele>
        <time>2013-06-22T12:41:02Z</time>
      </trkpt>
      <trkpt lat="42.640833" lon="-2.370500">
        <ele>1236.0</ele>
        <time>2013-06-22T12:41:03Z</time>
      </trkpt>
      <trkpt lat="42.640833" lon="-2.370567">
        <ele>1236.0</ele>
        <time>2013-06-22T12:41:04Z</time>
      </trkpt>
      <trkpt lat="42.640850" lon="-2.370633">
        <ele>1235.0</ele>
        <time>2013-06-22T12:41:05Z</time>
      </trkpt>
      <trkpt lat="42.640850" lon="-2.370700">
        <ele>1235.0</ele>
        <time>2013-06-22T12:41:06Z</time>
      </trkpt>
      <trkpt lat="42.640850" lon="-2.370767">
        <ele>1234.0</ele>
        <time>2013-06-22T12:41:07Z</time>
      </trkpt>
      <trkpt lat="42.640850" lon="-2.370833">
        <ele>1234.0</ele>
        <time>2013-06-22T12:41:08Z</time>
      </trkpt>
      <trkpt lat="42.640850" lon="-2.370900">
        <ele>1233.0</ele>
        <time>2013-06-22T12:41:09Z</time>
      </trkpt>
      <trkpt lat="42.640867" lon="-2.370967">
        <ele>1233.0</ele>
        <time>2013-06-22T12:41:10Z</time>
      </trkpt>
      <trkpt lat="42.640883" lon="-2.371033">
        <ele>1232.0</ele>
        <time>2013-06-22T12:41:11Z</time>
      </trkpt>
      <trkpt lat="42.640883" lon="-2.371117">
        <ele>1231.0</ele>
        <time>2013-06-22T12:41:12Z</time>
      </trkpt>
      <trkpt lat="42.640900" lon="-2.371183">
        <ele>1231.0</ele>
        <time>2013-06-22T12:41:13Z</time>
      </trkpt>
      <trkpt lat="42.640900" lon="-2.371233">
        <ele>1230.0</ele>
        <time>2013-06-22T12:41:14Z</time>
      </trkpt>
      <trkpt lat="42.640917" lon="-2.371300">
        <ele>1231.0</ele>
        <time>2013-06-22T12:41:15Z</time>
      </trkpt>
      <trkpt lat="42.640917" lon="-2.371383">
        <ele>1232.0</ele>
        <time>2013-06-22T12:41:16Z</time>
      </trkpt>
      <trkpt lat="42.640917" lon="-2.371450">
        <ele>1233.0</ele>
        <time>2013-06-22T12:41:17Z</time>
      </trkpt>
      <trkpt lat="42.640917" lon="-2.371517">
        <ele>1233.0</ele>
        <time>2013-06-22T12:41:18Z</time>
      </trkpt>
      <trkpt lat="42.640917" lon="-2.371600">
        <ele>1233.0</ele>
        <time>2013-06-22T12:41:19Z</time>
      </trkpt>
      <trkpt lat="42.640917" lon="-2.371667">
        <ele>1233.0</ele>
        <time>2013-06-22T12:41:20Z</time>
      </trkpt>
      <trkpt lat="42.640917" lon="-2.371750">
        <ele>1232.0</ele>
        <time>2013-06-22T12:41:21Z</time>
      </trkpt>
      <trkpt lat="42.640917" lon="-2.371850">
        <ele>1232.0</ele>
        <time>2013-06-22T12:41:22Z</time>
      </trkpt>
      <trkpt lat="42.640900" lon="-2.371950">
        <ele>1233.0</ele>
        <time>2013-06-22T12:41:23Z</time>
      </trkpt>
      <trkpt lat="42.640900" lon="-2.372050">
        <ele>1233.0</ele>
        <time>2013-06-22T12:41:24Z</time>
      </trkpt>
      <trkpt lat="42.640883" lon="-2.372150">
        <ele>1235.0</ele>
        <time>2013-06-22T12:41:25Z</time>
      </trkpt>
      <trkpt lat="42.640883" lon="-2.372233">
        <ele>1237.0</ele>
        <time>2013-06-22T12:41:26Z</time>
      </trkpt>
      <trkpt lat="42.640883" lon="-2.372300">
        <ele>1239.0</ele>
        <time>2013-06-22T12:41:27Z</time>
      </trkpt>
      <trkpt lat="42.640883" lon="-2.372367">
        <ele>1241.0</ele>
        <time>2013-06-22T12:41:28Z</time>
      </trkpt>
      <trkpt lat="42.640883" lon="-2.372450">
        <ele>1243.0</ele>
        <time>2013-06-22T12:41:29Z</time>
      </trkpt>
      <trkpt lat="42.640883" lon="-2.372517">
        <ele>1244.0</ele>
        <time>2013-06-22T12:41:30Z</time>
      </trkpt>
      <trkpt lat="42.640883" lon="-2.372583">
        <ele>1245.0</ele>
        <time>2013-06-22T12:41:31Z</time>
      </trkpt>
      <trkpt lat="42.640900" lon="-2.372650">
        <ele>1246.0</ele>
        <time>2013-06-22T12:41:32Z</time>
      </trkpt>
      <trkpt lat="42.640900" lon="-2.372717">
        <ele>1247.0</ele>
        <time>2013-06-22T12:41:33Z</time>
      </trkpt>
      <trkpt lat="42.640900" lon="-2.372783">
        <ele>1247.0</ele>
        <time>2013-06-22T12:41:34Z</time>
      </trkpt>
      <trkpt lat="42.640933" lon="-2.372867">
        <ele>1247.0</ele>
        <time>2013-06-22T12:41:35Z</time>
      </trkpt>
      <trkpt lat="42.640967" lon="-2.372900">
        <ele>1246.0</ele>
        <time>2013-06-22T12:41:36Z</time>
      </trkpt>
      <trkpt lat="42.641017" lon="-2.372900">
        <ele>1246.0</ele>
        <time>2013-06-22T12:41:37Z</time>
      </trkpt>
      <trkpt lat="42.641050" lon="-2.372833">
        <ele>1247.0</ele>
        <time>2013-06-22T12:41:38Z</time>
      </trkpt>
      <trkpt lat="42.641050" lon="-2.372733">
        <ele>1247.0</ele>
        <time>2013-06-22T12:41:39Z</time>
      </trkpt>
      <trkpt lat="42.641033" lon="-2.372633">
        <ele>1248.0</ele>
        <time>2013-06-22T12:41:40Z</time>
      </trkpt>
      <trkpt lat="42.640983" lon="-2.372517">
        <ele>1249.0</ele>
        <time>2013-06-22T12:41:41Z</time>
      </trkpt>
      <trkpt lat="42.640917" lon="-2.372417">
        <ele>1250.0</ele>
        <time>2013-06-22T12:41:42Z</time>
      </trkpt>
      <trkpt lat="42.640817" lon="-2.372333">
        <ele>1250.0</ele>
        <time>2013-06-22T12:41:43Z</time>
      </trkpt>
      <trkpt lat="42.640700" lon="-2.372267">
        <ele>1251.0</ele>
        <time>2013-06-22T12:41:44Z</time>
      </trkpt>
      <trkpt lat="42.640583" lon="-2.372267">
        <ele>1251.0</ele>
        <time>2013-06-22T12:41:45Z</time>
      </trkpt>
      <trkpt lat="42.640467" lon="-2.372300">
        <ele>1251.0</ele>
        <time>2013-06-22T12:41:46Z</time>
      </trkpt>
      <trkpt lat="42.640367" lon="-2.372383">
        <ele>1252.0</ele>
        <time>2013-06-22T12:41:47Z</time>
      </trkpt>
      <trkpt lat="42.640300" lon="-2.372467">
        <ele>1252.0</ele>
        <time>2013-06-22T12:41:48Z</time>
      </trkpt>
      <trkpt lat="42.640233" lon="-2.372567">
        <ele>1253.0</ele>
        <time>2013-06-22T12:41:49Z</time>
      </trkpt>
      <trkpt lat="42.640200" lon="-2.372667">
        <ele>1253.0</ele>
        <time>2013-06-22T12:41:50Z</time>
      </trkpt>
      <trkpt lat="42.640183" lon="-2.372750">
        <ele>1253.0</ele>
        <time>2013-06-22T12:41:51Z</time>
      </trkpt>
      <trkpt lat="42.640183" lon="-2.372833">
        <ele>1253.0</ele>
        <time>2013-06-22T12:41:52Z</time>
      </trkpt>
      <trkpt lat="42.640200" lon="-2.372917">
        <ele>1252.0</ele>
        <time>2013-06-22T12:41:53Z</time>
      </trkpt>
      <trkpt lat="42.640217" lon="-2.373000">
        <ele>1251.0</ele>
        <time>2013-06-22T12:41:54Z</time>
      </trkpt>
      <trkpt lat="42.640233" lon="-2.373083">
        <ele>1251.0</ele>
        <time>2013-06-22T12:41:55Z</time>
      </trkpt>
      <trkpt lat="42.640250" lon="-2.373150">
        <ele>1252.0</ele>
        <time>2013-06-22T12:41:56Z</time>
      </trkpt>
      <trkpt lat="42.640283" lon="-2.373233">
        <ele>1252.0</ele>
        <time>2013-06-22T12:41:57Z</time>
      </trkpt>
      <trkpt lat="42.640300" lon="-2.373300">
        <ele>1252.0</ele>
        <time>2013-06-22T12:41:58Z</time>
      </trkpt>
      <trkpt lat="42.640317" lon="-2.373350">
        <ele>1253.0</ele>
        <time>2013-06-22T12:41:59Z</time>
      </trkpt>
      <trkpt lat="42.640333" lon="-2.373400">
        <ele>1253.0</ele>
        <time>2013-06-22T12:42:00Z</time>
      </trkpt>
      <trkpt lat="42.640350" lon="-2.373450">
        <ele>1253.0</ele>
        <time>2013-06-22T12:42:01Z</time>
      </trkpt>
      <trkpt lat="42.640367" lon="-2.373517">
        <ele>1252.0</ele>
        <time>2013-06-22T12:42:02Z</time>
      </trkpt>
      <trkpt lat="42.640400" lon="-2.373583">
        <ele>1251.0</ele>
        <time>2013-06-22T12:42:03Z</time>
      </trkpt>
      <trkpt lat="42.640417" lon="-2.373633">
        <ele>1250.0</ele>
        <time>2013-06-22T12:42:04Z</time>
      </trkpt>
      <trkpt lat="42.640450" lon="-2.373700">
        <ele>1250.0</ele>
        <time>2013-06-22T12:42:05Z</time>
      </trkpt>
      <trkpt lat="42.640483" lon="-2.373767">
        <ele>1251.0</ele>
        <time>2013-06-22T12:42:06Z</time>
      </trkpt>
      <trkpt lat="42.640517" lon="-2.373817">
        <ele>1251.0</ele>
        <time>2013-06-22T12:42:07Z</time>
      </trkpt>
      <trkpt lat="42.640533" lon="-2.373867">
        <ele>1252.0</ele>
        <time>2013-06-22T12:42:08Z</time>
      </trkpt>
      <trkpt lat="42.640567" lon="-2.373917">
        <ele>1253.0</ele>
        <time>2013-06-22T12:42:09Z</time>
      </trkpt>
      <trkpt lat="42.640583" lon="-2.374000">
        <ele>1254.0</ele>
        <time>2013-06-22T12:42:10Z</time>
      </trkpt>
      <trkpt lat="42.640617" lon="-2.374083">
        <ele>1255.0</ele>
        <time>2013-06-22T12:42:11Z</time>
      </trkpt>
      <trkpt lat="42.640650" lon="-2.374150">
        <ele>1257.0</ele>
        <time>2013-06-22T12:42:12Z</time>
      </trkpt>
      <trkpt lat="42.640667" lon="-2.374217">
        <ele>1260.0</ele>
        <time>2013-06-22T12:42:13Z</time>
      </trkpt>
      <trkpt lat="42.640683" lon="-2.374283">
        <ele>1263.0</ele>
        <time>2013-06-22T12:42:14Z</time>
      </trkpt>
      <trkpt lat="42.640683" lon="-2.374367">
        <ele>1266.0</ele>
        <time>2013-06-22T12:42:15Z</time>
      </trkpt>
      <trkpt lat="42.640683" lon="-2.374433">
        <ele>1267.0</ele>
        <time>2013-06-22T12:42:16Z</time>
      </trkpt>
      <trkpt lat="42.640700" lon="-2.374517">
        <ele>1268.0</ele>
        <time>2013-06-22T12:42:17Z</time>
      </trkpt>
      <trkpt lat="42.640733" lon="-2.374583">
        <ele>1269.0</ele>
        <time>2013-06-22T12:42:18Z</time>
      </trkpt>
      <trkpt lat="42.640767" lon="-2.374650">
        <ele>1271.0</ele>
        <time>2013-06-22T12:42:19Z</time>
      </trkpt>
      <trkpt lat="42.640783" lon="-2.374700">
        <ele>1273.0</ele>
        <time>2013-06-22T12:42:20Z</time>
      </trkpt>
      <trkpt lat="42.640800" lon="-2.374750">
        <ele>1276.0</ele>
        <time>2013-06-22T12:42:21Z</time>
      </trkpt>
      <trkpt lat="42.640817" lon="-2.374800">
        <ele>1277.0</ele>
        <time>2013-06-22T12:42:22Z</time>
      </trkpt>
      <trkpt lat="42.640833" lon="-2.374867">
        <ele>1278.0</ele>
        <time>2013-06-22T12:42:23Z</time>
      </trkpt>
      <trkpt lat="42.640867" lon="-2.374933">
        <ele>1278.0</ele>
        <time>2013-06-22T12:42:24Z</time>
      </trkpt>
      <trkpt lat="42.640900" lon="-2.374983">
        <ele>1279.0</ele>
        <time>2013-06-22T12:42:25Z</time>
      </trkpt>
      <trkpt lat="42.640917" lon="-2.375050">
        <ele>1280.0</ele>
        <time>2013-06-22T12:42:26Z</time>
      </trkpt>
      <trkpt lat="42.640933" lon="-2.375100">
        <ele>1281.0</ele>
        <time>2013-06-22T12:42:27Z</time>
      </trkpt>
      <trkpt lat="42.640967" lon="-2.375150">
        <ele>1281.0</ele>
        <time>2013-06-22T12:42:28Z</time>
      </trkpt>
      <trkpt lat="42.640983" lon="-2.375200">
        <ele>1280.0</ele>
        <time>2013-06-22T12:42:29Z</time>
      </trkpt>
      <trkpt lat="42.641017" lon="-2.375267">
        <ele>1279.0</ele>
        <time>2013-06-22T12:42:30Z</time>
      </trkpt>
      <trkpt lat="42.641067" lon="-2.375317">
        <ele>1277.0</ele>
        <time>2013-06-22T12:42:31Z</time>
      </trkpt>
      <trkpt lat="42.641100" lon="-2.375367">
        <ele>1276.0</ele>
        <time>2013-06-22T12:42:32Z</time>
      </trkpt>
      <trkpt lat="42.641117" lon="-2.375433">
        <ele>1275.0</ele>
        <time>2013-06-22T12:42:33Z</time>
      </trkpt>
      <trkpt lat="42.641117" lon="-2.375517">
        <ele>1274.0</ele>
        <time>2013-06-22T12:42:34Z</time>
      </trkpt>
      <trkpt lat="42.641100" lon="-2.375600">
        <ele>1272.0</ele>
        <time>2013-06-22T12:42:35Z</time>
      </trkpt>
      <trkpt lat="42.641067" lon="-2.375683">
        <ele>1271.0</ele>
        <time>2013-06-22T12:42:36Z</time>
      </trkpt>
      <trkpt lat="42.641017" lon="-2.375783">
        <ele>1269.0</ele>
        <time>2013-06-22T12:42:37Z</time>
      </trkpt>
      <trkpt lat="42.640983" lon="-2.375883">
        <ele>1268.0</ele>
        <time>2013-06-22T12:42:38Z</time>
      </trkpt>
      <trkpt lat="42.640950" lon="-2.375983">
        <ele>1266.0</ele>
        <time>2013-06-22T12:42:39Z</time>
      </trkpt>
      <trkpt lat="42.640917" lon="-2.376083">
        <ele>1265.0</ele>
        <time>2013-06-22T12:42:40Z</time>
      </trkpt>
      <trkpt lat="42.640883" lon="-2.376183">
        <ele>1264.0</ele>
        <time>2013-06-22T12:42:41Z</time>
      </trkpt>
      <trkpt lat="42.640833" lon="-2.376283">
        <ele>1262.0</ele>
        <time>2013-06-22T12:42:42Z</time>
      </trkpt>
      <trkpt lat="42.640800" lon="-2.376367">
        <ele>1261.0</ele>
        <time>2013-06-22T12:42:43Z</time>
      </trkpt>
      <trkpt lat="42.640767" lon="-2.376467">
        <ele>1259.0</ele>
        <time>2013-06-22T12:42:44Z</time>
      </trkpt>
      <trkpt lat="42.640717" lon="-2.376567">
        <ele>1257.0</ele>
        <time>2013-06-22T12:42:45Z</time>
      </trkpt>
      <trkpt lat="42.640683" lon="-2.376683">
        <ele>1255.0</ele>
        <time>2013-06-22T12:42:46Z</time>
      </trkpt>
      <trkpt lat="42.640650" lon="-2.376783">
        <ele>1254.0</ele>
        <time>2013-06-22T12:42:47Z</time>
      </trkpt>
      <trkpt lat="42.640617" lon="-2.376883">
        <ele>1253.0</ele>
        <time>2013-06-22T12:42:48Z</time>
      </trkpt>
      <trkpt lat="42.640567" lon="-2.376983">
        <ele>1252.0</ele>
        <time>2013-06-22T12:42:49Z</time>
      </trkpt>
      <trkpt lat="42.640550" lon="-2.377083">
        <ele>1251.0</ele>
        <time>2013-06-22T12:42:50Z</time>
      </trkpt>
      <trkpt lat="42.640517" lon="-2.377183">
        <ele>1250.0</ele>
        <time>2013-06-22T12:42:51Z</time>
      </trkpt>
      <trkpt lat="42.640500" lon="-2.377283">
        <ele>1250.0</ele>
        <time>2013-06-22T12:42:52Z</time>
      </trkpt>
      <trkpt lat="42.640483" lon="-2.377383">
        <ele>1249.0</ele>
        <time>2013-06-22T12:42:53Z</time>
      </trkpt>
      <trkpt lat="42.640450" lon="-2.377483">
        <ele>1248.0</ele>
        <time>2013-06-22T12:42:54Z</time>
      </trkpt>
      <trkpt lat="42.640433" lon="-2.377600">
        <ele>1247.0</ele>
        <time>2013-06-22T12:42:55Z</time>
      </trkpt>
      <trkpt lat="42.640417" lon="-2.377700">
        <ele>1246.0</ele>
        <time>2013-06-22T12:42:56Z</time>
      </trkpt>
      <trkpt lat="42.640400" lon="-2.377800">
        <ele>1246.0</ele>
        <time>2013-06-22T12:42:57Z</time>
      </trkpt>
      <trkpt lat="42.640367" lon="-2.377917">
        <ele>1246.0</ele>
        <time>2013-06-22T12:42:58Z</time>
      </trkpt>
      <trkpt lat="42.640350" lon="-2.378017">
        <ele>1246.0</ele>
        <time>2013-06-22T12:42:59Z</time>
      </trkpt>
      <trkpt lat="42.640317" lon="-2.378117">
        <ele>1245.0</ele>
        <time>2013-06-22T12:43:00Z</time>
      </trkpt>
      <trkpt lat="42.640300" lon="-2.378217">
        <ele>1245.0</ele>
        <time>2013-06-22T12:43:01Z</time>
      </trkpt>
      <trkpt lat="42.640267" lon="-2.378317">
        <ele>1244.0</ele>
        <time>2013-06-22T12:43:02Z</time>
      </trkpt>
      <trkpt lat="42.640250" lon="-2.378433">
        <ele>1243.0</ele>
        <time>2013-06-22T12:43:03Z</time>
      </trkpt>
      <trkpt lat="42.640217" lon="-2.378533">
        <ele>1242.0</ele>
        <time>2013-06-22T12:43:04Z</time>
      </trkpt>
      <trkpt lat="42.640183" lon="-2.378633">
        <ele>1242.0</ele>
        <time>2013-06-22T12:43:05Z</time>
      </trkpt>
      <trkpt lat="42.640167" lon="-2.378717">
        <ele>1242.0</ele>
        <time>2013-06-22T12:43:06Z</time>
      </trkpt>
      <trkpt lat="42.640133" lon="-2.378800">
        <ele>1241.0</ele>
        <time>2013-06-22T12:43:07Z</time>
      </trkpt>
      <trkpt lat="42.640100" lon="-2.378900">
        <ele>1240.0</ele>
        <time>2013-06-22T12:43:08Z</time>
      </trkpt>
      <trkpt lat="42.640067" lon="-2.379000">
        <ele>1238.0</ele>
        <time>2013-06-22T12:43:09Z</time>
      </trkpt>
      <trkpt lat="42.640033" lon="-2.379100">
        <ele>1237.0</ele>
        <time>2013-06-22T12:43:10Z</time>
      </trkpt>
      <trkpt lat="42.639983" lon="-2.379183">
        <ele>1236.0</ele>
        <time>2013-06-22T12:43:11Z</time>
      </trkpt>
      <trkpt lat="42.639950" lon="-2.379267">
        <ele>1235.0</ele>
        <time>2013-06-22T12:43:12Z</time>
      </trkpt>
      <trkpt lat="42.639900" lon="-2.379367">
        <ele>1233.0</ele>
        <time>2013-06-22T12:43:13Z</time>
      </trkpt>
      <trkpt lat="42.639850" lon="-2.379467">
        <ele>1232.0</ele>
        <time>2013-06-22T12:43:14Z</time>
      </trkpt>
      <trkpt lat="42.639817" lon="-2.379567">
        <ele>1230.0</ele>
        <time>2013-06-22T12:43:15Z</time>
      </trkpt>
      <trkpt lat="42.639767" lon="-2.379667">
        <ele>1228.0</ele>
        <time>2013-06-22T12:43:16Z</time>
      </trkpt>
      <trkpt lat="42.639733" lon="-2.379767">
        <ele>1227.0</ele>
        <time>2013-06-22T12:43:17Z</time>
      </trkpt>
      <trkpt lat="42.639700" lon="-2.379867">
        <ele>1226.0</ele>
        <time>2013-06-22T12:43:18Z</time>
      </trkpt>
      <trkpt lat="42.639650" lon="-2.379983">
        <ele>1225.0</ele>
        <time>2013-06-22T12:43:19Z</time>
      </trkpt>
      <trkpt lat="42.639617" lon="-2.380083">
        <ele>1224.0</ele>
        <time>2013-06-22T12:43:20Z</time>
      </trkpt>
      <trkpt lat="42.639583" lon="-2.380183">
        <ele>1223.0</ele>
        <time>2013-06-22T12:43:21Z</time>
      </trkpt>
      <trkpt lat="42.639550" lon="-2.380300">
        <ele>1221.0</ele>
        <time>2013-06-22T12:43:22Z</time>
      </trkpt>
      <trkpt lat="42.639517" lon="-2.380417">
        <ele>1220.0</ele>
        <time>2013-06-22T12:43:23Z</time>
      </trkpt>
      <trkpt lat="42.639483" lon="-2.380517">
        <ele>1219.0</ele>
        <time>2013-06-22T12:43:24Z</time>
      </trkpt>
      <trkpt lat="42.639450" lon="-2.380617">
        <ele>1218.0</ele>
        <time>2013-06-22T12:43:25Z</time>
      </trkpt>
      <trkpt lat="42.639417" lon="-2.380733">
        <ele>1217.0</ele>
        <time>2013-06-22T12:43:26Z</time>
      </trkpt>
      <trkpt lat="42.639383" lon="-2.380833">
        <ele>1217.0</ele>
        <time>2013-06-22T12:43:27Z</time>
      </trkpt>
      <trkpt lat="42.639350" lon="-2.380933">
        <ele>1216.0</ele>
        <time>2013-06-22T12:43:28Z</time>
      </trkpt>
      <trkpt lat="42.639317" lon="-2.381033">
        <ele>1216.0</ele>
        <time>2013-06-22T12:43:29Z</time>
      </trkpt>
      <trkpt lat="42.639300" lon="-2.381150">
        <ele>1215.0</ele>
        <time>2013-06-22T12:43:30Z</time>
      </trkpt>
      <trkpt lat="42.639267" lon="-2.381250">
        <ele>1214.0</ele>
        <time>2013-06-22T12:43:31Z</time>
      </trkpt>
      <trkpt lat="42.639217" lon="-2.381367">
        <ele>1214.0</ele>
        <time>2013-06-22T12:43:32Z</time>
      </trkpt>
      <trkpt lat="42.639183" lon="-2.381467">
        <ele>1214.0</ele>
        <time>2013-06-22T12:43:33Z</time>
      </trkpt>
      <trkpt lat="42.639150" lon="-2.381583">
        <ele>1213.0</ele>
        <time>2013-06-22T12:43:34Z</time>
      </trkpt>
      <trkpt lat="42.639117" lon="-2.381700">
        <ele>1212.0</ele>
        <time>2013-06-22T12:43:35Z</time>
      </trkpt>
      <trkpt lat="42.639100" lon="-2.381817">
        <ele>1212.0</ele>
        <time>2013-06-22T12:43:36Z</time>
      </trkpt>
      <trkpt lat="42.639067" lon="-2.381933">
        <ele>1212.0</ele>
        <time>2013-06-22T12:43:37Z</time>
      </trkpt>
      <trkpt lat="42.639017" lon="-2.382050">
        <ele>1212.0</ele>
        <time>2013-06-22T12:43:38Z</time>
      </trkpt>
      <trkpt lat="42.638983" lon="-2.382150">
        <ele>1213.0</ele>
        <time>2013-06-22T12:43:39Z</time>
      </trkpt>
      <trkpt lat="42.638967" lon="-2.382250">
        <ele>1212.0</ele>
        <time>2013-06-22T12:43:40Z</time>
      </trkpt>
      <trkpt lat="42.638933" lon="-2.382350">
        <ele>1212.0</ele>
        <time>2013-06-22T12:43:41Z</time>
      </trkpt>
      <trkpt lat="42.638917" lon="-2.382467">
        <ele>1211.0</ele>
        <time>2013-06-22T12:43:42Z</time>
      </trkpt>
      <trkpt lat="42.638900" lon="-2.382583">
        <ele>1211.0</ele>
        <time>2013-06-22T12:43:43Z</time>
      </trkpt>
      <trkpt lat="42.638867" lon="-2.382700">
        <ele>1211.0</ele>
        <time>2013-06-22T12:43:44Z</time>
      </trkpt>
      <trkpt lat="42.638833" lon="-2.382800">
        <ele>1212.0</ele>
        <time>2013-06-22T12:43:45Z</time>
      </trkpt>
      <trkpt lat="42.638800" lon="-2.382883">
        <ele>1213.0</ele>
        <time>2013-06-22T12:43:46Z</time>
      </trkpt>
      <trkpt lat="42.638767" lon="-2.382983">
        <ele>1213.0</ele>
        <time>2013-06-22T12:43:47Z</time>
      </trkpt>
      <trkpt lat="42.638733" lon="-2.383083">
        <ele>1212.0</ele>
        <time>2013-06-22T12:43:48Z</time>
      </trkpt>
      <trkpt lat="42.638700" lon="-2.383183">
        <ele>1211.0</ele>
        <time>2013-06-22T12:43:49Z</time>
      </trkpt>
      <trkpt lat="42.638683" lon="-2.383283">
        <ele>1210.0</ele>
        <time>2013-06-22T12:43:50Z</time>
      </trkpt>
      <trkpt lat="42.638667" lon="-2.383383">
        <ele>1209.0</ele>
        <time>2013-06-22T12:43:51Z</time>
      </trkpt>
      <trkpt lat="42.638633" lon="-2.383467">
        <ele>1208.0</ele>
        <time>2013-06-22T12:43:52Z</time>
      </trkpt>
      <trkpt lat="42.638617" lon="-2.383550">
        <ele>1206.0</ele>
        <time>2013-06-22T12:43:53Z</time>
      </trkpt>
      <trkpt lat="42.638583" lon="-2.383667">
        <ele>1203.0</ele>
        <time>2013-06-22T12:43:54Z</time>
      </trkpt>
      <trkpt lat="42.638550" lon="-2.383783">
        <ele>1200.0</ele>
        <time>2013-06-22T12:43:55Z</time>
      </trkpt>
      <trkpt lat="42.638517" lon="-2.383900">
        <ele>1198.0</ele>
        <time>2013-06-22T12:43:56Z</time>
      </trkpt>
      <trkpt lat="42.638483" lon="-2.383983">
        <ele>1199.0</ele>
        <time>2013-06-22T12:43:57Z</time>
      </trkpt>
      <trkpt lat="42.638450" lon="-2.384067">
        <ele>1199.0</ele>
        <time>2013-06-22T12:43:58Z</time>
      </trkpt>
      <trkpt lat="42.638417" lon="-2.384150">
        <ele>1199.0</ele>
        <time>2013-06-22T12:43:59Z</time>
      </trkpt>
      <trkpt lat="42.638383" lon="-2.384233">
        <ele>1198.0</ele>
        <time>2013-06-22T12:44:00Z</time>
      </trkpt>
      <trkpt lat="42.638350" lon="-2.384333">
        <ele>1196.0</ele>
        <time>2013-06-22T12:44:01Z</time>
      </trkpt>
      <trkpt lat="42.638317" lon="-2.384450">
        <ele>1195.0</ele>
        <time>2013-06-22T12:44:02Z</time>
      </trkpt>
      <trkpt lat="42.638300" lon="-2.384550">
        <ele>1194.0</ele>
        <time>2013-06-22T12:44:03Z</time>
      </trkpt>
      <trkpt lat="42.638267" lon="-2.384633">
        <ele>1194.0</ele>
        <time>2013-06-22T12:44:04Z</time>
      </trkpt>
      <trkpt lat="42.638233" lon="-2.384717">
        <ele>1194.0</ele>
        <time>2013-06-22T12:44:05Z</time>
      </trkpt>
      <trkpt lat="42.638200" lon="-2.384800">
        <ele>1194.0</ele>
        <time>2013-06-22T12:44:06Z</time>
      </trkpt>
      <trkpt lat="42.638167" lon="-2.384900">
        <ele>1193.0</ele>
        <time>2013-06-22T12:44:07Z</time>
      </trkpt>
      <trkpt lat="42.638117" lon="-2.385000">
        <ele>1192.0</ele>
        <time>2013-06-22T12:44:08Z</time>
      </trkpt>
      <trkpt lat="42.638083" lon="-2.385100">
        <ele>1192.0</ele>
        <time>2013-06-22T12:44:09Z</time>
      </trkpt>
      <trkpt lat="42.638050" lon="-2.385183">
        <ele>1192.0</ele>
        <time>2013-06-22T12:44:10Z</time>
      </trkpt>
      <trkpt lat="42.638017" lon="-2.385267">
        <ele>1192.0</ele>
        <time>2013-06-22T12:44:11Z</time>
      </trkpt>
      <trkpt lat="42.637983" lon="-2.385350">
        <ele>1192.0</ele>
        <time>2013-06-22T12:44:12Z</time>
      </trkpt>
      <trkpt lat="42.637950" lon="-2.385433">
        <ele>1192.0</ele>
        <time>2013-06-22T12:44:13Z</time>
      </trkpt>
      <trkpt lat="42.637917" lon="-2.385533">
        <ele>1191.0</ele>
        <time>2013-06-22T12:44:14Z</time>
      </trkpt>
      <trkpt lat="42.637900" lon="-2.385633">
        <ele>1191.0</ele>
        <time>2013-06-22T12:44:15Z</time>
      </trkpt>
      <trkpt lat="42.637867" lon="-2.385733">
        <ele>1191.0</ele>
        <time>2013-06-22T12:44:16Z</time>
      </trkpt>
      <trkpt lat="42.637850" lon="-2.385817">
        <ele>1191.0</ele>
        <time>2013-06-22T12:44:17Z</time>
      </trkpt>
      <trkpt lat="42.637817" lon="-2.385900">
        <ele>1192.0</ele>
        <time>2013-06-22T12:44:18Z</time>
      </trkpt>
      <trkpt lat="42.637783" lon="-2.385983">
        <ele>1192.0</ele>
        <time>2013-06-22T12:44:19Z</time>
      </trkpt>
      <trkpt lat="42.637750" lon="-2.386083">
        <ele>1193.0</ele>
        <time>2013-06-22T12:44:20Z</time>
      </trkpt>
      <trkpt lat="42.637733" lon="-2.386183">
        <ele>1193.0</ele>
        <time>2013-06-22T12:44:21Z</time>
      </trkpt>
      <trkpt lat="42.637700" lon="-2.386267">
        <ele>1194.0</ele>
        <time>2013-06-22T12:44:22Z</time>
      </trkpt>
      <trkpt lat="42.637650" lon="-2.386367">
        <ele>1194.0</ele>
        <time>2013-06-22T12:44:23Z</time>
      </trkpt>
      <trkpt lat="42.637617" lon="-2.386483">
        <ele>1195.0</ele>
        <time>2013-06-22T12:44:24Z</time>
      </trkpt>
      <trkpt lat="42.637583" lon="-2.386583">
        <ele>1195.0</ele>
        <time>2013-06-22T12:44:25Z</time>
      </trkpt>
      <trkpt lat="42.637533" lon="-2.386700">
        <ele>1196.0</ele>
        <time>2013-06-22T12:44:26Z</time>
      </trkpt>
      <trkpt lat="42.637500" lon="-2.386800">
        <ele>1197.0</ele>
        <time>2013-06-22T12:44:27Z</time>
      </trkpt>
      <trkpt lat="42.637467" lon="-2.386900">
        <ele>1198.0</ele>
        <time>2013-06-22T12:44:28Z</time>
      </trkpt>
      <trkpt lat="42.637450" lon="-2.387000">
        <ele>1199.0</ele>
        <time>2013-06-22T12:44:29Z</time>
      </trkpt>
      <trkpt lat="42.637417" lon="-2.387100">
        <ele>1200.0</ele>
        <time>2013-06-22T12:44:30Z</time>
      </trkpt>
      <trkpt lat="42.637383" lon="-2.387183">
        <ele>1201.0</ele>
        <time>2013-06-22T12:44:31Z</time>
      </trkpt>
      <trkpt lat="42.637350" lon="-2.387283">
        <ele>1201.0</ele>
        <time>2013-06-22T12:44:32Z</time>
      </trkpt>
      <trkpt lat="42.637317" lon="-2.387383">
        <ele>1202.0</ele>
        <time>2013-06-22T12:44:33Z</time>
      </trkpt>
      <trkpt lat="42.637283" lon="-2.387483">
        <ele>1202.0</ele>
        <time>2013-06-22T12:44:34Z</time>
      </trkpt>
      <trkpt lat="42.637250" lon="-2.387583">
        <ele>1203.0</ele>
        <time>2013-06-22T12:44:35Z</time>
      </trkpt>
      <trkpt lat="42.637217" lon="-2.387667">
        <ele>1203.0</ele>
        <time>2013-06-22T12:44:36Z</time>
      </trkpt>
      <trkpt lat="42.637183" lon="-2.387783">
        <ele>1203.0</ele>
        <time>2013-06-22T12:44:37Z</time>
      </trkpt>
      <trkpt lat="42.637167" lon="-2.387883">
        <ele>1203.0</ele>
        <time>2013-06-22T12:44:38Z</time>
      </trkpt>
      <trkpt lat="42.637150" lon="-2.387983">
        <ele>1204.0</ele>
        <time>2013-06-22T12:44:39Z</time>
      </trkpt>
      <trkpt lat="42.637133" lon="-2.388067">
        <ele>1206.0</ele>
        <time>2013-06-22T12:44:40Z</time>
      </trkpt>
      <trkpt lat="42.637117" lon="-2.388150">
        <ele>1207.0</ele>
        <time>2013-06-22T12:44:41Z</time>
      </trkpt>
      <trkpt lat="42.637100" lon="-2.388250">
        <ele>1208.0</ele>
        <time>2013-06-22T12:44:42Z</time>
      </trkpt>
      <trkpt lat="42.637083" lon="-2.388333">
        <ele>1209.0</ele>
        <time>2013-06-22T12:44:43Z</time>
      </trkpt>
      <trkpt lat="42.637083" lon="-2.388417">
        <ele>1209.0</ele>
        <time>2013-06-22T12:44:44Z</time>
      </trkpt>
      <trkpt lat="42.637083" lon="-2.388467">
        <ele>1210.0</ele>
        <time>2013-06-22T12:44:45Z</time>
      </trkpt>
      <trkpt lat="42.637083" lon="-2.388517">
        <ele>1211.0</ele>
        <time>2013-06-22T12:44:46Z</time>
      </trkpt>
      <trkpt lat="42.637100" lon="-2.388583">
        <ele>1207.0</ele>
        <time>2013-06-22T12:44:47Z</time>
      </trkpt>
      <trkpt lat="42.637133" lon="-2.388683">
        <ele>1203.0</ele>
        <time>2013-06-22T12:44:48Z</time>
      </trkpt>
      <trkpt lat="42.637150" lon="-2.388767">
        <ele>1202.0</ele>
        <time>2013-06-22T12:44:49Z</time>
      </trkpt>
      <trkpt lat="42.637150" lon="-2.388833">
        <ele>1202.0</ele>
        <time>2013-06-22T12:44:50Z</time>
      </trkpt>
      <trkpt lat="42.637150" lon="-2.388900">
        <ele>1203.0</ele>
        <time>2013-06-22T12:44:51Z</time>
      </trkpt>
      <trkpt lat="42.637150" lon="-2.388950">
        <ele>1203.0</ele>
        <time>2013-06-22T12:44:52Z</time>
      </trkpt>
      <trkpt lat="42.637150" lon="-2.389017">
        <ele>1203.0</ele>
        <time>2013-06-22T12:44:53Z</time>
      </trkpt>
      <trkpt lat="42.637133" lon="-2.389100">
        <ele>1202.0</ele>
        <time>2013-06-22T12:44:54Z</time>
      </trkpt>
      <trkpt lat="42.637117" lon="-2.389200">
        <ele>1202.0</ele>
        <time>2013-06-22T12:44:55Z</time>
      </trkpt>
      <trkpt lat="42.637083" lon="-2.389283">
        <ele>1203.0</ele>
        <time>2013-06-22T12:44:56Z</time>
      </trkpt>
      <trkpt lat="42.637050" lon="-2.389350">
        <ele>1204.0</ele>
        <time>2013-06-22T12:44:57Z</time>
      </trkpt>
      <trkpt lat="42.637017" lon="-2.389433">
        <ele>1205.0</ele>
        <time>2013-06-22T12:44:58Z</time>
      </trkpt>
      <trkpt lat="42.636983" lon="-2.389517">
        <ele>1205.0</ele>
        <time>2013-06-22T12:44:59Z</time>
      </trkpt>
      <trkpt lat="42.636950" lon="-2.389600">
        <ele>1206.0</ele>
        <time>2013-06-22T12:45:00Z</time>
      </trkpt>
      <trkpt lat="42.636933" lon="-2.389700">
        <ele>1206.0</ele>
        <time>2013-06-22T12:45:01Z</time>
      </trkpt>
      <trkpt lat="42.636900" lon="-2.389783">
        <ele>1207.0</ele>
        <time>2013-06-22T12:45:02Z</time>
      </trkpt>
      <trkpt lat="42.636883" lon="-2.389867">
        <ele>1209.0</ele>
        <time>2013-06-22T12:45:03Z</time>
      </trkpt>
      <trkpt lat="42.636867" lon="-2.389950">
        <ele>1210.0</ele>
        <time>2013-06-22T12:45:04Z</time>
      </trkpt>
      <trkpt lat="42.636833" lon="-2.390033">
        <ele>1211.0</ele>
        <time>2013-06-22T12:45:05Z</time>
      </trkpt>
      <trkpt lat="42.636817" lon="-2.390117">
        <ele>1211.0</ele>
        <time>2013-06-22T12:45:06Z</time>
      </trkpt>
      <trkpt lat="42.636800" lon="-2.390200">
        <ele>1212.0</ele>
        <time>2013-06-22T12:45:07Z</time>
      </trkpt>
      <trkpt lat="42.636783" lon="-2.390300">
        <ele>1213.0</ele>
        <time>2013-06-22T12:45:08Z</time>
      </trkpt>
      <trkpt lat="42.636750" lon="-2.390367">
        <ele>1214.0</ele>
        <time>2013-06-22T12:45:09Z</time>
      </trkpt>
      <trkpt lat="42.636733" lon="-2.390433">
        <ele>1216.0</ele>
        <time>2013-06-22T12:45:10Z</time>
      </trkpt>
      <trkpt lat="42.636717" lon="-2.390500">
        <ele>1217.0</ele>
        <time>2013-06-22T12:45:11Z</time>
      </trkpt>
      <trkpt lat="42.636683" lon="-2.390567">
        <ele>1218.0</ele>
        <time>2013-06-22T12:45:12Z</time>
      </trkpt>
      <trkpt lat="42.636650" lon="-2.390650">
        <ele>1218.0</ele>
        <time>2013-06-22T12:45:13Z</time>
      </trkpt>
      <trkpt lat="42.636633" lon="-2.390733">
        <ele>1217.0</ele>
        <time>2013-06-22T12:45:14Z</time>
      </trkpt>
      <trkpt lat="42.636600" lon="-2.390817">
        <ele>1216.0</ele>
        <time>2013-06-22T12:45:15Z</time>
      </trkpt>
      <trkpt lat="42.636567" lon="-2.390917">
        <ele>1216.0</ele>
        <time>2013-06-22T12:45:16Z</time>
      </trkpt>
      <trkpt lat="42.636533" lon="-2.391017">
        <ele>1215.0</ele>
        <time>2013-06-22T12:45:17Z</time>
      </trkpt>
      <trkpt lat="42.636500" lon="-2.391100">
        <ele>1215.0</ele>
        <time>2013-06-22T12:45:18Z</time>
      </trkpt>
      <trkpt lat="42.636467" lon="-2.391200">
        <ele>1215.0</ele>
        <time>2013-06-22T12:45:19Z</time>
      </trkpt>
      <trkpt lat="42.636433" lon="-2.391283">
        <ele>1216.0</ele>
        <time>2013-06-22T12:45:20Z</time>
      </trkpt>
      <trkpt lat="42.636400" lon="-2.391367">
        <ele>1216.0</ele>
        <time>2013-06-22T12:45:21Z</time>
      </trkpt>
      <trkpt lat="42.636367" lon="-2.391450">
        <ele>1217.0</ele>
        <time>2013-06-22T12:45:22Z</time>
      </trkpt>
      <trkpt lat="42.636317" lon="-2.391533">
        <ele>1217.0</ele>
        <time>2013-06-22T12:45:23Z</time>
      </trkpt>
      <trkpt lat="42.636283" lon="-2.391600">
        <ele>1216.0</ele>
        <time>2013-06-22T12:45:24Z</time>
      </trkpt>
      <trkpt lat="42.636233" lon="-2.391683">
        <ele>1216.0</ele>
        <time>2013-06-22T12:45:25Z</time>
      </trkpt>
      <trkpt lat="42.636183" lon="-2.391783">
        <ele>1216.0</ele>
        <time>2013-06-22T12:45:26Z</time>
      </trkpt>
      <trkpt lat="42.636133" lon="-2.391883">
        <ele>1215.0</ele>
        <time>2013-06-22T12:45:27Z</time>
      </trkpt>
      <trkpt lat="42.636083" lon="-2.391983">
        <ele>1215.0</ele>
        <time>2013-06-22T12:45:28Z</time>
      </trkpt>
      <trkpt lat="42.636050" lon="-2.392067">
        <ele>1215.0</ele>
        <time>2013-06-22T12:45:29Z</time>
      </trkpt>
      <trkpt lat="42.636017" lon="-2.392133">
        <ele>1215.0</ele>
        <time>2013-06-22T12:45:30Z</time>
      </trkpt>
      <trkpt lat="42.636000" lon="-2.392217">
        <ele>1214.0</ele>
        <time>2013-06-22T12:45:31Z</time>
      </trkpt>
      <trkpt lat="42.635983" lon="-2.392300">
        <ele>1213.0</ele>
        <time>2013-06-22T12:45:32Z</time>
      </trkpt>
      <trkpt lat="42.635950" lon="-2.392400">
        <ele>1212.0</ele>
        <time>2013-06-22T12:45:33Z</time>
      </trkpt>
      <trkpt lat="42.635900" lon="-2.392467">
        <ele>1212.0</ele>
        <time>2013-06-22T12:45:34Z</time>
      </trkpt>
      <trkpt lat="42.635867" lon="-2.392550">
        <ele>1211.0</ele>
        <time>2013-06-22T12:45:35Z</time>
      </trkpt>
      <trkpt lat="42.635850" lon="-2.392633">
        <ele>1211.0</ele>
        <time>2013-06-22T12:45:36Z</time>
      </trkpt>
      <trkpt lat="42.635817" lon="-2.392717">
        <ele>1210.0</ele>
        <time>2013-06-22T12:45:37Z</time>
      </trkpt>
      <trkpt lat="42.635783" lon="-2.392800">
        <ele>1209.0</ele>
        <time>2013-06-22T12:45:38Z</time>
      </trkpt>
      <trkpt lat="42.635750" lon="-2.392867">
        <ele>1209.0</ele>
        <time>2013-06-22T12:45:39Z</time>
      </trkpt>
      <trkpt lat="42.635717" lon="-2.392933">
        <ele>1208.0</ele>
        <time>2013-06-22T12:45:40Z</time>
      </trkpt>
      <trkpt lat="42.635667" lon="-2.393017">
        <ele>1207.0</ele>
        <time>2013-06-22T12:45:41Z</time>
      </trkpt>
      <trkpt lat="42.635633" lon="-2.393100">
        <ele>1206.0</ele>
        <time>2013-06-22T12:45:42Z</time>
      </trkpt>
      <trkpt lat="42.635583" lon="-2.393167">
        <ele>1205.0</ele>
        <time>2013-06-22T12:45:43Z</time>
      </trkpt>
      <trkpt lat="42.635550" lon="-2.393250">
        <ele>1204.0</ele>
        <time>2013-06-22T12:45:44Z</time>
      </trkpt>
      <trkpt lat="42.635500" lon="-2.393333">
        <ele>1203.0</ele>
        <time>2013-06-22T12:45:45Z</time>
      </trkpt>
      <trkpt lat="42.635467" lon="-2.393417">
        <ele>1202.0</ele>
        <time>2013-06-22T12:45:46Z</time>
      </trkpt>
      <trkpt lat="42.635417" lon="-2.393500">
        <ele>1200.0</ele>
        <time>2013-06-22T12:45:47Z</time>
      </trkpt>
      <trkpt lat="42.635367" lon="-2.393583">
        <ele>1199.0</ele>
        <time>2013-06-22T12:45:48Z</time>
      </trkpt>
      <trkpt lat="42.635317" lon="-2.393667">
        <ele>1199.0</ele>
        <time>2013-06-22T12:45:49Z</time>
      </trkpt>
      <trkpt lat="42.635283" lon="-2.393733">
        <ele>1199.0</ele>
        <time>2013-06-22T12:45:50Z</time>
      </trkpt>
      <trkpt lat="42.635233" lon="-2.393817">
        <ele>1199.0</ele>
        <time>2013-06-22T12:45:51Z</time>
      </trkpt>
      <trkpt lat="42.635200" lon="-2.393883">
        <ele>1199.0</ele>
        <time>2013-06-22T12:45:52Z</time>
      </trkpt>
      <trkpt lat="42.635150" lon="-2.393967">
        <ele>1198.0</ele>
        <time>2013-06-22T12:45:53Z</time>
      </trkpt>
      <trkpt lat="42.635100" lon="-2.394050">
        <ele>1198.0</ele>
        <time>2013-06-22T12:45:54Z</time>
      </trkpt>
      <trkpt lat="42.635050" lon="-2.394133">
        <ele>1198.0</ele>
        <time>2013-06-22T12:45:55Z</time>
      </trkpt>
      <trkpt lat="42.635000" lon="-2.394200">
        <ele>1198.0</ele>
        <time>2013-06-22T12:45:56Z</time>
      </trkpt>
      <trkpt lat="42.634950" lon="-2.394283">
        <ele>1197.0</ele>
        <time>2013-06-22T12:45:57Z</time>
      </trkpt>
      <trkpt lat="42.634883" lon="-2.394383">
        <ele>1195.0</ele>
        <time>2013-06-22T12:45:58Z</time>
      </trkpt>
      <trkpt lat="42.634833" lon="-2.394483">
        <ele>1194.0</ele>
        <time>2013-06-22T12:45:59Z</time>
      </trkpt>
      <trkpt lat="42.634800" lon="-2.394567">
        <ele>1194.0</ele>
        <time>2013-06-22T12:46:00Z</time>
      </trkpt>
      <trkpt lat="42.634750" lon="-2.394650">
        <ele>1194.0</ele>
        <time>2013-06-22T12:46:01Z</time>
      </trkpt>
      <trkpt lat="42.634700" lon="-2.394717">
        <ele>1194.0</ele>
        <time>2013-06-22T12:46:02Z</time>
      </trkpt>
      <trkpt lat="42.634650" lon="-2.394817">
        <ele>1194.0</ele>
        <time>2013-06-22T12:46:03Z</time>
      </trkpt>
      <trkpt lat="42.634600" lon="-2.394900">
        <ele>1192.0</ele>
        <time>2013-06-22T12:46:04Z</time>
      </trkpt>
      <trkpt lat="42.634550" lon="-2.395000">
        <ele>1191.0</ele>
        <time>2013-06-22T12:46:05Z</time>
      </trkpt>
      <trkpt lat="42.634500" lon="-2.395100">
        <ele>1190.0</ele>
        <time>2013-06-22T12:46:06Z</time>
      </trkpt>
      <trkpt lat="42.634433" lon="-2.395183">
        <ele>1189.0</ele>
        <time>2013-06-22T12:46:07Z</time>
      </trkpt>
      <trkpt lat="42.634367" lon="-2.395250">
        <ele>1189.0</ele>
        <time>2013-06-22T12:46:08Z</time>
      </trkpt>
      <trkpt lat="42.634317" lon="-2.395333">
        <ele>1189.0</ele>
        <time>2013-06-22T12:46:09Z</time>
      </trkpt>
      <trkpt lat="42.634250" lon="-2.395400">
        <ele>1189.0</ele>
        <time>2013-06-22T12:46:10Z</time>
      </trkpt>
      <trkpt lat="42.634183" lon="-2.395483">
        <ele>1188.0</ele>
        <time>2013-06-22T12:46:11Z</time>
      </trkpt>
      <trkpt lat="42.634117" lon="-2.395567">
        <ele>1187.0</ele>
        <time>2013-06-22T12:46:12Z</time>
      </trkpt>
      <trkpt lat="42.634050" lon="-2.395667">
        <ele>1186.0</ele>
        <time>2013-06-22T12:46:13Z</time>
      </trkpt>
      <trkpt lat="42.634000" lon="-2.395767">
        <ele>1185.0</ele>
        <time>2013-06-22T12:46:14Z</time>
      </trkpt>
      <trkpt lat="42.633950" lon="-2.395867">
        <ele>1184.0</ele>
        <time>2013-06-22T12:46:15Z</time>
      </trkpt>
      <trkpt lat="42.633917" lon="-2.395950">
        <ele>1183.0</ele>
        <time>2013-06-22T12:46:16Z</time>
      </trkpt>
      <trkpt lat="42.633850" lon="-2.396050">
        <ele>1182.0</ele>
        <time>2013-06-22T12:46:17Z</time>
      </trkpt>
      <trkpt lat="42.633800" lon="-2.396150">
        <ele>1181.0</ele>
        <time>2013-06-22T12:46:18Z</time>
      </trkpt>
      <trkpt lat="42.633750" lon="-2.396250">
        <ele>1179.0</ele>
        <time>2013-06-22T12:46:19Z</time>
      </trkpt>
      <trkpt lat="42.633683" lon="-2.396367">
        <ele>1179.0</ele>
        <time>2013-06-22T12:46:20Z</time>
      </trkpt>
      <trkpt lat="42.633650" lon="-2.396450">
        <ele>1180.0</ele>
        <time>2013-06-22T12:46:21Z</time>
      </trkpt>
      <trkpt lat="42.633600" lon="-2.396550">
        <ele>1180.0</ele>
        <time>2013-06-22T12:46:22Z</time>
      </trkpt>
      <trkpt lat="42.633550" lon="-2.396633">
        <ele>1180.0</ele>
        <time>2013-06-22T12:46:23Z</time>
      </trkpt>
      <trkpt lat="42.633500" lon="-2.396733">
        <ele>1180.0</ele>
        <time>2013-06-22T12:46:24Z</time>
      </trkpt>
      <trkpt lat="42.633433" lon="-2.396833">
        <ele>1179.0</ele>
        <time>2013-06-22T12:46:25Z</time>
      </trkpt>
      <trkpt lat="42.633383" lon="-2.396933">
        <ele>1179.0</ele>
        <time>2013-06-22T12:46:26Z</time>
      </trkpt>
      <trkpt lat="42.633317" lon="-2.397033">
        <ele>1179.0</ele>
        <time>2013-06-22T12:46:27Z</time>
      </trkpt>
      <trkpt lat="42.633267" lon="-2.397133">
        <ele>1179.0</ele>
        <time>2013-06-22T12:46:28Z</time>
      </trkpt>
      <trkpt lat="42.633200" lon="-2.397217">
        <ele>1179.0</ele>
        <time>2013-06-22T12:46:29Z</time>
      </trkpt>
      <trkpt lat="42.633133" lon="-2.397317">
        <ele>1179.0</ele>
        <time>2013-06-22T12:46:30Z</time>
      </trkpt>
      <trkpt lat="42.633083" lon="-2.397417">
        <ele>1178.0</ele>
        <time>2013-06-22T12:46:31Z</time>
      </trkpt>
      <trkpt lat="42.633017" lon="-2.397517">
        <ele>1179.0</ele>
        <time>2013-06-22T12:46:32Z</time>
      </trkpt>
      <trkpt lat="42.632967" lon="-2.397600">
        <ele>1179.0</ele>
        <time>2013-06-22T12:46:33Z</time>
      </trkpt>
      <trkpt lat="42.632917" lon="-2.397700">
        <ele>1179.0</ele>
        <time>2013-06-22T12:46:34Z</time>
      </trkpt>
      <trkpt lat="42.632867" lon="-2.397800">
        <ele>1178.0</ele>
        <time>2013-06-22T12:46:35Z</time>
      </trkpt>
      <trkpt lat="42.632817" lon="-2.397900">
        <ele>1178.0</ele>
        <time>2013-06-22T12:46:36Z</time>
      </trkpt>
      <trkpt lat="42.632750" lon="-2.398000">
        <ele>1178.0</ele>
        <time>2013-06-22T12:46:37Z</time>
      </trkpt>
      <trkpt lat="42.632717" lon="-2.398083">
        <ele>1178.0</ele>
        <time>2013-06-22T12:46:38Z</time>
      </trkpt>
      <trkpt lat="42.632667" lon="-2.398183">
        <ele>1177.0</ele>
        <time>2013-06-22T12:46:39Z</time>
      </trkpt>
      <trkpt lat="42.632617" lon="-2.398267">
        <ele>1177.0</ele>
        <time>2013-06-22T12:46:40Z</time>
      </trkpt>
      <trkpt lat="42.632567" lon="-2.398367">
        <ele>1176.0</ele>
        <time>2013-06-22T12:46:41Z</time>
      </trkpt>
      <trkpt lat="42.632500" lon="-2.398467">
        <ele>1175.0</ele>
        <time>2013-06-22T12:46:42Z</time>
      </trkpt>
      <trkpt lat="42.632450" lon="-2.398567">
        <ele>1174.0</ele>
        <time>2013-06-22T12:46:43Z</time>
      </trkpt>
      <trkpt lat="42.632400" lon="-2.398667">
        <ele>1174.0</ele>
        <time>2013-06-22T12:46:44Z</time>
      </trkpt>
      <trkpt lat="42.632350" lon="-2.398750">
        <ele>1173.0</ele>
        <time>2013-06-22T12:46:45Z</time>
      </trkpt>
      <trkpt lat="42.632283" lon="-2.398850">
        <ele>1171.0</ele>
        <time>2013-06-22T12:46:46Z</time>
      </trkpt>
      <trkpt lat="42.632217" lon="-2.398950">
        <ele>1170.0</ele>
        <time>2013-06-22T12:46:47Z</time>
      </trkpt>
      <trkpt lat="42.632150" lon="-2.399067">
        <ele>1168.0</ele>
        <time>2013-06-22T12:46:48Z</time>
      </trkpt>
      <trkpt lat="42.632100" lon="-2.399167">
        <ele>1168.0</ele>
        <time>2013-06-22T12:46:49Z</time>
      </trkpt>
      <trkpt lat="42.632033" lon="-2.399267">
        <ele>1168.0</ele>
        <time>2013-06-22T12:46:50Z</time>
      </trkpt>
      <trkpt lat="42.631967" lon="-2.399367">
        <ele>1167.0</ele>
        <time>2013-06-22T12:46:51Z</time>
      </trkpt>
      <trkpt lat="42.631917" lon="-2.399483">
        <ele>1167.0</ele>
        <time>2013-06-22T12:46:52Z</time>
      </trkpt>
      <trkpt lat="42.631850" lon="-2.399600">
        <ele>1166.0</ele>
        <time>2013-06-22T12:46:53Z</time>
      </trkpt>
      <trkpt lat="42.631783" lon="-2.399717">
        <ele>1165.0</ele>
        <time>2013-06-22T12:46:54Z</time>
      </trkpt>
      <trkpt lat="42.631717" lon="-2.399817">
        <ele>1165.0</ele>
        <time>2013-06-22T12:46:55Z</time>
      </trkpt>
      <trkpt lat="42.631667" lon="-2.399917">
        <ele>1165.0</ele>
        <time>2013-06-22T12:46:56Z</time>
      </trkpt>
      <trkpt lat="42.631600" lon="-2.400017">
        <ele>1165.0</ele>
        <time>2013-06-22T12:46:57Z</time>
      </trkpt>
      <trkpt lat="42.631533" lon="-2.400117">
        <ele>1165.0</ele>
        <time>2013-06-22T12:46:58Z</time>
      </trkpt>
      <trkpt lat="42.631467" lon="-2.400217">
        <ele>1165.0</ele>
        <time>2013-06-22T12:46:59Z</time>
      </trkpt>
      <trkpt lat="42.631400" lon="-2.400317">
        <ele>1166.0</ele>
        <time>2013-06-22T12:47:00Z</time>
      </trkpt>
      <trkpt lat="42.631350" lon="-2.400417">
        <ele>1166.0</ele>
        <time>2013-06-22T12:47:01Z</time>
      </trkpt>
      <trkpt lat="42.631283" lon="-2.400533">
        <ele>1167.0</ele>
        <time>2013-06-22T12:47:02Z</time>
      </trkpt>
      <trkpt lat="42.631217" lon="-2.400633">
        <ele>1167.0</ele>
        <time>2013-06-22T12:47:03Z</time>
      </trkpt>
      <trkpt lat="42.631150" lon="-2.400750">
        <ele>1166.0</ele>
        <time>2013-06-22T12:47:04Z</time>
      </trkpt>
      <trkpt lat="42.631083" lon="-2.400867">
        <ele>1166.0</ele>
        <time>2013-06-22T12:47:05Z</time>
      </trkpt>
      <trkpt lat="42.631033" lon="-2.400983">
        <ele>1167.0</ele>
        <time>2013-06-22T12:47:06Z</time>
      </trkpt>
      <trkpt lat="42.630967" lon="-2.401083">
        <ele>1167.0</ele>
        <time>2013-06-22T12:47:07Z</time>
      </trkpt>
      <trkpt lat="42.630917" lon="-2.401183">
        <ele>1168.0</ele>
        <time>2013-06-22T12:47:08Z</time>
      </trkpt>
      <trkpt lat="42.630850" lon="-2.401300">
        <ele>1168.0</ele>
        <time>2013-06-22T12:47:09Z</time>
      </trkpt>
      <trkpt lat="42.630800" lon="-2.401400">
        <ele>1168.0</ele>
        <time>2013-06-22T12:47:10Z</time>
      </trkpt>
      <trkpt lat="42.630733" lon="-2.401517">
        <ele>1168.0</ele>
        <time>2013-06-22T12:47:11Z</time>
      </trkpt>
      <trkpt lat="42.630683" lon="-2.401650">
        <ele>1168.0</ele>
        <time>2013-06-22T12:47:12Z</time>
      </trkpt>
      <trkpt lat="42.630633" lon="-2.401750">
        <ele>1169.0</ele>
        <time>2013-06-22T12:47:13Z</time>
      </trkpt>
      <trkpt lat="42.630583" lon="-2.401867">
        <ele>1171.0</ele>
        <time>2013-06-22T12:47:14Z</time>
      </trkpt>
      <trkpt lat="42.630533" lon="-2.401967">
        <ele>1172.0</ele>
        <time>2013-06-22T12:47:15Z</time>
      </trkpt>
      <trkpt lat="42.630483" lon="-2.402067">
        <ele>1174.0</ele>
        <time>2013-06-22T12:47:16Z</time>
      </trkpt>
      <trkpt lat="42.630433" lon="-2.402167">
        <ele>1174.0</ele>
        <time>2013-06-22T12:47:17Z</time>
      </trkpt>
      <trkpt lat="42.630383" lon="-2.402283">
        <ele>1175.0</ele>
        <time>2013-06-22T12:47:18Z</time>
      </trkpt>
      <trkpt lat="42.630350" lon="-2.402400">
        <ele>1177.0</ele>
        <time>2013-06-22T12:47:19Z</time>
      </trkpt>
      <trkpt lat="42.630300" lon="-2.402500">
        <ele>1179.0</ele>
        <time>2013-06-22T12:47:20Z</time>
      </trkpt>
      <trkpt lat="42.630267" lon="-2.402583">
        <ele>1181.0</ele>
        <time>2013-06-22T12:47:21Z</time>
      </trkpt>
      <trkpt lat="42.630233" lon="-2.402683">
        <ele>1183.0</ele>
        <time>2013-06-22T12:47:22Z</time>
      </trkpt>
      <trkpt lat="42.630200" lon="-2.402783">
        <ele>1184.0</ele>
        <time>2013-06-22T12:47:23Z</time>
      </trkpt>
      <trkpt lat="42.630167" lon="-2.402867">
        <ele>1185.0</ele>
        <time>2013-06-22T12:47:24Z</time>
      </trkpt>
      <trkpt lat="42.630150" lon="-2.402950">
        <ele>1186.0</ele>
        <time>2013-06-22T12:47:25Z</time>
      </trkpt>
      <trkpt lat="42.630117" lon="-2.403050">
        <ele>1186.0</ele>
        <time>2013-06-22T12:47:26Z</time>
      </trkpt>
      <trkpt lat="42.630100" lon="-2.403150">
        <ele>1183.0</ele>
        <time>2013-06-22T12:47:27Z</time>
      </trkpt>
      <trkpt lat="42.630100" lon="-2.403267">
        <ele>1181.0</ele>
        <time>2013-06-22T12:47:28Z</time>
      </trkpt>
      <trkpt lat="42.630083" lon="-2.403383">
        <ele>1180.0</ele>
        <time>2013-06-22T12:47:29Z</time>
      </trkpt>
      <trkpt lat="42.630083" lon="-2.403467">
        <ele>1180.0</ele>
        <time>2013-06-22T12:47:30Z</time>
      </trkpt>
      <trkpt lat="42.630067" lon="-2.403550">
        <ele>1180.0</ele>
        <time>2013-06-22T12:47:31Z</time>
      </trkpt>
      <trkpt lat="42.630050" lon="-2.403633">
        <ele>1180.0</ele>
        <time>2013-06-22T12:47:32Z</time>
      </trkpt>
      <trkpt lat="42.630017" lon="-2.403733">
        <ele>1179.0</ele>
        <time>2013-06-22T12:47:33Z</time>
      </trkpt>
      <trkpt lat="42.630000" lon="-2.403833">
        <ele>1178.0</ele>
        <time>2013-06-22T12:47:34Z</time>
      </trkpt>
      <trkpt lat="42.629983" lon="-2.403933">
        <ele>1178.0</ele>
        <time>2013-06-22T12:47:35Z</time>
      </trkpt>
      <trkpt lat="42.629967" lon="-2.404033">
        <ele>1178.0</ele>
        <time>2013-06-22T12:47:36Z</time>
      </trkpt>
      <trkpt lat="42.629933" lon="-2.404117">
        <ele>1178.0</ele>
        <time>2013-06-22T12:47:37Z</time>
      </trkpt>
      <trkpt lat="42.629900" lon="-2.404217">
        <ele>1178.0</ele>
        <time>2013-06-22T12:47:38Z</time>
      </trkpt>
      <trkpt lat="42.629867" lon="-2.404317">
        <ele>1177.0</ele>
        <time>2013-06-22T12:47:39Z</time>
      </trkpt>
      <trkpt lat="42.629833" lon="-2.404433">
        <ele>1177.0</ele>
        <time>2013-06-22T12:47:40Z</time>
      </trkpt>
      <trkpt lat="42.629800" lon="-2.404533">
        <ele>1176.0</ele>
        <time>2013-06-22T12:47:41Z</time>
      </trkpt>
      <trkpt lat="42.629783" lon="-2.404633">
        <ele>1176.0</ele>
        <time>2013-06-22T12:47:42Z</time>
      </trkpt>
      <trkpt lat="42.629750" lon="-2.404750">
        <ele>1175.0</ele>
        <time>2013-06-22T12:47:43Z</time>
      </trkpt>
      <trkpt lat="42.629717" lon="-2.404867">
        <ele>1174.0</ele>
        <time>2013-06-22T12:47:44Z</time>
      </trkpt>
      <trkpt lat="42.629700" lon="-2.404983">
        <ele>1174.0</ele>
        <time>2013-06-22T12:47:45Z</time>
      </trkpt>
      <trkpt lat="42.629683" lon="-2.405083">
        <ele>1174.0</ele>
        <time>2013-06-22T12:47:46Z</time>
      </trkpt>
      <trkpt lat="42.629667" lon="-2.405183">
        <ele>1175.0</ele>
        <time>2013-06-22T12:47:47Z</time>
      </trkpt>
      <trkpt lat="42.629650" lon="-2.405267">
        <ele>1175.0</ele>
        <time>2013-06-22T12:47:48Z</time>
      </trkpt>
      <trkpt lat="42.629633" lon="-2.405367">
        <ele>1175.0</ele>
        <time>2013-06-22T12:47:49Z</time>
      </trkpt>
      <trkpt lat="42.629617" lon="-2.405467">
        <ele>1175.0</ele>
        <time>2013-06-22T12:47:50Z</time>
      </trkpt>
      <trkpt lat="42.629600" lon="-2.405583">
        <ele>1175.0</ele>
        <time>2013-06-22T12:47:51Z</time>
      </trkpt>
      <trkpt lat="42.629600" lon="-2.405667">
        <ele>1176.0</ele>
        <time>2013-06-22T12:47:52Z</time>
      </trkpt>
      <trkpt lat="42.629583" lon="-2.405750">
        <ele>1177.0</ele>
        <time>2013-06-22T12:47:53Z</time>
      </trkpt>
      <trkpt lat="42.629583" lon="-2.405833">
        <ele>1178.0</ele>
        <time>2013-06-22T12:47:54Z</time>
      </trkpt>
      <trkpt lat="42.629583" lon="-2.405917">
        <ele>1179.0</ele>
        <time>2013-06-22T12:47:55Z</time>
      </trkpt>
      <trkpt lat="42.629583" lon="-2.406000">
        <ele>1179.0</ele>
        <time>2013-06-22T12:47:56Z</time>
      </trkpt>
      <trkpt lat="42.629583" lon="-2.406083">
        <ele>1178.0</ele>
        <time>2013-06-22T12:47:57Z</time>
      </trkpt>
      <trkpt lat="42.629600" lon="-2.406183">
        <ele>1177.0</ele>
        <time>2013-06-22T12:47:58Z</time>
      </trkpt>
      <trkpt lat="42.629617" lon="-2.406267">
        <ele>1177.0</ele>
        <time>2013-06-22T12:47:59Z</time>
      </trkpt>
      <trkpt lat="42.629633" lon="-2.406350">
        <ele>1177.0</ele>
        <time>2013-06-22T12:48:00Z</time>
      </trkpt>
      <trkpt lat="42.629650" lon="-2.406433">
        <ele>1178.0</ele>
        <time>2013-06-22T12:48:01Z</time>
      </trkpt>
      <trkpt lat="42.629667" lon="-2.406500">
        <ele>1178.0</ele>
        <time>2013-06-22T12:48:02Z</time>
      </trkpt>
      <trkpt lat="42.629700" lon="-2.406567">
        <ele>1178.0</ele>
        <time>2013-06-22T12:48:03Z</time>
      </trkpt>
      <trkpt lat="42.629750" lon="-2.406600">
        <ele>1177.0</ele>
        <time>2013-06-22T12:48:04Z</time>
      </trkpt>
      <trkpt lat="42.629817" lon="-2.406617">
        <ele>1176.0</ele>
        <time>2013-06-22T12:48:05Z</time>
      </trkpt>
      <trkpt lat="42.629883" lon="-2.406600">
        <ele>1175.0</ele>
        <time>2013-06-22T12:48:06Z</time>
      </trkpt>
      <trkpt lat="42.629933" lon="-2.406550">
        <ele>1176.0</ele>
        <time>2013-06-22T12:48:07Z</time>
      </trkpt>
      <trkpt lat="42.629967" lon="-2.406500">
        <ele>1176.0</ele>
        <time>2013-06-22T12:48:08Z</time>
      </trkpt>
      <trkpt lat="42.630017" lon="-2.406450">
        <ele>1176.0</ele>
        <time>2013-06-22T12:48:09Z</time>
      </trkpt>
      <trkpt lat="42.630050" lon="-2.406383">
        <ele>1175.0</ele>
        <time>2013-06-22T12:48:10Z</time>
      </trkpt>
      <trkpt lat="42.630083" lon="-2.406317">
        <ele>1174.0</ele>
        <time>2013-06-22T12:48:11Z</time>
      </trkpt>
      <trkpt lat="42.630133" lon="-2.406233">
        <ele>1173.0</ele>
        <time>2013-06-22T12:48:12Z</time>
      </trkpt>
      <trkpt lat="42.630167" lon="-2.406150">
        <ele>1171.0</ele>
        <time>2013-06-22T12:48:13Z</time>
      </trkpt>
      <trkpt lat="42.630200" lon="-2.406067">
        <ele>1169.0</ele>
        <time>2013-06-22T12:48:14Z</time>
      </trkpt>
      <trkpt lat="42.630233" lon="-2.405983">
        <ele>1168.0</ele>
        <time>2013-06-22T12:48:15Z</time>
      </trkpt>
      <trkpt lat="42.630267" lon="-2.405917">
        <ele>1167.0</ele>
        <time>2013-06-22T12:48:16Z</time>
      </trkpt>
      <trkpt lat="42.630300" lon="-2.405833">
        <ele>1167.0</ele>
        <time>2013-06-22T12:48:17Z</time>
      </trkpt>
      <trkpt lat="42.630300" lon="-2.405767">
        <ele>1166.0</ele>
        <time>2013-06-22T12:48:18Z</time>
      </trkpt>
      <trkpt lat="42.630317" lon="-2.405683">
        <ele>1165.0</ele>
        <time>2013-06-22T12:48:19Z</time>
      </trkpt>
      <trkpt lat="42.630350" lon="-2.405567">
        <ele>1163.0</ele>
        <time>2013-06-22T12:48:20Z</time>
      </trkpt>
      <trkpt lat="42.630367" lon="-2.405450">
        <ele>1161.0</ele>
        <time>2013-06-22T12:48:21Z</time>
      </trkpt>
      <trkpt lat="42.630383" lon="-2.405350">
        <ele>1160.0</ele>
        <time>2013-06-22T12:48:22Z</time>
      </trkpt>
      <trkpt lat="42.630400" lon="-2.405267">
        <ele>1161.0</ele>
        <time>2013-06-22T12:48:23Z</time>
      </trkpt>
      <trkpt lat="42.630400" lon="-2.405183">
        <ele>1162.0</ele>
        <time>2013-06-22T12:48:24Z</time>
      </trkpt>
      <trkpt lat="42.630400" lon="-2.405083">
        <ele>1162.0</ele>
        <time>2013-06-22T12:48:25Z</time>
      </trkpt>
      <trkpt lat="42.630400" lon="-2.404983">
        <ele>1161.0</ele>
        <time>2013-06-22T12:48:26Z</time>
      </trkpt>
      <trkpt lat="42.630383" lon="-2.404867">
        <ele>1160.0</ele>
        <time>2013-06-22T12:48:27Z</time>
      </trkpt>
      <trkpt lat="42.630367" lon="-2.404750">
        <ele>1160.0</ele>
        <time>2013-06-22T12:48:28Z</time>
      </trkpt>
      <trkpt lat="42.630333" lon="-2.404650">
        <ele>1161.0</ele>
        <time>2013-06-22T12:48:29Z</time>
      </trkpt>
      <trkpt lat="42.630300" lon="-2.404567">
        <ele>1162.0</ele>
        <time>2013-06-22T12:48:30Z</time>
      </trkpt>
      <trkpt lat="42.630250" lon="-2.404467">
        <ele>1163.0</ele>
        <time>2013-06-22T12:48:31Z</time>
      </trkpt>
      <trkpt lat="42.630183" lon="-2.404367">
        <ele>1164.0</ele>
        <time>2013-06-22T12:48:32Z</time>
      </trkpt>
      <trkpt lat="42.630133" lon="-2.404283">
        <ele>1164.0</ele>
        <time>2013-06-22T12:48:33Z</time>
      </trkpt>
      <trkpt lat="42.630067" lon="-2.404167">
        <ele>1165.0</ele>
        <time>2013-06-22T12:48:34Z</time>
      </trkpt>
      <trkpt lat="42.630017" lon="-2.404067">
        <ele>1166.0</ele>
        <time>2013-06-22T12:48:35Z</time>
      </trkpt>
      <trkpt lat="42.629983" lon="-2.403967">
        <ele>1167.0</ele>
        <time>2013-06-22T12:48:36Z</time>
      </trkpt>
      <trkpt lat="42.629933" lon="-2.403850">
        <ele>1167.0</ele>
        <time>2013-06-22T12:48:37Z</time>
      </trkpt>
      <trkpt lat="42.629900" lon="-2.403733">
        <ele>1167.0</ele>
        <time>2013-06-22T12:48:38Z</time>
      </trkpt>
      <trkpt lat="42.629883" lon="-2.403600">
        <ele>1167.0</ele>
        <time>2013-06-22T12:48:39Z</time>
      </trkpt>
      <trkpt lat="42.629867" lon="-2.403483">
        <ele>1166.0</ele>
        <time>2013-06-22T12:48:40Z</time>
      </trkpt>
      <trkpt lat="42.629850" lon="-2.403367">
        <ele>1167.0</ele>
        <time>2013-06-22T12:48:41Z</time>
      </trkpt>
      <trkpt lat="42.629833" lon="-2.403250">
        <ele>1168.0</ele>
        <time>2013-06-22T12:48:42Z</time>
      </trkpt>
      <trkpt lat="42.629817" lon="-2.403167">
        <ele>1169.0</ele>
        <time>2013-06-22T12:48:43Z</time>
      </trkpt>
      <trkpt lat="42.629833" lon="-2.403067">
        <ele>1170.0</ele>
        <time>2013-06-22T12:48:44Z</time>
      </trkpt>
      <trkpt lat="42.629833" lon="-2.402983">
        <ele>1170.0</ele>
        <time>2013-06-22T12:48:45Z</time>
      </trkpt>
      <trkpt lat="42.629867" lon="-2.402900">
        <ele>1170.0</ele>
        <time>2013-06-22T12:48:46Z</time>
      </trkpt>
      <trkpt lat="42.629900" lon="-2.402833">
        <ele>1170.0</ele>
        <time>2013-06-22T12:48:47Z</time>
      </trkpt>
      <trkpt lat="42.629917" lon="-2.402767">
        <ele>1171.0</ele>
        <time>2013-06-22T12:48:48Z</time>
      </trkpt>
      <trkpt lat="42.629950" lon="-2.402717">
        <ele>1172.0</ele>
        <time>2013-06-22T12:48:49Z</time>
      </trkpt>
      <trkpt lat="42.629967" lon="-2.402667">
        <ele>1173.0</ele>
        <time>2013-06-22T12:48:50Z</time>
      </trkpt>
      <trkpt lat="42.629983" lon="-2.402617">
        <ele>1173.0</ele>
        <time>2013-06-22T12:48:51Z</time>
      </trkpt>
      <trkpt lat="42.630033" lon="-2.402583">
        <ele>1173.0</ele>
        <time>2013-06-22T12:48:52Z</time>
      </trkpt>
      <trkpt lat="42.630067" lon="-2.402550">
        <ele>1172.0</ele>
        <time>2013-06-22T12:48:53Z</time>
      </trkpt>
      <trkpt lat="42.630117" lon="-2.402533">
        <ele>1173.0</ele>
        <time>2013-06-22T12:48:54Z</time>
      </trkpt>
      <trkpt lat="42.630150" lon="-2.402533">
        <ele>1173.0</ele>
        <time>2013-06-22T12:48:55Z</time>
      </trkpt>
      <trkpt lat="42.630167" lon="-2.402517">
        <ele>1174.0</ele>
        <time>2013-06-22T12:48:56Z</time>
      </trkpt>
      <trkpt lat="42.630200" lon="-2.402533">
        <ele>1176.0</ele>
        <time>2013-06-22T12:48:57Z</time>
      </trkpt>
      <trkpt lat="42.630233" lon="-2.402550">
        <ele>1177.0</ele>
        <time>2013-06-22T12:48:58Z</time>
      </trkpt>
      <trkpt lat="42.630250" lon="-2.402583">
        <ele>1177.0</ele>
        <time>2013-06-22T12:48:59Z</time>
      </trkpt>
      <trkpt lat="42.630283" lon="-2.402650">
        <ele>1178.0</ele>
        <time>2013-06-22T12:49:00Z</time>
      </trkpt>
      <trkpt lat="42.630317" lon="-2.402717">
        <ele>1181.0</ele>
        <time>2013-06-22T12:49:01Z</time>
      </trkpt>
      <trkpt lat="42.630317" lon="-2.402817">
        <ele>1184.0</ele>
        <time>2013-06-22T12:49:02Z</time>
      </trkpt>
      <trkpt lat="42.630283" lon="-2.402917">
        <ele>1187.0</ele>
        <time>2013-06-22T12:49:03Z</time>
      </trkpt>
      <trkpt lat="42.630217" lon="-2.403033">
        <ele>1189.0</ele>
        <time>2013-06-22T12:49:04Z</time>
      </trkpt>
      <trkpt lat="42.630167" lon="-2.403133">
        <ele>1191.0</ele>
        <time>2013-06-22T12:49:05Z</time>
      </trkpt>
      <trkpt lat="42.630067" lon="-2.403233">
        <ele>1192.0</ele>
        <time>2013-06-22T12:49:06Z</time>
      </trkpt>
      <trkpt lat="42.629967" lon="-2.403317">
        <ele>1194.0</ele>
        <time>2013-06-22T12:49:07Z</time>
      </trkpt>
      <trkpt lat="42.629817" lon="-2.403350">
        <ele>1195.0</ele>
        <time>2013-06-22T12:49:08Z</time>
      </trkpt>
      <trkpt lat="42.629683" lon="-2.403333">
        <ele>1196.0</ele>
        <time>2013-06-22T12:49:09Z</time>
      </trkpt>
      <trkpt lat="42.629550" lon="-2.403283">
        <ele>1196.0</ele>
        <time>2013-06-22T12:49:10Z</time>
      </trkpt>
      <trkpt lat="42.629450" lon="-2.403200">
        <ele>1198.0</ele>
        <time>2013-06-22T12:49:11Z</time>
      </trkpt>
      <trkpt lat="42.629400" lon="-2.403100">
        <ele>1200.0</ele>
        <time>2013-06-22T12:49:12Z</time>
      </trkpt>
      <trkpt lat="42.629367" lon="-2.403017">
        <ele>1202.0</ele>
        <time>2013-06-22T12:49:13Z</time>
      </trkpt>
      <trkpt lat="42.629350" lon="-2.402933">
        <ele>1204.0</ele>
        <time>2013-06-22T12:49:14Z</time>
      </trkpt>
      <trkpt lat="42.629367" lon="-2.402867">
        <ele>1205.0</ele>
        <time>2013-06-22T12:49:15Z</time>
      </trkpt>
      <trkpt lat="42.629383" lon="-2.402800">
        <ele>1206.0</ele>
        <time>2013-06-22T12:49:16Z</time>
      </trkpt>
      <trkpt lat="42.629400" lon="-2.402767">
        <ele>1207.0</ele>
        <time>2013-06-22T12:49:17Z</time>
      </trkpt>
      <trkpt lat="42.629433" lon="-2.402750">
        <ele>1209.0</ele>
        <time>2013-06-22T12:49:18Z</time>
      </trkpt>
      <trkpt lat="42.629467" lon="-2.402733">
        <ele>1212.0</ele>
        <time>2013-06-22T12:49:19Z</time>
      </trkpt>
      <trkpt lat="42.629500" lon="-2.402733">
        <ele>1215.0</ele>
        <time>2013-06-22T12:49:20Z</time>
      </trkpt>
      <trkpt lat="42.629533" lon="-2.402750">
        <ele>1217.0</ele>
        <time>2013-06-22T12:49:21Z</time>
      </trkpt>
      <trkpt lat="42.629583" lon="-2.402767">
        <ele>1219.0</ele>
        <time>2013-06-22T12:49:22Z</time>
      </trkpt>
      <trkpt lat="42.629633" lon="-2.402783">
        <ele>1221.0</ele>
        <time>2013-06-22T12:49:23Z</time>
      </trkpt>
      <trkpt lat="42.629667" lon="-2.402850">
        <ele>1224.0</ele>
        <time>2013-06-22T12:49:24Z</time>
      </trkpt>
      <trkpt lat="42.629700" lon="-2.402917">
        <ele>1227.0</ele>
        <time>2013-06-22T12:49:25Z</time>
      </trkpt>
      <trkpt lat="42.629717" lon="-2.403000">
        <ele>1230.0</ele>
        <time>2013-06-22T12:49:26Z</time>
      </trkpt>
      <trkpt lat="42.629717" lon="-2.403100">
        <ele>1235.0</ele>
        <time>2013-06-22T12:49:27Z</time>
      </trkpt>
      <trkpt lat="42.629717" lon="-2.403183">
        <ele>1238.0</ele>
        <time>2013-06-22T12:49:28Z</time>
      </trkpt>
      <trkpt lat="42.629700" lon="-2.403267">
        <ele>1241.0</ele>
        <time>2013-06-22T12:49:29Z</time>
      </trkpt>
      <trkpt lat="42.629717" lon="-2.403350">
        <ele>1243.0</ele>
        <time>2013-06-22T12:49:30Z</time>
      </trkpt>
      <trkpt lat="42.629733" lon="-2.403433">
        <ele>1243.0</ele>
        <time>2013-06-22T12:49:31Z</time>
      </trkpt>
      <trkpt lat="42.629733" lon="-2.403517">
        <ele>1244.0</ele>
        <time>2013-06-22T12:49:32Z</time>
      </trkpt>
      <trkpt lat="42.629733" lon="-2.403617">
        <ele>1244.0</ele>
        <time>2013-06-22T12:49:33Z</time>
      </trkpt>
      <trkpt lat="42.629700" lon="-2.403717">
        <ele>1243.0</ele>
        <time>2013-06-22T12:49:34Z</time>
      </trkpt>
      <trkpt lat="42.629650" lon="-2.403833">
        <ele>1243.0</ele>
        <time>2013-06-22T12:49:35Z</time>
      </trkpt>
      <trkpt lat="42.629583" lon="-2.403933">
        <ele>1242.0</ele>
        <time>2013-06-22T12:49:36Z</time>
      </trkpt>
      <trkpt lat="42.629500" lon="-2.404017">
        <ele>1242.0</ele>
        <time>2013-06-22T12:49:37Z</time>
      </trkpt>
      <trkpt lat="42.629383" lon="-2.404083">
        <ele>1242.0</ele>
        <time>2013-06-22T12:49:38Z</time>
      </trkpt>
      <trkpt lat="42.629267" lon="-2.404083">
        <ele>1241.0</ele>
        <time>2013-06-22T12:49:39Z</time>
      </trkpt>
      <trkpt lat="42.629150" lon="-2.404050">
        <ele>1240.0</ele>
        <time>2013-06-22T12:49:40Z</time>
      </trkpt>
      <trkpt lat="42.629050" lon="-2.403983">
        <ele>1240.0</ele>
        <time>2013-06-22T12:49:41Z</time>
      </trkpt>
      <trkpt lat="42.628967" lon="-2.403900">
        <ele>1241.0</ele>
        <time>2013-06-22T12:49:42Z</time>
      </trkpt>
      <trkpt lat="42.628883" lon="-2.403833">
        <ele>1241.0</ele>
        <time>2013-06-22T12:49:43Z</time>
      </trkpt>
      <trkpt lat="42.628817" lon="-2.403733">
        <ele>1241.0</ele>
        <time>2013-06-22T12:49:44Z</time>
      </trkpt>
      <trkpt lat="42.628750" lon="-2.403633">
        <ele>1240.0</ele>
        <time>2013-06-22T12:49:45Z</time>
      </trkpt>
      <trkpt lat="42.628700" lon="-2.403517">
        <ele>1239.0</ele>
        <time>2013-06-22T12:49:46Z</time>
      </trkpt>
      <trkpt lat="42.628683" lon="-2.403400">
        <ele>1238.0</ele>
        <time>2013-06-22T12:49:47Z</time>
      </trkpt>
      <trkpt lat="42.628667" lon="-2.403283">
        <ele>1239.0</ele>
        <time>2013-06-22T12:49:48Z</time>
      </trkpt>
      <trkpt lat="42.628667" lon="-2.403200">
        <ele>1239.0</ele>
        <time>2013-06-22T12:49:49Z</time>
      </trkpt>
      <trkpt lat="42.628683" lon="-2.403100">
        <ele>1241.0</ele>
        <time>2013-06-22T12:49:50Z</time>
      </trkpt>
      <trkpt lat="42.628700" lon="-2.403017">
        <ele>1243.0</ele>
        <time>2013-06-22T12:49:51Z</time>
      </trkpt>
      <trkpt lat="42.628717" lon="-2.402950">
        <ele>1245.0</ele>
        <time>2013-06-22T12:49:52Z</time>
      </trkpt>
      <trkpt lat="42.628750" lon="-2.402900">
        <ele>1248.0</ele>
        <time>2013-06-22T12:49:53Z</time>
      </trkpt>
      <trkpt lat="42.628767" lon="-2.402867">
        <ele>1250.0</ele>
        <time>2013-06-22T12:49:54Z</time>
      </trkpt>
      <trkpt lat="42.628800" lon="-2.402817">
        <ele>1252.0</ele>
        <time>2013-06-22T12:49:55Z</time>
      </trkpt>
      <trkpt lat="42.628817" lon="-2.402783">
        <ele>1253.0</ele>
        <time>2013-06-22T12:49:56Z</time>
      </trkpt>
      <trkpt lat="42.628850" lon="-2.402750">
        <ele>1255.0</ele>
        <time>2013-06-22T12:49:57Z</time>
      </trkpt>
      <trkpt lat="42.628883" lon="-2.402733">
        <ele>1257.0</ele>
        <time>2013-06-22T12:49:58Z</time>
      </trkpt>
      <trkpt lat="42.628933" lon="-2.402733">
        <ele>1258.0</ele>
        <time>2013-06-22T12:49:59Z</time>
      </trkpt>
      <trkpt lat="42.628983" lon="-2.402767">
        <ele>1259.0</ele>
        <time>2013-06-22T12:50:00Z</time>
      </trkpt>
      <trkpt lat="42.629017" lon="-2.402817">
        <ele>1260.0</ele>
        <time>2013-06-22T12:50:01Z</time>
      </trkpt>
      <trkpt lat="42.629050" lon="-2.402867">
        <ele>1262.0</ele>
        <time>2013-06-22T12:50:02Z</time>
      </trkpt>
      <trkpt lat="42.629050" lon="-2.402967">
        <ele>1264.0</ele>
        <time>2013-06-22T12:50:03Z</time>
      </trkpt>
      <trkpt lat="42.629033" lon="-2.403050">
        <ele>1266.0</ele>
        <time>2013-06-22T12:50:04Z</time>
      </trkpt>
      <trkpt lat="42.629017" lon="-2.403167">
        <ele>1268.0</ele>
        <time>2013-06-22T12:50:05Z</time>
      </trkpt>
      <trkpt lat="42.628967" lon="-2.403250">
        <ele>1269.0</ele>
        <time>2013-06-22T12:50:06Z</time>
      </trkpt>
      <trkpt lat="42.628900" lon="-2.403350">
        <ele>1270.0</ele>
        <time>2013-06-22T12:50:07Z</time>
      </trkpt>
      <trkpt lat="42.628817" lon="-2.403433">
        <ele>1271.0</ele>
        <time>2013-06-22T12:50:08Z</time>
      </trkpt>
      <trkpt lat="42.628750" lon="-2.403517">
        <ele>1270.0</ele>
        <time>2013-06-22T12:50:09Z</time>
      </trkpt>
      <trkpt lat="42.628667" lon="-2.403583">
        <ele>1268.0</ele>
        <time>2013-06-22T12:50:10Z</time>
      </trkpt>
      <trkpt lat="42.628567" lon="-2.403633">
        <ele>1267.0</ele>
        <time>2013-06-22T12:50:11Z</time>
      </trkpt>
      <trkpt lat="42.628450" lon="-2.403650">
        <ele>1267.0</ele>
        <time>2013-06-22T12:50:12Z</time>
      </trkpt>
      <trkpt lat="42.628333" lon="-2.403617">
        <ele>1266.0</ele>
        <time>2013-06-22T12:50:13Z</time>
      </trkpt>
      <trkpt lat="42.628217" lon="-2.403533">
        <ele>1264.0</ele>
        <time>2013-06-22T12:50:14Z</time>
      </trkpt>
      <trkpt lat="42.628133" lon="-2.403417">
        <ele>1263.0</ele>
        <time>2013-06-22T12:50:15Z</time>
      </trkpt>
      <trkpt lat="42.628083" lon="-2.403300">
        <ele>1262.0</ele>
        <time>2013-06-22T12:50:16Z</time>
      </trkpt>
      <trkpt lat="42.628033" lon="-2.403167">
        <ele>1261.0</ele>
        <time>2013-06-22T12:50:17Z</time>
      </trkpt>
      <trkpt lat="42.628017" lon="-2.403033">
        <ele>1261.0</ele>
        <time>2013-06-22T12:50:18Z</time>
      </trkpt>
      <trkpt lat="42.628033" lon="-2.402917">
        <ele>1260.0</ele>
        <time>2013-06-22T12:50:19Z</time>
      </trkpt>
      <trkpt lat="42.628067" lon="-2.402817">
        <ele>1261.0</ele>
        <time>2013-06-22T12:50:20Z</time>
      </trkpt>
      <trkpt lat="42.628100" lon="-2.402733">
        <ele>1262.0</ele>
        <time>2013-06-22T12:50:21Z</time>
      </trkpt>
      <trkpt lat="42.628150" lon="-2.402683">
        <ele>1266.0</ele>
        <time>2013-06-22T12:50:22Z</time>
      </trkpt>
      <trkpt lat="42.628167" lon="-2.402633">
        <ele>1269.0</ele>
        <time>2013-06-22T12:50:23Z</time>
      </trkpt>
      <trkpt lat="42.628183" lon="-2.402583">
        <ele>1271.0</ele>
        <time>2013-06-22T12:50:24Z</time>
      </trkpt>
      <trkpt lat="42.628217" lon="-2.402517">
        <ele>1272.0</ele>
        <time>2013-06-22T12:50:25Z</time>
      </trkpt>
      <trkpt lat="42.628250" lon="-2.402433">
        <ele>1272.0</ele>
        <time>2013-06-22T12:50:26Z</time>
      </trkpt>
      <trkpt lat="42.628300" lon="-2.402333">
        <ele>1272.0</ele>
        <time>2013-06-22T12:50:27Z</time>
      </trkpt>
      <trkpt lat="42.628333" lon="-2.402267">
        <ele>1273.0</ele>
        <time>2013-06-22T12:50:28Z</time>
      </trkpt>
      <trkpt lat="42.628367" lon="-2.402200">
        <ele>1275.0</ele>
        <time>2013-06-22T12:50:29Z</time>
      </trkpt>
      <trkpt lat="42.628383" lon="-2.402150">
        <ele>1276.0</ele>
        <time>2013-06-22T12:50:30Z</time>
      </trkpt>
      <trkpt lat="42.628400" lon="-2.402100">
        <ele>1277.0</ele>
        <time>2013-06-22T12:50:31Z</time>
      </trkpt>
      <trkpt lat="42.628450" lon="-2.402067">
        <ele>1277.0</ele>
        <time>2013-06-22T12:50:32Z</time>
      </trkpt>
      <trkpt lat="42.628483" lon="-2.402017">
        <ele>1276.0</ele>
        <time>2013-06-22T12:50:33Z</time>
      </trkpt>
      <trkpt lat="42.628533" lon="-2.401967">
        <ele>1275.0</ele>
        <time>2013-06-22T12:50:34Z</time>
      </trkpt>
      <trkpt lat="42.628567" lon="-2.401917">
        <ele>1275.0</ele>
        <time>2013-06-22T12:50:35Z</time>
      </trkpt>
      <trkpt lat="42.628617" lon="-2.401867">
        <ele>1274.0</ele>
        <time>2013-06-22T12:50:36Z</time>
      </trkpt>
      <trkpt lat="42.628650" lon="-2.401817">
        <ele>1274.0</ele>
        <time>2013-06-22T12:50:37Z</time>
      </trkpt>
      <trkpt lat="42.628700" lon="-2.401783">
        <ele>1273.0</ele>
        <time>2013-06-22T12:50:38Z</time>
      </trkpt>
      <trkpt lat="42.628750" lon="-2.401733">
        <ele>1272.0</ele>
        <time>2013-06-22T12:50:39Z</time>
      </trkpt>
      <trkpt lat="42.628783" lon="-2.401683">
        <ele>1271.0</ele>
        <time>2013-06-22T12:50:40Z</time>
      </trkpt>
      <trkpt lat="42.628833" lon="-2.401633">
        <ele>1272.0</ele>
        <time>2013-06-22T12:50:41Z</time>
      </trkpt>
      <trkpt lat="42.628883" lon="-2.401600">
        <ele>1272.0</ele>
        <time>2013-06-22T12:50:42Z</time>
      </trkpt>
      <trkpt lat="42.628917" lon="-2.401567">
        <ele>1273.0</ele>
        <time>2013-06-22T12:50:43Z</time>
      </trkpt>
      <trkpt lat="42.628967" lon="-2.401533">
        <ele>1272.0</ele>
        <time>2013-06-22T12:50:44Z</time>
      </trkpt>
      <trkpt lat="42.629000" lon="-2.401500">
        <ele>1271.0</ele>
        <time>2013-06-22T12:50:45Z</time>
      </trkpt>
      <trkpt lat="42.629050" lon="-2.401467">
        <ele>1269.0</ele>
        <time>2013-06-22T12:50:46Z</time>
      </trkpt>
      <trkpt lat="42.629100" lon="-2.401417">
        <ele>1268.0</ele>
        <time>2013-06-22T12:50:47Z</time>
      </trkpt>
      <trkpt lat="42.629150" lon="-2.401400">
        <ele>1267.0</ele>
        <time>2013-06-22T12:50:48Z</time>
      </trkpt>
      <trkpt lat="42.629183" lon="-2.401383">
        <ele>1267.0</ele>
        <time>2013-06-22T12:50:49Z</time>
      </trkpt>
      <trkpt lat="42.629233" lon="-2.401383">
        <ele>1267.0</ele>
        <time>2013-06-22T12:50:50Z</time>
      </trkpt>
      <trkpt lat="42.629283" lon="-2.401383">
        <ele>1266.0</ele>
        <time>2013-06-22T12:50:51Z</time>
      </trkpt>
      <trkpt lat="42.629333" lon="-2.401383">
        <ele>1265.0</ele>
        <time>2013-06-22T12:50:52Z</time>
      </trkpt>
      <trkpt lat="42.629383" lon="-2.401367">
        <ele>1263.0</ele>
        <time>2013-06-22T12:50:53Z</time>
      </trkpt>
      <trkpt lat="42.629433" lon="-2.401383">
        <ele>1262.0</ele>
        <time>2013-06-22T12:50:54Z</time>
      </trkpt>
      <trkpt lat="42.629483" lon="-2.401383">
        <ele>1261.0</ele>
        <time>2013-06-22T12:50:55Z</time>
      </trkpt>
      <trkpt lat="42.629550" lon="-2.401400">
        <ele>1259.0</ele>
        <time>2013-06-22T12:50:56Z</time>
      </trkpt>
      <trkpt lat="42.629600" lon="-2.401417">
        <ele>1257.0</ele>
        <time>2013-06-22T12:50:57Z</time>
      </trkpt>
      <trkpt lat="42.629650" lon="-2.401417">
        <ele>1256.0</ele>
        <time>2013-06-22T12:50:58Z</time>
      </trkpt>
      <trkpt lat="42.629717" lon="-2.401400">
        <ele>1255.0</ele>
        <time>2013-06-22T12:50:59Z</time>
      </trkpt>
      <trkpt lat="42.629767" lon="-2.401400">
        <ele>1254.0</ele>
        <time>2013-06-22T12:51:00Z</time>
      </trkpt>
      <trkpt lat="42.629833" lon="-2.401383">
        <ele>1253.0</ele>
        <time>2013-06-22T12:51:01Z</time>
      </trkpt>
      <trkpt lat="42.629883" lon="-2.401367">
        <ele>1251.0</ele>
        <time>2013-06-22T12:51:02Z</time>
      </trkpt>
      <trkpt lat="42.629950" lon="-2.401350">
        <ele>1250.0</ele>
        <time>2013-06-22T12:51:03Z</time>
      </trkpt>
      <trkpt lat="42.630017" lon="-2.401333">
        <ele>1248.0</ele>
        <time>2013-06-22T12:51:04Z</time>
      </trkpt>
      <trkpt lat="42.630067" lon="-2.401300">
        <ele>1248.0</ele>
        <time>2013-06-22T12:51:05Z</time>
      </trkpt>
      <trkpt lat="42.630117" lon="-2.401267">
        <ele>1247.0</ele>
        <time>2013-06-22T12:51:06Z</time>
      </trkpt>
      <trkpt lat="42.630167" lon="-2.401233">
        <ele>1247.0</ele>
        <time>2013-06-22T12:51:07Z</time>
      </trkpt>
      <trkpt lat="42.630217" lon="-2.401200">
        <ele>1246.0</ele>
        <time>2013-06-22T12:51:08Z</time>
      </trkpt>
      <trkpt lat="42.630283" lon="-2.401167">
        <ele>1246.0</ele>
        <time>2013-06-22T12:51:09Z</time>
      </trkpt>
      <trkpt lat="42.630350" lon="-2.401133">
        <ele>1246.0</ele>
        <time>2013-06-22T12:51:10Z</time>
      </trkpt>
      <trkpt lat="42.630400" lon="-2.401100">
        <ele>1247.0</ele>
        <time>2013-06-22T12:51:11Z</time>
      </trkpt>
      <trkpt lat="42.630433" lon="-2.401067">
        <ele>1249.0</ele>
        <time>2013-06-22T12:51:12Z</time>
      </trkpt>
      <trkpt lat="42.630483" lon="-2.401033">
        <ele>1251.0</ele>
        <time>2013-06-22T12:51:13Z</time>
      </trkpt>
      <trkpt lat="42.630517" lon="-2.401000">
        <ele>1252.0</ele>
        <time>2013-06-22T12:51:14Z</time>
      </trkpt>
      <trkpt lat="42.630567" lon="-2.400983">
        <ele>1252.0</ele>
        <time>2013-06-22T12:51:15Z</time>
      </trkpt>
      <trkpt lat="42.630617" lon="-2.400967">
        <ele>1252.0</ele>
        <time>2013-06-22T12:51:16Z</time>
      </trkpt>
      <trkpt lat="42.630650" lon="-2.400950">
        <ele>1253.0</ele>
        <time>2013-06-22T12:51:17Z</time>
      </trkpt>
      <trkpt lat="42.630700" lon="-2.400917">
        <ele>1254.0</ele>
        <time>2013-06-22T12:51:18Z</time>
      </trkpt>
      <trkpt lat="42.630733" lon="-2.400883">
        <ele>1253.0</ele>
        <time>2013-06-22T12:51:19Z</time>
      </trkpt>
      <trkpt lat="42.630767" lon="-2.400867">
        <ele>1252.0</ele>
        <time>2013-06-22T12:51:20Z</time>
      </trkpt>
      <trkpt lat="42.630817" lon="-2.400833">
        <ele>1251.0</ele>
        <time>2013-06-22T12:51:21Z</time>
      </trkpt>
      <trkpt lat="42.630867" lon="-2.400783">
        <ele>1249.0</ele>
        <time>2013-06-22T12:51:22Z</time>
      </trkpt>
      <trkpt lat="42.630917" lon="-2.400733">
        <ele>1248.0</ele>
        <time>2013-06-22T12:51:23Z</time>
      </trkpt>
      <trkpt lat="42.630967" lon="-2.400683">
        <ele>1247.0</ele>
        <time>2013-06-22T12:51:24Z</time>
      </trkpt>
      <trkpt lat="42.631017" lon="-2.400617">
        <ele>1246.0</ele>
        <time>2013-06-22T12:51:25Z</time>
      </trkpt>
      <trkpt lat="42.631050" lon="-2.400550">
        <ele>1244.0</ele>
        <time>2013-06-22T12:51:26Z</time>
      </trkpt>
      <trkpt lat="42.631117" lon="-2.400483">
        <ele>1242.0</ele>
        <time>2013-06-22T12:51:27Z</time>
      </trkpt>
      <trkpt lat="42.631167" lon="-2.400433">
        <ele>1239.0</ele>
        <time>2013-06-22T12:51:28Z</time>
      </trkpt>
      <trkpt lat="42.631217" lon="-2.400367">
        <ele>1237.0</ele>
        <time>2013-06-22T12:51:29Z</time>
      </trkpt>
      <trkpt lat="42.631267" lon="-2.400317">
        <ele>1235.0</ele>
        <time>2013-06-22T12:51:30Z</time>
      </trkpt>
      <trkpt lat="42.631300" lon="-2.400250">
        <ele>1234.0</ele>
        <time>2013-06-22T12:51:31Z</time>
      </trkpt>
      <trkpt lat="42.631333" lon="-2.400183">
        <ele>1234.0</ele>
        <time>2013-06-22T12:51:32Z</time>
      </trkpt>
      <trkpt lat="42.631383" lon="-2.400117">
        <ele>1232.0</ele>
        <time>2013-06-22T12:51:33Z</time>
      </trkpt>
      <trkpt lat="42.631433" lon="-2.400050">
        <ele>1230.0</ele>
        <time>2013-06-22T12:51:34Z</time>
      </trkpt>
      <trkpt lat="42.631483" lon="-2.399967">
        <ele>1229.0</ele>
        <time>2013-06-22T12:51:35Z</time>
      </trkpt>
      <trkpt lat="42.631533" lon="-2.399883">
        <ele>1228.0</ele>
        <time>2013-06-22T12:51:36Z</time>
      </trkpt>
      <trkpt lat="42.631567" lon="-2.399800">
        <ele>1227.0</ele>
        <time>2013-06-22T12:51:37Z</time>
      </trkpt>
      <trkpt lat="42.631600" lon="-2.399717">
        <ele>1226.0</ele>
        <time>2013-06-22T12:51:38Z</time>
      </trkpt>
      <trkpt lat="42.631633" lon="-2.399633">
        <ele>1225.0</ele>
        <time>2013-06-22T12:51:39Z</time>
      </trkpt>
      <trkpt lat="42.631667" lon="-2.399533">
        <ele>1223.0</ele>
        <time>2013-06-22T12:51:40Z</time>
      </trkpt>
      <trkpt lat="42.631717" lon="-2.399450">
        <ele>1221.0</ele>
        <time>2013-06-22T12:51:41Z</time>
      </trkpt>
      <trkpt lat="42.631750" lon="-2.399367">
        <ele>1220.0</ele>
        <time>2013-06-22T12:51:42Z</time>
      </trkpt>
      <trkpt lat="42.631767" lon="-2.399300">
        <ele>1218.0</ele>
        <time>2013-06-22T12:51:43Z</time>
      </trkpt>
      <trkpt lat="42.631800" lon="-2.399217">
        <ele>1216.0</ele>
        <time>2013-06-22T12:51:44Z</time>
      </trkpt>
      <trkpt lat="42.631850" lon="-2.399150">
        <ele>1213.0</ele>
        <time>2013-06-22T12:51:45Z</time>
      </trkpt>
      <trkpt lat="42.631883" lon="-2.399050">
        <ele>1210.0</ele>
        <time>2013-06-22T12:51:46Z</time>
      </trkpt>
      <trkpt lat="42.631933" lon="-2.398967">
        <ele>1207.0</ele>
        <time>2013-06-22T12:51:47Z</time>
      </trkpt>
      <trkpt lat="42.631967" lon="-2.398900">
        <ele>1205.0</ele>
        <time>2013-06-22T12:51:48Z</time>
      </trkpt>
      <trkpt lat="42.632000" lon="-2.398817">
        <ele>1203.0</ele>
        <time>2013-06-22T12:51:49Z</time>
      </trkpt>
      <trkpt lat="42.632050" lon="-2.398733">
        <ele>1200.0</ele>
        <time>2013-06-22T12:51:50Z</time>
      </trkpt>
      <trkpt lat="42.632100" lon="-2.398667">
        <ele>1196.0</ele>
        <time>2013-06-22T12:51:51Z</time>
      </trkpt>
      <trkpt lat="42.632150" lon="-2.398583">
        <ele>1194.0</ele>
        <time>2013-06-22T12:51:52Z</time>
      </trkpt>
      <trkpt lat="42.632200" lon="-2.398500">
        <ele>1193.0</ele>
        <time>2013-06-22T12:51:53Z</time>
      </trkpt>
      <trkpt lat="42.632233" lon="-2.398450">
        <ele>1194.0</ele>
        <time>2013-06-22T12:51:54Z</time>
      </trkpt>
      <trkpt lat="42.632267" lon="-2.398417">
        <ele>1194.0</ele>
        <time>2013-06-22T12:51:55Z</time>
      </trkpt>
      <trkpt lat="42.632300" lon="-2.398400">
        <ele>1193.0</ele>
        <time>2013-06-22T12:51:56Z</time>
      </trkpt>
      <trkpt lat="42.632350" lon="-2.398367">
        <ele>1191.0</ele>
        <time>2013-06-22T12:51:57Z</time>
      </trkpt>
      <trkpt lat="42.632400" lon="-2.398317">
        <ele>1190.0</ele>
        <time>2013-06-22T12:51:58Z</time>
      </trkpt>
      <trkpt lat="42.632450" lon="-2.398283">
        <ele>1188.0</ele>
        <time>2013-06-22T12:51:59Z</time>
      </trkpt>
      <trkpt lat="42.632500" lon="-2.398233">
        <ele>1187.0</ele>
        <time>2013-06-22T12:52:00Z</time>
      </trkpt>
      <trkpt lat="42.632533" lon="-2.398200">
        <ele>1187.0</ele>
        <time>2013-06-22T12:52:01Z</time>
      </trkpt>
      <trkpt lat="42.632583" lon="-2.398167">
        <ele>1186.0</ele>
        <time>2013-06-22T12:52:02Z</time>
      </trkpt>
      <trkpt lat="42.632617" lon="-2.398117">
        <ele>1185.0</ele>
        <time>2013-06-22T12:52:03Z</time>
      </trkpt>
      <trkpt lat="42.632667" lon="-2.398067">
        <ele>1184.0</ele>
        <time>2013-06-22T12:52:04Z</time>
      </trkpt>
      <trkpt lat="42.632717" lon="-2.398033">
        <ele>1185.0</ele>
        <time>2013-06-22T12:52:05Z</time>
      </trkpt>
      <trkpt lat="42.632767" lon="-2.397983">
        <ele>1186.0</ele>
        <time>2013-06-22T12:52:06Z</time>
      </trkpt>
      <trkpt lat="42.632783" lon="-2.397950">
        <ele>1187.0</ele>
        <time>2013-06-22T12:52:07Z</time>
      </trkpt>
      <trkpt lat="42.632817" lon="-2.397917">
        <ele>1187.0</ele>
        <time>2013-06-22T12:52:08Z</time>
      </trkpt>
      <trkpt lat="42.632850" lon="-2.397867">
        <ele>1187.0</ele>
        <time>2013-06-22T12:52:09Z</time>
      </trkpt>
      <trkpt lat="42.632900" lon="-2.397817">
        <ele>1186.0</ele>
        <time>2013-06-22T12:52:10Z</time>
      </trkpt>
      <trkpt lat="42.632933" lon="-2.397767">
        <ele>1184.0</ele>
        <time>2013-06-22T12:52:11Z</time>
      </trkpt>
      <trkpt lat="42.632983" lon="-2.397717">
        <ele>1184.0</ele>
        <time>2013-06-22T12:52:12Z</time>
      </trkpt>
      <trkpt lat="42.633017" lon="-2.397667">
        <ele>1184.0</ele>
        <time>2013-06-22T12:52:13Z</time>
      </trkpt>
      <trkpt lat="42.633050" lon="-2.397600">
        <ele>1183.0</ele>
        <time>2013-06-22T12:52:14Z</time>
      </trkpt>
      <trkpt lat="42.633083" lon="-2.397533">
        <ele>1182.0</ele>
        <time>2013-06-22T12:52:15Z</time>
      </trkpt>
      <trkpt lat="42.633133" lon="-2.397467">
        <ele>1181.0</ele>
        <time>2013-06-22T12:52:16Z</time>
      </trkpt>
      <trkpt lat="42.633167" lon="-2.397400">
        <ele>1180.0</ele>
        <time>2013-06-22T12:52:17Z</time>
      </trkpt>
      <trkpt lat="42.633217" lon="-2.397333">
        <ele>1179.0</ele>
        <time>2013-06-22T12:52:18Z</time>
      </trkpt>
      <trkpt lat="42.633250" lon="-2.397267">
        <ele>1179.0</ele>
        <time>2013-06-22T12:52:19Z</time>
      </trkpt>
      <trkpt lat="42.633283" lon="-2.397200">
        <ele>1178.0</ele>
        <time>2013-06-22T12:52:20Z</time>
      </trkpt>
      <trkpt lat="42.633317" lon="-2.397133">
        <ele>1177.0</ele>
        <time>2013-06-22T12:52:21Z</time>
      </trkpt>
      <trkpt lat="42.633350" lon="-2.397050">
        <ele>1176.0</ele>
        <time>2013-06-22T12:52:22Z</time>
      </trkpt>
      <trkpt lat="42.633400" lon="-2.396967">
        <ele>1175.0</ele>
        <time>2013-06-22T12:52:23Z</time>
      </trkpt>
      <trkpt lat="42.633450" lon="-2.396900">
        <ele>1174.0</ele>
        <time>2013-06-22T12:52:24Z</time>
      </trkpt>
      <trkpt lat="42.633500" lon="-2.396833">
        <ele>1174.0</ele>
        <time>2013-06-22T12:52:25Z</time>
      </trkpt>
      <trkpt lat="42.633533" lon="-2.396767">
        <ele>1175.0</ele>
        <time>2013-06-22T12:52:26Z</time>
      </trkpt>
      <trkpt lat="42.633567" lon="-2.396700">
        <ele>1176.0</ele>
        <time>2013-06-22T12:52:27Z</time>
      </trkpt>
      <trkpt lat="42.633617" lon="-2.396633">
        <ele>1175.0</ele>
        <time>2013-06-22T12:52:28Z</time>
      </trkpt>
      <trkpt lat="42.633667" lon="-2.396550">
        <ele>1175.0</ele>
        <time>2013-06-22T12:52:29Z</time>
      </trkpt>
      <trkpt lat="42.633717" lon="-2.396483">
        <ele>1174.0</ele>
        <time>2013-06-22T12:52:30Z</time>
      </trkpt>
      <trkpt lat="42.633783" lon="-2.396417">
        <ele>1173.0</ele>
        <time>2013-06-22T12:52:31Z</time>
      </trkpt>
      <trkpt lat="42.633817" lon="-2.396350">
        <ele>1174.0</ele>
        <time>2013-06-22T12:52:32Z</time>
      </trkpt>
      <trkpt lat="42.633850" lon="-2.396300">
        <ele>1175.0</ele>
        <time>2013-06-22T12:52:33Z</time>
      </trkpt>
      <trkpt lat="42.633867" lon="-2.396250">
        <ele>1175.0</ele>
        <time>2013-06-22T12:52:34Z</time>
      </trkpt>
      <trkpt lat="42.633900" lon="-2.396183">
        <ele>1174.0</ele>
        <time>2013-06-22T12:52:35Z</time>
      </trkpt>
      <trkpt lat="42.633950" lon="-2.396133">
        <ele>1173.0</ele>
        <time>2013-06-22T12:52:36Z</time>
      </trkpt>
      <trkpt lat="42.634000" lon="-2.396067">
        <ele>1173.0</ele>
        <time>2013-06-22T12:52:37Z</time>
      </trkpt>
      <trkpt lat="42.634050" lon="-2.396017">
        <ele>1172.0</ele>
        <time>2013-06-22T12:52:38Z</time>
      </trkpt>
      <trkpt lat="42.634083" lon="-2.395950">
        <ele>1172.0</ele>
        <time>2013-06-22T12:52:39Z</time>
      </trkpt>
      <trkpt lat="42.634117" lon="-2.395883">
        <ele>1172.0</ele>
        <time>2013-06-22T12:52:40Z</time>
      </trkpt>
      <trkpt lat="42.634167" lon="-2.395817">
        <ele>1171.0</ele>
        <time>2013-06-22T12:52:41Z</time>
      </trkpt>
      <trkpt lat="42.634217" lon="-2.395733">
        <ele>1170.0</ele>
        <time>2013-06-22T12:52:42Z</time>
      </trkpt>
      <trkpt lat="42.634267" lon="-2.395650">
        <ele>1169.0</ele>
        <time>2013-06-22T12:52:43Z</time>
      </trkpt>
      <trkpt lat="42.634300" lon="-2.395550">
        <ele>1168.0</ele>
        <time>2013-06-22T12:52:44Z</time>
      </trkpt>
      <trkpt lat="42.634317" lon="-2.395467">
        <ele>1168.0</ele>
        <time>2013-06-22T12:52:45Z</time>
      </trkpt>
      <trkpt lat="42.634350" lon="-2.395367">
        <ele>1168.0</ele>
        <time>2013-06-22T12:52:46Z</time>
      </trkpt>
      <trkpt lat="42.634383" lon="-2.395283">
        <ele>1167.0</ele>
        <time>2013-06-22T12:52:47Z</time>
      </trkpt>
      <trkpt lat="42.634417" lon="-2.395183">
        <ele>1166.0</ele>
        <time>2013-06-22T12:52:48Z</time>
      </trkpt>
      <trkpt lat="42.634467" lon="-2.395067">
        <ele>1164.0</ele>
        <time>2013-06-22T12:52:49Z</time>
      </trkpt>
      <trkpt lat="42.634517" lon="-2.394983">
        <ele>1163.0</ele>
        <time>2013-06-22T12:52:50Z</time>
      </trkpt>
      <trkpt lat="42.634550" lon="-2.394900">
        <ele>1162.0</ele>
        <time>2013-06-22T12:52:51Z</time>
      </trkpt>
      <trkpt lat="42.634600" lon="-2.394817">
        <ele>1162.0</ele>
        <time>2013-06-22T12:52:52Z</time>
      </trkpt>
      <trkpt lat="42.634633" lon="-2.394750">
        <ele>1161.0</ele>
        <time>2013-06-22T12:52:53Z</time>
      </trkpt>
      <trkpt lat="42.634683" lon="-2.394667">
        <ele>1161.0</ele>
        <time>2013-06-22T12:52:54Z</time>
      </trkpt>
      <trkpt lat="42.634717" lon="-2.394567">
        <ele>1160.0</ele>
        <time>2013-06-22T12:52:55Z</time>
      </trkpt>
      <trkpt lat="42.634767" lon="-2.394483">
        <ele>1159.0</ele>
        <time>2013-06-22T12:52:56Z</time>
      </trkpt>
      <trkpt lat="42.634783" lon="-2.394400">
        <ele>1160.0</ele>
        <time>2013-06-22T12:52:57Z</time>
      </trkpt>
      <trkpt lat="42.634817" lon="-2.394317">
        <ele>1161.0</ele>
        <time>2013-06-22T12:52:58Z</time>
      </trkpt>
      <trkpt lat="42.634833" lon="-2.394250">
        <ele>1161.0</ele>
        <time>2013-06-22T12:52:59Z</time>
      </trkpt>
      <trkpt lat="42.634867" lon="-2.394183">
        <ele>1161.0</ele>
        <time>2013-06-22T12:53:00Z</time>
      </trkpt>
      <trkpt lat="42.634883" lon="-2.394100">
        <ele>1160.0</ele>
        <time>2013-06-22T12:53:01Z</time>
      </trkpt>
      <trkpt lat="42.634933" lon="-2.394017">
        <ele>1159.0</ele>
        <time>2013-06-22T12:53:02Z</time>
      </trkpt>
      <trkpt lat="42.634967" lon="-2.393933">
        <ele>1158.0</ele>
        <time>2013-06-22T12:53:03Z</time>
      </trkpt>
      <trkpt lat="42.634983" lon="-2.393850">
        <ele>1158.0</ele>
        <time>2013-06-22T12:53:04Z</time>
      </trkpt>
      <trkpt lat="42.635017" lon="-2.393783">
        <ele>1159.0</ele>
        <time>2013-06-22T12:53:05Z</time>
      </trkpt>
      <trkpt lat="42.635033" lon="-2.393700">
        <ele>1159.0</ele>
        <time>2013-06-22T12:53:06Z</time>
      </trkpt>
      <trkpt lat="42.635067" lon="-2.393617">
        <ele>1158.0</ele>
        <time>2013-06-22T12:53:07Z</time>
      </trkpt>
      <trkpt lat="42.635100" lon="-2.393533">
        <ele>1158.0</ele>
        <time>2013-06-22T12:53:08Z</time>
      </trkpt>
      <trkpt lat="42.635133" lon="-2.393467">
        <ele>1158.0</ele>
        <time>2013-06-22T12:53:09Z</time>
      </trkpt>
      <trkpt lat="42.635167" lon="-2.393400">
        <ele>1159.0</ele>
        <time>2013-06-22T12:53:10Z</time>
      </trkpt>
      <trkpt lat="42.635200" lon="-2.393317">
        <ele>1159.0</ele>
        <time>2013-06-22T12:53:11Z</time>
      </trkpt>
      <trkpt lat="42.635233" lon="-2.393250">
        <ele>1159.0</ele>
        <time>2013-06-22T12:53:12Z</time>
      </trkpt>
      <trkpt lat="42.635267" lon="-2.393150">
        <ele>1159.0</ele>
        <time>2013-06-22T12:53:13Z</time>
      </trkpt>
      <trkpt lat="42.635317" lon="-2.393067">
        <ele>1159.0</ele>
        <time>2013-06-22T12:53:14Z</time>
      </trkpt>
      <trkpt lat="42.635350" lon="-2.393000">
        <ele>1160.0</ele>
        <time>2013-06-22T12:53:15Z</time>
      </trkpt>
      <trkpt lat="42.635383" lon="-2.392917">
        <ele>1161.0</ele>
        <time>2013-06-22T12:53:16Z</time>
      </trkpt>
      <trkpt lat="42.635400" lon="-2.392867">
        <ele>1162.0</ele>
        <time>2013-06-22T12:53:17Z</time>
      </trkpt>
      <trkpt lat="42.635433" lon="-2.392783">
        <ele>1162.0</ele>
        <time>2013-06-22T12:53:18Z</time>
      </trkpt>
      <trkpt lat="42.635467" lon="-2.392717">
        <ele>1161.0</ele>
        <time>2013-06-22T12:53:19Z</time>
      </trkpt>
      <trkpt lat="42.635517" lon="-2.392617">
        <ele>1161.0</ele>
        <time>2013-06-22T12:53:20Z</time>
      </trkpt>
      <trkpt lat="42.635550" lon="-2.392550">
        <ele>1161.0</ele>
        <time>2013-06-22T12:53:21Z</time>
      </trkpt>
      <trkpt lat="42.635567" lon="-2.392483">
        <ele>1163.0</ele>
        <time>2013-06-22T12:53:22Z</time>
      </trkpt>
      <trkpt lat="42.635583" lon="-2.392433">
        <ele>1165.0</ele>
        <time>2013-06-22T12:53:23Z</time>
      </trkpt>
      <trkpt lat="42.635600" lon="-2.392367">
        <ele>1165.0</ele>
        <time>2013-06-22T12:53:24Z</time>
      </trkpt>
      <trkpt lat="42.635633" lon="-2.392300">
        <ele>1165.0</ele>
        <time>2013-06-22T12:53:25Z</time>
      </trkpt>
      <trkpt lat="42.635650" lon="-2.392233">
        <ele>1165.0</ele>
        <time>2013-06-22T12:53:26Z</time>
      </trkpt>
      <trkpt lat="42.635683" lon="-2.392167">
        <ele>1165.0</ele>
        <time>2013-06-22T12:53:27Z</time>
      </trkpt>
      <trkpt lat="42.635700" lon="-2.392100">
        <ele>1166.0</ele>
        <time>2013-06-22T12:53:28Z</time>
      </trkpt>
      <trkpt lat="42.635717" lon="-2.392033">
        <ele>1166.0</ele>
        <time>2013-06-22T12:53:29Z</time>
      </trkpt>
      <trkpt lat="42.635733" lon="-2.391967">
        <ele>1165.0</ele>
        <time>2013-06-22T12:53:30Z</time>
      </trkpt>
      <trkpt lat="42.635767" lon="-2.391867">
        <ele>1164.0</ele>
        <time>2013-06-22T12:53:31Z</time>
      </trkpt>
      <trkpt lat="42.635783" lon="-2.391767">
        <ele>1162.0</ele>
        <time>2013-06-22T12:53:32Z</time>
      </trkpt>
      <trkpt lat="42.635800" lon="-2.391683">
        <ele>1162.0</ele>
        <time>2013-06-22T12:53:33Z</time>
      </trkpt>
      <trkpt lat="42.635817" lon="-2.391617">
        <ele>1163.0</ele>
        <time>2013-06-22T12:53:34Z</time>
      </trkpt>
      <trkpt lat="42.635850" lon="-2.391550">
        <ele>1163.0</ele>
        <time>2013-06-22T12:53:35Z</time>
      </trkpt>
      <trkpt lat="42.635867" lon="-2.391483">
        <ele>1163.0</ele>
        <time>2013-06-22T12:53:36Z</time>
      </trkpt>
      <trkpt lat="42.635900" lon="-2.391400">
        <ele>1163.0</ele>
        <time>2013-06-22T12:53:37Z</time>
      </trkpt>
      <trkpt lat="42.635917" lon="-2.391317">
        <ele>1162.0</ele>
        <time>2013-06-22T12:53:38Z</time>
      </trkpt>
      <trkpt lat="42.635933" lon="-2.391233">
        <ele>1162.0</ele>
        <time>2013-06-22T12:53:39Z</time>
      </trkpt>
      <trkpt lat="42.635950" lon="-2.391150">
        <ele>1162.0</ele>
        <time>2013-06-22T12:53:40Z</time>
      </trkpt>
      <trkpt lat="42.635967" lon="-2.391083">
        <ele>1163.0</ele>
        <time>2013-06-22T12:53:41Z</time>
      </trkpt>
      <trkpt lat="42.635983" lon="-2.391000">
        <ele>1163.0</ele>
        <time>2013-06-22T12:53:42Z</time>
      </trkpt>
      <trkpt lat="42.636000" lon="-2.390900">
        <ele>1162.0</ele>
        <time>2013-06-22T12:53:43Z</time>
      </trkpt>
      <trkpt lat="42.636017" lon="-2.390817">
        <ele>1162.0</ele>
        <time>2013-06-22T12:53:44Z</time>
      </trkpt>
      <trkpt lat="42.636033" lon="-2.390733">
        <ele>1161.0</ele>
        <time>2013-06-22T12:53:45Z</time>
      </trkpt>
      <trkpt lat="42.636050" lon="-2.390650">
        <ele>1162.0</ele>
        <time>2013-06-22T12:53:46Z</time>
      </trkpt>
      <trkpt lat="42.636083" lon="-2.390583">
        <ele>1162.0</ele>
        <time>2013-06-22T12:53:47Z</time>
      </trkpt>
      <trkpt lat="42.636100" lon="-2.390517">
        <ele>1162.0</ele>
        <time>2013-06-22T12:53:48Z</time>
      </trkpt>
      <trkpt lat="42.636117" lon="-2.390450">
        <ele>1162.0</ele>
        <time>2013-06-22T12:53:49Z</time>
      </trkpt>
      <trkpt lat="42.636150" lon="-2.390383">
        <ele>1160.0</ele>
        <time>2013-06-22T12:53:50Z</time>
      </trkpt>
      <trkpt lat="42.636183" lon="-2.390300">
        <ele>1158.0</ele>
        <time>2013-06-22T12:53:51Z</time>
      </trkpt>
      <trkpt lat="42.636233" lon="-2.390200">
        <ele>1156.0</ele>
        <time>2013-06-22T12:53:52Z</time>
      </trkpt>
      <trkpt lat="42.636267" lon="-2.390117">
        <ele>1154.0</ele>
        <time>2013-06-22T12:53:53Z</time>
      </trkpt>
      <trkpt lat="42.636300" lon="-2.390050">
        <ele>1153.0</ele>
        <time>2013-06-22T12:53:54Z</time>
      </trkpt>
      <trkpt lat="42.636333" lon="-2.389983">
        <ele>1153.0</ele>
        <time>2013-06-22T12:53:55Z</time>
      </trkpt>
      <trkpt lat="42.636350" lon="-2.389917">
        <ele>1152.0</ele>
        <time>2013-06-22T12:53:56Z</time>
      </trkpt>
      <trkpt lat="42.636367" lon="-2.389833">
        <ele>1151.0</ele>
        <time>2013-06-22T12:53:57Z</time>
      </trkpt>
      <trkpt lat="42.636417" lon="-2.389750">
        <ele>1149.0</ele>
        <time>2013-06-22T12:53:58Z</time>
      </trkpt>
      <trkpt lat="42.636467" lon="-2.389667">
        <ele>1148.0</ele>
        <time>2013-06-22T12:53:59Z</time>
      </trkpt>
      <trkpt lat="42.636500" lon="-2.389600">
        <ele>1148.0</ele>
        <time>2013-06-22T12:54:00Z</time>
      </trkpt>
      <trkpt lat="42.636517" lon="-2.389550">
        <ele>1150.0</ele>
        <time>2013-06-22T12:54:01Z</time>
      </trkpt>
      <trkpt lat="42.636533" lon="-2.389483">
        <ele>1150.0</ele>
        <time>2013-06-22T12:54:02Z</time>
      </trkpt>
      <trkpt lat="42.636550" lon="-2.389417">
        <ele>1149.0</ele>
        <time>2013-06-22T12:54:03Z</time>
      </trkpt>
      <trkpt lat="42.636567" lon="-2.389333">
        <ele>1147.0</ele>
        <time>2013-06-22T12:54:04Z</time>
      </trkpt>
      <trkpt lat="42.636600" lon="-2.389233">
        <ele>1145.0</ele>
        <time>2013-06-22T12:54:05Z</time>
      </trkpt>
      <trkpt lat="42.636633" lon="-2.389150">
        <ele>1144.0</ele>
        <time>2013-06-22T12:54:06Z</time>
      </trkpt>
      <trkpt lat="42.636650" lon="-2.389067">
        <ele>1144.0</ele>
        <time>2013-06-22T12:54:07Z</time>
      </trkpt>
      <trkpt lat="42.636667" lon="-2.389000">
        <ele>1144.0</ele>
        <time>2013-06-22T12:54:08Z</time>
      </trkpt>
      <trkpt lat="42.636683" lon="-2.388917">
        <ele>1144.0</ele>
        <time>2013-06-22T12:54:09Z</time>
      </trkpt>
      <trkpt lat="42.636700" lon="-2.388833">
        <ele>1143.0</ele>
        <time>2013-06-22T12:54:10Z</time>
      </trkpt>
      <trkpt lat="42.636733" lon="-2.388733">
        <ele>1141.0</ele>
        <time>2013-06-22T12:54:11Z</time>
      </trkpt>
      <trkpt lat="42.636750" lon="-2.388650">
        <ele>1140.0</ele>
        <time>2013-06-22T12:54:12Z</time>
      </trkpt>
      <trkpt lat="42.636767" lon="-2.388550">
        <ele>1141.0</ele>
        <time>2013-06-22T12:54:13Z</time>
      </trkpt>
      <trkpt lat="42.636783" lon="-2.388467">
        <ele>1142.0</ele>
        <time>2013-06-22T12:54:14Z</time>
      </trkpt>
      <trkpt lat="42.636800" lon="-2.388383">
        <ele>1142.0</ele>
        <time>2013-06-22T12:54:15Z</time>
      </trkpt>
      <trkpt lat="42.636833" lon="-2.388300">
        <ele>1142.0</ele>
        <time>2013-06-22T12:54:16Z</time>
      </trkpt>
      <trkpt lat="42.636867" lon="-2.388217">
        <ele>1141.0</ele>
        <time>2013-06-22T12:54:17Z</time>
      </trkpt>
      <trkpt lat="42.636900" lon="-2.388133">
        <ele>1141.0</ele>
        <time>2013-06-22T12:54:18Z</time>
      </trkpt>
      <trkpt lat="42.636933" lon="-2.388050">
        <ele>1142.0</ele>
        <time>2013-06-22T12:54:19Z</time>
      </trkpt>
      <trkpt lat="42.636967" lon="-2.388000">
        <ele>1143.0</ele>
        <time>2013-06-22T12:54:20Z</time>
      </trkpt>
      <trkpt lat="42.637000" lon="-2.387917">
        <ele>1143.0</ele>
        <time>2013-06-22T12:54:21Z</time>
      </trkpt>
      <trkpt lat="42.637033" lon="-2.387850">
        <ele>1143.0</ele>
        <time>2013-06-22T12:54:22Z</time>
      </trkpt>
      <trkpt lat="42.637083" lon="-2.387750">
        <ele>1142.0</ele>
        <time>2013-06-22T12:54:23Z</time>
      </trkpt>
      <trkpt lat="42.637133" lon="-2.387667">
        <ele>1142.0</ele>
        <time>2013-06-22T12:54:24Z</time>
      </trkpt>
      <trkpt lat="42.637167" lon="-2.387600">
        <ele>1142.0</ele>
        <time>2013-06-22T12:54:25Z</time>
      </trkpt>
      <trkpt lat="42.637200" lon="-2.387533">
        <ele>1142.0</ele>
        <time>2013-06-22T12:54:26Z</time>
      </trkpt>
      <trkpt lat="42.637217" lon="-2.387483">
        <ele>1141.0</ele>
        <time>2013-06-22T12:54:27Z</time>
      </trkpt>
      <trkpt lat="42.637250" lon="-2.387417">
        <ele>1139.0</ele>
        <time>2013-06-22T12:54:28Z</time>
      </trkpt>
      <trkpt lat="42.637300" lon="-2.387350">
        <ele>1137.0</ele>
        <time>2013-06-22T12:54:29Z</time>
      </trkpt>
      <trkpt lat="42.637350" lon="-2.387267">
        <ele>1135.0</ele>
        <time>2013-06-22T12:54:30Z</time>
      </trkpt>
      <trkpt lat="42.637383" lon="-2.387200">
        <ele>1134.0</ele>
        <time>2013-06-22T12:54:31Z</time>
      </trkpt>
      <trkpt lat="42.637417" lon="-2.387133">
        <ele>1134.0</ele>
        <time>2013-06-22T12:54:32Z</time>
      </trkpt>
      <trkpt lat="42.637450" lon="-2.387067">
        <ele>1133.0</ele>
        <time>2013-06-22T12:54:33Z</time>
      </trkpt>
      <trkpt lat="42.637483" lon="-2.386983">
        <ele>1132.0</ele>
        <time>2013-06-22T12:54:34Z</time>
      </trkpt>
      <trkpt lat="42.637517" lon="-2.386900">
        <ele>1131.0</ele>
        <time>2013-06-22T12:54:35Z</time>
      </trkpt>
      <trkpt lat="42.637533" lon="-2.386800">
        <ele>1131.0</ele>
        <time>2013-06-22T12:54:36Z</time>
      </trkpt>
      <trkpt lat="42.637567" lon="-2.386717">
        <ele>1131.0</ele>
        <time>2013-06-22T12:54:37Z</time>
      </trkpt>
      <trkpt lat="42.637583" lon="-2.386633">
        <ele>1131.0</ele>
        <time>2013-06-22T12:54:38Z</time>
      </trkpt>
      <trkpt lat="42.637600" lon="-2.386533">
        <ele>1131.0</ele>
        <time>2013-06-22T12:54:39Z</time>
      </trkpt>
      <trkpt lat="42.637617" lon="-2.386450">
        <ele>1130.0</ele>
        <time>2013-06-22T12:54:40Z</time>
      </trkpt>
      <trkpt lat="42.637633" lon="-2.386350">
        <ele>1130.0</ele>
        <time>2013-06-22T12:54:41Z</time>
      </trkpt>
      <trkpt lat="42.637650" lon="-2.386267">
        <ele>1129.0</ele>
        <time>2013-06-22T12:54:42Z</time>
      </trkpt>
      <trkpt lat="42.637667" lon="-2.386167">
        <ele>1129.0</ele>
        <time>2013-06-22T12:54:43Z</time>
      </trkpt>
      <trkpt lat="42.637683" lon="-2.386083">
        <ele>1129.0</ele>
        <time>2013-06-22T12:54:44Z</time>
      </trkpt>
      <trkpt lat="42.637700" lon="-2.386000">
        <ele>1129.0</ele>
        <time>2013-06-22T12:54:45Z</time>
      </trkpt>
      <trkpt lat="42.637700" lon="-2.385917">
        <ele>1129.0</ele>
        <time>2013-06-22T12:54:46Z</time>
      </trkpt>
      <trkpt lat="42.637733" lon="-2.385850">
        <ele>1128.0</ele>
        <time>2013-06-22T12:54:47Z</time>
      </trkpt>
      <trkpt lat="42.637750" lon="-2.385767">
        <ele>1127.0</ele>
        <time>2013-06-22T12:54:48Z</time>
      </trkpt>
      <trkpt lat="42.637783" lon="-2.385700">
        <ele>1126.0</ele>
        <time>2013-06-22T12:54:49Z</time>
      </trkpt>
      <trkpt lat="42.637800" lon="-2.385617">
        <ele>1126.0</ele>
        <time>2013-06-22T12:54:50Z</time>
      </trkpt>
      <trkpt lat="42.637800" lon="-2.385533">
        <ele>1125.0</ele>
        <time>2013-06-22T12:54:51Z</time>
      </trkpt>
      <trkpt lat="42.637817" lon="-2.385433">
        <ele>1124.0</ele>
        <time>2013-06-22T12:54:52Z</time>
      </trkpt>
      <trkpt lat="42.637833" lon="-2.385350">
        <ele>1124.0</ele>
        <time>2013-06-22T12:54:53Z</time>
      </trkpt>
      <trkpt lat="42.637850" lon="-2.385267">
        <ele>1123.0</ele>
        <time>2013-06-22T12:54:54Z</time>
      </trkpt>
      <trkpt lat="42.637867" lon="-2.385200">
        <ele>1123.0</ele>
        <time>2013-06-22T12:54:55Z</time>
      </trkpt>
      <trkpt lat="42.637883" lon="-2.385117">
        <ele>1122.0</ele>
        <time>2013-06-22T12:54:56Z</time>
      </trkpt>
      <trkpt lat="42.637900" lon="-2.385033">
        <ele>1122.0</ele>
        <time>2013-06-22T12:54:57Z</time>
      </trkpt>
      <trkpt lat="42.637917" lon="-2.384950">
        <ele>1121.0</ele>
        <time>2013-06-22T12:54:58Z</time>
      </trkpt>
      <trkpt lat="42.637933" lon="-2.384883">
        <ele>1120.0</ele>
        <time>2013-06-22T12:54:59Z</time>
      </trkpt>
      <trkpt lat="42.637950" lon="-2.384800">
        <ele>1119.0</ele>
        <time>2013-06-22T12:55:00Z</time>
      </trkpt>
      <trkpt lat="42.637967" lon="-2.384717">
        <ele>1119.0</ele>
        <time>2013-06-22T12:55:01Z</time>
      </trkpt>
      <trkpt lat="42.637983" lon="-2.384650">
        <ele>1118.0</ele>
        <time>2013-06-22T12:55:02Z</time>
      </trkpt>
      <trkpt lat="42.638000" lon="-2.384567">
        <ele>1117.0</ele>
        <time>2013-06-22T12:55:03Z</time>
      </trkpt>
      <trkpt lat="42.638017" lon="-2.384500">
        <ele>1116.0</ele>
        <time>2013-06-22T12:55:04Z</time>
      </trkpt>
      <trkpt lat="42.638033" lon="-2.384433">
        <ele>1116.0</ele>
        <time>2013-06-22T12:55:05Z</time>
      </trkpt>
      <trkpt lat="42.638050" lon="-2.384367">
        <ele>1116.0</ele>
        <time>2013-06-22T12:55:06Z</time>
      </trkpt>
      <trkpt lat="42.638067" lon="-2.384300">
        <ele>1117.0</ele>
        <time>2013-06-22T12:55:07Z</time>
      </trkpt>
      <trkpt lat="42.638067" lon="-2.384233">
        <ele>1118.0</ele>
        <time>2013-06-22T12:55:08Z</time>
      </trkpt>
      <trkpt lat="42.638083" lon="-2.384183">
        <ele>1119.0</ele>
        <time>2013-06-22T12:55:09Z</time>
      </trkpt>
      <trkpt lat="42.638100" lon="-2.384133">
        <ele>1120.0</ele>
        <time>2013-06-22T12:55:10Z</time>
      </trkpt>
      <trkpt lat="42.638133" lon="-2.384100">
        <ele>1121.0</ele>
        <time>2013-06-22T12:55:11Z</time>
      </trkpt>
      <trkpt lat="42.638167" lon="-2.384067">
        <ele>1122.0</ele>
        <time>2013-06-22T12:55:12Z</time>
      </trkpt>
      <trkpt lat="42.638200" lon="-2.384017">
        <ele>1123.0</ele>
        <time>2013-06-22T12:55:13Z</time>
      </trkpt>
      <trkpt lat="42.638217" lon="-2.384000">
        <ele>1124.0</ele>
        <time>2013-06-22T12:55:14Z</time>
      </trkpt>
      <trkpt lat="42.638233" lon="-2.383967">
        <ele>1126.0</ele>
        <time>2013-06-22T12:55:15Z</time>
      </trkpt>
      <trkpt lat="42.638250" lon="-2.383950">
        <ele>1127.0</ele>
        <time>2013-06-22T12:55:16Z</time>
      </trkpt>
      <trkpt lat="42.638283" lon="-2.383917">
        <ele>1128.0</ele>
        <time>2013-06-22T12:55:17Z</time>
      </trkpt>
      <trkpt lat="42.638317" lon="-2.383867">
        <ele>1129.0</ele>
        <time>2013-06-22T12:55:18Z</time>
      </trkpt>
      <trkpt lat="42.638350" lon="-2.383850">
        <ele>1131.0</ele>
        <time>2013-06-22T12:55:19Z</time>
      </trkpt>
      <trkpt lat="42.638367" lon="-2.383817">
        <ele>1132.0</ele>
        <time>2013-06-22T12:55:20Z</time>
      </trkpt>
      <trkpt lat="42.638400" lon="-2.383800">
        <ele>1134.0</ele>
        <time>2013-06-22T12:55:21Z</time>
      </trkpt>
      <trkpt lat="42.638433" lon="-2.383767">
        <ele>1135.0</ele>
        <time>2013-06-22T12:55:22Z</time>
      </trkpt>
      <trkpt lat="42.638467" lon="-2.383717">
        <ele>1136.0</ele>
        <time>2013-06-22T12:55:23Z</time>
      </trkpt>
      <trkpt lat="42.638500" lon="-2.383683">
        <ele>1137.0</ele>
        <time>2013-06-22T12:55:24Z</time>
      </trkpt>
      <trkpt lat="42.638533" lon="-2.383650">
        <ele>1139.0</ele>
        <time>2013-06-22T12:55:25Z</time>
      </trkpt>
      <trkpt lat="42.638567" lon="-2.383617">
        <ele>1142.0</ele>
        <time>2013-06-22T12:55:26Z</time>
      </trkpt>
      <trkpt lat="42.638583" lon="-2.383583">
        <ele>1144.0</ele>
        <time>2013-06-22T12:55:27Z</time>
      </trkpt>
      <trkpt lat="42.638600" lon="-2.383550">
        <ele>1146.0</ele>
        <time>2013-06-22T12:55:28Z</time>
      </trkpt>
      <trkpt lat="42.638617" lon="-2.383500">
        <ele>1146.0</ele>
        <time>2013-06-22T12:55:29Z</time>
      </trkpt>
      <trkpt lat="42.638650" lon="-2.383450">
        <ele>1146.0</ele>
        <time>2013-06-22T12:55:30Z</time>
      </trkpt>
      <trkpt lat="42.638667" lon="-2.383400">
        <ele>1146.0</ele>
        <time>2013-06-22T12:55:31Z</time>
      </trkpt>
      <trkpt lat="42.638683" lon="-2.383350">
        <ele>1147.0</ele>
        <time>2013-06-22T12:55:32Z</time>
      </trkpt>
      <trkpt lat="42.638717" lon="-2.383283">
        <ele>1148.0</ele>
        <time>2013-06-22T12:55:33Z</time>
      </trkpt>
      <trkpt lat="42.638733" lon="-2.383250">
        <ele>1150.0</ele>
        <time>2013-06-22T12:55:34Z</time>
      </trkpt>
      <trkpt lat="42.638750" lon="-2.383217">
        <ele>1152.0</ele>
        <time>2013-06-22T12:55:35Z</time>
      </trkpt>
      <trkpt lat="42.638767" lon="-2.383200">
        <ele>1153.0</ele>
        <time>2013-06-22T12:55:36Z</time>
      </trkpt>
      <trkpt lat="42.638783" lon="-2.383150">
        <ele>1153.0</ele>
        <time>2013-06-22T12:55:37Z</time>
      </trkpt>
      <trkpt lat="42.638833" lon="-2.383100">
        <ele>1152.0</ele>
        <time>2013-06-22T12:55:38Z</time>
      </trkpt>
      <trkpt lat="42.638883" lon="-2.383033">
        <ele>1150.0</ele>
        <time>2013-06-22T12:55:39Z</time>
      </trkpt>
      <trkpt lat="42.638917" lon="-2.382967">
        <ele>1149.0</ele>
        <time>2013-06-22T12:55:40Z</time>
      </trkpt>
      <trkpt lat="42.638933" lon="-2.382933">
        <ele>1151.0</ele>
        <time>2013-06-22T12:55:41Z</time>
      </trkpt>
      <trkpt lat="42.638950" lon="-2.382900">
        <ele>1153.0</ele>
        <time>2013-06-22T12:55:42Z</time>
      </trkpt>
      <trkpt lat="42.638967" lon="-2.382883">
        <ele>1154.0</ele>
        <time>2013-06-22T12:55:43Z</time>
      </trkpt>
      <trkpt lat="42.638983" lon="-2.382850">
        <ele>1154.0</ele>
        <time>2013-06-22T12:55:44Z</time>
      </trkpt>
      <trkpt lat="42.639017" lon="-2.382817">
        <ele>1153.0</ele>
        <time>2013-06-22T12:55:45Z</time>
      </trkpt>
      <trkpt lat="42.639050" lon="-2.382750">
        <ele>1152.0</ele>
        <time>2013-06-22T12:55:46Z</time>
      </trkpt>
      <trkpt lat="42.639083" lon="-2.382700">
        <ele>1150.0</ele>
        <time>2013-06-22T12:55:47Z</time>
      </trkpt>
      <trkpt lat="42.639117" lon="-2.382667">
        <ele>1151.0</ele>
        <time>2013-06-22T12:55:48Z</time>
      </trkpt>
      <trkpt lat="42.639133" lon="-2.382633">
        <ele>1150.0</ele>
        <time>2013-06-22T12:55:49Z</time>
      </trkpt>
      <trkpt lat="42.639167" lon="-2.382600">
        <ele>1149.0</ele>
        <time>2013-06-22T12:55:50Z</time>
      </trkpt>
      <trkpt lat="42.639200" lon="-2.382533">
        <ele>1148.0</ele>
        <time>2013-06-22T12:55:51Z</time>
      </trkpt>
      <trkpt lat="42.639233" lon="-2.382467">
        <ele>1145.0</ele>
        <time>2013-06-22T12:55:52Z</time>
      </trkpt>
      <trkpt lat="42.639267" lon="-2.382400">
        <ele>1144.0</ele>
        <time>2013-06-22T12:55:53Z</time>
      </trkpt>
      <trkpt lat="42.639300" lon="-2.382350">
        <ele>1144.0</ele>
        <time>2013-06-22T12:55:54Z</time>
      </trkpt>
      <trkpt lat="42.639317" lon="-2.382317">
        <ele>1143.0</ele>
        <time>2013-06-22T12:55:55Z</time>
      </trkpt>
      <trkpt lat="42.639317" lon="-2.382267">
        <ele>1142.0</ele>
        <time>2013-06-22T12:55:56Z</time>
      </trkpt>
      <trkpt lat="42.639333" lon="-2.382200">
        <ele>1140.0</ele>
        <time>2013-06-22T12:55:57Z</time>
      </trkpt>
      <trkpt lat="42.639367" lon="-2.382117">
        <ele>1136.0</ele>
        <time>2013-06-22T12:55:58Z</time>
      </trkpt>
      <trkpt lat="42.639383" lon="-2.382000">
        <ele>1134.0</ele>
        <time>2013-06-22T12:55:59Z</time>
      </trkpt>
      <trkpt lat="42.639383" lon="-2.381900">
        <ele>1133.0</ele>
        <time>2013-06-22T12:56:00Z</time>
      </trkpt>
      <trkpt lat="42.639350" lon="-2.381800">
        <ele>1132.0</ele>
        <time>2013-06-22T12:56:01Z</time>
      </trkpt>
      <trkpt lat="42.639300" lon="-2.381717">
        <ele>1131.0</ele>
        <time>2013-06-22T12:56:02Z</time>
      </trkpt>
      <trkpt lat="42.639217" lon="-2.381633">
        <ele>1130.0</ele>
        <time>2013-06-22T12:56:03Z</time>
      </trkpt>
      <trkpt lat="42.639133" lon="-2.381567">
        <ele>1130.0</ele>
        <time>2013-06-22T12:56:04Z</time>
      </trkpt>
      <trkpt lat="42.639033" lon="-2.381533">
        <ele>1129.0</ele>
        <time>2013-06-22T12:56:05Z</time>
      </trkpt>
      <trkpt lat="42.638917" lon="-2.381517">
        <ele>1129.0</ele>
        <time>2013-06-22T12:56:06Z</time>
      </trkpt>
      <trkpt lat="42.638783" lon="-2.381533">
        <ele>1128.0</ele>
        <time>2013-06-22T12:56:07Z</time>
      </trkpt>
      <trkpt lat="42.638667" lon="-2.381583">
        <ele>1128.0</ele>
        <time>2013-06-22T12:56:08Z</time>
      </trkpt>
      <trkpt lat="42.638567" lon="-2.381667">
        <ele>1129.0</ele>
        <time>2013-06-22T12:56:09Z</time>
      </trkpt>
      <trkpt lat="42.638483" lon="-2.381767">
        <ele>1130.0</ele>
        <time>2013-06-22T12:56:10Z</time>
      </trkpt>
      <trkpt lat="42.638417" lon="-2.381850">
        <ele>1132.0</ele>
        <time>2013-06-22T12:56:11Z</time>
      </trkpt>
      <trkpt lat="42.638367" lon="-2.381933">
        <ele>1133.0</ele>
        <time>2013-06-22T12:56:12Z</time>
      </trkpt>
      <trkpt lat="42.638333" lon="-2.382000">
        <ele>1134.0</ele>
        <time>2013-06-22T12:56:13Z</time>
      </trkpt>
      <trkpt lat="42.638267" lon="-2.382100">
        <ele>1133.0</ele>
        <time>2013-06-22T12:56:14Z</time>
      </trkpt>
      <trkpt lat="42.638233" lon="-2.382200">
        <ele>1133.0</ele>
        <time>2013-06-22T12:56:15Z</time>
      </trkpt>
      <trkpt lat="42.638183" lon="-2.382300">
        <ele>1131.0</ele>
        <time>2013-06-22T12:56:16Z</time>
      </trkpt>
      <trkpt lat="42.638167" lon="-2.382383">
        <ele>1131.0</ele>
        <time>2013-06-22T12:56:17Z</time>
      </trkpt>
      <trkpt lat="42.638133" lon="-2.382467">
        <ele>1130.0</ele>
        <time>2013-06-22T12:56:18Z</time>
      </trkpt>
      <trkpt lat="42.638117" lon="-2.382550">
        <ele>1130.0</ele>
        <time>2013-06-22T12:56:19Z</time>
      </trkpt>
      <trkpt lat="42.638117" lon="-2.382633">
        <ele>1129.0</ele>
        <time>2013-06-22T12:56:20Z</time>
      </trkpt>
      <trkpt lat="42.638100" lon="-2.382733">
        <ele>1127.0</ele>
        <time>2013-06-22T12:56:21Z</time>
      </trkpt>
      <trkpt lat="42.638083" lon="-2.382833">
        <ele>1126.0</ele>
        <time>2013-06-22T12:56:22Z</time>
      </trkpt>
      <trkpt lat="42.638050" lon="-2.382950">
        <ele>1124.0</ele>
        <time>2013-06-22T12:56:23Z</time>
      </trkpt>
      <trkpt lat="42.638033" lon="-2.383050">
        <ele>1123.0</ele>
        <time>2013-06-22T12:56:24Z</time>
      </trkpt>
      <trkpt lat="42.638017" lon="-2.383150">
        <ele>1121.0</ele>
        <time>2013-06-22T12:56:25Z</time>
      </trkpt>
      <trkpt lat="42.638017" lon="-2.383250">
        <ele>1121.0</ele>
        <time>2013-06-22T12:56:26Z</time>
      </trkpt>
      <trkpt lat="42.638017" lon="-2.383333">
        <ele>1120.0</ele>
        <time>2013-06-22T12:56:27Z</time>
      </trkpt>
      <trkpt lat="42.638017" lon="-2.383417">
        <ele>1120.0</ele>
        <time>2013-06-22T12:56:28Z</time>
      </trkpt>
      <trkpt lat="42.638033" lon="-2.383483">
        <ele>1119.0</ele>
        <time>2013-06-22T12:56:29Z</time>
      </trkpt>
      <trkpt lat="42.638050" lon="-2.383533">
        <ele>1118.0</ele>
        <time>2013-06-22T12:56:30Z</time>
      </trkpt>
      <trkpt lat="42.638083" lon="-2.383583">
        <ele>1117.0</ele>
        <time>2013-06-22T12:56:31Z</time>
      </trkpt>
      <trkpt lat="42.638117" lon="-2.383617">
        <ele>1116.0</ele>
        <time>2013-06-22T12:56:32Z</time>
      </trkpt>
      <trkpt lat="42.638150" lon="-2.383600">
        <ele>1115.0</ele>
        <time>2013-06-22T12:56:33Z</time>
      </trkpt>
      <trkpt lat="42.638167" lon="-2.383583">
        <ele>1115.0</ele>
        <time>2013-06-22T12:56:34Z</time>
      </trkpt>
      <trkpt lat="42.638183" lon="-2.383550">
        <ele>1114.0</ele>
        <time>2013-06-22T12:56:35Z</time>
      </trkpt>
      <trkpt lat="42.638217" lon="-2.383533">
        <ele>1112.0</ele>
        <time>2013-06-22T12:56:36Z</time>
      </trkpt>
      <trkpt lat="42.638250" lon="-2.383517">
        <ele>1110.0</ele>
        <time>2013-06-22T12:56:37Z</time>
      </trkpt>
      <trkpt lat="42.638283" lon="-2.383483">
        <ele>1108.0</ele>
        <time>2013-06-22T12:56:38Z</time>
      </trkpt>
      <trkpt lat="42.638333" lon="-2.383433">
        <ele>1107.0</ele>
        <time>2013-06-22T12:56:39Z</time>
      </trkpt>
      <trkpt lat="42.638350" lon="-2.383350">
        <ele>1106.0</ele>
        <time>2013-06-22T12:56:40Z</time>
      </trkpt>
      <trkpt lat="42.638367" lon="-2.383267">
        <ele>1106.0</ele>
        <time>2013-06-22T12:56:41Z</time>
      </trkpt>
      <trkpt lat="42.638383" lon="-2.383200">
        <ele>1105.0</ele>
        <time>2013-06-22T12:56:42Z</time>
      </trkpt>
      <trkpt lat="42.638400" lon="-2.383117">
        <ele>1105.0</ele>
        <time>2013-06-22T12:56:43Z</time>
      </trkpt>
      <trkpt lat="42.638417" lon="-2.383050">
        <ele>1104.0</ele>
        <time>2013-06-22T12:56:44Z</time>
      </trkpt>
      <trkpt lat="42.638450" lon="-2.382967">
        <ele>1103.0</ele>
        <time>2013-06-22T12:56:45Z</time>
      </trkpt>
      <trkpt lat="42.638467" lon="-2.382900">
        <ele>1103.0</ele>
        <time>2013-06-22T12:56:46Z</time>
      </trkpt>
      <trkpt lat="42.638467" lon="-2.382817">
        <ele>1102.0</ele>
        <time>2013-06-22T12:56:47Z</time>
      </trkpt>
      <trkpt lat="42.638483" lon="-2.382750">
        <ele>1101.0</ele>
        <time>2013-06-22T12:56:48Z</time>
      </trkpt>
      <trkpt lat="42.638517" lon="-2.382667">
        <ele>1101.0</ele>
        <time>2013-06-22T12:56:49Z</time>
      </trkpt>
      <trkpt lat="42.638533" lon="-2.382583">
        <ele>1100.0</ele>
        <time>2013-06-22T12:56:50Z</time>
      </trkpt>
      <trkpt lat="42.638550" lon="-2.382517">
        <ele>1100.0</ele>
        <time>2013-06-22T12:56:51Z</time>
      </trkpt>
      <trkpt lat="42.638567" lon="-2.382433">
        <ele>1099.0</ele>
        <time>2013-06-22T12:56:52Z</time>
      </trkpt>
      <trkpt lat="42.638583" lon="-2.382350">
        <ele>1099.0</ele>
        <time>2013-06-22T12:56:53Z</time>
      </trkpt>
      <trkpt lat="42.638583" lon="-2.382250">
        <ele>1098.0</ele>
        <time>2013-06-22T12:56:54Z</time>
      </trkpt>
      <trkpt lat="42.638600" lon="-2.382167">
        <ele>1098.0</ele>
        <time>2013-06-22T12:56:55Z</time>
      </trkpt>
      <trkpt lat="42.638617" lon="-2.382083">
        <ele>1097.0</ele>
        <time>2013-06-22T12:56:56Z</time>
      </trkpt>
      <trkpt lat="42.638617" lon="-2.381983">
        <ele>1096.0</ele>
        <time>2013-06-22T12:56:57Z</time>
      </trkpt>
      <trkpt lat="42.638633" lon="-2.381900">
        <ele>1096.0</ele>
        <time>2013-06-22T12:56:58Z</time>
      </trkpt>
      <trkpt lat="42.638633" lon="-2.381800">
        <ele>1095.0</ele>
        <time>2013-06-22T12:56:59Z</time>
      </trkpt>
      <trkpt lat="42.638650" lon="-2.381700">
        <ele>1095.0</ele>
        <time>2013-06-22T12:57:00Z</time>
      </trkpt>
      <trkpt lat="42.638667" lon="-2.381600">
        <ele>1094.0</ele>
        <time>2013-06-22T12:57:01Z</time>
      </trkpt>
      <trkpt lat="42.638683" lon="-2.381517">
        <ele>1095.0</ele>
        <time>2013-06-22T12:57:02Z</time>
      </trkpt>
      <trkpt lat="42.638700" lon="-2.381433">
        <ele>1095.0</ele>
        <time>2013-06-22T12:57:03Z</time>
      </trkpt>
      <trkpt lat="42.638717" lon="-2.381350">
        <ele>1095.0</ele>
        <time>2013-06-22T12:57:04Z</time>
      </trkpt>
      <trkpt lat="42.638733" lon="-2.381283">
        <ele>1095.0</ele>
        <time>2013-06-22T12:57:05Z</time>
      </trkpt>
      <trkpt lat="42.638750" lon="-2.381200">
        <ele>1095.0</ele>
        <time>2013-06-22T12:57:06Z</time>
      </trkpt>
      <trkpt lat="42.638767" lon="-2.381133">
        <ele>1095.0</ele>
        <time>2013-06-22T12:57:07Z</time>
      </trkpt>
      <trkpt lat="42.638800" lon="-2.381050">
        <ele>1095.0</ele>
        <time>2013-06-22T12:57:08Z</time>
      </trkpt>
      <trkpt lat="42.638817" lon="-2.380983">
        <ele>1095.0</ele>
        <time>2013-06-22T12:57:09Z</time>
      </trkpt>
      <trkpt lat="42.638833" lon="-2.380917">
        <ele>1095.0</ele>
        <time>2013-06-22T12:57:10Z</time>
      </trkpt>
      <trkpt lat="42.638850" lon="-2.380850">
        <ele>1095.0</ele>
        <time>2013-06-22T12:57:11Z</time>
      </trkpt>
      <trkpt lat="42.638867" lon="-2.380767">
        <ele>1094.0</ele>
        <time>2013-06-22T12:57:12Z</time>
      </trkpt>
      <trkpt lat="42.638883" lon="-2.380667">
        <ele>1094.0</ele>
        <time>2013-06-22T12:57:13Z</time>
      </trkpt>
      <trkpt lat="42.638900" lon="-2.380583">
        <ele>1094.0</ele>
        <time>2013-06-22T12:57:14Z</time>
      </trkpt>
      <trkpt lat="42.638917" lon="-2.380517">
        <ele>1094.0</ele>
        <time>2013-06-22T12:57:15Z</time>
      </trkpt>
      <trkpt lat="42.638933" lon="-2.380433">
        <ele>1094.0</ele>
        <time>2013-06-22T12:57:16Z</time>
      </trkpt>
      <trkpt lat="42.638950" lon="-2.380350">
        <ele>1094.0</ele>
        <time>2013-06-22T12:57:17Z</time>
      </trkpt>
      <trkpt lat="42.638967" lon="-2.380267">
        <ele>1093.0</ele>
        <time>2013-06-22T12:57:18Z</time>
      </trkpt>
      <trkpt lat="42.639000" lon="-2.380167">
        <ele>1091.0</ele>
        <time>2013-06-22T12:57:19Z</time>
      </trkpt>
      <trkpt lat="42.639017" lon="-2.380067">
        <ele>1091.0</ele>
        <time>2013-06-22T12:57:20Z</time>
      </trkpt>
      <trkpt lat="42.639033" lon="-2.379983">
        <ele>1091.0</ele>
        <time>2013-06-22T12:57:21Z</time>
      </trkpt>
      <trkpt lat="42.639033" lon="-2.379900">
        <ele>1092.0</ele>
        <time>2013-06-22T12:57:22Z</time>
      </trkpt>
      <trkpt lat="42.639050" lon="-2.379817">
        <ele>1092.0</ele>
        <time>2013-06-22T12:57:23Z</time>
      </trkpt>
      <trkpt lat="42.639067" lon="-2.379733">
        <ele>1091.0</ele>
        <time>2013-06-22T12:57:24Z</time>
      </trkpt>
      <trkpt lat="42.639100" lon="-2.379633">
        <ele>1090.0</ele>
        <time>2013-06-22T12:57:25Z</time>
      </trkpt>
      <trkpt lat="42.639117" lon="-2.379550">
        <ele>1090.0</ele>
        <time>2013-06-22T12:57:26Z</time>
      </trkpt>
      <trkpt lat="42.639117" lon="-2.379467">
        <ele>1090.0</ele>
        <time>2013-06-22T12:57:27Z</time>
      </trkpt>
      <trkpt lat="42.639133" lon="-2.379383">
        <ele>1090.0</ele>
        <time>2013-06-22T12:57:28Z</time>
      </trkpt>
      <trkpt lat="42.639133" lon="-2.379300">
        <ele>1090.0</ele>
        <time>2013-06-22T12:57:29Z</time>
      </trkpt>
      <trkpt lat="42.639150" lon="-2.379217">
        <ele>1090.0</ele>
        <time>2013-06-22T12:57:30Z</time>
      </trkpt>
      <trkpt lat="42.639167" lon="-2.379133">
        <ele>1089.0</ele>
        <time>2013-06-22T12:57:31Z</time>
      </trkpt>
      <trkpt lat="42.639183" lon="-2.379033">
        <ele>1088.0</ele>
        <time>2013-06-22T12:57:32Z</time>
      </trkpt>
      <trkpt lat="42.639200" lon="-2.378933">
        <ele>1088.0</ele>
        <time>2013-06-22T12:57:33Z</time>
      </trkpt>
      <trkpt lat="42.639217" lon="-2.378850">
        <ele>1088.0</ele>
        <time>2013-06-22T12:57:34Z</time>
      </trkpt>
      <trkpt lat="42.639233" lon="-2.378783">
        <ele>1088.0</ele>
        <time>2013-06-22T12:57:35Z</time>
      </trkpt>
      <trkpt lat="42.639250" lon="-2.378700">
        <ele>1089.0</ele>
        <time>2013-06-22T12:57:36Z</time>
      </trkpt>
      <trkpt lat="42.639267" lon="-2.378633">
        <ele>1088.0</ele>
        <time>2013-06-22T12:57:37Z</time>
      </trkpt>
      <trkpt lat="42.639283" lon="-2.378550">
        <ele>1087.0</ele>
        <time>2013-06-22T12:57:38Z</time>
      </trkpt>
      <trkpt lat="42.639300" lon="-2.378450">
        <ele>1086.0</ele>
        <time>2013-06-22T12:57:39Z</time>
      </trkpt>
      <trkpt lat="42.639333" lon="-2.378350">
        <ele>1085.0</ele>
        <time>2013-06-22T12:57:40Z</time>
      </trkpt>
      <trkpt lat="42.639350" lon="-2.378267">
        <ele>1085.0</ele>
        <time>2013-06-22T12:57:41Z</time>
      </trkpt>
      <trkpt lat="42.639367" lon="-2.378183">
        <ele>1086.0</ele>
        <time>2013-06-22T12:57:42Z</time>
      </trkpt>
      <trkpt lat="42.639383" lon="-2.378117">
        <ele>1086.0</ele>
        <time>2013-06-22T12:57:43Z</time>
      </trkpt>
      <trkpt lat="42.639400" lon="-2.378033">
        <ele>1085.0</ele>
        <time>2013-06-22T12:57:44Z</time>
      </trkpt>
      <trkpt lat="42.639417" lon="-2.377967">
        <ele>1084.0</ele>
        <time>2013-06-22T12:57:45Z</time>
      </trkpt>
      <trkpt lat="42.639450" lon="-2.377883">
        <ele>1083.0</ele>
        <time>2013-06-22T12:57:46Z</time>
      </trkpt>
      <trkpt lat="42.639467" lon="-2.377817">
        <ele>1083.0</ele>
        <time>2013-06-22T12:57:47Z</time>
      </trkpt>
      <trkpt lat="42.639483" lon="-2.377750">
        <ele>1082.0</ele>
        <time>2013-06-22T12:57:48Z</time>
      </trkpt>
      <trkpt lat="42.639500" lon="-2.377683">
        <ele>1082.0</ele>
        <time>2013-06-22T12:57:49Z</time>
      </trkpt>
      <trkpt lat="42.639533" lon="-2.377633">
        <ele>1081.0</ele>
        <time>2013-06-22T12:57:50Z</time>
      </trkpt>
      <trkpt lat="42.639550" lon="-2.377583">
        <ele>1080.0</ele>
        <time>2013-06-22T12:57:51Z</time>
      </trkpt>
      <trkpt lat="42.639567" lon="-2.377533">
        <ele>1080.0</ele>
        <time>2013-06-22T12:57:52Z</time>
      </trkpt>
      <trkpt lat="42.639600" lon="-2.377483">
        <ele>1080.0</ele>
        <time>2013-06-22T12:57:53Z</time>
      </trkpt>
      <trkpt lat="42.639617" lon="-2.377433">
        <ele>1081.0</ele>
        <time>2013-06-22T12:57:54Z</time>
      </trkpt>
      <trkpt lat="42.639617" lon="-2.377383">
        <ele>1081.0</ele>
        <time>2013-06-22T12:57:55Z</time>
      </trkpt>
      <trkpt lat="42.639633" lon="-2.377350">
        <ele>1081.0</ele>
        <time>2013-06-22T12:57:56Z</time>
      </trkpt>
      <trkpt lat="42.639650" lon="-2.377300">
        <ele>1080.0</ele>
        <time>2013-06-22T12:57:57Z</time>
      </trkpt>
      <trkpt lat="42.639667" lon="-2.377250">
        <ele>1080.0</ele>
        <time>2013-06-22T12:57:58Z</time>
      </trkpt>
      <trkpt lat="42.639683" lon="-2.377200">
        <ele>1080.0</ele>
        <time>2013-06-22T12:57:59Z</time>
      </trkpt>
      <trkpt lat="42.639700" lon="-2.377133">
        <ele>1080.0</ele>
        <time>2013-06-22T12:58:00Z</time>
      </trkpt>
      <trkpt lat="42.639700" lon="-2.377083">
        <ele>1080.0</ele>
        <time>2013-06-22T12:58:01Z</time>
      </trkpt>
      <trkpt lat="42.639717" lon="-2.377033">
        <ele>1079.0</ele>
        <time>2013-06-22T12:58:02Z</time>
      </trkpt>
      <trkpt lat="42.639750" lon="-2.376983">
        <ele>1078.0</ele>
        <time>2013-06-22T12:58:03Z</time>
      </trkpt>
      <trkpt lat="42.639783" lon="-2.376933">
        <ele>1076.0</ele>
        <time>2013-06-22T12:58:04Z</time>
      </trkpt>
      <trkpt lat="42.639817" lon="-2.376900">
        <ele>1075.0</ele>
        <time>2013-06-22T12:58:05Z</time>
      </trkpt>
      <trkpt lat="42.639850" lon="-2.376850">
        <ele>1074.0</ele>
        <time>2013-06-22T12:58:06Z</time>
      </trkpt>
      <trkpt lat="42.639867" lon="-2.376800">
        <ele>1074.0</ele>
        <time>2013-06-22T12:58:07Z</time>
      </trkpt>
      <trkpt lat="42.639900" lon="-2.376767">
        <ele>1074.0</ele>
        <time>2013-06-22T12:58:08Z</time>
      </trkpt>
      <trkpt lat="42.639917" lon="-2.376733">
        <ele>1073.0</ele>
        <time>2013-06-22T12:58:09Z</time>
      </trkpt>
      <trkpt lat="42.639950" lon="-2.376700">
        <ele>1072.0</ele>
        <time>2013-06-22T12:58:10Z</time>
      </trkpt>
      <trkpt lat="42.639983" lon="-2.376650">
        <ele>1072.0</ele>
        <time>2013-06-22T12:58:11Z</time>
      </trkpt>
      <trkpt lat="42.640017" lon="-2.376600">
        <ele>1073.0</ele>
        <time>2013-06-22T12:58:12Z</time>
      </trkpt>
      <trkpt lat="42.640033" lon="-2.376550">
        <ele>1075.0</ele>
        <time>2013-06-22T12:58:13Z</time>
      </trkpt>
      <trkpt lat="42.640050" lon="-2.376517">
        <ele>1076.0</ele>
        <time>2013-06-22T12:58:14Z</time>
      </trkpt>
      <trkpt lat="42.640067" lon="-2.376467">
        <ele>1077.0</ele>
        <time>2013-06-22T12:58:15Z</time>
      </trkpt>
      <trkpt lat="42.640083" lon="-2.376433">
        <ele>1077.0</ele>
        <time>2013-06-22T12:58:16Z</time>
      </trkpt>
      <trkpt lat="42.640117" lon="-2.376383">
        <ele>1077.0</ele>
        <time>2013-06-22T12:58:17Z</time>
      </trkpt>
      <trkpt lat="42.640133" lon="-2.376350">
        <ele>1076.0</ele>
        <time>2013-06-22T12:58:18Z</time>
      </trkpt>
      <trkpt lat="42.640167" lon="-2.376300">
        <ele>1076.0</ele>
        <time>2013-06-22T12:58:19Z</time>
      </trkpt>
      <trkpt lat="42.640200" lon="-2.376233">
        <ele>1075.0</ele>
        <time>2013-06-22T12:58:20Z</time>
      </trkpt>
      <trkpt lat="42.640217" lon="-2.376167">
        <ele>1074.0</ele>
        <time>2013-06-22T12:58:21Z</time>
      </trkpt>
      <trkpt lat="42.640250" lon="-2.376100">
        <ele>1072.0</ele>
        <time>2013-06-22T12:58:22Z</time>
      </trkpt>
      <trkpt lat="42.640267" lon="-2.376017">
        <ele>1071.0</ele>
        <time>2013-06-22T12:58:23Z</time>
      </trkpt>
      <trkpt lat="42.640300" lon="-2.375933">
        <ele>1070.0</ele>
        <time>2013-06-22T12:58:24Z</time>
      </trkpt>
      <trkpt lat="42.640300" lon="-2.375833">
        <ele>1069.0</ele>
        <time>2013-06-22T12:58:25Z</time>
      </trkpt>
      <trkpt lat="42.640300" lon="-2.375733">
        <ele>1069.0</ele>
        <time>2013-06-22T12:58:26Z</time>
      </trkpt>
      <trkpt lat="42.640317" lon="-2.375650">
        <ele>1069.0</ele>
        <time>2013-06-22T12:58:27Z</time>
      </trkpt>
      <trkpt lat="42.640333" lon="-2.375600">
        <ele>1069.0</ele>
        <time>2013-06-22T12:58:28Z</time>
      </trkpt>
      <trkpt lat="42.640350" lon="-2.375533">
        <ele>1069.0</ele>
        <time>2013-06-22T12:58:29Z</time>
      </trkpt>
      <trkpt lat="42.640383" lon="-2.375483">
        <ele>1069.0</ele>
        <time>2013-06-22T12:58:30Z</time>
      </trkpt>
      <trkpt lat="42.640400" lon="-2.375417">
        <ele>1069.0</ele>
        <time>2013-06-22T12:58:31Z</time>
      </trkpt>
      <trkpt lat="42.640417" lon="-2.375350">
        <ele>1069.0</ele>
        <time>2013-06-22T12:58:32Z</time>
      </trkpt>
      <trkpt lat="42.640433" lon="-2.375300">
        <ele>1070.0</ele>
        <time>2013-06-22T12:58:33Z</time>
      </trkpt>
      <trkpt lat="42.640450" lon="-2.375250">
        <ele>1071.0</ele>
        <time>2013-06-22T12:58:34Z</time>
      </trkpt>
      <trkpt lat="42.640467" lon="-2.375217">
        <ele>1071.0</ele>
        <time>2013-06-22T12:58:35Z</time>
      </trkpt>
      <trkpt lat="42.640500" lon="-2.375167">
        <ele>1072.0</ele>
        <time>2013-06-22T12:58:36Z</time>
      </trkpt>
      <trkpt lat="42.640517" lon="-2.375083">
        <ele>1072.0</ele>
        <time>2013-06-22T12:58:37Z</time>
      </trkpt>
      <trkpt lat="42.640533" lon="-2.375017">
        <ele>1073.0</ele>
        <time>2013-06-22T12:58:38Z</time>
      </trkpt>
      <trkpt lat="42.640550" lon="-2.374950">
        <ele>1074.0</ele>
        <time>2013-06-22T12:58:39Z</time>
      </trkpt>
      <trkpt lat="42.640567" lon="-2.374917">
        <ele>1075.0</ele>
        <time>2013-06-22T12:58:40Z</time>
      </trkpt>
      <trkpt lat="42.640600" lon="-2.374883">
        <ele>1077.0</ele>
        <time>2013-06-22T12:58:41Z</time>
      </trkpt>
      <trkpt lat="42.640617" lon="-2.374833">
        <ele>1077.0</ele>
        <time>2013-06-22T12:58:42Z</time>
      </trkpt>
      <trkpt lat="42.640617" lon="-2.374783">
        <ele>1078.0</ele>
        <time>2013-06-22T12:58:43Z</time>
      </trkpt>
      <trkpt lat="42.640633" lon="-2.374700">
        <ele>1078.0</ele>
        <time>2013-06-22T12:58:44Z</time>
      </trkpt>
      <trkpt lat="42.640633" lon="-2.374633">
        <ele>1079.0</ele>
        <time>2013-06-22T12:58:45Z</time>
      </trkpt>
      <trkpt lat="42.640633" lon="-2.374567">
        <ele>1080.0</ele>
        <time>2013-06-22T12:58:46Z</time>
      </trkpt>
      <trkpt lat="42.640633" lon="-2.374500">
        <ele>1081.0</ele>
        <time>2013-06-22T12:58:47Z</time>
      </trkpt>
      <trkpt lat="42.640650" lon="-2.374450">
        <ele>1081.0</ele>
        <time>2013-06-22T12:58:48Z</time>
      </trkpt>
      <trkpt lat="42.640667" lon="-2.374417">
        <ele>1081.0</ele>
        <time>2013-06-22T12:58:49Z</time>
      </trkpt>
      <trkpt lat="42.640683" lon="-2.374383">
        <ele>1080.0</ele>
        <time>2013-06-22T12:58:50Z</time>
      </trkpt>
      <trkpt lat="42.640700" lon="-2.374350">
        <ele>1080.0</ele>
        <time>2013-06-22T12:58:51Z</time>
      </trkpt>
      <trkpt lat="42.640717" lon="-2.374300">
        <ele>1080.0</ele>
        <time>2013-06-22T12:58:52Z</time>
      </trkpt>
      <trkpt lat="42.640750" lon="-2.374267">
        <ele>1080.0</ele>
        <time>2013-06-22T12:58:53Z</time>
      </trkpt>
      <trkpt lat="42.640767" lon="-2.374233">
        <ele>1080.0</ele>
        <time>2013-06-22T12:58:54Z</time>
      </trkpt>
      <trkpt lat="42.640800" lon="-2.374200">
        <ele>1079.0</ele>
        <time>2013-06-22T12:58:55Z</time>
      </trkpt>
      <trkpt lat="42.640833" lon="-2.374183">
        <ele>1078.0</ele>
        <time>2013-06-22T12:58:56Z</time>
      </trkpt>
      <trkpt lat="42.640867" lon="-2.374167">
        <ele>1078.0</ele>
        <time>2013-06-22T12:58:57Z</time>
      </trkpt>
      <trkpt lat="42.640900" lon="-2.374133">
        <ele>1077.0</ele>
        <time>2013-06-22T12:58:58Z</time>
      </trkpt>
      <trkpt lat="42.640933" lon="-2.374117">
        <ele>1077.0</ele>
        <time>2013-06-22T12:58:59Z</time>
      </trkpt>
      <trkpt lat="42.640967" lon="-2.374100">
        <ele>1077.0</ele>
        <time>2013-06-22T12:59:00Z</time>
      </trkpt>
      <trkpt lat="42.641000" lon="-2.374067">
        <ele>1077.0</ele>
        <time>2013-06-22T12:59:01Z</time>
      </trkpt>
      <trkpt lat="42.641033" lon="-2.374050">
        <ele>1077.0</ele>
        <time>2013-06-22T12:59:02Z</time>
      </trkpt>
      <trkpt lat="42.641067" lon="-2.374017">
        <ele>1076.0</ele>
        <time>2013-06-22T12:59:03Z</time>
      </trkpt>
      <trkpt lat="42.641117" lon="-2.373983">
        <ele>1076.0</ele>
        <time>2013-06-22T12:59:04Z</time>
      </trkpt>
      <trkpt lat="42.641150" lon="-2.373933">
        <ele>1077.0</ele>
        <time>2013-06-22T12:59:05Z</time>
      </trkpt>
      <trkpt lat="42.641183" lon="-2.373917">
        <ele>1077.0</ele>
        <time>2013-06-22T12:59:06Z</time>
      </trkpt>
      <trkpt lat="42.641217" lon="-2.373883">
        <ele>1078.0</ele>
        <time>2013-06-22T12:59:07Z</time>
      </trkpt>
      <trkpt lat="42.641250" lon="-2.373850">
        <ele>1078.0</ele>
        <time>2013-06-22T12:59:08Z</time>
      </trkpt>
      <trkpt lat="42.641300" lon="-2.373817">
        <ele>1079.0</ele>
        <time>2013-06-22T12:59:09Z</time>
      </trkpt>
      <trkpt lat="42.641333" lon="-2.373783">
        <ele>1081.0</ele>
        <time>2013-06-22T12:59:10Z</time>
      </trkpt>
      <trkpt lat="42.641367" lon="-2.373733">
        <ele>1083.0</ele>
        <time>2013-06-22T12:59:11Z</time>
      </trkpt>
      <trkpt lat="42.641383" lon="-2.373700">
        <ele>1085.0</ele>
        <time>2013-06-22T12:59:12Z</time>
      </trkpt>
      <trkpt lat="42.641417" lon="-2.373667">
        <ele>1086.0</ele>
        <time>2013-06-22T12:59:13Z</time>
      </trkpt>
      <trkpt lat="42.641450" lon="-2.373617">
        <ele>1087.0</ele>
        <time>2013-06-22T12:59:14Z</time>
      </trkpt>
      <trkpt lat="42.641500" lon="-2.373583">
        <ele>1088.0</ele>
        <time>2013-06-22T12:59:15Z</time>
      </trkpt>
      <trkpt lat="42.641550" lon="-2.373550">
        <ele>1089.0</ele>
        <time>2013-06-22T12:59:16Z</time>
      </trkpt>
      <trkpt lat="42.641583" lon="-2.373517">
        <ele>1093.0</ele>
        <time>2013-06-22T12:59:17Z</time>
      </trkpt>
      <trkpt lat="42.641617" lon="-2.373500">
        <ele>1095.0</ele>
        <time>2013-06-22T12:59:18Z</time>
      </trkpt>
      <trkpt lat="42.641650" lon="-2.373450">
        <ele>1097.0</ele>
        <time>2013-06-22T12:59:19Z</time>
      </trkpt>
      <trkpt lat="42.641700" lon="-2.373400">
        <ele>1099.0</ele>
        <time>2013-06-22T12:59:20Z</time>
      </trkpt>
      <trkpt lat="42.641733" lon="-2.373317">
        <ele>1099.0</ele>
        <time>2013-06-22T12:59:21Z</time>
      </trkpt>
      <trkpt lat="42.641750" lon="-2.373233">
        <ele>1101.0</ele>
        <time>2013-06-22T12:59:22Z</time>
      </trkpt>
      <trkpt lat="42.641767" lon="-2.373150">
        <ele>1103.0</ele>
        <time>2013-06-22T12:59:23Z</time>
      </trkpt>
      <trkpt lat="42.641783" lon="-2.373100">
        <ele>1105.0</ele>
        <time>2013-06-22T12:59:24Z</time>
      </trkpt>
      <trkpt lat="42.641800" lon="-2.373083">
        <ele>1106.0</ele>
        <time>2013-06-22T12:59:25Z</time>
      </trkpt>
      <trkpt lat="42.641850" lon="-2.373083">
        <ele>1105.0</ele>
        <time>2013-06-22T12:59:26Z</time>
      </trkpt>
      <trkpt lat="42.641883" lon="-2.373100">
        <ele>1105.0</ele>
        <time>2013-06-22T12:59:27Z</time>
      </trkpt>
      <trkpt lat="42.641900" lon="-2.373150">
        <ele>1106.0</ele>
        <time>2013-06-22T12:59:28Z</time>
      </trkpt>
      <trkpt lat="42.641883" lon="-2.373217">
        <ele>1107.0</ele>
        <time>2013-06-22T12:59:29Z</time>
      </trkpt>
      <trkpt lat="42.641850" lon="-2.373317">
        <ele>1107.0</ele>
        <time>2013-06-22T12:59:30Z</time>
      </trkpt>
      <trkpt lat="42.641783" lon="-2.373417">
        <ele>1106.0</ele>
        <time>2013-06-22T12:59:31Z</time>
      </trkpt>
      <trkpt lat="42.641700" lon="-2.373517">
        <ele>1106.0</ele>
        <time>2013-06-22T12:59:32Z</time>
      </trkpt>
      <trkpt lat="42.641600" lon="-2.373567">
        <ele>1106.0</ele>
        <time>2013-06-22T12:59:33Z</time>
      </trkpt>
      <trkpt lat="42.641467" lon="-2.373583">
        <ele>1106.0</ele>
        <time>2013-06-22T12:59:34Z</time>
      </trkpt>
      <trkpt lat="42.641350" lon="-2.373567">
        <ele>1107.0</ele>
        <time>2013-06-22T12:59:35Z</time>
      </trkpt>
      <trkpt lat="42.641217" lon="-2.373517">
        <ele>1108.0</ele>
        <time>2013-06-22T12:59:36Z</time>
      </trkpt>
      <trkpt lat="42.641117" lon="-2.373450">
        <ele>1111.0</ele>
        <time>2013-06-22T12:59:37Z</time>
      </trkpt>
      <trkpt lat="42.641017" lon="-2.373367">
        <ele>1112.0</ele>
        <time>2013-06-22T12:59:38Z</time>
      </trkpt>
      <trkpt lat="42.640950" lon="-2.373267">
        <ele>1112.0</ele>
        <time>2013-06-22T12:59:39Z</time>
      </trkpt>
      <trkpt lat="42.640883" lon="-2.373150">
        <ele>1112.0</ele>
        <time>2013-06-22T12:59:40Z</time>
      </trkpt>
      <trkpt lat="42.640833" lon="-2.373017">
        <ele>1113.0</ele>
        <time>2013-06-22T12:59:41Z</time>
      </trkpt>
      <trkpt lat="42.640783" lon="-2.372900">
        <ele>1114.0</ele>
        <time>2013-06-22T12:59:42Z</time>
      </trkpt>
      <trkpt lat="42.640750" lon="-2.372783">
        <ele>1116.0</ele>
        <time>2013-06-22T12:59:43Z</time>
      </trkpt>
      <trkpt lat="42.640717" lon="-2.372683">
        <ele>1118.0</ele>
        <time>2013-06-22T12:59:44Z</time>
      </trkpt>
      <trkpt lat="42.640683" lon="-2.372567">
        <ele>1118.0</ele>
        <time>2013-06-22T12:59:45Z</time>
      </trkpt>
      <trkpt lat="42.640667" lon="-2.372450">
        <ele>1119.0</ele>
        <time>2013-06-22T12:59:46Z</time>
      </trkpt>
      <trkpt lat="42.640650" lon="-2.372350">
        <ele>1120.0</ele>
        <time>2013-06-22T12:59:47Z</time>
      </trkpt>
      <trkpt lat="42.640683" lon="-2.372267">
        <ele>1121.0</ele>
        <time>2013-06-22T12:59:48Z</time>
      </trkpt>
      <trkpt lat="42.640700" lon="-2.372233">
        <ele>1122.0</ele>
        <time>2013-06-22T12:59:49Z</time>
      </trkpt>
      <trkpt lat="42.640733" lon="-2.372217">
        <ele>1123.0</ele>
        <time>2013-06-22T12:59:50Z</time>
      </trkpt>
      <trkpt lat="42.640750" lon="-2.372233">
        <ele>1123.0</ele>
        <time>2013-06-22T12:59:51Z</time>
      </trkpt>
      <trkpt lat="42.640767" lon="-2.372250">
        <ele>1124.0</ele>
        <time>2013-06-22T12:59:52Z</time>
      </trkpt>
      <trkpt lat="42.640767" lon="-2.372300">
        <ele>1125.0</ele>
        <time>2013-06-22T12:59:53Z</time>
      </trkpt>
      <trkpt lat="42.640767" lon="-2.372383">
        <ele>1124.0</ele>
        <time>2013-06-22T12:59:54Z</time>
      </trkpt>
      <trkpt lat="42.640733" lon="-2.372483">
        <ele>1124.0</ele>
        <time>2013-06-22T12:59:55Z</time>
      </trkpt>
      <trkpt lat="42.640667" lon="-2.372600">
        <ele>1124.0</ele>
        <time>2013-06-22T12:59:56Z</time>
      </trkpt>
      <trkpt lat="42.640583" lon="-2.372683">
        <ele>1123.0</ele>
        <time>2013-06-22T12:59:57Z</time>
      </trkpt>
      <trkpt lat="42.640467" lon="-2.372767">
        <ele>1123.0</ele>
        <time>2013-06-22T12:59:58Z</time>
      </trkpt>
      <trkpt lat="42.640333" lon="-2.372800">
        <ele>1124.0</ele>
        <time>2013-06-22T12:59:59Z</time>
      </trkpt>
      <trkpt lat="42.640200" lon="-2.372800">
        <ele>1124.0</ele>
        <time>2013-06-22T13:00:00Z</time>
      </trkpt>
      <trkpt lat="42.640067" lon="-2.372767">
        <ele>1124.0</ele>
        <time>2013-06-22T13:00:01Z</time>
      </trkpt>
      <trkpt lat="42.639950" lon="-2.372683">
        <ele>1125.0</ele>
        <time>2013-06-22T13:00:02Z</time>
      </trkpt>
      <trkpt lat="42.639850" lon="-2.372583">
        <ele>1126.0</ele>
        <time>2013-06-22T13:00:03Z</time>
      </trkpt>
      <trkpt lat="42.639767" lon="-2.372483">
        <ele>1127.0</ele>
        <time>2013-06-22T13:00:04Z</time>
      </trkpt>
      <trkpt lat="42.639683" lon="-2.372367">
        <ele>1128.0</ele>
        <time>2013-06-22T13:00:05Z</time>
      </trkpt>
      <trkpt lat="42.639633" lon="-2.372250">
        <ele>1129.0</ele>
        <time>2013-06-22T13:00:06Z</time>
      </trkpt>
      <trkpt lat="42.639617" lon="-2.372133">
        <ele>1130.0</ele>
        <time>2013-06-22T13:00:07Z</time>
      </trkpt>
      <trkpt lat="42.639600" lon="-2.372017">
        <ele>1131.0</ele>
        <time>2013-06-22T13:00:08Z</time>
      </trkpt>
      <trkpt lat="42.639583" lon="-2.371933">
        <ele>1132.0</ele>
        <time>2013-06-22T13:00:09Z</time>
      </trkpt>
      <trkpt lat="42.639583" lon="-2.371850">
        <ele>1133.0</ele>
        <time>2013-06-22T13:00:10Z</time>
      </trkpt>
      <trkpt lat="42.639583" lon="-2.371767">
        <ele>1134.0</ele>
        <time>2013-06-22T13:00:11Z</time>
      </trkpt>
      <trkpt lat="42.639600" lon="-2.371700">
        <ele>1133.0</ele>
        <time>2013-06-22T13:00:12Z</time>
      </trkpt>
      <trkpt lat="42.639617" lon="-2.371617">
        <ele>1131.0</ele>
        <time>2013-06-22T13:00:13Z</time>
      </trkpt>
      <trkpt lat="42.639650" lon="-2.371567">
        <ele>1130.0</ele>
        <time>2013-06-22T13:00:14Z</time>
      </trkpt>
      <trkpt lat="42.639683" lon="-2.371533">
        <ele>1130.0</ele>
        <time>2013-06-22T13:00:15Z</time>
      </trkpt>
      <trkpt lat="42.639700" lon="-2.371533">
        <ele>1130.0</ele>
        <time>2013-06-22T13:00:16Z</time>
      </trkpt>
      <trkpt lat="42.639733" lon="-2.371533">
        <ele>1130.0</ele>
        <time>2013-06-22T13:00:17Z</time>
      </trkpt>
      <trkpt lat="42.639750" lon="-2.371533">
        <ele>1130.0</ele>
        <time>2013-06-22T13:00:18Z</time>
      </trkpt>
      <trkpt lat="42.639783" lon="-2.371533">
        <ele>1130.0</ele>
        <time>2013-06-22T13:00:19Z</time>
      </trkpt>
      <trkpt lat="42.639817" lon="-2.371550">
        <ele>1130.0</ele>
        <time>2013-06-22T13:00:20Z</time>
      </trkpt>
      <trkpt lat="42.639850" lon="-2.371567">
        <ele>1130.0</ele>
        <time>2013-06-22T13:00:21Z</time>
      </trkpt>
      <trkpt lat="42.639883" lon="-2.371583">
        <ele>1131.0</ele>
        <time>2013-06-22T13:00:22Z</time>
      </trkpt>
      <trkpt lat="42.639900" lon="-2.371583">
        <ele>1133.0</ele>
        <time>2013-06-22T13:00:23Z</time>
      </trkpt>
      <trkpt lat="42.639917" lon="-2.371600">
        <ele>1135.0</ele>
        <time>2013-06-22T13:00:24Z</time>
      </trkpt>
      <trkpt lat="42.639933" lon="-2.371617">
        <ele>1136.0</ele>
        <time>2013-06-22T13:00:25Z</time>
      </trkpt>
      <trkpt lat="42.639983" lon="-2.371650">
        <ele>1136.0</ele>
        <time>2013-06-22T13:00:26Z</time>
      </trkpt>
      <trkpt lat="42.640017" lon="-2.371683">
        <ele>1135.0</ele>
        <time>2013-06-22T13:00:27Z</time>
      </trkpt>
      <trkpt lat="42.640050" lon="-2.371700">
        <ele>1135.0</ele>
        <time>2013-06-22T13:00:28Z</time>
      </trkpt>
      <trkpt lat="42.640067" lon="-2.371717">
        <ele>1136.0</ele>
        <time>2013-06-22T13:00:29Z</time>
      </trkpt>
      <trkpt lat="42.640100" lon="-2.371717">
        <ele>1137.0</ele>
        <time>2013-06-22T13:00:30Z</time>
      </trkpt>
      <trkpt lat="42.640133" lon="-2.371717">
        <ele>1137.0</ele>
        <time>2013-06-22T13:00:31Z</time>
      </trkpt>
      <trkpt lat="42.640167" lon="-2.371733">
        <ele>1136.0</ele>
        <time>2013-06-22T13:00:32Z</time>
      </trkpt>
      <trkpt lat="42.640200" lon="-2.371733">
        <ele>1135.0</ele>
        <time>2013-06-22T13:00:33Z</time>
      </trkpt>
      <trkpt lat="42.640233" lon="-2.371733">
        <ele>1135.0</ele>
        <time>2013-06-22T13:00:34Z</time>
      </trkpt>
      <trkpt lat="42.640267" lon="-2.371733">
        <ele>1135.0</ele>
        <time>2013-06-22T13:00:35Z</time>
      </trkpt>
      <trkpt lat="42.640300" lon="-2.371717">
        <ele>1135.0</ele>
        <time>2013-06-22T13:00:36Z</time>
      </trkpt>
      <trkpt lat="42.640333" lon="-2.371717">
        <ele>1135.0</ele>
        <time>2013-06-22T13:00:37Z</time>
      </trkpt>
      <trkpt lat="42.640367" lon="-2.371700">
        <ele>1134.0</ele>
        <time>2013-06-22T13:00:38Z</time>
      </trkpt>
      <trkpt lat="42.640417" lon="-2.371683">
        <ele>1133.0</ele>
        <time>2013-06-22T13:00:39Z</time>
      </trkpt>
      <trkpt lat="42.640450" lon="-2.371683">
        <ele>1133.0</ele>
        <time>2013-06-22T13:00:40Z</time>
      </trkpt>
      <trkpt lat="42.640483" lon="-2.371650">
        <ele>1133.0</ele>
        <time>2013-06-22T13:00:41Z</time>
      </trkpt>
      <trkpt lat="42.640517" lon="-2.371633">
        <ele>1134.0</ele>
        <time>2013-06-22T13:00:42Z</time>
      </trkpt>
      <trkpt lat="42.640533" lon="-2.371617">
        <ele>1135.0</ele>
        <time>2013-06-22T13:00:43Z</time>
      </trkpt>
      <trkpt lat="42.640567" lon="-2.371600">
        <ele>1135.0</ele>
        <time>2013-06-22T13:00:44Z</time>
      </trkpt>
      <trkpt lat="42.640600" lon="-2.371567">
        <ele>1135.0</ele>
        <time>2013-06-22T13:00:45Z</time>
      </trkpt>
      <trkpt lat="42.640617" lon="-2.371533">
        <ele>1135.0</ele>
        <time>2013-06-22T13:00:46Z</time>
      </trkpt>
      <trkpt lat="42.640650" lon="-2.371517">
        <ele>1135.0</ele>
        <time>2013-06-22T13:00:47Z</time>
      </trkpt>
      <trkpt lat="42.640683" lon="-2.371483">
        <ele>1136.0</ele>
        <time>2013-06-22T13:00:48Z</time>
      </trkpt>
      <trkpt lat="42.640717" lon="-2.371450">
        <ele>1136.0</ele>
        <time>2013-06-22T13:00:49Z</time>
      </trkpt>
      <trkpt lat="42.640733" lon="-2.371433">
        <ele>1136.0</ele>
        <time>2013-06-22T13:00:50Z</time>
      </trkpt>
      <trkpt lat="42.640750" lon="-2.371400">
        <ele>1137.0</ele>
        <time>2013-06-22T13:00:51Z</time>
      </trkpt>
      <trkpt lat="42.640767" lon="-2.371367">
        <ele>1137.0</ele>
        <time>2013-06-22T13:00:52Z</time>
      </trkpt>
      <trkpt lat="42.640783" lon="-2.371333">
        <ele>1137.0</ele>
        <time>2013-06-22T13:00:53Z</time>
      </trkpt>
      <trkpt lat="42.640800" lon="-2.371267">
        <ele>1136.0</ele>
        <time>2013-06-22T13:00:54Z</time>
      </trkpt>
      <trkpt lat="42.640817" lon="-2.371183">
        <ele>1136.0</ele>
        <time>2013-06-22T13:00:55Z</time>
      </trkpt>
      <trkpt lat="42.640833" lon="-2.371100">
        <ele>1135.0</ele>
        <time>2013-06-22T13:00:56Z</time>
      </trkpt>
      <trkpt lat="42.640833" lon="-2.371017">
        <ele>1135.0</ele>
        <time>2013-06-22T13:00:57Z</time>
      </trkpt>
      <trkpt lat="42.640850" lon="-2.370950">
        <ele>1135.0</ele>
        <time>2013-06-22T13:00:58Z</time>
      </trkpt>
      <trkpt lat="42.640850" lon="-2.370883">
        <ele>1135.0</ele>
        <time>2013-06-22T13:00:59Z</time>
      </trkpt>
      <trkpt lat="42.640867" lon="-2.370817">
        <ele>1134.0</ele>
        <time>2013-06-22T13:01:00Z</time>
      </trkpt>
      <trkpt lat="42.640883" lon="-2.370750">
        <ele>1134.0</ele>
        <time>2013-06-22T13:01:01Z</time>
      </trkpt>
      <trkpt lat="42.640900" lon="-2.370667">
        <ele>1133.0</ele>
        <time>2013-06-22T13:01:02Z</time>
      </trkpt>
      <trkpt lat="42.640917" lon="-2.370600">
        <ele>1132.0</ele>
        <time>2013-06-22T13:01:03Z</time>
      </trkpt>
      <trkpt lat="42.640950" lon="-2.370533">
        <ele>1132.0</ele>
        <time>2013-06-22T13:01:04Z</time>
      </trkpt>
      <trkpt lat="42.640967" lon="-2.370483">
        <ele>1131.0</ele>
        <time>2013-06-22T13:01:05Z</time>
      </trkpt>
      <trkpt lat="42.641000" lon="-2.370433">
        <ele>1130.0</ele>
        <time>2013-06-22T13:01:06Z</time>
      </trkpt>
      <trkpt lat="42.641017" lon="-2.370383">
        <ele>1130.0</ele>
        <time>2013-06-22T13:01:07Z</time>
      </trkpt>
      <trkpt lat="42.641033" lon="-2.370350">
        <ele>1129.0</ele>
        <time>2013-06-22T13:01:08Z</time>
      </trkpt>
      <trkpt lat="42.641067" lon="-2.370317">
        <ele>1128.0</ele>
        <time>2013-06-22T13:01:09Z</time>
      </trkpt>
      <trkpt lat="42.641100" lon="-2.370267">
        <ele>1127.0</ele>
        <time>2013-06-22T13:01:10Z</time>
      </trkpt>
      <trkpt lat="42.641133" lon="-2.370233">
        <ele>1126.0</ele>
        <time>2013-06-22T13:01:11Z</time>
      </trkpt>
      <trkpt lat="42.641167" lon="-2.370217">
        <ele>1125.0</ele>
        <time>2013-06-22T13:01:12Z</time>
      </trkpt>
      <trkpt lat="42.641200" lon="-2.370200">
        <ele>1126.0</ele>
        <time>2013-06-22T13:01:13Z</time>
      </trkpt>
      <trkpt lat="42.641217" lon="-2.370183">
        <ele>1126.0</ele>
        <time>2013-06-22T13:01:14Z</time>
      </trkpt>
      <trkpt lat="42.641233" lon="-2.370200">
        <ele>1126.0</ele>
        <time>2013-06-22T13:01:15Z</time>
      </trkpt>
      <trkpt lat="42.641267" lon="-2.370217">
        <ele>1125.0</ele>
        <time>2013-06-22T13:01:16Z</time>
      </trkpt>
      <trkpt lat="42.641300" lon="-2.370233">
        <ele>1123.0</ele>
        <time>2013-06-22T13:01:17Z</time>
      </trkpt>
      <trkpt lat="42.641350" lon="-2.370233">
        <ele>1122.0</ele>
        <time>2013-06-22T13:01:18Z</time>
      </trkpt>
      <trkpt lat="42.641383" lon="-2.370250">
        <ele>1121.0</ele>
        <time>2013-06-22T13:01:19Z</time>
      </trkpt>
      <trkpt lat="42.641417" lon="-2.370250">
        <ele>1120.0</ele>
        <time>2013-06-22T13:01:20Z</time>
      </trkpt>
      <trkpt lat="42.641450" lon="-2.370250">
        <ele>1120.0</ele>
        <time>2013-06-22T13:01:21Z</time>
      </trkpt>
      <trkpt lat="42.641483" lon="-2.370267">
        <ele>1119.0</ele>
        <time>2013-06-22T13:01:22Z</time>
      </trkpt>
      <trkpt lat="42.641517" lon="-2.370283">
        <ele>1119.0</ele>
        <time>2013-06-22T13:01:23Z</time>
      </trkpt>
      <trkpt lat="42.641550" lon="-2.370300">
        <ele>1118.0</ele>
        <time>2013-06-22T13:01:24Z</time>
      </trkpt>
      <trkpt lat="42.641583" lon="-2.370300">
        <ele>1118.0</ele>
        <time>2013-06-22T13:01:25Z</time>
      </trkpt>
      <trkpt lat="42.641617" lon="-2.370300">
        <ele>1118.0</ele>
        <time>2013-06-22T13:01:26Z</time>
      </trkpt>
      <trkpt lat="42.641650" lon="-2.370300">
        <ele>1117.0</ele>
        <time>2013-06-22T13:01:27Z</time>
      </trkpt>
      <trkpt lat="42.641700" lon="-2.370300">
        <ele>1117.0</ele>
        <time>2013-06-22T13:01:28Z</time>
      </trkpt>
      <trkpt lat="42.641733" lon="-2.370283">
        <ele>1117.0</ele>
        <time>2013-06-22T13:01:29Z</time>
      </trkpt>
      <trkpt lat="42.641767" lon="-2.370283">
        <ele>1116.0</ele>
        <time>2013-06-22T13:01:30Z</time>
      </trkpt>
      <trkpt lat="42.641800" lon="-2.370267">
        <ele>1116.0</ele>
        <time>2013-06-22T13:01:31Z</time>
      </trkpt>
      <trkpt lat="42.641833" lon="-2.370250">
        <ele>1116.0</ele>
        <time>2013-06-22T13:01:32Z</time>
      </trkpt>
      <trkpt lat="42.641867" lon="-2.370217">
        <ele>1115.0</ele>
        <time>2013-06-22T13:01:33Z</time>
      </trkpt>
      <trkpt lat="42.641917" lon="-2.370200">
        <ele>1114.0</ele>
        <time>2013-06-22T13:01:34Z</time>
      </trkpt>
      <trkpt lat="42.641950" lon="-2.370183">
        <ele>1114.0</ele>
        <time>2013-06-22T13:01:35Z</time>
      </trkpt>
      <trkpt lat="42.641983" lon="-2.370150">
        <ele>1115.0</ele>
        <time>2013-06-22T13:01:36Z</time>
      </trkpt>
      <trkpt lat="42.642017" lon="-2.370150">
        <ele>1115.0</ele>
        <time>2013-06-22T13:01:37Z</time>
      </trkpt>
      <trkpt lat="42.642033" lon="-2.370150">
        <ele>1114.0</ele>
        <time>2013-06-22T13:01:38Z</time>
      </trkpt>
      <trkpt lat="42.642083" lon="-2.370133">
        <ele>1112.0</ele>
        <time>2013-06-22T13:01:39Z</time>
      </trkpt>
      <trkpt lat="42.642133" lon="-2.370150">
        <ele>1111.0</ele>
        <time>2013-06-22T13:01:40Z</time>
      </trkpt>
      <trkpt lat="42.642183" lon="-2.370167">
        <ele>1110.0</ele>
        <time>2013-06-22T13:01:41Z</time>
      </trkpt>
      <trkpt lat="42.642217" lon="-2.370167">
        <ele>1109.0</ele>
        <time>2013-06-22T13:01:42Z</time>
      </trkpt>
      <trkpt lat="42.642250" lon="-2.370167">
        <ele>1109.0</ele>
        <time>2013-06-22T13:01:43Z</time>
      </trkpt>
      <trkpt lat="42.642300" lon="-2.370167">
        <ele>1109.0</ele>
        <time>2013-06-22T13:01:44Z</time>
      </trkpt>
      <trkpt lat="42.642333" lon="-2.370150">
        <ele>1108.0</ele>
        <time>2013-06-22T13:01:45Z</time>
      </trkpt>
      <trkpt lat="42.642383" lon="-2.370133">
        <ele>1107.0</ele>
        <time>2013-06-22T13:01:46Z</time>
      </trkpt>
      <trkpt lat="42.642417" lon="-2.370117">
        <ele>1107.0</ele>
        <time>2013-06-22T13:01:47Z</time>
      </trkpt>
      <trkpt lat="42.642467" lon="-2.370100">
        <ele>1106.0</ele>
        <time>2013-06-22T13:01:48Z</time>
      </trkpt>
      <trkpt lat="42.642517" lon="-2.370083">
        <ele>1107.0</ele>
        <time>2013-06-22T13:01:49Z</time>
      </trkpt>
      <trkpt lat="42.642550" lon="-2.370067">
        <ele>1107.0</ele>
        <time>2013-06-22T13:01:50Z</time>
      </trkpt>
      <trkpt lat="42.642600" lon="-2.370050">
        <ele>1107.0</ele>
        <time>2013-06-22T13:01:51Z</time>
      </trkpt>
      <trkpt lat="42.642633" lon="-2.370033">
        <ele>1107.0</ele>
        <time>2013-06-22T13:01:52Z</time>
      </trkpt>
      <trkpt lat="42.642683" lon="-2.370017">
        <ele>1107.0</ele>
        <time>2013-06-22T13:01:53Z</time>
      </trkpt>
      <trkpt lat="42.642717" lon="-2.370000">
        <ele>1107.0</ele>
        <time>2013-06-22T13:01:54Z</time>
      </trkpt>
      <trkpt lat="42.642750" lon="-2.370000">
        <ele>1108.0</ele>
        <time>2013-06-22T13:01:55Z</time>
      </trkpt>
      <trkpt lat="42.642783" lon="-2.369983">
        <ele>1109.0</ele>
        <time>2013-06-22T13:01:56Z</time>
      </trkpt>
      <trkpt lat="42.642817" lon="-2.369983">
        <ele>1109.0</ele>
        <time>2013-06-22T13:01:57Z</time>
      </trkpt>
      <trkpt lat="42.642867" lon="-2.369967">
        <ele>1108.0</ele>
        <time>2013-06-22T13:01:58Z</time>
      </trkpt>
      <trkpt lat="42.642917" lon="-2.369950">
        <ele>1108.0</ele>
        <time>2013-06-22T13:01:59Z</time>
      </trkpt>
      <trkpt lat="42.642950" lon="-2.369917">
        <ele>1107.0</ele>
        <time>2013-06-22T13:02:00Z</time>
      </trkpt>
      <trkpt lat="42.643000" lon="-2.369900">
        <ele>1107.0</ele>
        <time>2013-06-22T13:02:01Z</time>
      </trkpt>
      <trkpt lat="42.643033" lon="-2.369867">
        <ele>1108.0</ele>
        <time>2013-06-22T13:02:02Z</time>
      </trkpt>
      <trkpt lat="42.643067" lon="-2.369833">
        <ele>1108.0</ele>
        <time>2013-06-22T13:02:03Z</time>
      </trkpt>
      <trkpt lat="42.643117" lon="-2.369817">
        <ele>1108.0</ele>
        <time>2013-06-22T13:02:04Z</time>
      </trkpt>
      <trkpt lat="42.643150" lon="-2.369783">
        <ele>1108.0</ele>
        <time>2013-06-22T13:02:05Z</time>
      </trkpt>
      <trkpt lat="42.643200" lon="-2.369750">
        <ele>1108.0</ele>
        <time>2013-06-22T13:02:06Z</time>
      </trkpt>
      <trkpt lat="42.643233" lon="-2.369733">
        <ele>1107.0</ele>
        <time>2013-06-22T13:02:07Z</time>
      </trkpt>
      <trkpt lat="42.643283" lon="-2.369700">
        <ele>1107.0</ele>
        <time>2013-06-22T13:02:08Z</time>
      </trkpt>
      <trkpt lat="42.643333" lon="-2.369667">
        <ele>1107.0</ele>
        <time>2013-06-22T13:02:09Z</time>
      </trkpt>
      <trkpt lat="42.643367" lon="-2.369633">
        <ele>1108.0</ele>
        <time>2013-06-22T13:02:10Z</time>
      </trkpt>
      <trkpt lat="42.643417" lon="-2.369617">
        <ele>1109.0</ele>
        <time>2013-06-22T13:02:11Z</time>
      </trkpt>
      <trkpt lat="42.643450" lon="-2.369617">
        <ele>1108.0</ele>
        <time>2013-06-22T13:02:12Z</time>
      </trkpt>
      <trkpt lat="42.643500" lon="-2.369600">
        <ele>1108.0</ele>
        <time>2013-06-22T13:02:13Z</time>
      </trkpt>
      <trkpt lat="42.643550" lon="-2.369583">
        <ele>1108.0</ele>
        <time>2013-06-22T13:02:14Z</time>
      </trkpt>
      <trkpt lat="42.643583" lon="-2.369567">
        <ele>1107.0</ele>
        <time>2013-06-22T13:02:15Z</time>
      </trkpt>
      <trkpt lat="42.643633" lon="-2.369550">
        <ele>1108.0</ele>
        <time>2013-06-22T13:02:16Z</time>
      </trkpt>
      <trkpt lat="42.643667" lon="-2.369533">
        <ele>1108.0</ele>
        <time>2013-06-22T13:02:17Z</time>
      </trkpt>
      <trkpt lat="42.643700" lon="-2.369500">
        <ele>1108.0</ele>
        <time>2013-06-22T13:02:18Z</time>
      </trkpt>
      <trkpt lat="42.643750" lon="-2.369467">
        <ele>1107.0</ele>
        <time>2013-06-22T13:02:19Z</time>
      </trkpt>
      <trkpt lat="42.643800" lon="-2.369433">
        <ele>1106.0</ele>
        <time>2013-06-22T13:02:20Z</time>
      </trkpt>
      <trkpt lat="42.643850" lon="-2.369400">
        <ele>1105.0</ele>
        <time>2013-06-22T13:02:21Z</time>
      </trkpt>
      <trkpt lat="42.643883" lon="-2.369367">
        <ele>1105.0</ele>
        <time>2013-06-22T13:02:22Z</time>
      </trkpt>
      <trkpt lat="42.643917" lon="-2.369333">
        <ele>1106.0</ele>
        <time>2013-06-22T13:02:23Z</time>
      </trkpt>
      <trkpt lat="42.643950" lon="-2.369300">
        <ele>1106.0</ele>
        <time>2013-06-22T13:02:24Z</time>
      </trkpt>
      <trkpt lat="42.644000" lon="-2.369267">
        <ele>1105.0</ele>
        <time>2013-06-22T13:02:25Z</time>
      </trkpt>
      <trkpt lat="42.644050" lon="-2.369217">
        <ele>1104.0</ele>
        <time>2013-06-22T13:02:26Z</time>
      </trkpt>
      <trkpt lat="42.644100" lon="-2.369183">
        <ele>1104.0</ele>
        <time>2013-06-22T13:02:27Z</time>
      </trkpt>
      <trkpt lat="42.644133" lon="-2.369133">
        <ele>1104.0</ele>
        <time>2013-06-22T13:02:28Z</time>
      </trkpt>
      <trkpt lat="42.644183" lon="-2.369083">
        <ele>1105.0</ele>
        <time>2013-06-22T13:02:29Z</time>
      </trkpt>
      <trkpt lat="42.644217" lon="-2.369050">
        <ele>1105.0</ele>
        <time>2013-06-22T13:02:30Z</time>
      </trkpt>
      <trkpt lat="42.644267" lon="-2.369017">
        <ele>1106.0</ele>
        <time>2013-06-22T13:02:31Z</time>
      </trkpt>
      <trkpt lat="42.644300" lon="-2.368983">
        <ele>1105.0</ele>
        <time>2013-06-22T13:02:32Z</time>
      </trkpt>
      <trkpt lat="42.644350" lon="-2.368950">
        <ele>1104.0</ele>
        <time>2013-06-22T13:02:33Z</time>
      </trkpt>
      <trkpt lat="42.644400" lon="-2.368917">
        <ele>1104.0</ele>
        <time>2013-06-22T13:02:34Z</time>
      </trkpt>
      <trkpt lat="42.644433" lon="-2.368900">
        <ele>1103.0</ele>
        <time>2013-06-22T13:02:35Z</time>
      </trkpt>
      <trkpt lat="42.644483" lon="-2.368867">
        <ele>1103.0</ele>
        <time>2013-06-22T13:02:36Z</time>
      </trkpt>
      <trkpt lat="42.644533" lon="-2.368833">
        <ele>1103.0</ele>
        <time>2013-06-22T13:02:37Z</time>
      </trkpt>
      <trkpt lat="42.644567" lon="-2.368817">
        <ele>1103.0</ele>
        <time>2013-06-22T13:02:38Z</time>
      </trkpt>
      <trkpt lat="42.644617" lon="-2.368783">
        <ele>1103.0</ele>
        <time>2013-06-22T13:02:39Z</time>
      </trkpt>
      <trkpt lat="42.644667" lon="-2.368750">
        <ele>1103.0</ele>
        <time>2013-06-22T13:02:40Z</time>
      </trkpt>
      <trkpt lat="42.644717" lon="-2.368717">
        <ele>1102.0</ele>
        <time>2013-06-22T13:02:41Z</time>
      </trkpt>
      <trkpt lat="42.644767" lon="-2.368683">
        <ele>1102.0</ele>
        <time>2013-06-22T13:02:42Z</time>
      </trkpt>
      <trkpt lat="42.644817" lon="-2.368650">
        <ele>1102.0</ele>
        <time>2013-06-22T13:02:43Z</time>
      </trkpt>
      <trkpt lat="42.644850" lon="-2.368600">
        <ele>1103.0</ele>
        <time>2013-06-22T13:02:44Z</time>
      </trkpt>
      <trkpt lat="42.644883" lon="-2.368567">
        <ele>1104.0</ele>
        <time>2013-06-22T13:02:45Z</time>
      </trkpt>
      <trkpt lat="42.644933" lon="-2.368550">
        <ele>1104.0</ele>
        <time>2013-06-22T13:02:46Z</time>
      </trkpt>
      <trkpt lat="42.644983" lon="-2.368500">
        <ele>1104.0</ele>
        <time>2013-06-22T13:02:47Z</time>
      </trkpt>
      <trkpt lat="42.645033" lon="-2.368467">
        <ele>1103.0</ele>
        <time>2013-06-22T13:02:48Z</time>
      </trkpt>
      <trkpt lat="42.645083" lon="-2.368417">
        <ele>1103.0</ele>
        <time>2013-06-22T13:02:49Z</time>
      </trkpt>
      <trkpt lat="42.645117" lon="-2.368367">
        <ele>1104.0</ele>
        <time>2013-06-22T13:02:50Z</time>
      </trkpt>
      <trkpt lat="42.645167" lon="-2.368333">
        <ele>1105.0</ele>
        <time>2013-06-22T13:02:51Z</time>
      </trkpt>
      <trkpt lat="42.645200" lon="-2.368283">
        <ele>1105.0</ele>
        <time>2013-06-22T13:02:52Z</time>
      </trkpt>
      <trkpt lat="42.645250" lon="-2.368250">
        <ele>1105.0</ele>
        <time>2013-06-22T13:02:53Z</time>
      </trkpt>
      <trkpt lat="42.645300" lon="-2.368200">
        <ele>1105.0</ele>
        <time>2013-06-22T13:02:54Z</time>
      </trkpt>
      <trkpt lat="42.645350" lon="-2.368133">
        <ele>1105.0</ele>
        <time>2013-06-22T13:02:55Z</time>
      </trkpt>
      <trkpt lat="42.645383" lon="-2.368083">
        <ele>1106.0</ele>
        <time>2013-06-22T13:02:56Z</time>
      </trkpt>
      <trkpt lat="42.645433" lon="-2.368033">
        <ele>1107.0</ele>
        <time>2013-06-22T13:02:57Z</time>
      </trkpt>
      <trkpt lat="42.645467" lon="-2.367983">
        <ele>1107.0</ele>
        <time>2013-06-22T13:02:58Z</time>
      </trkpt>
      <trkpt lat="42.645517" lon="-2.367933">
        <ele>1107.0</ele>
        <time>2013-06-22T13:02:59Z</time>
      </trkpt>
      <trkpt lat="42.645567" lon="-2.367867">
        <ele>1107.0</ele>
        <time>2013-06-22T13:03:00Z</time>
      </trkpt>
      <trkpt lat="42.645600" lon="-2.367817">
        <ele>1107.0</ele>
        <time>2013-06-22T13:03:01Z</time>
      </trkpt>
      <trkpt lat="42.645650" lon="-2.367767">
        <ele>1107.0</ele>
        <time>2013-06-22T13:03:02Z</time>
      </trkpt>
      <trkpt lat="42.645683" lon="-2.367700">
        <ele>1107.0</ele>
        <time>2013-06-22T13:03:03Z</time>
      </trkpt>
      <trkpt lat="42.645717" lon="-2.367633">
        <ele>1107.0</ele>
        <time>2013-06-22T13:03:04Z</time>
      </trkpt>
      <trkpt lat="42.645750" lon="-2.367567">
        <ele>1107.0</ele>
        <time>2013-06-22T13:03:05Z</time>
      </trkpt>
      <trkpt lat="42.645800" lon="-2.367500">
        <ele>1106.0</ele>
        <time>2013-06-22T13:03:06Z</time>
      </trkpt>
      <trkpt lat="42.645833" lon="-2.367433">
        <ele>1107.0</ele>
        <time>2013-06-22T13:03:07Z</time>
      </trkpt>
      <trkpt lat="42.645867" lon="-2.367383">
        <ele>1107.0</ele>
        <time>2013-06-22T13:03:08Z</time>
      </trkpt>
      <trkpt lat="42.645900" lon="-2.367317">
        <ele>1107.0</ele>
        <time>2013-06-22T13:03:09Z</time>
      </trkpt>
      <trkpt lat="42.645950" lon="-2.367250">
        <ele>1107.0</ele>
        <time>2013-06-22T13:03:10Z</time>
      </trkpt>
      <trkpt lat="42.645983" lon="-2.367183">
        <ele>1106.0</ele>
        <time>2013-06-22T13:03:11Z</time>
      </trkpt>
      <trkpt lat="42.646033" lon="-2.367100">
        <ele>1105.0</ele>
        <time>2013-06-22T13:03:12Z</time>
      </trkpt>
      <trkpt lat="42.646067" lon="-2.367050">
        <ele>1105.0</ele>
        <time>2013-06-22T13:03:13Z</time>
      </trkpt>
      <trkpt lat="42.646117" lon="-2.366983">
        <ele>1105.0</ele>
        <time>2013-06-22T13:03:14Z</time>
      </trkpt>
      <trkpt lat="42.646150" lon="-2.366917">
        <ele>1104.0</ele>
        <time>2013-06-22T13:03:15Z</time>
      </trkpt>
      <trkpt lat="42.646200" lon="-2.366833">
        <ele>1102.0</ele>
        <time>2013-06-22T13:03:16Z</time>
      </trkpt>
      <trkpt lat="42.646250" lon="-2.366750">
        <ele>1101.0</ele>
        <time>2013-06-22T13:03:17Z</time>
      </trkpt>
      <trkpt lat="42.646300" lon="-2.366667">
        <ele>1101.0</ele>
        <time>2013-06-22T13:03:18Z</time>
      </trkpt>
      <trkpt lat="42.646350" lon="-2.366583">
        <ele>1101.0</ele>
        <time>2013-06-22T13:03:19Z</time>
      </trkpt>
      <trkpt lat="42.646383" lon="-2.366500">
        <ele>1101.0</ele>
        <time>2013-06-22T13:03:20Z</time>
      </trkpt>
      <trkpt lat="42.646433" lon="-2.366433">
        <ele>1102.0</ele>
        <time>2013-06-22T13:03:21Z</time>
      </trkpt>
      <trkpt lat="42.646467" lon="-2.366367">
        <ele>1101.0</ele>
        <time>2013-06-22T13:03:22Z</time>
      </trkpt>
      <trkpt lat="42.646517" lon="-2.366300">
        <ele>1101.0</ele>
        <time>2013-06-22T13:03:23Z</time>
      </trkpt>
      <trkpt lat="42.646550" lon="-2.366217">
        <ele>1101.0</ele>
        <time>2013-06-22T13:03:24Z</time>
      </trkpt>
      <trkpt lat="42.646583" lon="-2.366150">
        <ele>1101.0</ele>
        <time>2013-06-22T13:03:25Z</time>
      </trkpt>
      <trkpt lat="42.646617" lon="-2.366083">
        <ele>1101.0</ele>
        <time>2013-06-22T13:03:26Z</time>
      </trkpt>
      <trkpt lat="42.646667" lon="-2.366017">
        <ele>1101.0</ele>
        <time>2013-06-22T13:03:27Z</time>
      </trkpt>
      <trkpt lat="42.646700" lon="-2.365950">
        <ele>1101.0</ele>
        <time>2013-06-22T13:03:28Z</time>
      </trkpt>
      <trkpt lat="42.646750" lon="-2.365883">
        <ele>1100.0</ele>
        <time>2013-06-22T13:03:29Z</time>
      </trkpt>
      <trkpt lat="42.646783" lon="-2.365817">
        <ele>1099.0</ele>
        <time>2013-06-22T13:03:30Z</time>
      </trkpt>
      <trkpt lat="42.646833" lon="-2.365733">
        <ele>1099.0</ele>
        <time>2013-06-22T13:03:31Z</time>
      </trkpt>
      <trkpt lat="42.646883" lon="-2.365667">
        <ele>1099.0</ele>
        <time>2013-06-22T13:03:32Z</time>
      </trkpt>
      <trkpt lat="42.646917" lon="-2.365600">
        <ele>1098.0</ele>
        <time>2013-06-22T13:03:33Z</time>
      </trkpt>
      <trkpt lat="42.646967" lon="-2.365517">
        <ele>1097.0</ele>
        <time>2013-06-22T13:03:34Z</time>
      </trkpt>
      <trkpt lat="42.647033" lon="-2.365433">
        <ele>1096.0</ele>
        <time>2013-06-22T13:03:35Z</time>
      </trkpt>
      <trkpt lat="42.647083" lon="-2.365350">
        <ele>1096.0</ele>
        <time>2013-06-22T13:03:36Z</time>
      </trkpt>
      <trkpt lat="42.647117" lon="-2.365283">
        <ele>1095.0</ele>
        <time>2013-06-22T13:03:37Z</time>
      </trkpt>
      <trkpt lat="42.647167" lon="-2.365217">
        <ele>1094.0</ele>
        <time>2013-06-22T13:03:38Z</time>
      </trkpt>
      <trkpt lat="42.647200" lon="-2.365133">
        <ele>1093.0</ele>
        <time>2013-06-22T13:03:39Z</time>
      </trkpt>
      <trkpt lat="42.647250" lon="-2.365050">
        <ele>1091.0</ele>
        <time>2013-06-22T13:03:40Z</time>
      </trkpt>
      <trkpt lat="42.647300" lon="-2.364983">
        <ele>1090.0</ele>
        <time>2013-06-22T13:03:41Z</time>
      </trkpt>
      <trkpt lat="42.647350" lon="-2.364900">
        <ele>1088.0</ele>
        <time>2013-06-22T13:03:42Z</time>
      </trkpt>
      <trkpt lat="42.647400" lon="-2.364833">
        <ele>1086.0</ele>
        <time>2013-06-22T13:03:43Z</time>
      </trkpt>
      <trkpt lat="42.647433" lon="-2.364750">
        <ele>1085.0</ele>
        <time>2013-06-22T13:03:44Z</time>
      </trkpt>
      <trkpt lat="42.647483" lon="-2.364667">
        <ele>1084.0</ele>
        <time>2013-06-22T13:03:45Z</time>
      </trkpt>
      <trkpt lat="42.647533" lon="-2.364600">
        <ele>1083.0</ele>
        <time>2013-06-22T13:03:46Z</time>
      </trkpt>
      <trkpt lat="42.647567" lon="-2.364533">
        <ele>1083.0</ele>
        <time>2013-06-22T13:03:47Z</time>
      </trkpt>
      <trkpt lat="42.647617" lon="-2.364467">
        <ele>1082.0</ele>
        <time>2013-06-22T13:03:48Z</time>
      </trkpt>
      <trkpt lat="42.647650" lon="-2.364400">
        <ele>1081.0</ele>
        <time>2013-06-22T13:03:49Z</time>
      </trkpt>
      <trkpt lat="42.647700" lon="-2.364317">
        <ele>1080.0</ele>
        <time>2013-06-22T13:03:50Z</time>
      </trkpt>
      <trkpt lat="42.647733" lon="-2.364217">
        <ele>1079.0</ele>
        <time>2013-06-22T13:03:51Z</time>
      </trkpt>
      <trkpt lat="42.647767" lon="-2.364133">
        <ele>1078.0</ele>
        <time>2013-06-22T13:03:52Z</time>
      </trkpt>
      <trkpt lat="42.647800" lon="-2.364050">
        <ele>1077.0</ele>
        <time>2013-06-22T13:03:53Z</time>
      </trkpt>
      <trkpt lat="42.647833" lon="-2.363950">
        <ele>1076.0</ele>
        <time>2013-06-22T13:03:54Z</time>
      </trkpt>
      <trkpt lat="42.647867" lon="-2.363850">
        <ele>1074.0</ele>
        <time>2013-06-22T13:03:55Z</time>
      </trkpt>
      <trkpt lat="42.647900" lon="-2.363733">
        <ele>1073.0</ele>
        <time>2013-06-22T13:03:56Z</time>
      </trkpt>
      <trkpt lat="42.647933" lon="-2.363633">
        <ele>1071.0</ele>
        <time>2013-06-22T13:03:57Z</time>
      </trkpt>
      <trkpt lat="42.647967" lon="-2.363533">
        <ele>1070.0</ele>
        <time>2013-06-22T13:03:58Z</time>
      </trkpt>
      <trkpt lat="42.648000" lon="-2.363450">
        <ele>1070.0</ele>
        <time>2013-06-22T13:03:59Z</time>
      </trkpt>
      <trkpt lat="42.648033" lon="-2.363350">
        <ele>1069.0</ele>
        <time>2013-06-22T13:04:00Z</time>
      </trkpt>
      <trkpt lat="42.648067" lon="-2.363267">
        <ele>1068.0</ele>
        <time>2013-06-22T13:04:01Z</time>
      </trkpt>
      <trkpt lat="42.648100" lon="-2.363167">
        <ele>1067.0</ele>
        <time>2013-06-22T13:04:02Z</time>
      </trkpt>
      <trkpt lat="42.648150" lon="-2.363067">
        <ele>1066.0</ele>
        <time>2013-06-22T13:04:03Z</time>
      </trkpt>
      <trkpt lat="42.648183" lon="-2.362967">
        <ele>1065.0</ele>
        <time>2013-06-22T13:04:04Z</time>
      </trkpt>
      <trkpt lat="42.648200" lon="-2.362900">
        <ele>1065.0</ele>
        <time>2013-06-22T13:04:05Z</time>
      </trkpt>
      <trkpt lat="42.648233" lon="-2.362817">
        <ele>1065.0</ele>
        <time>2013-06-22T13:04:06Z</time>
      </trkpt>
      <trkpt lat="42.648267" lon="-2.362733">
        <ele>1064.0</ele>
        <time>2013-06-22T13:04:07Z</time>
      </trkpt>
      <trkpt lat="42.648317" lon="-2.362650">
        <ele>1063.0</ele>
        <time>2013-06-22T13:04:08Z</time>
      </trkpt>
      <trkpt lat="42.648350" lon="-2.362567">
        <ele>1063.0</ele>
        <time>2013-06-22T13:04:09Z</time>
      </trkpt>
      <trkpt lat="42.648383" lon="-2.362467">
        <ele>1063.0</ele>
        <time>2013-06-22T13:04:10Z</time>
      </trkpt>
      <trkpt lat="42.648417" lon="-2.362383">
        <ele>1063.0</ele>
        <time>2013-06-22T13:04:11Z</time>
      </trkpt>
      <trkpt lat="42.648450" lon="-2.362300">
        <ele>1063.0</ele>
        <time>2013-06-22T13:04:12Z</time>
      </trkpt>
      <trkpt lat="42.648483" lon="-2.362217">
        <ele>1062.0</ele>
        <time>2013-06-22T13:04:13Z</time>
      </trkpt>
      <trkpt lat="42.648533" lon="-2.362133">
        <ele>1061.0</ele>
        <time>2013-06-22T13:04:14Z</time>
      </trkpt>
      <trkpt lat="42.648583" lon="-2.362050">
        <ele>1060.0</ele>
        <time>2013-06-22T13:04:15Z</time>
      </trkpt>
      <trkpt lat="42.648617" lon="-2.361967">
        <ele>1059.0</ele>
        <time>2013-06-22T13:04:16Z</time>
      </trkpt>
      <trkpt lat="42.648667" lon="-2.361883">
        <ele>1059.0</ele>
        <time>2013-06-22T13:04:17Z</time>
      </trkpt>
      <trkpt lat="42.648700" lon="-2.361800">
        <ele>1058.0</ele>
        <time>2013-06-22T13:04:18Z</time>
      </trkpt>
      <trkpt lat="42.648750" lon="-2.361700">
        <ele>1058.0</ele>
        <time>2013-06-22T13:04:19Z</time>
      </trkpt>
      <trkpt lat="42.648800" lon="-2.361617">
        <ele>1057.0</ele>
        <time>2013-06-22T13:04:20Z</time>
      </trkpt>
      <trkpt lat="42.648833" lon="-2.361533">
        <ele>1056.0</ele>
        <time>2013-06-22T13:04:21Z</time>
      </trkpt>
      <trkpt lat="42.648883" lon="-2.361450">
        <ele>1056.0</ele>
        <time>2013-06-22T13:04:22Z</time>
      </trkpt>
      <trkpt lat="42.648917" lon="-2.361383">
        <ele>1055.0</ele>
        <time>2013-06-22T13:04:23Z</time>
      </trkpt>
      <trkpt lat="42.648967" lon="-2.361300">
        <ele>1055.0</ele>
        <time>2013-06-22T13:04:24Z</time>
      </trkpt>
      <trkpt lat="42.649000" lon="-2.361217">
        <ele>1054.0</ele>
        <time>2013-06-22T13:04:25Z</time>
      </trkpt>
      <trkpt lat="42.649050" lon="-2.361133">
        <ele>1053.0</ele>
        <time>2013-06-22T13:04:26Z</time>
      </trkpt>
      <trkpt lat="42.649083" lon="-2.361033">
        <ele>1052.0</ele>
        <time>2013-06-22T13:04:27Z</time>
      </trkpt>
      <trkpt lat="42.649133" lon="-2.360933">
        <ele>1051.0</ele>
        <time>2013-06-22T13:04:28Z</time>
      </trkpt>
      <trkpt lat="42.649167" lon="-2.360833">
        <ele>1050.0</ele>
        <time>2013-06-22T13:04:29Z</time>
      </trkpt>
      <trkpt lat="42.649200" lon="-2.360733">
        <ele>1049.0</ele>
        <time>2013-06-22T13:04:30Z</time>
      </trkpt>
      <trkpt lat="42.649233" lon="-2.360633">
        <ele>1049.0</ele>
        <time>2013-06-22T13:04:31Z</time>
      </trkpt>
      <trkpt lat="42.649283" lon="-2.360517">
        <ele>1048.0</ele>
        <time>2013-06-22T13:04:32Z</time>
      </trkpt>
      <trkpt lat="42.649333" lon="-2.360417">
        <ele>1048.0</ele>
        <time>2013-06-22T13:04:33Z</time>
      </trkpt>
      <trkpt lat="42.649383" lon="-2.360317">
        <ele>1047.0</ele>
        <time>2013-06-22T13:04:34Z</time>
      </trkpt>
      <trkpt lat="42.649433" lon="-2.360233">
        <ele>1047.0</ele>
        <time>2013-06-22T13:04:35Z</time>
      </trkpt>
      <trkpt lat="42.649483" lon="-2.360133">
        <ele>1047.0</ele>
        <time>2013-06-22T13:04:36Z</time>
      </trkpt>
      <trkpt lat="42.649533" lon="-2.360050">
        <ele>1046.0</ele>
        <time>2013-06-22T13:04:37Z</time>
      </trkpt>
      <trkpt lat="42.649600" lon="-2.359950">
        <ele>1046.0</ele>
        <time>2013-06-22T13:04:38Z</time>
      </trkpt>
      <trkpt lat="42.649650" lon="-2.359833">
        <ele>1047.0</ele>
        <time>2013-06-22T13:04:39Z</time>
      </trkpt>
      <trkpt lat="42.649700" lon="-2.359750">
        <ele>1048.0</ele>
        <time>2013-06-22T13:04:40Z</time>
      </trkpt>
      <trkpt lat="42.649733" lon="-2.359667">
        <ele>1048.0</ele>
        <time>2013-06-22T13:04:41Z</time>
      </trkpt>
      <trkpt lat="42.649783" lon="-2.359567">
        <ele>1047.0</ele>
        <time>2013-06-22T13:04:42Z</time>
      </trkpt>
      <trkpt lat="42.649833" lon="-2.359467">
        <ele>1046.0</ele>
        <time>2013-06-22T13:04:43Z</time>
      </trkpt>
      <trkpt lat="42.649883" lon="-2.359350">
        <ele>1045.0</ele>
        <time>2013-06-22T13:04:44Z</time>
      </trkpt>
      <trkpt lat="42.649933" lon="-2.359250">
        <ele>1044.0</ele>
        <time>2013-06-22T13:04:45Z</time>
      </trkpt>
      <trkpt lat="42.649983" lon="-2.359167">
        <ele>1044.0</ele>
        <time>2013-06-22T13:04:46Z</time>
      </trkpt>
      <trkpt lat="42.650033" lon="-2.359100">
        <ele>1045.0</ele>
        <time>2013-06-22T13:04:47Z</time>
      </trkpt>
      <trkpt lat="42.650050" lon="-2.359017">
        <ele>1044.0</ele>
        <time>2013-06-22T13:04:48Z</time>
      </trkpt>
      <trkpt lat="42.650100" lon="-2.358917">
        <ele>1044.0</ele>
        <time>2013-06-22T13:04:49Z</time>
      </trkpt>
      <trkpt lat="42.650133" lon="-2.358833">
        <ele>1042.0</ele>
        <time>2013-06-22T13:04:50Z</time>
      </trkpt>
      <trkpt lat="42.650167" lon="-2.358717">
        <ele>1040.0</ele>
        <time>2013-06-22T13:04:51Z</time>
      </trkpt>
      <trkpt lat="42.650217" lon="-2.358617">
        <ele>1039.0</ele>
        <time>2013-06-22T13:04:52Z</time>
      </trkpt>
      <trkpt lat="42.650250" lon="-2.358500">
        <ele>1038.0</ele>
        <time>2013-06-22T13:04:53Z</time>
      </trkpt>
      <trkpt lat="42.650283" lon="-2.358400">
        <ele>1038.0</ele>
        <time>2013-06-22T13:04:54Z</time>
      </trkpt>
      <trkpt lat="42.650317" lon="-2.358317">
        <ele>1038.0</ele>
        <time>2013-06-22T13:04:55Z</time>
      </trkpt>
      <trkpt lat="42.650350" lon="-2.358217">
        <ele>1037.0</ele>
        <time>2013-06-22T13:04:56Z</time>
      </trkpt>
      <trkpt lat="42.650383" lon="-2.358117">
        <ele>1036.0</ele>
        <time>2013-06-22T13:04:57Z</time>
      </trkpt>
      <trkpt lat="42.650417" lon="-2.358017">
        <ele>1035.0</ele>
        <time>2013-06-22T13:04:58Z</time>
      </trkpt>
      <trkpt lat="42.650450" lon="-2.357900">
        <ele>1035.0</ele>
        <time>2013-06-22T13:04:59Z</time>
      </trkpt>
      <trkpt lat="42.650483" lon="-2.357800">
        <ele>1034.0</ele>
        <time>2013-06-22T13:05:00Z</time>
      </trkpt>
      <trkpt lat="42.650517" lon="-2.357683">
        <ele>1034.0</ele>
        <time>2013-06-22T13:05:01Z</time>
      </trkpt>
      <trkpt lat="42.650533" lon="-2.357583">
        <ele>1034.0</ele>
        <time>2013-06-22T13:05:02Z</time>
      </trkpt>
      <trkpt lat="42.650567" lon="-2.357500">
        <ele>1033.0</ele>
        <time>2013-06-22T13:05:03Z</time>
      </trkpt>
      <trkpt lat="42.650583" lon="-2.357400">
        <ele>1032.0</ele>
        <time>2013-06-22T13:05:04Z</time>
      </trkpt>
      <trkpt lat="42.650617" lon="-2.357283">
        <ele>1031.0</ele>
        <time>2013-06-22T13:05:05Z</time>
      </trkpt>
      <trkpt lat="42.650650" lon="-2.357167">
        <ele>1029.0</ele>
        <time>2013-06-22T13:05:06Z</time>
      </trkpt>
      <trkpt lat="42.650683" lon="-2.357050">
        <ele>1026.0</ele>
        <time>2013-06-22T13:05:07Z</time>
      </trkpt>
      <trkpt lat="42.650717" lon="-2.356933">
        <ele>1025.0</ele>
        <time>2013-06-22T13:05:08Z</time>
      </trkpt>
      <trkpt lat="42.650750" lon="-2.356833">
        <ele>1024.0</ele>
        <time>2013-06-22T13:05:09Z</time>
      </trkpt>
      <trkpt lat="42.650783" lon="-2.356733">
        <ele>1024.0</ele>
        <time>2013-06-22T13:05:10Z</time>
      </trkpt>
      <trkpt lat="42.650800" lon="-2.356633">
        <ele>1024.0</ele>
        <time>2013-06-22T13:05:11Z</time>
      </trkpt>
      <trkpt lat="42.650833" lon="-2.356500">
        <ele>1023.0</ele>
        <time>2013-06-22T13:05:12Z</time>
      </trkpt>
      <trkpt lat="42.650850" lon="-2.356383">
        <ele>1023.0</ele>
        <time>2013-06-22T13:05:13Z</time>
      </trkpt>
      <trkpt lat="42.650883" lon="-2.356283">
        <ele>1024.0</ele>
        <time>2013-06-22T13:05:14Z</time>
      </trkpt>
      <trkpt lat="42.650900" lon="-2.356167">
        <ele>1024.0</ele>
        <time>2013-06-22T13:05:15Z</time>
      </trkpt>
      <trkpt lat="42.650917" lon="-2.356067">
        <ele>1024.0</ele>
        <time>2013-06-22T13:05:16Z</time>
      </trkpt>
      <trkpt lat="42.650950" lon="-2.355933">
        <ele>1023.0</ele>
        <time>2013-06-22T13:05:17Z</time>
      </trkpt>
      <trkpt lat="42.650967" lon="-2.355800">
        <ele>1022.0</ele>
        <time>2013-06-22T13:05:18Z</time>
      </trkpt>
      <trkpt lat="42.650983" lon="-2.355683">
        <ele>1022.0</ele>
        <time>2013-06-22T13:05:19Z</time>
      </trkpt>
      <trkpt lat="42.651000" lon="-2.355567">
        <ele>1022.0</ele>
        <time>2013-06-22T13:05:20Z</time>
      </trkpt>
      <trkpt lat="42.651017" lon="-2.355450">
        <ele>1023.0</ele>
        <time>2013-06-22T13:05:21Z</time>
      </trkpt>
      <trkpt lat="42.651033" lon="-2.355333">
        <ele>1023.0</ele>
        <time>2013-06-22T13:05:22Z</time>
      </trkpt>
      <trkpt lat="42.651067" lon="-2.355217">
        <ele>1023.0</ele>
        <time>2013-06-22T13:05:23Z</time>
      </trkpt>
      <trkpt lat="42.651083" lon="-2.355100">
        <ele>1023.0</ele>
        <time>2013-06-22T13:05:24Z</time>
      </trkpt>
      <trkpt lat="42.651117" lon="-2.354983">
        <ele>1023.0</ele>
        <time>2013-06-22T13:05:25Z</time>
      </trkpt>
      <trkpt lat="42.651150" lon="-2.354867">
        <ele>1023.0</ele>
        <time>2013-06-22T13:05:26Z</time>
      </trkpt>
      <trkpt lat="42.651200" lon="-2.354767">
        <ele>1023.0</ele>
        <time>2013-06-22T13:05:27Z</time>
      </trkpt>
      <trkpt lat="42.651233" lon="-2.354667">
        <ele>1023.0</ele>
        <time>2013-06-22T13:05:28Z</time>
      </trkpt>
      <trkpt lat="42.651250" lon="-2.354567">
        <ele>1023.0</ele>
        <time>2013-06-22T13:05:29Z</time>
      </trkpt>
      <trkpt lat="42.651283" lon="-2.354450">
        <ele>1023.0</ele>
        <time>2013-06-22T13:05:30Z</time>
      </trkpt>
      <trkpt lat="42.651317" lon="-2.354350">
        <ele>1023.0</ele>
        <time>2013-06-22T13:05:31Z</time>
      </trkpt>
      <trkpt lat="42.651367" lon="-2.354233">
        <ele>1023.0</ele>
        <time>2013-06-22T13:05:32Z</time>
      </trkpt>
      <trkpt lat="42.651400" lon="-2.354117">
        <ele>1023.0</ele>
        <time>2013-06-22T13:05:33Z</time>
      </trkpt>
      <trkpt lat="42.651433" lon="-2.354017">
        <ele>1024.0</ele>
        <time>2013-06-22T13:05:34Z</time>
      </trkpt>
      <trkpt lat="42.651467" lon="-2.353917">
        <ele>1025.0</ele>
        <time>2013-06-22T13:05:35Z</time>
      </trkpt>
      <trkpt lat="42.651500" lon="-2.353817">
        <ele>1026.0</ele>
        <time>2013-06-22T13:05:36Z</time>
      </trkpt>
      <trkpt lat="42.651533" lon="-2.353717">
        <ele>1027.0</ele>
        <time>2013-06-22T13:05:37Z</time>
      </trkpt>
      <trkpt lat="42.651550" lon="-2.353617">
        <ele>1028.0</ele>
        <time>2013-06-22T13:05:38Z</time>
      </trkpt>
      <trkpt lat="42.651583" lon="-2.353500">
        <ele>1030.0</ele>
        <time>2013-06-22T13:05:39Z</time>
      </trkpt>
      <trkpt lat="42.651600" lon="-2.353400">
        <ele>1031.0</ele>
        <time>2013-06-22T13:05:40Z</time>
      </trkpt>
      <trkpt lat="42.651633" lon="-2.353317">
        <ele>1033.0</ele>
        <time>2013-06-22T13:05:41Z</time>
      </trkpt>
      <trkpt lat="42.651683" lon="-2.353250">
        <ele>1034.0</ele>
        <time>2013-06-22T13:05:42Z</time>
      </trkpt>
      <trkpt lat="42.651717" lon="-2.353167">
        <ele>1036.0</ele>
        <time>2013-06-22T13:05:43Z</time>
      </trkpt>
      <trkpt lat="42.651750" lon="-2.353083">
        <ele>1038.0</ele>
        <time>2013-06-22T13:05:44Z</time>
      </trkpt>
      <trkpt lat="42.651783" lon="-2.353000">
        <ele>1040.0</ele>
        <time>2013-06-22T13:05:45Z</time>
      </trkpt>
      <trkpt lat="42.651817" lon="-2.352917">
        <ele>1042.0</ele>
        <time>2013-06-22T13:05:46Z</time>
      </trkpt>
      <trkpt lat="42.651867" lon="-2.352850">
        <ele>1043.0</ele>
        <time>2013-06-22T13:05:47Z</time>
      </trkpt>
      <trkpt lat="42.651917" lon="-2.352783">
        <ele>1045.0</ele>
        <time>2013-06-22T13:05:48Z</time>
      </trkpt>
      <trkpt lat="42.651967" lon="-2.352717">
        <ele>1045.0</ele>
        <time>2013-06-22T13:05:49Z</time>
      </trkpt>
      <trkpt lat="42.652017" lon="-2.352650">
        <ele>1046.0</ele>
        <time>2013-06-22T13:05:50Z</time>
      </trkpt>
      <trkpt lat="42.652050" lon="-2.352583">
        <ele>1047.0</ele>
        <time>2013-06-22T13:05:51Z</time>
      </trkpt>
      <trkpt lat="42.652050" lon="-2.352483">
        <ele>1048.0</ele>
        <time>2013-06-22T13:05:52Z</time>
      </trkpt>
      <trkpt lat="42.652000" lon="-2.352367">
        <ele>1049.0</ele>
        <time>2013-06-22T13:05:53Z</time>
      </trkpt>
      <trkpt lat="42.651933" lon="-2.352267">
        <ele>1049.0</ele>
        <time>2013-06-22T13:05:54Z</time>
      </trkpt>
      <trkpt lat="42.651817" lon="-2.352217">
        <ele>1049.0</ele>
        <time>2013-06-22T13:05:55Z</time>
      </trkpt>
      <trkpt lat="42.651717" lon="-2.352217">
        <ele>1049.0</ele>
        <time>2013-06-22T13:05:56Z</time>
      </trkpt>
      <trkpt lat="42.651633" lon="-2.352267">
        <ele>1049.0</ele>
        <time>2013-06-22T13:05:57Z</time>
      </trkpt>
      <trkpt lat="42.651550" lon="-2.352350">
        <ele>1048.0</ele>
        <time>2013-06-22T13:05:58Z</time>
      </trkpt>
      <trkpt lat="42.651517" lon="-2.352467">
        <ele>1048.0</ele>
        <time>2013-06-22T13:05:59Z</time>
      </trkpt>
      <trkpt lat="42.651500" lon="-2.352550">
        <ele>1048.0</ele>
        <time>2013-06-22T13:06:00Z</time>
      </trkpt>
      <trkpt lat="42.651483" lon="-2.352650">
        <ele>1049.0</ele>
        <time>2013-06-22T13:06:01Z</time>
      </trkpt>
      <trkpt lat="42.651467" lon="-2.352750">
        <ele>1049.0</ele>
        <time>2013-06-22T13:06:02Z</time>
      </trkpt>
      <trkpt lat="42.651483" lon="-2.352850">
        <ele>1050.0</ele>
        <time>2013-06-22T13:06:03Z</time>
      </trkpt>
      <trkpt lat="42.651500" lon="-2.352950">
        <ele>1050.0</ele>
        <time>2013-06-22T13:06:04Z</time>
      </trkpt>
      <trkpt lat="42.651533" lon="-2.353017">
        <ele>1050.0</ele>
        <time>2013-06-22T13:06:05Z</time>
      </trkpt>
      <trkpt lat="42.651583" lon="-2.353033">
        <ele>1052.0</ele>
        <time>2013-06-22T13:06:06Z</time>
      </trkpt>
      <trkpt lat="42.651617" lon="-2.353050">
        <ele>1053.0</ele>
        <time>2013-06-22T13:06:07Z</time>
      </trkpt>
      <trkpt lat="42.651667" lon="-2.353033">
        <ele>1053.0</ele>
        <time>2013-06-22T13:06:08Z</time>
      </trkpt>
      <trkpt lat="42.651717" lon="-2.353017">
        <ele>1054.0</ele>
        <time>2013-06-22T13:06:09Z</time>
      </trkpt>
      <trkpt lat="42.651767" lon="-2.352983">
        <ele>1054.0</ele>
        <time>2013-06-22T13:06:10Z</time>
      </trkpt>
      <trkpt lat="42.651817" lon="-2.352933">
        <ele>1055.0</ele>
        <time>2013-06-22T13:06:11Z</time>
      </trkpt>
      <trkpt lat="42.651867" lon="-2.352883">
        <ele>1056.0</ele>
        <time>2013-06-22T13:06:12Z</time>
      </trkpt>
      <trkpt lat="42.651917" lon="-2.352833">
        <ele>1056.0</ele>
        <time>2013-06-22T13:06:13Z</time>
      </trkpt>
      <trkpt lat="42.651950" lon="-2.352767">
        <ele>1057.0</ele>
        <time>2013-06-22T13:06:14Z</time>
      </trkpt>
      <trkpt lat="42.652000" lon="-2.352717">
        <ele>1059.0</ele>
        <time>2013-06-22T13:06:15Z</time>
      </trkpt>
      <trkpt lat="42.652033" lon="-2.352650">
        <ele>1060.0</ele>
        <time>2013-06-22T13:06:16Z</time>
      </trkpt>
      <trkpt lat="42.652067" lon="-2.352600">
        <ele>1061.0</ele>
        <time>2013-06-22T13:06:17Z</time>
      </trkpt>
      <trkpt lat="42.652100" lon="-2.352550">
        <ele>1063.0</ele>
        <time>2013-06-22T13:06:18Z</time>
      </trkpt>
      <trkpt lat="42.652150" lon="-2.352483">
        <ele>1063.0</ele>
        <time>2013-06-22T13:06:19Z</time>
      </trkpt>
      <trkpt lat="42.652183" lon="-2.352400">
        <ele>1065.0</ele>
        <time>2013-06-22T13:06:20Z</time>
      </trkpt>
      <trkpt lat="42.652217" lon="-2.352333">
        <ele>1066.0</ele>
        <time>2013-06-22T13:06:21Z</time>
      </trkpt>
      <trkpt lat="42.652250" lon="-2.352250">
        <ele>1067.0</ele>
        <time>2013-06-22T13:06:22Z</time>
      </trkpt>
      <trkpt lat="42.652283" lon="-2.352167">
        <ele>1067.0</ele>
        <time>2013-06-22T13:06:23Z</time>
      </trkpt>
      <trkpt lat="42.652300" lon="-2.352067">
        <ele>1068.0</ele>
        <time>2013-06-22T13:06:24Z</time>
      </trkpt>
      <trkpt lat="42.652333" lon="-2.351983">
        <ele>1069.0</ele>
        <time>2013-06-22T13:06:25Z</time>
      </trkpt>
      <trkpt lat="42.652350" lon="-2.351883">
        <ele>1070.0</ele>
        <time>2013-06-22T13:06:26Z</time>
      </trkpt>
      <trkpt lat="42.652350" lon="-2.351767">
        <ele>1071.0</ele>
        <time>2013-06-22T13:06:27Z</time>
      </trkpt>
      <trkpt lat="42.652300" lon="-2.351650">
        <ele>1072.0</ele>
        <time>2013-06-22T13:06:28Z</time>
      </trkpt>
      <trkpt lat="42.652233" lon="-2.351517">
        <ele>1071.0</ele>
        <time>2013-06-22T13:06:29Z</time>
      </trkpt>
      <trkpt lat="42.652117" lon="-2.351417">
        <ele>1071.0</ele>
        <time>2013-06-22T13:06:30Z</time>
      </trkpt>
      <trkpt lat="42.652000" lon="-2.351367">
        <ele>1071.0</ele>
        <time>2013-06-22T13:06:31Z</time>
      </trkpt>
      <trkpt lat="42.651883" lon="-2.351383">
        <ele>1072.0</ele>
        <time>2013-06-22T13:06:32Z</time>
      </trkpt>
      <trkpt lat="42.651783" lon="-2.351433">
        <ele>1073.0</ele>
        <time>2013-06-22T13:06:33Z</time>
      </trkpt>
      <trkpt lat="42.651717" lon="-2.351517">
        <ele>1073.0</ele>
        <time>2013-06-22T13:06:34Z</time>
      </trkpt>
      <trkpt lat="42.651667" lon="-2.351600">
        <ele>1073.0</ele>
        <time>2013-06-22T13:06:35Z</time>
      </trkpt>
      <trkpt lat="42.651633" lon="-2.351683">
        <ele>1073.0</ele>
        <time>2013-06-22T13:06:36Z</time>
      </trkpt>
      <trkpt lat="42.651617" lon="-2.351750">
        <ele>1074.0</ele>
        <time>2013-06-22T13:06:37Z</time>
      </trkpt>
      <trkpt lat="42.651617" lon="-2.351833">
        <ele>1074.0</ele>
        <time>2013-06-22T13:06:38Z</time>
      </trkpt>
      <trkpt lat="42.651650" lon="-2.351883">
        <ele>1074.0</ele>
        <time>2013-06-22T13:06:39Z</time>
      </trkpt>
      <trkpt lat="42.651683" lon="-2.351900">
        <ele>1074.0</ele>
        <time>2013-06-22T13:06:40Z</time>
      </trkpt>
      <trkpt lat="42.651733" lon="-2.351883">
        <ele>1075.0</ele>
        <time>2013-06-22T13:06:41Z</time>
      </trkpt>
      <trkpt lat="42.651767" lon="-2.351833">
        <ele>1077.0</ele>
        <time>2013-06-22T13:06:42Z</time>
      </trkpt>
      <trkpt lat="42.651800" lon="-2.351767">
        <ele>1078.0</ele>
        <time>2013-06-22T13:06:43Z</time>
      </trkpt>
      <trkpt lat="42.651833" lon="-2.351700">
        <ele>1079.0</ele>
        <time>2013-06-22T13:06:44Z</time>
      </trkpt>
      <trkpt lat="42.651867" lon="-2.351617">
        <ele>1079.0</ele>
        <time>2013-06-22T13:06:45Z</time>
      </trkpt>
      <trkpt lat="42.651900" lon="-2.351500">
        <ele>1080.0</ele>
        <time>2013-06-22T13:06:46Z</time>
      </trkpt>
      <trkpt lat="42.651917" lon="-2.351367">
        <ele>1081.0</ele>
        <time>2013-06-22T13:06:47Z</time>
      </trkpt>
      <trkpt lat="42.651883" lon="-2.351233">
        <ele>1081.0</ele>
        <time>2013-06-22T13:06:48Z</time>
      </trkpt>
      <trkpt lat="42.651833" lon="-2.351100">
        <ele>1082.0</ele>
        <time>2013-06-22T13:06:49Z</time>
      </trkpt>
      <trkpt lat="42.651767" lon="-2.350983">
        <ele>1083.0</ele>
        <time>2013-06-22T13:06:50Z</time>
      </trkpt>
      <trkpt lat="42.651683" lon="-2.350883">
        <ele>1084.0</ele>
        <time>2013-06-22T13:06:51Z</time>
      </trkpt>
      <trkpt lat="42.651583" lon="-2.350800">
        <ele>1085.0</ele>
        <time>2013-06-22T13:06:52Z</time>
      </trkpt>
      <trkpt lat="42.651483" lon="-2.350750">
        <ele>1085.0</ele>
        <time>2013-06-22T13:06:53Z</time>
      </trkpt>
      <trkpt lat="42.651367" lon="-2.350750">
        <ele>1085.0</ele>
        <time>2013-06-22T13:06:54Z</time>
      </trkpt>
      <trkpt lat="42.651250" lon="-2.350783">
        <ele>1085.0</ele>
        <time>2013-06-22T13:06:55Z</time>
      </trkpt>
      <trkpt lat="42.651150" lon="-2.350850">
        <ele>1084.0</ele>
        <time>2013-06-22T13:06:56Z</time>
      </trkpt>
      <trkpt lat="42.651083" lon="-2.350933">
        <ele>1086.0</ele>
        <time>2013-06-22T13:06:57Z</time>
      </trkpt>
      <trkpt lat="42.651050" lon="-2.351033">
        <ele>1087.0</ele>
        <time>2013-06-22T13:06:58Z</time>
      </trkpt>
      <trkpt lat="42.651017" lon="-2.351100">
        <ele>1088.0</ele>
        <time>2013-06-22T13:06:59Z</time>
      </trkpt>
      <trkpt lat="42.651017" lon="-2.351167">
        <ele>1089.0</ele>
        <time>2013-06-22T13:07:00Z</time>
      </trkpt>
      <trkpt lat="42.651017" lon="-2.351233">
        <ele>1090.0</ele>
        <time>2013-06-22T13:07:01Z</time>
      </trkpt>
      <trkpt lat="42.651033" lon="-2.351283">
        <ele>1088.0</ele>
        <time>2013-06-22T13:07:02Z</time>
      </trkpt>
      <trkpt lat="42.651067" lon="-2.351317">
        <ele>1089.0</ele>
        <time>2013-06-22T13:07:03Z</time>
      </trkpt>
      <trkpt lat="42.651100" lon="-2.351333">
        <ele>1089.0</ele>
        <time>2013-06-22T13:07:04Z</time>
      </trkpt>
      <trkpt lat="42.651133" lon="-2.351317">
        <ele>1090.0</ele>
        <time>2013-06-22T13:07:05Z</time>
      </trkpt>
      <trkpt lat="42.651167" lon="-2.351300">
        <ele>1091.0</ele>
        <time>2013-06-22T13:07:06Z</time>
      </trkpt>
      <trkpt lat="42.651200" lon="-2.351283">
        <ele>1092.0</ele>
        <time>2013-06-22T13:07:07Z</time>
      </trkpt>
      <trkpt lat="42.651250" lon="-2.351250">
        <ele>1092.0</ele>
        <time>2013-06-22T13:07:08Z</time>
      </trkpt>
      <trkpt lat="42.651283" lon="-2.351217">
        <ele>1093.0</ele>
        <time>2013-06-22T13:07:09Z</time>
      </trkpt>
      <trkpt lat="42.651317" lon="-2.351167">
        <ele>1094.0</ele>
        <time>2013-06-22T13:07:10Z</time>
      </trkpt>
      <trkpt lat="42.651350" lon="-2.351117">
        <ele>1094.0</ele>
        <time>2013-06-22T13:07:11Z</time>
      </trkpt>
      <trkpt lat="42.651383" lon="-2.351050">
        <ele>1095.0</ele>
        <time>2013-06-22T13:07:12Z</time>
      </trkpt>
      <trkpt lat="42.651400" lon="-2.350967">
        <ele>1095.0</ele>
        <time>2013-06-22T13:07:13Z</time>
      </trkpt>
      <trkpt lat="42.651433" lon="-2.350900">
        <ele>1096.0</ele>
        <time>2013-06-22T13:07:14Z</time>
      </trkpt>
      <trkpt lat="42.651467" lon="-2.350817">
        <ele>1096.0</ele>
        <time>2013-06-22T13:07:15Z</time>
      </trkpt>
      <trkpt lat="42.651500" lon="-2.350750">
        <ele>1096.0</ele>
        <time>2013-06-22T13:07:16Z</time>
      </trkpt>
      <trkpt lat="42.651533" lon="-2.350667">
        <ele>1097.0</ele>
        <time>2013-06-22T13:07:17Z</time>
      </trkpt>
      <trkpt lat="42.651550" lon="-2.350583">
        <ele>1097.0</ele>
        <time>2013-06-22T13:07:18Z</time>
      </trkpt>
      <trkpt lat="42.651583" lon="-2.350500">
        <ele>1097.0</ele>
        <time>2013-06-22T13:07:19Z</time>
      </trkpt>
      <trkpt lat="42.651617" lon="-2.350417">
        <ele>1098.0</ele>
        <time>2013-06-22T13:07:20Z</time>
      </trkpt>
      <trkpt lat="42.651633" lon="-2.350333">
        <ele>1098.0</ele>
        <time>2013-06-22T13:07:21Z</time>
      </trkpt>
      <trkpt lat="42.651667" lon="-2.350267">
        <ele>1099.0</ele>
        <time>2013-06-22T13:07:22Z</time>
      </trkpt>
      <trkpt lat="42.651667" lon="-2.350167">
        <ele>1099.0</ele>
        <time>2013-06-22T13:07:23Z</time>
      </trkpt>
      <trkpt lat="42.651683" lon="-2.350067">
        <ele>1098.0</ele>
        <time>2013-06-22T13:07:24Z</time>
      </trkpt>
      <trkpt lat="42.651667" lon="-2.349933">
        <ele>1096.0</ele>
        <time>2013-06-22T13:07:25Z</time>
      </trkpt>
      <trkpt lat="42.651667" lon="-2.349800">
        <ele>1095.0</ele>
        <time>2013-06-22T13:07:26Z</time>
      </trkpt>
      <trkpt lat="42.651650" lon="-2.349683">
        <ele>1094.0</ele>
        <time>2013-06-22T13:07:27Z</time>
      </trkpt>
      <trkpt lat="42.651650" lon="-2.349567">
        <ele>1094.0</ele>
        <time>2013-06-22T13:07:28Z</time>
      </trkpt>
      <trkpt lat="42.651633" lon="-2.349450">
        <ele>1094.0</ele>
        <time>2013-06-22T13:07:29Z</time>
      </trkpt>
      <trkpt lat="42.651633" lon="-2.349350">
        <ele>1093.0</ele>
        <time>2013-06-22T13:07:30Z</time>
      </trkpt>
      <trkpt lat="42.651633" lon="-2.349217">
        <ele>1093.0</ele>
        <time>2013-06-22T13:07:31Z</time>
      </trkpt>
      <trkpt lat="42.651633" lon="-2.349100">
        <ele>1092.0</ele>
        <time>2013-06-22T13:07:32Z</time>
      </trkpt>
      <trkpt lat="42.651650" lon="-2.349017">
        <ele>1092.0</ele>
        <time>2013-06-22T13:07:33Z</time>
      </trkpt>
      <trkpt lat="42.651683" lon="-2.348950">
        <ele>1092.0</ele>
        <time>2013-06-22T13:07:34Z</time>
      </trkpt>
      <trkpt lat="42.651717" lon="-2.348900">
        <ele>1092.0</ele>
        <time>2013-06-22T13:07:35Z</time>
      </trkpt>
      <trkpt lat="42.651767" lon="-2.348867">
        <ele>1091.0</ele>
        <time>2013-06-22T13:07:36Z</time>
      </trkpt>
      <trkpt lat="42.651817" lon="-2.348850">
        <ele>1089.0</ele>
        <time>2013-06-22T13:07:37Z</time>
      </trkpt>
      <trkpt lat="42.651850" lon="-2.348850">
        <ele>1089.0</ele>
        <time>2013-06-22T13:07:38Z</time>
      </trkpt>
      <trkpt lat="42.651883" lon="-2.348883">
        <ele>1088.0</ele>
        <time>2013-06-22T13:07:39Z</time>
      </trkpt>
      <trkpt lat="42.651917" lon="-2.348917">
        <ele>1088.0</ele>
        <time>2013-06-22T13:07:40Z</time>
      </trkpt>
      <trkpt lat="42.651933" lon="-2.348967">
        <ele>1087.0</ele>
        <time>2013-06-22T13:07:41Z</time>
      </trkpt>
      <trkpt lat="42.651950" lon="-2.349033">
        <ele>1086.0</ele>
        <time>2013-06-22T13:07:42Z</time>
      </trkpt>
      <trkpt lat="42.651967" lon="-2.349100">
        <ele>1085.0</ele>
        <time>2013-06-22T13:07:43Z</time>
      </trkpt>
      <trkpt lat="42.651983" lon="-2.349183">
        <ele>1084.0</ele>
        <time>2013-06-22T13:07:44Z</time>
      </trkpt>
      <trkpt lat="42.651983" lon="-2.349283">
        <ele>1083.0</ele>
        <time>2013-06-22T13:07:45Z</time>
      </trkpt>
      <trkpt lat="42.652000" lon="-2.349383">
        <ele>1082.0</ele>
        <time>2013-06-22T13:07:46Z</time>
      </trkpt>
      <trkpt lat="42.652000" lon="-2.349467">
        <ele>1081.0</ele>
        <time>2013-06-22T13:07:47Z</time>
      </trkpt>
      <trkpt lat="42.652017" lon="-2.349567">
        <ele>1080.0</ele>
        <time>2013-06-22T13:07:48Z</time>
      </trkpt>
      <trkpt lat="42.652000" lon="-2.349667">
        <ele>1079.0</ele>
        <time>2013-06-22T13:07:49Z</time>
      </trkpt>
      <trkpt lat="42.652000" lon="-2.349767">
        <ele>1078.0</ele>
        <time>2013-06-22T13:07:50Z</time>
      </trkpt>
      <trkpt lat="42.651983" lon="-2.349867">
        <ele>1078.0</ele>
        <time>2013-06-22T13:07:51Z</time>
      </trkpt>
      <trkpt lat="42.651967" lon="-2.349967">
        <ele>1078.0</ele>
        <time>2013-06-22T13:07:52Z</time>
      </trkpt>
      <trkpt lat="42.651967" lon="-2.350050">
        <ele>1077.0</ele>
        <time>2013-06-22T13:07:53Z</time>
      </trkpt>
      <trkpt lat="42.651967" lon="-2.350150">
        <ele>1078.0</ele>
        <time>2013-06-22T13:07:54Z</time>
      </trkpt>
      <trkpt lat="42.651967" lon="-2.350250">
        <ele>1078.0</ele>
        <time>2013-06-22T13:07:55Z</time>
      </trkpt>
      <trkpt lat="42.651967" lon="-2.350333">
        <ele>1078.0</ele>
        <time>2013-06-22T13:07:56Z</time>
      </trkpt>
      <trkpt lat="42.651967" lon="-2.350417">
        <ele>1080.0</ele>
        <time>2013-06-22T13:07:57Z</time>
      </trkpt>
      <trkpt lat="42.651950" lon="-2.350483">
        <ele>1081.0</ele>
        <time>2013-06-22T13:07:58Z</time>
      </trkpt>
      <trkpt lat="42.651967" lon="-2.350567">
        <ele>1081.0</ele>
        <time>2013-06-22T13:07:59Z</time>
      </trkpt>
      <trkpt lat="42.651967" lon="-2.350633">
        <ele>1081.0</ele>
        <time>2013-06-22T13:08:00Z</time>
      </trkpt>
      <trkpt lat="42.651967" lon="-2.350717">
        <ele>1081.0</ele>
        <time>2013-06-22T13:08:01Z</time>
      </trkpt>
      <trkpt lat="42.651967" lon="-2.350800">
        <ele>1081.0</ele>
        <time>2013-06-22T13:08:02Z</time>
      </trkpt>
      <trkpt lat="42.651950" lon="-2.350867">
        <ele>1080.0</ele>
        <time>2013-06-22T13:08:03Z</time>
      </trkpt>
      <trkpt lat="42.651933" lon="-2.350967">
        <ele>1079.0</ele>
        <time>2013-06-22T13:08:04Z</time>
      </trkpt>
      <trkpt lat="42.651900" lon="-2.351067">
        <ele>1079.0</ele>
        <time>2013-06-22T13:08:05Z</time>
      </trkpt>
      <trkpt lat="42.651867" lon="-2.351167">
        <ele>1078.0</ele>
        <time>2013-06-22T13:08:06Z</time>
      </trkpt>
      <trkpt lat="42.651833" lon="-2.351267">
        <ele>1079.0</ele>
        <time>2013-06-22T13:08:07Z</time>
      </trkpt>
      <trkpt lat="42.651800" lon="-2.351367">
        <ele>1080.0</ele>
        <time>2013-06-22T13:08:08Z</time>
      </trkpt>
      <trkpt lat="42.651750" lon="-2.351450">
        <ele>1081.0</ele>
        <time>2013-06-22T13:08:09Z</time>
      </trkpt>
      <trkpt lat="42.651700" lon="-2.351567">
        <ele>1080.0</ele>
        <time>2013-06-22T13:08:10Z</time>
      </trkpt>
      <trkpt lat="42.651650" lon="-2.351667">
        <ele>1081.0</ele>
        <time>2013-06-22T13:08:11Z</time>
      </trkpt>
      <trkpt lat="42.651617" lon="-2.351767">
        <ele>1081.0</ele>
        <time>2013-06-22T13:08:12Z</time>
      </trkpt>
      <trkpt lat="42.651567" lon="-2.351850">
        <ele>1083.0</ele>
        <time>2013-06-22T13:08:13Z</time>
      </trkpt>
      <trkpt lat="42.651517" lon="-2.351950">
        <ele>1083.0</ele>
        <time>2013-06-22T13:08:14Z</time>
      </trkpt>
      <trkpt lat="42.651467" lon="-2.352050">
        <ele>1084.0</ele>
        <time>2013-06-22T13:08:15Z</time>
      </trkpt>
      <trkpt lat="42.651417" lon="-2.352150">
        <ele>1084.0</ele>
        <time>2013-06-22T13:08:16Z</time>
      </trkpt>
      <trkpt lat="42.651367" lon="-2.352250">
        <ele>1084.0</ele>
        <time>2013-06-22T13:08:17Z</time>
      </trkpt>
      <trkpt lat="42.651317" lon="-2.352367">
        <ele>1085.0</ele>
        <time>2013-06-22T13:08:18Z</time>
      </trkpt>
      <trkpt lat="42.651283" lon="-2.352467">
        <ele>1085.0</ele>
        <time>2013-06-22T13:08:19Z</time>
      </trkpt>
      <trkpt lat="42.651250" lon="-2.352567">
        <ele>1086.0</ele>
        <time>2013-06-22T13:08:20Z</time>
      </trkpt>
      <trkpt lat="42.651217" lon="-2.352667">
        <ele>1086.0</ele>
        <time>2013-06-22T13:08:21Z</time>
      </trkpt>
      <trkpt lat="42.651217" lon="-2.352767">
        <ele>1086.0</ele>
        <time>2013-06-22T13:08:22Z</time>
      </trkpt>
      <trkpt lat="42.651233" lon="-2.352850">
        <ele>1086.0</ele>
        <time>2013-06-22T13:08:23Z</time>
      </trkpt>
      <trkpt lat="42.651267" lon="-2.352900">
        <ele>1086.0</ele>
        <time>2013-06-22T13:08:24Z</time>
      </trkpt>
      <trkpt lat="42.651317" lon="-2.352917">
        <ele>1086.0</ele>
        <time>2013-06-22T13:08:25Z</time>
      </trkpt>
      <trkpt lat="42.651367" lon="-2.352900">
        <ele>1085.0</ele>
        <time>2013-06-22T13:08:26Z</time>
      </trkpt>
      <trkpt lat="42.651417" lon="-2.352867">
        <ele>1085.0</ele>
        <time>2013-06-22T13:08:27Z</time>
      </trkpt>
      <trkpt lat="42.651450" lon="-2.352800">
        <ele>1085.0</ele>
        <time>2013-06-22T13:08:28Z</time>
      </trkpt>
      <trkpt lat="42.651467" lon="-2.352700">
        <ele>1085.0</ele>
        <time>2013-06-22T13:08:29Z</time>
      </trkpt>
      <trkpt lat="42.651483" lon="-2.352583">
        <ele>1085.0</ele>
        <time>2013-06-22T13:08:30Z</time>
      </trkpt>
      <trkpt lat="42.651483" lon="-2.352467">
        <ele>1084.0</ele>
        <time>2013-06-22T13:08:31Z</time>
      </trkpt>
      <trkpt lat="42.651467" lon="-2.352333">
        <ele>1084.0</ele>
        <time>2013-06-22T13:08:32Z</time>
      </trkpt>
      <trkpt lat="42.651417" lon="-2.352200">
        <ele>1084.0</ele>
        <time>2013-06-22T13:08:33Z</time>
      </trkpt>
      <trkpt lat="42.651367" lon="-2.352100">
        <ele>1085.0</ele>
        <time>2013-06-22T13:08:34Z</time>
      </trkpt>
      <trkpt lat="42.651317" lon="-2.351983">
        <ele>1084.0</ele>
        <time>2013-06-22T13:08:35Z</time>
      </trkpt>
      <trkpt lat="42.651233" lon="-2.351867">
        <ele>1083.0</ele>
        <time>2013-06-22T13:08:36Z</time>
      </trkpt>
      <trkpt lat="42.651133" lon="-2.351750">
        <ele>1082.0</ele>
        <time>2013-06-22T13:08:37Z</time>
      </trkpt>
      <trkpt lat="42.651033" lon="-2.351667">
        <ele>1082.0</ele>
        <time>2013-06-22T13:08:38Z</time>
      </trkpt>
      <trkpt lat="42.650917" lon="-2.351617">
        <ele>1083.0</ele>
        <time>2013-06-22T13:08:39Z</time>
      </trkpt>
      <trkpt lat="42.650800" lon="-2.351617">
        <ele>1083.0</ele>
        <time>2013-06-22T13:08:40Z</time>
      </trkpt>
      <trkpt lat="42.650683" lon="-2.351650">
        <ele>1083.0</ele>
        <time>2013-06-22T13:08:41Z</time>
      </trkpt>
      <trkpt lat="42.650583" lon="-2.351683">
        <ele>1084.0</ele>
        <time>2013-06-22T13:08:42Z</time>
      </trkpt>
      <trkpt lat="42.650483" lon="-2.351750">
        <ele>1085.0</ele>
        <time>2013-06-22T13:08:43Z</time>
      </trkpt>
      <trkpt lat="42.650400" lon="-2.351833">
        <ele>1087.0</ele>
        <time>2013-06-22T13:08:44Z</time>
      </trkpt>
      <trkpt lat="42.650333" lon="-2.351933">
        <ele>1088.0</ele>
        <time>2013-06-22T13:08:45Z</time>
      </trkpt>
      <trkpt lat="42.650283" lon="-2.352050">
        <ele>1088.0</ele>
        <time>2013-06-22T13:08:46Z</time>
      </trkpt>
      <trkpt lat="42.650250" lon="-2.352183">
        <ele>1088.0</ele>
        <time>2013-06-22T13:08:47Z</time>
      </trkpt>
      <trkpt lat="42.650233" lon="-2.352283">
        <ele>1089.0</ele>
        <time>2013-06-22T13:08:48Z</time>
      </trkpt>
      <trkpt lat="42.650233" lon="-2.352383">
        <ele>1090.0</ele>
        <time>2013-06-22T13:08:49Z</time>
      </trkpt>
      <trkpt lat="42.650250" lon="-2.352467">
        <ele>1091.0</ele>
        <time>2013-06-22T13:08:50Z</time>
      </trkpt>
      <trkpt lat="42.650250" lon="-2.352533">
        <ele>1092.0</ele>
        <time>2013-06-22T13:08:51Z</time>
      </trkpt>
      <trkpt lat="42.650267" lon="-2.352617">
        <ele>1091.0</ele>
        <time>2013-06-22T13:08:52Z</time>
      </trkpt>
      <trkpt lat="42.650283" lon="-2.352683">
        <ele>1091.0</ele>
        <time>2013-06-22T13:08:53Z</time>
      </trkpt>
      <trkpt lat="42.650300" lon="-2.352750">
        <ele>1091.0</ele>
        <time>2013-06-22T13:08:54Z</time>
      </trkpt>
      <trkpt lat="42.650350" lon="-2.352817">
        <ele>1091.0</ele>
        <time>2013-06-22T13:08:55Z</time>
      </trkpt>
      <trkpt lat="42.650400" lon="-2.352833">
        <ele>1091.0</ele>
        <time>2013-06-22T13:08:56Z</time>
      </trkpt>
      <trkpt lat="42.650450" lon="-2.352833">
        <ele>1091.0</ele>
        <time>2013-06-22T13:08:57Z</time>
      </trkpt>
      <trkpt lat="42.650517" lon="-2.352800">
        <ele>1092.0</ele>
        <time>2013-06-22T13:08:58Z</time>
      </trkpt>
      <trkpt lat="42.650550" lon="-2.352717">
        <ele>1093.0</ele>
        <time>2013-06-22T13:08:59Z</time>
      </trkpt>
      <trkpt lat="42.650567" lon="-2.352617">
        <ele>1093.0</ele>
        <time>2013-06-22T13:09:00Z</time>
      </trkpt>
      <trkpt lat="42.650600" lon="-2.352517">
        <ele>1094.0</ele>
        <time>2013-06-22T13:09:01Z</time>
      </trkpt>
      <trkpt lat="42.650600" lon="-2.352417">
        <ele>1094.0</ele>
        <time>2013-06-22T13:09:02Z</time>
      </trkpt>
      <trkpt lat="42.650600" lon="-2.352300">
        <ele>1094.0</ele>
        <time>2013-06-22T13:09:03Z</time>
      </trkpt>
      <trkpt lat="42.650583" lon="-2.352183">
        <ele>1095.0</ele>
        <time>2013-06-22T13:09:04Z</time>
      </trkpt>
      <trkpt lat="42.650550" lon="-2.352067">
        <ele>1094.0</ele>
        <time>2013-06-22T13:09:05Z</time>
      </trkpt>
      <trkpt lat="42.650500" lon="-2.351950">
        <ele>1094.0</ele>
        <time>2013-06-22T13:09:06Z</time>
      </trkpt>
      <trkpt lat="42.650433" lon="-2.351833">
        <ele>1094.0</ele>
        <time>2013-06-22T13:09:07Z</time>
      </trkpt>
      <trkpt lat="42.650367" lon="-2.351733">
        <ele>1094.0</ele>
        <time>2013-06-22T13:09:08Z</time>
      </trkpt>
      <trkpt lat="42.650283" lon="-2.351633">
        <ele>1094.0</ele>
        <time>2013-06-22T13:09:09Z</time>
      </trkpt>
      <trkpt lat="42.650200" lon="-2.351550">
        <ele>1094.0</ele>
        <time>2013-06-22T13:09:10Z</time>
      </trkpt>
      <trkpt lat="42.650100" lon="-2.351467">
        <ele>1095.0</ele>
        <time>2013-06-22T13:09:11Z</time>
      </trkpt>
      <trkpt lat="42.650000" lon="-2.351383">
        <ele>1096.0</ele>
        <time>2013-06-22T13:09:12Z</time>
      </trkpt>
      <trkpt lat="42.649900" lon="-2.351300">
        <ele>1096.0</ele>
        <time>2013-06-22T13:09:13Z</time>
      </trkpt>
      <trkpt lat="42.649800" lon="-2.351217">
        <ele>1096.0</ele>
        <time>2013-06-22T13:09:14Z</time>
      </trkpt>
      <trkpt lat="42.649700" lon="-2.351133">
        <ele>1097.0</ele>
        <time>2013-06-22T13:09:15Z</time>
      </trkpt>
      <trkpt lat="42.649600" lon="-2.351083">
        <ele>1098.0</ele>
        <time>2013-06-22T13:09:16Z</time>
      </trkpt>
      <trkpt lat="42.649500" lon="-2.351033">
        <ele>1099.0</ele>
        <time>2013-06-22T13:09:17Z</time>
      </trkpt>
      <trkpt lat="42.649383" lon="-2.351000">
        <ele>1099.0</ele>
        <time>2013-06-22T13:09:18Z</time>
      </trkpt>
      <trkpt lat="42.649267" lon="-2.351000">
        <ele>1099.0</ele>
        <time>2013-06-22T13:09:19Z</time>
      </trkpt>
      <trkpt lat="42.649150" lon="-2.351033">
        <ele>1100.0</ele>
        <time>2013-06-22T13:09:20Z</time>
      </trkpt>
      <trkpt lat="42.649067" lon="-2.351100">
        <ele>1101.0</ele>
        <time>2013-06-22T13:09:21Z</time>
      </trkpt>
      <trkpt lat="42.648983" lon="-2.351183">
        <ele>1102.0</ele>
        <time>2013-06-22T13:09:22Z</time>
      </trkpt>
      <trkpt lat="42.648950" lon="-2.351267">
        <ele>1104.0</ele>
        <time>2013-06-22T13:09:23Z</time>
      </trkpt>
      <trkpt lat="42.648917" lon="-2.351333">
        <ele>1106.0</ele>
        <time>2013-06-22T13:09:24Z</time>
      </trkpt>
      <trkpt lat="42.648883" lon="-2.351433">
        <ele>1107.0</ele>
        <time>2013-06-22T13:09:25Z</time>
      </trkpt>
      <trkpt lat="42.648883" lon="-2.351533">
        <ele>1107.0</ele>
        <time>2013-06-22T13:09:26Z</time>
      </trkpt>
      <trkpt lat="42.648883" lon="-2.351633">
        <ele>1107.0</ele>
        <time>2013-06-22T13:09:27Z</time>
      </trkpt>
      <trkpt lat="42.648917" lon="-2.351717">
        <ele>1108.0</ele>
        <time>2013-06-22T13:09:28Z</time>
      </trkpt>
      <trkpt lat="42.648950" lon="-2.351750">
        <ele>1110.0</ele>
        <time>2013-06-22T13:09:29Z</time>
      </trkpt>
      <trkpt lat="42.648983" lon="-2.351750">
        <ele>1110.0</ele>
        <time>2013-06-22T13:09:30Z</time>
      </trkpt>
      <trkpt lat="42.649033" lon="-2.351717">
        <ele>1109.0</ele>
        <time>2013-06-22T13:09:31Z</time>
      </trkpt>
      <trkpt lat="42.649083" lon="-2.351667">
        <ele>1109.0</ele>
        <time>2013-06-22T13:09:32Z</time>
      </trkpt>
      <trkpt lat="42.649100" lon="-2.351583">
        <ele>1111.0</ele>
        <time>2013-06-22T13:09:33Z</time>
      </trkpt>
      <trkpt lat="42.649100" lon="-2.351483">
        <ele>1111.0</ele>
        <time>2013-06-22T13:09:34Z</time>
      </trkpt>
      <trkpt lat="42.649083" lon="-2.351383">
        <ele>1112.0</ele>
        <time>2013-06-22T13:09:35Z</time>
      </trkpt>
      <trkpt lat="42.649067" lon="-2.351267">
        <ele>1112.0</ele>
        <time>2013-06-22T13:09:36Z</time>
      </trkpt>
      <trkpt lat="42.649033" lon="-2.351133">
        <ele>1113.0</ele>
        <time>2013-06-22T13:09:37Z</time>
      </trkpt>
      <trkpt lat="42.648983" lon="-2.351033">
        <ele>1113.0</ele>
        <time>2013-06-22T13:09:38Z</time>
      </trkpt>
      <trkpt lat="42.648917" lon="-2.350917">
        <ele>1113.0</ele>
        <time>2013-06-22T13:09:39Z</time>
      </trkpt>
      <trkpt lat="42.648817" lon="-2.350817">
        <ele>1113.0</ele>
        <time>2013-06-22T13:09:40Z</time>
      </trkpt>
      <trkpt lat="42.648717" lon="-2.350750">
        <ele>1113.0</ele>
        <time>2013-06-22T13:09:41Z</time>
      </trkpt>
      <trkpt lat="42.648583" lon="-2.350700">
        <ele>1113.0</ele>
        <time>2013-06-22T13:09:42Z</time>
      </trkpt>
      <trkpt lat="42.648467" lon="-2.350717">
        <ele>1113.0</ele>
        <time>2013-06-22T13:09:43Z</time>
      </trkpt>
      <trkpt lat="42.648333" lon="-2.350750">
        <ele>1115.0</ele>
        <time>2013-06-22T13:09:44Z</time>
      </trkpt>
      <trkpt lat="42.648250" lon="-2.350800">
        <ele>1117.0</ele>
        <time>2013-06-22T13:09:45Z</time>
      </trkpt>
      <trkpt lat="42.648183" lon="-2.350867">
        <ele>1120.0</ele>
        <time>2013-06-22T13:09:46Z</time>
      </trkpt>
      <trkpt lat="42.648117" lon="-2.350950">
        <ele>1121.0</ele>
        <time>2013-06-22T13:09:47Z</time>
      </trkpt>
      <trkpt lat="42.648067" lon="-2.351033">
        <ele>1121.0</ele>
        <time>2013-06-22T13:09:48Z</time>
      </trkpt>
      <trkpt lat="42.648033" lon="-2.351150">
        <ele>1121.0</ele>
        <time>2013-06-22T13:09:49Z</time>
      </trkpt>
      <trkpt lat="42.648017" lon="-2.351250">
        <ele>1122.0</ele>
        <time>2013-06-22T13:09:50Z</time>
      </trkpt>
      <trkpt lat="42.648017" lon="-2.351333">
        <ele>1123.0</ele>
        <time>2013-06-22T13:09:51Z</time>
      </trkpt>
      <trkpt lat="42.648017" lon="-2.351400">
        <ele>1124.0</ele>
        <time>2013-06-22T13:09:52Z</time>
      </trkpt>
      <trkpt lat="42.648017" lon="-2.351467">
        <ele>1126.0</ele>
        <time>2013-06-22T13:09:53Z</time>
      </trkpt>
      <trkpt lat="42.648033" lon="-2.351550">
        <ele>1123.0</ele>
        <time>2013-06-22T13:09:54Z</time>
      </trkpt>
      <trkpt lat="42.648050" lon="-2.351633">
        <ele>1123.0</ele>
        <time>2013-06-22T13:09:55Z</time>
      </trkpt>
      <trkpt lat="42.648083" lon="-2.351717">
        <ele>1123.0</ele>
        <time>2013-06-22T13:09:56Z</time>
      </trkpt>
      <trkpt lat="42.648117" lon="-2.351783">
        <ele>1123.0</ele>
        <time>2013-06-22T13:09:57Z</time>
      </trkpt>
      <trkpt lat="42.648150" lon="-2.351817">
        <ele>1124.0</ele>
        <time>2013-06-22T13:09:58Z</time>
      </trkpt>
      <trkpt lat="42.648183" lon="-2.351817">
        <ele>1125.0</ele>
        <time>2013-06-22T13:09:59Z</time>
      </trkpt>
      <trkpt lat="42.648233" lon="-2.351767">
        <ele>1125.0</ele>
        <time>2013-06-22T13:10:00Z</time>
      </trkpt>
      <trkpt lat="42.648250" lon="-2.351667">
        <ele>1125.0</ele>
        <time>2013-06-22T13:10:01Z</time>
      </trkpt>
      <trkpt lat="42.648267" lon="-2.351550">
        <ele>1125.0</ele>
        <time>2013-06-22T13:10:02Z</time>
      </trkpt>
      <trkpt lat="42.648267" lon="-2.351433">
        <ele>1125.0</ele>
        <time>2013-06-22T13:10:03Z</time>
      </trkpt>
      <trkpt lat="42.648233" lon="-2.351317">
        <ele>1126.0</ele>
        <time>2013-06-22T13:10:04Z</time>
      </trkpt>
      <trkpt lat="42.648183" lon="-2.351200">
        <ele>1126.0</ele>
        <time>2013-06-22T13:10:05Z</time>
      </trkpt>
      <trkpt lat="42.648117" lon="-2.351083">
        <ele>1126.0</ele>
        <time>2013-06-22T13:10:06Z</time>
      </trkpt>
      <trkpt lat="42.648033" lon="-2.350950">
        <ele>1126.0</ele>
        <time>2013-06-22T13:10:07Z</time>
      </trkpt>
      <trkpt lat="42.647950" lon="-2.350833">
        <ele>1126.0</ele>
        <time>2013-06-22T13:10:08Z</time>
      </trkpt>
      <trkpt lat="42.647900" lon="-2.350700">
        <ele>1128.0</ele>
        <time>2013-06-22T13:10:09Z</time>
      </trkpt>
      <trkpt lat="42.647867" lon="-2.350583">
        <ele>1130.0</ele>
        <time>2013-06-22T13:10:10Z</time>
      </trkpt>
      <trkpt lat="42.647850" lon="-2.350467">
        <ele>1131.0</ele>
        <time>2013-06-22T13:10:11Z</time>
      </trkpt>
      <trkpt lat="42.647850" lon="-2.350350">
        <ele>1132.0</ele>
        <time>2013-06-22T13:10:12Z</time>
      </trkpt>
      <trkpt lat="42.647867" lon="-2.350217">
        <ele>1132.0</ele>
        <time>2013-06-22T13:10:13Z</time>
      </trkpt>
      <trkpt lat="42.647883" lon="-2.350100">
        <ele>1132.0</ele>
        <time>2013-06-22T13:10:14Z</time>
      </trkpt>
      <trkpt lat="42.647900" lon="-2.349983">
        <ele>1133.0</ele>
        <time>2013-06-22T13:10:15Z</time>
      </trkpt>
      <trkpt lat="42.647917" lon="-2.349900">
        <ele>1135.0</ele>
        <time>2013-06-22T13:10:16Z</time>
      </trkpt>
      <trkpt lat="42.647933" lon="-2.349800">
        <ele>1136.0</ele>
        <time>2013-06-22T13:10:17Z</time>
      </trkpt>
      <trkpt lat="42.647950" lon="-2.349700">
        <ele>1137.0</ele>
        <time>2013-06-22T13:10:18Z</time>
      </trkpt>
      <trkpt lat="42.647933" lon="-2.349583">
        <ele>1137.0</ele>
        <time>2013-06-22T13:10:19Z</time>
      </trkpt>
      <trkpt lat="42.647900" lon="-2.349433">
        <ele>1137.0</ele>
        <time>2013-06-22T13:10:20Z</time>
      </trkpt>
      <trkpt lat="42.647833" lon="-2.349283">
        <ele>1136.0</ele>
        <time>2013-06-22T13:10:21Z</time>
      </trkpt>
      <trkpt lat="42.647733" lon="-2.349167">
        <ele>1136.0</ele>
        <time>2013-06-22T13:10:22Z</time>
      </trkpt>
      <trkpt lat="42.647633" lon="-2.349083">
        <ele>1137.0</ele>
        <time>2013-06-22T13:10:23Z</time>
      </trkpt>
      <trkpt lat="42.647533" lon="-2.349050">
        <ele>1137.0</ele>
        <time>2013-06-22T13:10:24Z</time>
      </trkpt>
      <trkpt lat="42.647400" lon="-2.349067">
        <ele>1136.0</ele>
        <time>2013-06-22T13:10:25Z</time>
      </trkpt>
      <trkpt lat="42.647300" lon="-2.349083">
        <ele>1136.0</ele>
        <time>2013-06-22T13:10:26Z</time>
      </trkpt>
      <trkpt lat="42.647200" lon="-2.349150">
        <ele>1136.0</ele>
        <time>2013-06-22T13:10:27Z</time>
      </trkpt>
      <trkpt lat="42.647117" lon="-2.349200">
        <ele>1136.0</ele>
        <time>2013-06-22T13:10:28Z</time>
      </trkpt>
      <trkpt lat="42.647050" lon="-2.349283">
        <ele>1137.0</ele>
        <time>2013-06-22T13:10:29Z</time>
      </trkpt>
      <trkpt lat="42.647000" lon="-2.349367">
        <ele>1137.0</ele>
        <time>2013-06-22T13:10:30Z</time>
      </trkpt>
      <trkpt lat="42.646967" lon="-2.349467">
        <ele>1138.0</ele>
        <time>2013-06-22T13:10:31Z</time>
      </trkpt>
      <trkpt lat="42.646950" lon="-2.349567">
        <ele>1138.0</ele>
        <time>2013-06-22T13:10:32Z</time>
      </trkpt>
      <trkpt lat="42.646967" lon="-2.349633">
        <ele>1139.0</ele>
        <time>2013-06-22T13:10:33Z</time>
      </trkpt>
      <trkpt lat="42.646983" lon="-2.349700">
        <ele>1140.0</ele>
        <time>2013-06-22T13:10:34Z</time>
      </trkpt>
      <trkpt lat="42.647017" lon="-2.349750">
        <ele>1141.0</ele>
        <time>2013-06-22T13:10:35Z</time>
      </trkpt>
      <trkpt lat="42.647033" lon="-2.349800">
        <ele>1142.0</ele>
        <time>2013-06-22T13:10:36Z</time>
      </trkpt>
      <trkpt lat="42.647067" lon="-2.349817">
        <ele>1143.0</ele>
        <time>2013-06-22T13:10:37Z</time>
      </trkpt>
      <trkpt lat="42.647100" lon="-2.349850">
        <ele>1145.0</ele>
        <time>2013-06-22T13:10:38Z</time>
      </trkpt>
      <trkpt lat="42.647133" lon="-2.349867">
        <ele>1146.0</ele>
        <time>2013-06-22T13:10:39Z</time>
      </trkpt>
      <trkpt lat="42.647183" lon="-2.349867">
        <ele>1147.0</ele>
        <time>2013-06-22T13:10:40Z</time>
      </trkpt>
      <trkpt lat="42.647233" lon="-2.349900">
        <ele>1147.0</ele>
        <time>2013-06-22T13:10:41Z</time>
      </trkpt>
      <trkpt lat="42.647267" lon="-2.349917">
        <ele>1149.0</ele>
        <time>2013-06-22T13:10:42Z</time>
      </trkpt>
      <trkpt lat="42.647300" lon="-2.349933">
        <ele>1150.0</ele>
        <time>2013-06-22T13:10:43Z</time>
      </trkpt>
      <trkpt lat="42.647333" lon="-2.349917">
        <ele>1151.0</ele>
        <time>2013-06-22T13:10:44Z</time>
      </trkpt>
      <trkpt lat="42.647367" lon="-2.349867">
        <ele>1151.0</ele>
        <time>2013-06-22T13:10:45Z</time>
      </trkpt>
      <trkpt lat="42.647400" lon="-2.349750">
        <ele>1150.0</ele>
        <time>2013-06-22T13:10:46Z</time>
      </trkpt>
      <trkpt lat="42.647400" lon="-2.349617">
        <ele>1150.0</ele>
        <time>2013-06-22T13:10:47Z</time>
      </trkpt>
      <trkpt lat="42.647350" lon="-2.349483">
        <ele>1150.0</ele>
        <time>2013-06-22T13:10:48Z</time>
      </trkpt>
      <trkpt lat="42.647250" lon="-2.349383">
        <ele>1150.0</ele>
        <time>2013-06-22T13:10:49Z</time>
      </trkpt>
      <trkpt lat="42.647150" lon="-2.349300">
        <ele>1150.0</ele>
        <time>2013-06-22T13:10:50Z</time>
      </trkpt>
      <trkpt lat="42.647033" lon="-2.349267">
        <ele>1150.0</ele>
        <time>2013-06-22T13:10:51Z</time>
      </trkpt>
      <trkpt lat="42.646917" lon="-2.349267">
        <ele>1151.0</ele>
        <time>2013-06-22T13:10:52Z</time>
      </trkpt>
      <trkpt lat="42.646800" lon="-2.349283">
        <ele>1152.0</ele>
        <time>2013-06-22T13:10:53Z</time>
      </trkpt>
      <trkpt lat="42.646717" lon="-2.349317">
        <ele>1152.0</ele>
        <time>2013-06-22T13:10:54Z</time>
      </trkpt>
      <trkpt lat="42.646633" lon="-2.349383">
        <ele>1151.0</ele>
        <time>2013-06-22T13:10:55Z</time>
      </trkpt>
      <trkpt lat="42.646550" lon="-2.349467">
        <ele>1151.0</ele>
        <time>2013-06-22T13:10:56Z</time>
      </trkpt>
      <trkpt lat="42.646517" lon="-2.349567">
        <ele>1151.0</ele>
        <time>2013-06-22T13:10:57Z</time>
      </trkpt>
      <trkpt lat="42.646500" lon="-2.349650">
        <ele>1151.0</ele>
        <time>2013-06-22T13:10:58Z</time>
      </trkpt>
      <trkpt lat="42.646500" lon="-2.349717">
        <ele>1151.0</ele>
        <time>2013-06-22T13:10:59Z</time>
      </trkpt>
      <trkpt lat="42.646517" lon="-2.349783">
        <ele>1152.0</ele>
        <time>2013-06-22T13:11:00Z</time>
      </trkpt>
      <trkpt lat="42.646533" lon="-2.349833">
        <ele>1153.0</ele>
        <time>2013-06-22T13:11:01Z</time>
      </trkpt>
      <trkpt lat="42.646550" lon="-2.349883">
        <ele>1154.0</ele>
        <time>2013-06-22T13:11:02Z</time>
      </trkpt>
      <trkpt lat="42.646600" lon="-2.349917">
        <ele>1155.0</ele>
        <time>2013-06-22T13:11:03Z</time>
      </trkpt>
      <trkpt lat="42.646633" lon="-2.349950">
        <ele>1155.0</ele>
        <time>2013-06-22T13:11:04Z</time>
      </trkpt>
      <trkpt lat="42.646683" lon="-2.349967">
        <ele>1156.0</ele>
        <time>2013-06-22T13:11:05Z</time>
      </trkpt>
      <trkpt lat="42.646733" lon="-2.349983">
        <ele>1157.0</ele>
        <time>2013-06-22T13:11:06Z</time>
      </trkpt>
      <trkpt lat="42.646783" lon="-2.349967">
        <ele>1159.0</ele>
        <time>2013-06-22T13:11:07Z</time>
      </trkpt>
      <trkpt lat="42.646817" lon="-2.349967">
        <ele>1160.0</ele>
        <time>2013-06-22T13:11:08Z</time>
      </trkpt>
      <trkpt lat="42.646867" lon="-2.349967">
        <ele>1161.0</ele>
        <time>2013-06-22T13:11:09Z</time>
      </trkpt>
      <trkpt lat="42.646917" lon="-2.349967">
        <ele>1162.0</ele>
        <time>2013-06-22T13:11:10Z</time>
      </trkpt>
      <trkpt lat="42.646950" lon="-2.349967">
        <ele>1163.0</ele>
        <time>2013-06-22T13:11:11Z</time>
      </trkpt>
      <trkpt lat="42.647000" lon="-2.349967">
        <ele>1163.0</ele>
        <time>2013-06-22T13:11:12Z</time>
      </trkpt>
      <trkpt lat="42.647033" lon="-2.349967">
        <ele>1164.0</ele>
        <time>2013-06-22T13:11:13Z</time>
      </trkpt>
      <trkpt lat="42.647067" lon="-2.349983">
        <ele>1166.0</ele>
        <time>2013-06-22T13:11:14Z</time>
      </trkpt>
      <trkpt lat="42.647100" lon="-2.349983">
        <ele>1166.0</ele>
        <time>2013-06-22T13:11:15Z</time>
      </trkpt>
      <trkpt lat="42.647133" lon="-2.350000">
        <ele>1166.0</ele>
        <time>2013-06-22T13:11:16Z</time>
      </trkpt>
      <trkpt lat="42.647183" lon="-2.350000">
        <ele>1166.0</ele>
        <time>2013-06-22T13:11:17Z</time>
      </trkpt>
      <trkpt lat="42.647233" lon="-2.350000">
        <ele>1167.0</ele>
        <time>2013-06-22T13:11:18Z</time>
      </trkpt>
      <trkpt lat="42.647267" lon="-2.350000">
        <ele>1168.0</ele>
        <time>2013-06-22T13:11:19Z</time>
      </trkpt>
      <trkpt lat="42.647283" lon="-2.350017">
        <ele>1170.0</ele>
        <time>2013-06-22T13:11:20Z</time>
      </trkpt>
      <trkpt lat="42.647317" lon="-2.350033">
        <ele>1171.0</ele>
        <time>2013-06-22T13:11:21Z</time>
      </trkpt>
      <trkpt lat="42.647350" lon="-2.350050">
        <ele>1172.0</ele>
        <time>2013-06-22T13:11:22Z</time>
      </trkpt>
      <trkpt lat="42.647383" lon="-2.350067">
        <ele>1172.0</ele>
        <time>2013-06-22T13:11:23Z</time>
      </trkpt>
      <trkpt lat="42.647417" lon="-2.350067">
        <ele>1172.0</ele>
        <time>2013-06-22T13:11:24Z</time>
      </trkpt>
      <trkpt lat="42.647450" lon="-2.350033">
        <ele>1171.0</ele>
        <time>2013-06-22T13:11:25Z</time>
      </trkpt>
      <trkpt lat="42.647483" lon="-2.349950">
        <ele>1171.0</ele>
        <time>2013-06-22T13:11:26Z</time>
      </trkpt>
      <trkpt lat="42.647517" lon="-2.349850">
        <ele>1171.0</ele>
        <time>2013-06-22T13:11:27Z</time>
      </trkpt>
      <trkpt lat="42.647517" lon="-2.349717">
        <ele>1171.0</ele>
        <time>2013-06-22T13:11:28Z</time>
      </trkpt>
      <trkpt lat="42.647500" lon="-2.349600">
        <ele>1171.0</ele>
        <time>2013-06-22T13:11:29Z</time>
      </trkpt>
      <trkpt lat="42.647450" lon="-2.349467">
        <ele>1172.0</ele>
        <time>2013-06-22T13:11:30Z</time>
      </trkpt>
      <trkpt lat="42.647383" lon="-2.349367">
        <ele>1173.0</ele>
        <time>2013-06-22T13:11:31Z</time>
      </trkpt>
      <trkpt lat="42.647283" lon="-2.349267">
        <ele>1174.0</ele>
        <time>2013-06-22T13:11:32Z</time>
      </trkpt>
      <trkpt lat="42.647167" lon="-2.349200">
        <ele>1175.0</ele>
        <time>2013-06-22T13:11:33Z</time>
      </trkpt>
      <trkpt lat="42.647050" lon="-2.349150">
        <ele>1175.0</ele>
        <time>2013-06-22T13:11:34Z</time>
      </trkpt>
      <trkpt lat="42.646933" lon="-2.349150">
        <ele>1176.0</ele>
        <time>2013-06-22T13:11:35Z</time>
      </trkpt>
      <trkpt lat="42.646817" lon="-2.349167">
        <ele>1177.0</ele>
        <time>2013-06-22T13:11:36Z</time>
      </trkpt>
      <trkpt lat="42.646717" lon="-2.349217">
        <ele>1177.0</ele>
        <time>2013-06-22T13:11:37Z</time>
      </trkpt>
      <trkpt lat="42.646633" lon="-2.349300">
        <ele>1176.0</ele>
        <time>2013-06-22T13:11:38Z</time>
      </trkpt>
      <trkpt lat="42.646567" lon="-2.349383">
        <ele>1176.0</ele>
        <time>2013-06-22T13:11:39Z</time>
      </trkpt>
      <trkpt lat="42.646517" lon="-2.349483">
        <ele>1177.0</ele>
        <time>2013-06-22T13:11:40Z</time>
      </trkpt>
      <trkpt lat="42.646500" lon="-2.349567">
        <ele>1177.0</ele>
        <time>2013-06-22T13:11:41Z</time>
      </trkpt>
      <trkpt lat="42.646500" lon="-2.349633">
        <ele>1177.0</ele>
        <time>2013-06-22T13:11:42Z</time>
      </trkpt>
      <trkpt lat="42.646517" lon="-2.349700">
        <ele>1177.0</ele>
        <time>2013-06-22T13:11:43Z</time>
      </trkpt>
      <trkpt lat="42.646533" lon="-2.349750">
        <ele>1177.0</ele>
        <time>2013-06-22T13:11:44Z</time>
      </trkpt>
      <trkpt lat="42.646550" lon="-2.349783">
        <ele>1178.0</ele>
        <time>2013-06-22T13:11:45Z</time>
      </trkpt>
      <trkpt lat="42.646583" lon="-2.349783">
        <ele>1179.0</ele>
        <time>2013-06-22T13:11:46Z</time>
      </trkpt>
      <trkpt lat="42.646633" lon="-2.349767">
        <ele>1179.0</ele>
        <time>2013-06-22T13:11:47Z</time>
      </trkpt>
      <trkpt lat="42.646667" lon="-2.349717">
        <ele>1179.0</ele>
        <time>2013-06-22T13:11:48Z</time>
      </trkpt>
      <trkpt lat="42.646700" lon="-2.349650">
        <ele>1178.0</ele>
        <time>2013-06-22T13:11:49Z</time>
      </trkpt>
      <trkpt lat="42.646717" lon="-2.349550">
        <ele>1179.0</ele>
        <time>2013-06-22T13:11:50Z</time>
      </trkpt>
      <trkpt lat="42.646717" lon="-2.349450">
        <ele>1180.0</ele>
        <time>2013-06-22T13:11:51Z</time>
      </trkpt>
      <trkpt lat="42.646717" lon="-2.349333">
        <ele>1180.0</ele>
        <time>2013-06-22T13:11:52Z</time>
      </trkpt>
      <trkpt lat="42.646683" lon="-2.349217">
        <ele>1181.0</ele>
        <time>2013-06-22T13:11:53Z</time>
      </trkpt>
      <trkpt lat="42.646633" lon="-2.349083">
        <ele>1181.0</ele>
        <time>2013-06-22T13:11:54Z</time>
      </trkpt>
      <trkpt lat="42.646550" lon="-2.348967">
        <ele>1182.0</ele>
        <time>2013-06-22T13:11:55Z</time>
      </trkpt>
      <trkpt lat="42.646450" lon="-2.348883">
        <ele>1182.0</ele>
        <time>2013-06-22T13:11:56Z</time>
      </trkpt>
      <trkpt lat="42.646317" lon="-2.348817">
        <ele>1183.0</ele>
        <time>2013-06-22T13:11:57Z</time>
      </trkpt>
      <trkpt lat="42.646200" lon="-2.348800">
        <ele>1185.0</ele>
        <time>2013-06-22T13:11:58Z</time>
      </trkpt>
      <trkpt lat="42.646083" lon="-2.348800">
        <ele>1186.0</ele>
        <time>2013-06-22T13:11:59Z</time>
      </trkpt>
      <trkpt lat="42.645983" lon="-2.348833">
        <ele>1187.0</ele>
        <time>2013-06-22T13:12:00Z</time>
      </trkpt>
      <trkpt lat="42.645867" lon="-2.348883">
        <ele>1188.0</ele>
        <time>2013-06-22T13:12:01Z</time>
      </trkpt>
      <trkpt lat="42.645783" lon="-2.348950">
        <ele>1188.0</ele>
        <time>2013-06-22T13:12:02Z</time>
      </trkpt>
      <trkpt lat="42.645683" lon="-2.349033">
        <ele>1188.0</ele>
        <time>2013-06-22T13:12:03Z</time>
      </trkpt>
      <trkpt lat="42.645600" lon="-2.349117">
        <ele>1188.0</ele>
        <time>2013-06-22T13:12:04Z</time>
      </trkpt>
      <trkpt lat="42.645533" lon="-2.349200">
        <ele>1189.0</ele>
        <time>2013-06-22T13:12:05Z</time>
      </trkpt>
      <trkpt lat="42.645450" lon="-2.349300">
        <ele>1189.0</ele>
        <time>2013-06-22T13:12:06Z</time>
      </trkpt>
      <trkpt lat="42.645400" lon="-2.349400">
        <ele>1190.0</ele>
        <time>2013-06-22T13:12:07Z</time>
      </trkpt>
      <trkpt lat="42.645367" lon="-2.349500">
        <ele>1190.0</ele>
        <time>2013-06-22T13:12:08Z</time>
      </trkpt>
      <trkpt lat="42.645367" lon="-2.349600">
        <ele>1190.0</ele>
        <time>2013-06-22T13:12:09Z</time>
      </trkpt>
      <trkpt lat="42.645367" lon="-2.349683">
        <ele>1191.0</ele>
        <time>2013-06-22T13:12:10Z</time>
      </trkpt>
      <trkpt lat="42.645383" lon="-2.349750">
        <ele>1192.0</ele>
        <time>2013-06-22T13:12:11Z</time>
      </trkpt>
      <trkpt lat="42.645400" lon="-2.349817">
        <ele>1194.0</ele>
        <time>2013-06-22T13:12:12Z</time>
      </trkpt>
      <trkpt lat="42.645417" lon="-2.349883">
        <ele>1195.0</ele>
        <time>2013-06-22T13:12:13Z</time>
      </trkpt>
      <trkpt lat="42.645450" lon="-2.349950">
        <ele>1196.0</ele>
        <time>2013-06-22T13:12:14Z</time>
      </trkpt>
      <trkpt lat="42.645483" lon="-2.350000">
        <ele>1197.0</ele>
        <time>2013-06-22T13:12:15Z</time>
      </trkpt>
      <trkpt lat="42.645533" lon="-2.350017">
        <ele>1197.0</ele>
        <time>2013-06-22T13:12:16Z</time>
      </trkpt>
      <trkpt lat="42.645583" lon="-2.350017">
        <ele>1199.0</ele>
        <time>2013-06-22T13:12:17Z</time>
      </trkpt>
      <trkpt lat="42.645600" lon="-2.349967">
        <ele>1201.0</ele>
        <time>2013-06-22T13:12:18Z</time>
      </trkpt>
      <trkpt lat="42.645617" lon="-2.349883">
        <ele>1202.0</ele>
        <time>2013-06-22T13:12:19Z</time>
      </trkpt>
      <trkpt lat="42.645617" lon="-2.349783">
        <ele>1204.0</ele>
        <time>2013-06-22T13:12:20Z</time>
      </trkpt>
      <trkpt lat="42.645617" lon="-2.349683">
        <ele>1205.0</ele>
        <time>2013-06-22T13:12:21Z</time>
      </trkpt>
      <trkpt lat="42.645583" lon="-2.349567">
        <ele>1207.0</ele>
        <time>2013-06-22T13:12:22Z</time>
      </trkpt>
      <trkpt lat="42.645517" lon="-2.349450">
        <ele>1208.0</ele>
        <time>2013-06-22T13:12:23Z</time>
      </trkpt>
      <trkpt lat="42.645433" lon="-2.349350">
        <ele>1209.0</ele>
        <time>2013-06-22T13:12:24Z</time>
      </trkpt>
      <trkpt lat="42.645300" lon="-2.349267">
        <ele>1210.0</ele>
        <time>2013-06-22T13:12:25Z</time>
      </trkpt>
      <trkpt lat="42.645183" lon="-2.349233">
        <ele>1212.0</ele>
        <time>2013-06-22T13:12:26Z</time>
      </trkpt>
      <trkpt lat="42.645067" lon="-2.349233">
        <ele>1213.0</ele>
        <time>2013-06-22T13:12:27Z</time>
      </trkpt>
      <trkpt lat="42.644950" lon="-2.349267">
        <ele>1214.0</ele>
        <time>2013-06-22T13:12:28Z</time>
      </trkpt>
      <trkpt lat="42.644850" lon="-2.349333">
        <ele>1215.0</ele>
        <time>2013-06-22T13:12:29Z</time>
      </trkpt>
      <trkpt lat="42.644750" lon="-2.349417">
        <ele>1216.0</ele>
        <time>2013-06-22T13:12:30Z</time>
      </trkpt>
      <trkpt lat="42.644667" lon="-2.349517">
        <ele>1217.0</ele>
        <time>2013-06-22T13:12:31Z</time>
      </trkpt>
      <trkpt lat="42.644617" lon="-2.349617">
        <ele>1218.0</ele>
        <time>2013-06-22T13:12:32Z</time>
      </trkpt>
      <trkpt lat="42.644567" lon="-2.349733">
        <ele>1219.0</ele>
        <time>2013-06-22T13:12:33Z</time>
      </trkpt>
      <trkpt lat="42.644550" lon="-2.349833">
        <ele>1221.0</ele>
        <time>2013-06-22T13:12:34Z</time>
      </trkpt>
      <trkpt lat="42.644550" lon="-2.349917">
        <ele>1222.0</ele>
        <time>2013-06-22T13:12:35Z</time>
      </trkpt>
      <trkpt lat="42.644550" lon="-2.350000">
        <ele>1224.0</ele>
        <time>2013-06-22T13:12:36Z</time>
      </trkpt>
      <trkpt lat="42.644567" lon="-2.350050">
        <ele>1226.0</ele>
        <time>2013-06-22T13:12:37Z</time>
      </trkpt>
      <trkpt lat="42.644583" lon="-2.350117">
        <ele>1228.0</ele>
        <time>2013-06-22T13:12:38Z</time>
      </trkpt>
      <trkpt lat="42.644617" lon="-2.350183">
        <ele>1229.0</ele>
        <time>2013-06-22T13:12:39Z</time>
      </trkpt>
      <trkpt lat="42.644650" lon="-2.350233">
        <ele>1231.0</ele>
        <time>2013-06-22T13:12:40Z</time>
      </trkpt>
      <trkpt lat="42.644700" lon="-2.350283">
        <ele>1234.0</ele>
        <time>2013-06-22T13:12:41Z</time>
      </trkpt>
      <trkpt lat="42.644733" lon="-2.350317">
        <ele>1236.0</ele>
        <time>2013-06-22T13:12:42Z</time>
      </trkpt>
      <trkpt lat="42.644767" lon="-2.350367">
        <ele>1239.0</ele>
        <time>2013-06-22T13:12:43Z</time>
      </trkpt>
      <trkpt lat="42.644800" lon="-2.350400">
        <ele>1242.0</ele>
        <time>2013-06-22T13:12:44Z</time>
      </trkpt>
      <trkpt lat="42.644817" lon="-2.350433">
        <ele>1245.0</ele>
        <time>2013-06-22T13:12:45Z</time>
      </trkpt>
      <trkpt lat="42.644850" lon="-2.350467">
        <ele>1248.0</ele>
        <time>2013-06-22T13:12:46Z</time>
      </trkpt>
      <trkpt lat="42.644883" lon="-2.350500">
        <ele>1251.0</ele>
        <time>2013-06-22T13:12:47Z</time>
      </trkpt>
      <trkpt lat="42.644917" lon="-2.350517">
        <ele>1254.0</ele>
        <time>2013-06-22T13:12:48Z</time>
      </trkpt>
      <trkpt lat="42.644950" lon="-2.350467">
        <ele>1256.0</ele>
        <time>2013-06-22T13:12:49Z</time>
      </trkpt>
      <trkpt lat="42.644967" lon="-2.350367">
        <ele>1259.0</ele>
        <time>2013-06-22T13:12:50Z</time>
      </trkpt>
      <trkpt lat="42.644950" lon="-2.350217">
        <ele>1261.0</ele>
        <time>2013-06-22T13:12:51Z</time>
      </trkpt>
      <trkpt lat="42.644900" lon="-2.350083">
        <ele>1263.0</ele>
        <time>2013-06-22T13:12:52Z</time>
      </trkpt>
      <trkpt lat="42.644833" lon="-2.349967">
        <ele>1266.0</ele>
        <time>2013-06-22T13:12:53Z</time>
      </trkpt>
      <trkpt lat="42.644750" lon="-2.349850">
        <ele>1269.0</ele>
        <time>2013-06-22T13:12:54Z</time>
      </trkpt>
      <trkpt lat="42.644650" lon="-2.349750">
        <ele>1272.0</ele>
        <time>2013-06-22T13:12:55Z</time>
      </trkpt>
      <trkpt lat="42.644517" lon="-2.349683">
        <ele>1274.0</ele>
        <time>2013-06-22T13:12:56Z</time>
      </trkpt>
      <trkpt lat="42.644367" lon="-2.349650">
        <ele>1276.0</ele>
        <time>2013-06-22T13:12:57Z</time>
      </trkpt>
      <trkpt lat="42.644233" lon="-2.349667">
        <ele>1278.0</ele>
        <time>2013-06-22T13:12:58Z</time>
      </trkpt>
      <trkpt lat="42.644117" lon="-2.349717">
        <ele>1281.0</ele>
        <time>2013-06-22T13:12:59Z</time>
      </trkpt>
      <trkpt lat="42.644033" lon="-2.349783">
        <ele>1284.0</ele>
        <time>2013-06-22T13:13:00Z</time>
      </trkpt>
      <trkpt lat="42.643967" lon="-2.349850">
        <ele>1287.0</ele>
        <time>2013-06-22T13:13:01Z</time>
      </trkpt>
      <trkpt lat="42.643917" lon="-2.349900">
        <ele>1290.0</ele>
        <time>2013-06-22T13:13:02Z</time>
      </trkpt>
      <trkpt lat="42.643867" lon="-2.349983">
        <ele>1292.0</ele>
        <time>2013-06-22T13:13:03Z</time>
      </trkpt>
      <trkpt lat="42.643833" lon="-2.350067">
        <ele>1295.0</ele>
        <time>2013-06-22T13:13:04Z</time>
      </trkpt>
      <trkpt lat="42.643817" lon="-2.350150">
        <ele>1296.0</ele>
        <time>2013-06-22T13:13:05Z</time>
      </trkpt>
      <trkpt lat="42.643817" lon="-2.350233">
        <ele>1299.0</ele>
        <time>2013-06-22T13:13:06Z</time>
      </trkpt>
      <trkpt lat="42.643833" lon="-2.350283">
        <ele>1302.0</ele>
        <time>2013-06-22T13:13:07Z</time>
      </trkpt>
      <trkpt lat="42.643850" lon="-2.350333">
        <ele>1305.0</ele>
        <time>2013-06-22T13:13:08Z</time>
      </trkpt>
      <trkpt lat="42.643850" lon="-2.350350">
        <ele>1307.0</ele>
        <time>2013-06-22T13:13:09Z</time>
      </trkpt>
      <trkpt lat="42.643867" lon="-2.350383">
        <ele>1300.0</ele>
        <time>2013-06-22T13:13:10Z</time>
      </trkpt>
      <trkpt lat="42.643900" lon="-2.350400">
        <ele>1302.0</ele>
        <time>2013-06-22T13:13:11Z</time>
      </trkpt>
      <trkpt lat="42.643950" lon="-2.350400">
        <ele>1304.0</ele>
        <time>2013-06-22T13:13:12Z</time>
      </trkpt>
      <trkpt lat="42.643983" lon="-2.350350">
        <ele>1306.0</ele>
        <time>2013-06-22T13:13:13Z</time>
      </trkpt>
      <trkpt lat="42.644033" lon="-2.350250">
        <ele>1308.0</ele>
        <time>2013-06-22T13:13:14Z</time>
      </trkpt>
      <trkpt lat="42.644050" lon="-2.350133">
        <ele>1306.0</ele>
        <time>2013-06-22T13:13:15Z</time>
      </trkpt>
      <trkpt lat="42.644033" lon="-2.350017">
        <ele>1307.0</ele>
        <time>2013-06-22T13:13:16Z</time>
      </trkpt>
      <trkpt lat="42.643983" lon="-2.349900">
        <ele>1307.0</ele>
        <time>2013-06-22T13:13:17Z</time>
      </trkpt>
      <trkpt lat="42.643883" lon="-2.349783">
        <ele>1308.0</ele>
        <time>2013-06-22T13:13:18Z</time>
      </trkpt>
      <trkpt lat="42.643767" lon="-2.349700">
        <ele>1309.0</ele>
        <time>2013-06-22T13:13:19Z</time>
      </trkpt>
      <trkpt lat="42.643633" lon="-2.349617">
        <ele>1311.0</ele>
        <time>2013-06-22T13:13:20Z</time>
      </trkpt>
      <trkpt lat="42.643483" lon="-2.349567">
        <ele>1312.0</ele>
        <time>2013-06-22T13:13:21Z</time>
      </trkpt>
      <trkpt lat="42.643350" lon="-2.349567">
        <ele>1314.0</ele>
        <time>2013-06-22T13:13:22Z</time>
      </trkpt>
      <trkpt lat="42.643250" lon="-2.349617">
        <ele>1317.0</ele>
        <time>2013-06-22T13:13:23Z</time>
      </trkpt>
      <trkpt lat="42.643167" lon="-2.349700">
        <ele>1320.0</ele>
        <time>2013-06-22T13:13:24Z</time>
      </trkpt>
      <trkpt lat="42.643117" lon="-2.349800">
        <ele>1324.0</ele>
        <time>2013-06-22T13:13:25Z</time>
      </trkpt>
      <trkpt lat="42.643067" lon="-2.349883">
        <ele>1327.0</ele>
        <time>2013-06-22T13:13:26Z</time>
      </trkpt>
      <trkpt lat="42.643033" lon="-2.349983">
        <ele>1329.0</ele>
        <time>2013-06-22T13:13:27Z</time>
      </trkpt>
      <trkpt lat="42.643033" lon="-2.350083">
        <ele>1332.0</ele>
        <time>2013-06-22T13:13:28Z</time>
      </trkpt>
      <trkpt lat="42.643033" lon="-2.350167">
        <ele>1337.0</ele>
        <time>2013-06-22T13:13:29Z</time>
      </trkpt>
      <trkpt lat="42.643050" lon="-2.350250">
        <ele>1340.0</ele>
        <time>2013-06-22T13:13:30Z</time>
      </trkpt>
      <trkpt lat="42.643050" lon="-2.350333">
        <ele>1334.0</ele>
        <time>2013-06-22T13:13:31Z</time>
      </trkpt>
      <trkpt lat="42.643050" lon="-2.350400">
        <ele>1335.0</ele>
        <time>2013-06-22T13:13:32Z</time>
      </trkpt>
      <trkpt lat="42.643067" lon="-2.350467">
        <ele>1336.0</ele>
        <time>2013-06-22T13:13:33Z</time>
      </trkpt>
      <trkpt lat="42.643100" lon="-2.350517">
        <ele>1338.0</ele>
        <time>2013-06-22T13:13:34Z</time>
      </trkpt>
      <trkpt lat="42.643150" lon="-2.350533">
        <ele>1339.0</ele>
        <time>2013-06-22T13:13:35Z</time>
      </trkpt>
      <trkpt lat="42.643200" lon="-2.350550">
        <ele>1342.0</ele>
        <time>2013-06-22T13:13:36Z</time>
      </trkpt>
      <trkpt lat="42.643233" lon="-2.350517">
        <ele>1346.0</ele>
        <time>2013-06-22T13:13:37Z</time>
      </trkpt>
      <trkpt lat="42.643283" lon="-2.350483">
        <ele>1351.0</ele>
        <time>2013-06-22T13:13:38Z</time>
      </trkpt>
      <trkpt lat="42.643300" lon="-2.350400">
        <ele>1354.0</ele>
        <time>2013-06-22T13:13:39Z</time>
      </trkpt>
      <trkpt lat="42.643317" lon="-2.350317">
        <ele>1358.0</ele>
        <time>2013-06-22T13:13:40Z</time>
      </trkpt>
      <trkpt lat="42.643333" lon="-2.350217">
        <ele>1361.0</ele>
        <time>2013-06-22T13:13:41Z</time>
      </trkpt>
      <trkpt lat="42.643300" lon="-2.350100">
        <ele>1363.0</ele>
        <time>2013-06-22T13:13:42Z</time>
      </trkpt>
      <trkpt lat="42.643233" lon="-2.349983">
        <ele>1366.0</ele>
        <time>2013-06-22T13:13:43Z</time>
      </trkpt>
      <trkpt lat="42.643150" lon="-2.349867">
        <ele>1368.0</ele>
        <time>2013-06-22T13:13:44Z</time>
      </trkpt>
      <trkpt lat="42.643033" lon="-2.349783">
        <ele>1370.0</ele>
        <time>2013-06-22T13:13:45Z</time>
      </trkpt>
      <trkpt lat="42.642900" lon="-2.349750">
        <ele>1373.0</ele>
        <time>2013-06-22T13:13:46Z</time>
      </trkpt>
      <trkpt lat="42.642783" lon="-2.349750">
        <ele>1376.0</ele>
        <time>2013-06-22T13:13:47Z</time>
      </trkpt>
      <trkpt lat="42.642700" lon="-2.349783">
        <ele>1382.0</ele>
        <time>2013-06-22T13:13:48Z</time>
      </trkpt>
      <trkpt lat="42.642633" lon="-2.349850">
        <ele>1387.0</ele>
        <time>2013-06-22T13:13:49Z</time>
      </trkpt>
      <trkpt lat="42.642583" lon="-2.349917">
        <ele>1390.0</ele>
        <time>2013-06-22T13:13:50Z</time>
      </trkpt>
      <trkpt lat="42.642550" lon="-2.350017">
        <ele>1393.0</ele>
        <time>2013-06-22T13:13:51Z</time>
      </trkpt>
      <trkpt lat="42.642517" lon="-2.350100">
        <ele>1396.0</ele>
        <time>2013-06-22T13:13:52Z</time>
      </trkpt>
      <trkpt lat="42.642517" lon="-2.350200">
        <ele>1399.0</ele>
        <time>2013-06-22T13:13:53Z</time>
      </trkpt>
      <trkpt lat="42.642500" lon="-2.350300">
        <ele>1395.0</ele>
        <time>2013-06-22T13:13:54Z</time>
      </trkpt>
      <trkpt lat="42.642483" lon="-2.350383">
        <ele>1396.0</ele>
        <time>2013-06-22T13:13:55Z</time>
      </trkpt>
      <trkpt lat="42.642483" lon="-2.350450">
        <ele>1398.0</ele>
        <time>2013-06-22T13:13:56Z</time>
      </trkpt>
      <trkpt lat="42.642467" lon="-2.350500">
        <ele>1398.0</ele>
        <time>2013-06-22T13:13:57Z</time>
      </trkpt>
      <trkpt lat="42.642483" lon="-2.350567">
        <ele>1399.0</ele>
        <time>2013-06-22T13:13:58Z</time>
      </trkpt>
      <trkpt lat="42.642483" lon="-2.350633">
        <ele>1400.0</ele>
        <time>2013-06-22T13:13:59Z</time>
      </trkpt>
      <trkpt lat="42.642517" lon="-2.350700">
        <ele>1401.0</ele>
        <time>2013-06-22T13:14:00Z</time>
      </trkpt>
      <trkpt lat="42.642550" lon="-2.350733">
        <ele>1402.0</ele>
        <time>2013-06-22T13:14:01Z</time>
      </trkpt>
      <trkpt lat="42.642600" lon="-2.350750">
        <ele>1404.0</ele>
        <time>2013-06-22T13:14:02Z</time>
      </trkpt>
      <trkpt lat="42.642650" lon="-2.350700">
        <ele>1407.0</ele>
        <time>2013-06-22T13:14:03Z</time>
      </trkpt>
      <trkpt lat="42.642683" lon="-2.350617">
        <ele>1409.0</ele>
        <time>2013-06-22T13:14:04Z</time>
      </trkpt>
      <trkpt lat="42.642683" lon="-2.350517">
        <ele>1411.0</ele>
        <time>2013-06-22T13:14:05Z</time>
      </trkpt>
      <trkpt lat="42.642667" lon="-2.350400">
        <ele>1414.0</ele>
        <time>2013-06-22T13:14:06Z</time>
      </trkpt>
      <trkpt lat="42.642617" lon="-2.350283">
        <ele>1413.0</ele>
        <time>2013-06-22T13:14:07Z</time>
      </trkpt>
      <trkpt lat="42.642550" lon="-2.350150">
        <ele>1414.0</ele>
        <time>2013-06-22T13:14:08Z</time>
      </trkpt>
      <trkpt lat="42.642450" lon="-2.350033">
        <ele>1416.0</ele>
        <time>2013-06-22T13:14:09Z</time>
      </trkpt>
      <trkpt lat="42.642317" lon="-2.349950">
        <ele>1417.0</ele>
        <time>2013-06-22T13:14:10Z</time>
      </trkpt>
      <trkpt lat="42.642200" lon="-2.349917">
        <ele>1419.0</ele>
        <time>2013-06-22T13:14:11Z</time>
      </trkpt>
      <trkpt lat="42.642083" lon="-2.349933">
        <ele>1421.0</ele>
        <time>2013-06-22T13:14:12Z</time>
      </trkpt>
      <trkpt lat="42.641983" lon="-2.349983">
        <ele>1424.0</ele>
        <time>2013-06-22T13:14:13Z</time>
      </trkpt>
      <trkpt lat="42.641917" lon="-2.350067">
        <ele>1428.0</ele>
        <time>2013-06-22T13:14:14Z</time>
      </trkpt>
      <trkpt lat="42.641850" lon="-2.350150">
        <ele>1431.0</ele>
        <time>2013-06-22T13:14:15Z</time>
      </trkpt>
      <trkpt lat="42.641800" lon="-2.350217">
        <ele>1433.0</ele>
        <time>2013-06-22T13:14:16Z</time>
      </trkpt>
      <trkpt lat="42.641767" lon="-2.350300">
        <ele>1436.0</ele>
        <time>2013-06-22T13:14:17Z</time>
      </trkpt>
      <trkpt lat="42.641733" lon="-2.350383">
        <ele>1438.0</ele>
        <time>2013-06-22T13:14:18Z</time>
      </trkpt>
      <trkpt lat="42.641733" lon="-2.350467">
        <ele>1440.0</ele>
        <time>2013-06-22T13:14:19Z</time>
      </trkpt>
      <trkpt lat="42.641733" lon="-2.350533">
        <ele>1442.0</ele>
        <time>2013-06-22T13:14:20Z</time>
      </trkpt>
      <trkpt lat="42.641750" lon="-2.350600">
        <ele>1439.0</ele>
        <time>2013-06-22T13:14:21Z</time>
      </trkpt>
      <trkpt lat="42.641767" lon="-2.350650">
        <ele>1440.0</ele>
        <time>2013-06-22T13:14:22Z</time>
      </trkpt>
      <trkpt lat="42.641800" lon="-2.350700">
        <ele>1441.0</ele>
        <time>2013-06-22T13:14:23Z</time>
      </trkpt>
      <trkpt lat="42.641850" lon="-2.350700">
        <ele>1442.0</ele>
        <time>2013-06-22T13:14:24Z</time>
      </trkpt>
      <trkpt lat="42.641900" lon="-2.350683">
        <ele>1445.0</ele>
        <time>2013-06-22T13:14:25Z</time>
      </trkpt>
      <trkpt lat="42.641967" lon="-2.350667">
        <ele>1448.0</ele>
        <time>2013-06-22T13:14:26Z</time>
      </trkpt>
      <trkpt lat="42.642017" lon="-2.350650">
        <ele>1453.0</ele>
        <time>2013-06-22T13:14:27Z</time>
      </trkpt>
      <trkpt lat="42.642067" lon="-2.350633">
        <ele>1457.0</ele>
        <time>2013-06-22T13:14:28Z</time>
      </trkpt>
      <trkpt lat="42.642083" lon="-2.350633">
        <ele>1462.0</ele>
        <time>2013-06-22T13:14:29Z</time>
      </trkpt>
      <trkpt lat="42.642133" lon="-2.350617">
        <ele>1466.0</ele>
        <time>2013-06-22T13:14:30Z</time>
      </trkpt>
      <trkpt lat="42.642167" lon="-2.350600">
        <ele>1470.0</ele>
        <time>2013-06-22T13:14:31Z</time>
      </trkpt>
      <trkpt lat="42.642217" lon="-2.350600">
        <ele>1472.0</ele>
        <time>2013-06-22T13:14:32Z</time>
      </trkpt>
      <trkpt lat="42.642283" lon="-2.350600">
        <ele>1473.0</ele>
        <time>2013-06-22T13:14:33Z</time>
      </trkpt>
      <trkpt lat="42.642350" lon="-2.350567">
        <ele>1474.0</ele>
        <time>2013-06-22T13:14:34Z</time>
      </trkpt>
      <trkpt lat="42.642383" lon="-2.350550">
        <ele>1475.0</ele>
        <time>2013-06-22T13:14:35Z</time>
      </trkpt>
      <trkpt lat="42.642417" lon="-2.350500">
        <ele>1476.0</ele>
        <time>2013-06-22T13:14:36Z</time>
      </trkpt>
      <trkpt lat="42.642450" lon="-2.350467">
        <ele>1475.0</ele>
        <time>2013-06-22T13:14:37Z</time>
      </trkpt>
      <trkpt lat="42.642483" lon="-2.350450">
        <ele>1474.0</ele>
        <time>2013-06-22T13:14:38Z</time>
      </trkpt>
      <trkpt lat="42.642550" lon="-2.350400">
        <ele>1470.0</ele>
        <time>2013-06-22T13:14:39Z</time>
      </trkpt>
      <trkpt lat="42.642617" lon="-2.350367">
        <ele>1467.0</ele>
        <time>2013-06-22T13:14:40Z</time>
      </trkpt>
      <trkpt lat="42.642683" lon="-2.350300">
        <ele>1468.0</ele>
        <time>2013-06-22T13:14:41Z</time>
      </trkpt>
      <trkpt lat="42.642717" lon="-2.350233">
        <ele>1468.0</ele>
        <time>2013-06-22T13:14:42Z</time>
      </trkpt>
      <trkpt lat="42.642750" lon="-2.350167">
        <ele>1467.0</ele>
        <time>2013-06-22T13:14:43Z</time>
      </trkpt>
      <trkpt lat="42.642800" lon="-2.350067">
        <ele>1466.0</ele>
        <time>2013-06-22T13:14:44Z</time>
      </trkpt>
      <trkpt lat="42.642850" lon="-2.349967">
        <ele>1465.0</ele>
        <time>2013-06-22T13:14:45Z</time>
      </trkpt>
      <trkpt lat="42.642900" lon="-2.349850">
        <ele>1463.0</ele>
        <time>2013-06-22T13:14:46Z</time>
      </trkpt>
      <trkpt lat="42.642933" lon="-2.349717">
        <ele>1462.0</ele>
        <time>2013-06-22T13:14:47Z</time>
      </trkpt>
      <trkpt lat="42.642950" lon="-2.349617">
        <ele>1461.0</ele>
        <time>2013-06-22T13:14:48Z</time>
      </trkpt>
      <trkpt lat="42.642967" lon="-2.349500">
        <ele>1461.0</ele>
        <time>2013-06-22T13:14:49Z</time>
      </trkpt>
      <trkpt lat="42.642983" lon="-2.349400">
        <ele>1461.0</ele>
        <time>2013-06-22T13:14:50Z</time>
      </trkpt>
      <trkpt lat="42.643017" lon="-2.349283">
        <ele>1460.0</ele>
        <time>2013-06-22T13:14:51Z</time>
      </trkpt>
      <trkpt lat="42.643033" lon="-2.349167">
        <ele>1458.0</ele>
        <time>2013-06-22T13:14:52Z</time>
      </trkpt>
      <trkpt lat="42.643067" lon="-2.349050">
        <ele>1456.0</ele>
        <time>2013-06-22T13:14:53Z</time>
      </trkpt>
      <trkpt lat="42.643083" lon="-2.348933">
        <ele>1456.0</ele>
        <time>2013-06-22T13:14:54Z</time>
      </trkpt>
      <trkpt lat="42.643100" lon="-2.348817">
        <ele>1456.0</ele>
        <time>2013-06-22T13:14:55Z</time>
      </trkpt>
      <trkpt lat="42.643133" lon="-2.348700">
        <ele>1455.0</ele>
        <time>2013-06-22T13:14:56Z</time>
      </trkpt>
      <trkpt lat="42.643150" lon="-2.348583">
        <ele>1454.0</ele>
        <time>2013-06-22T13:14:57Z</time>
      </trkpt>
      <trkpt lat="42.643183" lon="-2.348450">
        <ele>1453.0</ele>
        <time>2013-06-22T13:14:58Z</time>
      </trkpt>
      <trkpt lat="42.643200" lon="-2.348317">
        <ele>1452.0</ele>
        <time>2013-06-22T13:14:59Z</time>
      </trkpt>
      <trkpt lat="42.643233" lon="-2.348200">
        <ele>1451.0</ele>
        <time>2013-06-22T13:15:00Z</time>
      </trkpt>
      <trkpt lat="42.643250" lon="-2.348083">
        <ele>1452.0</ele>
        <time>2013-06-22T13:15:01Z</time>
      </trkpt>
      <trkpt lat="42.643267" lon="-2.347967">
        <ele>1451.0</ele>
        <time>2013-06-22T13:15:02Z</time>
      </trkpt>
      <trkpt lat="42.643283" lon="-2.347833">
        <ele>1450.0</ele>
        <time>2013-06-22T13:15:03Z</time>
      </trkpt>
      <trkpt lat="42.643300" lon="-2.347700">
        <ele>1449.0</ele>
        <time>2013-06-22T13:15:04Z</time>
      </trkpt>
      <trkpt lat="42.643333" lon="-2.347567">
        <ele>1448.0</ele>
        <time>2013-06-22T13:15:05Z</time>
      </trkpt>
      <trkpt lat="42.643350" lon="-2.347433">
        <ele>1447.0</ele>
        <time>2013-06-22T13:15:06Z</time>
      </trkpt>
      <trkpt lat="42.643350" lon="-2.347317">
        <ele>1448.0</ele>
        <time>2013-06-22T13:15:07Z</time>
      </trkpt>
      <trkpt lat="42.643367" lon="-2.347200">
        <ele>1449.0</ele>
        <time>2013-06-22T13:15:08Z</time>
      </trkpt>
      <trkpt lat="42.643367" lon="-2.347083">
        <ele>1448.0</ele>
        <time>2013-06-22T13:15:09Z</time>
      </trkpt>
      <trkpt lat="42.643400" lon="-2.346950">
        <ele>1448.0</ele>
        <time>2013-06-22T13:15:10Z</time>
      </trkpt>
      <trkpt lat="42.643433" lon="-2.346833">
        <ele>1447.0</ele>
        <time>2013-06-22T13:15:11Z</time>
      </trkpt>
      <trkpt lat="42.643450" lon="-2.346700">
        <ele>1447.0</ele>
        <time>2013-06-22T13:15:12Z</time>
      </trkpt>
      <trkpt lat="42.643467" lon="-2.346600">
        <ele>1447.0</ele>
        <time>2013-06-22T13:15:13Z</time>
      </trkpt>
      <trkpt lat="42.643483" lon="-2.346483">
        <ele>1447.0</ele>
        <time>2013-06-22T13:15:14Z</time>
      </trkpt>
      <trkpt lat="42.643500" lon="-2.346367">
        <ele>1447.0</ele>
        <time>2013-06-22T13:15:15Z</time>
      </trkpt>
      <trkpt lat="42.643517" lon="-2.346250">
        <ele>1445.0</ele>
        <time>2013-06-22T13:15:16Z</time>
      </trkpt>
      <trkpt lat="42.643533" lon="-2.346117">
        <ele>1443.0</ele>
        <time>2013-06-22T13:15:17Z</time>
      </trkpt>
      <trkpt lat="42.643550" lon="-2.346000">
        <ele>1442.0</ele>
        <time>2013-06-22T13:15:18Z</time>
      </trkpt>
      <trkpt lat="42.643567" lon="-2.345883">
        <ele>1441.0</ele>
        <time>2013-06-22T13:15:19Z</time>
      </trkpt>
      <trkpt lat="42.643583" lon="-2.345783">
        <ele>1440.0</ele>
        <time>2013-06-22T13:15:20Z</time>
      </trkpt>
      <trkpt lat="42.643600" lon="-2.345683">
        <ele>1439.0</ele>
        <time>2013-06-22T13:15:21Z</time>
      </trkpt>
      <trkpt lat="42.643617" lon="-2.345567">
        <ele>1438.0</ele>
        <time>2013-06-22T13:15:22Z</time>
      </trkpt>
      <trkpt lat="42.643650" lon="-2.345467">
        <ele>1437.0</ele>
        <time>2013-06-22T13:15:23Z</time>
      </trkpt>
      <trkpt lat="42.643667" lon="-2.345350">
        <ele>1436.0</ele>
        <time>2013-06-22T13:15:24Z</time>
      </trkpt>
      <trkpt lat="42.643700" lon="-2.345250">
        <ele>1435.0</ele>
        <time>2013-06-22T13:15:25Z</time>
      </trkpt>
      <trkpt lat="42.643717" lon="-2.345150">
        <ele>1435.0</ele>
        <time>2013-06-22T13:15:26Z</time>
      </trkpt>
      <trkpt lat="42.643733" lon="-2.345050">
        <ele>1434.0</ele>
        <time>2013-06-22T13:15:27Z</time>
      </trkpt>
      <trkpt lat="42.643767" lon="-2.344950">
        <ele>1433.0</ele>
        <time>2013-06-22T13:15:28Z</time>
      </trkpt>
      <trkpt lat="42.643783" lon="-2.344850">
        <ele>1432.0</ele>
        <time>2013-06-22T13:15:29Z</time>
      </trkpt>
      <trkpt lat="42.643817" lon="-2.344733">
        <ele>1432.0</ele>
        <time>2013-06-22T13:15:30Z</time>
      </trkpt>
      <trkpt lat="42.643833" lon="-2.344633">
        <ele>1432.0</ele>
        <time>2013-06-22T13:15:31Z</time>
      </trkpt>
      <trkpt lat="42.643850" lon="-2.344533">
        <ele>1432.0</ele>
        <time>2013-06-22T13:15:32Z</time>
      </trkpt>
      <trkpt lat="42.643867" lon="-2.344417">
        <ele>1430.0</ele>
        <time>2013-06-22T13:15:33Z</time>
      </trkpt>
      <trkpt lat="42.643900" lon="-2.344283">
        <ele>1428.0</ele>
        <time>2013-06-22T13:15:34Z</time>
      </trkpt>
      <trkpt lat="42.643917" lon="-2.344167">
        <ele>1427.0</ele>
        <time>2013-06-22T13:15:35Z</time>
      </trkpt>
      <trkpt lat="42.643950" lon="-2.344050">
        <ele>1428.0</ele>
        <time>2013-06-22T13:15:36Z</time>
      </trkpt>
      <trkpt lat="42.643950" lon="-2.343950">
        <ele>1429.0</ele>
        <time>2013-06-22T13:15:37Z</time>
      </trkpt>
      <trkpt lat="42.643967" lon="-2.343850">
        <ele>1429.0</ele>
        <time>2013-06-22T13:15:38Z</time>
      </trkpt>
      <trkpt lat="42.643967" lon="-2.343733">
        <ele>1428.0</ele>
        <time>2013-06-22T13:15:39Z</time>
      </trkpt>
      <trkpt lat="42.643983" lon="-2.343617">
        <ele>1427.0</ele>
        <time>2013-06-22T13:15:40Z</time>
      </trkpt>
      <trkpt lat="42.644000" lon="-2.343483">
        <ele>1425.0</ele>
        <time>2013-06-22T13:15:41Z</time>
      </trkpt>
      <trkpt lat="42.644017" lon="-2.343367">
        <ele>1424.0</ele>
        <time>2013-06-22T13:15:42Z</time>
      </trkpt>
      <trkpt lat="42.644017" lon="-2.343250">
        <ele>1424.0</ele>
        <time>2013-06-22T13:15:43Z</time>
      </trkpt>
      <trkpt lat="42.644017" lon="-2.343133">
        <ele>1423.0</ele>
        <time>2013-06-22T13:15:44Z</time>
      </trkpt>
      <trkpt lat="42.644033" lon="-2.343033">
        <ele>1422.0</ele>
        <time>2013-06-22T13:15:45Z</time>
      </trkpt>
      <trkpt lat="42.644033" lon="-2.342917">
        <ele>1421.0</ele>
        <time>2013-06-22T13:15:46Z</time>
      </trkpt>
      <trkpt lat="42.644050" lon="-2.342800">
        <ele>1421.0</ele>
        <time>2013-06-22T13:15:47Z</time>
      </trkpt>
      <trkpt lat="42.644067" lon="-2.342667">
        <ele>1420.0</ele>
        <time>2013-06-22T13:15:48Z</time>
      </trkpt>
      <trkpt lat="42.644083" lon="-2.342567">
        <ele>1420.0</ele>
        <time>2013-06-22T13:15:49Z</time>
      </trkpt>
      <trkpt lat="42.644100" lon="-2.342450">
        <ele>1421.0</ele>
        <time>2013-06-22T13:15:50Z</time>
      </trkpt>
      <trkpt lat="42.644100" lon="-2.342350">
        <ele>1422.0</ele>
        <time>2013-06-22T13:15:51Z</time>
      </trkpt>
      <trkpt lat="42.644100" lon="-2.342233">
        <ele>1423.0</ele>
        <time>2013-06-22T13:15:52Z</time>
      </trkpt>
      <trkpt lat="42.644117" lon="-2.342117">
        <ele>1423.0</ele>
        <time>2013-06-22T13:15:53Z</time>
      </trkpt>
      <trkpt lat="42.644133" lon="-2.342000">
        <ele>1423.0</ele>
        <time>2013-06-22T13:15:54Z</time>
      </trkpt>
      <trkpt lat="42.644150" lon="-2.341883">
        <ele>1423.0</ele>
        <time>2013-06-22T13:15:55Z</time>
      </trkpt>
      <trkpt lat="42.644167" lon="-2.341783">
        <ele>1423.0</ele>
        <time>2013-06-22T13:15:56Z</time>
      </trkpt>
      <trkpt lat="42.644167" lon="-2.341683">
        <ele>1423.0</ele>
        <time>2013-06-22T13:15:57Z</time>
      </trkpt>
      <trkpt lat="42.644183" lon="-2.341583">
        <ele>1423.0</ele>
        <time>2013-06-22T13:15:58Z</time>
      </trkpt>
      <trkpt lat="42.644200" lon="-2.341450">
        <ele>1421.0</ele>
        <time>2013-06-22T13:15:59Z</time>
      </trkpt>
      <trkpt lat="42.644233" lon="-2.341333">
        <ele>1419.0</ele>
        <time>2013-06-22T13:16:00Z</time>
      </trkpt>
      <trkpt lat="42.644250" lon="-2.341183">
        <ele>1418.0</ele>
        <time>2013-06-22T13:16:01Z</time>
      </trkpt>
      <trkpt lat="42.644250" lon="-2.341050">
        <ele>1418.0</ele>
        <time>2013-06-22T13:16:02Z</time>
      </trkpt>
      <trkpt lat="42.644267" lon="-2.340933">
        <ele>1419.0</ele>
        <time>2013-06-22T13:16:03Z</time>
      </trkpt>
      <trkpt lat="42.644267" lon="-2.340833">
        <ele>1419.0</ele>
        <time>2013-06-22T13:16:04Z</time>
      </trkpt>
      <trkpt lat="42.644283" lon="-2.340717">
        <ele>1419.0</ele>
        <time>2013-06-22T13:16:05Z</time>
      </trkpt>
      <trkpt lat="42.644317" lon="-2.340617">
        <ele>1418.0</ele>
        <time>2013-06-22T13:16:06Z</time>
      </trkpt>
      <trkpt lat="42.644333" lon="-2.340517">
        <ele>1416.0</ele>
        <time>2013-06-22T13:16:07Z</time>
      </trkpt>
      <trkpt lat="42.644367" lon="-2.340417">
        <ele>1414.0</ele>
        <time>2013-06-22T13:16:08Z</time>
      </trkpt>
      <trkpt lat="42.644400" lon="-2.340317">
        <ele>1412.0</ele>
        <time>2013-06-22T13:16:09Z</time>
      </trkpt>
      <trkpt lat="42.644433" lon="-2.340217">
        <ele>1410.0</ele>
        <time>2013-06-22T13:16:10Z</time>
      </trkpt>
      <trkpt lat="42.644467" lon="-2.340117">
        <ele>1409.0</ele>
        <time>2013-06-22T13:16:11Z</time>
      </trkpt>
      <trkpt lat="42.644500" lon="-2.340017">
        <ele>1408.0</ele>
        <time>2013-06-22T13:16:12Z</time>
      </trkpt>
      <trkpt lat="42.644533" lon="-2.339917">
        <ele>1406.0</ele>
        <time>2013-06-22T13:16:13Z</time>
      </trkpt>
      <trkpt lat="42.644567" lon="-2.339817">
        <ele>1405.0</ele>
        <time>2013-06-22T13:16:14Z</time>
      </trkpt>
      <trkpt lat="42.644583" lon="-2.339717">
        <ele>1403.0</ele>
        <time>2013-06-22T13:16:15Z</time>
      </trkpt>
      <trkpt lat="42.644617" lon="-2.339617">
        <ele>1402.0</ele>
        <time>2013-06-22T13:16:16Z</time>
      </trkpt>
      <trkpt lat="42.644650" lon="-2.339500">
        <ele>1400.0</ele>
        <time>2013-06-22T13:16:17Z</time>
      </trkpt>
      <trkpt lat="42.644683" lon="-2.339400">
        <ele>1398.0</ele>
        <time>2013-06-22T13:16:18Z</time>
      </trkpt>
      <trkpt lat="42.644717" lon="-2.339283">
        <ele>1396.0</ele>
        <time>2013-06-22T13:16:19Z</time>
      </trkpt>
      <trkpt lat="42.644733" lon="-2.339150">
        <ele>1394.0</ele>
        <time>2013-06-22T13:16:20Z</time>
      </trkpt>
      <trkpt lat="42.644767" lon="-2.339033">
        <ele>1392.0</ele>
        <time>2013-06-22T13:16:21Z</time>
      </trkpt>
      <trkpt lat="42.644800" lon="-2.338917">
        <ele>1390.0</ele>
        <time>2013-06-22T13:16:22Z</time>
      </trkpt>
      <trkpt lat="42.644833" lon="-2.338800">
        <ele>1389.0</ele>
        <time>2013-06-22T13:16:23Z</time>
      </trkpt>
      <trkpt lat="42.644850" lon="-2.338683">
        <ele>1389.0</ele>
        <time>2013-06-22T13:16:24Z</time>
      </trkpt>
      <trkpt lat="42.644867" lon="-2.338583">
        <ele>1388.0</ele>
        <time>2013-06-22T13:16:25Z</time>
      </trkpt>
      <trkpt lat="42.644883" lon="-2.338483">
        <ele>1388.0</ele>
        <time>2013-06-22T13:16:26Z</time>
      </trkpt>
      <trkpt lat="42.644917" lon="-2.338383">
        <ele>1387.0</ele>
        <time>2013-06-22T13:16:27Z</time>
      </trkpt>
      <trkpt lat="42.644933" lon="-2.338267">
        <ele>1385.0</ele>
        <time>2013-06-22T13:16:28Z</time>
      </trkpt>
      <trkpt lat="42.644967" lon="-2.338150">
        <ele>1384.0</ele>
        <time>2013-06-22T13:16:29Z</time>
      </trkpt>
      <trkpt lat="42.644983" lon="-2.338050">
        <ele>1384.0</ele>
        <time>2013-06-22T13:16:30Z</time>
      </trkpt>
      <trkpt lat="42.645000" lon="-2.337950">
        <ele>1383.0</ele>
        <time>2013-06-22T13:16:31Z</time>
      </trkpt>
      <trkpt lat="42.645033" lon="-2.337833">
        <ele>1382.0</ele>
        <time>2013-06-22T13:16:32Z</time>
      </trkpt>
      <trkpt lat="42.645050" lon="-2.337733">
        <ele>1381.0</ele>
        <time>2013-06-22T13:16:33Z</time>
      </trkpt>
      <trkpt lat="42.645083" lon="-2.337617">
        <ele>1380.0</ele>
        <time>2013-06-22T13:16:34Z</time>
      </trkpt>
      <trkpt lat="42.645100" lon="-2.337517">
        <ele>1379.0</ele>
        <time>2013-06-22T13:16:35Z</time>
      </trkpt>
      <trkpt lat="42.645133" lon="-2.337450">
        <ele>1380.0</ele>
        <time>2013-06-22T13:16:36Z</time>
      </trkpt>
      <trkpt lat="42.645150" lon="-2.337367">
        <ele>1379.0</ele>
        <time>2013-06-22T13:16:37Z</time>
      </trkpt>
      <trkpt lat="42.645183" lon="-2.337283">
        <ele>1378.0</ele>
        <time>2013-06-22T13:16:38Z</time>
      </trkpt>
      <trkpt lat="42.645217" lon="-2.337200">
        <ele>1377.0</ele>
        <time>2013-06-22T13:16:39Z</time>
      </trkpt>
      <trkpt lat="42.645250" lon="-2.337117">
        <ele>1376.0</ele>
        <time>2013-06-22T13:16:40Z</time>
      </trkpt>
      <trkpt lat="42.645283" lon="-2.337033">
        <ele>1377.0</ele>
        <time>2013-06-22T13:16:41Z</time>
      </trkpt>
      <trkpt lat="42.645300" lon="-2.336967">
        <ele>1379.0</ele>
        <time>2013-06-22T13:16:42Z</time>
      </trkpt>
      <trkpt lat="42.645317" lon="-2.336917">
        <ele>1381.0</ele>
        <time>2013-06-22T13:16:43Z</time>
      </trkpt>
      <trkpt lat="42.645350" lon="-2.336850">
        <ele>1382.0</ele>
        <time>2013-06-22T13:16:44Z</time>
      </trkpt>
      <trkpt lat="42.645383" lon="-2.336800">
        <ele>1383.0</ele>
        <time>2013-06-22T13:16:45Z</time>
      </trkpt>
      <trkpt lat="42.645400" lon="-2.336750">
        <ele>1385.0</ele>
        <time>2013-06-22T13:16:46Z</time>
      </trkpt>
      <trkpt lat="42.645433" lon="-2.336700">
        <ele>1386.0</ele>
        <time>2013-06-22T13:16:47Z</time>
      </trkpt>
      <trkpt lat="42.645450" lon="-2.336650">
        <ele>1387.0</ele>
        <time>2013-06-22T13:16:48Z</time>
      </trkpt>
      <trkpt lat="42.645467" lon="-2.336600">
        <ele>1389.0</ele>
        <time>2013-06-22T13:16:49Z</time>
      </trkpt>
      <trkpt lat="42.645483" lon="-2.336550">
        <ele>1390.0</ele>
        <time>2013-06-22T13:16:50Z</time>
      </trkpt>
      <trkpt lat="42.645517" lon="-2.336500">
        <ele>1391.0</ele>
        <time>2013-06-22T13:16:51Z</time>
      </trkpt>
      <trkpt lat="42.645550" lon="-2.336467">
        <ele>1393.0</ele>
        <time>2013-06-22T13:16:52Z</time>
      </trkpt>
      <trkpt lat="42.645583" lon="-2.336417">
        <ele>1394.0</ele>
        <time>2013-06-22T13:16:53Z</time>
      </trkpt>
      <trkpt lat="42.645617" lon="-2.336383">
        <ele>1395.0</ele>
        <time>2013-06-22T13:16:54Z</time>
      </trkpt>
      <trkpt lat="42.645650" lon="-2.336333">
        <ele>1397.0</ele>
        <time>2013-06-22T13:16:55Z</time>
      </trkpt>
      <trkpt lat="42.645667" lon="-2.336300">
        <ele>1398.0</ele>
        <time>2013-06-22T13:16:56Z</time>
      </trkpt>
      <trkpt lat="42.645700" lon="-2.336267">
        <ele>1398.0</ele>
        <time>2013-06-22T13:16:57Z</time>
      </trkpt>
      <trkpt lat="42.645733" lon="-2.336233">
        <ele>1398.0</ele>
        <time>2013-06-22T13:16:58Z</time>
      </trkpt>
      <trkpt lat="42.645767" lon="-2.336167">
        <ele>1397.0</ele>
        <time>2013-06-22T13:16:59Z</time>
      </trkpt>
      <trkpt lat="42.645767" lon="-2.336067">
        <ele>1397.0</ele>
        <time>2013-06-22T13:17:00Z</time>
      </trkpt>
      <trkpt lat="42.645767" lon="-2.335967">
        <ele>1397.0</ele>
        <time>2013-06-22T13:17:01Z</time>
      </trkpt>
      <trkpt lat="42.645783" lon="-2.335850">
        <ele>1397.0</ele>
        <time>2013-06-22T13:17:02Z</time>
      </trkpt>
      <trkpt lat="42.645800" lon="-2.335767">
        <ele>1397.0</ele>
        <time>2013-06-22T13:17:03Z</time>
      </trkpt>
      <trkpt lat="42.645833" lon="-2.335683">
        <ele>1397.0</ele>
        <time>2013-06-22T13:17:04Z</time>
      </trkpt>
      <trkpt lat="42.645867" lon="-2.335617">
        <ele>1398.0</ele>
        <time>2013-06-22T13:17:05Z</time>
      </trkpt>
      <trkpt lat="42.645900" lon="-2.335550">
        <ele>1399.0</ele>
        <time>2013-06-22T13:17:06Z</time>
      </trkpt>
      <trkpt lat="42.645933" lon="-2.335483">
        <ele>1400.0</ele>
        <time>2013-06-22T13:17:07Z</time>
      </trkpt>
      <trkpt lat="42.645950" lon="-2.335400">
        <ele>1400.0</ele>
        <time>2013-06-22T13:17:08Z</time>
      </trkpt>
      <trkpt lat="42.645967" lon="-2.335333">
        <ele>1401.0</ele>
        <time>2013-06-22T13:17:09Z</time>
      </trkpt>
      <trkpt lat="42.646000" lon="-2.335267">
        <ele>1401.0</ele>
        <time>2013-06-22T13:17:10Z</time>
      </trkpt>
      <trkpt lat="42.646033" lon="-2.335200">
        <ele>1402.0</ele>
        <time>2013-06-22T13:17:11Z</time>
      </trkpt>
      <trkpt lat="42.646067" lon="-2.335133">
        <ele>1402.0</ele>
        <time>2013-06-22T13:17:12Z</time>
      </trkpt>
      <trkpt lat="42.646100" lon="-2.335050">
        <ele>1402.0</ele>
        <time>2013-06-22T13:17:13Z</time>
      </trkpt>
      <trkpt lat="42.646117" lon="-2.334983">
        <ele>1402.0</ele>
        <time>2013-06-22T13:17:14Z</time>
      </trkpt>
      <trkpt lat="42.646150" lon="-2.334900">
        <ele>1403.0</ele>
        <time>2013-06-22T13:17:15Z</time>
      </trkpt>
      <trkpt lat="42.646183" lon="-2.334833">
        <ele>1403.0</ele>
        <time>2013-06-22T13:17:16Z</time>
      </trkpt>
      <trkpt lat="42.646217" lon="-2.334750">
        <ele>1403.0</ele>
        <time>2013-06-22T13:17:17Z</time>
      </trkpt>
      <trkpt lat="42.646250" lon="-2.334667">
        <ele>1403.0</ele>
        <time>2013-06-22T13:17:18Z</time>
      </trkpt>
      <trkpt lat="42.646283" lon="-2.334583">
        <ele>1403.0</ele>
        <time>2013-06-22T13:17:19Z</time>
      </trkpt>
      <trkpt lat="42.646317" lon="-2.334483">
        <ele>1403.0</ele>
        <time>2013-06-22T13:17:20Z</time>
      </trkpt>
      <trkpt lat="42.646333" lon="-2.334400">
        <ele>1403.0</ele>
        <time>2013-06-22T13:17:21Z</time>
      </trkpt>
      <trkpt lat="42.646367" lon="-2.334317">
        <ele>1403.0</ele>
        <time>2013-06-22T13:17:22Z</time>
      </trkpt>
      <trkpt lat="42.646400" lon="-2.334233">
        <ele>1404.0</ele>
        <time>2013-06-22T13:17:23Z</time>
      </trkpt>
      <trkpt lat="42.646433" lon="-2.334133">
        <ele>1404.0</ele>
        <time>2013-06-22T13:17:24Z</time>
      </trkpt>
      <trkpt lat="42.646467" lon="-2.334050">
        <ele>1406.0</ele>
        <time>2013-06-22T13:17:25Z</time>
      </trkpt>
      <trkpt lat="42.646483" lon="-2.333950">
        <ele>1407.0</ele>
        <time>2013-06-22T13:17:26Z</time>
      </trkpt>
      <trkpt lat="42.646500" lon="-2.333867">
        <ele>1409.0</ele>
        <time>2013-06-22T13:17:27Z</time>
      </trkpt>
      <trkpt lat="42.646533" lon="-2.333783">
        <ele>1410.0</ele>
        <time>2013-06-22T13:17:28Z</time>
      </trkpt>
      <trkpt lat="42.646550" lon="-2.333683">
        <ele>1411.0</ele>
        <time>2013-06-22T13:17:29Z</time>
      </trkpt>
      <trkpt lat="42.646583" lon="-2.333600">
        <ele>1412.0</ele>
        <time>2013-06-22T13:17:30Z</time>
      </trkpt>
      <trkpt lat="42.646600" lon="-2.333517">
        <ele>1412.0</ele>
        <time>2013-06-22T13:17:31Z</time>
      </trkpt>
      <trkpt lat="42.646617" lon="-2.333417">
        <ele>1413.0</ele>
        <time>2013-06-22T13:17:32Z</time>
      </trkpt>
      <trkpt lat="42.646633" lon="-2.333317">
        <ele>1413.0</ele>
        <time>2013-06-22T13:17:33Z</time>
      </trkpt>
      <trkpt lat="42.646667" lon="-2.333217">
        <ele>1413.0</ele>
        <time>2013-06-22T13:17:34Z</time>
      </trkpt>
      <trkpt lat="42.646683" lon="-2.333117">
        <ele>1413.0</ele>
        <time>2013-06-22T13:17:35Z</time>
      </trkpt>
      <trkpt lat="42.646717" lon="-2.333017">
        <ele>1413.0</ele>
        <time>2013-06-22T13:17:36Z</time>
      </trkpt>
      <trkpt lat="42.646733" lon="-2.332933">
        <ele>1413.0</ele>
        <time>2013-06-22T13:17:37Z</time>
      </trkpt>
      <trkpt lat="42.646750" lon="-2.332833">
        <ele>1413.0</ele>
        <time>2013-06-22T13:17:38Z</time>
      </trkpt>
      <trkpt lat="42.646767" lon="-2.332733">
        <ele>1413.0</ele>
        <time>2013-06-22T13:17:39Z</time>
      </trkpt>
      <trkpt lat="42.646800" lon="-2.332633">
        <ele>1413.0</ele>
        <time>2013-06-22T13:17:40Z</time>
      </trkpt>
      <trkpt lat="42.646817" lon="-2.332533">
        <ele>1414.0</ele>
        <time>2013-06-22T13:17:41Z</time>
      </trkpt>
      <trkpt lat="42.646833" lon="-2.332450">
        <ele>1414.0</ele>
        <time>2013-06-22T13:17:42Z</time>
      </trkpt>
      <trkpt lat="42.646833" lon="-2.332350">
        <ele>1414.0</ele>
        <time>2013-06-22T13:17:43Z</time>
      </trkpt>
      <trkpt lat="42.646850" lon="-2.332250">
        <ele>1414.0</ele>
        <time>2013-06-22T13:17:44Z</time>
      </trkpt>
      <trkpt lat="42.646867" lon="-2.332150">
        <ele>1414.0</ele>
        <time>2013-06-22T13:17:45Z</time>
      </trkpt>
      <trkpt lat="42.646883" lon="-2.332033">
        <ele>1414.0</ele>
        <time>2013-06-22T13:17:46Z</time>
      </trkpt>
      <trkpt lat="42.646900" lon="-2.331950">
        <ele>1414.0</ele>
        <time>2013-06-22T13:17:47Z</time>
      </trkpt>
      <trkpt lat="42.646917" lon="-2.331850">
        <ele>1414.0</ele>
        <time>2013-06-22T13:17:48Z</time>
      </trkpt>
      <trkpt lat="42.646933" lon="-2.331750">
        <ele>1414.0</ele>
        <time>2013-06-22T13:17:49Z</time>
      </trkpt>
      <trkpt lat="42.646950" lon="-2.331650">
        <ele>1413.0</ele>
        <time>2013-06-22T13:17:50Z</time>
      </trkpt>
      <trkpt lat="42.646983" lon="-2.331550">
        <ele>1412.0</ele>
        <time>2013-06-22T13:17:51Z</time>
      </trkpt>
      <trkpt lat="42.647000" lon="-2.331433">
        <ele>1410.0</ele>
        <time>2013-06-22T13:17:52Z</time>
      </trkpt>
      <trkpt lat="42.647050" lon="-2.331333">
        <ele>1409.0</ele>
        <time>2013-06-22T13:17:53Z</time>
      </trkpt>
      <trkpt lat="42.647083" lon="-2.331233">
        <ele>1408.0</ele>
        <time>2013-06-22T13:17:54Z</time>
      </trkpt>
      <trkpt lat="42.647117" lon="-2.331133">
        <ele>1407.0</ele>
        <time>2013-06-22T13:17:55Z</time>
      </trkpt>
      <trkpt lat="42.647133" lon="-2.331033">
        <ele>1408.0</ele>
        <time>2013-06-22T13:17:56Z</time>
      </trkpt>
      <trkpt lat="42.647150" lon="-2.330933">
        <ele>1407.0</ele>
        <time>2013-06-22T13:17:57Z</time>
      </trkpt>
      <trkpt lat="42.647183" lon="-2.330833">
        <ele>1407.0</ele>
        <time>2013-06-22T13:17:58Z</time>
      </trkpt>
      <trkpt lat="42.647217" lon="-2.330717">
        <ele>1405.0</ele>
        <time>2013-06-22T13:17:59Z</time>
      </trkpt>
      <trkpt lat="42.647233" lon="-2.330600">
        <ele>1404.0</ele>
        <time>2013-06-22T13:18:00Z</time>
      </trkpt>
      <trkpt lat="42.647267" lon="-2.330500">
        <ele>1403.0</ele>
        <time>2013-06-22T13:18:01Z</time>
      </trkpt>
      <trkpt lat="42.647283" lon="-2.330383">
        <ele>1402.0</ele>
        <time>2013-06-22T13:18:02Z</time>
      </trkpt>
      <trkpt lat="42.647300" lon="-2.330283">
        <ele>1402.0</ele>
        <time>2013-06-22T13:18:03Z</time>
      </trkpt>
      <trkpt lat="42.647333" lon="-2.330183">
        <ele>1401.0</ele>
        <time>2013-06-22T13:18:04Z</time>
      </trkpt>
      <trkpt lat="42.647367" lon="-2.330083">
        <ele>1400.0</ele>
        <time>2013-06-22T13:18:05Z</time>
      </trkpt>
      <trkpt lat="42.647400" lon="-2.329983">
        <ele>1399.0</ele>
        <time>2013-06-22T13:18:06Z</time>
      </trkpt>
      <trkpt lat="42.647417" lon="-2.329883">
        <ele>1398.0</ele>
        <time>2013-06-22T13:18:07Z</time>
      </trkpt>
      <trkpt lat="42.647450" lon="-2.329783">
        <ele>1397.0</ele>
        <time>2013-06-22T13:18:08Z</time>
      </trkpt>
      <trkpt lat="42.647483" lon="-2.329683">
        <ele>1396.0</ele>
        <time>2013-06-22T13:18:09Z</time>
      </trkpt>
      <trkpt lat="42.647517" lon="-2.329600">
        <ele>1395.0</ele>
        <time>2013-06-22T13:18:10Z</time>
      </trkpt>
      <trkpt lat="42.647550" lon="-2.329517">
        <ele>1393.0</ele>
        <time>2013-06-22T13:18:11Z</time>
      </trkpt>
      <trkpt lat="42.647583" lon="-2.329433">
        <ele>1391.0</ele>
        <time>2013-06-22T13:18:12Z</time>
      </trkpt>
      <trkpt lat="42.647633" lon="-2.329333">
        <ele>1389.0</ele>
        <time>2013-06-22T13:18:13Z</time>
      </trkpt>
      <trkpt lat="42.647667" lon="-2.329250">
        <ele>1387.0</ele>
        <time>2013-06-22T13:18:14Z</time>
      </trkpt>
      <trkpt lat="42.647700" lon="-2.329150">
        <ele>1386.0</ele>
        <time>2013-06-22T13:18:15Z</time>
      </trkpt>
      <trkpt lat="42.647733" lon="-2.329050">
        <ele>1384.0</ele>
        <time>2013-06-22T13:18:16Z</time>
      </trkpt>
      <trkpt lat="42.647767" lon="-2.328967">
        <ele>1383.0</ele>
        <time>2013-06-22T13:18:17Z</time>
      </trkpt>
      <trkpt lat="42.647800" lon="-2.328883">
        <ele>1381.0</ele>
        <time>2013-06-22T13:18:18Z</time>
      </trkpt>
      <trkpt lat="42.647850" lon="-2.328783">
        <ele>1378.0</ele>
        <time>2013-06-22T13:18:19Z</time>
      </trkpt>
      <trkpt lat="42.647883" lon="-2.328700">
        <ele>1376.0</ele>
        <time>2013-06-22T13:18:20Z</time>
      </trkpt>
      <trkpt lat="42.647933" lon="-2.328633">
        <ele>1374.0</ele>
        <time>2013-06-22T13:18:21Z</time>
      </trkpt>
      <trkpt lat="42.647983" lon="-2.328550">
        <ele>1373.0</ele>
        <time>2013-06-22T13:18:22Z</time>
      </trkpt>
      <trkpt lat="42.648017" lon="-2.328483">
        <ele>1372.0</ele>
        <time>2013-06-22T13:18:23Z</time>
      </trkpt>
      <trkpt lat="42.648050" lon="-2.328433">
        <ele>1371.0</ele>
        <time>2013-06-22T13:18:24Z</time>
      </trkpt>
      <trkpt lat="42.648100" lon="-2.328367">
        <ele>1369.0</ele>
        <time>2013-06-22T13:18:25Z</time>
      </trkpt>
      <trkpt lat="42.648150" lon="-2.328317">
        <ele>1368.0</ele>
        <time>2013-06-22T13:18:26Z</time>
      </trkpt>
      <trkpt lat="42.648200" lon="-2.328267">
        <ele>1366.0</ele>
        <time>2013-06-22T13:18:27Z</time>
      </trkpt>
      <trkpt lat="42.648250" lon="-2.328217">
        <ele>1365.0</ele>
        <time>2013-06-22T13:18:28Z</time>
      </trkpt>
      <trkpt lat="42.648283" lon="-2.328167">
        <ele>1364.0</ele>
        <time>2013-06-22T13:18:29Z</time>
      </trkpt>
      <trkpt lat="42.648333" lon="-2.328117">
        <ele>1363.0</ele>
        <time>2013-06-22T13:18:30Z</time>
      </trkpt>
      <trkpt lat="42.648383" lon="-2.328067">
        <ele>1363.0</ele>
        <time>2013-06-22T13:18:31Z</time>
      </trkpt>
      <trkpt lat="42.648433" lon="-2.328033">
        <ele>1363.0</ele>
        <time>2013-06-22T13:18:32Z</time>
      </trkpt>
      <trkpt lat="42.648483" lon="-2.328000">
        <ele>1363.0</ele>
        <time>2013-06-22T13:18:33Z</time>
      </trkpt>
      <trkpt lat="42.648533" lon="-2.327967">
        <ele>1363.0</ele>
        <time>2013-06-22T13:18:34Z</time>
      </trkpt>
      <trkpt lat="42.648583" lon="-2.327933">
        <ele>1362.0</ele>
        <time>2013-06-22T13:18:35Z</time>
      </trkpt>
      <trkpt lat="42.648633" lon="-2.327900">
        <ele>1361.0</ele>
        <time>2013-06-22T13:18:36Z</time>
      </trkpt>
      <trkpt lat="42.648700" lon="-2.327883">
        <ele>1361.0</ele>
        <time>2013-06-22T13:18:37Z</time>
      </trkpt>
      <trkpt lat="42.648750" lon="-2.327850">
        <ele>1360.0</ele>
        <time>2013-06-22T13:18:38Z</time>
      </trkpt>
      <trkpt lat="42.648800" lon="-2.327817">
        <ele>1360.0</ele>
        <time>2013-06-22T13:18:39Z</time>
      </trkpt>
      <trkpt lat="42.648850" lon="-2.327783">
        <ele>1360.0</ele>
        <time>2013-06-22T13:18:40Z</time>
      </trkpt>
      <trkpt lat="42.648900" lon="-2.327750">
        <ele>1359.0</ele>
        <time>2013-06-22T13:18:41Z</time>
      </trkpt>
      <trkpt lat="42.648950" lon="-2.327700">
        <ele>1358.0</ele>
        <time>2013-06-22T13:18:42Z</time>
      </trkpt>
      <trkpt lat="42.649017" lon="-2.327667">
        <ele>1357.0</ele>
        <time>2013-06-22T13:18:43Z</time>
      </trkpt>
      <trkpt lat="42.649067" lon="-2.327617">
        <ele>1355.0</ele>
        <time>2013-06-22T13:18:44Z</time>
      </trkpt>
      <trkpt lat="42.649133" lon="-2.327550">
        <ele>1354.0</ele>
        <time>2013-06-22T13:18:45Z</time>
      </trkpt>
      <trkpt lat="42.649183" lon="-2.327500">
        <ele>1354.0</ele>
        <time>2013-06-22T13:18:46Z</time>
      </trkpt>
      <trkpt lat="42.649250" lon="-2.327450">
        <ele>1353.0</ele>
        <time>2013-06-22T13:18:47Z</time>
      </trkpt>
      <trkpt lat="42.649300" lon="-2.327400">
        <ele>1354.0</ele>
        <time>2013-06-22T13:18:48Z</time>
      </trkpt>
      <trkpt lat="42.649333" lon="-2.327367">
        <ele>1355.0</ele>
        <time>2013-06-22T13:18:49Z</time>
      </trkpt>
      <trkpt lat="42.649383" lon="-2.327333">
        <ele>1355.0</ele>
        <time>2013-06-22T13:18:50Z</time>
      </trkpt>
      <trkpt lat="42.649417" lon="-2.327300">
        <ele>1355.0</ele>
        <time>2013-06-22T13:18:51Z</time>
      </trkpt>
      <trkpt lat="42.649467" lon="-2.327283">
        <ele>1354.0</ele>
        <time>2013-06-22T13:18:52Z</time>
      </trkpt>
      <trkpt lat="42.649517" lon="-2.327233">
        <ele>1353.0</ele>
        <time>2013-06-22T13:18:53Z</time>
      </trkpt>
      <trkpt lat="42.649550" lon="-2.327200">
        <ele>1353.0</ele>
        <time>2013-06-22T13:18:54Z</time>
      </trkpt>
      <trkpt lat="42.649583" lon="-2.327150">
        <ele>1354.0</ele>
        <time>2013-06-22T13:18:55Z</time>
      </trkpt>
      <trkpt lat="42.649617" lon="-2.327133">
        <ele>1354.0</ele>
        <time>2013-06-22T13:18:56Z</time>
      </trkpt>
      <trkpt lat="42.649650" lon="-2.327100">
        <ele>1354.0</ele>
        <time>2013-06-22T13:18:57Z</time>
      </trkpt>
      <trkpt lat="42.649700" lon="-2.327067">
        <ele>1353.0</ele>
        <time>2013-06-22T13:18:58Z</time>
      </trkpt>
      <trkpt lat="42.649733" lon="-2.327033">
        <ele>1352.0</ele>
        <time>2013-06-22T13:18:59Z</time>
      </trkpt>
      <trkpt lat="42.649783" lon="-2.327000">
        <ele>1352.0</ele>
        <time>2013-06-22T13:19:00Z</time>
      </trkpt>
      <trkpt lat="42.649833" lon="-2.326967">
        <ele>1352.0</ele>
        <time>2013-06-22T13:19:01Z</time>
      </trkpt>
      <trkpt lat="42.649867" lon="-2.326933">
        <ele>1352.0</ele>
        <time>2013-06-22T13:19:02Z</time>
      </trkpt>
      <trkpt lat="42.649917" lon="-2.326900">
        <ele>1352.0</ele>
        <time>2013-06-22T13:19:03Z</time>
      </trkpt>
      <trkpt lat="42.649950" lon="-2.326867">
        <ele>1352.0</ele>
        <time>2013-06-22T13:19:04Z</time>
      </trkpt>
      <trkpt lat="42.650000" lon="-2.326833">
        <ele>1352.0</ele>
        <time>2013-06-22T13:19:05Z</time>
      </trkpt>
      <trkpt lat="42.650033" lon="-2.326783">
        <ele>1351.0</ele>
        <time>2013-06-22T13:19:06Z</time>
      </trkpt>
      <trkpt lat="42.650083" lon="-2.326750">
        <ele>1351.0</ele>
        <time>2013-06-22T13:19:07Z</time>
      </trkpt>
      <trkpt lat="42.650117" lon="-2.326700">
        <ele>1351.0</ele>
        <time>2013-06-22T13:19:08Z</time>
      </trkpt>
      <trkpt lat="42.650167" lon="-2.326650">
        <ele>1351.0</ele>
        <time>2013-06-22T13:19:09Z</time>
      </trkpt>
      <trkpt lat="42.650200" lon="-2.326583">
        <ele>1352.0</ele>
        <time>2013-06-22T13:19:10Z</time>
      </trkpt>
      <trkpt lat="42.650250" lon="-2.326517">
        <ele>1352.0</ele>
        <time>2013-06-22T13:19:11Z</time>
      </trkpt>
      <trkpt lat="42.650300" lon="-2.326467">
        <ele>1352.0</ele>
        <time>2013-06-22T13:19:12Z</time>
      </trkpt>
      <trkpt lat="42.650333" lon="-2.326400">
        <ele>1353.0</ele>
        <time>2013-06-22T13:19:13Z</time>
      </trkpt>
      <trkpt lat="42.650383" lon="-2.326350">
        <ele>1354.0</ele>
        <time>2013-06-22T13:19:14Z</time>
      </trkpt>
      <trkpt lat="42.650433" lon="-2.326300">
        <ele>1355.0</ele>
        <time>2013-06-22T13:19:15Z</time>
      </trkpt>
      <trkpt lat="42.650483" lon="-2.326233">
        <ele>1356.0</ele>
        <time>2013-06-22T13:19:16Z</time>
      </trkpt>
      <trkpt lat="42.650533" lon="-2.326167">
        <ele>1357.0</ele>
        <time>2013-06-22T13:19:17Z</time>
      </trkpt>
      <trkpt lat="42.650583" lon="-2.326117">
        <ele>1358.0</ele>
        <time>2013-06-22T13:19:18Z</time>
      </trkpt>
      <trkpt lat="42.650633" lon="-2.326083">
        <ele>1361.0</ele>
        <time>2013-06-22T13:19:19Z</time>
      </trkpt>
      <trkpt lat="42.650667" lon="-2.326050">
        <ele>1363.0</ele>
        <time>2013-06-22T13:19:20Z</time>
      </trkpt>
      <trkpt lat="42.650700" lon="-2.326017">
        <ele>1365.0</ele>
        <time>2013-06-22T13:19:21Z</time>
      </trkpt>
      <trkpt lat="42.650750" lon="-2.325983">
        <ele>1367.0</ele>
        <time>2013-06-22T13:19:22Z</time>
      </trkpt>
      <trkpt lat="42.650783" lon="-2.325950">
        <ele>1367.0</ele>
        <time>2013-06-22T13:19:23Z</time>
      </trkpt>
      <trkpt lat="42.650817" lon="-2.325917">
        <ele>1368.0</ele>
        <time>2013-06-22T13:19:24Z</time>
      </trkpt>
      <trkpt lat="42.650867" lon="-2.325850">
        <ele>1368.0</ele>
        <time>2013-06-22T13:19:25Z</time>
      </trkpt>
      <trkpt lat="42.650900" lon="-2.325783">
        <ele>1368.0</ele>
        <time>2013-06-22T13:19:26Z</time>
      </trkpt>
      <trkpt lat="42.650950" lon="-2.325700">
        <ele>1369.0</ele>
        <time>2013-06-22T13:19:27Z</time>
      </trkpt>
      <trkpt lat="42.650983" lon="-2.325617">
        <ele>1371.0</ele>
        <time>2013-06-22T13:19:28Z</time>
      </trkpt>
      <trkpt lat="42.651017" lon="-2.325567">
        <ele>1373.0</ele>
        <time>2013-06-22T13:19:29Z</time>
      </trkpt>
      <trkpt lat="42.651050" lon="-2.325533">
        <ele>1374.0</ele>
        <time>2013-06-22T13:19:30Z</time>
      </trkpt>
      <trkpt lat="42.651100" lon="-2.325500">
        <ele>1375.0</ele>
        <time>2013-06-22T13:19:31Z</time>
      </trkpt>
      <trkpt lat="42.651150" lon="-2.325467">
        <ele>1374.0</ele>
        <time>2013-06-22T13:19:32Z</time>
      </trkpt>
      <trkpt lat="42.651200" lon="-2.325433">
        <ele>1374.0</ele>
        <time>2013-06-22T13:19:33Z</time>
      </trkpt>
      <trkpt lat="42.651250" lon="-2.325417">
        <ele>1375.0</ele>
        <time>2013-06-22T13:19:34Z</time>
      </trkpt>
      <trkpt lat="42.651283" lon="-2.325383">
        <ele>1376.0</ele>
        <time>2013-06-22T13:19:35Z</time>
      </trkpt>
      <trkpt lat="42.651333" lon="-2.325367">
        <ele>1377.0</ele>
        <time>2013-06-22T13:19:36Z</time>
      </trkpt>
      <trkpt lat="42.651367" lon="-2.325333">
        <ele>1378.0</ele>
        <time>2013-06-22T13:19:37Z</time>
      </trkpt>
      <trkpt lat="42.651417" lon="-2.325300">
        <ele>1378.0</ele>
        <time>2013-06-22T13:19:38Z</time>
      </trkpt>
      <trkpt lat="42.651433" lon="-2.325267">
        <ele>1378.0</ele>
        <time>2013-06-22T13:19:39Z</time>
      </trkpt>
      <trkpt lat="42.651483" lon="-2.325233">
        <ele>1378.0</ele>
        <time>2013-06-22T13:19:40Z</time>
      </trkpt>
      <trkpt lat="42.651517" lon="-2.325183">
        <ele>1378.0</ele>
        <time>2013-06-22T13:19:41Z</time>
      </trkpt>
      <trkpt lat="42.651533" lon="-2.325083">
        <ele>1377.0</ele>
        <time>2013-06-22T13:19:42Z</time>
      </trkpt>
      <trkpt lat="42.651533" lon="-2.324950">
        <ele>1377.0</ele>
        <time>2013-06-22T13:19:43Z</time>
      </trkpt>
      <trkpt lat="42.651483" lon="-2.324817">
        <ele>1376.0</ele>
        <time>2013-06-22T13:19:44Z</time>
      </trkpt>
      <trkpt lat="42.651383" lon="-2.324700">
        <ele>1376.0</ele>
        <time>2013-06-22T13:19:45Z</time>
      </trkpt>
      <trkpt lat="42.651250" lon="-2.324633">
        <ele>1375.0</ele>
        <time>2013-06-22T13:19:46Z</time>
      </trkpt>
      <trkpt lat="42.651117" lon="-2.324667">
        <ele>1374.0</ele>
        <time>2013-06-22T13:19:47Z</time>
      </trkpt>
      <trkpt lat="42.651000" lon="-2.324767">
        <ele>1372.0</ele>
        <time>2013-06-22T13:19:48Z</time>
      </trkpt>
      <trkpt lat="42.650917" lon="-2.324850">
        <ele>1371.0</ele>
        <time>2013-06-22T13:19:49Z</time>
      </trkpt>
      <trkpt lat="42.650833" lon="-2.324933">
        <ele>1372.0</ele>
        <time>2013-06-22T13:19:50Z</time>
      </trkpt>
      <trkpt lat="42.650783" lon="-2.324983">
        <ele>1373.0</ele>
        <time>2013-06-22T13:19:51Z</time>
      </trkpt>
      <trkpt lat="42.650717" lon="-2.325067">
        <ele>1373.0</ele>
        <time>2013-06-22T13:19:52Z</time>
      </trkpt>
      <trkpt lat="42.650667" lon="-2.325167">
        <ele>1373.0</ele>
        <time>2013-06-22T13:19:53Z</time>
      </trkpt>
      <trkpt lat="42.650650" lon="-2.325283">
        <ele>1372.0</ele>
        <time>2013-06-22T13:19:54Z</time>
      </trkpt>
      <trkpt lat="42.650650" lon="-2.325383">
        <ele>1371.0</ele>
        <time>2013-06-22T13:19:55Z</time>
      </trkpt>
      <trkpt lat="42.650667" lon="-2.325433">
        <ele>1372.0</ele>
        <time>2013-06-22T13:19:56Z</time>
      </trkpt>
      <trkpt lat="42.650683" lon="-2.325450">
        <ele>1372.0</ele>
        <time>2013-06-22T13:19:57Z</time>
      </trkpt>
      <trkpt lat="42.650683" lon="-2.325450">
        <ele>1372.0</ele>
        <time>2013-06-22T13:19:58Z</time>
      </trkpt>
      <trkpt lat="42.650717" lon="-2.325450">
        <ele>1373.0</ele>
        <time>2013-06-22T13:19:59Z</time>
      </trkpt>
      <trkpt lat="42.650750" lon="-2.325450">
        <ele>1373.0</ele>
        <time>2013-06-22T13:20:00Z</time>
      </trkpt>
      <trkpt lat="42.650800" lon="-2.325450">
        <ele>1373.0</ele>
        <time>2013-06-22T13:20:01Z</time>
      </trkpt>
      <trkpt lat="42.650850" lon="-2.325433">
        <ele>1372.0</ele>
        <time>2013-06-22T13:20:02Z</time>
      </trkpt>
      <trkpt lat="42.650883" lon="-2.325400">
        <ele>1372.0</ele>
        <time>2013-06-22T13:20:03Z</time>
      </trkpt>
      <trkpt lat="42.650900" lon="-2.325383">
        <ele>1372.0</ele>
        <time>2013-06-22T13:20:04Z</time>
      </trkpt>
      <trkpt lat="42.650917" lon="-2.325367">
        <ele>1372.0</ele>
        <time>2013-06-22T13:20:05Z</time>
      </trkpt>
      <trkpt lat="42.650950" lon="-2.325350">
        <ele>1372.0</ele>
        <time>2013-06-22T13:20:06Z</time>
      </trkpt>
      <trkpt lat="42.650983" lon="-2.325317">
        <ele>1371.0</ele>
        <time>2013-06-22T13:20:07Z</time>
      </trkpt>
      <trkpt lat="42.651033" lon="-2.325283">
        <ele>1369.0</ele>
        <time>2013-06-22T13:20:08Z</time>
      </trkpt>
      <trkpt lat="42.651067" lon="-2.325233">
        <ele>1368.0</ele>
        <time>2013-06-22T13:20:09Z</time>
      </trkpt>
      <trkpt lat="42.651117" lon="-2.325200">
        <ele>1367.0</ele>
        <time>2013-06-22T13:20:10Z</time>
      </trkpt>
      <trkpt lat="42.651150" lon="-2.325150">
        <ele>1367.0</ele>
        <time>2013-06-22T13:20:11Z</time>
      </trkpt>
      <trkpt lat="42.651183" lon="-2.325117">
        <ele>1366.0</ele>
        <time>2013-06-22T13:20:12Z</time>
      </trkpt>
      <trkpt lat="42.651217" lon="-2.325050">
        <ele>1365.0</ele>
        <time>2013-06-22T13:20:13Z</time>
      </trkpt>
      <trkpt lat="42.651267" lon="-2.325000">
        <ele>1364.0</ele>
        <time>2013-06-22T13:20:14Z</time>
      </trkpt>
      <trkpt lat="42.651300" lon="-2.324933">
        <ele>1363.0</ele>
        <time>2013-06-22T13:20:15Z</time>
      </trkpt>
      <trkpt lat="42.651350" lon="-2.324883">
        <ele>1362.0</ele>
        <time>2013-06-22T13:20:16Z</time>
      </trkpt>
      <trkpt lat="42.651383" lon="-2.324833">
        <ele>1361.0</ele>
        <time>2013-06-22T13:20:17Z</time>
      </trkpt>
      <trkpt lat="42.651433" lon="-2.324767">
        <ele>1360.0</ele>
        <time>2013-06-22T13:20:18Z</time>
      </trkpt>
      <trkpt lat="42.651467" lon="-2.324700">
        <ele>1360.0</ele>
        <time>2013-06-22T13:20:19Z</time>
      </trkpt>
      <trkpt lat="42.651500" lon="-2.324633">
        <ele>1359.0</ele>
        <time>2013-06-22T13:20:20Z</time>
      </trkpt>
      <trkpt lat="42.651533" lon="-2.324567">
        <ele>1358.0</ele>
        <time>2013-06-22T13:20:21Z</time>
      </trkpt>
      <trkpt lat="42.651567" lon="-2.324483">
        <ele>1358.0</ele>
        <time>2013-06-22T13:20:22Z</time>
      </trkpt>
      <trkpt lat="42.651600" lon="-2.324400">
        <ele>1358.0</ele>
        <time>2013-06-22T13:20:23Z</time>
      </trkpt>
      <trkpt lat="42.651633" lon="-2.324317">
        <ele>1358.0</ele>
        <time>2013-06-22T13:20:24Z</time>
      </trkpt>
      <trkpt lat="42.651667" lon="-2.324250">
        <ele>1358.0</ele>
        <time>2013-06-22T13:20:25Z</time>
      </trkpt>
      <trkpt lat="42.651700" lon="-2.324167">
        <ele>1357.0</ele>
        <time>2013-06-22T13:20:26Z</time>
      </trkpt>
      <trkpt lat="42.651733" lon="-2.324083">
        <ele>1357.0</ele>
        <time>2013-06-22T13:20:27Z</time>
      </trkpt>
      <trkpt lat="42.651767" lon="-2.324000">
        <ele>1357.0</ele>
        <time>2013-06-22T13:20:28Z</time>
      </trkpt>
      <trkpt lat="42.651800" lon="-2.323917">
        <ele>1357.0</ele>
        <time>2013-06-22T13:20:29Z</time>
      </trkpt>
      <trkpt lat="42.651817" lon="-2.323833">
        <ele>1357.0</ele>
        <time>2013-06-22T13:20:30Z</time>
      </trkpt>
      <trkpt lat="42.651850" lon="-2.323767">
        <ele>1357.0</ele>
        <time>2013-06-22T13:20:31Z</time>
      </trkpt>
      <trkpt lat="42.651883" lon="-2.323683">
        <ele>1356.0</ele>
        <time>2013-06-22T13:20:32Z</time>
      </trkpt>
      <trkpt lat="42.651917" lon="-2.323600">
        <ele>1355.0</ele>
        <time>2013-06-22T13:20:33Z</time>
      </trkpt>
      <trkpt lat="42.651950" lon="-2.323517">
        <ele>1355.0</ele>
        <time>2013-06-22T13:20:34Z</time>
      </trkpt>
      <trkpt lat="42.651983" lon="-2.323450">
        <ele>1355.0</ele>
        <time>2013-06-22T13:20:35Z</time>
      </trkpt>
      <trkpt lat="42.652000" lon="-2.323383">
        <ele>1355.0</ele>
        <time>2013-06-22T13:20:36Z</time>
      </trkpt>
      <trkpt lat="42.652033" lon="-2.323300">
        <ele>1354.0</ele>
        <time>2013-06-22T13:20:37Z</time>
      </trkpt>
      <trkpt lat="42.652067" lon="-2.323233">
        <ele>1355.0</ele>
        <time>2013-06-22T13:20:38Z</time>
      </trkpt>
      <trkpt lat="42.652100" lon="-2.323150">
        <ele>1355.0</ele>
        <time>2013-06-22T13:20:39Z</time>
      </trkpt>
      <trkpt lat="42.652117" lon="-2.323067">
        <ele>1355.0</ele>
        <time>2013-06-22T13:20:40Z</time>
      </trkpt>
      <trkpt lat="42.652133" lon="-2.322983">
        <ele>1355.0</ele>
        <time>2013-06-22T13:20:41Z</time>
      </trkpt>
      <trkpt lat="42.652167" lon="-2.322933">
        <ele>1354.0</ele>
        <time>2013-06-22T13:20:42Z</time>
      </trkpt>
      <trkpt lat="42.652200" lon="-2.322867">
        <ele>1353.0</ele>
        <time>2013-06-22T13:20:43Z</time>
      </trkpt>
      <trkpt lat="42.652233" lon="-2.322817">
        <ele>1353.0</ele>
        <time>2013-06-22T13:20:44Z</time>
      </trkpt>
      <trkpt lat="42.652267" lon="-2.322750">
        <ele>1353.0</ele>
        <time>2013-06-22T13:20:45Z</time>
      </trkpt>
      <trkpt lat="42.652300" lon="-2.322683">
        <ele>1353.0</ele>
        <time>2013-06-22T13:20:46Z</time>
      </trkpt>
      <trkpt lat="42.652350" lon="-2.322617">
        <ele>1352.0</ele>
        <time>2013-06-22T13:20:47Z</time>
      </trkpt>
      <trkpt lat="42.652383" lon="-2.322567">
        <ele>1352.0</ele>
        <time>2013-06-22T13:20:48Z</time>
      </trkpt>
      <trkpt lat="42.652417" lon="-2.322517">
        <ele>1352.0</ele>
        <time>2013-06-22T13:20:49Z</time>
      </trkpt>
      <trkpt lat="42.652450" lon="-2.322467">
        <ele>1352.0</ele>
        <time>2013-06-22T13:20:50Z</time>
      </trkpt>
      <trkpt lat="42.652500" lon="-2.322417">
        <ele>1352.0</ele>
        <time>2013-06-22T13:20:51Z</time>
      </trkpt>
      <trkpt lat="42.652517" lon="-2.322367">
        <ele>1352.0</ele>
        <time>2013-06-22T13:20:52Z</time>
      </trkpt>
      <trkpt lat="42.652550" lon="-2.322317">
        <ele>1352.0</ele>
        <time>2013-06-22T13:20:53Z</time>
      </trkpt>
      <trkpt lat="42.652583" lon="-2.322267">
        <ele>1352.0</ele>
        <time>2013-06-22T13:20:54Z</time>
      </trkpt>
      <trkpt lat="42.652617" lon="-2.322217">
        <ele>1352.0</ele>
        <time>2013-06-22T13:20:55Z</time>
      </trkpt>
      <trkpt lat="42.652650" lon="-2.322167">
        <ele>1352.0</ele>
        <time>2013-06-22T13:20:56Z</time>
      </trkpt>
      <trkpt lat="42.652683" lon="-2.322117">
        <ele>1352.0</ele>
        <time>2013-06-22T13:20:57Z</time>
      </trkpt>
      <trkpt lat="42.652717" lon="-2.322083">
        <ele>1351.0</ele>
        <time>2013-06-22T13:20:58Z</time>
      </trkpt>
      <trkpt lat="42.652750" lon="-2.322050">
        <ele>1351.0</ele>
        <time>2013-06-22T13:20:59Z</time>
      </trkpt>
      <trkpt lat="42.652783" lon="-2.322017">
        <ele>1349.0</ele>
        <time>2013-06-22T13:21:00Z</time>
      </trkpt>
      <trkpt lat="42.652833" lon="-2.321967">
        <ele>1348.0</ele>
        <time>2013-06-22T13:21:01Z</time>
      </trkpt>
      <trkpt lat="42.652883" lon="-2.321900">
        <ele>1347.0</ele>
        <time>2013-06-22T13:21:02Z</time>
      </trkpt>
      <trkpt lat="42.652917" lon="-2.321850">
        <ele>1347.0</ele>
        <time>2013-06-22T13:21:03Z</time>
      </trkpt>
      <trkpt lat="42.652950" lon="-2.321817">
        <ele>1348.0</ele>
        <time>2013-06-22T13:21:04Z</time>
      </trkpt>
      <trkpt lat="42.652983" lon="-2.321783">
        <ele>1348.0</ele>
        <time>2013-06-22T13:21:05Z</time>
      </trkpt>
      <trkpt lat="42.653017" lon="-2.321733">
        <ele>1347.0</ele>
        <time>2013-06-22T13:21:06Z</time>
      </trkpt>
      <trkpt lat="42.653050" lon="-2.321700">
        <ele>1347.0</ele>
        <time>2013-06-22T13:21:07Z</time>
      </trkpt>
      <trkpt lat="42.653100" lon="-2.321667">
        <ele>1347.0</ele>
        <time>2013-06-22T13:21:08Z</time>
      </trkpt>
      <trkpt lat="42.653133" lon="-2.321633">
        <ele>1347.0</ele>
        <time>2013-06-22T13:21:09Z</time>
      </trkpt>
      <trkpt lat="42.653167" lon="-2.321600">
        <ele>1348.0</ele>
        <time>2013-06-22T13:21:10Z</time>
      </trkpt>
      <trkpt lat="42.653200" lon="-2.321567">
        <ele>1349.0</ele>
        <time>2013-06-22T13:21:11Z</time>
      </trkpt>
      <trkpt lat="42.653233" lon="-2.321533">
        <ele>1349.0</ele>
        <time>2013-06-22T13:21:12Z</time>
      </trkpt>
      <trkpt lat="42.653267" lon="-2.321500">
        <ele>1349.0</ele>
        <time>2013-06-22T13:21:13Z</time>
      </trkpt>
      <trkpt lat="42.653300" lon="-2.321467">
        <ele>1348.0</ele>
        <time>2013-06-22T13:21:14Z</time>
      </trkpt>
      <trkpt lat="42.653333" lon="-2.321417">
        <ele>1348.0</ele>
        <time>2013-06-22T13:21:15Z</time>
      </trkpt>
      <trkpt lat="42.653367" lon="-2.321367">
        <ele>1348.0</ele>
        <time>2013-06-22T13:21:16Z</time>
      </trkpt>
      <trkpt lat="42.653400" lon="-2.321333">
        <ele>1349.0</ele>
        <time>2013-06-22T13:21:17Z</time>
      </trkpt>
      <trkpt lat="42.653433" lon="-2.321283">
        <ele>1350.0</ele>
        <time>2013-06-22T13:21:18Z</time>
      </trkpt>
      <trkpt lat="42.653467" lon="-2.321250">
        <ele>1351.0</ele>
        <time>2013-06-22T13:21:19Z</time>
      </trkpt>
      <trkpt lat="42.653500" lon="-2.321217">
        <ele>1351.0</ele>
        <time>2013-06-22T13:21:20Z</time>
      </trkpt>
      <trkpt lat="42.653550" lon="-2.321183">
        <ele>1351.0</ele>
        <time>2013-06-22T13:21:21Z</time>
      </trkpt>
      <trkpt lat="42.653583" lon="-2.321133">
        <ele>1351.0</ele>
        <time>2013-06-22T13:21:22Z</time>
      </trkpt>
      <trkpt lat="42.653617" lon="-2.321083">
        <ele>1352.0</ele>
        <time>2013-06-22T13:21:23Z</time>
      </trkpt>
      <trkpt lat="42.653650" lon="-2.321033">
        <ele>1353.0</ele>
        <time>2013-06-22T13:21:24Z</time>
      </trkpt>
      <trkpt lat="42.653683" lon="-2.320983">
        <ele>1354.0</ele>
        <time>2013-06-22T13:21:25Z</time>
      </trkpt>
      <trkpt lat="42.653717" lon="-2.320950">
        <ele>1354.0</ele>
        <time>2013-06-22T13:21:26Z</time>
      </trkpt>
      <trkpt lat="42.653750" lon="-2.320917">
        <ele>1354.0</ele>
        <time>2013-06-22T13:21:27Z</time>
      </trkpt>
      <trkpt lat="42.653800" lon="-2.320867">
        <ele>1354.0</ele>
        <time>2013-06-22T13:21:28Z</time>
      </trkpt>
      <trkpt lat="42.653850" lon="-2.320817">
        <ele>1353.0</ele>
        <time>2013-06-22T13:21:29Z</time>
      </trkpt>
      <trkpt lat="42.653883" lon="-2.320750">
        <ele>1353.0</ele>
        <time>2013-06-22T13:21:30Z</time>
      </trkpt>
      <trkpt lat="42.653917" lon="-2.320683">
        <ele>1354.0</ele>
        <time>2013-06-22T13:21:31Z</time>
      </trkpt>
      <trkpt lat="42.653933" lon="-2.320617">
        <ele>1354.0</ele>
        <time>2013-06-22T13:21:32Z</time>
      </trkpt>
      <trkpt lat="42.653967" lon="-2.320567">
        <ele>1355.0</ele>
        <time>2013-06-22T13:21:33Z</time>
      </trkpt>
      <trkpt lat="42.654000" lon="-2.320500">
        <ele>1354.0</ele>
        <time>2013-06-22T13:21:34Z</time>
      </trkpt>
      <trkpt lat="42.654033" lon="-2.320433">
        <ele>1353.0</ele>
        <time>2013-06-22T13:21:35Z</time>
      </trkpt>
      <trkpt lat="42.654067" lon="-2.320367">
        <ele>1352.0</ele>
        <time>2013-06-22T13:21:36Z</time>
      </trkpt>
      <trkpt lat="42.654100" lon="-2.320300">
        <ele>1351.0</ele>
        <time>2013-06-22T13:21:37Z</time>
      </trkpt>
      <trkpt lat="42.654133" lon="-2.320250">
        <ele>1351.0</ele>
        <time>2013-06-22T13:21:38Z</time>
      </trkpt>
      <trkpt lat="42.654150" lon="-2.320183">
        <ele>1351.0</ele>
        <time>2013-06-22T13:21:39Z</time>
      </trkpt>
      <trkpt lat="42.654167" lon="-2.320133">
        <ele>1351.0</ele>
        <time>2013-06-22T13:21:40Z</time>
      </trkpt>
      <trkpt lat="42.654200" lon="-2.320083">
        <ele>1350.0</ele>
        <time>2013-06-22T13:21:41Z</time>
      </trkpt>
      <trkpt lat="42.654233" lon="-2.320017">
        <ele>1349.0</ele>
        <time>2013-06-22T13:21:42Z</time>
      </trkpt>
      <trkpt lat="42.654283" lon="-2.319950">
        <ele>1347.0</ele>
        <time>2013-06-22T13:21:43Z</time>
      </trkpt>
      <trkpt lat="42.654317" lon="-2.319883">
        <ele>1346.0</ele>
        <time>2013-06-22T13:21:44Z</time>
      </trkpt>
      <trkpt lat="42.654350" lon="-2.319833">
        <ele>1345.0</ele>
        <time>2013-06-22T13:21:45Z</time>
      </trkpt>
      <trkpt lat="42.654367" lon="-2.319767">
        <ele>1344.0</ele>
        <time>2013-06-22T13:21:46Z</time>
      </trkpt>
      <trkpt lat="42.654400" lon="-2.319700">
        <ele>1342.0</ele>
        <time>2013-06-22T13:21:47Z</time>
      </trkpt>
      <trkpt lat="42.654433" lon="-2.319633">
        <ele>1341.0</ele>
        <time>2013-06-22T13:21:48Z</time>
      </trkpt>
      <trkpt lat="42.654467" lon="-2.319550">
        <ele>1339.0</ele>
        <time>2013-06-22T13:21:49Z</time>
      </trkpt>
      <trkpt lat="42.654500" lon="-2.319450">
        <ele>1339.0</ele>
        <time>2013-06-22T13:21:50Z</time>
      </trkpt>
      <trkpt lat="42.654533" lon="-2.319383">
        <ele>1339.0</ele>
        <time>2013-06-22T13:21:51Z</time>
      </trkpt>
      <trkpt lat="42.654550" lon="-2.319300">
        <ele>1340.0</ele>
        <time>2013-06-22T13:21:52Z</time>
      </trkpt>
      <trkpt lat="42.654583" lon="-2.319233">
        <ele>1340.0</ele>
        <time>2013-06-22T13:21:53Z</time>
      </trkpt>
      <trkpt lat="42.654600" lon="-2.319167">
        <ele>1339.0</ele>
        <time>2013-06-22T13:21:54Z</time>
      </trkpt>
      <trkpt lat="42.654633" lon="-2.319100">
        <ele>1338.0</ele>
        <time>2013-06-22T13:21:55Z</time>
      </trkpt>
      <trkpt lat="42.654667" lon="-2.319017">
        <ele>1338.0</ele>
        <time>2013-06-22T13:21:56Z</time>
      </trkpt>
      <trkpt lat="42.654700" lon="-2.318933">
        <ele>1337.0</ele>
        <time>2013-06-22T13:21:57Z</time>
      </trkpt>
      <trkpt lat="42.654733" lon="-2.318850">
        <ele>1338.0</ele>
        <time>2013-06-22T13:21:58Z</time>
      </trkpt>
      <trkpt lat="42.654750" lon="-2.318783">
        <ele>1339.0</ele>
        <time>2013-06-22T13:21:59Z</time>
      </trkpt>
      <trkpt lat="42.654767" lon="-2.318700">
        <ele>1339.0</ele>
        <time>2013-06-22T13:22:00Z</time>
      </trkpt>
      <trkpt lat="42.654800" lon="-2.318633">
        <ele>1339.0</ele>
        <time>2013-06-22T13:22:01Z</time>
      </trkpt>
      <trkpt lat="42.654833" lon="-2.318550">
        <ele>1338.0</ele>
        <time>2013-06-22T13:22:02Z</time>
      </trkpt>
      <trkpt lat="42.654867" lon="-2.318450">
        <ele>1337.0</ele>
        <time>2013-06-22T13:22:03Z</time>
      </trkpt>
      <trkpt lat="42.654900" lon="-2.318367">
        <ele>1337.0</ele>
        <time>2013-06-22T13:22:04Z</time>
      </trkpt>
      <trkpt lat="42.654933" lon="-2.318283">
        <ele>1337.0</ele>
        <time>2013-06-22T13:22:05Z</time>
      </trkpt>
      <trkpt lat="42.654950" lon="-2.318200">
        <ele>1338.0</ele>
        <time>2013-06-22T13:22:06Z</time>
      </trkpt>
      <trkpt lat="42.654983" lon="-2.318117">
        <ele>1338.0</ele>
        <time>2013-06-22T13:22:07Z</time>
      </trkpt>
      <trkpt lat="42.655000" lon="-2.318017">
        <ele>1338.0</ele>
        <time>2013-06-22T13:22:08Z</time>
      </trkpt>
      <trkpt lat="42.655033" lon="-2.317933">
        <ele>1338.0</ele>
        <time>2013-06-22T13:22:09Z</time>
      </trkpt>
      <trkpt lat="42.655050" lon="-2.317833">
        <ele>1338.0</ele>
        <time>2013-06-22T13:22:10Z</time>
      </trkpt>
      <trkpt lat="42.655083" lon="-2.317717">
        <ele>1338.0</ele>
        <time>2013-06-22T13:22:11Z</time>
      </trkpt>
      <trkpt lat="42.655117" lon="-2.317633">
        <ele>1339.0</ele>
        <time>2013-06-22T13:22:12Z</time>
      </trkpt>
      <trkpt lat="42.655133" lon="-2.317533">
        <ele>1339.0</ele>
        <time>2013-06-22T13:22:13Z</time>
      </trkpt>
      <trkpt lat="42.655167" lon="-2.317450">
        <ele>1339.0</ele>
        <time>2013-06-22T13:22:14Z</time>
      </trkpt>
      <trkpt lat="42.655200" lon="-2.317367">
        <ele>1339.0</ele>
        <time>2013-06-22T13:22:15Z</time>
      </trkpt>
      <trkpt lat="42.655217" lon="-2.317267">
        <ele>1339.0</ele>
        <time>2013-06-22T13:22:16Z</time>
      </trkpt>
      <trkpt lat="42.655250" lon="-2.317183">
        <ele>1340.0</ele>
        <time>2013-06-22T13:22:17Z</time>
      </trkpt>
      <trkpt lat="42.655283" lon="-2.317100">
        <ele>1341.0</ele>
        <time>2013-06-22T13:22:18Z</time>
      </trkpt>
      <trkpt lat="42.655300" lon="-2.317000">
        <ele>1341.0</ele>
        <time>2013-06-22T13:22:19Z</time>
      </trkpt>
      <trkpt lat="42.655333" lon="-2.316917">
        <ele>1342.0</ele>
        <time>2013-06-22T13:22:20Z</time>
      </trkpt>
      <trkpt lat="42.655367" lon="-2.316833">
        <ele>1342.0</ele>
        <time>2013-06-22T13:22:21Z</time>
      </trkpt>
      <trkpt lat="42.655400" lon="-2.316733">
        <ele>1342.0</ele>
        <time>2013-06-22T13:22:22Z</time>
      </trkpt>
      <trkpt lat="42.655433" lon="-2.316633">
        <ele>1343.0</ele>
        <time>2013-06-22T13:22:23Z</time>
      </trkpt>
      <trkpt lat="42.655450" lon="-2.316533">
        <ele>1344.0</ele>
        <time>2013-06-22T13:22:24Z</time>
      </trkpt>
      <trkpt lat="42.655483" lon="-2.316450">
        <ele>1345.0</ele>
        <time>2013-06-22T13:22:25Z</time>
      </trkpt>
      <trkpt lat="42.655517" lon="-2.316350">
        <ele>1345.0</ele>
        <time>2013-06-22T13:22:26Z</time>
      </trkpt>
      <trkpt lat="42.655533" lon="-2.316250">
        <ele>1345.0</ele>
        <time>2013-06-22T13:22:27Z</time>
      </trkpt>
      <trkpt lat="42.655583" lon="-2.316133">
        <ele>1345.0</ele>
        <time>2013-06-22T13:22:28Z</time>
      </trkpt>
      <trkpt lat="42.655600" lon="-2.316033">
        <ele>1345.0</ele>
        <time>2013-06-22T13:22:29Z</time>
      </trkpt>
      <trkpt lat="42.655633" lon="-2.315933">
        <ele>1347.0</ele>
        <time>2013-06-22T13:22:30Z</time>
      </trkpt>
      <trkpt lat="42.655650" lon="-2.315833">
        <ele>1348.0</ele>
        <time>2013-06-22T13:22:31Z</time>
      </trkpt>
      <trkpt lat="42.655667" lon="-2.315750">
        <ele>1349.0</ele>
        <time>2013-06-22T13:22:32Z</time>
      </trkpt>
      <trkpt lat="42.655683" lon="-2.315633">
        <ele>1349.0</ele>
        <time>2013-06-22T13:22:33Z</time>
      </trkpt>
      <trkpt lat="42.655700" lon="-2.315517">
        <ele>1349.0</ele>
        <time>2013-06-22T13:22:34Z</time>
      </trkpt>
      <trkpt lat="42.655733" lon="-2.315400">
        <ele>1348.0</ele>
        <time>2013-06-22T13:22:35Z</time>
      </trkpt>
      <trkpt lat="42.655750" lon="-2.315267">
        <ele>1348.0</ele>
        <time>2013-06-22T13:22:36Z</time>
      </trkpt>
      <trkpt lat="42.655767" lon="-2.315150">
        <ele>1347.0</ele>
        <time>2013-06-22T13:22:37Z</time>
      </trkpt>
      <trkpt lat="42.655800" lon="-2.315033">
        <ele>1347.0</ele>
        <time>2013-06-22T13:22:38Z</time>
      </trkpt>
      <trkpt lat="42.655817" lon="-2.314917">
        <ele>1347.0</ele>
        <time>2013-06-22T13:22:39Z</time>
      </trkpt>
      <trkpt lat="42.655850" lon="-2.314817">
        <ele>1347.0</ele>
        <time>2013-06-22T13:22:40Z</time>
      </trkpt>
      <trkpt lat="42.655867" lon="-2.314717">
        <ele>1347.0</ele>
        <time>2013-06-22T13:22:41Z</time>
      </trkpt>
      <trkpt lat="42.655900" lon="-2.314617">
        <ele>1347.0</ele>
        <time>2013-06-22T13:22:42Z</time>
      </trkpt>
      <trkpt lat="42.655917" lon="-2.314500">
        <ele>1347.0</ele>
        <time>2013-06-22T13:22:43Z</time>
      </trkpt>
      <trkpt lat="42.655950" lon="-2.314383">
        <ele>1346.0</ele>
        <time>2013-06-22T13:22:44Z</time>
      </trkpt>
      <trkpt lat="42.655983" lon="-2.314283">
        <ele>1345.0</ele>
        <time>2013-06-22T13:22:45Z</time>
      </trkpt>
      <trkpt lat="42.656017" lon="-2.314167">
        <ele>1346.0</ele>
        <time>2013-06-22T13:22:46Z</time>
      </trkpt>
      <trkpt lat="42.656033" lon="-2.314050">
        <ele>1346.0</ele>
        <time>2013-06-22T13:22:47Z</time>
      </trkpt>
      <trkpt lat="42.656067" lon="-2.313950">
        <ele>1346.0</ele>
        <time>2013-06-22T13:22:48Z</time>
      </trkpt>
      <trkpt lat="42.656083" lon="-2.313833">
        <ele>1346.0</ele>
        <time>2013-06-22T13:22:49Z</time>
      </trkpt>
      <trkpt lat="42.656100" lon="-2.313717">
        <ele>1346.0</ele>
        <time>2013-06-22T13:22:50Z</time>
      </trkpt>
      <trkpt lat="42.656133" lon="-2.313600">
        <ele>1346.0</ele>
        <time>2013-06-22T13:22:51Z</time>
      </trkpt>
      <trkpt lat="42.656150" lon="-2.313483">
        <ele>1346.0</ele>
        <time>2013-06-22T13:22:52Z</time>
      </trkpt>
      <trkpt lat="42.656167" lon="-2.313367">
        <ele>1347.0</ele>
        <time>2013-06-22T13:22:53Z</time>
      </trkpt>
      <trkpt lat="42.656183" lon="-2.313250">
        <ele>1347.0</ele>
        <time>2013-06-22T13:22:54Z</time>
      </trkpt>
      <trkpt lat="42.656200" lon="-2.313133">
        <ele>1348.0</ele>
        <time>2013-06-22T13:22:55Z</time>
      </trkpt>
      <trkpt lat="42.656217" lon="-2.313017">
        <ele>1348.0</ele>
        <time>2013-06-22T13:22:56Z</time>
      </trkpt>
      <trkpt lat="42.656250" lon="-2.312883">
        <ele>1348.0</ele>
        <time>2013-06-22T13:22:57Z</time>
      </trkpt>
      <trkpt lat="42.656267" lon="-2.312750">
        <ele>1348.0</ele>
        <time>2013-06-22T13:22:58Z</time>
      </trkpt>
      <trkpt lat="42.656283" lon="-2.312617">
        <ele>1348.0</ele>
        <time>2013-06-22T13:22:59Z</time>
      </trkpt>
      <trkpt lat="42.656300" lon="-2.312483">
        <ele>1348.0</ele>
        <time>2013-06-22T13:23:00Z</time>
      </trkpt>
      <trkpt lat="42.656317" lon="-2.312350">
        <ele>1348.0</ele>
        <time>2013-06-22T13:23:01Z</time>
      </trkpt>
      <trkpt lat="42.656350" lon="-2.312217">
        <ele>1348.0</ele>
        <time>2013-06-22T13:23:02Z</time>
      </trkpt>
      <trkpt lat="42.656367" lon="-2.312083">
        <ele>1348.0</ele>
        <time>2013-06-22T13:23:03Z</time>
      </trkpt>
      <trkpt lat="42.656383" lon="-2.311950">
        <ele>1348.0</ele>
        <time>2013-06-22T13:23:04Z</time>
      </trkpt>
      <trkpt lat="42.656400" lon="-2.311817">
        <ele>1347.0</ele>
        <time>2013-06-22T13:23:05Z</time>
      </trkpt>
      <trkpt lat="42.656400" lon="-2.311683">
        <ele>1347.0</ele>
        <time>2013-06-22T13:23:06Z</time>
      </trkpt>
      <trkpt lat="42.656417" lon="-2.311550">
        <ele>1347.0</ele>
        <time>2013-06-22T13:23:07Z</time>
      </trkpt>
      <trkpt lat="42.656400" lon="-2.311400">
        <ele>1347.0</ele>
        <time>2013-06-22T13:23:08Z</time>
      </trkpt>
      <trkpt lat="42.656400" lon="-2.311250">
        <ele>1347.0</ele>
        <time>2013-06-22T13:23:09Z</time>
      </trkpt>
      <trkpt lat="42.656400" lon="-2.311117">
        <ele>1347.0</ele>
        <time>2013-06-22T13:23:10Z</time>
      </trkpt>
      <trkpt lat="42.656400" lon="-2.310983">
        <ele>1348.0</ele>
        <time>2013-06-22T13:23:11Z</time>
      </trkpt>
      <trkpt lat="42.656400" lon="-2.310867">
        <ele>1349.0</ele>
        <time>2013-06-22T13:23:12Z</time>
      </trkpt>
      <trkpt lat="42.656400" lon="-2.310733">
        <ele>1348.0</ele>
        <time>2013-06-22T13:23:13Z</time>
      </trkpt>
      <trkpt lat="42.656417" lon="-2.310600">
        <ele>1348.0</ele>
        <time>2013-06-22T13:23:14Z</time>
      </trkpt>
      <trkpt lat="42.656417" lon="-2.310467">
        <ele>1347.0</ele>
        <time>2013-06-22T13:23:15Z</time>
      </trkpt>
      <trkpt lat="42.656433" lon="-2.310333">
        <ele>1347.0</ele>
        <time>2013-06-22T13:23:16Z</time>
      </trkpt>
      <trkpt lat="42.656433" lon="-2.310200">
        <ele>1347.0</ele>
        <time>2013-06-22T13:23:17Z</time>
      </trkpt>
      <trkpt lat="42.656450" lon="-2.310067">
        <ele>1347.0</ele>
        <time>2013-06-22T13:23:18Z</time>
      </trkpt>
      <trkpt lat="42.656450" lon="-2.309933">
        <ele>1346.0</ele>
        <time>2013-06-22T13:23:19Z</time>
      </trkpt>
      <trkpt lat="42.656467" lon="-2.309817">
        <ele>1346.0</ele>
        <time>2013-06-22T13:23:20Z</time>
      </trkpt>
      <trkpt lat="42.656483" lon="-2.309683">
        <ele>1346.0</ele>
        <time>2013-06-22T13:23:21Z</time>
      </trkpt>
      <trkpt lat="42.656483" lon="-2.309550">
        <ele>1345.0</ele>
        <time>2013-06-22T13:23:22Z</time>
      </trkpt>
      <trkpt lat="42.656517" lon="-2.309417">
        <ele>1344.0</ele>
        <time>2013-06-22T13:23:23Z</time>
      </trkpt>
      <trkpt lat="42.656533" lon="-2.309300">
        <ele>1344.0</ele>
        <time>2013-06-22T13:23:24Z</time>
      </trkpt>
      <trkpt lat="42.656550" lon="-2.309183">
        <ele>1344.0</ele>
        <time>2013-06-22T13:23:25Z</time>
      </trkpt>
      <trkpt lat="42.656550" lon="-2.309067">
        <ele>1343.0</ele>
        <time>2013-06-22T13:23:26Z</time>
      </trkpt>
      <trkpt lat="42.656567" lon="-2.308933">
        <ele>1342.0</ele>
        <time>2013-06-22T13:23:27Z</time>
      </trkpt>
      <trkpt lat="42.656583" lon="-2.308817">
        <ele>1342.0</ele>
        <time>2013-06-22T13:23:28Z</time>
      </trkpt>
      <trkpt lat="42.656600" lon="-2.308683">
        <ele>1341.0</ele>
        <time>2013-06-22T13:23:29Z</time>
      </trkpt>
      <trkpt lat="42.656617" lon="-2.308567">
        <ele>1340.0</ele>
        <time>2013-06-22T13:23:30Z</time>
      </trkpt>
      <trkpt lat="42.656633" lon="-2.308433">
        <ele>1339.0</ele>
        <time>2013-06-22T13:23:31Z</time>
      </trkpt>
      <trkpt lat="42.656650" lon="-2.308300">
        <ele>1339.0</ele>
        <time>2013-06-22T13:23:32Z</time>
      </trkpt>
      <trkpt lat="42.656683" lon="-2.308183">
        <ele>1339.0</ele>
        <time>2013-06-22T13:23:33Z</time>
      </trkpt>
      <trkpt lat="42.656700" lon="-2.308067">
        <ele>1338.0</ele>
        <time>2013-06-22T13:23:34Z</time>
      </trkpt>
      <trkpt lat="42.656717" lon="-2.307950">
        <ele>1338.0</ele>
        <time>2013-06-22T13:23:35Z</time>
      </trkpt>
      <trkpt lat="42.656733" lon="-2.307833">
        <ele>1338.0</ele>
        <time>2013-06-22T13:23:36Z</time>
      </trkpt>
      <trkpt lat="42.656750" lon="-2.307717">
        <ele>1338.0</ele>
        <time>2013-06-22T13:23:37Z</time>
      </trkpt>
      <trkpt lat="42.656767" lon="-2.307600">
        <ele>1338.0</ele>
        <time>2013-06-22T13:23:38Z</time>
      </trkpt>
      <trkpt lat="42.656783" lon="-2.307483">
        <ele>1338.0</ele>
        <time>2013-06-22T13:23:39Z</time>
      </trkpt>
      <trkpt lat="42.656783" lon="-2.307367">
        <ele>1338.0</ele>
        <time>2013-06-22T13:23:40Z</time>
      </trkpt>
      <trkpt lat="42.656800" lon="-2.307233">
        <ele>1337.0</ele>
        <time>2013-06-22T13:23:41Z</time>
      </trkpt>
      <trkpt lat="42.656833" lon="-2.307100">
        <ele>1336.0</ele>
        <time>2013-06-22T13:23:42Z</time>
      </trkpt>
      <trkpt lat="42.656850" lon="-2.306967">
        <ele>1336.0</ele>
        <time>2013-06-22T13:23:43Z</time>
      </trkpt>
      <trkpt lat="42.656867" lon="-2.306850">
        <ele>1337.0</ele>
        <time>2013-06-22T13:23:44Z</time>
      </trkpt>
      <trkpt lat="42.656867" lon="-2.306717">
        <ele>1338.0</ele>
        <time>2013-06-22T13:23:45Z</time>
      </trkpt>
      <trkpt lat="42.656867" lon="-2.306600">
        <ele>1339.0</ele>
        <time>2013-06-22T13:23:46Z</time>
      </trkpt>
      <trkpt lat="42.656867" lon="-2.306483">
        <ele>1340.0</ele>
        <time>2013-06-22T13:23:47Z</time>
      </trkpt>
      <trkpt lat="42.656883" lon="-2.306383">
        <ele>1340.0</ele>
        <time>2013-06-22T13:23:48Z</time>
      </trkpt>
      <trkpt lat="42.656900" lon="-2.306267">
        <ele>1340.0</ele>
        <time>2013-06-22T13:23:49Z</time>
      </trkpt>
      <trkpt lat="42.656933" lon="-2.306150">
        <ele>1340.0</ele>
        <time>2013-06-22T13:23:50Z</time>
      </trkpt>
      <trkpt lat="42.656950" lon="-2.306033">
        <ele>1340.0</ele>
        <time>2013-06-22T13:23:51Z</time>
      </trkpt>
      <trkpt lat="42.656967" lon="-2.305950">
        <ele>1341.0</ele>
        <time>2013-06-22T13:23:52Z</time>
      </trkpt>
      <trkpt lat="42.656983" lon="-2.305850">
        <ele>1341.0</ele>
        <time>2013-06-22T13:23:53Z</time>
      </trkpt>
      <trkpt lat="42.657017" lon="-2.305750">
        <ele>1341.0</ele>
        <time>2013-06-22T13:23:54Z</time>
      </trkpt>
      <trkpt lat="42.657050" lon="-2.305633">
        <ele>1341.0</ele>
        <time>2013-06-22T13:23:55Z</time>
      </trkpt>
      <trkpt lat="42.657067" lon="-2.305500">
        <ele>1341.0</ele>
        <time>2013-06-22T13:23:56Z</time>
      </trkpt>
      <trkpt lat="42.657100" lon="-2.305383">
        <ele>1341.0</ele>
        <time>2013-06-22T13:23:57Z</time>
      </trkpt>
      <trkpt lat="42.657117" lon="-2.305283">
        <ele>1342.0</ele>
        <time>2013-06-22T13:23:58Z</time>
      </trkpt>
      <trkpt lat="42.657133" lon="-2.305167">
        <ele>1343.0</ele>
        <time>2013-06-22T13:23:59Z</time>
      </trkpt>
      <trkpt lat="42.657167" lon="-2.305033">
        <ele>1343.0</ele>
        <time>2013-06-22T13:24:00Z</time>
      </trkpt>
      <trkpt lat="42.657200" lon="-2.304900">
        <ele>1344.0</ele>
        <time>2013-06-22T13:24:01Z</time>
      </trkpt>
      <trkpt lat="42.657233" lon="-2.304767">
        <ele>1344.0</ele>
        <time>2013-06-22T13:24:02Z</time>
      </trkpt>
      <trkpt lat="42.657267" lon="-2.304650">
        <ele>1345.0</ele>
        <time>2013-06-22T13:24:03Z</time>
      </trkpt>
      <trkpt lat="42.657317" lon="-2.304550">
        <ele>1345.0</ele>
        <time>2013-06-22T13:24:04Z</time>
      </trkpt>
      <trkpt lat="42.657333" lon="-2.304433">
        <ele>1345.0</ele>
        <time>2013-06-22T13:24:05Z</time>
      </trkpt>
      <trkpt lat="42.657367" lon="-2.304300">
        <ele>1345.0</ele>
        <time>2013-06-22T13:24:06Z</time>
      </trkpt>
      <trkpt lat="42.657400" lon="-2.304167">
        <ele>1344.0</ele>
        <time>2013-06-22T13:24:07Z</time>
      </trkpt>
      <trkpt lat="42.657433" lon="-2.304017">
        <ele>1343.0</ele>
        <time>2013-06-22T13:24:08Z</time>
      </trkpt>
      <trkpt lat="42.657450" lon="-2.303867">
        <ele>1343.0</ele>
        <time>2013-06-22T13:24:09Z</time>
      </trkpt>
      <trkpt lat="42.657483" lon="-2.303717">
        <ele>1343.0</ele>
        <time>2013-06-22T13:24:10Z</time>
      </trkpt>
      <trkpt lat="42.657500" lon="-2.303583">
        <ele>1345.0</ele>
        <time>2013-06-22T13:24:11Z</time>
      </trkpt>
      <trkpt lat="42.657533" lon="-2.303467">
        <ele>1348.0</ele>
        <time>2013-06-22T13:24:12Z</time>
      </trkpt>
      <trkpt lat="42.657550" lon="-2.303333">
        <ele>1349.0</ele>
        <time>2013-06-22T13:24:13Z</time>
      </trkpt>
      <trkpt lat="42.657583" lon="-2.303200">
        <ele>1348.0</ele>
        <time>2013-06-22T13:24:14Z</time>
      </trkpt>
      <trkpt lat="42.657633" lon="-2.303067">
        <ele>1348.0</ele>
        <time>2013-06-22T13:24:15Z</time>
      </trkpt>
      <trkpt lat="42.657667" lon="-2.302933">
        <ele>1349.0</ele>
        <time>2013-06-22T13:24:16Z</time>
      </trkpt>
      <trkpt lat="42.657700" lon="-2.302817">
        <ele>1350.0</ele>
        <time>2013-06-22T13:24:17Z</time>
      </trkpt>
      <trkpt lat="42.657717" lon="-2.302717">
        <ele>1351.0</ele>
        <time>2013-06-22T13:24:18Z</time>
      </trkpt>
      <trkpt lat="42.657750" lon="-2.302617">
        <ele>1351.0</ele>
        <time>2013-06-22T13:24:19Z</time>
      </trkpt>
      <trkpt lat="42.657783" lon="-2.302517">
        <ele>1351.0</ele>
        <time>2013-06-22T13:24:20Z</time>
      </trkpt>
      <trkpt lat="42.657817" lon="-2.302400">
        <ele>1350.0</ele>
        <time>2013-06-22T13:24:21Z</time>
      </trkpt>
      <trkpt lat="42.657850" lon="-2.302267">
        <ele>1348.0</ele>
        <time>2013-06-22T13:24:22Z</time>
      </trkpt>
      <trkpt lat="42.657883" lon="-2.302133">
        <ele>1347.0</ele>
        <time>2013-06-22T13:24:23Z</time>
      </trkpt>
      <trkpt lat="42.657917" lon="-2.302000">
        <ele>1346.0</ele>
        <time>2013-06-22T13:24:24Z</time>
      </trkpt>
      <trkpt lat="42.657933" lon="-2.301867">
        <ele>1345.0</ele>
        <time>2013-06-22T13:24:25Z</time>
      </trkpt>
      <trkpt lat="42.657950" lon="-2.301733">
        <ele>1344.0</ele>
        <time>2013-06-22T13:24:26Z</time>
      </trkpt>
      <trkpt lat="42.657967" lon="-2.301600">
        <ele>1343.0</ele>
        <time>2013-06-22T13:24:27Z</time>
      </trkpt>
      <trkpt lat="42.657983" lon="-2.301450">
        <ele>1342.0</ele>
        <time>2013-06-22T13:24:28Z</time>
      </trkpt>
      <trkpt lat="42.658000" lon="-2.301300">
        <ele>1340.0</ele>
        <time>2013-06-22T13:24:29Z</time>
      </trkpt>
      <trkpt lat="42.658017" lon="-2.301150">
        <ele>1340.0</ele>
        <time>2013-06-22T13:24:30Z</time>
      </trkpt>
      <trkpt lat="42.658033" lon="-2.301000">
        <ele>1339.0</ele>
        <time>2013-06-22T13:24:31Z</time>
      </trkpt>
      <trkpt lat="42.658033" lon="-2.300850">
        <ele>1338.0</ele>
        <time>2013-06-22T13:24:32Z</time>
      </trkpt>
      <trkpt lat="42.658050" lon="-2.300700">
        <ele>1337.0</ele>
        <time>2013-06-22T13:24:33Z</time>
      </trkpt>
      <trkpt lat="42.658067" lon="-2.300550">
        <ele>1336.0</ele>
        <time>2013-06-22T13:24:34Z</time>
      </trkpt>
      <trkpt lat="42.658083" lon="-2.300400">
        <ele>1335.0</ele>
        <time>2013-06-22T13:24:35Z</time>
      </trkpt>
      <trkpt lat="42.658100" lon="-2.300250">
        <ele>1334.0</ele>
        <time>2013-06-22T13:24:36Z</time>
      </trkpt>
      <trkpt lat="42.658100" lon="-2.300100">
        <ele>1333.0</ele>
        <time>2013-06-22T13:24:37Z</time>
      </trkpt>
      <trkpt lat="42.658117" lon="-2.299950">
        <ele>1331.0</ele>
        <time>2013-06-22T13:24:38Z</time>
      </trkpt>
      <trkpt lat="42.658133" lon="-2.299800">
        <ele>1330.0</ele>
        <time>2013-06-22T13:24:39Z</time>
      </trkpt>
      <trkpt lat="42.658150" lon="-2.299650">
        <ele>1329.0</ele>
        <time>2013-06-22T13:24:40Z</time>
      </trkpt>
      <trkpt lat="42.658167" lon="-2.299500">
        <ele>1328.0</ele>
        <time>2013-06-22T13:24:41Z</time>
      </trkpt>
      <trkpt lat="42.658167" lon="-2.299350">
        <ele>1326.0</ele>
        <time>2013-06-22T13:24:42Z</time>
      </trkpt>
      <trkpt lat="42.658200" lon="-2.299200">
        <ele>1325.0</ele>
        <time>2013-06-22T13:24:43Z</time>
      </trkpt>
      <trkpt lat="42.658217" lon="-2.299033">
        <ele>1323.0</ele>
        <time>2013-06-22T13:24:44Z</time>
      </trkpt>
      <trkpt lat="42.658233" lon="-2.298867">
        <ele>1322.0</ele>
        <time>2013-06-22T13:24:45Z</time>
      </trkpt>
      <trkpt lat="42.658250" lon="-2.298717">
        <ele>1321.0</ele>
        <time>2013-06-22T13:24:46Z</time>
      </trkpt>
      <trkpt lat="42.658250" lon="-2.298583">
        <ele>1321.0</ele>
        <time>2013-06-22T13:24:47Z</time>
      </trkpt>
      <trkpt lat="42.658267" lon="-2.298433">
        <ele>1321.0</ele>
        <time>2013-06-22T13:24:48Z</time>
      </trkpt>
      <trkpt lat="42.658267" lon="-2.298283">
        <ele>1320.0</ele>
        <time>2013-06-22T13:24:49Z</time>
      </trkpt>
      <trkpt lat="42.658283" lon="-2.298133">
        <ele>1320.0</ele>
        <time>2013-06-22T13:24:50Z</time>
      </trkpt>
      <trkpt lat="42.658283" lon="-2.297983">
        <ele>1319.0</ele>
        <time>2013-06-22T13:24:51Z</time>
      </trkpt>
      <trkpt lat="42.658300" lon="-2.297833">
        <ele>1317.0</ele>
        <time>2013-06-22T13:24:52Z</time>
      </trkpt>
      <trkpt lat="42.658300" lon="-2.297667">
        <ele>1316.0</ele>
        <time>2013-06-22T13:24:53Z</time>
      </trkpt>
      <trkpt lat="42.658317" lon="-2.297517">
        <ele>1315.0</ele>
        <time>2013-06-22T13:24:54Z</time>
      </trkpt>
      <trkpt lat="42.658317" lon="-2.297367">
        <ele>1315.0</ele>
        <time>2013-06-22T13:24:55Z</time>
      </trkpt>
      <trkpt lat="42.658333" lon="-2.297233">
        <ele>1313.0</ele>
        <time>2013-06-22T13:24:56Z</time>
      </trkpt>
      <trkpt lat="42.658350" lon="-2.297083">
        <ele>1312.0</ele>
        <time>2013-06-22T13:24:57Z</time>
      </trkpt>
      <trkpt lat="42.658350" lon="-2.296917">
        <ele>1310.0</ele>
        <time>2013-06-22T13:24:58Z</time>
      </trkpt>
      <trkpt lat="42.658367" lon="-2.296767">
        <ele>1309.0</ele>
        <time>2013-06-22T13:24:59Z</time>
      </trkpt>
      <trkpt lat="42.658367" lon="-2.296600">
        <ele>1307.0</ele>
        <time>2013-06-22T13:25:00Z</time>
      </trkpt>
      <trkpt lat="42.658367" lon="-2.296450">
        <ele>1306.0</ele>
        <time>2013-06-22T13:25:01Z</time>
      </trkpt>
      <trkpt lat="42.658367" lon="-2.296300">
        <ele>1306.0</ele>
        <time>2013-06-22T13:25:02Z</time>
      </trkpt>
      <trkpt lat="42.658383" lon="-2.296150">
        <ele>1304.0</ele>
        <time>2013-06-22T13:25:03Z</time>
      </trkpt>
      <trkpt lat="42.658383" lon="-2.296000">
        <ele>1303.0</ele>
        <time>2013-06-22T13:25:04Z</time>
      </trkpt>
      <trkpt lat="42.658400" lon="-2.295850">
        <ele>1301.0</ele>
        <time>2013-06-22T13:25:05Z</time>
      </trkpt>
      <trkpt lat="42.658417" lon="-2.295700">
        <ele>1300.0</ele>
        <time>2013-06-22T13:25:06Z</time>
      </trkpt>
      <trkpt lat="42.658433" lon="-2.295550">
        <ele>1299.0</ele>
        <time>2013-06-22T13:25:07Z</time>
      </trkpt>
      <trkpt lat="42.658450" lon="-2.295400">
        <ele>1299.0</ele>
        <time>2013-06-22T13:25:08Z</time>
      </trkpt>
      <trkpt lat="42.658467" lon="-2.295267">
        <ele>1298.0</ele>
        <time>2013-06-22T13:25:09Z</time>
      </trkpt>
      <trkpt lat="42.658483" lon="-2.295133">
        <ele>1297.0</ele>
        <time>2013-06-22T13:25:10Z</time>
      </trkpt>
      <trkpt lat="42.658500" lon="-2.294983">
        <ele>1295.0</ele>
        <time>2013-06-22T13:25:11Z</time>
      </trkpt>
      <trkpt lat="42.658533" lon="-2.294833">
        <ele>1293.0</ele>
        <time>2013-06-22T13:25:12Z</time>
      </trkpt>
      <trkpt lat="42.658550" lon="-2.294667">
        <ele>1292.0</ele>
        <time>2013-06-22T13:25:13Z</time>
      </trkpt>
      <trkpt lat="42.658567" lon="-2.294517">
        <ele>1291.0</ele>
        <time>2013-06-22T13:25:14Z</time>
      </trkpt>
      <trkpt lat="42.658583" lon="-2.294383">
        <ele>1291.0</ele>
        <time>2013-06-22T13:25:15Z</time>
      </trkpt>
      <trkpt lat="42.658583" lon="-2.294233">
        <ele>1290.0</ele>
        <time>2013-06-22T13:25:16Z</time>
      </trkpt>
      <trkpt lat="42.658600" lon="-2.294083">
        <ele>1289.0</ele>
        <time>2013-06-22T13:25:17Z</time>
      </trkpt>
      <trkpt lat="42.658617" lon="-2.293933">
        <ele>1287.0</ele>
        <time>2013-06-22T13:25:18Z</time>
      </trkpt>
      <trkpt lat="42.658617" lon="-2.293783">
        <ele>1286.0</ele>
        <time>2013-06-22T13:25:19Z</time>
      </trkpt>
      <trkpt lat="42.658633" lon="-2.293617">
        <ele>1285.0</ele>
        <time>2013-06-22T13:25:20Z</time>
      </trkpt>
      <trkpt lat="42.658650" lon="-2.293483">
        <ele>1284.0</ele>
        <time>2013-06-22T13:25:21Z</time>
      </trkpt>
      <trkpt lat="42.658650" lon="-2.293333">
        <ele>1283.0</ele>
        <time>2013-06-22T13:25:22Z</time>
      </trkpt>
      <trkpt lat="42.658667" lon="-2.293200">
        <ele>1282.0</ele>
        <time>2013-06-22T13:25:23Z</time>
      </trkpt>
      <trkpt lat="42.658683" lon="-2.293050">
        <ele>1280.0</ele>
        <time>2013-06-22T13:25:24Z</time>
      </trkpt>
      <trkpt lat="42.658700" lon="-2.292900">
        <ele>1279.0</ele>
        <time>2013-06-22T13:25:25Z</time>
      </trkpt>
      <trkpt lat="42.658717" lon="-2.292733">
        <ele>1277.0</ele>
        <time>2013-06-22T13:25:26Z</time>
      </trkpt>
      <trkpt lat="42.658733" lon="-2.292583">
        <ele>1276.0</ele>
        <time>2013-06-22T13:25:27Z</time>
      </trkpt>
      <trkpt lat="42.658750" lon="-2.292433">
        <ele>1275.0</ele>
        <time>2013-06-22T13:25:28Z</time>
      </trkpt>
      <trkpt lat="42.658767" lon="-2.292283">
        <ele>1275.0</ele>
        <time>2013-06-22T13:25:29Z</time>
      </trkpt>
      <trkpt lat="42.658767" lon="-2.292150">
        <ele>1275.0</ele>
        <time>2013-06-22T13:25:30Z</time>
      </trkpt>
      <trkpt lat="42.658767" lon="-2.292000">
        <ele>1274.0</ele>
        <time>2013-06-22T13:25:31Z</time>
      </trkpt>
      <trkpt lat="42.658783" lon="-2.291850">
        <ele>1273.0</ele>
        <time>2013-06-22T13:25:32Z</time>
      </trkpt>
      <trkpt lat="42.658800" lon="-2.291700">
        <ele>1272.0</ele>
        <time>2013-06-22T13:25:33Z</time>
      </trkpt>
      <trkpt lat="42.658817" lon="-2.291533">
        <ele>1270.0</ele>
        <time>2013-06-22T13:25:34Z</time>
      </trkpt>
      <trkpt lat="42.658817" lon="-2.291367">
        <ele>1270.0</ele>
        <time>2013-06-22T13:25:35Z</time>
      </trkpt>
      <trkpt lat="42.658833" lon="-2.291217">
        <ele>1269.0</ele>
        <time>2013-06-22T13:25:36Z</time>
      </trkpt>
      <trkpt lat="42.658833" lon="-2.291067">
        <ele>1269.0</ele>
        <time>2013-06-22T13:25:37Z</time>
      </trkpt>
      <trkpt lat="42.658850" lon="-2.290933">
        <ele>1268.0</ele>
        <time>2013-06-22T13:25:38Z</time>
      </trkpt>
      <trkpt lat="42.658850" lon="-2.290783">
        <ele>1267.0</ele>
        <time>2013-06-22T13:25:39Z</time>
      </trkpt>
      <trkpt lat="42.658867" lon="-2.290633">
        <ele>1265.0</ele>
        <time>2013-06-22T13:25:40Z</time>
      </trkpt>
      <trkpt lat="42.658867" lon="-2.290500">
        <ele>1264.0</ele>
        <time>2013-06-22T13:25:41Z</time>
      </trkpt>
      <trkpt lat="42.658883" lon="-2.290367">
        <ele>1264.0</ele>
        <time>2013-06-22T13:25:42Z</time>
      </trkpt>
      <trkpt lat="42.658883" lon="-2.290233">
        <ele>1264.0</ele>
        <time>2013-06-22T13:25:43Z</time>
      </trkpt>
      <trkpt lat="42.658883" lon="-2.290083">
        <ele>1263.0</ele>
        <time>2013-06-22T13:25:44Z</time>
      </trkpt>
      <trkpt lat="42.658900" lon="-2.289950">
        <ele>1262.0</ele>
        <time>2013-06-22T13:25:45Z</time>
      </trkpt>
      <trkpt lat="42.658917" lon="-2.289800">
        <ele>1261.0</ele>
        <time>2013-06-22T13:25:46Z</time>
      </trkpt>
      <trkpt lat="42.658950" lon="-2.289650">
        <ele>1260.0</ele>
        <time>2013-06-22T13:25:47Z</time>
      </trkpt>
      <trkpt lat="42.658983" lon="-2.289500">
        <ele>1261.0</ele>
        <time>2013-06-22T13:25:48Z</time>
      </trkpt>
      <trkpt lat="42.659017" lon="-2.289367">
        <ele>1263.0</ele>
        <time>2013-06-22T13:25:49Z</time>
      </trkpt>
      <trkpt lat="42.659033" lon="-2.289233">
        <ele>1266.0</ele>
        <time>2013-06-22T13:25:50Z</time>
      </trkpt>
      <trkpt lat="42.659033" lon="-2.289100">
        <ele>1267.0</ele>
        <time>2013-06-22T13:25:51Z</time>
      </trkpt>
      <trkpt lat="42.659050" lon="-2.289000">
        <ele>1269.0</ele>
        <time>2013-06-22T13:25:52Z</time>
      </trkpt>
      <trkpt lat="42.659050" lon="-2.288867">
        <ele>1268.0</ele>
        <time>2013-06-22T13:25:53Z</time>
      </trkpt>
      <trkpt lat="42.659067" lon="-2.288717">
        <ele>1267.0</ele>
        <time>2013-06-22T13:25:54Z</time>
      </trkpt>
      <trkpt lat="42.659083" lon="-2.288550">
        <ele>1266.0</ele>
        <time>2013-06-22T13:25:55Z</time>
      </trkpt>
      <trkpt lat="42.659083" lon="-2.288383">
        <ele>1266.0</ele>
        <time>2013-06-22T13:25:56Z</time>
      </trkpt>
      <trkpt lat="42.659067" lon="-2.288217">
        <ele>1267.0</ele>
        <time>2013-06-22T13:25:57Z</time>
      </trkpt>
      <trkpt lat="42.659050" lon="-2.288083">
        <ele>1268.0</ele>
        <time>2013-06-22T13:25:58Z</time>
      </trkpt>
      <trkpt lat="42.659033" lon="-2.287933">
        <ele>1268.0</ele>
        <time>2013-06-22T13:25:59Z</time>
      </trkpt>
      <trkpt lat="42.659033" lon="-2.287800">
        <ele>1267.0</ele>
        <time>2013-06-22T13:26:00Z</time>
      </trkpt>
      <trkpt lat="42.659033" lon="-2.287650">
        <ele>1266.0</ele>
        <time>2013-06-22T13:26:01Z</time>
      </trkpt>
      <trkpt lat="42.659050" lon="-2.287500">
        <ele>1265.0</ele>
        <time>2013-06-22T13:26:02Z</time>
      </trkpt>
      <trkpt lat="42.659067" lon="-2.287383">
        <ele>1265.0</ele>
        <time>2013-06-22T13:26:03Z</time>
      </trkpt>
      <trkpt lat="42.659067" lon="-2.287283">
        <ele>1266.0</ele>
        <time>2013-06-22T13:26:04Z</time>
      </trkpt>
      <trkpt lat="42.659100" lon="-2.287217">
        <ele>1265.0</ele>
        <time>2013-06-22T13:26:05Z</time>
      </trkpt>
      <trkpt lat="42.659133" lon="-2.287167">
        <ele>1264.0</ele>
        <time>2013-06-22T13:26:06Z</time>
      </trkpt>
      <trkpt lat="42.659167" lon="-2.287117">
        <ele>1263.0</ele>
        <time>2013-06-22T13:26:07Z</time>
      </trkpt>
      <trkpt lat="42.659200" lon="-2.287067">
        <ele>1262.0</ele>
        <time>2013-06-22T13:26:08Z</time>
      </trkpt>
      <trkpt lat="42.659233" lon="-2.287000">
        <ele>1263.0</ele>
        <time>2013-06-22T13:26:09Z</time>
      </trkpt>
      <trkpt lat="42.659250" lon="-2.286900">
        <ele>1263.0</ele>
        <time>2013-06-22T13:26:10Z</time>
      </trkpt>
      <trkpt lat="42.659267" lon="-2.286783">
        <ele>1263.0</ele>
        <time>2013-06-22T13:26:11Z</time>
      </trkpt>
      <trkpt lat="42.659300" lon="-2.286650">
        <ele>1261.0</ele>
        <time>2013-06-22T13:26:12Z</time>
      </trkpt>
      <trkpt lat="42.659317" lon="-2.286517">
        <ele>1260.0</ele>
        <time>2013-06-22T13:26:13Z</time>
      </trkpt>
      <trkpt lat="42.659333" lon="-2.286383">
        <ele>1259.0</ele>
        <time>2013-06-22T13:26:14Z</time>
      </trkpt>
      <trkpt lat="42.659333" lon="-2.286250">
        <ele>1259.0</ele>
        <time>2013-06-22T13:26:15Z</time>
      </trkpt>
      <trkpt lat="42.659350" lon="-2.286100">
        <ele>1258.0</ele>
        <time>2013-06-22T13:26:16Z</time>
      </trkpt>
      <trkpt lat="42.659350" lon="-2.285933">
        <ele>1256.0</ele>
        <time>2013-06-22T13:26:17Z</time>
      </trkpt>
      <trkpt lat="42.659350" lon="-2.285767">
        <ele>1254.0</ele>
        <time>2013-06-22T13:26:18Z</time>
      </trkpt>
      <trkpt lat="42.659333" lon="-2.285600">
        <ele>1253.0</ele>
        <time>2013-06-22T13:26:19Z</time>
      </trkpt>
      <trkpt lat="42.659333" lon="-2.285433">
        <ele>1252.0</ele>
        <time>2013-06-22T13:26:20Z</time>
      </trkpt>
      <trkpt lat="42.659317" lon="-2.285267">
        <ele>1251.0</ele>
        <time>2013-06-22T13:26:21Z</time>
      </trkpt>
      <trkpt lat="42.659300" lon="-2.285100">
        <ele>1250.0</ele>
        <time>2013-06-22T13:26:22Z</time>
      </trkpt>
      <trkpt lat="42.659300" lon="-2.284933">
        <ele>1249.0</ele>
        <time>2013-06-22T13:26:23Z</time>
      </trkpt>
      <trkpt lat="42.659300" lon="-2.284750">
        <ele>1249.0</ele>
        <time>2013-06-22T13:26:24Z</time>
      </trkpt>
      <trkpt lat="42.659300" lon="-2.284583">
        <ele>1248.0</ele>
        <time>2013-06-22T13:26:25Z</time>
      </trkpt>
      <trkpt lat="42.659300" lon="-2.284433">
        <ele>1248.0</ele>
        <time>2013-06-22T13:26:26Z</time>
      </trkpt>
      <trkpt lat="42.659283" lon="-2.284283">
        <ele>1248.0</ele>
        <time>2013-06-22T13:26:27Z</time>
      </trkpt>
      <trkpt lat="42.659283" lon="-2.284117">
        <ele>1247.0</ele>
        <time>2013-06-22T13:26:28Z</time>
      </trkpt>
      <trkpt lat="42.659283" lon="-2.283950">
        <ele>1246.0</ele>
        <time>2013-06-22T13:26:29Z</time>
      </trkpt>
      <trkpt lat="42.659283" lon="-2.283800">
        <ele>1245.0</ele>
        <time>2013-06-22T13:26:30Z</time>
      </trkpt>
      <trkpt lat="42.659283" lon="-2.283650">
        <ele>1245.0</ele>
        <time>2013-06-22T13:26:31Z</time>
      </trkpt>
      <trkpt lat="42.659267" lon="-2.283500">
        <ele>1244.0</ele>
        <time>2013-06-22T13:26:32Z</time>
      </trkpt>
      <trkpt lat="42.659267" lon="-2.283333">
        <ele>1243.0</ele>
        <time>2013-06-22T13:26:33Z</time>
      </trkpt>
      <trkpt lat="42.659267" lon="-2.283167">
        <ele>1241.0</ele>
        <time>2013-06-22T13:26:34Z</time>
      </trkpt>
      <trkpt lat="42.659267" lon="-2.282983">
        <ele>1240.0</ele>
        <time>2013-06-22T13:26:35Z</time>
      </trkpt>
      <trkpt lat="42.659283" lon="-2.282800">
        <ele>1239.0</ele>
        <time>2013-06-22T13:26:36Z</time>
      </trkpt>
      <trkpt lat="42.659283" lon="-2.282633">
        <ele>1239.0</ele>
        <time>2013-06-22T13:26:37Z</time>
      </trkpt>
      <trkpt lat="42.659283" lon="-2.282467">
        <ele>1239.0</ele>
        <time>2013-06-22T13:26:38Z</time>
      </trkpt>
      <trkpt lat="42.659267" lon="-2.282300">
        <ele>1239.0</ele>
        <time>2013-06-22T13:26:39Z</time>
      </trkpt>
      <trkpt lat="42.659267" lon="-2.282133">
        <ele>1238.0</ele>
        <time>2013-06-22T13:26:40Z</time>
      </trkpt>
      <trkpt lat="42.659267" lon="-2.281950">
        <ele>1237.0</ele>
        <time>2013-06-22T13:26:41Z</time>
      </trkpt>
      <trkpt lat="42.659250" lon="-2.281767">
        <ele>1236.0</ele>
        <time>2013-06-22T13:26:42Z</time>
      </trkpt>
      <trkpt lat="42.659250" lon="-2.281583">
        <ele>1235.0</ele>
        <time>2013-06-22T13:26:43Z</time>
      </trkpt>
      <trkpt lat="42.659233" lon="-2.281417">
        <ele>1234.0</ele>
        <time>2013-06-22T13:26:44Z</time>
      </trkpt>
      <trkpt lat="42.659217" lon="-2.281233">
        <ele>1233.0</ele>
        <time>2013-06-22T13:26:45Z</time>
      </trkpt>
      <trkpt lat="42.659217" lon="-2.281067">
        <ele>1232.0</ele>
        <time>2013-06-22T13:26:46Z</time>
      </trkpt>
      <trkpt lat="42.659200" lon="-2.280900">
        <ele>1231.0</ele>
        <time>2013-06-22T13:26:47Z</time>
      </trkpt>
      <trkpt lat="42.659167" lon="-2.280717">
        <ele>1230.0</ele>
        <time>2013-06-22T13:26:48Z</time>
      </trkpt>
      <trkpt lat="42.659150" lon="-2.280550">
        <ele>1230.0</ele>
        <time>2013-06-22T13:26:49Z</time>
      </trkpt>
      <trkpt lat="42.659133" lon="-2.280400">
        <ele>1231.0</ele>
        <time>2013-06-22T13:26:50Z</time>
      </trkpt>
      <trkpt lat="42.659117" lon="-2.280233">
        <ele>1230.0</ele>
        <time>2013-06-22T13:26:51Z</time>
      </trkpt>
      <trkpt lat="42.659100" lon="-2.280067">
        <ele>1229.0</ele>
        <time>2013-06-22T13:26:52Z</time>
      </trkpt>
      <trkpt lat="42.659083" lon="-2.279883">
        <ele>1228.0</ele>
        <time>2013-06-22T13:26:53Z</time>
      </trkpt>
      <trkpt lat="42.659067" lon="-2.279717">
        <ele>1228.0</ele>
        <time>2013-06-22T13:26:54Z</time>
      </trkpt>
      <trkpt lat="42.659050" lon="-2.279550">
        <ele>1228.0</ele>
        <time>2013-06-22T13:26:55Z</time>
      </trkpt>
      <trkpt lat="42.659033" lon="-2.279383">
        <ele>1228.0</ele>
        <time>2013-06-22T13:26:56Z</time>
      </trkpt>
      <trkpt lat="42.659017" lon="-2.279217">
        <ele>1227.0</ele>
        <time>2013-06-22T13:26:57Z</time>
      </trkpt>
      <trkpt lat="42.659000" lon="-2.279033">
        <ele>1226.0</ele>
        <time>2013-06-22T13:26:58Z</time>
      </trkpt>
      <trkpt lat="42.658983" lon="-2.278867">
        <ele>1225.0</ele>
        <time>2013-06-22T13:26:59Z</time>
      </trkpt>
      <trkpt lat="42.658967" lon="-2.278683">
        <ele>1225.0</ele>
        <time>2013-06-22T13:27:00Z</time>
      </trkpt>
      <trkpt lat="42.658967" lon="-2.278500">
        <ele>1224.0</ele>
        <time>2013-06-22T13:27:01Z</time>
      </trkpt>
      <trkpt lat="42.658950" lon="-2.278333">
        <ele>1223.0</ele>
        <time>2013-06-22T13:27:02Z</time>
      </trkpt>
      <trkpt lat="42.658950" lon="-2.278150">
        <ele>1222.0</ele>
        <time>2013-06-22T13:27:03Z</time>
      </trkpt>
      <trkpt lat="42.658950" lon="-2.277967">
        <ele>1221.0</ele>
        <time>2013-06-22T13:27:04Z</time>
      </trkpt>
      <trkpt lat="42.658933" lon="-2.277783">
        <ele>1221.0</ele>
        <time>2013-06-22T13:27:05Z</time>
      </trkpt>
      <trkpt lat="42.658933" lon="-2.277600">
        <ele>1221.0</ele>
        <time>2013-06-22T13:27:06Z</time>
      </trkpt>
      <trkpt lat="42.658933" lon="-2.277433">
        <ele>1221.0</ele>
        <time>2013-06-22T13:27:07Z</time>
      </trkpt>
      <trkpt lat="42.658933" lon="-2.277250">
        <ele>1221.0</ele>
        <time>2013-06-22T13:27:08Z</time>
      </trkpt>
      <trkpt lat="42.658933" lon="-2.277067">
        <ele>1221.0</ele>
        <time>2013-06-22T13:27:09Z</time>
      </trkpt>
      <trkpt lat="42.658933" lon="-2.276900">
        <ele>1221.0</ele>
        <time>2013-06-22T13:27:10Z</time>
      </trkpt>
      <trkpt lat="42.658917" lon="-2.276717">
        <ele>1221.0</ele>
        <time>2013-06-22T13:27:11Z</time>
      </trkpt>
      <trkpt lat="42.658883" lon="-2.276533">
        <ele>1221.0</ele>
        <time>2013-06-22T13:27:12Z</time>
      </trkpt>
      <trkpt lat="42.658867" lon="-2.276333">
        <ele>1220.0</ele>
        <time>2013-06-22T13:27:13Z</time>
      </trkpt>
      <trkpt lat="42.658833" lon="-2.276133">
        <ele>1219.0</ele>
        <time>2013-06-22T13:27:14Z</time>
      </trkpt>
      <trkpt lat="42.658817" lon="-2.275933">
        <ele>1218.0</ele>
        <time>2013-06-22T13:27:15Z</time>
      </trkpt>
      <trkpt lat="42.658800" lon="-2.275733">
        <ele>1218.0</ele>
        <time>2013-06-22T13:27:16Z</time>
      </trkpt>
      <trkpt lat="42.658783" lon="-2.275533">
        <ele>1218.0</ele>
        <time>2013-06-22T13:27:17Z</time>
      </trkpt>
      <trkpt lat="42.658767" lon="-2.275350">
        <ele>1218.0</ele>
        <time>2013-06-22T13:27:18Z</time>
      </trkpt>
      <trkpt lat="42.658750" lon="-2.275150">
        <ele>1219.0</ele>
        <time>2013-06-22T13:27:19Z</time>
      </trkpt>
      <trkpt lat="42.658717" lon="-2.274950">
        <ele>1218.0</ele>
        <time>2013-06-22T13:27:20Z</time>
      </trkpt>
      <trkpt lat="42.658683" lon="-2.274750">
        <ele>1215.0</ele>
        <time>2013-06-22T13:27:21Z</time>
      </trkpt>
      <trkpt lat="42.658667" lon="-2.274533">
        <ele>1214.0</ele>
        <time>2013-06-22T13:27:22Z</time>
      </trkpt>
      <trkpt lat="42.658633" lon="-2.274317">
        <ele>1214.0</ele>
        <time>2013-06-22T13:27:23Z</time>
      </trkpt>
      <trkpt lat="42.658600" lon="-2.274100">
        <ele>1213.0</ele>
        <time>2013-06-22T13:27:24Z</time>
      </trkpt>
      <trkpt lat="42.658567" lon="-2.273900">
        <ele>1213.0</ele>
        <time>2013-06-22T13:27:25Z</time>
      </trkpt>
      <trkpt lat="42.658533" lon="-2.273700">
        <ele>1213.0</ele>
        <time>2013-06-22T13:27:26Z</time>
      </trkpt>
      <trkpt lat="42.658500" lon="-2.273517">
        <ele>1213.0</ele>
        <time>2013-06-22T13:27:27Z</time>
      </trkpt>
      <trkpt lat="42.658467" lon="-2.273317">
        <ele>1212.0</ele>
        <time>2013-06-22T13:27:28Z</time>
      </trkpt>
      <trkpt lat="42.658433" lon="-2.273100">
        <ele>1210.0</ele>
        <time>2013-06-22T13:27:29Z</time>
      </trkpt>
      <trkpt lat="42.658383" lon="-2.272883">
        <ele>1208.0</ele>
        <time>2013-06-22T13:27:30Z</time>
      </trkpt>
      <trkpt lat="42.658350" lon="-2.272667">
        <ele>1206.0</ele>
        <time>2013-06-22T13:27:31Z</time>
      </trkpt>
      <trkpt lat="42.658300" lon="-2.272450">
        <ele>1205.0</ele>
        <time>2013-06-22T13:27:32Z</time>
      </trkpt>
      <trkpt lat="42.658267" lon="-2.272233">
        <ele>1206.0</ele>
        <time>2013-06-22T13:27:33Z</time>
      </trkpt>
      <trkpt lat="42.658217" lon="-2.272033">
        <ele>1207.0</ele>
        <time>2013-06-22T13:27:34Z</time>
      </trkpt>
      <trkpt lat="42.658183" lon="-2.271833">
        <ele>1208.0</ele>
        <time>2013-06-22T13:27:35Z</time>
      </trkpt>
      <trkpt lat="42.658133" lon="-2.271650">
        <ele>1208.0</ele>
        <time>2013-06-22T13:27:36Z</time>
      </trkpt>
      <trkpt lat="42.658100" lon="-2.271483">
        <ele>1209.0</ele>
        <time>2013-06-22T13:27:37Z</time>
      </trkpt>
      <trkpt lat="42.658067" lon="-2.271300">
        <ele>1208.0</ele>
        <time>2013-06-22T13:27:38Z</time>
      </trkpt>
      <trkpt lat="42.658050" lon="-2.271083">
        <ele>1207.0</ele>
        <time>2013-06-22T13:27:39Z</time>
      </trkpt>
      <trkpt lat="42.658033" lon="-2.270883">
        <ele>1206.0</ele>
        <time>2013-06-22T13:27:40Z</time>
      </trkpt>
      <trkpt lat="42.658000" lon="-2.270667">
        <ele>1205.0</ele>
        <time>2013-06-22T13:27:41Z</time>
      </trkpt>
      <trkpt lat="42.657967" lon="-2.270467">
        <ele>1205.0</ele>
        <time>2013-06-22T13:27:42Z</time>
      </trkpt>
      <trkpt lat="42.657917" lon="-2.270250">
        <ele>1204.0</ele>
        <time>2013-06-22T13:27:43Z</time>
      </trkpt>
      <trkpt lat="42.657867" lon="-2.270050">
        <ele>1202.0</ele>
        <time>2013-06-22T13:27:44Z</time>
      </trkpt>
      <trkpt lat="42.657817" lon="-2.269833">
        <ele>1201.0</ele>
        <time>2013-06-22T13:27:45Z</time>
      </trkpt>
      <trkpt lat="42.657750" lon="-2.269600">
        <ele>1200.0</ele>
        <time>2013-06-22T13:27:46Z</time>
      </trkpt>
      <trkpt lat="42.657700" lon="-2.269383">
        <ele>1199.0</ele>
        <time>2013-06-22T13:27:47Z</time>
      </trkpt>
      <trkpt lat="42.657633" lon="-2.269183">
        <ele>1199.0</ele>
        <time>2013-06-22T13:27:48Z</time>
      </trkpt>
      <trkpt lat="42.657583" lon="-2.268967">
        <ele>1198.0</ele>
        <time>2013-06-22T13:27:49Z</time>
      </trkpt>
      <trkpt lat="42.657533" lon="-2.268750">
        <ele>1198.0</ele>
        <time>2013-06-22T13:27:50Z</time>
      </trkpt>
      <trkpt lat="42.657483" lon="-2.268533">
        <ele>1197.0</ele>
        <time>2013-06-22T13:27:51Z</time>
      </trkpt>
      <trkpt lat="42.657433" lon="-2.268317">
        <ele>1196.0</ele>
        <time>2013-06-22T13:27:52Z</time>
      </trkpt>
      <trkpt lat="42.657400" lon="-2.268117">
        <ele>1196.0</ele>
        <time>2013-06-22T13:27:53Z</time>
      </trkpt>
      <trkpt lat="42.657367" lon="-2.267900">
        <ele>1193.0</ele>
        <time>2013-06-22T13:27:54Z</time>
      </trkpt>
      <trkpt lat="42.657333" lon="-2.267667">
        <ele>1190.0</ele>
        <time>2013-06-22T13:27:55Z</time>
      </trkpt>
      <trkpt lat="42.657283" lon="-2.267450">
        <ele>1189.0</ele>
        <time>2013-06-22T13:27:56Z</time>
      </trkpt>
      <trkpt lat="42.657233" lon="-2.267250">
        <ele>1188.0</ele>
        <time>2013-06-22T13:27:57Z</time>
      </trkpt>
      <trkpt lat="42.657183" lon="-2.267067">
        <ele>1189.0</ele>
        <time>2013-06-22T13:27:58Z</time>
      </trkpt>
      <trkpt lat="42.657133" lon="-2.266883">
        <ele>1189.0</ele>
        <time>2013-06-22T13:27:59Z</time>
      </trkpt>
      <trkpt lat="42.657067" lon="-2.266700">
        <ele>1188.0</ele>
        <time>2013-06-22T13:28:00Z</time>
      </trkpt>
      <trkpt lat="42.657017" lon="-2.266483">
        <ele>1187.0</ele>
        <time>2013-06-22T13:28:01Z</time>
      </trkpt>
      <trkpt lat="42.656967" lon="-2.266283">
        <ele>1187.0</ele>
        <time>2013-06-22T13:28:02Z</time>
      </trkpt>
      <trkpt lat="42.656917" lon="-2.266083">
        <ele>1188.0</ele>
        <time>2013-06-22T13:28:03Z</time>
      </trkpt>
      <trkpt lat="42.656850" lon="-2.265900">
        <ele>1188.0</ele>
        <time>2013-06-22T13:28:04Z</time>
      </trkpt>
      <trkpt lat="42.656800" lon="-2.265717">
        <ele>1187.0</ele>
        <time>2013-06-22T13:28:05Z</time>
      </trkpt>
      <trkpt lat="42.656750" lon="-2.265533">
        <ele>1185.0</ele>
        <time>2013-06-22T13:28:06Z</time>
      </trkpt>
      <trkpt lat="42.656700" lon="-2.265333">
        <ele>1183.0</ele>
        <time>2013-06-22T13:28:07Z</time>
      </trkpt>
      <trkpt lat="42.656667" lon="-2.265133">
        <ele>1180.0</ele>
        <time>2013-06-22T13:28:08Z</time>
      </trkpt>
      <trkpt lat="42.656617" lon="-2.264933">
        <ele>1177.0</ele>
        <time>2013-06-22T13:28:09Z</time>
      </trkpt>
      <trkpt lat="42.656567" lon="-2.264733">
        <ele>1175.0</ele>
        <time>2013-06-22T13:28:10Z</time>
      </trkpt>
      <trkpt lat="42.656517" lon="-2.264550">
        <ele>1174.0</ele>
        <time>2013-06-22T13:28:11Z</time>
      </trkpt>
      <trkpt lat="42.656450" lon="-2.264350">
        <ele>1172.0</ele>
        <time>2013-06-22T13:28:12Z</time>
      </trkpt>
      <trkpt lat="42.656383" lon="-2.264150">
        <ele>1169.0</ele>
        <time>2013-06-22T13:28:13Z</time>
      </trkpt>
      <trkpt lat="42.656300" lon="-2.263950">
        <ele>1167.0</ele>
        <time>2013-06-22T13:28:14Z</time>
      </trkpt>
      <trkpt lat="42.656233" lon="-2.263767">
        <ele>1166.0</ele>
        <time>2013-06-22T13:28:15Z</time>
      </trkpt>
      <trkpt lat="42.656150" lon="-2.263583">
        <ele>1165.0</ele>
        <time>2013-06-22T13:28:16Z</time>
      </trkpt>
      <trkpt lat="42.656083" lon="-2.263417">
        <ele>1163.0</ele>
        <time>2013-06-22T13:28:17Z</time>
      </trkpt>
      <trkpt lat="42.656000" lon="-2.263233">
        <ele>1161.0</ele>
        <time>2013-06-22T13:28:18Z</time>
      </trkpt>
      <trkpt lat="42.655917" lon="-2.263033">
        <ele>1159.0</ele>
        <time>2013-06-22T13:28:19Z</time>
      </trkpt>
      <trkpt lat="42.655833" lon="-2.262850">
        <ele>1156.0</ele>
        <time>2013-06-22T13:28:20Z</time>
      </trkpt>
      <trkpt lat="42.655750" lon="-2.262667">
        <ele>1155.0</ele>
        <time>2013-06-22T13:28:21Z</time>
      </trkpt>
      <trkpt lat="42.655667" lon="-2.262483">
        <ele>1154.0</ele>
        <time>2013-06-22T13:28:22Z</time>
      </trkpt>
      <trkpt lat="42.655583" lon="-2.262317">
        <ele>1153.0</ele>
        <time>2013-06-22T13:28:23Z</time>
      </trkpt>
      <trkpt lat="42.655517" lon="-2.262150">
        <ele>1152.0</ele>
        <time>2013-06-22T13:28:24Z</time>
      </trkpt>
      <trkpt lat="42.655433" lon="-2.261967">
        <ele>1150.0</ele>
        <time>2013-06-22T13:28:25Z</time>
      </trkpt>
      <trkpt lat="42.655367" lon="-2.261800">
        <ele>1148.0</ele>
        <time>2013-06-22T13:28:26Z</time>
      </trkpt>
      <trkpt lat="42.655283" lon="-2.261600">
        <ele>1145.0</ele>
        <time>2013-06-22T13:28:27Z</time>
      </trkpt>
      <trkpt lat="42.655200" lon="-2.261433">
        <ele>1143.0</ele>
        <time>2013-06-22T13:28:28Z</time>
      </trkpt>
      <trkpt lat="42.655117" lon="-2.261250">
        <ele>1142.0</ele>
        <time>2013-06-22T13:28:29Z</time>
      </trkpt>
      <trkpt lat="42.655033" lon="-2.261100">
        <ele>1141.0</ele>
        <time>2013-06-22T13:28:30Z</time>
      </trkpt>
      <trkpt lat="42.654950" lon="-2.260933">
        <ele>1140.0</ele>
        <time>2013-06-22T13:28:31Z</time>
      </trkpt>
      <trkpt lat="42.654867" lon="-2.260767">
        <ele>1139.0</ele>
        <time>2013-06-22T13:28:32Z</time>
      </trkpt>
      <trkpt lat="42.654783" lon="-2.260600">
        <ele>1137.0</ele>
        <time>2013-06-22T13:28:33Z</time>
      </trkpt>
      <trkpt lat="42.654700" lon="-2.260417">
        <ele>1135.0</ele>
        <time>2013-06-22T13:28:34Z</time>
      </trkpt>
      <trkpt lat="42.654617" lon="-2.260250">
        <ele>1134.0</ele>
        <time>2013-06-22T13:28:35Z</time>
      </trkpt>
      <trkpt lat="42.654517" lon="-2.260083">
        <ele>1132.0</ele>
        <time>2013-06-22T13:28:36Z</time>
      </trkpt>
      <trkpt lat="42.654433" lon="-2.259917">
        <ele>1130.0</ele>
        <time>2013-06-22T13:28:37Z</time>
      </trkpt>
      <trkpt lat="42.654333" lon="-2.259733">
        <ele>1129.0</ele>
        <time>2013-06-22T13:28:38Z</time>
      </trkpt>
      <trkpt lat="42.654250" lon="-2.259567">
        <ele>1127.0</ele>
        <time>2013-06-22T13:28:39Z</time>
      </trkpt>
      <trkpt lat="42.654150" lon="-2.259400">
        <ele>1125.0</ele>
        <time>2013-06-22T13:28:40Z</time>
      </trkpt>
      <trkpt lat="42.654050" lon="-2.259233">
        <ele>1124.0</ele>
        <time>2013-06-22T13:28:41Z</time>
      </trkpt>
      <trkpt lat="42.653967" lon="-2.259050">
        <ele>1123.0</ele>
        <time>2013-06-22T13:28:42Z</time>
      </trkpt>
      <trkpt lat="42.653867" lon="-2.258883">
        <ele>1122.0</ele>
        <time>2013-06-22T13:28:43Z</time>
      </trkpt>
      <trkpt lat="42.653767" lon="-2.258733">
        <ele>1120.0</ele>
        <time>2013-06-22T13:28:44Z</time>
      </trkpt>
      <trkpt lat="42.653683" lon="-2.258600">
        <ele>1119.0</ele>
        <time>2013-06-22T13:28:45Z</time>
      </trkpt>
      <trkpt lat="42.653600" lon="-2.258450">
        <ele>1119.0</ele>
        <time>2013-06-22T13:28:46Z</time>
      </trkpt>
      <trkpt lat="42.653500" lon="-2.258317">
        <ele>1118.0</ele>
        <time>2013-06-22T13:28:47Z</time>
      </trkpt>
      <trkpt lat="42.653417" lon="-2.258167">
        <ele>1118.0</ele>
        <time>2013-06-22T13:28:48Z</time>
      </trkpt>
      <trkpt lat="42.653333" lon="-2.258017">
        <ele>1117.0</ele>
        <time>2013-06-22T13:28:49Z</time>
      </trkpt>
      <trkpt lat="42.653233" lon="-2.257883">
        <ele>1117.0</ele>
        <time>2013-06-22T13:28:50Z</time>
      </trkpt>
      <trkpt lat="42.653150" lon="-2.257733">
        <ele>1116.0</ele>
        <time>2013-06-22T13:28:51Z</time>
      </trkpt>
      <trkpt lat="42.653050" lon="-2.257600">
        <ele>1116.0</ele>
        <time>2013-06-22T13:28:52Z</time>
      </trkpt>
      <trkpt lat="42.652950" lon="-2.257450">
        <ele>1115.0</ele>
        <time>2013-06-22T13:28:53Z</time>
      </trkpt>
      <trkpt lat="42.652867" lon="-2.257317">
        <ele>1114.0</ele>
        <time>2013-06-22T13:28:54Z</time>
      </trkpt>
      <trkpt lat="42.652750" lon="-2.257167">
        <ele>1113.0</ele>
        <time>2013-06-22T13:28:55Z</time>
      </trkpt>
      <trkpt lat="42.652650" lon="-2.257017">
        <ele>1112.0</ele>
        <time>2013-06-22T13:28:56Z</time>
      </trkpt>
      <trkpt lat="42.652550" lon="-2.256883">
        <ele>1111.0</ele>
        <time>2013-06-22T13:28:57Z</time>
      </trkpt>
      <trkpt lat="42.652450" lon="-2.256733">
        <ele>1110.0</ele>
        <time>2013-06-22T13:28:58Z</time>
      </trkpt>
      <trkpt lat="42.652350" lon="-2.256583">
        <ele>1108.0</ele>
        <time>2013-06-22T13:28:59Z</time>
      </trkpt>
      <trkpt lat="42.652250" lon="-2.256417">
        <ele>1107.0</ele>
        <time>2013-06-22T13:29:00Z</time>
      </trkpt>
      <trkpt lat="42.652150" lon="-2.256267">
        <ele>1105.0</ele>
        <time>2013-06-22T13:29:01Z</time>
      </trkpt>
      <trkpt lat="42.652050" lon="-2.256133">
        <ele>1104.0</ele>
        <time>2013-06-22T13:29:02Z</time>
      </trkpt>
      <trkpt lat="42.651967" lon="-2.255983">
        <ele>1102.0</ele>
        <time>2013-06-22T13:29:03Z</time>
      </trkpt>
      <trkpt lat="42.651867" lon="-2.255833">
        <ele>1100.0</ele>
        <time>2013-06-22T13:29:04Z</time>
      </trkpt>
      <trkpt lat="42.651783" lon="-2.255683">
        <ele>1097.0</ele>
        <time>2013-06-22T13:29:05Z</time>
      </trkpt>
      <trkpt lat="42.651683" lon="-2.255533">
        <ele>1095.0</ele>
        <time>2013-06-22T13:29:06Z</time>
      </trkpt>
      <trkpt lat="42.651567" lon="-2.255383">
        <ele>1092.0</ele>
        <time>2013-06-22T13:29:07Z</time>
      </trkpt>
      <trkpt lat="42.651450" lon="-2.255250">
        <ele>1091.0</ele>
        <time>2013-06-22T13:29:08Z</time>
      </trkpt>
      <trkpt lat="42.651350" lon="-2.255117">
        <ele>1089.0</ele>
        <time>2013-06-22T13:29:09Z</time>
      </trkpt>
      <trkpt lat="42.651250" lon="-2.254983">
        <ele>1088.0</ele>
        <time>2013-06-22T13:29:10Z</time>
      </trkpt>
      <trkpt lat="42.651133" lon="-2.254833">
        <ele>1087.0</ele>
        <time>2013-06-22T13:29:11Z</time>
      </trkpt>
      <trkpt lat="42.651033" lon="-2.254700">
        <ele>1085.0</ele>
        <time>2013-06-22T13:29:12Z</time>
      </trkpt>
      <trkpt lat="42.650917" lon="-2.254567">
        <ele>1084.0</ele>
        <time>2013-06-22T13:29:13Z</time>
      </trkpt>
      <trkpt lat="42.650817" lon="-2.254433">
        <ele>1083.0</ele>
        <time>2013-06-22T13:29:14Z</time>
      </trkpt>
      <trkpt lat="42.650700" lon="-2.254300">
        <ele>1082.0</ele>
        <time>2013-06-22T13:29:15Z</time>
      </trkpt>
      <trkpt lat="42.650600" lon="-2.254167">
        <ele>1080.0</ele>
        <time>2013-06-22T13:29:16Z</time>
      </trkpt>
      <trkpt lat="42.650500" lon="-2.254017">
        <ele>1078.0</ele>
        <time>2013-06-22T13:29:17Z</time>
      </trkpt>
      <trkpt lat="42.650383" lon="-2.253867">
        <ele>1076.0</ele>
        <time>2013-06-22T13:29:18Z</time>
      </trkpt>
      <trkpt lat="42.650283" lon="-2.253700">
        <ele>1073.0</ele>
        <time>2013-06-22T13:29:19Z</time>
      </trkpt>
      <trkpt lat="42.650167" lon="-2.253567">
        <ele>1071.0</ele>
        <time>2013-06-22T13:29:20Z</time>
      </trkpt>
      <trkpt lat="42.650067" lon="-2.253417">
        <ele>1070.0</ele>
        <time>2013-06-22T13:29:21Z</time>
      </trkpt>
      <trkpt lat="42.649967" lon="-2.253283">
        <ele>1069.0</ele>
        <time>2013-06-22T13:29:22Z</time>
      </trkpt>
      <trkpt lat="42.649883" lon="-2.253133">
        <ele>1067.0</ele>
        <time>2013-06-22T13:29:23Z</time>
      </trkpt>
      <trkpt lat="42.649767" lon="-2.252983">
        <ele>1065.0</ele>
        <time>2013-06-22T13:29:24Z</time>
      </trkpt>
      <trkpt lat="42.649667" lon="-2.252833">
        <ele>1062.0</ele>
        <time>2013-06-22T13:29:25Z</time>
      </trkpt>
      <trkpt lat="42.649567" lon="-2.252683">
        <ele>1060.0</ele>
        <time>2013-06-22T13:29:26Z</time>
      </trkpt>
      <trkpt lat="42.649467" lon="-2.252533">
        <ele>1059.0</ele>
        <time>2013-06-22T13:29:27Z</time>
      </trkpt>
      <trkpt lat="42.649367" lon="-2.252383">
        <ele>1057.0</ele>
        <time>2013-06-22T13:29:28Z</time>
      </trkpt>
      <trkpt lat="42.649250" lon="-2.252233">
        <ele>1054.0</ele>
        <time>2013-06-22T13:29:29Z</time>
      </trkpt>
      <trkpt lat="42.649150" lon="-2.252083">
        <ele>1051.0</ele>
        <time>2013-06-22T13:29:30Z</time>
      </trkpt>
      <trkpt lat="42.649033" lon="-2.251933">
        <ele>1048.0</ele>
        <time>2013-06-22T13:29:31Z</time>
      </trkpt>
      <trkpt lat="42.648917" lon="-2.251783">
        <ele>1045.0</ele>
        <time>2013-06-22T13:29:32Z</time>
      </trkpt>
      <trkpt lat="42.648800" lon="-2.251633">
        <ele>1042.0</ele>
        <time>2013-06-22T13:29:33Z</time>
      </trkpt>
      <trkpt lat="42.648700" lon="-2.251500">
        <ele>1040.0</ele>
        <time>2013-06-22T13:29:34Z</time>
      </trkpt>
      <trkpt lat="42.648583" lon="-2.251350">
        <ele>1037.0</ele>
        <time>2013-06-22T13:29:35Z</time>
      </trkpt>
      <trkpt lat="42.648483" lon="-2.251200">
        <ele>1034.0</ele>
        <time>2013-06-22T13:29:36Z</time>
      </trkpt>
      <trkpt lat="42.648367" lon="-2.251050">
        <ele>1031.0</ele>
        <time>2013-06-22T13:29:37Z</time>
      </trkpt>
      <trkpt lat="42.648250" lon="-2.250900">
        <ele>1028.0</ele>
        <time>2013-06-22T13:29:38Z</time>
      </trkpt>
      <trkpt lat="42.648150" lon="-2.250750">
        <ele>1026.0</ele>
        <time>2013-06-22T13:29:39Z</time>
      </trkpt>
      <trkpt lat="42.648033" lon="-2.250600">
        <ele>1024.0</ele>
        <time>2013-06-22T13:29:40Z</time>
      </trkpt>
      <trkpt lat="42.647917" lon="-2.250467">
        <ele>1022.0</ele>
        <time>2013-06-22T13:29:41Z</time>
      </trkpt>
      <trkpt lat="42.647817" lon="-2.250333">
        <ele>1019.0</ele>
        <time>2013-06-22T13:29:42Z</time>
      </trkpt>
      <trkpt lat="42.647700" lon="-2.250200">
        <ele>1016.0</ele>
        <time>2013-06-22T13:29:43Z</time>
      </trkpt>
      <trkpt lat="42.647583" lon="-2.250067">
        <ele>1014.0</ele>
        <time>2013-06-22T13:29:44Z</time>
      </trkpt>
      <trkpt lat="42.647467" lon="-2.249933">
        <ele>1011.0</ele>
        <time>2013-06-22T13:29:45Z</time>
      </trkpt>
      <trkpt lat="42.647367" lon="-2.249817">
        <ele>1008.0</ele>
        <time>2013-06-22T13:29:46Z</time>
      </trkpt>
      <trkpt lat="42.647250" lon="-2.249683">
        <ele>1005.0</ele>
        <time>2013-06-22T13:29:47Z</time>
      </trkpt>
      <trkpt lat="42.647133" lon="-2.249533">
        <ele>1002.0</ele>
        <time>2013-06-22T13:29:48Z</time>
      </trkpt>
      <trkpt lat="42.647033" lon="-2.249400">
        <ele>1000.0</ele>
        <time>2013-06-22T13:29:49Z</time>
      </trkpt>
      <trkpt lat="42.646917" lon="-2.249267">
        <ele>998.0</ele>
        <time>2013-06-22T13:29:50Z</time>
      </trkpt>
      <trkpt lat="42.646817" lon="-2.249150">
        <ele>997.0</ele>
        <time>2013-06-22T13:29:51Z</time>
      </trkpt>
      <trkpt lat="42.646717" lon="-2.249033">
        <ele>995.0</ele>
        <time>2013-06-22T13:29:52Z</time>
      </trkpt>
      <trkpt lat="42.646617" lon="-2.248900">
        <ele>992.0</ele>
        <time>2013-06-22T13:29:53Z</time>
      </trkpt>
      <trkpt lat="42.646500" lon="-2.248783">
        <ele>990.0</ele>
        <time>2013-06-22T13:29:54Z</time>
      </trkpt>
      <trkpt lat="42.646383" lon="-2.248650">
        <ele>987.0</ele>
        <time>2013-06-22T13:29:55Z</time>
      </trkpt>
      <trkpt lat="42.646267" lon="-2.248533">
        <ele>985.0</ele>
        <time>2013-06-22T13:29:56Z</time>
      </trkpt>
      <trkpt lat="42.646150" lon="-2.248417">
        <ele>983.0</ele>
        <time>2013-06-22T13:29:57Z</time>
      </trkpt>
      <trkpt lat="42.646017" lon="-2.248300">
        <ele>982.0</ele>
        <time>2013-06-22T13:29:58Z</time>
      </trkpt>
      <trkpt lat="42.645900" lon="-2.248183">
        <ele>980.0</ele>
        <time>2013-06-22T13:29:59Z</time>
      </trkpt>
      <trkpt lat="42.645767" lon="-2.248067">
        <ele>977.0</ele>
        <time>2013-06-22T13:30:00Z</time>
      </trkpt>
      <trkpt lat="42.645633" lon="-2.247950">
        <ele>976.0</ele>
        <time>2013-06-22T13:30:01Z</time>
      </trkpt>
      <trkpt lat="42.645500" lon="-2.247833">
        <ele>975.0</ele>
        <time>2013-06-22T13:30:02Z</time>
      </trkpt>
      <trkpt lat="42.645383" lon="-2.247733">
        <ele>974.0</ele>
        <time>2013-06-22T13:30:03Z</time>
      </trkpt>
      <trkpt lat="42.645267" lon="-2.247617">
        <ele>973.0</ele>
        <time>2013-06-22T13:30:04Z</time>
      </trkpt>
      <trkpt lat="42.645133" lon="-2.247517">
        <ele>972.0</ele>
        <time>2013-06-22T13:30:05Z</time>
      </trkpt>
      <trkpt lat="42.645017" lon="-2.247400">
        <ele>970.0</ele>
        <time>2013-06-22T13:30:06Z</time>
      </trkpt>
      <trkpt lat="42.644883" lon="-2.247300">
        <ele>969.0</ele>
        <time>2013-06-22T13:30:07Z</time>
      </trkpt>
      <trkpt lat="42.644750" lon="-2.247200">
        <ele>968.0</ele>
        <time>2013-06-22T13:30:08Z</time>
      </trkpt>
      <trkpt lat="42.644633" lon="-2.247100">
        <ele>966.0</ele>
        <time>2013-06-22T13:30:09Z</time>
      </trkpt>
      <trkpt lat="42.644500" lon="-2.247000">
        <ele>965.0</ele>
        <time>2013-06-22T13:30:10Z</time>
      </trkpt>
      <trkpt lat="42.644367" lon="-2.246900">
        <ele>963.0</ele>
        <time>2013-06-22T13:30:11Z</time>
      </trkpt>
      <trkpt lat="42.644250" lon="-2.246817">
        <ele>963.0</ele>
        <time>2013-06-22T13:30:12Z</time>
      </trkpt>
      <trkpt lat="42.644117" lon="-2.246750">
        <ele>962.0</ele>
        <time>2013-06-22T13:30:13Z</time>
      </trkpt>
      <trkpt lat="42.644000" lon="-2.246700">
        <ele>961.0</ele>
        <time>2013-06-22T13:30:14Z</time>
      </trkpt>
      <trkpt lat="42.643883" lon="-2.246633">
        <ele>960.0</ele>
        <time>2013-06-22T13:30:15Z</time>
      </trkpt>
      <trkpt lat="42.643750" lon="-2.246567">
        <ele>958.0</ele>
        <time>2013-06-22T13:30:16Z</time>
      </trkpt>
      <trkpt lat="42.643617" lon="-2.246483">
        <ele>957.0</ele>
        <time>2013-06-22T13:30:17Z</time>
      </trkpt>
      <trkpt lat="42.643500" lon="-2.246400">
        <ele>955.0</ele>
        <time>2013-06-22T13:30:18Z</time>
      </trkpt>
      <trkpt lat="42.643383" lon="-2.246317">
        <ele>953.0</ele>
        <time>2013-06-22T13:30:19Z</time>
      </trkpt>
      <trkpt lat="42.643267" lon="-2.246250">
        <ele>952.0</ele>
        <time>2013-06-22T13:30:20Z</time>
      </trkpt>
      <trkpt lat="42.643150" lon="-2.246200">
        <ele>949.0</ele>
        <time>2013-06-22T13:30:21Z</time>
      </trkpt>
      <trkpt lat="42.643033" lon="-2.246133">
        <ele>946.0</ele>
        <time>2013-06-22T13:30:22Z</time>
      </trkpt>
      <trkpt lat="42.642900" lon="-2.246050">
        <ele>942.0</ele>
        <time>2013-06-22T13:30:23Z</time>
      </trkpt>
      <trkpt lat="42.642767" lon="-2.245983">
        <ele>939.0</ele>
        <time>2013-06-22T13:30:24Z</time>
      </trkpt>
      <trkpt lat="42.642633" lon="-2.245900">
        <ele>937.0</ele>
        <time>2013-06-22T13:30:25Z</time>
      </trkpt>
      <trkpt lat="42.642500" lon="-2.245817">
        <ele>936.0</ele>
        <time>2013-06-22T13:30:26Z</time>
      </trkpt>
      <trkpt lat="42.642400" lon="-2.245767">
        <ele>936.0</ele>
        <time>2013-06-22T13:30:27Z</time>
      </trkpt>
      <trkpt lat="42.642283" lon="-2.245700">
        <ele>935.0</ele>
        <time>2013-06-22T13:30:28Z</time>
      </trkpt>
      <trkpt lat="42.642167" lon="-2.245633">
        <ele>934.0</ele>
        <time>2013-06-22T13:30:29Z</time>
      </trkpt>
      <trkpt lat="42.642050" lon="-2.245550">
        <ele>932.0</ele>
        <time>2013-06-22T13:30:30Z</time>
      </trkpt>
      <trkpt lat="42.641917" lon="-2.245467">
        <ele>930.0</ele>
        <time>2013-06-22T13:30:31Z</time>
      </trkpt>
      <trkpt lat="42.641800" lon="-2.245383">
        <ele>929.0</ele>
        <time>2013-06-22T13:30:32Z</time>
      </trkpt>
      <trkpt lat="42.641667" lon="-2.245317">
        <ele>928.0</ele>
        <time>2013-06-22T13:30:33Z</time>
      </trkpt>
      <trkpt lat="42.641550" lon="-2.245267">
        <ele>927.0</ele>
        <time>2013-06-22T13:30:34Z</time>
      </trkpt>
      <trkpt lat="42.641433" lon="-2.245217">
        <ele>926.0</ele>
        <time>2013-06-22T13:30:35Z</time>
      </trkpt>
      <trkpt lat="42.641300" lon="-2.245150">
        <ele>924.0</ele>
        <time>2013-06-22T13:30:36Z</time>
      </trkpt>
      <trkpt lat="42.641183" lon="-2.245083">
        <ele>922.0</ele>
        <time>2013-06-22T13:30:37Z</time>
      </trkpt>
      <trkpt lat="42.641050" lon="-2.245000">
        <ele>920.0</ele>
        <time>2013-06-22T13:30:38Z</time>
      </trkpt>
      <trkpt lat="42.640917" lon="-2.244933">
        <ele>919.0</ele>
        <time>2013-06-22T13:30:39Z</time>
      </trkpt>
      <trkpt lat="42.640800" lon="-2.244867">
        <ele>918.0</ele>
        <time>2013-06-22T13:30:40Z</time>
      </trkpt>
      <trkpt lat="42.640683" lon="-2.244800">
        <ele>917.0</ele>
        <time>2013-06-22T13:30:41Z</time>
      </trkpt>
      <trkpt lat="42.640567" lon="-2.244717">
        <ele>915.0</ele>
        <time>2013-06-22T13:30:42Z</time>
      </trkpt>
      <trkpt lat="42.640450" lon="-2.244633">
        <ele>913.0</ele>
        <time>2013-06-22T13:30:43Z</time>
      </trkpt>
      <trkpt lat="42.640333" lon="-2.244550">
        <ele>910.0</ele>
        <time>2013-06-22T13:30:44Z</time>
      </trkpt>
      <trkpt lat="42.640200" lon="-2.244467">
        <ele>907.0</ele>
        <time>2013-06-22T13:30:45Z</time>
      </trkpt>
      <trkpt lat="42.640067" lon="-2.244383">
        <ele>904.0</ele>
        <time>2013-06-22T13:30:46Z</time>
      </trkpt>
      <trkpt lat="42.639933" lon="-2.244283">
        <ele>902.0</ele>
        <time>2013-06-22T13:30:47Z</time>
      </trkpt>
      <trkpt lat="42.639783" lon="-2.244200">
        <ele>900.0</ele>
        <time>2013-06-22T13:30:48Z</time>
      </trkpt>
      <trkpt lat="42.639650" lon="-2.244117">
        <ele>898.0</ele>
        <time>2013-06-22T13:30:49Z</time>
      </trkpt>
      <trkpt lat="42.639517" lon="-2.244033">
        <ele>897.0</ele>
        <time>2013-06-22T13:30:50Z</time>
      </trkpt>
      <trkpt lat="42.639400" lon="-2.243950">
        <ele>896.0</ele>
        <time>2013-06-22T13:30:51Z</time>
      </trkpt>
      <trkpt lat="42.639250" lon="-2.243883">
        <ele>894.0</ele>
        <time>2013-06-22T13:30:52Z</time>
      </trkpt>
      <trkpt lat="42.639117" lon="-2.243783">
        <ele>892.0</ele>
        <time>2013-06-22T13:30:53Z</time>
      </trkpt>
      <trkpt lat="42.638983" lon="-2.243700">
        <ele>889.0</ele>
        <time>2013-06-22T13:30:54Z</time>
      </trkpt>
      <trkpt lat="42.638850" lon="-2.243600">
        <ele>887.0</ele>
        <time>2013-06-22T13:30:55Z</time>
      </trkpt>
      <trkpt lat="42.638717" lon="-2.243517">
        <ele>885.0</ele>
        <time>2013-06-22T13:30:56Z</time>
      </trkpt>
      <trkpt lat="42.638600" lon="-2.243450">
        <ele>882.0</ele>
        <time>2013-06-22T13:30:57Z</time>
      </trkpt>
      <trkpt lat="42.638467" lon="-2.243367">
        <ele>880.0</ele>
        <time>2013-06-22T13:30:58Z</time>
      </trkpt>
      <trkpt lat="42.638333" lon="-2.243283">
        <ele>877.0</ele>
        <time>2013-06-22T13:30:59Z</time>
      </trkpt>
      <trkpt lat="42.638183" lon="-2.243200">
        <ele>874.0</ele>
        <time>2013-06-22T13:31:00Z</time>
      </trkpt>
      <trkpt lat="42.638033" lon="-2.243117">
        <ele>871.0</ele>
        <time>2013-06-22T13:31:01Z</time>
      </trkpt>
      <trkpt lat="42.637883" lon="-2.243050">
        <ele>869.0</ele>
        <time>2013-06-22T13:31:02Z</time>
      </trkpt>
      <trkpt lat="42.637750" lon="-2.242967">
        <ele>867.0</ele>
        <time>2013-06-22T13:31:03Z</time>
      </trkpt>
      <trkpt lat="42.637633" lon="-2.242883">
        <ele>866.0</ele>
        <time>2013-06-22T13:31:04Z</time>
      </trkpt>
      <trkpt lat="42.637517" lon="-2.242783">
        <ele>865.0</ele>
        <time>2013-06-22T13:31:05Z</time>
      </trkpt>
      <trkpt lat="42.637383" lon="-2.242700">
        <ele>863.0</ele>
        <time>2013-06-22T13:31:06Z</time>
      </trkpt>
      <trkpt lat="42.637233" lon="-2.242617">
        <ele>859.0</ele>
        <time>2013-06-22T13:31:07Z</time>
      </trkpt>
      <trkpt lat="42.637083" lon="-2.242533">
        <ele>855.0</ele>
        <time>2013-06-22T13:31:08Z</time>
      </trkpt>
      <trkpt lat="42.636917" lon="-2.242450">
        <ele>852.0</ele>
        <time>2013-06-22T13:31:09Z</time>
      </trkpt>
      <trkpt lat="42.636767" lon="-2.242367">
        <ele>849.0</ele>
        <time>2013-06-22T13:31:10Z</time>
      </trkpt>
      <trkpt lat="42.636633" lon="-2.242283">
        <ele>848.0</ele>
        <time>2013-06-22T13:31:11Z</time>
      </trkpt>
      <trkpt lat="42.636517" lon="-2.242200">
        <ele>847.0</ele>
        <time>2013-06-22T13:31:12Z</time>
      </trkpt>
      <trkpt lat="42.636383" lon="-2.242133">
        <ele>845.0</ele>
        <time>2013-06-22T13:31:13Z</time>
      </trkpt>
      <trkpt lat="42.636233" lon="-2.242050">
        <ele>842.0</ele>
        <time>2013-06-22T13:31:14Z</time>
      </trkpt>
      <trkpt lat="42.636083" lon="-2.241950">
        <ele>839.0</ele>
        <time>2013-06-22T13:31:15Z</time>
      </trkpt>
      <trkpt lat="42.635933" lon="-2.241850">
        <ele>837.0</ele>
        <time>2013-06-22T13:31:16Z</time>
      </trkpt>
      <trkpt lat="42.635800" lon="-2.241767">
        <ele>835.0</ele>
        <time>2013-06-22T13:31:17Z</time>
      </trkpt>
      <trkpt lat="42.635683" lon="-2.241683">
        <ele>834.0</ele>
        <time>2013-06-22T13:31:18Z</time>
      </trkpt>
      <trkpt lat="42.635567" lon="-2.241600">
        <ele>832.0</ele>
        <time>2013-06-22T13:31:19Z</time>
      </trkpt>
      <trkpt lat="42.635433" lon="-2.241533">
        <ele>830.0</ele>
        <time>2013-06-22T13:31:20Z</time>
      </trkpt>
      <trkpt lat="42.635300" lon="-2.241450">
        <ele>827.0</ele>
        <time>2013-06-22T13:31:21Z</time>
      </trkpt>
      <trkpt lat="42.635167" lon="-2.241367">
        <ele>824.0</ele>
        <time>2013-06-22T13:31:22Z</time>
      </trkpt>
      <trkpt lat="42.635017" lon="-2.241283">
        <ele>822.0</ele>
        <time>2013-06-22T13:31:23Z</time>
      </trkpt>
      <trkpt lat="42.634883" lon="-2.241200">
        <ele>821.0</ele>
        <time>2013-06-22T13:31:24Z</time>
      </trkpt>
      <trkpt lat="42.634767" lon="-2.241133">
        <ele>820.0</ele>
        <time>2013-06-22T13:31:25Z</time>
      </trkpt>
      <trkpt lat="42.634617" lon="-2.241050">
        <ele>818.0</ele>
        <time>2013-06-22T13:31:26Z</time>
      </trkpt>
      <trkpt lat="42.634483" lon="-2.240967">
        <ele>816.0</ele>
        <time>2013-06-22T13:31:27Z</time>
      </trkpt>
      <trkpt lat="42.634333" lon="-2.240883">
        <ele>813.0</ele>
        <time>2013-06-22T13:31:28Z</time>
      </trkpt>
      <trkpt lat="42.634200" lon="-2.240817">
        <ele>812.0</ele>
        <time>2013-06-22T13:31:29Z</time>
      </trkpt>
      <trkpt lat="42.634083" lon="-2.240750">
        <ele>810.0</ele>
        <time>2013-06-22T13:31:30Z</time>
      </trkpt>
      <trkpt lat="42.633967" lon="-2.240683">
        <ele>808.0</ele>
        <time>2013-06-22T13:31:31Z</time>
      </trkpt>
      <trkpt lat="42.633833" lon="-2.240600">
        <ele>805.0</ele>
        <time>2013-06-22T13:31:32Z</time>
      </trkpt>
      <trkpt lat="42.633717" lon="-2.240533">
        <ele>802.0</ele>
        <time>2013-06-22T13:31:33Z</time>
      </trkpt>
      <trkpt lat="42.633567" lon="-2.240450">
        <ele>798.0</ele>
        <time>2013-06-22T13:31:34Z</time>
      </trkpt>
      <trkpt lat="42.633417" lon="-2.240383">
        <ele>795.0</ele>
        <time>2013-06-22T13:31:35Z</time>
      </trkpt>
      <trkpt lat="42.633283" lon="-2.240317">
        <ele>792.0</ele>
        <time>2013-06-22T13:31:36Z</time>
      </trkpt>
      <trkpt lat="42.633150" lon="-2.240267">
        <ele>790.0</ele>
        <time>2013-06-22T13:31:37Z</time>
      </trkpt>
      <trkpt lat="42.633033" lon="-2.240200">
        <ele>788.0</ele>
        <time>2013-06-22T13:31:38Z</time>
      </trkpt>
      <trkpt lat="42.632900" lon="-2.240133">
        <ele>786.0</ele>
        <time>2013-06-22T13:31:39Z</time>
      </trkpt>
      <trkpt lat="42.632767" lon="-2.240067">
        <ele>783.0</ele>
        <time>2013-06-22T13:31:40Z</time>
      </trkpt>
      <trkpt lat="42.632617" lon="-2.240000">
        <ele>781.0</ele>
        <time>2013-06-22T13:31:41Z</time>
      </trkpt>
      <trkpt lat="42.632483" lon="-2.239933">
        <ele>779.0</ele>
        <time>2013-06-22T13:31:42Z</time>
      </trkpt>
      <trkpt lat="42.632367" lon="-2.239883">
        <ele>778.0</ele>
        <time>2013-06-22T13:31:43Z</time>
      </trkpt>
      <trkpt lat="42.632267" lon="-2.239833">
        <ele>777.0</ele>
        <time>2013-06-22T13:31:44Z</time>
      </trkpt>
      <trkpt lat="42.632167" lon="-2.239767">
        <ele>776.0</ele>
        <time>2013-06-22T13:31:45Z</time>
      </trkpt>
      <trkpt lat="42.632050" lon="-2.239683">
        <ele>774.0</ele>
        <time>2013-06-22T13:31:46Z</time>
      </trkpt>
      <trkpt lat="42.631917" lon="-2.239583">
        <ele>772.0</ele>
        <time>2013-06-22T13:31:47Z</time>
      </trkpt>
      <trkpt lat="42.631783" lon="-2.239500">
        <ele>770.0</ele>
        <time>2013-06-22T13:31:48Z</time>
      </trkpt>
      <trkpt lat="42.631650" lon="-2.239400">
        <ele>769.0</ele>
        <time>2013-06-22T13:31:49Z</time>
      </trkpt>
      <trkpt lat="42.631533" lon="-2.239333">
        <ele>771.0</ele>
        <time>2013-06-22T13:31:50Z</time>
      </trkpt>
      <trkpt lat="42.631417" lon="-2.239250">
        <ele>772.0</ele>
        <time>2013-06-22T13:31:51Z</time>
      </trkpt>
      <trkpt lat="42.631283" lon="-2.239183">
        <ele>772.0</ele>
        <time>2013-06-22T13:31:52Z</time>
      </trkpt>
      <trkpt lat="42.631150" lon="-2.239133">
        <ele>773.0</ele>
        <time>2013-06-22T13:31:53Z</time>
      </trkpt>
      <trkpt lat="42.631017" lon="-2.239083">
        <ele>773.0</ele>
        <time>2013-06-22T13:31:54Z</time>
      </trkpt>
      <trkpt lat="42.630883" lon="-2.239083">
        <ele>774.0</ele>
        <time>2013-06-22T13:31:55Z</time>
      </trkpt>
      <trkpt lat="42.630750" lon="-2.239100">
        <ele>775.0</ele>
        <time>2013-06-22T13:31:56Z</time>
      </trkpt>
      <trkpt lat="42.630633" lon="-2.239167">
        <ele>775.0</ele>
        <time>2013-06-22T13:31:57Z</time>
      </trkpt>
      <trkpt lat="42.630550" lon="-2.239233">
        <ele>776.0</ele>
        <time>2013-06-22T13:31:58Z</time>
      </trkpt>
      <trkpt lat="42.630483" lon="-2.239317">
        <ele>778.0</ele>
        <time>2013-06-22T13:31:59Z</time>
      </trkpt>
      <trkpt lat="42.630417" lon="-2.239367">
        <ele>780.0</ele>
        <time>2013-06-22T13:32:00Z</time>
      </trkpt>
      <trkpt lat="42.630367" lon="-2.239433">
        <ele>782.0</ele>
        <time>2013-06-22T13:32:01Z</time>
      </trkpt>
      <trkpt lat="42.630317" lon="-2.239500">
        <ele>779.0</ele>
        <time>2013-06-22T13:32:02Z</time>
      </trkpt>
      <trkpt lat="42.630283" lon="-2.239567">
        <ele>781.0</ele>
        <time>2013-06-22T13:32:03Z</time>
      </trkpt>
      <trkpt lat="42.630267" lon="-2.239633">
        <ele>782.0</ele>
        <time>2013-06-22T13:32:04Z</time>
      </trkpt>
      <trkpt lat="42.630283" lon="-2.239667">
        <ele>783.0</ele>
        <time>2013-06-22T13:32:05Z</time>
      </trkpt>
      <trkpt lat="42.630283" lon="-2.239683">
        <ele>785.0</ele>
        <time>2013-06-22T13:32:06Z</time>
      </trkpt>
      <trkpt lat="42.630283" lon="-2.239683">
        <ele>787.0</ele>
        <time>2013-06-22T13:32:07Z</time>
      </trkpt>
      <trkpt lat="42.630300" lon="-2.239683">
        <ele>789.0</ele>
        <time>2013-06-22T13:32:08Z</time>
      </trkpt>
      <trkpt lat="42.630333" lon="-2.239683">
        <ele>789.0</ele>
        <time>2013-06-22T13:32:09Z</time>
      </trkpt>
      <trkpt lat="42.630350" lon="-2.239667">
        <ele>789.0</ele>
        <time>2013-06-22T13:32:10Z</time>
      </trkpt>
      <trkpt lat="42.630367" lon="-2.239633">
        <ele>788.0</ele>
        <time>2013-06-22T13:32:11Z</time>
      </trkpt>
      <trkpt lat="42.630383" lon="-2.239567">
        <ele>788.0</ele>
        <time>2013-06-22T13:32:12Z</time>
      </trkpt>
      <trkpt lat="42.630400" lon="-2.239500">
        <ele>787.0</ele>
        <time>2013-06-22T13:32:13Z</time>
      </trkpt>
      <trkpt lat="42.630400" lon="-2.239417">
        <ele>787.0</ele>
        <time>2013-06-22T13:32:14Z</time>
      </trkpt>
      <trkpt lat="42.630400" lon="-2.239333">
        <ele>786.0</ele>
        <time>2013-06-22T13:32:15Z</time>
      </trkpt>
      <trkpt lat="42.630383" lon="-2.239250">
        <ele>786.0</ele>
        <time>2013-06-22T13:32:16Z</time>
      </trkpt>
      <trkpt lat="42.630383" lon="-2.239167">
        <ele>785.0</ele>
        <time>2013-06-22T13:32:17Z</time>
      </trkpt>
      <trkpt lat="42.630367" lon="-2.239083">
        <ele>784.0</ele>
        <time>2013-06-22T13:32:18Z</time>
      </trkpt>
      <trkpt lat="42.630350" lon="-2.238967">
        <ele>782.0</ele>
        <time>2013-06-22T13:32:19Z</time>
      </trkpt>
      <trkpt lat="42.630317" lon="-2.238850">
        <ele>780.0</ele>
        <time>2013-06-22T13:32:20Z</time>
      </trkpt>
      <trkpt lat="42.630283" lon="-2.238717">
        <ele>778.0</ele>
        <time>2013-06-22T13:32:21Z</time>
      </trkpt>
      <trkpt lat="42.630217" lon="-2.238583">
        <ele>776.0</ele>
        <time>2013-06-22T13:32:22Z</time>
      </trkpt>
      <trkpt lat="42.630133" lon="-2.238467">
        <ele>774.0</ele>
        <time>2013-06-22T13:32:23Z</time>
      </trkpt>
      <trkpt lat="42.630033" lon="-2.238367">
        <ele>772.0</ele>
        <time>2013-06-22T13:32:24Z</time>
      </trkpt>
      <trkpt lat="42.629933" lon="-2.238267">
        <ele>770.0</ele>
        <time>2013-06-22T13:32:25Z</time>
      </trkpt>
      <trkpt lat="42.629817" lon="-2.238200">
        <ele>768.0</ele>
        <time>2013-06-22T13:32:26Z</time>
      </trkpt>
      <trkpt lat="42.629700" lon="-2.238133">
        <ele>767.0</ele>
        <time>2013-06-22T13:32:27Z</time>
      </trkpt>
      <trkpt lat="42.629583" lon="-2.238067">
        <ele>765.0</ele>
        <time>2013-06-22T13:32:28Z</time>
      </trkpt>
      <trkpt lat="42.629467" lon="-2.237983">
        <ele>764.0</ele>
        <time>2013-06-22T13:32:29Z</time>
      </trkpt>
      <trkpt lat="42.629333" lon="-2.237917">
        <ele>763.0</ele>
        <time>2013-06-22T13:32:30Z</time>
      </trkpt>
      <trkpt lat="42.629217" lon="-2.237833">
        <ele>763.0</ele>
        <time>2013-06-22T13:32:31Z</time>
      </trkpt>
      <trkpt lat="42.629117" lon="-2.237750">
        <ele>765.0</ele>
        <time>2013-06-22T13:32:32Z</time>
      </trkpt>
      <trkpt lat="42.629000" lon="-2.237683">
        <ele>765.0</ele>
        <time>2013-06-22T13:32:33Z</time>
      </trkpt>
      <trkpt lat="42.628883" lon="-2.237600">
        <ele>765.0</ele>
        <time>2013-06-22T13:32:34Z</time>
      </trkpt>
      <trkpt lat="42.628750" lon="-2.237550">
        <ele>764.0</ele>
        <time>2013-06-22T13:32:35Z</time>
      </trkpt>
      <trkpt lat="42.628617" lon="-2.237483">
        <ele>763.0</ele>
        <time>2013-06-22T13:32:36Z</time>
      </trkpt>
      <trkpt lat="42.628467" lon="-2.237417">
        <ele>763.0</ele>
        <time>2013-06-22T13:32:37Z</time>
      </trkpt>
      <trkpt lat="42.628333" lon="-2.237367">
        <ele>763.0</ele>
        <time>2013-06-22T13:32:38Z</time>
      </trkpt>
      <trkpt lat="42.628200" lon="-2.237300">
        <ele>763.0</ele>
        <time>2013-06-22T13:32:39Z</time>
      </trkpt>
      <trkpt lat="42.628067" lon="-2.237250">
        <ele>764.0</ele>
        <time>2013-06-22T13:32:40Z</time>
      </trkpt>
      <trkpt lat="42.627933" lon="-2.237200">
        <ele>764.0</ele>
        <time>2013-06-22T13:32:41Z</time>
      </trkpt>
      <trkpt lat="42.627800" lon="-2.237183">
        <ele>765.0</ele>
        <time>2013-06-22T13:32:42Z</time>
      </trkpt>
      <trkpt lat="42.627650" lon="-2.237167">
        <ele>765.0</ele>
        <time>2013-06-22T13:32:43Z</time>
      </trkpt>
      <trkpt lat="42.627517" lon="-2.237200">
        <ele>766.0</ele>
        <time>2013-06-22T13:32:44Z</time>
      </trkpt>
      <trkpt lat="42.627417" lon="-2.237250">
        <ele>766.0</ele>
        <time>2013-06-22T13:32:45Z</time>
      </trkpt>
      <trkpt lat="42.627317" lon="-2.237317">
        <ele>767.0</ele>
        <time>2013-06-22T13:32:46Z</time>
      </trkpt>
      <trkpt lat="42.627233" lon="-2.237383">
        <ele>767.0</ele>
        <time>2013-06-22T13:32:47Z</time>
      </trkpt>
      <trkpt lat="42.627167" lon="-2.237450">
        <ele>766.0</ele>
        <time>2013-06-22T13:32:48Z</time>
      </trkpt>
      <trkpt lat="42.627100" lon="-2.237533">
        <ele>766.0</ele>
        <time>2013-06-22T13:32:49Z</time>
      </trkpt>
      <trkpt lat="42.627033" lon="-2.237617">
        <ele>766.0</ele>
        <time>2013-06-22T13:32:50Z</time>
      </trkpt>
      <trkpt lat="42.626967" lon="-2.237683">
        <ele>767.0</ele>
        <time>2013-06-22T13:32:51Z</time>
      </trkpt>
      <trkpt lat="42.626933" lon="-2.237750">
        <ele>768.0</ele>
        <time>2013-06-22T13:32:52Z</time>
      </trkpt>
      <trkpt lat="42.626883" lon="-2.237783">
        <ele>770.0</ele>
        <time>2013-06-22T13:32:53Z</time>
      </trkpt>
      <trkpt lat="42.626850" lon="-2.237833">
        <ele>771.0</ele>
        <time>2013-06-22T13:32:54Z</time>
      </trkpt>
      <trkpt lat="42.626833" lon="-2.237883">
        <ele>772.0</ele>
        <time>2013-06-22T13:32:55Z</time>
      </trkpt>
      <trkpt lat="42.626817" lon="-2.237917">
        <ele>773.0</ele>
        <time>2013-06-22T13:32:56Z</time>
      </trkpt>
      <trkpt lat="42.626817" lon="-2.237950">
        <ele>773.0</ele>
        <time>2013-06-22T13:32:57Z</time>
      </trkpt>
      <trkpt lat="42.626833" lon="-2.237933">
        <ele>773.0</ele>
        <time>2013-06-22T13:32:58Z</time>
      </trkpt>
      <trkpt lat="42.626833" lon="-2.237900">
        <ele>773.0</ele>
        <time>2013-06-22T13:32:59Z</time>
      </trkpt>
      <trkpt lat="42.626850" lon="-2.237867">
        <ele>773.0</ele>
        <time>2013-06-22T13:33:00Z</time>
      </trkpt>
      <trkpt lat="42.626867" lon="-2.237817">
        <ele>774.0</ele>
        <time>2013-06-22T13:33:01Z</time>
      </trkpt>
      <trkpt lat="42.626883" lon="-2.237733">
        <ele>774.0</ele>
        <time>2013-06-22T13:33:02Z</time>
      </trkpt>
      <trkpt lat="42.626900" lon="-2.237650">
        <ele>774.0</ele>
        <time>2013-06-22T13:33:03Z</time>
      </trkpt>
      <trkpt lat="42.626900" lon="-2.237533">
        <ele>774.0</ele>
        <time>2013-06-22T13:33:04Z</time>
      </trkpt>
      <trkpt lat="42.626883" lon="-2.237400">
        <ele>774.0</ele>
        <time>2013-06-22T13:33:05Z</time>
      </trkpt>
      <trkpt lat="42.626850" lon="-2.237283">
        <ele>775.0</ele>
        <time>2013-06-22T13:33:06Z</time>
      </trkpt>
      <trkpt lat="42.626817" lon="-2.237167">
        <ele>775.0</ele>
        <time>2013-06-22T13:33:07Z</time>
      </trkpt>
      <trkpt lat="42.626767" lon="-2.237033">
        <ele>776.0</ele>
        <time>2013-06-22T13:33:08Z</time>
      </trkpt>
      <trkpt lat="42.626700" lon="-2.236917">
        <ele>776.0</ele>
        <time>2013-06-22T13:33:09Z</time>
      </trkpt>
      <trkpt lat="42.626633" lon="-2.236800">
        <ele>776.0</ele>
        <time>2013-06-22T13:33:10Z</time>
      </trkpt>
      <trkpt lat="42.626533" lon="-2.236683">
        <ele>776.0</ele>
        <time>2013-06-22T13:33:11Z</time>
      </trkpt>
      <trkpt lat="42.626400" lon="-2.236600">
        <ele>776.0</ele>
        <time>2013-06-22T13:33:12Z</time>
      </trkpt>
      <trkpt lat="42.626283" lon="-2.236500">
        <ele>776.0</ele>
        <time>2013-06-22T13:33:13Z</time>
      </trkpt>
      <trkpt lat="42.626167" lon="-2.236417">
        <ele>776.0</ele>
        <time>2013-06-22T13:33:14Z</time>
      </trkpt>
      <trkpt lat="42.626050" lon="-2.236333">
        <ele>777.0</ele>
        <time>2013-06-22T13:33:15Z</time>
      </trkpt>
      <trkpt lat="42.625933" lon="-2.236267">
        <ele>777.0</ele>
        <time>2013-06-22T13:33:16Z</time>
      </trkpt>
      <trkpt lat="42.625800" lon="-2.236233">
        <ele>777.0</ele>
        <time>2013-06-22T13:33:17Z</time>
      </trkpt>
      <trkpt lat="42.625667" lon="-2.236217">
        <ele>777.0</ele>
        <time>2013-06-22T13:33:18Z</time>
      </trkpt>
      <trkpt lat="42.625550" lon="-2.236233">
        <ele>777.0</ele>
        <time>2013-06-22T13:33:19Z</time>
      </trkpt>
      <trkpt lat="42.625433" lon="-2.236267">
        <ele>777.0</ele>
        <time>2013-06-22T13:33:20Z</time>
      </trkpt>
      <trkpt lat="42.625300" lon="-2.236283">
        <ele>777.0</ele>
        <time>2013-06-22T13:33:21Z</time>
      </trkpt>
      <trkpt lat="42.625183" lon="-2.236333">
        <ele>777.0</ele>
        <time>2013-06-22T13:33:22Z</time>
      </trkpt>
      <trkpt lat="42.625083" lon="-2.236367">
        <ele>777.0</ele>
        <time>2013-06-22T13:33:23Z</time>
      </trkpt>
      <trkpt lat="42.624967" lon="-2.236450">
        <ele>777.0</ele>
        <time>2013-06-22T13:33:24Z</time>
      </trkpt>
      <trkpt lat="42.624883" lon="-2.236517">
        <ele>776.0</ele>
        <time>2013-06-22T13:33:25Z</time>
      </trkpt>
      <trkpt lat="42.624800" lon="-2.236600">
        <ele>778.0</ele>
        <time>2013-06-22T13:33:26Z</time>
      </trkpt>
      <trkpt lat="42.624750" lon="-2.236633">
        <ele>780.0</ele>
        <time>2013-06-22T13:33:27Z</time>
      </trkpt>
      <trkpt lat="42.624700" lon="-2.236667">
        <ele>781.0</ele>
        <time>2013-06-22T13:33:28Z</time>
      </trkpt>
      <trkpt lat="42.624683" lon="-2.236700">
        <ele>782.0</ele>
        <time>2013-06-22T13:33:29Z</time>
      </trkpt>
      <trkpt lat="42.624667" lon="-2.236767">
        <ele>782.0</ele>
        <time>2013-06-22T13:33:30Z</time>
      </trkpt>
      <trkpt lat="42.624650" lon="-2.236833">
        <ele>782.0</ele>
        <time>2013-06-22T13:33:31Z</time>
      </trkpt>
      <trkpt lat="42.624633" lon="-2.236900">
        <ele>782.0</ele>
        <time>2013-06-22T13:33:32Z</time>
      </trkpt>
      <trkpt lat="42.624650" lon="-2.236933">
        <ele>782.0</ele>
        <time>2013-06-22T13:33:33Z</time>
      </trkpt>
      <trkpt lat="42.624667" lon="-2.236950">
        <ele>782.0</ele>
        <time>2013-06-22T13:33:34Z</time>
      </trkpt>
      <trkpt lat="42.624700" lon="-2.236967">
        <ele>781.0</ele>
        <time>2013-06-22T13:33:35Z</time>
      </trkpt>
      <trkpt lat="42.624717" lon="-2.236950">
        <ele>781.0</ele>
        <time>2013-06-22T13:33:36Z</time>
      </trkpt>
      <trkpt lat="42.624733" lon="-2.236917">
        <ele>782.0</ele>
        <time>2013-06-22T13:33:37Z</time>
      </trkpt>
      <trkpt lat="42.624750" lon="-2.236883">
        <ele>782.0</ele>
        <time>2013-06-22T13:33:38Z</time>
      </trkpt>
      <trkpt lat="42.624750" lon="-2.236817">
        <ele>782.0</ele>
        <time>2013-06-22T13:33:39Z</time>
      </trkpt>
      <trkpt lat="42.624750" lon="-2.236767">
        <ele>780.0</ele>
        <time>2013-06-22T13:33:40Z</time>
      </trkpt>
      <trkpt lat="42.624783" lon="-2.236683">
        <ele>778.0</ele>
        <time>2013-06-22T13:33:41Z</time>
      </trkpt>
      <trkpt lat="42.624817" lon="-2.236600">
        <ele>776.0</ele>
        <time>2013-06-22T13:33:42Z</time>
      </trkpt>
      <trkpt lat="42.624833" lon="-2.236483">
        <ele>776.0</ele>
        <time>2013-06-22T13:33:43Z</time>
      </trkpt>
      <trkpt lat="42.624817" lon="-2.236350">
        <ele>776.0</ele>
        <time>2013-06-22T13:33:44Z</time>
      </trkpt>
      <trkpt lat="42.624783" lon="-2.236233">
        <ele>776.0</ele>
        <time>2013-06-22T13:33:45Z</time>
      </trkpt>
      <trkpt lat="42.624733" lon="-2.236100">
        <ele>778.0</ele>
        <time>2013-06-22T13:33:46Z</time>
      </trkpt>
      <trkpt lat="42.624683" lon="-2.235967">
        <ele>779.0</ele>
        <time>2013-06-22T13:33:47Z</time>
      </trkpt>
      <trkpt lat="42.624633" lon="-2.235833">
        <ele>780.0</ele>
        <time>2013-06-22T13:33:48Z</time>
      </trkpt>
      <trkpt lat="42.624567" lon="-2.235683">
        <ele>780.0</ele>
        <time>2013-06-22T13:33:49Z</time>
      </trkpt>
      <trkpt lat="42.624500" lon="-2.235517">
        <ele>781.0</ele>
        <time>2013-06-22T13:33:50Z</time>
      </trkpt>
      <trkpt lat="42.624433" lon="-2.235383">
        <ele>781.0</ele>
        <time>2013-06-22T13:33:51Z</time>
      </trkpt>
      <trkpt lat="42.624350" lon="-2.235250">
        <ele>783.0</ele>
        <time>2013-06-22T13:33:52Z</time>
      </trkpt>
      <trkpt lat="42.624267" lon="-2.235150">
        <ele>784.0</ele>
        <time>2013-06-22T13:33:53Z</time>
      </trkpt>
      <trkpt lat="42.624183" lon="-2.235050">
        <ele>786.0</ele>
        <time>2013-06-22T13:33:54Z</time>
      </trkpt>
      <trkpt lat="42.624083" lon="-2.234967">
        <ele>787.0</ele>
        <time>2013-06-22T13:33:55Z</time>
      </trkpt>
      <trkpt lat="42.623967" lon="-2.234867">
        <ele>787.0</ele>
        <time>2013-06-22T13:33:56Z</time>
      </trkpt>
      <trkpt lat="42.623850" lon="-2.234783">
        <ele>788.0</ele>
        <time>2013-06-22T13:33:57Z</time>
      </trkpt>
      <trkpt lat="42.623717" lon="-2.234717">
        <ele>788.0</ele>
        <time>2013-06-22T13:33:58Z</time>
      </trkpt>
      <trkpt lat="42.623583" lon="-2.234700">
        <ele>789.0</ele>
        <time>2013-06-22T13:33:59Z</time>
      </trkpt>
      <trkpt lat="42.623467" lon="-2.234717">
        <ele>790.0</ele>
        <time>2013-06-22T13:34:00Z</time>
      </trkpt>
      <trkpt lat="42.623350" lon="-2.234733">
        <ele>791.0</ele>
        <time>2013-06-22T13:34:01Z</time>
      </trkpt>
      <trkpt lat="42.623233" lon="-2.234783">
        <ele>791.0</ele>
        <time>2013-06-22T13:34:02Z</time>
      </trkpt>
      <trkpt lat="42.623133" lon="-2.234817">
        <ele>792.0</ele>
        <time>2013-06-22T13:34:03Z</time>
      </trkpt>
      <trkpt lat="42.623033" lon="-2.234883">
        <ele>792.0</ele>
        <time>2013-06-22T13:34:04Z</time>
      </trkpt>
      <trkpt lat="42.622967" lon="-2.234967">
        <ele>792.0</ele>
        <time>2013-06-22T13:34:05Z</time>
      </trkpt>
      <trkpt lat="42.622900" lon="-2.235017">
        <ele>790.0</ele>
        <time>2013-06-22T13:34:06Z</time>
      </trkpt>
      <trkpt lat="42.622850" lon="-2.235100">
        <ele>792.0</ele>
        <time>2013-06-22T13:34:07Z</time>
      </trkpt>
      <trkpt lat="42.622800" lon="-2.235167">
        <ele>790.0</ele>
        <time>2013-06-22T13:34:08Z</time>
      </trkpt>
      <trkpt lat="42.622783" lon="-2.235250">
        <ele>790.0</ele>
        <time>2013-06-22T13:34:09Z</time>
      </trkpt>
      <trkpt lat="42.622767" lon="-2.235317">
        <ele>788.0</ele>
        <time>2013-06-22T13:34:10Z</time>
      </trkpt>
      <trkpt lat="42.622767" lon="-2.235350">
        <ele>789.0</ele>
        <time>2013-06-22T13:34:11Z</time>
      </trkpt>
      <trkpt lat="42.622767" lon="-2.235367">
        <ele>790.0</ele>
        <time>2013-06-22T13:34:12Z</time>
      </trkpt>
      <trkpt lat="42.622783" lon="-2.235350">
        <ele>791.0</ele>
        <time>2013-06-22T13:34:13Z</time>
      </trkpt>
      <trkpt lat="42.622800" lon="-2.235333">
        <ele>790.0</ele>
        <time>2013-06-22T13:34:14Z</time>
      </trkpt>
      <trkpt lat="42.622833" lon="-2.235317">
        <ele>789.0</ele>
        <time>2013-06-22T13:34:15Z</time>
      </trkpt>
      <trkpt lat="42.622867" lon="-2.235283">
        <ele>789.0</ele>
        <time>2013-06-22T13:34:16Z</time>
      </trkpt>
      <trkpt lat="42.622900" lon="-2.235217">
        <ele>789.0</ele>
        <time>2013-06-22T13:34:17Z</time>
      </trkpt>
      <trkpt lat="42.622917" lon="-2.235133">
        <ele>789.0</ele>
        <time>2013-06-22T13:34:18Z</time>
      </trkpt>
      <trkpt lat="42.622933" lon="-2.235017">
        <ele>789.0</ele>
        <time>2013-06-22T13:34:19Z</time>
      </trkpt>
      <trkpt lat="42.622950" lon="-2.234900">
        <ele>789.0</ele>
        <time>2013-06-22T13:34:20Z</time>
      </trkpt>
      <trkpt lat="42.622967" lon="-2.234783">
        <ele>790.0</ele>
        <time>2013-06-22T13:34:21Z</time>
      </trkpt>
      <trkpt lat="42.622967" lon="-2.234650">
        <ele>791.0</ele>
        <time>2013-06-22T13:34:22Z</time>
      </trkpt>
      <trkpt lat="42.622950" lon="-2.234517">
        <ele>792.0</ele>
        <time>2013-06-22T13:34:23Z</time>
      </trkpt>
      <trkpt lat="42.622917" lon="-2.234383">
        <ele>793.0</ele>
        <time>2013-06-22T13:34:24Z</time>
      </trkpt>
      <trkpt lat="42.622883" lon="-2.234267">
        <ele>795.0</ele>
        <time>2013-06-22T13:34:25Z</time>
      </trkpt>
      <trkpt lat="42.622833" lon="-2.234133">
        <ele>797.0</ele>
        <time>2013-06-22T13:34:26Z</time>
      </trkpt>
      <trkpt lat="42.622767" lon="-2.234017">
        <ele>797.0</ele>
        <time>2013-06-22T13:34:27Z</time>
      </trkpt>
      <trkpt lat="42.622667" lon="-2.233900">
        <ele>798.0</ele>
        <time>2013-06-22T13:34:28Z</time>
      </trkpt>
      <trkpt lat="42.622567" lon="-2.233800">
        <ele>799.0</ele>
        <time>2013-06-22T13:34:29Z</time>
      </trkpt>
      <trkpt lat="42.622450" lon="-2.233700">
        <ele>800.0</ele>
        <time>2013-06-22T13:34:30Z</time>
      </trkpt>
      <trkpt lat="42.622333" lon="-2.233633">
        <ele>802.0</ele>
        <time>2013-06-22T13:34:31Z</time>
      </trkpt>
      <trkpt lat="42.622217" lon="-2.233600">
        <ele>803.0</ele>
        <time>2013-06-22T13:34:32Z</time>
      </trkpt>
      <trkpt lat="42.622100" lon="-2.233617">
        <ele>805.0</ele>
        <time>2013-06-22T13:34:33Z</time>
      </trkpt>
      <trkpt lat="42.621983" lon="-2.233650">
        <ele>806.0</ele>
        <time>2013-06-22T13:34:34Z</time>
      </trkpt>
      <trkpt lat="42.621867" lon="-2.233683">
        <ele>807.0</ele>
        <time>2013-06-22T13:34:35Z</time>
      </trkpt>
      <trkpt lat="42.621767" lon="-2.233733">
        <ele>808.0</ele>
        <time>2013-06-22T13:34:36Z</time>
      </trkpt>
      <trkpt lat="42.621683" lon="-2.233800">
        <ele>810.0</ele>
        <time>2013-06-22T13:34:37Z</time>
      </trkpt>
      <trkpt lat="42.621600" lon="-2.233850">
        <ele>812.0</ele>
        <time>2013-06-22T13:34:38Z</time>
      </trkpt>
      <trkpt lat="42.621550" lon="-2.233917">
        <ele>814.0</ele>
        <time>2013-06-22T13:34:39Z</time>
      </trkpt>
      <trkpt lat="42.621500" lon="-2.233983">
        <ele>816.0</ele>
        <time>2013-06-22T13:34:40Z</time>
      </trkpt>
      <trkpt lat="42.621450" lon="-2.234050">
        <ele>816.0</ele>
        <time>2013-06-22T13:34:41Z</time>
      </trkpt>
      <trkpt lat="42.621417" lon="-2.234117">
        <ele>817.0</ele>
        <time>2013-06-22T13:34:42Z</time>
      </trkpt>
      <trkpt lat="42.621400" lon="-2.234167">
        <ele>818.0</ele>
        <time>2013-06-22T13:34:43Z</time>
      </trkpt>
      <trkpt lat="42.621383" lon="-2.234183">
        <ele>819.0</ele>
        <time>2013-06-22T13:34:44Z</time>
      </trkpt>
      <trkpt lat="42.621367" lon="-2.234217">
        <ele>819.0</ele>
        <time>2013-06-22T13:34:45Z</time>
      </trkpt>
      <trkpt lat="42.621350" lon="-2.234250">
        <ele>819.0</ele>
        <time>2013-06-22T13:34:46Z</time>
      </trkpt>
      <trkpt lat="42.621350" lon="-2.234283">
        <ele>817.0</ele>
        <time>2013-06-22T13:34:47Z</time>
      </trkpt>
      <trkpt lat="42.621350" lon="-2.234317">
        <ele>817.0</ele>
        <time>2013-06-22T13:34:48Z</time>
      </trkpt>
      <trkpt lat="42.621383" lon="-2.234333">
        <ele>816.0</ele>
        <time>2013-06-22T13:34:49Z</time>
      </trkpt>
      <trkpt lat="42.621417" lon="-2.234333">
        <ele>815.0</ele>
        <time>2013-06-22T13:34:50Z</time>
      </trkpt>
      <trkpt lat="42.621433" lon="-2.234283">
        <ele>815.0</ele>
        <time>2013-06-22T13:34:51Z</time>
      </trkpt>
      <trkpt lat="42.621467" lon="-2.234250">
        <ele>816.0</ele>
        <time>2013-06-22T13:34:52Z</time>
      </trkpt>
      <trkpt lat="42.621483" lon="-2.234183">
        <ele>817.0</ele>
        <time>2013-06-22T13:34:53Z</time>
      </trkpt>
      <trkpt lat="42.621500" lon="-2.234117">
        <ele>818.0</ele>
        <time>2013-06-22T13:34:54Z</time>
      </trkpt>
      <trkpt lat="42.621500" lon="-2.234033">
        <ele>818.0</ele>
        <time>2013-06-22T13:34:55Z</time>
      </trkpt>
      <trkpt lat="42.621517" lon="-2.233933">
        <ele>818.0</ele>
        <time>2013-06-22T13:34:56Z</time>
      </trkpt>
      <trkpt lat="42.621500" lon="-2.233800">
        <ele>818.0</ele>
        <time>2013-06-22T13:34:57Z</time>
      </trkpt>
      <trkpt lat="42.621483" lon="-2.233667">
        <ele>818.0</ele>
        <time>2013-06-22T13:34:58Z</time>
      </trkpt>
      <trkpt lat="42.621433" lon="-2.233533">
        <ele>819.0</ele>
        <time>2013-06-22T13:34:59Z</time>
      </trkpt>
      <trkpt lat="42.621383" lon="-2.233383">
        <ele>820.0</ele>
        <time>2013-06-22T13:35:00Z</time>
      </trkpt>
      <trkpt lat="42.621317" lon="-2.233250">
        <ele>821.0</ele>
        <time>2013-06-22T13:35:01Z</time>
      </trkpt>
      <trkpt lat="42.621217" lon="-2.233117">
        <ele>821.0</ele>
        <time>2013-06-22T13:35:02Z</time>
      </trkpt>
      <trkpt lat="42.621117" lon="-2.233000">
        <ele>822.0</ele>
        <time>2013-06-22T13:35:03Z</time>
      </trkpt>
      <trkpt lat="42.620983" lon="-2.232900">
        <ele>822.0</ele>
        <time>2013-06-22T13:35:04Z</time>
      </trkpt>
      <trkpt lat="42.620833" lon="-2.232817">
        <ele>824.0</ele>
        <time>2013-06-22T13:35:05Z</time>
      </trkpt>
      <trkpt lat="42.620700" lon="-2.232767">
        <ele>826.0</ele>
        <time>2013-06-22T13:35:06Z</time>
      </trkpt>
      <trkpt lat="42.620567" lon="-2.232767">
        <ele>829.0</ele>
        <time>2013-06-22T13:35:07Z</time>
      </trkpt>
      <trkpt lat="42.620450" lon="-2.232783">
        <ele>830.0</ele>
        <time>2013-06-22T13:35:08Z</time>
      </trkpt>
      <trkpt lat="42.620317" lon="-2.232817">
        <ele>831.0</ele>
        <time>2013-06-22T13:35:09Z</time>
      </trkpt>
      <trkpt lat="42.620217" lon="-2.232850">
        <ele>832.0</ele>
        <time>2013-06-22T13:35:10Z</time>
      </trkpt>
      <trkpt lat="42.620117" lon="-2.232917">
        <ele>832.0</ele>
        <time>2013-06-22T13:35:11Z</time>
      </trkpt>
      <trkpt lat="42.620017" lon="-2.232967">
        <ele>833.0</ele>
        <time>2013-06-22T13:35:12Z</time>
      </trkpt>
      <trkpt lat="42.619950" lon="-2.233017">
        <ele>835.0</ele>
        <time>2013-06-22T13:35:13Z</time>
      </trkpt>
      <trkpt lat="42.619900" lon="-2.233050">
        <ele>835.0</ele>
        <time>2013-06-22T13:35:14Z</time>
      </trkpt>
      <trkpt lat="42.619850" lon="-2.233100">
        <ele>836.0</ele>
        <time>2013-06-22T13:35:15Z</time>
      </trkpt>
      <trkpt lat="42.619817" lon="-2.233150">
        <ele>837.0</ele>
        <time>2013-06-22T13:35:16Z</time>
      </trkpt>
      <trkpt lat="42.619783" lon="-2.233217">
        <ele>836.0</ele>
        <time>2013-06-22T13:35:17Z</time>
      </trkpt>
      <trkpt lat="42.619767" lon="-2.233267">
        <ele>836.0</ele>
        <time>2013-06-22T13:35:18Z</time>
      </trkpt>
      <trkpt lat="42.619767" lon="-2.233317">
        <ele>836.0</ele>
        <time>2013-06-22T13:35:19Z</time>
      </trkpt>
      <trkpt lat="42.619767" lon="-2.233350">
        <ele>835.0</ele>
        <time>2013-06-22T13:35:20Z</time>
      </trkpt>
      <trkpt lat="42.619783" lon="-2.233367">
        <ele>834.0</ele>
        <time>2013-06-22T13:35:21Z</time>
      </trkpt>
      <trkpt lat="42.619800" lon="-2.233350">
        <ele>832.0</ele>
        <time>2013-06-22T13:35:22Z</time>
      </trkpt>
      <trkpt lat="42.619833" lon="-2.233300">
        <ele>830.0</ele>
        <time>2013-06-22T13:35:23Z</time>
      </trkpt>
      <trkpt lat="42.619867" lon="-2.233250">
        <ele>828.0</ele>
        <time>2013-06-22T13:35:24Z</time>
      </trkpt>
      <trkpt lat="42.619917" lon="-2.233200">
        <ele>827.0</ele>
        <time>2013-06-22T13:35:25Z</time>
      </trkpt>
      <trkpt lat="42.619933" lon="-2.233133">
        <ele>826.0</ele>
        <time>2013-06-22T13:35:26Z</time>
      </trkpt>
      <trkpt lat="42.619967" lon="-2.233050">
        <ele>826.0</ele>
        <time>2013-06-22T13:35:27Z</time>
      </trkpt>
      <trkpt lat="42.619983" lon="-2.232967">
        <ele>826.0</ele>
        <time>2013-06-22T13:35:28Z</time>
      </trkpt>
      <trkpt lat="42.620000" lon="-2.232867">
        <ele>826.0</ele>
        <time>2013-06-22T13:35:29Z</time>
      </trkpt>
      <trkpt lat="42.620000" lon="-2.232733">
        <ele>827.0</ele>
        <time>2013-06-22T13:35:30Z</time>
      </trkpt>
      <trkpt lat="42.619983" lon="-2.232617">
        <ele>827.0</ele>
        <time>2013-06-22T13:35:31Z</time>
      </trkpt>
      <trkpt lat="42.619967" lon="-2.232467">
        <ele>827.0</ele>
        <time>2013-06-22T13:35:32Z</time>
      </trkpt>
      <trkpt lat="42.619933" lon="-2.232317">
        <ele>827.0</ele>
        <time>2013-06-22T13:35:33Z</time>
      </trkpt>
      <trkpt lat="42.619867" lon="-2.232167">
        <ele>827.0</ele>
        <time>2013-06-22T13:35:34Z</time>
      </trkpt>
      <trkpt lat="42.619800" lon="-2.232017">
        <ele>827.0</ele>
        <time>2013-06-22T13:35:35Z</time>
      </trkpt>
      <trkpt lat="42.619683" lon="-2.231883">
        <ele>828.0</ele>
        <time>2013-06-22T13:35:36Z</time>
      </trkpt>
      <trkpt lat="42.619550" lon="-2.231783">
        <ele>828.0</ele>
        <time>2013-06-22T13:35:37Z</time>
      </trkpt>
      <trkpt lat="42.619417" lon="-2.231700">
        <ele>829.0</ele>
        <time>2013-06-22T13:35:38Z</time>
      </trkpt>
      <trkpt lat="42.619283" lon="-2.231633">
        <ele>829.0</ele>
        <time>2013-06-22T13:35:39Z</time>
      </trkpt>
      <trkpt lat="42.619133" lon="-2.231583">
        <ele>830.0</ele>
        <time>2013-06-22T13:35:40Z</time>
      </trkpt>
      <trkpt lat="42.619000" lon="-2.231550">
        <ele>830.0</ele>
        <time>2013-06-22T13:35:41Z</time>
      </trkpt>
      <trkpt lat="42.618867" lon="-2.231550">
        <ele>831.0</ele>
        <time>2013-06-22T13:35:42Z</time>
      </trkpt>
      <trkpt lat="42.618750" lon="-2.231567">
        <ele>832.0</ele>
        <time>2013-06-22T13:35:43Z</time>
      </trkpt>
      <trkpt lat="42.618633" lon="-2.231600">
        <ele>832.0</ele>
        <time>2013-06-22T13:35:44Z</time>
      </trkpt>
      <trkpt lat="42.618517" lon="-2.231633">
        <ele>833.0</ele>
        <time>2013-06-22T13:35:45Z</time>
      </trkpt>
      <trkpt lat="42.618417" lon="-2.231667">
        <ele>834.0</ele>
        <time>2013-06-22T13:35:46Z</time>
      </trkpt>
      <trkpt lat="42.618300" lon="-2.231700">
        <ele>834.0</ele>
        <time>2013-06-22T13:35:47Z</time>
      </trkpt>
      <trkpt lat="42.618183" lon="-2.231750">
        <ele>835.0</ele>
        <time>2013-06-22T13:35:48Z</time>
      </trkpt>
      <trkpt lat="42.618067" lon="-2.231783">
        <ele>835.0</ele>
        <time>2013-06-22T13:35:49Z</time>
      </trkpt>
      <trkpt lat="42.617950" lon="-2.231833">
        <ele>837.0</ele>
        <time>2013-06-22T13:35:50Z</time>
      </trkpt>
      <trkpt lat="42.617867" lon="-2.231883">
        <ele>839.0</ele>
        <time>2013-06-22T13:35:51Z</time>
      </trkpt>
      <trkpt lat="42.617800" lon="-2.231933">
        <ele>840.0</ele>
        <time>2013-06-22T13:35:52Z</time>
      </trkpt>
      <trkpt lat="42.617750" lon="-2.231983">
        <ele>841.0</ele>
        <time>2013-06-22T13:35:53Z</time>
      </trkpt>
      <trkpt lat="42.617700" lon="-2.232050">
        <ele>841.0</ele>
        <time>2013-06-22T13:35:54Z</time>
      </trkpt>
      <trkpt lat="42.617667" lon="-2.232100">
        <ele>842.0</ele>
        <time>2013-06-22T13:35:55Z</time>
      </trkpt>
      <trkpt lat="42.617633" lon="-2.232167">
        <ele>842.0</ele>
        <time>2013-06-22T13:35:56Z</time>
      </trkpt>
      <trkpt lat="42.617617" lon="-2.232233">
        <ele>842.0</ele>
        <time>2013-06-22T13:35:57Z</time>
      </trkpt>
      <trkpt lat="42.617633" lon="-2.232300">
        <ele>841.0</ele>
        <time>2013-06-22T13:35:58Z</time>
      </trkpt>
      <trkpt lat="42.617633" lon="-2.232367">
        <ele>840.0</ele>
        <time>2013-06-22T13:35:59Z</time>
      </trkpt>
      <trkpt lat="42.617633" lon="-2.232417">
        <ele>841.0</ele>
        <time>2013-06-22T13:36:00Z</time>
      </trkpt>
      <trkpt lat="42.617633" lon="-2.232433">
        <ele>840.0</ele>
        <time>2013-06-22T13:36:01Z</time>
      </trkpt>
      <trkpt lat="42.617650" lon="-2.232467">
        <ele>839.0</ele>
        <time>2013-06-22T13:36:02Z</time>
      </trkpt>
      <trkpt lat="42.617683" lon="-2.232483">
        <ele>836.0</ele>
        <time>2013-06-22T13:36:03Z</time>
      </trkpt>
      <trkpt lat="42.617733" lon="-2.232483">
        <ele>832.0</ele>
        <time>2013-06-22T13:36:04Z</time>
      </trkpt>
      <trkpt lat="42.617767" lon="-2.232483">
        <ele>830.0</ele>
        <time>2013-06-22T13:36:05Z</time>
      </trkpt>
      <trkpt lat="42.617800" lon="-2.232450">
        <ele>829.0</ele>
        <time>2013-06-22T13:36:06Z</time>
      </trkpt>
      <trkpt lat="42.617817" lon="-2.232367">
        <ele>828.0</ele>
        <time>2013-06-22T13:36:07Z</time>
      </trkpt>
      <trkpt lat="42.617833" lon="-2.232283">
        <ele>827.0</ele>
        <time>2013-06-22T13:36:08Z</time>
      </trkpt>
      <trkpt lat="42.617833" lon="-2.232183">
        <ele>826.0</ele>
        <time>2013-06-22T13:36:09Z</time>
      </trkpt>
      <trkpt lat="42.617817" lon="-2.232083">
        <ele>825.0</ele>
        <time>2013-06-22T13:36:10Z</time>
      </trkpt>
      <trkpt lat="42.617800" lon="-2.231983">
        <ele>825.0</ele>
        <time>2013-06-22T13:36:11Z</time>
      </trkpt>
      <trkpt lat="42.617783" lon="-2.231883">
        <ele>824.0</ele>
        <time>2013-06-22T13:36:12Z</time>
      </trkpt>
      <trkpt lat="42.617767" lon="-2.231750">
        <ele>823.0</ele>
        <time>2013-06-22T13:36:13Z</time>
      </trkpt>
      <trkpt lat="42.617733" lon="-2.231600">
        <ele>822.0</ele>
        <time>2013-06-22T13:36:14Z</time>
      </trkpt>
      <trkpt lat="42.617700" lon="-2.231467">
        <ele>821.0</ele>
        <time>2013-06-22T13:36:15Z</time>
      </trkpt>
      <trkpt lat="42.617633" lon="-2.231333">
        <ele>821.0</ele>
        <time>2013-06-22T13:36:16Z</time>
      </trkpt>
      <trkpt lat="42.617550" lon="-2.231200">
        <ele>821.0</ele>
        <time>2013-06-22T13:36:17Z</time>
      </trkpt>
      <trkpt lat="42.617467" lon="-2.231067">
        <ele>820.0</ele>
        <time>2013-06-22T13:36:18Z</time>
      </trkpt>
      <trkpt lat="42.617350" lon="-2.230950">
        <ele>820.0</ele>
        <time>2013-06-22T13:36:19Z</time>
      </trkpt>
      <trkpt lat="42.617233" lon="-2.230850">
        <ele>819.0</ele>
        <time>2013-06-22T13:36:20Z</time>
      </trkpt>
      <trkpt lat="42.617100" lon="-2.230783">
        <ele>818.0</ele>
        <time>2013-06-22T13:36:21Z</time>
      </trkpt>
      <trkpt lat="42.616950" lon="-2.230750">
        <ele>818.0</ele>
        <time>2013-06-22T13:36:22Z</time>
      </trkpt>
      <trkpt lat="42.616817" lon="-2.230767">
        <ele>818.0</ele>
        <time>2013-06-22T13:36:23Z</time>
      </trkpt>
      <trkpt lat="42.616717" lon="-2.230800">
        <ele>818.0</ele>
        <time>2013-06-22T13:36:24Z</time>
      </trkpt>
      <trkpt lat="42.616633" lon="-2.230850">
        <ele>818.0</ele>
        <time>2013-06-22T13:36:25Z</time>
      </trkpt>
      <trkpt lat="42.616567" lon="-2.230917">
        <ele>818.0</ele>
        <time>2013-06-22T13:36:26Z</time>
      </trkpt>
      <trkpt lat="42.616517" lon="-2.230983">
        <ele>816.0</ele>
        <time>2013-06-22T13:36:27Z</time>
      </trkpt>
      <trkpt lat="42.616483" lon="-2.231050">
        <ele>816.0</ele>
        <time>2013-06-22T13:36:28Z</time>
      </trkpt>
      <trkpt lat="42.616467" lon="-2.231100">
        <ele>815.0</ele>
        <time>2013-06-22T13:36:29Z</time>
      </trkpt>
      <trkpt lat="42.616450" lon="-2.231133">
        <ele>815.0</ele>
        <time>2013-06-22T13:36:30Z</time>
      </trkpt>
      <trkpt lat="42.616450" lon="-2.231167">
        <ele>814.0</ele>
        <time>2013-06-22T13:36:31Z</time>
      </trkpt>
      <trkpt lat="42.616467" lon="-2.231183">
        <ele>812.0</ele>
        <time>2013-06-22T13:36:32Z</time>
      </trkpt>
      <trkpt lat="42.616500" lon="-2.231183">
        <ele>810.0</ele>
        <time>2013-06-22T13:36:33Z</time>
      </trkpt>
      <trkpt lat="42.616517" lon="-2.231183">
        <ele>809.0</ele>
        <time>2013-06-22T13:36:34Z</time>
      </trkpt>
      <trkpt lat="42.616550" lon="-2.231183">
        <ele>808.0</ele>
        <time>2013-06-22T13:36:35Z</time>
      </trkpt>
      <trkpt lat="42.616567" lon="-2.231150">
        <ele>808.0</ele>
        <time>2013-06-22T13:36:36Z</time>
      </trkpt>
      <trkpt lat="42.616583" lon="-2.231117">
        <ele>808.0</ele>
        <time>2013-06-22T13:36:37Z</time>
      </trkpt>
      <trkpt lat="42.616600" lon="-2.231050">
        <ele>809.0</ele>
        <time>2013-06-22T13:36:38Z</time>
      </trkpt>
      <trkpt lat="42.616617" lon="-2.230967">
        <ele>809.0</ele>
        <time>2013-06-22T13:36:39Z</time>
      </trkpt>
      <trkpt lat="42.616633" lon="-2.230883">
        <ele>808.0</ele>
        <time>2013-06-22T13:36:40Z</time>
      </trkpt>
      <trkpt lat="42.616650" lon="-2.230800">
        <ele>807.0</ele>
        <time>2013-06-22T13:36:41Z</time>
      </trkpt>
      <trkpt lat="42.616667" lon="-2.230700">
        <ele>806.0</ele>
        <time>2013-06-22T13:36:42Z</time>
      </trkpt>
      <trkpt lat="42.616667" lon="-2.230617">
        <ele>806.0</ele>
        <time>2013-06-22T13:36:43Z</time>
      </trkpt>
      <trkpt lat="42.616683" lon="-2.230517">
        <ele>805.0</ele>
        <time>2013-06-22T13:36:44Z</time>
      </trkpt>
      <trkpt lat="42.616683" lon="-2.230400">
        <ele>804.0</ele>
        <time>2013-06-22T13:36:45Z</time>
      </trkpt>
      <trkpt lat="42.616683" lon="-2.230283">
        <ele>803.0</ele>
        <time>2013-06-22T13:36:46Z</time>
      </trkpt>
      <trkpt lat="42.616683" lon="-2.230167">
        <ele>802.0</ele>
        <time>2013-06-22T13:36:47Z</time>
      </trkpt>
      <trkpt lat="42.616683" lon="-2.230050">
        <ele>802.0</ele>
        <time>2013-06-22T13:36:48Z</time>
      </trkpt>
      <trkpt lat="42.616683" lon="-2.229933">
        <ele>801.0</ele>
        <time>2013-06-22T13:36:49Z</time>
      </trkpt>
      <trkpt lat="42.616650" lon="-2.229800">
        <ele>800.0</ele>
        <time>2013-06-22T13:36:50Z</time>
      </trkpt>
      <trkpt lat="42.616617" lon="-2.229650">
        <ele>799.0</ele>
        <time>2013-06-22T13:36:51Z</time>
      </trkpt>
      <trkpt lat="42.616583" lon="-2.229483">
        <ele>798.0</ele>
        <time>2013-06-22T13:36:52Z</time>
      </trkpt>
      <trkpt lat="42.616533" lon="-2.229350">
        <ele>798.0</ele>
        <time>2013-06-22T13:36:53Z</time>
      </trkpt>
      <trkpt lat="42.616500" lon="-2.229200">
        <ele>798.0</ele>
        <time>2013-06-22T13:36:54Z</time>
      </trkpt>
      <trkpt lat="42.616450" lon="-2.229067">
        <ele>798.0</ele>
        <time>2013-06-22T13:36:55Z</time>
      </trkpt>
      <trkpt lat="42.616417" lon="-2.228950">
        <ele>799.0</ele>
        <time>2013-06-22T13:36:56Z</time>
      </trkpt>
      <trkpt lat="42.616383" lon="-2.228817">
        <ele>799.0</ele>
        <time>2013-06-22T13:36:57Z</time>
      </trkpt>
      <trkpt lat="42.616350" lon="-2.228700">
        <ele>798.0</ele>
        <time>2013-06-22T13:36:58Z</time>
      </trkpt>
      <trkpt lat="42.616317" lon="-2.228567">
        <ele>798.0</ele>
        <time>2013-06-22T13:36:59Z</time>
      </trkpt>
      <trkpt lat="42.616283" lon="-2.228450">
        <ele>798.0</ele>
        <time>2013-06-22T13:37:00Z</time>
      </trkpt>
      <trkpt lat="42.616267" lon="-2.228317">
        <ele>797.0</ele>
        <time>2013-06-22T13:37:01Z</time>
      </trkpt>
      <trkpt lat="42.616217" lon="-2.228167">
        <ele>796.0</ele>
        <time>2013-06-22T13:37:02Z</time>
      </trkpt>
      <trkpt lat="42.616183" lon="-2.228017">
        <ele>795.0</ele>
        <time>2013-06-22T13:37:03Z</time>
      </trkpt>
      <trkpt lat="42.616133" lon="-2.227867">
        <ele>794.0</ele>
        <time>2013-06-22T13:37:04Z</time>
      </trkpt>
      <trkpt lat="42.616067" lon="-2.227733">
        <ele>795.0</ele>
        <time>2013-06-22T13:37:05Z</time>
      </trkpt>
      <trkpt lat="42.616033" lon="-2.227600">
        <ele>795.0</ele>
        <time>2013-06-22T13:37:06Z</time>
      </trkpt>
      <trkpt lat="42.616000" lon="-2.227450">
        <ele>795.0</ele>
        <time>2013-06-22T13:37:07Z</time>
      </trkpt>
      <trkpt lat="42.615983" lon="-2.227317">
        <ele>795.0</ele>
        <time>2013-06-22T13:37:08Z</time>
      </trkpt>
      <trkpt lat="42.615967" lon="-2.227183">
        <ele>795.0</ele>
        <time>2013-06-22T13:37:09Z</time>
      </trkpt>
      <trkpt lat="42.615983" lon="-2.227067">
        <ele>795.0</ele>
        <time>2013-06-22T13:37:10Z</time>
      </trkpt>
      <trkpt lat="42.616000" lon="-2.226950">
        <ele>796.0</ele>
        <time>2013-06-22T13:37:11Z</time>
      </trkpt>
      <trkpt lat="42.616017" lon="-2.226850">
        <ele>796.0</ele>
        <time>2013-06-22T13:37:12Z</time>
      </trkpt>
      <trkpt lat="42.616050" lon="-2.226750">
        <ele>797.0</ele>
        <time>2013-06-22T13:37:13Z</time>
      </trkpt>
      <trkpt lat="42.616067" lon="-2.226633">
        <ele>797.0</ele>
        <time>2013-06-22T13:37:14Z</time>
      </trkpt>
      <trkpt lat="42.616100" lon="-2.226550">
        <ele>798.0</ele>
        <time>2013-06-22T13:37:15Z</time>
      </trkpt>
      <trkpt lat="42.616117" lon="-2.226450">
        <ele>799.0</ele>
        <time>2013-06-22T13:37:16Z</time>
      </trkpt>
      <trkpt lat="42.616150" lon="-2.226367">
        <ele>800.0</ele>
        <time>2013-06-22T13:37:17Z</time>
      </trkpt>
      <trkpt lat="42.616167" lon="-2.226267">
        <ele>801.0</ele>
        <time>2013-06-22T13:37:18Z</time>
      </trkpt>
      <trkpt lat="42.616183" lon="-2.226133">
        <ele>801.0</ele>
        <time>2013-06-22T13:37:19Z</time>
      </trkpt>
      <trkpt lat="42.616200" lon="-2.226000">
        <ele>800.0</ele>
        <time>2013-06-22T13:37:20Z</time>
      </trkpt>
      <trkpt lat="42.616217" lon="-2.225867">
        <ele>800.0</ele>
        <time>2013-06-22T13:37:21Z</time>
      </trkpt>
      <trkpt lat="42.616233" lon="-2.225733">
        <ele>800.0</ele>
        <time>2013-06-22T13:37:22Z</time>
      </trkpt>
      <trkpt lat="42.616233" lon="-2.225600">
        <ele>801.0</ele>
        <time>2013-06-22T13:37:23Z</time>
      </trkpt>
      <trkpt lat="42.616200" lon="-2.225450">
        <ele>802.0</ele>
        <time>2013-06-22T13:37:24Z</time>
      </trkpt>
      <trkpt lat="42.616167" lon="-2.225283">
        <ele>800.0</ele>
        <time>2013-06-22T13:37:25Z</time>
      </trkpt>
      <trkpt lat="42.616133" lon="-2.225117">
        <ele>800.0</ele>
        <time>2013-06-22T13:37:26Z</time>
      </trkpt>
      <trkpt lat="42.616117" lon="-2.224967">
        <ele>800.0</ele>
        <time>2013-06-22T13:37:27Z</time>
      </trkpt>
      <trkpt lat="42.616150" lon="-2.224850">
        <ele>801.0</ele>
        <time>2013-06-22T13:37:28Z</time>
      </trkpt>
      <trkpt lat="42.616167" lon="-2.224767">
        <ele>803.0</ele>
        <time>2013-06-22T13:37:29Z</time>
      </trkpt>
      <trkpt lat="42.616183" lon="-2.224683">
        <ele>806.0</ele>
        <time>2013-06-22T13:37:30Z</time>
      </trkpt>
      <trkpt lat="42.616183" lon="-2.224600">
        <ele>810.0</ele>
        <time>2013-06-22T13:37:31Z</time>
      </trkpt>
      <trkpt lat="42.616200" lon="-2.224533">
        <ele>812.0</ele>
        <time>2013-06-22T13:37:32Z</time>
      </trkpt>
      <trkpt lat="42.616233" lon="-2.224467">
        <ele>813.0</ele>
        <time>2013-06-22T13:37:33Z</time>
      </trkpt>
      <trkpt lat="42.616267" lon="-2.224433">
        <ele>814.0</ele>
        <time>2013-06-22T13:37:34Z</time>
      </trkpt>
      <trkpt lat="42.616300" lon="-2.224400">
        <ele>815.0</ele>
        <time>2013-06-22T13:37:35Z</time>
      </trkpt>
      <trkpt lat="42.616317" lon="-2.224367">
        <ele>816.0</ele>
        <time>2013-06-22T13:37:36Z</time>
      </trkpt>
      <trkpt lat="42.616333" lon="-2.224333">
        <ele>817.0</ele>
        <time>2013-06-22T13:37:37Z</time>
      </trkpt>
      <trkpt lat="42.616367" lon="-2.224300">
        <ele>818.0</ele>
        <time>2013-06-22T13:37:38Z</time>
      </trkpt>
      <trkpt lat="42.616400" lon="-2.224250">
        <ele>819.0</ele>
        <time>2013-06-22T13:37:39Z</time>
      </trkpt>
      <trkpt lat="42.616433" lon="-2.224217">
        <ele>821.0</ele>
        <time>2013-06-22T13:37:40Z</time>
      </trkpt>
      <trkpt lat="42.616450" lon="-2.224200">
        <ele>824.0</ele>
        <time>2013-06-22T13:37:41Z</time>
      </trkpt>
      <trkpt lat="42.616467" lon="-2.224183">
        <ele>826.0</ele>
        <time>2013-06-22T13:37:42Z</time>
      </trkpt>
      <trkpt lat="42.616483" lon="-2.224167">
        <ele>827.0</ele>
        <time>2013-06-22T13:37:43Z</time>
      </trkpt>
      <trkpt lat="42.616500" lon="-2.224150">
        <ele>827.0</ele>
        <time>2013-06-22T13:37:44Z</time>
      </trkpt>
      <trkpt lat="42.616517" lon="-2.224117">
        <ele>827.0</ele>
        <time>2013-06-22T13:37:45Z</time>
      </trkpt>
      <trkpt lat="42.616533" lon="-2.224100">
        <ele>826.0</ele>
        <time>2013-06-22T13:37:46Z</time>
      </trkpt>
      <trkpt lat="42.616550" lon="-2.224100">
        <ele>826.0</ele>
        <time>2013-06-22T13:37:47Z</time>
      </trkpt>
      <trkpt lat="42.616550" lon="-2.224100">
        <ele>824.0</ele>
        <time>2013-06-22T13:37:48Z</time>
      </trkpt>
      <trkpt lat="42.616550" lon="-2.224133">
        <ele>823.0</ele>
        <time>2013-06-22T13:37:49Z</time>
      </trkpt>
      <trkpt lat="42.616567" lon="-2.224167">
        <ele>821.0</ele>
        <time>2013-06-22T13:37:50Z</time>
      </trkpt>
      <trkpt lat="42.616550" lon="-2.224200">
        <ele>820.0</ele>
        <time>2013-06-22T13:37:51Z</time>
      </trkpt>
      <trkpt lat="42.616533" lon="-2.224233">
        <ele>819.0</ele>
        <time>2013-06-22T13:37:52Z</time>
      </trkpt>
      <trkpt lat="42.616500" lon="-2.224283">
        <ele>817.0</ele>
        <time>2013-06-22T13:37:53Z</time>
      </trkpt>
      <trkpt lat="42.616467" lon="-2.224333">
        <ele>815.0</ele>
        <time>2013-06-22T13:37:54Z</time>
      </trkpt>
      <trkpt lat="42.616450" lon="-2.224400">
        <ele>813.0</ele>
        <time>2013-06-22T13:37:55Z</time>
      </trkpt>
      <trkpt lat="42.616417" lon="-2.224467">
        <ele>810.0</ele>
        <time>2013-06-22T13:37:56Z</time>
      </trkpt>
      <trkpt lat="42.616400" lon="-2.224517">
        <ele>809.0</ele>
        <time>2013-06-22T13:37:57Z</time>
      </trkpt>
      <trkpt lat="42.616367" lon="-2.224567">
        <ele>808.0</ele>
        <time>2013-06-22T13:37:58Z</time>
      </trkpt>
      <trkpt lat="42.616367" lon="-2.224583">
        <ele>806.0</ele>
        <time>2013-06-22T13:37:59Z</time>
      </trkpt>
      <trkpt lat="42.616367" lon="-2.224600">
        <ele>804.0</ele>
        <time>2013-06-22T13:38:00Z</time>
      </trkpt>
      <trkpt lat="42.616400" lon="-2.224583">
        <ele>801.0</ele>
        <time>2013-06-22T13:38:01Z</time>
      </trkpt>
      <trkpt lat="42.616417" lon="-2.224550">
        <ele>798.0</ele>
        <time>2013-06-22T13:38:02Z</time>
      </trkpt>
      <trkpt lat="42.616433" lon="-2.224500">
        <ele>795.0</ele>
        <time>2013-06-22T13:38:03Z</time>
      </trkpt>
      <trkpt lat="42.616450" lon="-2.224433">
        <ele>794.0</ele>
        <time>2013-06-22T13:38:04Z</time>
      </trkpt>
      <trkpt lat="42.616467" lon="-2.224333">
        <ele>792.0</ele>
        <time>2013-06-22T13:38:05Z</time>
      </trkpt>
      <trkpt lat="42.616467" lon="-2.224233">
        <ele>790.0</ele>
        <time>2013-06-22T13:38:06Z</time>
      </trkpt>
      <trkpt lat="42.616450" lon="-2.224100">
        <ele>789.0</ele>
        <time>2013-06-22T13:38:07Z</time>
      </trkpt>
      <trkpt lat="42.616433" lon="-2.223983">
        <ele>787.0</ele>
        <time>2013-06-22T13:38:08Z</time>
      </trkpt>
      <trkpt lat="42.616383" lon="-2.223850">
        <ele>786.0</ele>
        <time>2013-06-22T13:38:09Z</time>
      </trkpt>
      <trkpt lat="42.616350" lon="-2.223717">
        <ele>785.0</ele>
        <time>2013-06-22T13:38:10Z</time>
      </trkpt>
      <trkpt lat="42.616300" lon="-2.223583">
        <ele>784.0</ele>
        <time>2013-06-22T13:38:11Z</time>
      </trkpt>
      <trkpt lat="42.616250" lon="-2.223450">
        <ele>782.0</ele>
        <time>2013-06-22T13:38:12Z</time>
      </trkpt>
      <trkpt lat="42.616183" lon="-2.223300">
        <ele>781.0</ele>
        <time>2013-06-22T13:38:13Z</time>
      </trkpt>
      <trkpt lat="42.616117" lon="-2.223167">
        <ele>780.0</ele>
        <time>2013-06-22T13:38:14Z</time>
      </trkpt>
      <trkpt lat="42.616050" lon="-2.223033">
        <ele>779.0</ele>
        <time>2013-06-22T13:38:15Z</time>
      </trkpt>
      <trkpt lat="42.615983" lon="-2.222900">
        <ele>778.0</ele>
        <time>2013-06-22T13:38:16Z</time>
      </trkpt>
      <trkpt lat="42.615933" lon="-2.222767">
        <ele>777.0</ele>
        <time>2013-06-22T13:38:17Z</time>
      </trkpt>
      <trkpt lat="42.615867" lon="-2.222617">
        <ele>775.0</ele>
        <time>2013-06-22T13:38:18Z</time>
      </trkpt>
      <trkpt lat="42.615817" lon="-2.222467">
        <ele>774.0</ele>
        <time>2013-06-22T13:38:19Z</time>
      </trkpt>
      <trkpt lat="42.615783" lon="-2.222333">
        <ele>773.0</ele>
        <time>2013-06-22T13:38:20Z</time>
      </trkpt>
      <trkpt lat="42.615733" lon="-2.222200">
        <ele>772.0</ele>
        <time>2013-06-22T13:38:21Z</time>
      </trkpt>
      <trkpt lat="42.615700" lon="-2.222067">
        <ele>771.0</ele>
        <time>2013-06-22T13:38:22Z</time>
      </trkpt>
      <trkpt lat="42.615683" lon="-2.221917">
        <ele>770.0</ele>
        <time>2013-06-22T13:38:23Z</time>
      </trkpt>
      <trkpt lat="42.615650" lon="-2.221767">
        <ele>768.0</ele>
        <time>2013-06-22T13:38:24Z</time>
      </trkpt>
      <trkpt lat="42.615617" lon="-2.221633">
        <ele>767.0</ele>
        <time>2013-06-22T13:38:25Z</time>
      </trkpt>
      <trkpt lat="42.615583" lon="-2.221500">
        <ele>766.0</ele>
        <time>2013-06-22T13:38:26Z</time>
      </trkpt>
      <trkpt lat="42.615550" lon="-2.221367">
        <ele>766.0</ele>
        <time>2013-06-22T13:38:27Z</time>
      </trkpt>
      <trkpt lat="42.615517" lon="-2.221233">
        <ele>765.0</ele>
        <time>2013-06-22T13:38:28Z</time>
      </trkpt>
      <trkpt lat="42.615483" lon="-2.221083">
        <ele>764.0</ele>
        <time>2013-06-22T13:38:29Z</time>
      </trkpt>
      <trkpt lat="42.615433" lon="-2.220950">
        <ele>763.0</ele>
        <time>2013-06-22T13:38:30Z</time>
      </trkpt>
      <trkpt lat="42.615400" lon="-2.220817">
        <ele>763.0</ele>
        <time>2013-06-22T13:38:31Z</time>
      </trkpt>
      <trkpt lat="42.615367" lon="-2.220700">
        <ele>762.0</ele>
        <time>2013-06-22T13:38:32Z</time>
      </trkpt>
      <trkpt lat="42.615350" lon="-2.220567">
        <ele>761.0</ele>
        <time>2013-06-22T13:38:33Z</time>
      </trkpt>
      <trkpt lat="42.615317" lon="-2.220433">
        <ele>760.0</ele>
        <time>2013-06-22T13:38:34Z</time>
      </trkpt>
      <trkpt lat="42.615300" lon="-2.220300">
        <ele>759.0</ele>
        <time>2013-06-22T13:38:35Z</time>
      </trkpt>
      <trkpt lat="42.615283" lon="-2.220183">
        <ele>759.0</ele>
        <time>2013-06-22T13:38:36Z</time>
      </trkpt>
      <trkpt lat="42.615267" lon="-2.220067">
        <ele>758.0</ele>
        <time>2013-06-22T13:38:37Z</time>
      </trkpt>
      <trkpt lat="42.615250" lon="-2.219950">
        <ele>758.0</ele>
        <time>2013-06-22T13:38:38Z</time>
      </trkpt>
      <trkpt lat="42.615217" lon="-2.219833">
        <ele>757.0</ele>
        <time>2013-06-22T13:38:39Z</time>
      </trkpt>
      <trkpt lat="42.615200" lon="-2.219717">
        <ele>757.0</ele>
        <time>2013-06-22T13:38:40Z</time>
      </trkpt>
      <trkpt lat="42.615183" lon="-2.219583">
        <ele>756.0</ele>
        <time>2013-06-22T13:38:41Z</time>
      </trkpt>
      <trkpt lat="42.615183" lon="-2.219467">
        <ele>755.0</ele>
        <time>2013-06-22T13:38:42Z</time>
      </trkpt>
      <trkpt lat="42.615167" lon="-2.219350">
        <ele>754.0</ele>
        <time>2013-06-22T13:38:43Z</time>
      </trkpt>
      <trkpt lat="42.615167" lon="-2.219233">
        <ele>754.0</ele>
        <time>2013-06-22T13:38:44Z</time>
      </trkpt>
      <trkpt lat="42.615150" lon="-2.219117">
        <ele>753.0</ele>
        <time>2013-06-22T13:38:45Z</time>
      </trkpt>
      <trkpt lat="42.615133" lon="-2.219000">
        <ele>752.0</ele>
        <time>2013-06-22T13:38:46Z</time>
      </trkpt>
      <trkpt lat="42.615117" lon="-2.218883">
        <ele>751.0</ele>
        <time>2013-06-22T13:38:47Z</time>
      </trkpt>
      <trkpt lat="42.615117" lon="-2.218750">
        <ele>749.0</ele>
        <time>2013-06-22T13:38:48Z</time>
      </trkpt>
      <trkpt lat="42.615117" lon="-2.218617">
        <ele>748.0</ele>
        <time>2013-06-22T13:38:49Z</time>
      </trkpt>
      <trkpt lat="42.615133" lon="-2.218500">
        <ele>747.0</ele>
        <time>2013-06-22T13:38:50Z</time>
      </trkpt>
      <trkpt lat="42.615133" lon="-2.218400">
        <ele>749.0</ele>
        <time>2013-06-22T13:38:51Z</time>
      </trkpt>
      <trkpt lat="42.615150" lon="-2.218333">
        <ele>751.0</ele>
        <time>2013-06-22T13:38:52Z</time>
      </trkpt>
      <trkpt lat="42.615183" lon="-2.218283">
        <ele>752.0</ele>
        <time>2013-06-22T13:38:53Z</time>
      </trkpt>
      <trkpt lat="42.615217" lon="-2.218250">
        <ele>750.0</ele>
        <time>2013-06-22T13:38:54Z</time>
      </trkpt>
      <trkpt lat="42.615250" lon="-2.218217">
        <ele>750.0</ele>
        <time>2013-06-22T13:38:55Z</time>
      </trkpt>
      <trkpt lat="42.615267" lon="-2.218200">
        <ele>750.0</ele>
        <time>2013-06-22T13:38:56Z</time>
      </trkpt>
      <trkpt lat="42.615283" lon="-2.218200">
        <ele>750.0</ele>
        <time>2013-06-22T13:38:57Z</time>
      </trkpt>
      <trkpt lat="42.615300" lon="-2.218233">
        <ele>749.0</ele>
        <time>2013-06-22T13:38:58Z</time>
      </trkpt>
      <trkpt lat="42.615317" lon="-2.218267">
        <ele>749.0</ele>
        <time>2013-06-22T13:38:59Z</time>
      </trkpt>
      <trkpt lat="42.615350" lon="-2.218300">
        <ele>748.0</ele>
        <time>2013-06-22T13:39:00Z</time>
      </trkpt>
      <trkpt lat="42.615383" lon="-2.218317">
        <ele>748.0</ele>
        <time>2013-06-22T13:39:01Z</time>
      </trkpt>
      <trkpt lat="42.615400" lon="-2.218350">
        <ele>747.0</ele>
        <time>2013-06-22T13:39:02Z</time>
      </trkpt>
      <trkpt lat="42.615400" lon="-2.218383">
        <ele>748.0</ele>
        <time>2013-06-22T13:39:03Z</time>
      </trkpt>
      <trkpt lat="42.615383" lon="-2.218433">
        <ele>748.0</ele>
        <time>2013-06-22T13:39:04Z</time>
      </trkpt>
      <trkpt lat="42.615350" lon="-2.218500">
        <ele>747.0</ele>
        <time>2013-06-22T13:39:05Z</time>
      </trkpt>
      <trkpt lat="42.615333" lon="-2.218583">
        <ele>745.0</ele>
        <time>2013-06-22T13:39:06Z</time>
      </trkpt>
      <trkpt lat="42.615300" lon="-2.218667">
        <ele>745.0</ele>
        <time>2013-06-22T13:39:07Z</time>
      </trkpt>
      <trkpt lat="42.615283" lon="-2.218750">
        <ele>744.0</ele>
        <time>2013-06-22T13:39:08Z</time>
      </trkpt>
      <trkpt lat="42.615250" lon="-2.218833">
        <ele>744.0</ele>
        <time>2013-06-22T13:39:09Z</time>
      </trkpt>
      <trkpt lat="42.615233" lon="-2.218900">
        <ele>745.0</ele>
        <time>2013-06-22T13:39:10Z</time>
      </trkpt>
      <trkpt lat="42.615217" lon="-2.218967">
        <ele>745.0</ele>
        <time>2013-06-22T13:39:11Z</time>
      </trkpt>
      <trkpt lat="42.615233" lon="-2.219033">
        <ele>744.0</ele>
        <time>2013-06-22T13:39:12Z</time>
      </trkpt>
      <trkpt lat="42.615250" lon="-2.219067">
        <ele>744.0</ele>
        <time>2013-06-22T13:39:13Z</time>
      </trkpt>
      <trkpt lat="42.615283" lon="-2.219083">
        <ele>743.0</ele>
        <time>2013-06-22T13:39:14Z</time>
      </trkpt>
      <trkpt lat="42.615317" lon="-2.219067">
        <ele>742.0</ele>
        <time>2013-06-22T13:39:15Z</time>
      </trkpt>
      <trkpt lat="42.615333" lon="-2.219033">
        <ele>742.0</ele>
        <time>2013-06-22T13:39:16Z</time>
      </trkpt>
      <trkpt lat="42.615367" lon="-2.219000">
        <ele>742.0</ele>
        <time>2013-06-22T13:39:17Z</time>
      </trkpt>
      <trkpt lat="42.615383" lon="-2.218967">
        <ele>741.0</ele>
        <time>2013-06-22T13:39:18Z</time>
      </trkpt>
      <trkpt lat="42.615417" lon="-2.218933">
        <ele>740.0</ele>
        <time>2013-06-22T13:39:19Z</time>
      </trkpt>
      <trkpt lat="42.615450" lon="-2.218900">
        <ele>739.0</ele>
        <time>2013-06-22T13:39:20Z</time>
      </trkpt>
      <trkpt lat="42.615483" lon="-2.218900">
        <ele>738.0</ele>
        <time>2013-06-22T13:39:21Z</time>
      </trkpt>
      <trkpt lat="42.615533" lon="-2.218917">
        <ele>737.0</ele>
        <time>2013-06-22T13:39:22Z</time>
      </trkpt>
      <trkpt lat="42.615567" lon="-2.218950">
        <ele>737.0</ele>
        <time>2013-06-22T13:39:23Z</time>
      </trkpt>
      <trkpt lat="42.615583" lon="-2.218983">
        <ele>736.0</ele>
        <time>2013-06-22T13:39:24Z</time>
      </trkpt>
      <trkpt lat="42.615617" lon="-2.219033">
        <ele>736.0</ele>
        <time>2013-06-22T13:39:25Z</time>
      </trkpt>
      <trkpt lat="42.615650" lon="-2.219083">
        <ele>736.0</ele>
        <time>2013-06-22T13:39:26Z</time>
      </trkpt>
      <trkpt lat="42.615683" lon="-2.219133">
        <ele>736.0</ele>
        <time>2013-06-22T13:39:27Z</time>
      </trkpt>
      <trkpt lat="42.615717" lon="-2.219183">
        <ele>736.0</ele>
        <time>2013-06-22T13:39:28Z</time>
      </trkpt>
      <trkpt lat="42.615733" lon="-2.219233">
        <ele>737.0</ele>
        <time>2013-06-22T13:39:29Z</time>
      </trkpt>
      <trkpt lat="42.615750" lon="-2.219283">
        <ele>738.0</ele>
        <time>2013-06-22T13:39:30Z</time>
      </trkpt>
      <trkpt lat="42.615767" lon="-2.219333">
        <ele>739.0</ele>
        <time>2013-06-22T13:39:31Z</time>
      </trkpt>
      <trkpt lat="42.615767" lon="-2.219383">
        <ele>740.0</ele>
        <time>2013-06-22T13:39:32Z</time>
      </trkpt>
      <trkpt lat="42.615767" lon="-2.219417">
        <ele>740.0</ele>
        <time>2013-06-22T13:39:33Z</time>
      </trkpt>
      <trkpt lat="42.615783" lon="-2.219450">
        <ele>740.0</ele>
        <time>2013-06-22T13:39:34Z</time>
      </trkpt>
      <trkpt lat="42.615800" lon="-2.219483">
        <ele>739.0</ele>
        <time>2013-06-22T13:39:35Z</time>
      </trkpt>
      <trkpt lat="42.615817" lon="-2.219533">
        <ele>738.0</ele>
        <time>2013-06-22T13:39:36Z</time>
      </trkpt>
      <trkpt lat="42.615833" lon="-2.219600">
        <ele>737.0</ele>
        <time>2013-06-22T13:39:37Z</time>
      </trkpt>
      <trkpt lat="42.615850" lon="-2.219667">
        <ele>736.0</ele>
        <time>2013-06-22T13:39:38Z</time>
      </trkpt>
      <trkpt lat="42.615850" lon="-2.219717">
        <ele>737.0</ele>
        <time>2013-06-22T13:39:39Z</time>
      </trkpt>
      <trkpt lat="42.615850" lon="-2.219767">
        <ele>737.0</ele>
        <time>2013-06-22T13:39:40Z</time>
      </trkpt>
      <trkpt lat="42.615850" lon="-2.219817">
        <ele>737.0</ele>
        <time>2013-06-22T13:39:41Z</time>
      </trkpt>
      <trkpt lat="42.615867" lon="-2.219900">
        <ele>735.0</ele>
        <time>2013-06-22T13:39:42Z</time>
      </trkpt>
      <trkpt lat="42.615867" lon="-2.220000">
        <ele>734.0</ele>
        <time>2013-06-22T13:39:43Z</time>
      </trkpt>
      <trkpt lat="42.615867" lon="-2.220083">
        <ele>733.0</ele>
        <time>2013-06-22T13:39:44Z</time>
      </trkpt>
      <trkpt lat="42.615867" lon="-2.220167">
        <ele>735.0</ele>
        <time>2013-06-22T13:39:45Z</time>
      </trkpt>
      <trkpt lat="42.615867" lon="-2.220233">
        <ele>735.0</ele>
        <time>2013-06-22T13:39:46Z</time>
      </trkpt>
      <trkpt lat="42.615850" lon="-2.220317">
        <ele>735.0</ele>
        <time>2013-06-22T13:39:47Z</time>
      </trkpt>
      <trkpt lat="42.615833" lon="-2.220383">
        <ele>735.0</ele>
        <time>2013-06-22T13:39:48Z</time>
      </trkpt>
      <trkpt lat="42.615800" lon="-2.220450">
        <ele>734.0</ele>
        <time>2013-06-22T13:39:49Z</time>
      </trkpt>
      <trkpt lat="42.615783" lon="-2.220533">
        <ele>733.0</ele>
        <time>2013-06-22T13:39:50Z</time>
      </trkpt>
      <trkpt lat="42.615767" lon="-2.220617">
        <ele>731.0</ele>
        <time>2013-06-22T13:39:51Z</time>
      </trkpt>
      <trkpt lat="42.615767" lon="-2.220700">
        <ele>730.0</ele>
        <time>2013-06-22T13:39:52Z</time>
      </trkpt>
      <trkpt lat="42.615767" lon="-2.220783">
        <ele>729.0</ele>
        <time>2013-06-22T13:39:53Z</time>
      </trkpt>
      <trkpt lat="42.615767" lon="-2.220850">
        <ele>727.0</ele>
        <time>2013-06-22T13:39:54Z</time>
      </trkpt>
      <trkpt lat="42.615767" lon="-2.220917">
        <ele>726.0</ele>
        <time>2013-06-22T13:39:55Z</time>
      </trkpt>
      <trkpt lat="42.615767" lon="-2.221000">
        <ele>723.0</ele>
        <time>2013-06-22T13:39:56Z</time>
      </trkpt>
      <trkpt lat="42.615767" lon="-2.221083">
        <ele>720.0</ele>
        <time>2013-06-22T13:39:57Z</time>
      </trkpt>
      <trkpt lat="42.615783" lon="-2.221150">
        <ele>718.0</ele>
        <time>2013-06-22T13:39:58Z</time>
      </trkpt>
      <trkpt lat="42.615783" lon="-2.221233">
        <ele>716.0</ele>
        <time>2013-06-22T13:39:59Z</time>
      </trkpt>
      <trkpt lat="42.615800" lon="-2.221283">
        <ele>715.0</ele>
        <time>2013-06-22T13:40:00Z</time>
      </trkpt>
      <trkpt lat="42.615817" lon="-2.221333">
        <ele>714.0</ele>
        <time>2013-06-22T13:40:01Z</time>
      </trkpt>
      <trkpt lat="42.615833" lon="-2.221383">
        <ele>713.0</ele>
        <time>2013-06-22T13:40:02Z</time>
      </trkpt>
      <trkpt lat="42.615867" lon="-2.221433">
        <ele>712.0</ele>
        <time>2013-06-22T13:40:03Z</time>
      </trkpt>
      <trkpt lat="42.615883" lon="-2.221483">
        <ele>714.0</ele>
        <time>2013-06-22T13:40:04Z</time>
      </trkpt>
      <trkpt lat="42.615900" lon="-2.221550">
        <ele>713.0</ele>
        <time>2013-06-22T13:40:05Z</time>
      </trkpt>
      <trkpt lat="42.615933" lon="-2.221617">
        <ele>712.0</ele>
        <time>2013-06-22T13:40:06Z</time>
      </trkpt>
      <trkpt lat="42.615950" lon="-2.221683">
        <ele>711.0</ele>
        <time>2013-06-22T13:40:07Z</time>
      </trkpt>
      <trkpt lat="42.615983" lon="-2.221717">
        <ele>711.0</ele>
        <time>2013-06-22T13:40:08Z</time>
      </trkpt>
      <trkpt lat="42.616017" lon="-2.221733">
        <ele>710.0</ele>
        <time>2013-06-22T13:40:09Z</time>
      </trkpt>
      <trkpt lat="42.616067" lon="-2.221717">
        <ele>709.0</ele>
        <time>2013-06-22T13:40:10Z</time>
      </trkpt>
      <trkpt lat="42.616100" lon="-2.221683">
        <ele>706.0</ele>
        <time>2013-06-22T13:40:11Z</time>
      </trkpt>
      <trkpt lat="42.616150" lon="-2.221633">
        <ele>704.0</ele>
        <time>2013-06-22T13:40:12Z</time>
      </trkpt>
      <trkpt lat="42.616200" lon="-2.221567">
        <ele>703.0</ele>
        <time>2013-06-22T13:40:13Z</time>
      </trkpt>
      <trkpt lat="42.616250" lon="-2.221517">
        <ele>703.0</ele>
        <time>2013-06-22T13:40:14Z</time>
      </trkpt>
      <trkpt lat="42.616283" lon="-2.221450">
        <ele>703.0</ele>
        <time>2013-06-22T13:40:15Z</time>
      </trkpt>
      <trkpt lat="42.616317" lon="-2.221383">
        <ele>703.0</ele>
        <time>2013-06-22T13:40:16Z</time>
      </trkpt>
      <trkpt lat="42.616350" lon="-2.221317">
        <ele>702.0</ele>
        <time>2013-06-22T13:40:17Z</time>
      </trkpt>
      <trkpt lat="42.616400" lon="-2.221233">
        <ele>701.0</ele>
        <time>2013-06-22T13:40:18Z</time>
      </trkpt>
      <trkpt lat="42.616433" lon="-2.221150">
        <ele>702.0</ele>
        <time>2013-06-22T13:40:19Z</time>
      </trkpt>
      <trkpt lat="42.616467" lon="-2.221050">
        <ele>702.0</ele>
        <time>2013-06-22T13:40:20Z</time>
      </trkpt>
      <trkpt lat="42.616500" lon="-2.220967">
        <ele>703.0</ele>
        <time>2013-06-22T13:40:21Z</time>
      </trkpt>
      <trkpt lat="42.616533" lon="-2.220883">
        <ele>704.0</ele>
        <time>2013-06-22T13:40:22Z</time>
      </trkpt>
      <trkpt lat="42.616567" lon="-2.220817">
        <ele>705.0</ele>
        <time>2013-06-22T13:40:23Z</time>
      </trkpt>
      <trkpt lat="42.616600" lon="-2.220750">
        <ele>703.0</ele>
        <time>2013-06-22T13:40:24Z</time>
      </trkpt>
      <trkpt lat="42.616633" lon="-2.220667">
        <ele>702.0</ele>
        <time>2013-06-22T13:40:25Z</time>
      </trkpt>
      <trkpt lat="42.616683" lon="-2.220600">
        <ele>702.0</ele>
        <time>2013-06-22T13:40:26Z</time>
      </trkpt>
      <trkpt lat="42.616733" lon="-2.220550">
        <ele>702.0</ele>
        <time>2013-06-22T13:40:27Z</time>
      </trkpt>
      <trkpt lat="42.616783" lon="-2.220517">
        <ele>702.0</ele>
        <time>2013-06-22T13:40:28Z</time>
      </trkpt>
      <trkpt lat="42.616833" lon="-2.220533">
        <ele>702.0</ele>
        <time>2013-06-22T13:40:29Z</time>
      </trkpt>
      <trkpt lat="42.616900" lon="-2.220550">
        <ele>702.0</ele>
        <time>2013-06-22T13:40:30Z</time>
      </trkpt>
      <trkpt lat="42.616950" lon="-2.220600">
        <ele>701.0</ele>
        <time>2013-06-22T13:40:31Z</time>
      </trkpt>
      <trkpt lat="42.617000" lon="-2.220667">
        <ele>701.0</ele>
        <time>2013-06-22T13:40:32Z</time>
      </trkpt>
      <trkpt lat="42.617033" lon="-2.220733">
        <ele>701.0</ele>
        <time>2013-06-22T13:40:33Z</time>
      </trkpt>
      <trkpt lat="42.617067" lon="-2.220800">
        <ele>702.0</ele>
        <time>2013-06-22T13:40:34Z</time>
      </trkpt>
      <trkpt lat="42.617067" lon="-2.220867">
        <ele>702.0</ele>
        <time>2013-06-22T13:40:35Z</time>
      </trkpt>
      <trkpt lat="42.617083" lon="-2.220933">
        <ele>702.0</ele>
        <time>2013-06-22T13:40:36Z</time>
      </trkpt>
      <trkpt lat="42.617083" lon="-2.221000">
        <ele>702.0</ele>
        <time>2013-06-22T13:40:37Z</time>
      </trkpt>
      <trkpt lat="42.617083" lon="-2.221117">
        <ele>700.0</ele>
        <time>2013-06-22T13:40:38Z</time>
      </trkpt>
      <trkpt lat="42.617100" lon="-2.221233">
        <ele>700.0</ele>
        <time>2013-06-22T13:40:39Z</time>
      </trkpt>
      <trkpt lat="42.617100" lon="-2.221333">
        <ele>700.0</ele>
        <time>2013-06-22T13:40:40Z</time>
      </trkpt>
      <trkpt lat="42.617083" lon="-2.221417">
        <ele>702.0</ele>
        <time>2013-06-22T13:40:41Z</time>
      </trkpt>
      <trkpt lat="42.617083" lon="-2.221500">
        <ele>703.0</ele>
        <time>2013-06-22T13:40:42Z</time>
      </trkpt>
      <trkpt lat="42.617083" lon="-2.221567">
        <ele>704.0</ele>
        <time>2013-06-22T13:40:43Z</time>
      </trkpt>
      <trkpt lat="42.617100" lon="-2.221650">
        <ele>704.0</ele>
        <time>2013-06-22T13:40:44Z</time>
      </trkpt>
      <trkpt lat="42.617100" lon="-2.221767">
        <ele>703.0</ele>
        <time>2013-06-22T13:40:45Z</time>
      </trkpt>
      <trkpt lat="42.617100" lon="-2.221883">
        <ele>703.0</ele>
        <time>2013-06-22T13:40:46Z</time>
      </trkpt>
      <trkpt lat="42.617117" lon="-2.221983">
        <ele>703.0</ele>
        <time>2013-06-22T13:40:47Z</time>
      </trkpt>
      <trkpt lat="42.617117" lon="-2.222067">
        <ele>704.0</ele>
        <time>2013-06-22T13:40:48Z</time>
      </trkpt>
      <trkpt lat="42.617133" lon="-2.222150">
        <ele>704.0</ele>
        <time>2013-06-22T13:40:49Z</time>
      </trkpt>
      <trkpt lat="42.617150" lon="-2.222217">
        <ele>703.0</ele>
        <time>2013-06-22T13:40:50Z</time>
      </trkpt>
      <trkpt lat="42.617183" lon="-2.222283">
        <ele>703.0</ele>
        <time>2013-06-22T13:40:51Z</time>
      </trkpt>
      <trkpt lat="42.617200" lon="-2.222350">
        <ele>702.0</ele>
        <time>2013-06-22T13:40:52Z</time>
      </trkpt>
      <trkpt lat="42.617233" lon="-2.222433">
        <ele>701.0</ele>
        <time>2013-06-22T13:40:53Z</time>
      </trkpt>
      <trkpt lat="42.617250" lon="-2.222500">
        <ele>700.0</ele>
        <time>2013-06-22T13:40:54Z</time>
      </trkpt>
      <trkpt lat="42.617250" lon="-2.222567">
        <ele>700.0</ele>
        <time>2013-06-22T13:40:55Z</time>
      </trkpt>
      <trkpt lat="42.617267" lon="-2.222633">
        <ele>699.0</ele>
        <time>2013-06-22T13:40:56Z</time>
      </trkpt>
      <trkpt lat="42.617283" lon="-2.222700">
        <ele>698.0</ele>
        <time>2013-06-22T13:40:57Z</time>
      </trkpt>
      <trkpt lat="42.617300" lon="-2.222783">
        <ele>697.0</ele>
        <time>2013-06-22T13:40:58Z</time>
      </trkpt>
      <trkpt lat="42.617300" lon="-2.222883">
        <ele>697.0</ele>
        <time>2013-06-22T13:40:59Z</time>
      </trkpt>
      <trkpt lat="42.617300" lon="-2.222967">
        <ele>698.0</ele>
        <time>2013-06-22T13:41:00Z</time>
      </trkpt>
      <trkpt lat="42.617283" lon="-2.223033">
        <ele>699.0</ele>
        <time>2013-06-22T13:41:01Z</time>
      </trkpt>
      <trkpt lat="42.617283" lon="-2.223083">
        <ele>699.0</ele>
        <time>2013-06-22T13:41:02Z</time>
      </trkpt>
      <trkpt lat="42.617283" lon="-2.223167">
        <ele>699.0</ele>
        <time>2013-06-22T13:41:03Z</time>
      </trkpt>
      <trkpt lat="42.617300" lon="-2.223233">
        <ele>698.0</ele>
        <time>2013-06-22T13:41:04Z</time>
      </trkpt>
      <trkpt lat="42.617300" lon="-2.223317">
        <ele>697.0</ele>
        <time>2013-06-22T13:41:05Z</time>
      </trkpt>
      <trkpt lat="42.617300" lon="-2.223383">
        <ele>696.0</ele>
        <time>2013-06-22T13:41:06Z</time>
      </trkpt>
      <trkpt lat="42.617283" lon="-2.223433">
        <ele>697.0</ele>
        <time>2013-06-22T13:41:07Z</time>
      </trkpt>
      <trkpt lat="42.617283" lon="-2.223483">
        <ele>697.0</ele>
        <time>2013-06-22T13:41:08Z</time>
      </trkpt>
      <trkpt lat="42.617300" lon="-2.223500">
        <ele>698.0</ele>
        <time>2013-06-22T13:41:09Z</time>
      </trkpt>
      <trkpt lat="42.617317" lon="-2.223517">
        <ele>699.0</ele>
        <time>2013-06-22T13:41:10Z</time>
      </trkpt>
      <trkpt lat="42.617333" lon="-2.223500">
        <ele>701.0</ele>
        <time>2013-06-22T13:41:11Z</time>
      </trkpt>
      <trkpt lat="42.617333" lon="-2.223467">
        <ele>700.0</ele>
        <time>2013-06-22T13:41:12Z</time>
      </trkpt>
      <trkpt lat="42.617350" lon="-2.223450">
        <ele>699.0</ele>
        <time>2013-06-22T13:41:13Z</time>
      </trkpt>
      <trkpt lat="42.617383" lon="-2.223450">
        <ele>698.0</ele>
        <time>2013-06-22T13:41:14Z</time>
      </trkpt>
      <trkpt lat="42.617417" lon="-2.223433">
        <ele>697.0</ele>
        <time>2013-06-22T13:41:15Z</time>
      </trkpt>
      <trkpt lat="42.617433" lon="-2.223467">
        <ele>698.0</ele>
        <time>2013-06-22T13:41:16Z</time>
      </trkpt>
      <trkpt lat="42.617450" lon="-2.223500">
        <ele>700.0</ele>
        <time>2013-06-22T13:41:17Z</time>
      </trkpt>
      <trkpt lat="42.617433" lon="-2.223533">
        <ele>701.0</ele>
        <time>2013-06-22T13:41:18Z</time>
      </trkpt>
      <trkpt lat="42.617433" lon="-2.223583">
        <ele>701.0</ele>
        <time>2013-06-22T13:41:19Z</time>
      </trkpt>
      <trkpt lat="42.617450" lon="-2.223667">
        <ele>702.0</ele>
        <time>2013-06-22T13:41:20Z</time>
      </trkpt>
      <trkpt lat="42.617467" lon="-2.223733">
        <ele>702.0</ele>
        <time>2013-06-22T13:41:21Z</time>
      </trkpt>
      <trkpt lat="42.617500" lon="-2.223833">
        <ele>702.0</ele>
        <time>2013-06-22T13:41:22Z</time>
      </trkpt>
      <trkpt lat="42.617517" lon="-2.223917">
        <ele>702.0</ele>
        <time>2013-06-22T13:41:23Z</time>
      </trkpt>
      <trkpt lat="42.617533" lon="-2.224000">
        <ele>703.0</ele>
        <time>2013-06-22T13:41:24Z</time>
      </trkpt>
      <trkpt lat="42.617533" lon="-2.224083">
        <ele>705.0</ele>
        <time>2013-06-22T13:41:25Z</time>
      </trkpt>
      <trkpt lat="42.617533" lon="-2.224150">
        <ele>705.0</ele>
        <time>2013-06-22T13:41:26Z</time>
      </trkpt>
      <trkpt lat="42.617517" lon="-2.224217">
        <ele>706.0</ele>
        <time>2013-06-22T13:41:27Z</time>
      </trkpt>
      <trkpt lat="42.617533" lon="-2.224300">
        <ele>706.0</ele>
        <time>2013-06-22T13:41:28Z</time>
      </trkpt>
      <trkpt lat="42.617533" lon="-2.224367">
        <ele>707.0</ele>
        <time>2013-06-22T13:41:29Z</time>
      </trkpt>
      <trkpt lat="42.617533" lon="-2.224433">
        <ele>707.0</ele>
        <time>2013-06-22T13:41:30Z</time>
      </trkpt>
      <trkpt lat="42.617517" lon="-2.224500">
        <ele>708.0</ele>
        <time>2013-06-22T13:41:31Z</time>
      </trkpt>
      <trkpt lat="42.617517" lon="-2.224550">
        <ele>709.0</ele>
        <time>2013-06-22T13:41:32Z</time>
      </trkpt>
      <trkpt lat="42.617533" lon="-2.224617">
        <ele>709.0</ele>
        <time>2013-06-22T13:41:33Z</time>
      </trkpt>
      <trkpt lat="42.617533" lon="-2.224683">
        <ele>709.0</ele>
        <time>2013-06-22T13:41:34Z</time>
      </trkpt>
      <trkpt lat="42.617550" lon="-2.224750">
        <ele>708.0</ele>
        <time>2013-06-22T13:41:35Z</time>
      </trkpt>
      <trkpt lat="42.617550" lon="-2.224800">
        <ele>709.0</ele>
        <time>2013-06-22T13:41:36Z</time>
      </trkpt>
      <trkpt lat="42.617567" lon="-2.224817">
        <ele>708.0</ele>
        <time>2013-06-22T13:41:37Z</time>
      </trkpt>
      <trkpt lat="42.617583" lon="-2.224833">
        <ele>708.0</ele>
        <time>2013-06-22T13:41:38Z</time>
      </trkpt>
      <trkpt lat="42.617583" lon="-2.224867">
        <ele>708.0</ele>
        <time>2013-06-22T13:41:39Z</time>
      </trkpt>
      <trkpt lat="42.617600" lon="-2.224917">
        <ele>708.0</ele>
        <time>2013-06-22T13:41:40Z</time>
      </trkpt>
      <trkpt lat="42.617600" lon="-2.224967">
        <ele>708.0</ele>
        <time>2013-06-22T13:41:41Z</time>
      </trkpt>
      <trkpt lat="42.617600" lon="-2.225000">
        <ele>708.0</ele>
        <time>2013-06-22T13:41:42Z</time>
      </trkpt>
      <trkpt lat="42.617600" lon="-2.225050">
        <ele>708.0</ele>
        <time>2013-06-22T13:41:43Z</time>
      </trkpt>
      <trkpt lat="42.617617" lon="-2.225100">
        <ele>708.0</ele>
        <time>2013-06-22T13:41:44Z</time>
      </trkpt>
      <trkpt lat="42.617617" lon="-2.225167">
        <ele>708.0</ele>
        <time>2013-06-22T13:41:45Z</time>
      </trkpt>
      <trkpt lat="42.617617" lon="-2.225233">
        <ele>708.0</ele>
        <time>2013-06-22T13:41:46Z</time>
      </trkpt>
      <trkpt lat="42.617617" lon="-2.225283">
        <ele>709.0</ele>
        <time>2013-06-22T13:41:47Z</time>
      </trkpt>
      <trkpt lat="42.617617" lon="-2.225317">
        <ele>709.0</ele>
        <time>2013-06-22T13:41:48Z</time>
      </trkpt>
      <trkpt lat="42.617633" lon="-2.225367">
        <ele>709.0</ele>
        <time>2013-06-22T13:41:49Z</time>
      </trkpt>
      <trkpt lat="42.617633" lon="-2.225433">
        <ele>708.0</ele>
        <time>2013-06-22T13:41:50Z</time>
      </trkpt>
      <trkpt lat="42.617650" lon="-2.225500">
        <ele>707.0</ele>
        <time>2013-06-22T13:41:51Z</time>
      </trkpt>
      <trkpt lat="42.617650" lon="-2.225550">
        <ele>706.0</ele>
        <time>2013-06-22T13:41:52Z</time>
      </trkpt>
      <trkpt lat="42.617650" lon="-2.225600">
        <ele>706.0</ele>
        <time>2013-06-22T13:41:53Z</time>
      </trkpt>
      <trkpt lat="42.617667" lon="-2.225650">
        <ele>705.0</ele>
        <time>2013-06-22T13:41:54Z</time>
      </trkpt>
      <trkpt lat="42.617650" lon="-2.225700">
        <ele>706.0</ele>
        <time>2013-06-22T13:41:55Z</time>
      </trkpt>
      <trkpt lat="42.617667" lon="-2.225733">
        <ele>705.0</ele>
        <time>2013-06-22T13:41:56Z</time>
      </trkpt>
      <trkpt lat="42.617700" lon="-2.225750">
        <ele>704.0</ele>
        <time>2013-06-22T13:41:57Z</time>
      </trkpt>
      <trkpt lat="42.617733" lon="-2.225733">
        <ele>703.0</ele>
        <time>2013-06-22T13:41:58Z</time>
      </trkpt>
      <trkpt lat="42.617750" lon="-2.225667">
        <ele>700.0</ele>
        <time>2013-06-22T13:41:59Z</time>
      </trkpt>
      <trkpt lat="42.617767" lon="-2.225567">
        <ele>698.0</ele>
        <time>2013-06-22T13:42:00Z</time>
      </trkpt>
      <trkpt lat="42.617767" lon="-2.225467">
        <ele>696.0</ele>
        <time>2013-06-22T13:42:01Z</time>
      </trkpt>
      <trkpt lat="42.617767" lon="-2.225350">
        <ele>694.0</ele>
        <time>2013-06-22T13:42:02Z</time>
      </trkpt>
      <trkpt lat="42.617750" lon="-2.225233">
        <ele>693.0</ele>
        <time>2013-06-22T13:42:03Z</time>
      </trkpt>
      <trkpt lat="42.617750" lon="-2.225117">
        <ele>691.0</ele>
        <time>2013-06-22T13:42:04Z</time>
      </trkpt>
      <trkpt lat="42.617750" lon="-2.225000">
        <ele>689.0</ele>
        <time>2013-06-22T13:42:05Z</time>
      </trkpt>
      <trkpt lat="42.617733" lon="-2.224867">
        <ele>688.0</ele>
        <time>2013-06-22T13:42:06Z</time>
      </trkpt>
      <trkpt lat="42.617717" lon="-2.224733">
        <ele>686.0</ele>
        <time>2013-06-22T13:42:07Z</time>
      </trkpt>
      <trkpt lat="42.617683" lon="-2.224600">
        <ele>685.0</ele>
        <time>2013-06-22T13:42:08Z</time>
      </trkpt>
      <trkpt lat="42.617667" lon="-2.224483">
        <ele>683.0</ele>
        <time>2013-06-22T13:42:09Z</time>
      </trkpt>
      <trkpt lat="42.617633" lon="-2.224350">
        <ele>681.0</ele>
        <time>2013-06-22T13:42:10Z</time>
      </trkpt>
      <trkpt lat="42.617600" lon="-2.224200">
        <ele>679.0</ele>
        <time>2013-06-22T13:42:11Z</time>
      </trkpt>
      <trkpt lat="42.617567" lon="-2.224067">
        <ele>678.0</ele>
        <time>2013-06-22T13:42:12Z</time>
      </trkpt>
      <trkpt lat="42.617533" lon="-2.223933">
        <ele>677.0</ele>
        <time>2013-06-22T13:42:13Z</time>
      </trkpt>
      <trkpt lat="42.617500" lon="-2.223800">
        <ele>676.0</ele>
        <time>2013-06-22T13:42:14Z</time>
      </trkpt>
      <trkpt lat="42.617467" lon="-2.223667">
        <ele>676.0</ele>
        <time>2013-06-22T13:42:15Z</time>
      </trkpt>
      <trkpt lat="42.617433" lon="-2.223517">
        <ele>675.0</ele>
        <time>2013-06-22T13:42:16Z</time>
      </trkpt>
      <trkpt lat="42.617417" lon="-2.223383">
        <ele>674.0</ele>
        <time>2013-06-22T13:42:17Z</time>
      </trkpt>
      <trkpt lat="42.617400" lon="-2.223250">
        <ele>673.0</ele>
        <time>2013-06-22T13:42:18Z</time>
      </trkpt>
      <trkpt lat="42.617400" lon="-2.223133">
        <ele>672.0</ele>
        <time>2013-06-22T13:42:19Z</time>
      </trkpt>
      <trkpt lat="42.617400" lon="-2.223033">
        <ele>671.0</ele>
        <time>2013-06-22T13:42:20Z</time>
      </trkpt>
      <trkpt lat="42.617433" lon="-2.222967">
        <ele>670.0</ele>
        <time>2013-06-22T13:42:21Z</time>
      </trkpt>
      <trkpt lat="42.617450" lon="-2.222883">
        <ele>669.0</ele>
        <time>2013-06-22T13:42:22Z</time>
      </trkpt>
      <trkpt lat="42.617483" lon="-2.222817">
        <ele>668.0</ele>
        <time>2013-06-22T13:42:23Z</time>
      </trkpt>
      <trkpt lat="42.617517" lon="-2.222733">
        <ele>667.0</ele>
        <time>2013-06-22T13:42:24Z</time>
      </trkpt>
      <trkpt lat="42.617533" lon="-2.222633">
        <ele>666.0</ele>
        <time>2013-06-22T13:42:25Z</time>
      </trkpt>
      <trkpt lat="42.617517" lon="-2.222517">
        <ele>666.0</ele>
        <time>2013-06-22T13:42:26Z</time>
      </trkpt>
      <trkpt lat="42.617500" lon="-2.222383">
        <ele>665.0</ele>
        <time>2013-06-22T13:42:27Z</time>
      </trkpt>
      <trkpt lat="42.617483" lon="-2.222233">
        <ele>664.0</ele>
        <time>2013-06-22T13:42:28Z</time>
      </trkpt>
      <trkpt lat="42.617450" lon="-2.222083">
        <ele>663.0</ele>
        <time>2013-06-22T13:42:29Z</time>
      </trkpt>
      <trkpt lat="42.617433" lon="-2.221917">
        <ele>662.0</ele>
        <time>2013-06-22T13:42:30Z</time>
      </trkpt>
      <trkpt lat="42.617417" lon="-2.221783">
        <ele>662.0</ele>
        <time>2013-06-22T13:42:31Z</time>
      </trkpt>
      <trkpt lat="42.617383" lon="-2.221633">
        <ele>661.0</ele>
        <time>2013-06-22T13:42:32Z</time>
      </trkpt>
      <trkpt lat="42.617367" lon="-2.221517">
        <ele>661.0</ele>
        <time>2013-06-22T13:42:33Z</time>
      </trkpt>
      <trkpt lat="42.617350" lon="-2.221383">
        <ele>660.0</ele>
        <time>2013-06-22T13:42:34Z</time>
      </trkpt>
      <trkpt lat="42.617333" lon="-2.221233">
        <ele>659.0</ele>
        <time>2013-06-22T13:42:35Z</time>
      </trkpt>
      <trkpt lat="42.617300" lon="-2.221100">
        <ele>657.0</ele>
        <time>2013-06-22T13:42:36Z</time>
      </trkpt>
      <trkpt lat="42.617267" lon="-2.220967">
        <ele>656.0</ele>
        <time>2013-06-22T13:42:37Z</time>
      </trkpt>
      <trkpt lat="42.617233" lon="-2.220833">
        <ele>655.0</ele>
        <time>2013-06-22T13:42:38Z</time>
      </trkpt>
      <trkpt lat="42.617183" lon="-2.220700">
        <ele>653.0</ele>
        <time>2013-06-22T13:42:39Z</time>
      </trkpt>
      <trkpt lat="42.617150" lon="-2.220517">
        <ele>651.0</ele>
        <time>2013-06-22T13:42:40Z</time>
      </trkpt>
      <trkpt lat="42.617133" lon="-2.220367">
        <ele>652.0</ele>
        <time>2013-06-22T13:42:41Z</time>
      </trkpt>
      <trkpt lat="42.617117" lon="-2.220233">
        <ele>654.0</ele>
        <time>2013-06-22T13:42:42Z</time>
      </trkpt>
      <trkpt lat="42.617117" lon="-2.220117">
        <ele>656.0</ele>
        <time>2013-06-22T13:42:43Z</time>
      </trkpt>
      <trkpt lat="42.617100" lon="-2.220000">
        <ele>657.0</ele>
        <time>2013-06-22T13:42:44Z</time>
      </trkpt>
      <trkpt lat="42.617083" lon="-2.219900">
        <ele>658.0</ele>
        <time>2013-06-22T13:42:45Z</time>
      </trkpt>
      <trkpt lat="42.617067" lon="-2.219783">
        <ele>658.0</ele>
        <time>2013-06-22T13:42:46Z</time>
      </trkpt>
      <trkpt lat="42.617083" lon="-2.219683">
        <ele>658.0</ele>
        <time>2013-06-22T13:42:47Z</time>
      </trkpt>
      <trkpt lat="42.617117" lon="-2.219600">
        <ele>657.0</ele>
        <time>2013-06-22T13:42:48Z</time>
      </trkpt>
      <trkpt lat="42.617150" lon="-2.219550">
        <ele>655.0</ele>
        <time>2013-06-22T13:42:49Z</time>
      </trkpt>
      <trkpt lat="42.617200" lon="-2.219550">
        <ele>653.0</ele>
        <time>2013-06-22T13:42:50Z</time>
      </trkpt>
      <trkpt lat="42.617233" lon="-2.219567">
        <ele>651.0</ele>
        <time>2013-06-22T13:42:51Z</time>
      </trkpt>
      <trkpt lat="42.617267" lon="-2.219567">
        <ele>650.0</ele>
        <time>2013-06-22T13:42:52Z</time>
      </trkpt>
      <trkpt lat="42.617283" lon="-2.219550">
        <ele>651.0</ele>
        <time>2013-06-22T13:42:53Z</time>
      </trkpt>
      <trkpt lat="42.617300" lon="-2.219550">
        <ele>650.0</ele>
        <time>2013-06-22T13:42:54Z</time>
      </trkpt>
      <trkpt lat="42.617333" lon="-2.219567">
        <ele>652.0</ele>
        <time>2013-06-22T13:42:55Z</time>
      </trkpt>
      <trkpt lat="42.617333" lon="-2.219600">
        <ele>651.0</ele>
        <time>2013-06-22T13:42:56Z</time>
      </trkpt>
      <trkpt lat="42.617333" lon="-2.219633">
        <ele>652.0</ele>
        <time>2013-06-22T13:42:57Z</time>
      </trkpt>
      <trkpt lat="42.617317" lon="-2.219667">
        <ele>653.0</ele>
        <time>2013-06-22T13:42:58Z</time>
      </trkpt>
      <trkpt lat="42.617317" lon="-2.219683">
        <ele>653.0</ele>
        <time>2013-06-22T13:42:59Z</time>
      </trkpt>
      <trkpt lat="42.617333" lon="-2.219717">
        <ele>653.0</ele>
        <time>2013-06-22T13:43:00Z</time>
      </trkpt>
      <trkpt lat="42.617350" lon="-2.219750">
        <ele>653.0</ele>
        <time>2013-06-22T13:43:01Z</time>
      </trkpt>
      <trkpt lat="42.617383" lon="-2.219783">
        <ele>653.0</ele>
        <time>2013-06-22T13:43:02Z</time>
      </trkpt>
      <trkpt lat="42.617400" lon="-2.219800">
        <ele>653.0</ele>
        <time>2013-06-22T13:43:03Z</time>
      </trkpt>
      <trkpt lat="42.617417" lon="-2.219817">
        <ele>654.0</ele>
        <time>2013-06-22T13:43:04Z</time>
      </trkpt>
      <trkpt lat="42.617433" lon="-2.219833">
        <ele>654.0</ele>
        <time>2013-06-22T13:43:05Z</time>
      </trkpt>
      <trkpt lat="42.617450" lon="-2.219850">
        <ele>653.0</ele>
        <time>2013-06-22T13:43:06Z</time>
      </trkpt>
      <trkpt lat="42.617450" lon="-2.219900">
        <ele>651.0</ele>
        <time>2013-06-22T13:43:07Z</time>
      </trkpt>
      <trkpt lat="42.617467" lon="-2.219933">
        <ele>649.0</ele>
        <time>2013-06-22T13:43:08Z</time>
      </trkpt>
      <trkpt lat="42.617467" lon="-2.219983">
        <ele>648.0</ele>
        <time>2013-06-22T13:43:09Z</time>
      </trkpt>
      <trkpt lat="42.617467" lon="-2.220017">
        <ele>650.0</ele>
        <time>2013-06-22T13:43:10Z</time>
      </trkpt>
      <trkpt lat="42.617483" lon="-2.220067">
        <ele>650.0</ele>
        <time>2013-06-22T13:43:11Z</time>
      </trkpt>
      <trkpt lat="42.617500" lon="-2.220133">
        <ele>650.0</ele>
        <time>2013-06-22T13:43:12Z</time>
      </trkpt>
      <trkpt lat="42.617500" lon="-2.220183">
        <ele>650.0</ele>
        <time>2013-06-22T13:43:13Z</time>
      </trkpt>
      <trkpt lat="42.617483" lon="-2.220233">
        <ele>649.0</ele>
        <time>2013-06-22T13:43:14Z</time>
      </trkpt>
      <trkpt lat="42.617467" lon="-2.220267">
        <ele>650.0</ele>
        <time>2013-06-22T13:43:15Z</time>
      </trkpt>
      <trkpt lat="42.617450" lon="-2.220283">
        <ele>650.0</ele>
        <time>2013-06-22T13:43:16Z</time>
      </trkpt>
      <trkpt lat="42.617450" lon="-2.220300">
        <ele>649.0</ele>
        <time>2013-06-22T13:43:17Z</time>
      </trkpt>
      <trkpt lat="42.617467" lon="-2.220350">
        <ele>649.0</ele>
        <time>2013-06-22T13:43:18Z</time>
      </trkpt>
      <trkpt lat="42.617483" lon="-2.220417">
        <ele>649.0</ele>
        <time>2013-06-22T13:43:19Z</time>
      </trkpt>
      <trkpt lat="42.617483" lon="-2.220467">
        <ele>649.0</ele>
        <time>2013-06-22T13:43:20Z</time>
      </trkpt>
      <trkpt lat="42.617500" lon="-2.220500">
        <ele>648.0</ele>
        <time>2013-06-22T13:43:21Z</time>
      </trkpt>
      <trkpt lat="42.617500" lon="-2.220533">
        <ele>648.0</ele>
        <time>2013-06-22T13:43:22Z</time>
      </trkpt>
      <trkpt lat="42.617500" lon="-2.220567">
        <ele>647.0</ele>
        <time>2013-06-22T13:43:23Z</time>
      </trkpt>
      <trkpt lat="42.617517" lon="-2.220617">
        <ele>647.0</ele>
        <time>2013-06-22T13:43:24Z</time>
      </trkpt>
      <trkpt lat="42.617517" lon="-2.220667">
        <ele>647.0</ele>
        <time>2013-06-22T13:43:25Z</time>
      </trkpt>
      <trkpt lat="42.617517" lon="-2.220700">
        <ele>646.0</ele>
        <time>2013-06-22T13:43:26Z</time>
      </trkpt>
      <trkpt lat="42.617517" lon="-2.220733">
        <ele>646.0</ele>
        <time>2013-06-22T13:43:27Z</time>
      </trkpt>
      <trkpt lat="42.617533" lon="-2.220750">
        <ele>645.0</ele>
        <time>2013-06-22T13:43:28Z</time>
      </trkpt>
      <trkpt lat="42.617550" lon="-2.220783">
        <ele>644.0</ele>
        <time>2013-06-22T13:43:29Z</time>
      </trkpt>
      <trkpt lat="42.617583" lon="-2.220833">
        <ele>644.0</ele>
        <time>2013-06-22T13:43:30Z</time>
      </trkpt>
      <trkpt lat="42.617617" lon="-2.220867">
        <ele>644.0</ele>
        <time>2013-06-22T13:43:31Z</time>
      </trkpt>
      <trkpt lat="42.617633" lon="-2.220883">
        <ele>643.0</ele>
        <time>2013-06-22T13:43:32Z</time>
      </trkpt>
      <trkpt lat="42.617650" lon="-2.220900">
        <ele>643.0</ele>
        <time>2013-06-22T13:43:33Z</time>
      </trkpt>
      <trkpt lat="42.617633" lon="-2.220900">
        <ele>643.0</ele>
        <time>2013-06-22T13:43:34Z</time>
      </trkpt>
      <trkpt lat="42.617650" lon="-2.220900">
        <ele>644.0</ele>
        <time>2013-06-22T13:43:35Z</time>
      </trkpt>
      <trkpt lat="42.617667" lon="-2.220933">
        <ele>643.0</ele>
        <time>2013-06-22T13:43:36Z</time>
      </trkpt>
      <trkpt lat="42.617700" lon="-2.220967">
        <ele>643.0</ele>
        <time>2013-06-22T13:43:37Z</time>
      </trkpt>
      <trkpt lat="42.617733" lon="-2.221017">
        <ele>642.0</ele>
        <time>2013-06-22T13:43:38Z</time>
      </trkpt>
      <trkpt lat="42.617783" lon="-2.221050">
        <ele>642.0</ele>
        <time>2013-06-22T13:43:39Z</time>
      </trkpt>
      <trkpt lat="42.617767" lon="-2.221067">
        <ele>642.0</ele>
        <time>2013-06-22T13:43:40Z</time>
      </trkpt>
      <trkpt lat="42.617750" lon="-2.221100">
        <ele>642.0</ele>
        <time>2013-06-22T13:43:41Z</time>
      </trkpt>
      <trkpt lat="42.617750" lon="-2.221117">
        <ele>642.0</ele>
        <time>2013-06-22T13:43:42Z</time>
      </trkpt>
      <trkpt lat="42.617767" lon="-2.221167">
        <ele>642.0</ele>
        <time>2013-06-22T13:43:43Z</time>
      </trkpt>
      <trkpt lat="42.617767" lon="-2.221217">
        <ele>642.0</ele>
        <time>2013-06-22T13:43:44Z</time>
      </trkpt>
      <trkpt lat="42.617767" lon="-2.221250">
        <ele>642.0</ele>
        <time>2013-06-22T13:43:45Z</time>
      </trkpt>
      <trkpt lat="42.617750" lon="-2.221267">
        <ele>642.0</ele>
        <time>2013-06-22T13:43:46Z</time>
      </trkpt>
      <trkpt lat="42.617733" lon="-2.221300">
        <ele>642.0</ele>
        <time>2013-06-22T13:43:47Z</time>
      </trkpt>
      <trkpt lat="42.617733" lon="-2.221333">
        <ele>641.0</ele>
        <time>2013-06-22T13:43:48Z</time>
      </trkpt>
      <trkpt lat="42.617750" lon="-2.221400">
        <ele>641.0</ele>
        <time>2013-06-22T13:43:49Z</time>
      </trkpt>
      <trkpt lat="42.617750" lon="-2.221450">
        <ele>640.0</ele>
        <time>2013-06-22T13:43:50Z</time>
      </trkpt>
      <trkpt lat="42.617767" lon="-2.221500">
        <ele>640.0</ele>
        <time>2013-06-22T13:43:51Z</time>
      </trkpt>
      <trkpt lat="42.617767" lon="-2.221517">
        <ele>640.0</ele>
        <time>2013-06-22T13:43:52Z</time>
      </trkpt>
      <trkpt lat="42.617767" lon="-2.221550">
        <ele>639.0</ele>
        <time>2013-06-22T13:43:53Z</time>
      </trkpt>
      <trkpt lat="42.617767" lon="-2.221583">
        <ele>639.0</ele>
        <time>2013-06-22T13:43:54Z</time>
      </trkpt>
      <trkpt lat="42.617783" lon="-2.221617">
        <ele>638.0</ele>
        <time>2013-06-22T13:43:55Z</time>
      </trkpt>
      <trkpt lat="42.617800" lon="-2.221667">
        <ele>638.0</ele>
        <time>2013-06-22T13:43:56Z</time>
      </trkpt>
      <trkpt lat="42.617800" lon="-2.221683">
        <ele>637.0</ele>
        <time>2013-06-22T13:43:57Z</time>
      </trkpt>
      <trkpt lat="42.617800" lon="-2.221700">
        <ele>636.0</ele>
        <time>2013-06-22T13:43:58Z</time>
      </trkpt>
      <trkpt lat="42.617800" lon="-2.221717">
        <ele>635.0</ele>
        <time>2013-06-22T13:43:59Z</time>
      </trkpt>
      <trkpt lat="42.617817" lon="-2.221750">
        <ele>632.0</ele>
        <time>2013-06-22T13:44:00Z</time>
      </trkpt>
      <trkpt lat="42.617833" lon="-2.221800">
        <ele>630.0</ele>
        <time>2013-06-22T13:44:01Z</time>
      </trkpt>
      <trkpt lat="42.617867" lon="-2.221850">
        <ele>628.0</ele>
        <time>2013-06-22T13:44:02Z</time>
      </trkpt>
      <trkpt lat="42.617883" lon="-2.221900">
        <ele>631.0</ele>
        <time>2013-06-22T13:44:03Z</time>
      </trkpt>
      <trkpt lat="42.617900" lon="-2.221933">
        <ele>630.0</ele>
        <time>2013-06-22T13:44:04Z</time>
      </trkpt>
      <trkpt lat="42.617917" lon="-2.221967">
        <ele>629.0</ele>
        <time>2013-06-22T13:44:05Z</time>
      </trkpt>
      <trkpt lat="42.617933" lon="-2.222017">
        <ele>629.0</ele>
        <time>2013-06-22T13:44:06Z</time>
      </trkpt>
      <trkpt lat="42.617950" lon="-2.222067">
        <ele>629.0</ele>
        <time>2013-06-22T13:44:07Z</time>
      </trkpt>
      <trkpt lat="42.617983" lon="-2.222117">
        <ele>628.0</ele>
        <time>2013-06-22T13:44:08Z</time>
      </trkpt>
      <trkpt lat="42.617983" lon="-2.222150">
        <ele>628.0</ele>
        <time>2013-06-22T13:44:09Z</time>
      </trkpt>
      <trkpt lat="42.618000" lon="-2.222183">
        <ele>627.0</ele>
        <time>2013-06-22T13:44:10Z</time>
      </trkpt>
      <trkpt lat="42.618017" lon="-2.222233">
        <ele>626.0</ele>
        <time>2013-06-22T13:44:11Z</time>
      </trkpt>
      <trkpt lat="42.618017" lon="-2.222283">
        <ele>625.0</ele>
        <time>2013-06-22T13:44:12Z</time>
      </trkpt>
      <trkpt lat="42.618050" lon="-2.222333">
        <ele>625.0</ele>
        <time>2013-06-22T13:44:13Z</time>
      </trkpt>
      <trkpt lat="42.618050" lon="-2.222383">
        <ele>624.0</ele>
        <time>2013-06-22T13:44:14Z</time>
      </trkpt>
      <trkpt lat="42.618067" lon="-2.222417">
        <ele>624.0</ele>
        <time>2013-06-22T13:44:15Z</time>
      </trkpt>
      <trkpt lat="42.618067" lon="-2.222433">
        <ele>623.0</ele>
        <time>2013-06-22T13:44:16Z</time>
      </trkpt>
      <trkpt lat="42.618083" lon="-2.222467">
        <ele>623.0</ele>
        <time>2013-06-22T13:44:17Z</time>
      </trkpt>
      <trkpt lat="42.618083" lon="-2.222500">
        <ele>623.0</ele>
        <time>2013-06-22T13:44:18Z</time>
      </trkpt>
      <trkpt lat="42.618083" lon="-2.222533">
        <ele>622.0</ele>
        <time>2013-06-22T13:44:19Z</time>
      </trkpt>
      <trkpt lat="42.618067" lon="-2.222583">
        <ele>620.0</ele>
        <time>2013-06-22T13:44:20Z</time>
      </trkpt>
      <trkpt lat="42.618067" lon="-2.222617">
        <ele>619.0</ele>
        <time>2013-06-22T13:44:21Z</time>
      </trkpt>
      <trkpt lat="42.618083" lon="-2.222650">
        <ele>617.0</ele>
        <time>2013-06-22T13:44:22Z</time>
      </trkpt>
      <trkpt lat="42.618100" lon="-2.222667">
        <ele>616.0</ele>
        <time>2013-06-22T13:44:23Z</time>
      </trkpt>
      <trkpt lat="42.618117" lon="-2.222700">
        <ele>614.0</ele>
        <time>2013-06-22T13:44:24Z</time>
      </trkpt>
      <trkpt lat="42.618117" lon="-2.222717">
        <ele>614.0</ele>
        <time>2013-06-22T13:44:25Z</time>
      </trkpt>
      <trkpt lat="42.618133" lon="-2.222733">
        <ele>612.0</ele>
        <time>2013-06-22T13:44:26Z</time>
      </trkpt>
      <trkpt lat="42.618150" lon="-2.222750">
        <ele>611.0</ele>
        <time>2013-06-22T13:44:27Z</time>
      </trkpt>
      <trkpt lat="42.618183" lon="-2.222767">
        <ele>609.0</ele>
        <time>2013-06-22T13:44:28Z</time>
      </trkpt>
      <trkpt lat="42.618200" lon="-2.222800">
        <ele>609.0</ele>
        <time>2013-06-22T13:44:29Z</time>
      </trkpt>
      <trkpt lat="42.618217" lon="-2.222800">
        <ele>609.0</ele>
        <time>2013-06-22T13:44:30Z</time>
      </trkpt>
      <trkpt lat="42.618233" lon="-2.222833">
        <ele>608.0</ele>
        <time>2013-06-22T13:44:31Z</time>
      </trkpt>
      <trkpt lat="42.618250" lon="-2.222850">
        <ele>609.0</ele>
        <time>2013-06-22T13:44:32Z</time>
      </trkpt>
      <trkpt lat="42.618283" lon="-2.222867">
        <ele>609.0</ele>
        <time>2013-06-22T13:44:33Z</time>
      </trkpt>
      <trkpt lat="42.618300" lon="-2.222900">
        <ele>608.0</ele>
        <time>2013-06-22T13:44:34Z</time>
      </trkpt>
      <trkpt lat="42.618300" lon="-2.222917">
        <ele>605.0</ele>
        <time>2013-06-22T13:44:35Z</time>
      </trkpt>
      <trkpt lat="42.618300" lon="-2.222950">
        <ele>603.0</ele>
        <time>2013-06-22T13:44:36Z</time>
      </trkpt>
      <trkpt lat="42.618300" lon="-2.223000">
        <ele>602.0</ele>
        <time>2013-06-22T13:44:37Z</time>
      </trkpt>
      <trkpt lat="42.618300" lon="-2.223050">
        <ele>600.0</ele>
        <time>2013-06-22T13:44:38Z</time>
      </trkpt>
      <trkpt lat="42.618317" lon="-2.223100">
        <ele>600.0</ele>
        <time>2013-06-22T13:44:39Z</time>
      </trkpt>
      <trkpt lat="42.618317" lon="-2.223150">
        <ele>599.0</ele>
        <time>2013-06-22T13:44:40Z</time>
      </trkpt>
      <trkpt lat="42.618300" lon="-2.223200">
        <ele>598.0</ele>
        <time>2013-06-22T13:44:41Z</time>
      </trkpt>
      <trkpt lat="42.618283" lon="-2.223267">
        <ele>597.0</ele>
        <time>2013-06-22T13:44:42Z</time>
      </trkpt>
      <trkpt lat="42.618267" lon="-2.223317">
        <ele>595.0</ele>
        <time>2013-06-22T13:44:43Z</time>
      </trkpt>
      <trkpt lat="42.618267" lon="-2.223350">
        <ele>594.0</ele>
        <time>2013-06-22T13:44:44Z</time>
      </trkpt>
      <trkpt lat="42.618267" lon="-2.223367">
        <ele>592.0</ele>
        <time>2013-06-22T13:44:45Z</time>
      </trkpt>
      <trkpt lat="42.618300" lon="-2.223367">
        <ele>590.0</ele>
        <time>2013-06-22T13:44:46Z</time>
      </trkpt>
      <trkpt lat="42.618350" lon="-2.223333">
        <ele>586.0</ele>
        <time>2013-06-22T13:44:47Z</time>
      </trkpt>
      <trkpt lat="42.618383" lon="-2.223283">
        <ele>582.0</ele>
        <time>2013-06-22T13:44:48Z</time>
      </trkpt>
      <trkpt lat="42.618417" lon="-2.223217">
        <ele>579.0</ele>
        <time>2013-06-22T13:44:49Z</time>
      </trkpt>
      <trkpt lat="42.618450" lon="-2.223133">
        <ele>575.0</ele>
        <time>2013-06-22T13:44:50Z</time>
      </trkpt>
      <trkpt lat="42.618500" lon="-2.223067">
        <ele>572.0</ele>
        <time>2013-06-22T13:44:51Z</time>
      </trkpt>
      <trkpt lat="42.618533" lon="-2.223050">
        <ele>569.0</ele>
        <time>2013-06-22T13:44:52Z</time>
      </trkpt>
      <trkpt lat="42.618567" lon="-2.223067">
        <ele>567.0</ele>
        <time>2013-06-22T13:44:53Z</time>
      </trkpt>
      <trkpt lat="42.618583" lon="-2.223100">
        <ele>564.0</ele>
        <time>2013-06-22T13:44:54Z</time>
      </trkpt>
      <trkpt lat="42.618583" lon="-2.223150">
        <ele>561.0</ele>
        <time>2013-06-22T13:44:55Z</time>
      </trkpt>
      <trkpt lat="42.618567" lon="-2.223217">
        <ele>559.0</ele>
        <time>2013-06-22T13:44:56Z</time>
      </trkpt>
      <trkpt lat="42.618550" lon="-2.223267">
        <ele>558.0</ele>
        <time>2013-06-22T13:44:57Z</time>
      </trkpt>
      <trkpt lat="42.618517" lon="-2.223317">
        <ele>555.0</ele>
        <time>2013-06-22T13:44:58Z</time>
      </trkpt>
      <trkpt lat="42.618517" lon="-2.223383">
        <ele>553.0</ele>
        <time>2013-06-22T13:44:59Z</time>
      </trkpt>
      <trkpt lat="42.618500" lon="-2.223450">
        <ele>550.0</ele>
        <time>2013-06-22T13:45:00Z</time>
      </trkpt>
      <trkpt lat="42.618483" lon="-2.223517">
        <ele>547.0</ele>
        <time>2013-06-22T13:45:01Z</time>
      </trkpt>
      <trkpt lat="42.618467" lon="-2.223583">
        <ele>546.0</ele>
        <time>2013-06-22T13:45:02Z</time>
      </trkpt>
      <trkpt lat="42.618450" lon="-2.223650">
        <ele>544.0</ele>
        <time>2013-06-22T13:45:03Z</time>
      </trkpt>
      <trkpt lat="42.618433" lon="-2.223700">
        <ele>543.0</ele>
        <time>2013-06-22T13:45:04Z</time>
      </trkpt>
      <trkpt lat="42.618433" lon="-2.223750">
        <ele>542.0</ele>
        <time>2013-06-22T13:45:05Z</time>
      </trkpt>
      <trkpt lat="42.618433" lon="-2.223800">
        <ele>540.0</ele>
        <time>2013-06-22T13:45:06Z</time>
      </trkpt>
      <trkpt lat="42.618433" lon="-2.223867">
        <ele>538.0</ele>
        <time>2013-06-22T13:45:07Z</time>
      </trkpt>
      <trkpt lat="42.618433" lon="-2.223900">
        <ele>537.0</ele>
        <time>2013-06-22T13:45:08Z</time>
      </trkpt>
      <trkpt lat="42.618450" lon="-2.223933">
        <ele>537.0</ele>
        <time>2013-06-22T13:45:09Z</time>
      </trkpt>
      <trkpt lat="42.618450" lon="-2.223933">
        <ele>536.0</ele>
        <time>2013-06-22T13:45:10Z</time>
      </trkpt>
      <trkpt lat="42.618433" lon="-2.223917">
        <ele>536.0</ele>
        <time>2013-06-22T13:45:11Z</time>
      </trkpt>
      <trkpt lat="42.618433" lon="-2.223917">
        <ele>536.0</ele>
        <time>2013-06-22T13:45:12Z</time>
      </trkpt>
      <trkpt lat="42.618433" lon="-2.223917">
        <ele>535.0</ele>
        <time>2013-06-22T13:45:13Z</time>
      </trkpt>
      <trkpt lat="42.618433" lon="-2.223917">
        <ele>536.0</ele>
        <time>2013-06-22T13:45:14Z</time>
      </trkpt>
      <trkpt lat="42.618433" lon="-2.223917">
        <ele>535.0</ele>
        <time>2013-06-22T13:45:15Z</time>
      </trkpt>
      <trkpt lat="42.618433" lon="-2.223917">
        <ele>535.0</ele>
        <time>2013-06-22T13:45:16Z</time>
      </trkpt>
      <trkpt lat="42.618433" lon="-2.223917">
        <ele>535.0</ele>
        <time>2013-06-22T13:45:17Z</time>
      </trkpt>
      <trkpt lat="42.618433" lon="-2.223917">
        <ele>535.0</ele>
        <time>2013-06-22T13:45:18Z</time>
      </trkpt>
      <trkpt lat="42.618433" lon="-2.223917">
        <ele>535.0</ele>
        <time>2013-06-22T13:45:19Z</time>
      </trkpt>
      <trkpt lat="42.618433" lon="-2.223900">
        <ele>535.0</ele>
        <time>2013-06-22T13:45:20Z</time>
      </trkpt>
      <trkpt lat="42.618450" lon="-2.223900">
        <ele>535.0</ele>
        <time>2013-06-22T13:45:21Z</time>
      </trkpt>
      <trkpt lat="42.618433" lon="-2.223900">
        <ele>535.0</ele>
        <time>2013-06-22T13:45:22Z</time>
      </trkpt>
      <trkpt lat="42.618433" lon="-2.223900">
        <ele>535.0</ele>
        <time>2013-06-22T13:45:23Z</time>
      </trkpt>
      <trkpt lat="42.618433" lon="-2.223900">
        <ele>535.0</ele>
        <time>2013-06-22T13:45:24Z</time>
      </trkpt>
      <trkpt lat="42.618433" lon="-2.223900">
        <ele>534.0</ele>
        <time>2013-06-22T13:45:25Z</time>
      </trkpt>
      <trkpt lat="42.618433" lon="-2.223900">
        <ele>534.0</ele>
        <time>2013-06-22T13:45:26Z</time>
      </trkpt>
      <trkpt lat="42.618433" lon="-2.223883">
        <ele>534.0</ele>
        <time>2013-06-22T13:45:27Z</time>
      </trkpt>
      <trkpt lat="42.618433" lon="-2.223883">
        <ele>534.0</ele>
        <time>2013-06-22T13:45:28Z</time>
      </trkpt>
      <trkpt lat="42.618433" lon="-2.223883">
        <ele>534.0</ele>
        <time>2013-06-22T13:45:29Z</time>
      </trkpt>
      <trkpt lat="42.618433" lon="-2.223883">
        <ele>534.0</ele>
        <time>2013-06-22T13:45:30Z</time>
      </trkpt>
      <trkpt lat="42.618433" lon="-2.223883">
        <ele>534.0</ele>
        <time>2013-06-22T13:45:31Z</time>
      </trkpt>
      <trkpt lat="42.618433" lon="-2.223867">
        <ele>534.0</ele>
        <time>2013-06-22T13:45:32Z</time>
      </trkpt>
      <trkpt lat="42.618417" lon="-2.223867">
        <ele>534.0</ele>
        <time>2013-06-22T13:45:33Z</time>
      </trkpt>
      <trkpt lat="42.618417" lon="-2.223867">
        <ele>534.0</ele>
        <time>2013-06-22T13:45:34Z</time>
      </trkpt>
      <trkpt lat="42.618417" lon="-2.223867">
        <ele>534.0</ele>
        <time>2013-06-22T13:45:35Z</time>
      </trkpt>
      <trkpt lat="42.618417" lon="-2.223867">
        <ele>534.0</ele>
        <time>2013-06-22T13:45:36Z</time>
      </trkpt>
      <trkpt lat="42.618417" lon="-2.223867">
        <ele>534.0</ele>
        <time>2013-06-22T13:45:37Z</time>
      </trkpt>
      <trkpt lat="42.618433" lon="-2.223883">
        <ele>534.0</ele>
        <time>2013-06-22T13:45:38Z</time>
      </trkpt>
      <trkpt lat="42.618433" lon="-2.223883">
        <ele>534.0</ele>
        <time>2013-06-22T13:45:39Z</time>
      </trkpt>
      <trkpt lat="42.618433" lon="-2.223867">
        <ele>534.0</ele>
        <time>2013-06-22T13:45:40Z</time>
      </trkpt>
      <trkpt lat="42.618433" lon="-2.223883">
        <ele>534.0</ele>
        <time>2013-06-22T13:45:41Z</time>
      </trkpt>
      <trkpt lat="42.618433" lon="-2.223883">
        <ele>534.0</ele>
        <time>2013-06-22T13:45:42Z</time>
      </trkpt>
      <trkpt lat="42.618417" lon="-2.223883">
        <ele>533.0</ele>
        <time>2013-06-22T13:45:43Z</time>
      </trkpt>
      <trkpt lat="42.618400" lon="-2.223883">
        <ele>533.0</ele>
        <time>2013-06-22T13:45:44Z</time>
      </trkpt>
      <trkpt lat="42.618400" lon="-2.223883">
        <ele>533.0</ele>
        <time>2013-06-22T13:45:45Z</time>
      </trkpt>
      <trkpt lat="42.618400" lon="-2.223883">
        <ele>533.0</ele>
        <time>2013-06-22T13:45:46Z</time>
      </trkpt>
      <trkpt lat="42.618400" lon="-2.223883">
        <ele>533.0</ele>
        <time>2013-06-22T13:45:47Z</time>
      </trkpt>
      <trkpt lat="42.618400" lon="-2.223867">
        <ele>533.0</ele>
        <time>2013-06-22T13:45:48Z</time>
      </trkpt>
      <trkpt lat="42.618400" lon="-2.223867">
        <ele>533.0</ele>
        <time>2013-06-22T13:45:49Z</time>
      </trkpt>
      <trkpt lat="42.618400" lon="-2.223883">
        <ele>533.0</ele>
        <time>2013-06-22T13:45:50Z</time>
      </trkpt>
      <trkpt lat="42.618383" lon="-2.223883">
        <ele>533.0</ele>
        <time>2013-06-22T13:45:51Z</time>
      </trkpt>
      <trkpt lat="42.618383" lon="-2.223883">
        <ele>533.0</ele>
        <time>2013-06-22T13:45:52Z</time>
      </trkpt>
      <trkpt lat="42.618383" lon="-2.223883">
        <ele>533.0</ele>
        <time>2013-06-22T13:45:53Z</time>
      </trkpt>
      <trkpt lat="42.618367" lon="-2.223883">
        <ele>533.0</ele>
        <time>2013-06-22T13:45:54Z</time>
      </trkpt>
      <trkpt lat="42.618350" lon="-2.223900">
        <ele>533.0</ele>
        <time>2013-06-22T13:45:55Z</time>
      </trkpt>
      <trkpt lat="42.618350" lon="-2.223900">
        <ele>533.0</ele>
        <time>2013-06-22T13:45:56Z</time>
      </trkpt>
      <trkpt lat="42.618333" lon="-2.223900">
        <ele>533.0</ele>
        <time>2013-06-22T13:45:57Z</time>
      </trkpt>
      <trkpt lat="42.618333" lon="-2.223900">
        <ele>533.0</ele>
        <time>2013-06-22T13:45:58Z</time>
      </trkpt>
      <trkpt lat="42.618317" lon="-2.223917">
        <ele>533.0</ele>
        <time>2013-06-22T13:45:59Z</time>
      </trkpt>
      <trkpt lat="42.618300" lon="-2.223917">
        <ele>533.0</ele>
        <time>2013-06-22T13:46:00Z</time>
      </trkpt>
      <trkpt lat="42.618300" lon="-2.223917">
        <ele>533.0</ele>
        <time>2013-06-22T13:46:01Z</time>
      </trkpt>
      <trkpt lat="42.618283" lon="-2.223917">
        <ele>533.0</ele>
        <time>2013-06-22T13:46:02Z</time>
      </trkpt>
      <trkpt lat="42.618283" lon="-2.223917">
        <ele>533.0</ele>
        <time>2013-06-22T13:46:03Z</time>
      </trkpt>
      <trkpt lat="42.618283" lon="-2.223933">
        <ele>533.0</ele>
        <time>2013-06-22T13:46:04Z</time>
      </trkpt>
      <trkpt lat="42.618283" lon="-2.223933">
        <ele>533.0</ele>
        <time>2013-06-22T13:46:05Z</time>
      </trkpt>
      <trkpt lat="42.618283" lon="-2.223917">
        <ele>533.0</ele>
        <time>2013-06-22T13:46:06Z</time>
      </trkpt>
      <trkpt lat="42.618267" lon="-2.223917">
        <ele>533.0</ele>
        <time>2013-06-22T13:46:07Z</time>
      </trkpt>
      <trkpt lat="42.618267" lon="-2.223917">
        <ele>533.0</ele>
        <time>2013-06-22T13:46:08Z</time>
      </trkpt>
      <trkpt lat="42.618250" lon="-2.223917">
        <ele>533.0</ele>
        <time>2013-06-22T13:46:09Z</time>
      </trkpt>
      <trkpt lat="42.618250" lon="-2.223917">
        <ele>533.0</ele>
        <time>2013-06-22T13:46:10Z</time>
      </trkpt>
      <trkpt lat="42.618250" lon="-2.223917">
        <ele>533.0</ele>
        <time>2013-06-22T13:46:11Z</time>
      </trkpt>
      <trkpt lat="42.618233" lon="-2.223917">
        <ele>533.0</ele>
        <time>2013-06-22T13:46:12Z</time>
      </trkpt>
      <trkpt lat="42.618233" lon="-2.223917">
        <ele>533.0</ele>
        <time>2013-06-22T13:46:13Z</time>
      </trkpt>
      <trkpt lat="42.618217" lon="-2.223917">
        <ele>533.0</ele>
        <time>2013-06-22T13:46:14Z</time>
      </trkpt>
      <trkpt lat="42.618217" lon="-2.223917">
        <ele>533.0</ele>
        <time>2013-06-22T13:46:15Z</time>
      </trkpt>
      <trkpt lat="42.618217" lon="-2.223933">
        <ele>533.0</ele>
        <time>2013-06-22T13:46:16Z</time>
      </trkpt>
      <trkpt lat="42.618200" lon="-2.223933">
        <ele>533.0</ele>
        <time>2013-06-22T13:46:17Z</time>
      </trkpt>
      <trkpt lat="42.618200" lon="-2.223933">
        <ele>533.0</ele>
        <time>2013-06-22T13:46:18Z</time>
      </trkpt>
      <trkpt lat="42.618183" lon="-2.223933">
        <ele>533.0</ele>
        <time>2013-06-22T13:46:19Z</time>
      </trkpt>
      <trkpt lat="42.618183" lon="-2.223933">
        <ele>533.0</ele>
        <time>2013-06-22T13:46:20Z</time>
      </trkpt>
      <trkpt lat="42.618183" lon="-2.223933">
        <ele>533.0</ele>
        <time>2013-06-22T13:46:21Z</time>
      </trkpt>
      <trkpt lat="42.618167" lon="-2.223950">
        <ele>533.0</ele>
        <time>2013-06-22T13:46:22Z</time>
      </trkpt>
      <trkpt lat="42.618167" lon="-2.223950">
        <ele>533.0</ele>
        <time>2013-06-22T13:46:23Z</time>
      </trkpt>
      <trkpt lat="42.618150" lon="-2.223950">
        <ele>533.0</ele>
        <time>2013-06-22T13:46:24Z</time>
      </trkpt>
      <trkpt lat="42.618150" lon="-2.223950">
        <ele>533.0</ele>
        <time>2013-06-22T13:46:25Z</time>
      </trkpt>
      <trkpt lat="42.618133" lon="-2.223967">
        <ele>533.0</ele>
        <time>2013-06-22T13:46:26Z</time>
      </trkpt>
      <trkpt lat="42.618117" lon="-2.223950">
        <ele>533.0</ele>
        <time>2013-06-22T13:46:27Z</time>
      </trkpt>
      <trkpt lat="42.618117" lon="-2.223950">
        <ele>533.0</ele>
        <time>2013-06-22T13:46:28Z</time>
      </trkpt>
      <trkpt lat="42.618117" lon="-2.223950">
        <ele>533.0</ele>
        <time>2013-06-22T13:46:29Z</time>
      </trkpt>
      <trkpt lat="42.618117" lon="-2.223950">
        <ele>533.0</ele>
        <time>2013-06-22T13:46:30Z</time>
      </trkpt>
      <trkpt lat="42.618100" lon="-2.223950">
        <ele>533.0</ele>
        <time>2013-06-22T13:46:31Z</time>
      </trkpt>
      <trkpt lat="42.618100" lon="-2.223950">
        <ele>533.0</ele>
        <time>2013-06-22T13:46:32Z</time>
      </trkpt>
      <trkpt lat="42.618100" lon="-2.223950">
        <ele>533.0</ele>
        <time>2013-06-22T13:46:33Z</time>
      </trkpt>
      <trkpt lat="42.618100" lon="-2.223967">
        <ele>533.0</ele>
        <time>2013-06-22T13:46:34Z</time>
      </trkpt>
      <trkpt lat="42.618100" lon="-2.223950">
        <ele>533.0</ele>
        <time>2013-06-22T13:46:35Z</time>
      </trkpt>
      <trkpt lat="42.618100" lon="-2.223950">
        <ele>533.0</ele>
        <time>2013-06-22T13:46:36Z</time>
      </trkpt>
      <trkpt lat="42.618083" lon="-2.223950">
        <ele>533.0</ele>
        <time>2013-06-22T13:46:37Z</time>
      </trkpt>
      <trkpt lat="42.618067" lon="-2.223950">
        <ele>532.0</ele>
        <time>2013-06-22T13:46:38Z</time>
      </trkpt>
      <trkpt lat="42.618067" lon="-2.223950">
        <ele>532.0</ele>
        <time>2013-06-22T13:46:39Z</time>
      </trkpt>
      <trkpt lat="42.618050" lon="-2.223950">
        <ele>532.0</ele>
        <time>2013-06-22T13:46:40Z</time>
      </trkpt>
      <trkpt lat="42.618050" lon="-2.223950">
        <ele>532.0</ele>
        <time>2013-06-22T13:46:41Z</time>
      </trkpt>
      <trkpt lat="42.618050" lon="-2.223950">
        <ele>532.0</ele>
        <time>2013-06-22T13:46:42Z</time>
      </trkpt>
      <trkpt lat="42.618033" lon="-2.223950">
        <ele>532.0</ele>
        <time>2013-06-22T13:46:43Z</time>
      </trkpt>
      <trkpt lat="42.618017" lon="-2.223967">
        <ele>532.0</ele>
        <time>2013-06-22T13:46:44Z</time>
      </trkpt>
      <trkpt lat="42.618017" lon="-2.223950">
        <ele>532.0</ele>
        <time>2013-06-22T13:46:45Z</time>
      </trkpt>
      <trkpt lat="42.618017" lon="-2.223950">
        <ele>532.0</ele>
        <time>2013-06-22T13:46:46Z</time>
      </trkpt>
      <trkpt lat="42.618000" lon="-2.223950">
        <ele>532.0</ele>
        <time>2013-06-22T13:46:47Z</time>
      </trkpt>
      <trkpt lat="42.618000" lon="-2.223950">
        <ele>532.0</ele>
        <time>2013-06-22T13:46:48Z</time>
      </trkpt>
      <trkpt lat="42.617983" lon="-2.223950">
        <ele>532.0</ele>
        <time>2013-06-22T13:46:49Z</time>
      </trkpt>
      <trkpt lat="42.617983" lon="-2.223950">
        <ele>532.0</ele>
        <time>2013-06-22T13:46:50Z</time>
      </trkpt>
      <trkpt lat="42.617983" lon="-2.223950">
        <ele>532.0</ele>
        <time>2013-06-22T13:46:51Z</time>
      </trkpt>
      <trkpt lat="42.617967" lon="-2.223967">
        <ele>532.0</ele>
        <time>2013-06-22T13:46:52Z</time>
      </trkpt>
      <trkpt lat="42.617967" lon="-2.223967">
        <ele>532.0</ele>
        <time>2013-06-22T13:46:53Z</time>
      </trkpt>
      <trkpt lat="42.617950" lon="-2.223967">
        <ele>532.0</ele>
        <time>2013-06-22T13:46:54Z</time>
      </trkpt>
      <trkpt lat="42.617950" lon="-2.223950">
        <ele>532.0</ele>
        <time>2013-06-22T13:46:55Z</time>
      </trkpt>
      <trkpt lat="42.617933" lon="-2.223967">
        <ele>532.0</ele>
        <time>2013-06-22T13:46:56Z</time>
      </trkpt>
      <trkpt lat="42.617933" lon="-2.223967">
        <ele>532.0</ele>
        <time>2013-06-22T13:46:57Z</time>
      </trkpt>
      <trkpt lat="42.617917" lon="-2.223967">
        <ele>532.0</ele>
        <time>2013-06-22T13:46:58Z</time>
      </trkpt>
      <trkpt lat="42.617917" lon="-2.223950">
        <ele>532.0</ele>
        <time>2013-06-22T13:46:59Z</time>
      </trkpt>
      <trkpt lat="42.617900" lon="-2.223950">
        <ele>532.0</ele>
        <time>2013-06-22T13:47:00Z</time>
      </trkpt>
      <trkpt lat="42.617917" lon="-2.223950">
        <ele>532.0</ele>
        <time>2013-06-22T13:47:01Z</time>
      </trkpt>
      <trkpt lat="42.617900" lon="-2.223950">
        <ele>532.0</ele>
        <time>2013-06-22T13:47:02Z</time>
      </trkpt>
      <trkpt lat="42.617900" lon="-2.223967">
        <ele>532.0</ele>
        <time>2013-06-22T13:47:03Z</time>
      </trkpt>
      <trkpt lat="42.617900" lon="-2.223950">
        <ele>532.0</ele>
        <time>2013-06-22T13:47:04Z</time>
      </trkpt>
      <trkpt lat="42.617883" lon="-2.223967">
        <ele>532.0</ele>
        <time>2013-06-22T13:47:05Z</time>
      </trkpt>
      <trkpt lat="42.617883" lon="-2.223967">
        <ele>532.0</ele>
        <time>2013-06-22T13:47:06Z</time>
      </trkpt>
      <trkpt lat="42.617883" lon="-2.223967">
        <ele>532.0</ele>
        <time>2013-06-22T13:47:07Z</time>
      </trkpt>
      <trkpt lat="42.617867" lon="-2.223967">
        <ele>532.0</ele>
        <time>2013-06-22T13:47:08Z</time>
      </trkpt>
      <trkpt lat="42.617867" lon="-2.223967">
        <ele>532.0</ele>
        <time>2013-06-22T13:47:09Z</time>
      </trkpt>
      <trkpt lat="42.617850" lon="-2.223967">
        <ele>532.0</ele>
        <time>2013-06-22T13:47:10Z</time>
      </trkpt>
      <trkpt lat="42.617850" lon="-2.223967">
        <ele>532.0</ele>
        <time>2013-06-22T13:47:11Z</time>
      </trkpt>
      <trkpt lat="42.617833" lon="-2.223983">
        <ele>532.0</ele>
        <time>2013-06-22T13:47:12Z</time>
      </trkpt>
      <trkpt lat="42.617817" lon="-2.223983">
        <ele>532.0</ele>
        <time>2013-06-22T13:47:13Z</time>
      </trkpt>
      <trkpt lat="42.617817" lon="-2.223967">
        <ele>532.0</ele>
        <time>2013-06-22T13:47:14Z</time>
      </trkpt>
      <trkpt lat="42.617817" lon="-2.223967">
        <ele>532.0</ele>
        <time>2013-06-22T13:47:15Z</time>
      </trkpt>
      <trkpt lat="42.617800" lon="-2.223967">
        <ele>532.0</ele>
        <time>2013-06-22T13:47:16Z</time>
      </trkpt>
      <trkpt lat="42.617800" lon="-2.223967">
        <ele>532.0</ele>
        <time>2013-06-22T13:47:17Z</time>
      </trkpt>
      <trkpt lat="42.617800" lon="-2.223967">
        <ele>531.0</ele>
        <time>2013-06-22T13:47:18Z</time>
      </trkpt>
      <trkpt lat="42.617783" lon="-2.223983">
        <ele>531.0</ele>
        <time>2013-06-22T13:47:19Z</time>
      </trkpt>
      <trkpt lat="42.617783" lon="-2.223967">
        <ele>531.0</ele>
        <time>2013-06-22T13:47:20Z</time>
      </trkpt>
      <trkpt lat="42.617783" lon="-2.223967">
        <ele>531.0</ele>
        <time>2013-06-22T13:47:21Z</time>
      </trkpt>
      <trkpt lat="42.617783" lon="-2.223967">
        <ele>531.0</ele>
        <time>2013-06-22T13:47:22Z</time>
      </trkpt>
      <trkpt lat="42.617767" lon="-2.223967">
        <ele>531.0</ele>
        <time>2013-06-22T13:47:23Z</time>
      </trkpt>
      <trkpt lat="42.617767" lon="-2.223950">
        <ele>531.0</ele>
        <time>2013-06-22T13:47:24Z</time>
      </trkpt>
      <trkpt lat="42.617767" lon="-2.223967">
        <ele>531.0</ele>
        <time>2013-06-22T13:47:25Z</time>
      </trkpt>
      <trkpt lat="42.617750" lon="-2.223967">
        <ele>531.0</ele>
        <time>2013-06-22T13:47:26Z</time>
      </trkpt>
      <trkpt lat="42.617750" lon="-2.223967">
        <ele>531.0</ele>
        <time>2013-06-22T13:47:27Z</time>
      </trkpt>
      <trkpt lat="42.617733" lon="-2.223967">
        <ele>531.0</ele>
        <time>2013-06-22T13:47:28Z</time>
      </trkpt>
      <trkpt lat="42.617733" lon="-2.223983">
        <ele>531.0</ele>
        <time>2013-06-22T13:47:29Z</time>
      </trkpt>
      <trkpt lat="42.617717" lon="-2.223983">
        <ele>531.0</ele>
        <time>2013-06-22T13:47:30Z</time>
      </trkpt>
      <trkpt lat="42.617717" lon="-2.223983">
        <ele>531.0</ele>
        <time>2013-06-22T13:47:31Z</time>
      </trkpt>
      <trkpt lat="42.617717" lon="-2.223967">
        <ele>531.0</ele>
        <time>2013-06-22T13:47:32Z</time>
      </trkpt>
      <trkpt lat="42.617700" lon="-2.223983">
        <ele>531.0</ele>
        <time>2013-06-22T13:47:33Z</time>
      </trkpt>
      <trkpt lat="42.617700" lon="-2.223967">
        <ele>531.0</ele>
        <time>2013-06-22T13:47:34Z</time>
      </trkpt>
      <trkpt lat="42.617700" lon="-2.223967">
        <ele>531.0</ele>
        <time>2013-06-22T13:47:35Z</time>
      </trkpt>
      <trkpt lat="42.617683" lon="-2.223967">
        <ele>531.0</ele>
        <time>2013-06-22T13:47:36Z</time>
      </trkpt>
      <trkpt lat="42.617667" lon="-2.223967">
        <ele>531.0</ele>
        <time>2013-06-22T13:47:37Z</time>
      </trkpt>
      <trkpt lat="42.617667" lon="-2.223967">
        <ele>531.0</ele>
        <time>2013-06-22T13:47:38Z</time>
      </trkpt>
      <trkpt lat="42.617667" lon="-2.223967">
        <ele>531.0</ele>
        <time>2013-06-22T13:47:39Z</time>
      </trkpt>
      <trkpt lat="42.617667" lon="-2.223967">
        <ele>531.0</ele>
        <time>2013-06-22T13:47:40Z</time>
      </trkpt>
      <trkpt lat="42.617650" lon="-2.223967">
        <ele>531.0</ele>
        <time>2013-06-22T13:47:41Z</time>
      </trkpt>
      <trkpt lat="42.617650" lon="-2.223983">
        <ele>531.0</ele>
        <time>2013-06-22T13:47:42Z</time>
      </trkpt>
      <trkpt lat="42.617650" lon="-2.223967">
        <ele>531.0</ele>
        <time>2013-06-22T13:47:43Z</time>
      </trkpt>
      <trkpt lat="42.617650" lon="-2.223983">
        <ele>531.0</ele>
        <time>2013-06-22T13:47:44Z</time>
      </trkpt>
      <trkpt lat="42.617650" lon="-2.223983">
        <ele>531.0</ele>
        <time>2013-06-22T13:47:45Z</time>
      </trkpt>
      <trkpt lat="42.617633" lon="-2.223983">
        <ele>531.0</ele>
        <time>2013-06-22T13:47:46Z</time>
      </trkpt>
      <trkpt lat="42.617633" lon="-2.223983">
        <ele>531.0</ele>
        <time>2013-06-22T13:47:47Z</time>
      </trkpt>
      <trkpt lat="42.617617" lon="-2.223983">
        <ele>531.0</ele>
        <time>2013-06-22T13:47:48Z</time>
      </trkpt>
      <trkpt lat="42.617617" lon="-2.223967">
        <ele>531.0</ele>
        <time>2013-06-22T13:47:49Z</time>
      </trkpt>
      <trkpt lat="42.617600" lon="-2.223967">
        <ele>531.0</ele>
        <time>2013-06-22T13:47:50Z</time>
      </trkpt>
      <trkpt lat="42.617600" lon="-2.223967">
        <ele>531.0</ele>
        <time>2013-06-22T13:47:51Z</time>
      </trkpt>
      <trkpt lat="42.617583" lon="-2.223967">
        <ele>531.0</ele>
        <time>2013-06-22T13:47:52Z</time>
      </trkpt>
      <trkpt lat="42.617583" lon="-2.223983">
        <ele>531.0</ele>
        <time>2013-06-22T13:47:53Z</time>
      </trkpt>
      <trkpt lat="42.617583" lon="-2.223983">
        <ele>531.0</ele>
        <time>2013-06-22T13:47:54Z</time>
      </trkpt>
      <trkpt lat="42.617583" lon="-2.223983">
        <ele>531.0</ele>
        <time>2013-06-22T13:47:55Z</time>
      </trkpt>
      <trkpt lat="42.617567" lon="-2.223983">
        <ele>531.0</ele>
        <time>2013-06-22T13:47:56Z</time>
      </trkpt>
      <trkpt lat="42.617567" lon="-2.223983">
        <ele>531.0</ele>
        <time>2013-06-22T13:47:57Z</time>
      </trkpt>
      <trkpt lat="42.617567" lon="-2.223983">
        <ele>531.0</ele>
        <time>2013-06-22T13:47:58Z</time>
      </trkpt>
      <trkpt lat="42.617567" lon="-2.223983">
        <ele>531.0</ele>
        <time>2013-06-22T13:47:59Z</time>
      </trkpt>
      <trkpt lat="42.617550" lon="-2.223983">
        <ele>531.0</ele>
        <time>2013-06-22T13:48:00Z</time>
      </trkpt>
      <trkpt lat="42.617533" lon="-2.223983">
        <ele>531.0</ele>
        <time>2013-06-22T13:48:01Z</time>
      </trkpt>
      <trkpt lat="42.617533" lon="-2.223983">
        <ele>531.0</ele>
        <time>2013-06-22T13:48:02Z</time>
      </trkpt>
      <trkpt lat="42.617533" lon="-2.223983">
        <ele>531.0</ele>
        <time>2013-06-22T13:48:03Z</time>
      </trkpt>
      <trkpt lat="42.617533" lon="-2.223983">
        <ele>531.0</ele>
        <time>2013-06-22T13:48:04Z</time>
      </trkpt>
      <trkpt lat="42.617517" lon="-2.223967">
        <ele>531.0</ele>
        <time>2013-06-22T13:48:05Z</time>
      </trkpt>
      <trkpt lat="42.617517" lon="-2.223967">
        <ele>531.0</ele>
        <time>2013-06-22T13:48:06Z</time>
      </trkpt>
      <trkpt lat="42.617533" lon="-2.223967">
        <ele>531.0</ele>
        <time>2013-06-22T13:48:07Z</time>
      </trkpt>
      <trkpt lat="42.617533" lon="-2.223967">
        <ele>531.0</ele>
        <time>2013-06-22T13:48:08Z</time>
      </trkpt>
      <trkpt lat="42.617533" lon="-2.223967">
        <ele>531.0</ele>
        <time>2013-06-22T13:48:09Z</time>
      </trkpt>
      <trkpt lat="42.617533" lon="-2.223967">
        <ele>531.0</ele>
        <time>2013-06-22T13:48:10Z</time>
      </trkpt>
      <trkpt lat="42.617550" lon="-2.223967">
        <ele>531.0</ele>
        <time>2013-06-22T13:48:11Z</time>
      </trkpt>
      <trkpt lat="42.617550" lon="-2.223967">
        <ele>531.0</ele>
        <time>2013-06-22T13:48:12Z</time>
      </trkpt>
      <trkpt lat="42.617550" lon="-2.223967">
        <ele>531.0</ele>
        <time>2013-06-22T13:48:13Z</time>
      </trkpt>
      <trkpt lat="42.617550" lon="-2.223967">
        <ele>531.0</ele>
        <time>2013-06-22T13:48:14Z</time>
      </trkpt>
      <trkpt lat="42.617550" lon="-2.223967">
        <ele>532.0</ele>
        <time>2013-06-22T13:48:15Z</time>
      </trkpt>
      <trkpt lat="42.617550" lon="-2.223967">
        <ele>532.0</ele>
        <time>2013-06-22T13:48:16Z</time>
      </trkpt>
      <trkpt lat="42.617550" lon="-2.223967">
        <ele>532.0</ele>
        <time>2013-06-22T13:48:17Z</time>
      </trkpt>
      <trkpt lat="42.617550" lon="-2.223950">
        <ele>532.0</ele>
        <time>2013-06-22T13:48:18Z</time>
      </trkpt>
      <trkpt lat="42.617567" lon="-2.223950">
        <ele>532.0</ele>
        <time>2013-06-22T13:48:19Z</time>
      </trkpt>
      <trkpt lat="42.617550" lon="-2.223950">
        <ele>532.0</ele>
        <time>2013-06-22T13:48:20Z</time>
      </trkpt>
      <trkpt lat="42.617550" lon="-2.223950">
        <ele>532.0</ele>
        <time>2013-06-22T13:48:21Z</time>
      </trkpt>
      <trkpt lat="42.617550" lon="-2.223950">
        <ele>532.0</ele>
        <time>2013-06-22T13:48:22Z</time>
      </trkpt>
      <trkpt lat="42.617550" lon="-2.223950">
        <ele>532.0</ele>
        <time>2013-06-22T13:48:23Z</time>
      </trkpt>
      <trkpt lat="42.617550" lon="-2.223950">
        <ele>532.0</ele>
        <time>2013-06-22T13:48:24Z</time>
      </trkpt>
      <trkpt lat="42.617550" lon="-2.223950">
        <ele>532.0</ele>
        <time>2013-06-22T13:48:25Z</time>
      </trkpt>
      <trkpt lat="42.617550" lon="-2.223950">
        <ele>532.0</ele>
        <time>2013-06-22T13:48:26Z</time>
      </trkpt>
      <trkpt lat="42.617550" lon="-2.223950">
        <ele>532.0</ele>
        <time>2013-06-22T13:48:27Z</time>
      </trkpt>
      <trkpt lat="42.617550" lon="-2.223950">
        <ele>532.0</ele>
        <time>2013-06-22T13:48:28Z</time>
      </trkpt>
      <trkpt lat="42.617533" lon="-2.223950">
        <ele>532.0</ele>
        <time>2013-06-22T13:48:29Z</time>
      </trkpt>
      <trkpt lat="42.617533" lon="-2.223950">
        <ele>532.0</ele>
        <time>2013-06-22T13:48:30Z</time>
      </trkpt>
      <trkpt lat="42.617533" lon="-2.223950">
        <ele>531.0</ele>
        <time>2013-06-22T13:48:31Z</time>
      </trkpt>
      <trkpt lat="42.617533" lon="-2.223950">
        <ele>531.0</ele>
        <time>2013-06-22T13:48:32Z</time>
      </trkpt>
      <trkpt lat="42.617533" lon="-2.223950">
        <ele>531.0</ele>
        <time>2013-06-22T13:48:33Z</time>
      </trkpt>
      <trkpt lat="42.617533" lon="-2.223950">
        <ele>531.0</ele>
        <time>2013-06-22T13:48:34Z</time>
      </trkpt>
      <trkpt lat="42.617533" lon="-2.223950">
        <ele>531.0</ele>
        <time>2013-06-22T13:48:35Z</time>
      </trkpt>
      <trkpt lat="42.617533" lon="-2.223950">
        <ele>531.0</ele>
        <time>2013-06-22T13:48:36Z</time>
      </trkpt>
      <trkpt lat="42.617533" lon="-2.223950">
        <ele>531.0</ele>
        <time>2013-06-22T13:48:37Z</time>
      </trkpt>
      <trkpt lat="42.617533" lon="-2.223950">
        <ele>531.0</ele>
        <time>2013-06-22T13:48:38Z</time>
      </trkpt>
      <trkpt lat="42.617533" lon="-2.223950">
        <ele>531.0</ele>
        <time>2013-06-22T13:48:39Z</time>
      </trkpt>
      <trkpt lat="42.617533" lon="-2.223967">
        <ele>531.0</ele>
        <time>2013-06-22T13:48:40Z</time>
      </trkpt>
      <trkpt lat="42.617533" lon="-2.223967">
        <ele>531.0</ele>
        <time>2013-06-22T13:48:41Z</time>
      </trkpt>
      <trkpt lat="42.617533" lon="-2.223983">
        <ele>531.0</ele>
        <time>2013-06-22T13:48:42Z</time>
      </trkpt>
      <trkpt lat="42.617533" lon="-2.223983">
        <ele>531.0</ele>
        <time>2013-06-22T13:48:43Z</time>
      </trkpt>
      <trkpt lat="42.617550" lon="-2.223983">
        <ele>531.0</ele>
        <time>2013-06-22T13:48:44Z</time>
      </trkpt>
      <trkpt lat="42.617550" lon="-2.223983">
        <ele>531.0</ele>
        <time>2013-06-22T13:48:45Z</time>
      </trkpt>
      <trkpt lat="42.617550" lon="-2.223983">
        <ele>531.0</ele>
        <time>2013-06-22T13:48:46Z</time>
      </trkpt>
      <trkpt lat="42.617550" lon="-2.223983">
        <ele>532.0</ele>
        <time>2013-06-22T13:48:47Z</time>
      </trkpt>
      <trkpt lat="42.617550" lon="-2.223983">
        <ele>532.0</ele>
        <time>2013-06-22T13:48:48Z</time>
      </trkpt>
      <trkpt lat="42.617550" lon="-2.223983">
        <ele>532.0</ele>
        <time>2013-06-22T13:48:49Z</time>
      </trkpt>
      <trkpt lat="42.617550" lon="-2.223983">
        <ele>532.0</ele>
        <time>2013-06-22T13:48:50Z</time>
      </trkpt>
      <trkpt lat="42.617550" lon="-2.223983">
        <ele>532.0</ele>
        <time>2013-06-22T13:48:51Z</time>
      </trkpt>
      <trkpt lat="42.617550" lon="-2.223983">
        <ele>532.0</ele>
        <time>2013-06-22T13:48:52Z</time>
      </trkpt>
      <trkpt lat="42.617550" lon="-2.223983">
        <ele>532.0</ele>
        <time>2013-06-22T13:48:53Z</time>
      </trkpt>
      <trkpt lat="42.617550" lon="-2.223983">
        <ele>532.0</ele>
        <time>2013-06-22T13:48:54Z</time>
      </trkpt>
      <trkpt lat="42.617550" lon="-2.223983">
        <ele>532.0</ele>
        <time>2013-06-22T13:48:55Z</time>
      </trkpt>
      <trkpt lat="42.617550" lon="-2.223983">
        <ele>532.0</ele>
        <time>2013-06-22T13:48:56Z</time>
      </trkpt>
      <trkpt lat="42.617550" lon="-2.223983">
        <ele>532.0</ele>
        <time>2013-06-22T13:48:57Z</time>
      </trkpt>
      <trkpt lat="42.617550" lon="-2.223983">
        <ele>533.0</ele>
        <time>2013-06-22T13:48:58Z</time>
      </trkpt>
      <trkpt lat="42.617550" lon="-2.223983">
        <ele>533.0</ele>
        <time>2013-06-22T13:48:59Z</time>
      </trkpt>
      <trkpt lat="42.617550" lon="-2.223983">
        <ele>533.0</ele>
        <time>2013-06-22T13:49:00Z</time>
      </trkpt>
      <trkpt lat="42.617550" lon="-2.223983">
        <ele>533.0</ele>
        <time>2013-06-22T13:49:01Z</time>
      </trkpt>
      <trkpt lat="42.617550" lon="-2.223983">
        <ele>533.0</ele>
        <time>2013-06-22T13:49:02Z</time>
      </trkpt>
      <trkpt lat="42.617550" lon="-2.223983">
        <ele>533.0</ele>
        <time>2013-06-22T13:49:03Z</time>
      </trkpt>
      <trkpt lat="42.617550" lon="-2.223983">
        <ele>533.0</ele>
        <time>2013-06-22T13:49:04Z</time>
      </trkpt>
      <trkpt lat="42.617550" lon="-2.223983">
        <ele>532.0</ele>
        <time>2013-06-22T13:49:05Z</time>
      </trkpt>
      <trkpt lat="42.617550" lon="-2.223983">
        <ele>532.0</ele>
        <time>2013-06-22T13:49:06Z</time>
      </trkpt>
      <trkpt lat="42.617550" lon="-2.223983">
        <ele>532.0</ele>
        <time>2013-06-22T13:49:07Z</time>
      </trkpt>
      <trkpt lat="42.617550" lon="-2.223983">
        <ele>532.0</ele>
        <time>2013-06-22T13:49:08Z</time>
      </trkpt>
      <trkpt lat="42.617550" lon="-2.223983">
        <ele>532.0</ele>
        <time>2013-06-22T13:49:09Z</time>
      </trkpt>
      <trkpt lat="42.617550" lon="-2.223983">
        <ele>533.0</ele>
        <time>2013-06-22T13:49:10Z</time>
      </trkpt>
      <trkpt lat="42.617550" lon="-2.223983">
        <ele>533.0</ele>
        <time>2013-06-22T13:49:11Z</time>
      </trkpt>
      <trkpt lat="42.617550" lon="-2.223983">
        <ele>532.0</ele>
        <time>2013-06-22T13:49:12Z</time>
      </trkpt>
      <trkpt lat="42.617550" lon="-2.223983">
        <ele>532.0</ele>
        <time>2013-06-22T13:49:13Z</time>
      </trkpt>
      <trkpt lat="42.617550" lon="-2.223983">
        <ele>532.0</ele>
        <time>2013-06-22T13:49:14Z</time>
      </trkpt>
      <trkpt lat="42.617550" lon="-2.223983">
        <ele>532.0</ele>
        <time>2013-06-22T13:49:15Z</time>
      </trkpt>
      <trkpt lat="42.617550" lon="-2.223983">
        <ele>532.0</ele>
        <time>2013-06-22T13:49:16Z</time>
      </trkpt>
      <trkpt lat="42.617567" lon="-2.223983">
        <ele>532.0</ele>
        <time>2013-06-22T13:49:17Z</time>
      </trkpt>
      <trkpt lat="42.617550" lon="-2.223983">
        <ele>532.0</ele>
        <time>2013-06-22T13:49:18Z</time>
      </trkpt>
      <trkpt lat="42.617567" lon="-2.223983">
        <ele>533.0</ele>
        <time>2013-06-22T13:49:19Z</time>
      </trkpt>
      <trkpt lat="42.617567" lon="-2.223983">
        <ele>532.0</ele>
        <time>2013-06-22T13:49:20Z</time>
      </trkpt>
      <trkpt lat="42.617567" lon="-2.223983">
        <ele>532.0</ele>
        <time>2013-06-22T13:49:21Z</time>
      </trkpt>
      <trkpt lat="42.617567" lon="-2.223983">
        <ele>532.0</ele>
        <time>2013-06-22T13:49:22Z</time>
      </trkpt>
      <trkpt lat="42.617567" lon="-2.223983">
        <ele>533.0</ele>
        <time>2013-06-22T13:49:23Z</time>
      </trkpt>
      <trkpt lat="42.617567" lon="-2.223983">
        <ele>533.0</ele>
        <time>2013-06-22T13:49:24Z</time>
      </trkpt>
      <trkpt lat="42.617567" lon="-2.223983">
        <ele>533.0</ele>
        <time>2013-06-22T13:49:25Z</time>
      </trkpt>
      <trkpt lat="42.617567" lon="-2.223983">
        <ele>533.0</ele>
        <time>2013-06-22T13:49:26Z</time>
      </trkpt>
      <trkpt lat="42.617567" lon="-2.223983">
        <ele>533.0</ele>
        <time>2013-06-22T13:49:27Z</time>
      </trkpt>
      <trkpt lat="42.617567" lon="-2.223983">
        <ele>533.0</ele>
        <time>2013-06-22T13:49:28Z</time>
      </trkpt>
      <trkpt lat="42.617567" lon="-2.223983">
        <ele>533.0</ele>
        <time>2013-06-22T13:49:29Z</time>
      </trkpt>
      <trkpt lat="42.617567" lon="-2.223983">
        <ele>533.0</ele>
        <time>2013-06-22T13:49:30Z</time>
      </trkpt>
      <trkpt lat="42.617567" lon="-2.223983">
        <ele>533.0</ele>
        <time>2013-06-22T13:49:31Z</time>
      </trkpt>
      <trkpt lat="42.617567" lon="-2.223983">
        <ele>533.0</ele>
        <time>2013-06-22T13:49:32Z</time>
      </trkpt>
      <trkpt lat="42.617567" lon="-2.223983">
        <ele>533.0</ele>
        <time>2013-06-22T13:49:33Z</time>
      </trkpt>
      <trkpt lat="42.617567" lon="-2.223983">
        <ele>533.0</ele>
        <time>2013-06-22T13:49:34Z</time>
      </trkpt>
      <trkpt lat="42.617567" lon="-2.223983">
        <ele>533.0</ele>
        <time>2013-06-22T13:49:35Z</time>
      </trkpt>
      <trkpt lat="42.617567" lon="-2.223983">
        <ele>533.0</ele>
        <time>2013-06-22T13:49:36Z</time>
      </trkpt>
      <trkpt lat="42.617567" lon="-2.223983">
        <ele>533.0</ele>
        <time>2013-06-22T13:49:37Z</time>
      </trkpt>
      <trkpt lat="42.617567" lon="-2.223983">
        <ele>533.0</ele>
        <time>2013-06-22T13:49:38Z</time>
      </trkpt>
      <trkpt lat="42.617567" lon="-2.223983">
        <ele>532.0</ele>
        <time>2013-06-22T13:49:39Z</time>
      </trkpt>
      <trkpt lat="42.617567" lon="-2.223983">
        <ele>532.0</ele>
        <time>2013-06-22T13:49:40Z</time>
      </trkpt>
      <trkpt lat="42.617567" lon="-2.223983">
        <ele>532.0</ele>
        <time>2013-06-22T13:49:41Z</time>
      </trkpt>
      <trkpt lat="42.617567" lon="-2.223983">
        <ele>532.0</ele>
        <time>2013-06-22T13:49:42Z</time>
      </trkpt>
      <trkpt lat="42.617567" lon="-2.223983">
        <ele>532.0</ele>
        <time>2013-06-22T13:49:43Z</time>
      </trkpt>
      <trkpt lat="42.617567" lon="-2.223983">
        <ele>532.0</ele>
        <time>2013-06-22T13:49:44Z</time>
      </trkpt>
      <trkpt lat="42.617567" lon="-2.223983">
        <ele>532.0</ele>
        <time>2013-06-22T13:49:45Z</time>
      </trkpt>
      <trkpt lat="42.617567" lon="-2.223983">
        <ele>533.0</ele>
        <time>2013-06-22T13:49:46Z</time>
      </trkpt>
      <trkpt lat="42.617567" lon="-2.223983">
        <ele>533.0</ele>
        <time>2013-06-22T13:49:47Z</time>
      </trkpt>
      <trkpt lat="42.617567" lon="-2.223983">
        <ele>533.0</ele>
        <time>2013-06-22T13:49:48Z</time>
      </trkpt>
      <trkpt lat="42.617567" lon="-2.223983">
        <ele>533.0</ele>
        <time>2013-06-22T13:49:49Z</time>
      </trkpt>
      <trkpt lat="42.617567" lon="-2.223983">
        <ele>533.0</ele>
        <time>2013-06-22T13:49:50Z</time>
      </trkpt>
      <trkpt lat="42.617567" lon="-2.223983">
        <ele>533.0</ele>
        <time>2013-06-22T13:49:51Z</time>
      </trkpt>
      <trkpt lat="42.617567" lon="-2.223983">
        <ele>533.0</ele>
        <time>2013-06-22T13:49:52Z</time>
      </trkpt>
      <trkpt lat="42.617567" lon="-2.223983">
        <ele>534.0</ele>
        <time>2013-06-22T13:49:53Z</time>
      </trkpt>
      <trkpt lat="42.617567" lon="-2.223983">
        <ele>534.0</ele>
        <time>2013-06-22T13:49:54Z</time>
      </trkpt>
      <trkpt lat="42.617567" lon="-2.223983">
        <ele>534.0</ele>
        <time>2013-06-22T13:49:55Z</time>
      </trkpt>
      <trkpt lat="42.617567" lon="-2.223983">
        <ele>534.0</ele>
        <time>2013-06-22T13:49:56Z</time>
      </trkpt>
      <trkpt lat="42.617567" lon="-2.223983">
        <ele>533.0</ele>
        <time>2013-06-22T13:49:57Z</time>
      </trkpt>
      <trkpt lat="42.617567" lon="-2.223983">
        <ele>533.0</ele>
        <time>2013-06-22T13:49:58Z</time>
      </trkpt>
      <trkpt lat="42.617567" lon="-2.223983">
        <ele>533.0</ele>
        <time>2013-06-22T13:49:59Z</time>
      </trkpt>
      <trkpt lat="42.617567" lon="-2.223983">
        <ele>533.0</ele>
        <time>2013-06-22T13:50:00Z</time>
      </trkpt>
      <trkpt lat="42.617567" lon="-2.223983">
        <ele>533.0</ele>
        <time>2013-06-22T13:50:01Z</time>
      </trkpt>
      <trkpt lat="42.617567" lon="-2.223983">
        <ele>533.0</ele>
        <time>2013-06-22T13:50:02Z</time>
      </trkpt>
      <trkpt lat="42.617567" lon="-2.223983">
        <ele>533.0</ele>
        <time>2013-06-22T13:50:03Z</time>
      </trkpt>
      <trkpt lat="42.617567" lon="-2.223983">
        <ele>533.0</ele>
        <time>2013-06-22T13:50:04Z</time>
      </trkpt>
      <trkpt lat="42.617567" lon="-2.223983">
        <ele>533.0</ele>
        <time>2013-06-22T13:50:05Z</time>
      </trkpt>
      <trkpt lat="42.617567" lon="-2.223983">
        <ele>533.0</ele>
        <time>2013-06-22T13:50:06Z</time>
      </trkpt>
      <trkpt lat="42.617567" lon="-2.223983">
        <ele>533.0</ele>
        <time>2013-06-22T13:50:07Z</time>
      </trkpt>
      <trkpt lat="42.617567" lon="-2.223983">
        <ele>533.0</ele>
        <time>2013-06-22T13:50:08Z</time>
      </trkpt>
      <trkpt lat="42.617567" lon="-2.223983">
        <ele>533.0</ele>
        <time>2013-06-22T13:50:09Z</time>
      </trkpt>
      <trkpt lat="42.617567" lon="-2.223983">
        <ele>533.0</ele>
        <time>2013-06-22T13:50:10Z</time>
      </trkpt>
      <trkpt lat="42.617567" lon="-2.223983">
        <ele>533.0</ele>
        <time>2013-06-22T13:50:11Z</time>
      </trkpt>
      <trkpt lat="42.617567" lon="-2.223983">
        <ele>533.0</ele>
        <time>2013-06-22T13:50:12Z</time>
      </trkpt>
      <trkpt lat="42.617567" lon="-2.223983">
        <ele>533.0</ele>
        <time>2013-06-22T13:50:13Z</time>
      </trkpt>
      <trkpt lat="42.617567" lon="-2.223983">
        <ele>533.0</ele>
        <time>2013-06-22T13:50:14Z</time>
      </trkpt>
      <trkpt lat="42.617567" lon="-2.223983">
        <ele>533.0</ele>
        <time>2013-06-22T13:50:15Z</time>
      </trkpt>
      <trkpt lat="42.617567" lon="-2.223983">
        <ele>533.0</ele>
        <time>2013-06-22T13:50:16Z</time>
      </trkpt>
      <trkpt lat="42.617567" lon="-2.223983">
        <ele>533.0</ele>
        <time>2013-06-22T13:50:17Z</time>
      </trkpt>
      <trkpt lat="42.617567" lon="-2.223983">
        <ele>532.0</ele>
        <time>2013-06-22T13:50:18Z</time>
      </trkpt>
      <trkpt lat="42.617567" lon="-2.223983">
        <ele>532.0</ele>
        <time>2013-06-22T13:50:19Z</time>
      </trkpt>
      <trkpt lat="42.617567" lon="-2.223983">
        <ele>532.0</ele>
        <time>2013-06-22T13:50:20Z</time>
      </trkpt>
      <trkpt lat="42.617567" lon="-2.223983">
        <ele>532.0</ele>
        <time>2013-06-22T13:50:21Z</time>
      </trkpt>
      <trkpt lat="42.617567" lon="-2.223983">
        <ele>532.0</ele>
        <time>2013-06-22T13:50:22Z</time>
      </trkpt>
      <trkpt lat="42.617567" lon="-2.223983">
        <ele>532.0</ele>
        <time>2013-06-22T13:50:23Z</time>
      </trkpt>
      <trkpt lat="42.617567" lon="-2.223983">
        <ele>532.0</ele>
        <time>2013-06-22T13:50:24Z</time>
      </trkpt>
      <trkpt lat="42.617567" lon="-2.223983">
        <ele>532.0</ele>
        <time>2013-06-22T13:50:25Z</time>
      </trkpt>
      <trkpt lat="42.617567" lon="-2.223983">
        <ele>532.0</ele>
        <time>2013-06-22T13:50:26Z</time>
      </trkpt>
      <trkpt lat="42.617567" lon="-2.223983">
        <ele>532.0</ele>
        <time>2013-06-22T13:50:27Z</time>
      </trkpt>
      <trkpt lat="42.617567" lon="-2.223983">
        <ele>532.0</ele>
        <time>2013-06-22T13:50:28Z</time>
      </trkpt>
      <trkpt lat="42.617567" lon="-2.223983">
        <ele>532.0</ele>
        <time>2013-06-22T13:50:29Z</time>
      </trkpt>
      <trkpt lat="42.617567" lon="-2.223983">
        <ele>532.0</ele>
        <time>2013-06-22T13:50:30Z</time>
      </trkpt>
      <trkpt lat="42.617567" lon="-2.223983">
        <ele>532.0</ele>
        <time>2013-06-22T13:50:31Z</time>
      </trkpt>
      <trkpt lat="42.617567" lon="-2.223983">
        <ele>532.0</ele>
        <time>2013-06-22T13:50:32Z</time>
      </trkpt>
      <trkpt lat="42.617567" lon="-2.223983">
        <ele>532.0</ele>
        <time>2013-06-22T13:50:33Z</time>
      </trkpt>
      <trkpt lat="42.617567" lon="-2.223983">
        <ele>532.0</ele>
        <time>2013-06-22T13:50:34Z</time>
      </trkpt>
      <trkpt lat="42.617567" lon="-2.223983">
        <ele>531.0</ele>
        <time>2013-06-22T13:50:35Z</time>
      </trkpt>
      <trkpt lat="42.617567" lon="-2.223983">
        <ele>531.0</ele>
        <time>2013-06-22T13:50:36Z</time>
      </trkpt>
      <trkpt lat="42.617567" lon="-2.223983">
        <ele>531.0</ele>
        <time>2013-06-22T13:50:37Z</time>
      </trkpt>
      <trkpt lat="42.617567" lon="-2.223983">
        <ele>531.0</ele>
        <time>2013-06-22T13:50:38Z</time>
      </trkpt>
      <trkpt lat="42.617567" lon="-2.223983">
        <ele>531.0</ele>
        <time>2013-06-22T13:50:39Z</time>
      </trkpt>
      <trkpt lat="42.617567" lon="-2.223983">
        <ele>531.0</ele>
        <time>2013-06-22T13:50:40Z</time>
      </trkpt>
      <trkpt lat="42.617567" lon="-2.223983">
        <ele>531.0</ele>
        <time>2013-06-22T13:50:41Z</time>
      </trkpt>
      <trkpt lat="42.617567" lon="-2.223983">
        <ele>531.0</ele>
        <time>2013-06-22T13:50:42Z</time>
      </trkpt>
      <trkpt lat="42.617567" lon="-2.223983">
        <ele>531.0</ele>
        <time>2013-06-22T13:50:43Z</time>
      </trkpt>
      <trkpt lat="42.617567" lon="-2.223983">
        <ele>531.0</ele>
        <time>2013-06-22T13:50:44Z</time>
      </trkpt>
      <trkpt lat="42.617567" lon="-2.223983">
        <ele>532.0</ele>
        <time>2013-06-22T13:50:45Z</time>
      </trkpt>
      <trkpt lat="42.617567" lon="-2.223983">
        <ele>532.0</ele>
        <time>2013-06-22T13:50:46Z</time>
      </trkpt>
      <trkpt lat="42.617567" lon="-2.223983">
        <ele>532.0</ele>
        <time>2013-06-22T13:50:47Z</time>
      </trkpt>
      <trkpt lat="42.617567" lon="-2.223983">
        <ele>532.0</ele>
        <time>2013-06-22T13:50:48Z</time>
      </trkpt>
      <trkpt lat="42.617567" lon="-2.223983">
        <ele>532.0</ele>
        <time>2013-06-22T13:50:49Z</time>
      </trkpt>
      <trkpt lat="42.617567" lon="-2.223983">
        <ele>533.0</ele>
        <time>2013-06-22T13:50:50Z</time>
      </trkpt>
      <trkpt lat="42.617550" lon="-2.223983">
        <ele>533.0</ele>
        <time>2013-06-22T13:50:51Z</time>
      </trkpt>
      <trkpt lat="42.617550" lon="-2.223967">
        <ele>533.0</ele>
        <time>2013-06-22T13:50:52Z</time>
      </trkpt>
      <trkpt lat="42.617567" lon="-2.223983">
        <ele>533.0</ele>
        <time>2013-06-22T13:50:53Z</time>
      </trkpt>
      <trkpt lat="42.617567" lon="-2.223983">
        <ele>533.0</ele>
        <time>2013-06-22T13:50:54Z</time>
      </trkpt>
      <trkpt lat="42.617567" lon="-2.223983">
        <ele>533.0</ele>
        <time>2013-06-22T13:50:55Z</time>
      </trkpt>
      <trkpt lat="42.617567" lon="-2.223983">
        <ele>533.0</ele>
        <time>2013-06-22T13:50:56Z</time>
      </trkpt>
      <trkpt lat="42.617567" lon="-2.223983">
        <ele>533.0</ele>
        <time>2013-06-22T13:50:57Z</time>
      </trkpt>
      <trkpt lat="42.617567" lon="-2.223983">
        <ele>533.0</ele>
        <time>2013-06-22T13:50:58Z</time>
      </trkpt>
      <trkpt lat="42.617567" lon="-2.223983">
        <ele>532.0</ele>
        <time>2013-06-22T13:50:59Z</time>
      </trkpt>
      <trkpt lat="42.617567" lon="-2.223983">
        <ele>532.0</ele>
        <time>2013-06-22T13:51:00Z</time>
      </trkpt>
      <trkpt lat="42.617567" lon="-2.223983">
        <ele>532.0</ele>
        <time>2013-06-22T13:51:01Z</time>
      </trkpt>
      <trkpt lat="42.617567" lon="-2.223983">
        <ele>532.0</ele>
        <time>2013-06-22T13:51:02Z</time>
      </trkpt>
      <trkpt lat="42.617583" lon="-2.223983">
        <ele>531.0</ele>
        <time>2013-06-22T13:51:03Z</time>
      </trkpt>
      <trkpt lat="42.617583" lon="-2.223983">
        <ele>532.0</ele>
        <time>2013-06-22T13:51:04Z</time>
      </trkpt>
      <trkpt lat="42.617567" lon="-2.223983">
        <ele>532.0</ele>
        <time>2013-06-22T13:51:05Z</time>
      </trkpt>
      <trkpt lat="42.617567" lon="-2.223983">
        <ele>532.0</ele>
        <time>2013-06-22T13:51:06Z</time>
      </trkpt>
      <trkpt lat="42.617567" lon="-2.223983">
        <ele>532.0</ele>
        <time>2013-06-22T13:51:07Z</time>
      </trkpt>
      <trkpt lat="42.617567" lon="-2.223983">
        <ele>532.0</ele>
        <time>2013-06-22T13:51:08Z</time>
      </trkpt>
      <trkpt lat="42.617567" lon="-2.223983">
        <ele>532.0</ele>
        <time>2013-06-22T13:51:09Z</time>
      </trkpt>
      <trkpt lat="42.617567" lon="-2.223983">
        <ele>532.0</ele>
        <time>2013-06-22T13:51:10Z</time>
      </trkpt>
      <trkpt lat="42.617567" lon="-2.223983">
        <ele>532.0</ele>
        <time>2013-06-22T13:51:11Z</time>
      </trkpt>
      <trkpt lat="42.617567" lon="-2.223983">
        <ele>532.0</ele>
        <time>2013-06-22T13:51:12Z</time>
      </trkpt>
      <trkpt lat="42.617567" lon="-2.223983">
        <ele>532.0</ele>
        <time>2013-06-22T13:51:13Z</time>
      </trkpt>
      <trkpt lat="42.617550" lon="-2.223983">
        <ele>532.0</ele>
        <time>2013-06-22T13:51:14Z</time>
      </trkpt>
      <trkpt lat="42.617550" lon="-2.223983">
        <ele>532.0</ele>
        <time>2013-06-22T13:51:15Z</time>
      </trkpt>
      <trkpt lat="42.617550" lon="-2.223983">
        <ele>532.0</ele>
        <time>2013-06-22T13:51:16Z</time>
      </trkpt>
      <trkpt lat="42.617550" lon="-2.223983">
        <ele>532.0</ele>
        <time>2013-06-22T13:51:17Z</time>
      </trkpt>
      <trkpt lat="42.617550" lon="-2.223983">
        <ele>532.0</ele>
        <time>2013-06-22T13:51:18Z</time>
      </trkpt>
      <trkpt lat="42.617550" lon="-2.223983">
        <ele>532.0</ele>
        <time>2013-06-22T13:51:19Z</time>
      </trkpt>
      <trkpt lat="42.617550" lon="-2.223983">
        <ele>532.0</ele>
        <time>2013-06-22T13:51:20Z</time>
      </trkpt>
      <trkpt lat="42.617550" lon="-2.223983">
        <ele>532.0</ele>
        <time>2013-06-22T13:51:21Z</time>
      </trkpt>
      <trkpt lat="42.617550" lon="-2.223983">
        <ele>532.0</ele>
        <time>2013-06-22T13:51:22Z</time>
      </trkpt>
      <trkpt lat="42.617550" lon="-2.223983">
        <ele>533.0</ele>
        <time>2013-06-22T13:51:23Z</time>
      </trkpt>
      <trkpt lat="42.617550" lon="-2.223983">
        <ele>533.0</ele>
        <time>2013-06-22T13:51:24Z</time>
      </trkpt>
      <trkpt lat="42.617550" lon="-2.223983">
        <ele>533.0</ele>
        <time>2013-06-22T13:51:25Z</time>
      </trkpt>
      <trkpt lat="42.617550" lon="-2.223983">
        <ele>533.0</ele>
        <time>2013-06-22T13:51:26Z</time>
      </trkpt>
      <trkpt lat="42.617550" lon="-2.223983">
        <ele>533.0</ele>
        <time>2013-06-22T13:51:27Z</time>
      </trkpt>
      <trkpt lat="42.617550" lon="-2.223983">
        <ele>533.0</ele>
        <time>2013-06-22T13:51:28Z</time>
      </trkpt>
      <trkpt lat="42.617550" lon="-2.223983">
        <ele>533.0</ele>
        <time>2013-06-22T13:51:29Z</time>
      </trkpt>
      <trkpt lat="42.617550" lon="-2.223983">
        <ele>533.0</ele>
        <time>2013-06-22T13:51:30Z</time>
      </trkpt>
      <trkpt lat="42.617550" lon="-2.223983">
        <ele>533.0</ele>
        <time>2013-06-22T13:51:31Z</time>
      </trkpt>
      <trkpt lat="42.617550" lon="-2.223983">
        <ele>533.0</ele>
        <time>2013-06-22T13:51:32Z</time>
      </trkpt>
      <trkpt lat="42.617550" lon="-2.223967">
        <ele>533.0</ele>
        <time>2013-06-22T13:51:33Z</time>
      </trkpt>
      <trkpt lat="42.617550" lon="-2.223967">
        <ele>533.0</ele>
        <time>2013-06-22T13:51:34Z</time>
      </trkpt>
      <trkpt lat="42.617550" lon="-2.223967">
        <ele>533.0</ele>
        <time>2013-06-22T13:51:35Z</time>
      </trkpt>
      <trkpt lat="42.617550" lon="-2.223967">
        <ele>533.0</ele>
        <time>2013-06-22T13:51:36Z</time>
      </trkpt>
      <trkpt lat="42.617550" lon="-2.223967">
        <ele>533.0</ele>
        <time>2013-06-22T13:51:37Z</time>
      </trkpt>
      <trkpt lat="42.617550" lon="-2.223967">
        <ele>533.0</ele>
        <time>2013-06-22T13:51:38Z</time>
      </trkpt>
      <trkpt lat="42.617550" lon="-2.223967">
        <ele>533.0</ele>
        <time>2013-06-22T13:51:39Z</time>
      </trkpt>
      <trkpt lat="42.617550" lon="-2.223967">
        <ele>533.0</ele>
        <time>2013-06-22T13:51:40Z</time>
      </trkpt>
      <trkpt lat="42.617550" lon="-2.223967">
        <ele>533.0</ele>
        <time>2013-06-22T13:51:41Z</time>
      </trkpt>
      <trkpt lat="42.617550" lon="-2.223967">
        <ele>533.0</ele>
        <time>2013-06-22T13:51:42Z</time>
      </trkpt>
      <trkpt lat="42.617550" lon="-2.223967">
        <ele>533.0</ele>
        <time>2013-06-22T13:51:43Z</time>
      </trkpt>
      <trkpt lat="42.617550" lon="-2.223967">
        <ele>533.0</ele>
        <time>2013-06-22T13:51:44Z</time>
      </trkpt>
      <trkpt lat="42.617550" lon="-2.223967">
        <ele>533.0</ele>
        <time>2013-06-22T13:51:45Z</time>
      </trkpt>
      <trkpt lat="42.617550" lon="-2.223967">
        <ele>533.0</ele>
        <time>2013-06-22T13:51:46Z</time>
      </trkpt>
      <trkpt lat="42.617550" lon="-2.223967">
        <ele>533.0</ele>
        <time>2013-06-22T13:51:47Z</time>
      </trkpt>
      <trkpt lat="42.617550" lon="-2.223967">
        <ele>534.0</ele>
        <time>2013-06-22T13:51:48Z</time>
      </trkpt>
      <trkpt lat="42.617550" lon="-2.223967">
        <ele>534.0</ele>
        <time>2013-06-22T13:51:49Z</time>
      </trkpt>
      <trkpt lat="42.617550" lon="-2.223967">
        <ele>533.0</ele>
        <time>2013-06-22T13:51:50Z</time>
      </trkpt>
      <trkpt lat="42.617567" lon="-2.223967">
        <ele>533.0</ele>
        <time>2013-06-22T13:51:51Z</time>
      </trkpt>
      <trkpt lat="42.617550" lon="-2.223967">
        <ele>533.0</ele>
        <time>2013-06-22T13:51:52Z</time>
      </trkpt>
      <trkpt lat="42.617550" lon="-2.223967">
        <ele>533.0</ele>
        <time>2013-06-22T13:51:53Z</time>
      </trkpt>
      <trkpt lat="42.617550" lon="-2.223967">
        <ele>533.0</ele>
        <time>2013-06-22T13:51:54Z</time>
      </trkpt>
      <trkpt lat="42.617550" lon="-2.223967">
        <ele>533.0</ele>
        <time>2013-06-22T13:51:55Z</time>
      </trkpt>
      <trkpt lat="42.617550" lon="-2.223967">
        <ele>532.0</ele>
        <time>2013-06-22T13:52:00Z</time>
      </trkpt>
      <trkpt lat="42.617550" lon="-2.223967">
        <ele>532.0</ele>
        <time>2013-06-22T13:52:01Z</time>
      </trkpt>
      <trkpt lat="42.617550" lon="-2.223967">
        <ele>532.0</ele>
        <time>2013-06-22T13:52:03Z</time>
      </trkpt>
      <trkpt lat="42.617550" lon="-2.223967">
        <ele>532.0</ele>
        <time>2013-06-22T13:52:04Z</time>
      </trkpt>
      <trkpt lat="42.617550" lon="-2.223967">
        <ele>532.0</ele>
        <time>2013-06-22T13:52:05Z</time>
      </trkpt>
      <trkpt lat="42.617550" lon="-2.223967">
        <ele>532.0</ele>
        <time>2013-06-22T13:52:06Z</time>
      </trkpt>
      <trkpt lat="42.617550" lon="-2.223967">
        <ele>532.0</ele>
        <time>2013-06-22T13:52:08Z</time>
      </trkpt>
      <trkpt lat="42.617550" lon="-2.223967">
        <ele>532.0</ele>
        <time>2013-06-22T13:52:09Z</time>
      </trkpt>
      <trkpt lat="42.617550" lon="-2.223967">
        <ele>532.0</ele>
        <time>2013-06-22T13:52:10Z</time>
      </trkpt>
      <trkpt lat="42.617550" lon="-2.223967">
        <ele>532.0</ele>
        <time>2013-06-22T13:52:11Z</time>
      </trkpt>
      <trkpt lat="42.617550" lon="-2.223967">
        <ele>532.0</ele>
        <time>2013-06-22T13:52:12Z</time>
      </trkpt>
      <trkpt lat="42.617550" lon="-2.223967">
        <ele>532.0</ele>
        <time>2013-06-22T13:52:14Z</time>
      </trkpt>
      <trkpt lat="42.617550" lon="-2.223967">
        <ele>532.0</ele>
        <time>2013-06-22T13:52:15Z</time>
      </trkpt>
      <trkpt lat="42.617550" lon="-2.223967">
        <ele>532.0</ele>
        <time>2013-06-22T13:52:17Z</time>
      </trkpt>
      <trkpt lat="42.617550" lon="-2.223967">
        <ele>532.0</ele>
        <time>2013-06-22T13:52:18Z</time>
      </trkpt>
      <trkpt lat="42.617550" lon="-2.223967">
        <ele>532.0</ele>
        <time>2013-06-22T13:52:19Z</time>
      </trkpt>
      <trkpt lat="42.617550" lon="-2.223967">
        <ele>532.0</ele>
        <time>2013-06-22T13:52:20Z</time>
      </trkpt>
    </trkseg>
  </trk>
</gpx>
